<?xml version="1.0" encoding="UTF-8" standalone="no" ?>
<gpx xmlns="http://www.topografix.com/GPX/1/1" xmlns:xsi="http://www.w3.org/2001/XMLSchema-instance" xsi:schemaLocation="http://www.topografix.com/GPX/1/1 http://www.topografix.com/GPX/1/1/gpx.xsd" version="1.1" creator="VisuGPX - https://www.visugpx.com">
  <metadata>
    <name>Vence VTT</name>
    <desc><![CDATA[Départ Vence, montée par le chemin des salles, col de Vence, direction Courmes retour Vence par la DH des violettes. Parcours vraiment sympa pratiquement que par des sentiers.]]></desc>
  </metadata>
  <trk>
    <name><![CDATA[Vence VTT]]></name>
    <trkseg>
      <trkpt lat="43.7167" lon="7.08131">
        <ele>299.39999389648</ele>
        <time>2023-07-30T05:18:13.000Z</time>
      </trkpt>
      <trkpt lat="43.71671" lon="7.08132">
        <ele>299.39999389648</ele>
        <time>2023-07-30T05:18:14.000Z</time>
      </trkpt>
      <trkpt lat="43.71672" lon="7.08133">
        <ele>299.60000610352</ele>
        <time>2023-07-30T05:18:15.000Z</time>
      </trkpt>
      <trkpt lat="43.71673" lon="7.08134">
        <ele>299.60000610352</ele>
        <time>2023-07-30T05:18:16.000Z</time>
      </trkpt>
      <trkpt lat="43.71674" lon="7.08135">
        <ele>299.79998779297</ele>
        <time>2023-07-30T05:18:17.000Z</time>
      </trkpt>
      <trkpt lat="43.71674" lon="7.08137">
        <ele>299.79998779297</ele>
        <time>2023-07-30T05:18:18.000Z</time>
      </trkpt>
      <trkpt lat="43.71675" lon="7.08139">
        <ele>300.20001220703</ele>
        <time>2023-07-30T05:18:19.000Z</time>
      </trkpt>
      <trkpt lat="43.71676" lon="7.0814">
        <ele>300.20001220703</ele>
        <time>2023-07-30T05:18:20.000Z</time>
      </trkpt>
      <trkpt lat="43.71677" lon="7.08141">
        <ele>301.20001220703</ele>
        <time>2023-07-30T05:18:21.000Z</time>
      </trkpt>
      <trkpt lat="43.71678" lon="7.08142">
        <ele>302.39999389648</ele>
        <time>2023-07-30T05:18:22.000Z</time>
      </trkpt>
      <trkpt lat="43.7168" lon="7.08144">
        <ele>302.39999389648</ele>
        <time>2023-07-30T05:18:23.000Z</time>
      </trkpt>
      <trkpt lat="43.71681" lon="7.08145">
        <ele>302.39999389648</ele>
        <time>2023-07-30T05:18:24.000Z</time>
      </trkpt>
      <trkpt lat="43.71681" lon="7.08146">
        <ele>302.60000610352</ele>
        <time>2023-07-30T05:18:25.000Z</time>
      </trkpt>
      <trkpt lat="43.71682" lon="7.08148">
        <ele>302.60000610352</ele>
        <time>2023-07-30T05:18:26.000Z</time>
      </trkpt>
      <trkpt lat="43.71684" lon="7.0815">
        <ele>303</ele>
        <time>2023-07-30T05:18:27.000Z</time>
      </trkpt>
      <trkpt lat="43.71685" lon="7.08152">
        <ele>303.20001220703</ele>
        <time>2023-07-30T05:18:28.000Z</time>
      </trkpt>
      <trkpt lat="43.71687" lon="7.08154">
        <ele>303.60000610352</ele>
        <time>2023-07-30T05:18:29.000Z</time>
      </trkpt>
      <trkpt lat="43.71688" lon="7.08155">
        <ele>304</ele>
        <time>2023-07-30T05:18:30.000Z</time>
      </trkpt>
      <trkpt lat="43.71689" lon="7.08157">
        <ele>304.20001220703</ele>
        <time>2023-07-30T05:18:31.000Z</time>
      </trkpt>
      <trkpt lat="43.71691" lon="7.08159">
        <ele>304.60000610352</ele>
        <time>2023-07-30T05:18:32.000Z</time>
      </trkpt>
      <trkpt lat="43.71691" lon="7.08162">
        <ele>305</ele>
        <time>2023-07-30T05:18:33.000Z</time>
      </trkpt>
      <trkpt lat="43.71692" lon="7.08164">
        <ele>305.39999389648</ele>
        <time>2023-07-30T05:18:34.000Z</time>
      </trkpt>
      <trkpt lat="43.71694" lon="7.08165">
        <ele>305.60000610352</ele>
        <time>2023-07-30T05:18:35.000Z</time>
      </trkpt>
      <trkpt lat="43.71696" lon="7.08166">
        <ele>306</ele>
        <time>2023-07-30T05:18:36.000Z</time>
      </trkpt>
      <trkpt lat="43.71697" lon="7.08166">
        <ele>306.39999389648</ele>
        <time>2023-07-30T05:18:37.000Z</time>
      </trkpt>
      <trkpt lat="43.71699" lon="7.08168">
        <ele>306.79998779297</ele>
        <time>2023-07-30T05:18:38.000Z</time>
      </trkpt>
      <trkpt lat="43.71701" lon="7.08169">
        <ele>307</ele>
        <time>2023-07-30T05:18:39.000Z</time>
      </trkpt>
      <trkpt lat="43.71702" lon="7.0817">
        <ele>307.60000610352</ele>
        <time>2023-07-30T05:18:40.000Z</time>
      </trkpt>
      <trkpt lat="43.71703" lon="7.08171">
        <ele>307.79998779297</ele>
        <time>2023-07-30T05:18:41.000Z</time>
      </trkpt>
      <trkpt lat="43.71705" lon="7.08172">
        <ele>307.79998779297</ele>
        <time>2023-07-30T05:18:42.000Z</time>
      </trkpt>
      <trkpt lat="43.71706" lon="7.08174">
        <ele>308.20001220703</ele>
        <time>2023-07-30T05:18:43.000Z</time>
      </trkpt>
      <trkpt lat="43.71707" lon="7.08176">
        <ele>308.39999389648</ele>
        <time>2023-07-30T05:18:44.000Z</time>
      </trkpt>
      <trkpt lat="43.71708" lon="7.08178">
        <ele>309</ele>
        <time>2023-07-30T05:18:45.000Z</time>
      </trkpt>
      <trkpt lat="43.71709" lon="7.08179">
        <ele>309.20001220703</ele>
        <time>2023-07-30T05:18:46.000Z</time>
      </trkpt>
      <trkpt lat="43.7171" lon="7.08181">
        <ele>309.60000610352</ele>
        <time>2023-07-30T05:18:47.000Z</time>
      </trkpt>
      <trkpt lat="43.71711" lon="7.08183">
        <ele>309.79998779297</ele>
        <time>2023-07-30T05:18:48.000Z</time>
      </trkpt>
      <trkpt lat="43.71712" lon="7.08184">
        <ele>309.79998779297</ele>
        <time>2023-07-30T05:18:49.000Z</time>
      </trkpt>
      <trkpt lat="43.71713" lon="7.08186">
        <ele>310</ele>
        <time>2023-07-30T05:18:50.000Z</time>
      </trkpt>
      <trkpt lat="43.71714" lon="7.08188">
        <ele>310</ele>
        <time>2023-07-30T05:18:51.000Z</time>
      </trkpt>
      <trkpt lat="43.71715" lon="7.08189">
        <ele>310.20001220703</ele>
        <time>2023-07-30T05:18:52.000Z</time>
      </trkpt>
      <trkpt lat="43.71715" lon="7.0819">
        <ele>310.60000610352</ele>
        <time>2023-07-30T05:18:53.000Z</time>
      </trkpt>
      <trkpt lat="43.71716" lon="7.08192">
        <ele>310.60000610352</ele>
        <time>2023-07-30T05:18:54.000Z</time>
      </trkpt>
      <trkpt lat="43.71717" lon="7.08194">
        <ele>312.79998779297</ele>
        <time>2023-07-30T05:18:55.000Z</time>
      </trkpt>
      <trkpt lat="43.71718" lon="7.08196">
        <ele>312.79998779297</ele>
        <time>2023-07-30T05:18:56.000Z</time>
      </trkpt>
      <trkpt lat="43.71719" lon="7.08197">
        <ele>312.79998779297</ele>
        <time>2023-07-30T05:18:57.000Z</time>
      </trkpt>
      <trkpt lat="43.7172" lon="7.08198">
        <ele>312.79998779297</ele>
        <time>2023-07-30T05:18:58.000Z</time>
      </trkpt>
      <trkpt lat="43.7172" lon="7.08199">
        <ele>313</ele>
        <time>2023-07-30T05:18:59.000Z</time>
      </trkpt>
      <trkpt lat="43.71721" lon="7.082">
        <ele>313.79998779297</ele>
        <time>2023-07-30T05:19:00.000Z</time>
      </trkpt>
      <trkpt lat="43.71722" lon="7.08201">
        <ele>313.79998779297</ele>
        <time>2023-07-30T05:19:01.000Z</time>
      </trkpt>
      <trkpt lat="43.71722" lon="7.08203">
        <ele>313.79998779297</ele>
        <time>2023-07-30T05:19:02.000Z</time>
      </trkpt>
      <trkpt lat="43.71723" lon="7.08205">
        <ele>313.79998779297</ele>
        <time>2023-07-30T05:19:03.000Z</time>
      </trkpt>
      <trkpt lat="43.71723" lon="7.08207">
        <ele>313.79998779297</ele>
        <time>2023-07-30T05:19:04.000Z</time>
      </trkpt>
      <trkpt lat="43.71724" lon="7.08209">
        <ele>313.79998779297</ele>
        <time>2023-07-30T05:19:05.000Z</time>
      </trkpt>
      <trkpt lat="43.71725" lon="7.08211">
        <ele>313.79998779297</ele>
        <time>2023-07-30T05:19:06.000Z</time>
      </trkpt>
      <trkpt lat="43.71726" lon="7.08212">
        <ele>314.20001220703</ele>
        <time>2023-07-30T05:19:07.000Z</time>
      </trkpt>
      <trkpt lat="43.71726" lon="7.08214">
        <ele>314.39999389648</ele>
        <time>2023-07-30T05:19:08.000Z</time>
      </trkpt>
      <trkpt lat="43.71727" lon="7.08216">
        <ele>314.60000610352</ele>
        <time>2023-07-30T05:19:09.000Z</time>
      </trkpt>
      <trkpt lat="43.71728" lon="7.08217">
        <ele>315</ele>
        <time>2023-07-30T05:19:10.000Z</time>
      </trkpt>
      <trkpt lat="43.71729" lon="7.08219">
        <ele>315.39999389648</ele>
        <time>2023-07-30T05:19:11.000Z</time>
      </trkpt>
      <trkpt lat="43.7173" lon="7.0822">
        <ele>315.60000610352</ele>
        <time>2023-07-30T05:19:12.000Z</time>
      </trkpt>
      <trkpt lat="43.71731" lon="7.08223">
        <ele>315.79998779297</ele>
        <time>2023-07-30T05:19:13.000Z</time>
      </trkpt>
      <trkpt lat="43.71732" lon="7.08225">
        <ele>316.20001220703</ele>
        <time>2023-07-30T05:19:14.000Z</time>
      </trkpt>
      <trkpt lat="43.71733" lon="7.08226">
        <ele>316.39999389648</ele>
        <time>2023-07-30T05:19:15.000Z</time>
      </trkpt>
      <trkpt lat="43.71734" lon="7.08228">
        <ele>316.60000610352</ele>
        <time>2023-07-30T05:19:16.000Z</time>
      </trkpt>
      <trkpt lat="43.71735" lon="7.0823">
        <ele>316.79998779297</ele>
        <time>2023-07-30T05:19:17.000Z</time>
      </trkpt>
      <trkpt lat="43.71736" lon="7.08232">
        <ele>317</ele>
        <time>2023-07-30T05:19:18.000Z</time>
      </trkpt>
      <trkpt lat="43.71737" lon="7.08234">
        <ele>317.20001220703</ele>
        <time>2023-07-30T05:19:19.000Z</time>
      </trkpt>
      <trkpt lat="43.71738" lon="7.08236">
        <ele>317.39999389648</ele>
        <time>2023-07-30T05:19:20.000Z</time>
      </trkpt>
      <trkpt lat="43.71739" lon="7.08239">
        <ele>317.60000610352</ele>
        <time>2023-07-30T05:19:21.000Z</time>
      </trkpt>
      <trkpt lat="43.7174" lon="7.08241">
        <ele>318</ele>
        <time>2023-07-30T05:19:22.000Z</time>
      </trkpt>
      <trkpt lat="43.71741" lon="7.08243">
        <ele>318.20001220703</ele>
        <time>2023-07-30T05:19:23.000Z</time>
      </trkpt>
      <trkpt lat="43.71741" lon="7.08245">
        <ele>318.39999389648</ele>
        <time>2023-07-30T05:19:24.000Z</time>
      </trkpt>
      <trkpt lat="43.71742" lon="7.08247">
        <ele>318.60000610352</ele>
        <time>2023-07-30T05:19:25.000Z</time>
      </trkpt>
      <trkpt lat="43.71743" lon="7.08249">
        <ele>319</ele>
        <time>2023-07-30T05:19:26.000Z</time>
      </trkpt>
      <trkpt lat="43.71744" lon="7.08251">
        <ele>319</ele>
        <time>2023-07-30T05:19:27.000Z</time>
      </trkpt>
      <trkpt lat="43.71745" lon="7.08254">
        <ele>319</ele>
        <time>2023-07-30T05:19:28.000Z</time>
      </trkpt>
      <trkpt lat="43.71746" lon="7.08256">
        <ele>319.20001220703</ele>
        <time>2023-07-30T05:19:29.000Z</time>
      </trkpt>
      <trkpt lat="43.71746" lon="7.08259">
        <ele>319.39999389648</ele>
        <time>2023-07-30T05:19:30.000Z</time>
      </trkpt>
      <trkpt lat="43.71747" lon="7.08261">
        <ele>319.79998779297</ele>
        <time>2023-07-30T05:19:31.000Z</time>
      </trkpt>
      <trkpt lat="43.71749" lon="7.08262">
        <ele>320.20001220703</ele>
        <time>2023-07-30T05:19:32.000Z</time>
      </trkpt>
      <trkpt lat="43.71749" lon="7.08265">
        <ele>320.60000610352</ele>
        <time>2023-07-30T05:19:33.000Z</time>
      </trkpt>
      <trkpt lat="43.7175" lon="7.08267">
        <ele>320.79998779297</ele>
        <time>2023-07-30T05:19:34.000Z</time>
      </trkpt>
      <trkpt lat="43.71751" lon="7.0827">
        <ele>321</ele>
        <time>2023-07-30T05:19:35.000Z</time>
      </trkpt>
      <trkpt lat="43.71752" lon="7.08272">
        <ele>321.39999389648</ele>
        <time>2023-07-30T05:19:36.000Z</time>
      </trkpt>
      <trkpt lat="43.71752" lon="7.08274">
        <ele>321.79998779297</ele>
        <time>2023-07-30T05:19:37.000Z</time>
      </trkpt>
      <trkpt lat="43.71752" lon="7.08277">
        <ele>322</ele>
        <time>2023-07-30T05:19:38.000Z</time>
      </trkpt>
      <trkpt lat="43.71751" lon="7.08279">
        <ele>322</ele>
        <time>2023-07-30T05:19:39.000Z</time>
      </trkpt>
      <trkpt lat="43.7175" lon="7.08282">
        <ele>322.39999389648</ele>
        <time>2023-07-30T05:19:40.000Z</time>
      </trkpt>
      <trkpt lat="43.71749" lon="7.08285">
        <ele>322.60000610352</ele>
        <time>2023-07-30T05:19:41.000Z</time>
      </trkpt>
      <trkpt lat="43.71748" lon="7.08287">
        <ele>322.79998779297</ele>
        <time>2023-07-30T05:19:42.000Z</time>
      </trkpt>
      <trkpt lat="43.71747" lon="7.0829">
        <ele>322.79998779297</ele>
        <time>2023-07-30T05:19:43.000Z</time>
      </trkpt>
      <trkpt lat="43.71746" lon="7.08292">
        <ele>322.79998779297</ele>
        <time>2023-07-30T05:19:44.000Z</time>
      </trkpt>
      <trkpt lat="43.71744" lon="7.08296">
        <ele>323</ele>
        <time>2023-07-30T05:19:45.000Z</time>
      </trkpt>
      <trkpt lat="43.71742" lon="7.08298">
        <ele>323</ele>
        <time>2023-07-30T05:19:46.000Z</time>
      </trkpt>
      <trkpt lat="43.7174" lon="7.08301">
        <ele>323</ele>
        <time>2023-07-30T05:19:47.000Z</time>
      </trkpt>
      <trkpt lat="43.71738" lon="7.08303">
        <ele>323.20001220703</ele>
        <time>2023-07-30T05:19:48.000Z</time>
      </trkpt>
      <trkpt lat="43.71737" lon="7.08306">
        <ele>323.39999389648</ele>
        <time>2023-07-30T05:19:49.000Z</time>
      </trkpt>
      <trkpt lat="43.71736" lon="7.08308">
        <ele>323.39999389648</ele>
        <time>2023-07-30T05:19:50.000Z</time>
      </trkpt>
      <trkpt lat="43.71735" lon="7.08311">
        <ele>323.39999389648</ele>
        <time>2023-07-30T05:19:51.000Z</time>
      </trkpt>
      <trkpt lat="43.71734" lon="7.08314">
        <ele>323.39999389648</ele>
        <time>2023-07-30T05:19:52.000Z</time>
      </trkpt>
      <trkpt lat="43.71733" lon="7.08317">
        <ele>323.60000610352</ele>
        <time>2023-07-30T05:19:53.000Z</time>
      </trkpt>
      <trkpt lat="43.71732" lon="7.0832">
        <ele>323.79998779297</ele>
        <time>2023-07-30T05:19:54.000Z</time>
      </trkpt>
      <trkpt lat="43.71731" lon="7.08323">
        <ele>324</ele>
        <time>2023-07-30T05:19:55.000Z</time>
      </trkpt>
      <trkpt lat="43.71731" lon="7.08327">
        <ele>324.20001220703</ele>
        <time>2023-07-30T05:19:56.000Z</time>
      </trkpt>
      <trkpt lat="43.7173" lon="7.0833">
        <ele>324.20001220703</ele>
        <time>2023-07-30T05:19:57.000Z</time>
      </trkpt>
      <trkpt lat="43.71729" lon="7.08334">
        <ele>324.60000610352</ele>
        <time>2023-07-30T05:19:58.000Z</time>
      </trkpt>
      <trkpt lat="43.71728" lon="7.08337">
        <ele>324.60000610352</ele>
        <time>2023-07-30T05:19:59.000Z</time>
      </trkpt>
      <trkpt lat="43.71727" lon="7.08339">
        <ele>324.60000610352</ele>
        <time>2023-07-30T05:20:00.000Z</time>
      </trkpt>
      <trkpt lat="43.71726" lon="7.08342">
        <ele>324.79998779297</ele>
        <time>2023-07-30T05:20:01.000Z</time>
      </trkpt>
      <trkpt lat="43.71724" lon="7.08345">
        <ele>324.79998779297</ele>
        <time>2023-07-30T05:20:02.000Z</time>
      </trkpt>
      <trkpt lat="43.71722" lon="7.08348">
        <ele>325</ele>
        <time>2023-07-30T05:20:03.000Z</time>
      </trkpt>
      <trkpt lat="43.7172" lon="7.08352">
        <ele>325</ele>
        <time>2023-07-30T05:20:04.000Z</time>
      </trkpt>
      <trkpt lat="43.71718" lon="7.08355">
        <ele>325</ele>
        <time>2023-07-30T05:20:05.000Z</time>
      </trkpt>
      <trkpt lat="43.71716" lon="7.08358">
        <ele>325</ele>
        <time>2023-07-30T05:20:06.000Z</time>
      </trkpt>
      <trkpt lat="43.71714" lon="7.08361">
        <ele>325</ele>
        <time>2023-07-30T05:20:07.000Z</time>
      </trkpt>
      <trkpt lat="43.71711" lon="7.08365">
        <ele>325</ele>
        <time>2023-07-30T05:20:08.000Z</time>
      </trkpt>
      <trkpt lat="43.71709" lon="7.08368">
        <ele>325</ele>
        <time>2023-07-30T05:20:09.000Z</time>
      </trkpt>
      <trkpt lat="43.71707" lon="7.08371">
        <ele>324.79998779297</ele>
        <time>2023-07-30T05:20:10.000Z</time>
      </trkpt>
      <trkpt lat="43.71705" lon="7.08375">
        <ele>324.79998779297</ele>
        <time>2023-07-30T05:20:11.000Z</time>
      </trkpt>
      <trkpt lat="43.71703" lon="7.08378">
        <ele>324.79998779297</ele>
        <time>2023-07-30T05:20:12.000Z</time>
      </trkpt>
      <trkpt lat="43.71701" lon="7.08382">
        <ele>324.79998779297</ele>
        <time>2023-07-30T05:20:13.000Z</time>
      </trkpt>
      <trkpt lat="43.717" lon="7.08386">
        <ele>324.79998779297</ele>
        <time>2023-07-30T05:20:14.000Z</time>
      </trkpt>
      <trkpt lat="43.71698" lon="7.0839">
        <ele>324.60000610352</ele>
        <time>2023-07-30T05:20:15.000Z</time>
      </trkpt>
      <trkpt lat="43.71696" lon="7.08394">
        <ele>324.60000610352</ele>
        <time>2023-07-30T05:20:16.000Z</time>
      </trkpt>
      <trkpt lat="43.71694" lon="7.08398">
        <ele>324.60000610352</ele>
        <time>2023-07-30T05:20:17.000Z</time>
      </trkpt>
      <trkpt lat="43.71693" lon="7.08401">
        <ele>324.39999389648</ele>
        <time>2023-07-30T05:20:18.000Z</time>
      </trkpt>
      <trkpt lat="43.71691" lon="7.08406">
        <ele>324.39999389648</ele>
        <time>2023-07-30T05:20:19.000Z</time>
      </trkpt>
      <trkpt lat="43.7169" lon="7.08411">
        <ele>324.39999389648</ele>
        <time>2023-07-30T05:20:20.000Z</time>
      </trkpt>
      <trkpt lat="43.71689" lon="7.08416">
        <ele>324.39999389648</ele>
        <time>2023-07-30T05:20:21.000Z</time>
      </trkpt>
      <trkpt lat="43.7169" lon="7.0842">
        <ele>324.20001220703</ele>
        <time>2023-07-30T05:20:22.000Z</time>
      </trkpt>
      <trkpt lat="43.7169" lon="7.08425">
        <ele>324.20001220703</ele>
        <time>2023-07-30T05:20:23.000Z</time>
      </trkpt>
      <trkpt lat="43.71691" lon="7.0843">
        <ele>324.20001220703</ele>
        <time>2023-07-30T05:20:24.000Z</time>
      </trkpt>
      <trkpt lat="43.71692" lon="7.08435">
        <ele>324.20001220703</ele>
        <time>2023-07-30T05:20:25.000Z</time>
      </trkpt>
      <trkpt lat="43.71693" lon="7.0844">
        <ele>324.20001220703</ele>
        <time>2023-07-30T05:20:26.000Z</time>
      </trkpt>
      <trkpt lat="43.71694" lon="7.08445">
        <ele>324.20001220703</ele>
        <time>2023-07-30T05:20:27.000Z</time>
      </trkpt>
      <trkpt lat="43.71694" lon="7.08449">
        <ele>324.20001220703</ele>
        <time>2023-07-30T05:20:28.000Z</time>
      </trkpt>
      <trkpt lat="43.71695" lon="7.08454">
        <ele>324.20001220703</ele>
        <time>2023-07-30T05:20:29.000Z</time>
      </trkpt>
      <trkpt lat="43.71696" lon="7.08458">
        <ele>324.20001220703</ele>
        <time>2023-07-30T05:20:30.000Z</time>
      </trkpt>
      <trkpt lat="43.71697" lon="7.08462">
        <ele>324.20001220703</ele>
        <time>2023-07-30T05:20:31.000Z</time>
      </trkpt>
      <trkpt lat="43.71698" lon="7.08467">
        <ele>324.20001220703</ele>
        <time>2023-07-30T05:20:32.000Z</time>
      </trkpt>
      <trkpt lat="43.71698" lon="7.0847">
        <ele>324.20001220703</ele>
        <time>2023-07-30T05:20:33.000Z</time>
      </trkpt>
      <trkpt lat="43.71699" lon="7.08473">
        <ele>324.20001220703</ele>
        <time>2023-07-30T05:20:34.000Z</time>
      </trkpt>
      <trkpt lat="43.71699" lon="7.08476">
        <ele>324.20001220703</ele>
        <time>2023-07-30T05:20:35.000Z</time>
      </trkpt>
      <trkpt lat="43.717" lon="7.08477">
        <ele>324.39999389648</ele>
        <time>2023-07-30T05:20:36.000Z</time>
      </trkpt>
      <trkpt lat="43.71701" lon="7.08478">
        <ele>324.39999389648</ele>
        <time>2023-07-30T05:20:37.000Z</time>
      </trkpt>
      <trkpt lat="43.71703" lon="7.08479">
        <ele>324.60000610352</ele>
        <time>2023-07-30T05:20:38.000Z</time>
      </trkpt>
      <trkpt lat="43.71705" lon="7.08481">
        <ele>324.60000610352</ele>
        <time>2023-07-30T05:20:39.000Z</time>
      </trkpt>
      <trkpt lat="43.71707" lon="7.08482">
        <ele>324.60000610352</ele>
        <time>2023-07-30T05:20:40.000Z</time>
      </trkpt>
      <trkpt lat="43.71711" lon="7.08482">
        <ele>324.60000610352</ele>
        <time>2023-07-30T05:20:41.000Z</time>
      </trkpt>
      <trkpt lat="43.71714" lon="7.0848">
        <ele>324.60000610352</ele>
        <time>2023-07-30T05:20:42.000Z</time>
      </trkpt>
      <trkpt lat="43.71718" lon="7.08479">
        <ele>324.60000610352</ele>
        <time>2023-07-30T05:20:43.000Z</time>
      </trkpt>
      <trkpt lat="43.71721" lon="7.08478">
        <ele>324.60000610352</ele>
        <time>2023-07-30T05:20:44.000Z</time>
      </trkpt>
      <trkpt lat="43.71725" lon="7.08476">
        <ele>324.60000610352</ele>
        <time>2023-07-30T05:20:45.000Z</time>
      </trkpt>
      <trkpt lat="43.71728" lon="7.08474">
        <ele>324.60000610352</ele>
        <time>2023-07-30T05:20:46.000Z</time>
      </trkpt>
      <trkpt lat="43.71732" lon="7.08473">
        <ele>324.60000610352</ele>
        <time>2023-07-30T05:20:47.000Z</time>
      </trkpt>
      <trkpt lat="43.71736" lon="7.08472">
        <ele>324.60000610352</ele>
        <time>2023-07-30T05:20:48.000Z</time>
      </trkpt>
      <trkpt lat="43.7174" lon="7.08471">
        <ele>324.60000610352</ele>
        <time>2023-07-30T05:20:49.000Z</time>
      </trkpt>
      <trkpt lat="43.71744" lon="7.08469">
        <ele>324.60000610352</ele>
        <time>2023-07-30T05:20:50.000Z</time>
      </trkpt>
      <trkpt lat="43.71747" lon="7.08467">
        <ele>324.60000610352</ele>
        <time>2023-07-30T05:20:51.000Z</time>
      </trkpt>
      <trkpt lat="43.71751" lon="7.08466">
        <ele>324.60000610352</ele>
        <time>2023-07-30T05:20:52.000Z</time>
      </trkpt>
      <trkpt lat="43.71755" lon="7.08464">
        <ele>324.79998779297</ele>
        <time>2023-07-30T05:20:53.000Z</time>
      </trkpt>
      <trkpt lat="43.71758" lon="7.08462">
        <ele>324.79998779297</ele>
        <time>2023-07-30T05:20:54.000Z</time>
      </trkpt>
      <trkpt lat="43.71763" lon="7.08461">
        <ele>324.79998779297</ele>
        <time>2023-07-30T05:20:55.000Z</time>
      </trkpt>
      <trkpt lat="43.71767" lon="7.0846">
        <ele>324.79998779297</ele>
        <time>2023-07-30T05:20:56.000Z</time>
      </trkpt>
      <trkpt lat="43.71771" lon="7.08457">
        <ele>324.79998779297</ele>
        <time>2023-07-30T05:20:57.000Z</time>
      </trkpt>
      <trkpt lat="43.71775" lon="7.08455">
        <ele>324.79998779297</ele>
        <time>2023-07-30T05:20:58.000Z</time>
      </trkpt>
      <trkpt lat="43.7178" lon="7.08453">
        <ele>324.79998779297</ele>
        <time>2023-07-30T05:20:59.000Z</time>
      </trkpt>
      <trkpt lat="43.71784" lon="7.08452">
        <ele>324.79998779297</ele>
        <time>2023-07-30T05:21:00.000Z</time>
      </trkpt>
      <trkpt lat="43.71789" lon="7.08449">
        <ele>324.79998779297</ele>
        <time>2023-07-30T05:21:01.000Z</time>
      </trkpt>
      <trkpt lat="43.71793" lon="7.08447">
        <ele>324.79998779297</ele>
        <time>2023-07-30T05:21:02.000Z</time>
      </trkpt>
      <trkpt lat="43.71797" lon="7.08445">
        <ele>324.79998779297</ele>
        <time>2023-07-30T05:21:03.000Z</time>
      </trkpt>
      <trkpt lat="43.71802" lon="7.08444">
        <ele>324.79998779297</ele>
        <time>2023-07-30T05:21:04.000Z</time>
      </trkpt>
      <trkpt lat="43.71806" lon="7.08442">
        <ele>324.79998779297</ele>
        <time>2023-07-30T05:21:05.000Z</time>
      </trkpt>
      <trkpt lat="43.71811" lon="7.0844">
        <ele>324.79998779297</ele>
        <time>2023-07-30T05:21:06.000Z</time>
      </trkpt>
      <trkpt lat="43.71816" lon="7.08438">
        <ele>324.79998779297</ele>
        <time>2023-07-30T05:21:07.000Z</time>
      </trkpt>
      <trkpt lat="43.7182" lon="7.08435">
        <ele>324.79998779297</ele>
        <time>2023-07-30T05:21:08.000Z</time>
      </trkpt>
      <trkpt lat="43.71825" lon="7.08433">
        <ele>324.79998779297</ele>
        <time>2023-07-30T05:21:09.000Z</time>
      </trkpt>
      <trkpt lat="43.71829" lon="7.08431">
        <ele>324.79998779297</ele>
        <time>2023-07-30T05:21:10.000Z</time>
      </trkpt>
      <trkpt lat="43.71833" lon="7.08429">
        <ele>324.79998779297</ele>
        <time>2023-07-30T05:21:11.000Z</time>
      </trkpt>
      <trkpt lat="43.71838" lon="7.08428">
        <ele>324.79998779297</ele>
        <time>2023-07-30T05:21:12.000Z</time>
      </trkpt>
      <trkpt lat="43.71843" lon="7.08428">
        <ele>324.79998779297</ele>
        <time>2023-07-30T05:21:13.000Z</time>
      </trkpt>
      <trkpt lat="43.71847" lon="7.08428">
        <ele>324.79998779297</ele>
        <time>2023-07-30T05:21:14.000Z</time>
      </trkpt>
      <trkpt lat="43.71852" lon="7.08428">
        <ele>324.79998779297</ele>
        <time>2023-07-30T05:21:15.000Z</time>
      </trkpt>
      <trkpt lat="43.71857" lon="7.08428">
        <ele>325</ele>
        <time>2023-07-30T05:21:16.000Z</time>
      </trkpt>
      <trkpt lat="43.71861" lon="7.08428">
        <ele>325</ele>
        <time>2023-07-30T05:21:17.000Z</time>
      </trkpt>
      <trkpt lat="43.71865" lon="7.08428">
        <ele>325</ele>
        <time>2023-07-30T05:21:18.000Z</time>
      </trkpt>
      <trkpt lat="43.71869" lon="7.08429">
        <ele>325</ele>
        <time>2023-07-30T05:21:19.000Z</time>
      </trkpt>
      <trkpt lat="43.71873" lon="7.0843">
        <ele>325</ele>
        <time>2023-07-30T05:21:20.000Z</time>
      </trkpt>
      <trkpt lat="43.71876" lon="7.08431">
        <ele>325</ele>
        <time>2023-07-30T05:21:21.000Z</time>
      </trkpt>
      <trkpt lat="43.7188" lon="7.08433">
        <ele>325.20001220703</ele>
        <time>2023-07-30T05:21:22.000Z</time>
      </trkpt>
      <trkpt lat="43.71884" lon="7.08435">
        <ele>325.39999389648</ele>
        <time>2023-07-30T05:21:23.000Z</time>
      </trkpt>
      <trkpt lat="43.71887" lon="7.08436">
        <ele>325.60000610352</ele>
        <time>2023-07-30T05:21:24.000Z</time>
      </trkpt>
      <trkpt lat="43.7189" lon="7.08438">
        <ele>325.60000610352</ele>
        <time>2023-07-30T05:21:25.000Z</time>
      </trkpt>
      <trkpt lat="43.71893" lon="7.08439">
        <ele>326</ele>
        <time>2023-07-30T05:21:26.000Z</time>
      </trkpt>
      <trkpt lat="43.71896" lon="7.08441">
        <ele>326.20001220703</ele>
        <time>2023-07-30T05:21:27.000Z</time>
      </trkpt>
      <trkpt lat="43.719" lon="7.08443">
        <ele>326.20001220703</ele>
        <time>2023-07-30T05:21:28.000Z</time>
      </trkpt>
      <trkpt lat="43.71902" lon="7.08444">
        <ele>326.60000610352</ele>
        <time>2023-07-30T05:21:29.000Z</time>
      </trkpt>
      <trkpt lat="43.71905" lon="7.08446">
        <ele>326.79998779297</ele>
        <time>2023-07-30T05:21:30.000Z</time>
      </trkpt>
      <trkpt lat="43.71908" lon="7.08448">
        <ele>327.20001220703</ele>
        <time>2023-07-30T05:21:31.000Z</time>
      </trkpt>
      <trkpt lat="43.71911" lon="7.0845">
        <ele>327.39999389648</ele>
        <time>2023-07-30T05:21:32.000Z</time>
      </trkpt>
      <trkpt lat="43.71914" lon="7.08452">
        <ele>327.79998779297</ele>
        <time>2023-07-30T05:21:33.000Z</time>
      </trkpt>
      <trkpt lat="43.71917" lon="7.08454">
        <ele>327.79998779297</ele>
        <time>2023-07-30T05:21:34.000Z</time>
      </trkpt>
      <trkpt lat="43.71921" lon="7.08456">
        <ele>328</ele>
        <time>2023-07-30T05:21:35.000Z</time>
      </trkpt>
      <trkpt lat="43.71924" lon="7.08457">
        <ele>328.39999389648</ele>
        <time>2023-07-30T05:21:36.000Z</time>
      </trkpt>
      <trkpt lat="43.71927" lon="7.08458">
        <ele>328.39999389648</ele>
        <time>2023-07-30T05:21:37.000Z</time>
      </trkpt>
      <trkpt lat="43.7193" lon="7.0846">
        <ele>328.60000610352</ele>
        <time>2023-07-30T05:21:38.000Z</time>
      </trkpt>
      <trkpt lat="43.71933" lon="7.08462">
        <ele>328.79998779297</ele>
        <time>2023-07-30T05:21:39.000Z</time>
      </trkpt>
      <trkpt lat="43.71937" lon="7.08464">
        <ele>329</ele>
        <time>2023-07-30T05:21:40.000Z</time>
      </trkpt>
      <trkpt lat="43.7194" lon="7.08465">
        <ele>329</ele>
        <time>2023-07-30T05:21:41.000Z</time>
      </trkpt>
      <trkpt lat="43.71943" lon="7.08467">
        <ele>329.39999389648</ele>
        <time>2023-07-30T05:21:42.000Z</time>
      </trkpt>
      <trkpt lat="43.71947" lon="7.08469">
        <ele>329.39999389648</ele>
        <time>2023-07-30T05:21:43.000Z</time>
      </trkpt>
      <trkpt lat="43.7195" lon="7.0847">
        <ele>329.60000610352</ele>
        <time>2023-07-30T05:21:44.000Z</time>
      </trkpt>
      <trkpt lat="43.71953" lon="7.08472">
        <ele>329.60000610352</ele>
        <time>2023-07-30T05:21:45.000Z</time>
      </trkpt>
      <trkpt lat="43.71958" lon="7.08473">
        <ele>329.79998779297</ele>
        <time>2023-07-30T05:21:46.000Z</time>
      </trkpt>
      <trkpt lat="43.71961" lon="7.08475">
        <ele>330</ele>
        <time>2023-07-30T05:21:47.000Z</time>
      </trkpt>
      <trkpt lat="43.71965" lon="7.08477">
        <ele>330</ele>
        <time>2023-07-30T05:21:48.000Z</time>
      </trkpt>
      <trkpt lat="43.71968" lon="7.08478">
        <ele>330.20001220703</ele>
        <time>2023-07-30T05:21:49.000Z</time>
      </trkpt>
      <trkpt lat="43.71972" lon="7.0848">
        <ele>330.20001220703</ele>
        <time>2023-07-30T05:21:50.000Z</time>
      </trkpt>
      <trkpt lat="43.71976" lon="7.08482">
        <ele>330.39999389648</ele>
        <time>2023-07-30T05:21:51.000Z</time>
      </trkpt>
      <trkpt lat="43.7198" lon="7.08482">
        <ele>330.39999389648</ele>
        <time>2023-07-30T05:21:52.000Z</time>
      </trkpt>
      <trkpt lat="43.71983" lon="7.08481">
        <ele>330.39999389648</ele>
        <time>2023-07-30T05:21:53.000Z</time>
      </trkpt>
      <trkpt lat="43.71987" lon="7.0848">
        <ele>330.39999389648</ele>
        <time>2023-07-30T05:21:54.000Z</time>
      </trkpt>
      <trkpt lat="43.7199" lon="7.08478">
        <ele>330.39999389648</ele>
        <time>2023-07-30T05:21:55.000Z</time>
      </trkpt>
      <trkpt lat="43.71993" lon="7.08476">
        <ele>330.60000610352</ele>
        <time>2023-07-30T05:21:56.000Z</time>
      </trkpt>
      <trkpt lat="43.71997" lon="7.08473">
        <ele>330.60000610352</ele>
        <time>2023-07-30T05:21:57.000Z</time>
      </trkpt>
      <trkpt lat="43.71999" lon="7.0847">
        <ele>330.60000610352</ele>
        <time>2023-07-30T05:21:58.000Z</time>
      </trkpt>
      <trkpt lat="43.72002" lon="7.08466">
        <ele>330.79998779297</ele>
        <time>2023-07-30T05:21:59.000Z</time>
      </trkpt>
      <trkpt lat="43.72005" lon="7.08462">
        <ele>330.79998779297</ele>
        <time>2023-07-30T05:22:00.000Z</time>
      </trkpt>
      <trkpt lat="43.72007" lon="7.08458">
        <ele>331</ele>
        <time>2023-07-30T05:22:01.000Z</time>
      </trkpt>
      <trkpt lat="43.7201" lon="7.08455">
        <ele>331.20001220703</ele>
        <time>2023-07-30T05:22:02.000Z</time>
      </trkpt>
      <trkpt lat="43.72011" lon="7.08451">
        <ele>331.20001220703</ele>
        <time>2023-07-30T05:22:03.000Z</time>
      </trkpt>
      <trkpt lat="43.72013" lon="7.08448">
        <ele>331.60000610352</ele>
        <time>2023-07-30T05:22:04.000Z</time>
      </trkpt>
      <trkpt lat="43.72016" lon="7.08445">
        <ele>331.79998779297</ele>
        <time>2023-07-30T05:22:05.000Z</time>
      </trkpt>
      <trkpt lat="43.72018" lon="7.08442">
        <ele>331.79998779297</ele>
        <time>2023-07-30T05:22:06.000Z</time>
      </trkpt>
      <trkpt lat="43.7202" lon="7.08439">
        <ele>332.20001220703</ele>
        <time>2023-07-30T05:22:07.000Z</time>
      </trkpt>
      <trkpt lat="43.72023" lon="7.08437">
        <ele>332.60000610352</ele>
        <time>2023-07-30T05:22:08.000Z</time>
      </trkpt>
      <trkpt lat="43.72025" lon="7.08434">
        <ele>332.79998779297</ele>
        <time>2023-07-30T05:22:09.000Z</time>
      </trkpt>
      <trkpt lat="43.72028" lon="7.08432">
        <ele>333.20001220703</ele>
        <time>2023-07-30T05:22:10.000Z</time>
      </trkpt>
      <trkpt lat="43.72031" lon="7.0843">
        <ele>333.60000610352</ele>
        <time>2023-07-30T05:22:11.000Z</time>
      </trkpt>
      <trkpt lat="43.72034" lon="7.08427">
        <ele>333.79998779297</ele>
        <time>2023-07-30T05:22:12.000Z</time>
      </trkpt>
      <trkpt lat="43.72037" lon="7.08425">
        <ele>334.20001220703</ele>
        <time>2023-07-30T05:22:13.000Z</time>
      </trkpt>
      <trkpt lat="43.7204" lon="7.08422">
        <ele>334.39999389648</ele>
        <time>2023-07-30T05:22:14.000Z</time>
      </trkpt>
      <trkpt lat="43.72043" lon="7.0842">
        <ele>334.79998779297</ele>
        <time>2023-07-30T05:22:15.000Z</time>
      </trkpt>
      <trkpt lat="43.72046" lon="7.08418">
        <ele>335</ele>
        <time>2023-07-30T05:22:16.000Z</time>
      </trkpt>
      <trkpt lat="43.72048" lon="7.08416">
        <ele>335.39999389648</ele>
        <time>2023-07-30T05:22:17.000Z</time>
      </trkpt>
      <trkpt lat="43.72051" lon="7.08414">
        <ele>335.60000610352</ele>
        <time>2023-07-30T05:22:18.000Z</time>
      </trkpt>
      <trkpt lat="43.72054" lon="7.08412">
        <ele>336</ele>
        <time>2023-07-30T05:22:19.000Z</time>
      </trkpt>
      <trkpt lat="43.72057" lon="7.0841">
        <ele>336.20001220703</ele>
        <time>2023-07-30T05:22:20.000Z</time>
      </trkpt>
      <trkpt lat="43.7206" lon="7.08409">
        <ele>336.39999389648</ele>
        <time>2023-07-30T05:22:21.000Z</time>
      </trkpt>
      <trkpt lat="43.72063" lon="7.08407">
        <ele>336.79998779297</ele>
        <time>2023-07-30T05:22:22.000Z</time>
      </trkpt>
      <trkpt lat="43.72065" lon="7.08406">
        <ele>337</ele>
        <time>2023-07-30T05:22:23.000Z</time>
      </trkpt>
      <trkpt lat="43.72067" lon="7.08405">
        <ele>337.20001220703</ele>
        <time>2023-07-30T05:22:24.000Z</time>
      </trkpt>
      <trkpt lat="43.72069" lon="7.08403">
        <ele>337.39999389648</ele>
        <time>2023-07-30T05:22:25.000Z</time>
      </trkpt>
      <trkpt lat="43.72071" lon="7.084">
        <ele>337.60000610352</ele>
        <time>2023-07-30T05:22:26.000Z</time>
      </trkpt>
      <trkpt lat="43.72072" lon="7.08397">
        <ele>337.79998779297</ele>
        <time>2023-07-30T05:22:27.000Z</time>
      </trkpt>
      <trkpt lat="43.72073" lon="7.08395">
        <ele>337.79998779297</ele>
        <time>2023-07-30T05:22:28.000Z</time>
      </trkpt>
      <trkpt lat="43.72073" lon="7.08391">
        <ele>337.79998779297</ele>
        <time>2023-07-30T05:22:29.000Z</time>
      </trkpt>
      <trkpt lat="43.72072" lon="7.08388">
        <ele>338</ele>
        <time>2023-07-30T05:22:30.000Z</time>
      </trkpt>
      <trkpt lat="43.72071" lon="7.08385">
        <ele>338.20001220703</ele>
        <time>2023-07-30T05:22:31.000Z</time>
      </trkpt>
      <trkpt lat="43.72069" lon="7.08383">
        <ele>338.20001220703</ele>
        <time>2023-07-30T05:22:32.000Z</time>
      </trkpt>
      <trkpt lat="43.72065" lon="7.08381">
        <ele>338.20001220703</ele>
        <time>2023-07-30T05:22:33.000Z</time>
      </trkpt>
      <trkpt lat="43.72061" lon="7.08382">
        <ele>338.20001220703</ele>
        <time>2023-07-30T05:22:34.000Z</time>
      </trkpt>
      <trkpt lat="43.72058" lon="7.08385">
        <ele>338.20001220703</ele>
        <time>2023-07-30T05:22:35.000Z</time>
      </trkpt>
      <trkpt lat="43.72057" lon="7.0839">
        <ele>338.20001220703</ele>
        <time>2023-07-30T05:22:36.000Z</time>
      </trkpt>
      <trkpt lat="43.72057" lon="7.08395">
        <ele>338.20001220703</ele>
        <time>2023-07-30T05:22:37.000Z</time>
      </trkpt>
      <trkpt lat="43.72059" lon="7.084">
        <ele>338.20001220703</ele>
        <time>2023-07-30T05:22:38.000Z</time>
      </trkpt>
      <trkpt lat="43.72063" lon="7.08403">
        <ele>338.20001220703</ele>
        <time>2023-07-30T05:22:39.000Z</time>
      </trkpt>
      <trkpt lat="43.72066" lon="7.08403">
        <ele>337.79998779297</ele>
        <time>2023-07-30T05:22:40.000Z</time>
      </trkpt>
      <trkpt lat="43.72068" lon="7.084">
        <ele>337.79998779297</ele>
        <time>2023-07-30T05:22:41.000Z</time>
      </trkpt>
      <trkpt lat="43.7207" lon="7.08398">
        <ele>337.79998779297</ele>
        <time>2023-07-30T05:22:42.000Z</time>
      </trkpt>
      <trkpt lat="43.72071" lon="7.08395">
        <ele>337.79998779297</ele>
        <time>2023-07-30T05:22:43.000Z</time>
      </trkpt>
      <trkpt lat="43.72071" lon="7.08391">
        <ele>337.79998779297</ele>
        <time>2023-07-30T05:22:44.000Z</time>
      </trkpt>
      <trkpt lat="43.72072" lon="7.08387">
        <ele>338</ele>
        <time>2023-07-30T05:22:45.000Z</time>
      </trkpt>
      <trkpt lat="43.72074" lon="7.08383">
        <ele>338</ele>
        <time>2023-07-30T05:22:46.000Z</time>
      </trkpt>
      <trkpt lat="43.72075" lon="7.0838">
        <ele>338.20001220703</ele>
        <time>2023-07-30T05:22:47.000Z</time>
      </trkpt>
      <trkpt lat="43.72078" lon="7.08378">
        <ele>338.20001220703</ele>
        <time>2023-07-30T05:22:48.000Z</time>
      </trkpt>
      <trkpt lat="43.72081" lon="7.08377">
        <ele>338.60000610352</ele>
        <time>2023-07-30T05:22:49.000Z</time>
      </trkpt>
      <trkpt lat="43.72083" lon="7.08375">
        <ele>338.60000610352</ele>
        <time>2023-07-30T05:22:50.000Z</time>
      </trkpt>
      <trkpt lat="43.72086" lon="7.08373">
        <ele>338.60000610352</ele>
        <time>2023-07-30T05:22:51.000Z</time>
      </trkpt>
      <trkpt lat="43.72088" lon="7.08371">
        <ele>339</ele>
        <time>2023-07-30T05:22:52.000Z</time>
      </trkpt>
      <trkpt lat="43.72091" lon="7.08369">
        <ele>339.20001220703</ele>
        <time>2023-07-30T05:22:53.000Z</time>
      </trkpt>
      <trkpt lat="43.72093" lon="7.08368">
        <ele>339.39999389648</ele>
        <time>2023-07-30T05:22:54.000Z</time>
      </trkpt>
      <trkpt lat="43.72096" lon="7.08366">
        <ele>339.79998779297</ele>
        <time>2023-07-30T05:22:55.000Z</time>
      </trkpt>
      <trkpt lat="43.72098" lon="7.08365">
        <ele>340</ele>
        <time>2023-07-30T05:22:56.000Z</time>
      </trkpt>
      <trkpt lat="43.721" lon="7.08363">
        <ele>340.39999389648</ele>
        <time>2023-07-30T05:22:57.000Z</time>
      </trkpt>
      <trkpt lat="43.72103" lon="7.08364">
        <ele>340.79998779297</ele>
        <time>2023-07-30T05:22:58.000Z</time>
      </trkpt>
      <trkpt lat="43.72106" lon="7.08364">
        <ele>341.20001220703</ele>
        <time>2023-07-30T05:22:59.000Z</time>
      </trkpt>
      <trkpt lat="43.72108" lon="7.08364">
        <ele>341.20001220703</ele>
        <time>2023-07-30T05:23:00.000Z</time>
      </trkpt>
      <trkpt lat="43.72111" lon="7.08363">
        <ele>341.60000610352</ele>
        <time>2023-07-30T05:23:01.000Z</time>
      </trkpt>
      <trkpt lat="43.72114" lon="7.08362">
        <ele>341.79998779297</ele>
        <time>2023-07-30T05:23:02.000Z</time>
      </trkpt>
      <trkpt lat="43.72116" lon="7.0836">
        <ele>342</ele>
        <time>2023-07-30T05:23:03.000Z</time>
      </trkpt>
      <trkpt lat="43.72119" lon="7.08359">
        <ele>342.39999389648</ele>
        <time>2023-07-30T05:23:04.000Z</time>
      </trkpt>
      <trkpt lat="43.72122" lon="7.08357">
        <ele>342.60000610352</ele>
        <time>2023-07-30T05:23:05.000Z</time>
      </trkpt>
      <trkpt lat="43.72124" lon="7.08354">
        <ele>342.79998779297</ele>
        <time>2023-07-30T05:23:06.000Z</time>
      </trkpt>
      <trkpt lat="43.72126" lon="7.08352">
        <ele>343</ele>
        <time>2023-07-30T05:23:07.000Z</time>
      </trkpt>
      <trkpt lat="43.72129" lon="7.0835">
        <ele>343</ele>
        <time>2023-07-30T05:23:08.000Z</time>
      </trkpt>
      <trkpt lat="43.72132" lon="7.08349">
        <ele>343.20001220703</ele>
        <time>2023-07-30T05:23:09.000Z</time>
      </trkpt>
      <trkpt lat="43.72134" lon="7.08348">
        <ele>343.60000610352</ele>
        <time>2023-07-30T05:23:10.000Z</time>
      </trkpt>
      <trkpt lat="43.72137" lon="7.08347">
        <ele>343.79998779297</ele>
        <time>2023-07-30T05:23:11.000Z</time>
      </trkpt>
      <trkpt lat="43.7214" lon="7.08345">
        <ele>344</ele>
        <time>2023-07-30T05:23:12.000Z</time>
      </trkpt>
      <trkpt lat="43.72142" lon="7.08344">
        <ele>344</ele>
        <time>2023-07-30T05:23:13.000Z</time>
      </trkpt>
      <trkpt lat="43.72145" lon="7.08342">
        <ele>344.20001220703</ele>
        <time>2023-07-30T05:23:14.000Z</time>
      </trkpt>
      <trkpt lat="43.72147" lon="7.0834">
        <ele>344.60000610352</ele>
        <time>2023-07-30T05:23:15.000Z</time>
      </trkpt>
      <trkpt lat="43.7215" lon="7.08338">
        <ele>344.60000610352</ele>
        <time>2023-07-30T05:23:16.000Z</time>
      </trkpt>
      <trkpt lat="43.72152" lon="7.08336">
        <ele>344.79998779297</ele>
        <time>2023-07-30T05:23:17.000Z</time>
      </trkpt>
      <trkpt lat="43.72155" lon="7.08335">
        <ele>345.20001220703</ele>
        <time>2023-07-30T05:23:18.000Z</time>
      </trkpt>
      <trkpt lat="43.72158" lon="7.08333">
        <ele>345.39999389648</ele>
        <time>2023-07-30T05:23:19.000Z</time>
      </trkpt>
      <trkpt lat="43.72161" lon="7.08331">
        <ele>345.60000610352</ele>
        <time>2023-07-30T05:23:20.000Z</time>
      </trkpt>
      <trkpt lat="43.72164" lon="7.0833">
        <ele>345.79998779297</ele>
        <time>2023-07-30T05:23:21.000Z</time>
      </trkpt>
      <trkpt lat="43.72166" lon="7.08328">
        <ele>346</ele>
        <time>2023-07-30T05:23:22.000Z</time>
      </trkpt>
      <trkpt lat="43.72169" lon="7.08326">
        <ele>346.39999389648</ele>
        <time>2023-07-30T05:23:23.000Z</time>
      </trkpt>
      <trkpt lat="43.72172" lon="7.08325">
        <ele>346.60000610352</ele>
        <time>2023-07-30T05:23:24.000Z</time>
      </trkpt>
      <trkpt lat="43.72175" lon="7.08323">
        <ele>346.79998779297</ele>
        <time>2023-07-30T05:23:25.000Z</time>
      </trkpt>
      <trkpt lat="43.72177" lon="7.08321">
        <ele>347.20001220703</ele>
        <time>2023-07-30T05:23:26.000Z</time>
      </trkpt>
      <trkpt lat="43.7218" lon="7.0832">
        <ele>347.20001220703</ele>
        <time>2023-07-30T05:23:27.000Z</time>
      </trkpt>
      <trkpt lat="43.72182" lon="7.08318">
        <ele>347.60000610352</ele>
        <time>2023-07-30T05:23:28.000Z</time>
      </trkpt>
      <trkpt lat="43.72184" lon="7.08317">
        <ele>347.60000610352</ele>
        <time>2023-07-30T05:23:29.000Z</time>
      </trkpt>
      <trkpt lat="43.72187" lon="7.08316">
        <ele>348</ele>
        <time>2023-07-30T05:23:30.000Z</time>
      </trkpt>
      <trkpt lat="43.7219" lon="7.08314">
        <ele>348.20001220703</ele>
        <time>2023-07-30T05:23:31.000Z</time>
      </trkpt>
      <trkpt lat="43.72192" lon="7.08313">
        <ele>348.60000610352</ele>
        <time>2023-07-30T05:23:32.000Z</time>
      </trkpt>
      <trkpt lat="43.72195" lon="7.08311">
        <ele>348.79998779297</ele>
        <time>2023-07-30T05:23:33.000Z</time>
      </trkpt>
      <trkpt lat="43.72197" lon="7.0831">
        <ele>349</ele>
        <time>2023-07-30T05:23:34.000Z</time>
      </trkpt>
      <trkpt lat="43.722" lon="7.08307">
        <ele>349.20001220703</ele>
        <time>2023-07-30T05:23:35.000Z</time>
      </trkpt>
      <trkpt lat="43.72202" lon="7.08305">
        <ele>349.20001220703</ele>
        <time>2023-07-30T05:23:36.000Z</time>
      </trkpt>
      <trkpt lat="43.72205" lon="7.08304">
        <ele>349.39999389648</ele>
        <time>2023-07-30T05:23:37.000Z</time>
      </trkpt>
      <trkpt lat="43.72207" lon="7.08302">
        <ele>349.79998779297</ele>
        <time>2023-07-30T05:23:38.000Z</time>
      </trkpt>
      <trkpt lat="43.7221" lon="7.083">
        <ele>350</ele>
        <time>2023-07-30T05:23:39.000Z</time>
      </trkpt>
      <trkpt lat="43.72213" lon="7.08298">
        <ele>350.20001220703</ele>
        <time>2023-07-30T05:23:40.000Z</time>
      </trkpt>
      <trkpt lat="43.72216" lon="7.08296">
        <ele>350.39999389648</ele>
        <time>2023-07-30T05:23:41.000Z</time>
      </trkpt>
      <trkpt lat="43.72219" lon="7.08295">
        <ele>350.79998779297</ele>
        <time>2023-07-30T05:23:42.000Z</time>
      </trkpt>
      <trkpt lat="43.72221" lon="7.08293">
        <ele>351</ele>
        <time>2023-07-30T05:23:43.000Z</time>
      </trkpt>
      <trkpt lat="43.72224" lon="7.08291">
        <ele>351.39999389648</ele>
        <time>2023-07-30T05:23:44.000Z</time>
      </trkpt>
      <trkpt lat="43.72226" lon="7.08289">
        <ele>351.60000610352</ele>
        <time>2023-07-30T05:23:45.000Z</time>
      </trkpt>
      <trkpt lat="43.72229" lon="7.08288">
        <ele>351.79998779297</ele>
        <time>2023-07-30T05:23:46.000Z</time>
      </trkpt>
      <trkpt lat="43.72232" lon="7.08286">
        <ele>352.20001220703</ele>
        <time>2023-07-30T05:23:47.000Z</time>
      </trkpt>
      <trkpt lat="43.72233" lon="7.08284">
        <ele>352.39999389648</ele>
        <time>2023-07-30T05:23:48.000Z</time>
      </trkpt>
      <trkpt lat="43.72236" lon="7.08282">
        <ele>352.60000610352</ele>
        <time>2023-07-30T05:23:49.000Z</time>
      </trkpt>
      <trkpt lat="43.72238" lon="7.0828">
        <ele>353</ele>
        <time>2023-07-30T05:23:50.000Z</time>
      </trkpt>
      <trkpt lat="43.7224" lon="7.08279">
        <ele>353.20001220703</ele>
        <time>2023-07-30T05:23:51.000Z</time>
      </trkpt>
      <trkpt lat="43.72243" lon="7.08277">
        <ele>353.60000610352</ele>
        <time>2023-07-30T05:23:52.000Z</time>
      </trkpt>
      <trkpt lat="43.72245" lon="7.08275">
        <ele>354</ele>
        <time>2023-07-30T05:23:53.000Z</time>
      </trkpt>
      <trkpt lat="43.72247" lon="7.08273">
        <ele>354.20001220703</ele>
        <time>2023-07-30T05:23:54.000Z</time>
      </trkpt>
      <trkpt lat="43.7225" lon="7.08272">
        <ele>354.60000610352</ele>
        <time>2023-07-30T05:23:55.000Z</time>
      </trkpt>
      <trkpt lat="43.72252" lon="7.0827">
        <ele>354.79998779297</ele>
        <time>2023-07-30T05:23:56.000Z</time>
      </trkpt>
      <trkpt lat="43.72254" lon="7.08268">
        <ele>355</ele>
        <time>2023-07-30T05:23:57.000Z</time>
      </trkpt>
      <trkpt lat="43.72256" lon="7.08266">
        <ele>355</ele>
        <time>2023-07-30T05:23:58.000Z</time>
      </trkpt>
      <trkpt lat="43.72259" lon="7.08264">
        <ele>355.39999389648</ele>
        <time>2023-07-30T05:23:59.000Z</time>
      </trkpt>
      <trkpt lat="43.72261" lon="7.08262">
        <ele>355.79998779297</ele>
        <time>2023-07-30T05:24:00.000Z</time>
      </trkpt>
      <trkpt lat="43.72263" lon="7.08261">
        <ele>356.20001220703</ele>
        <time>2023-07-30T05:24:01.000Z</time>
      </trkpt>
      <trkpt lat="43.72265" lon="7.08259">
        <ele>356.60000610352</ele>
        <time>2023-07-30T05:24:02.000Z</time>
      </trkpt>
      <trkpt lat="43.72267" lon="7.08257">
        <ele>357</ele>
        <time>2023-07-30T05:24:03.000Z</time>
      </trkpt>
      <trkpt lat="43.7227" lon="7.08257">
        <ele>357.20001220703</ele>
        <time>2023-07-30T05:24:04.000Z</time>
      </trkpt>
      <trkpt lat="43.72273" lon="7.08256">
        <ele>357.60000610352</ele>
        <time>2023-07-30T05:24:05.000Z</time>
      </trkpt>
      <trkpt lat="43.72275" lon="7.08255">
        <ele>358</ele>
        <time>2023-07-30T05:24:06.000Z</time>
      </trkpt>
      <trkpt lat="43.72277" lon="7.08257">
        <ele>358.20001220703</ele>
        <time>2023-07-30T05:24:07.000Z</time>
      </trkpt>
      <trkpt lat="43.7228" lon="7.08258">
        <ele>358.60000610352</ele>
        <time>2023-07-30T05:24:08.000Z</time>
      </trkpt>
      <trkpt lat="43.72282" lon="7.08261">
        <ele>358.79998779297</ele>
        <time>2023-07-30T05:24:09.000Z</time>
      </trkpt>
      <trkpt lat="43.72284" lon="7.08264">
        <ele>359</ele>
        <time>2023-07-30T05:24:10.000Z</time>
      </trkpt>
      <trkpt lat="43.72287" lon="7.08268">
        <ele>359.20001220703</ele>
        <time>2023-07-30T05:24:11.000Z</time>
      </trkpt>
      <trkpt lat="43.72289" lon="7.0827">
        <ele>359.39999389648</ele>
        <time>2023-07-30T05:24:12.000Z</time>
      </trkpt>
      <trkpt lat="43.72291" lon="7.08273">
        <ele>359.60000610352</ele>
        <time>2023-07-30T05:24:13.000Z</time>
      </trkpt>
      <trkpt lat="43.72294" lon="7.08276">
        <ele>359.60000610352</ele>
        <time>2023-07-30T05:24:14.000Z</time>
      </trkpt>
      <trkpt lat="43.72298" lon="7.08278">
        <ele>359.60000610352</ele>
        <time>2023-07-30T05:24:15.000Z</time>
      </trkpt>
      <trkpt lat="43.72301" lon="7.08279">
        <ele>359.60000610352</ele>
        <time>2023-07-30T05:24:16.000Z</time>
      </trkpt>
      <trkpt lat="43.72303" lon="7.08279">
        <ele>359.60000610352</ele>
        <time>2023-07-30T05:24:17.000Z</time>
      </trkpt>
      <trkpt lat="43.72307" lon="7.08279">
        <ele>359.60000610352</ele>
        <time>2023-07-30T05:24:18.000Z</time>
      </trkpt>
      <trkpt lat="43.7231" lon="7.08278">
        <ele>359.60000610352</ele>
        <time>2023-07-30T05:24:19.000Z</time>
      </trkpt>
      <trkpt lat="43.72313" lon="7.08276">
        <ele>359.60000610352</ele>
        <time>2023-07-30T05:24:20.000Z</time>
      </trkpt>
      <trkpt lat="43.72316" lon="7.08274">
        <ele>359.60000610352</ele>
        <time>2023-07-30T05:24:21.000Z</time>
      </trkpt>
      <trkpt lat="43.72319" lon="7.08273">
        <ele>359.79998779297</ele>
        <time>2023-07-30T05:24:22.000Z</time>
      </trkpt>
      <trkpt lat="43.72322" lon="7.08274">
        <ele>359.79998779297</ele>
        <time>2023-07-30T05:24:23.000Z</time>
      </trkpt>
      <trkpt lat="43.72325" lon="7.08276">
        <ele>359.79998779297</ele>
        <time>2023-07-30T05:24:24.000Z</time>
      </trkpt>
      <trkpt lat="43.72327" lon="7.0828">
        <ele>359.79998779297</ele>
        <time>2023-07-30T05:24:25.000Z</time>
      </trkpt>
      <trkpt lat="43.72327" lon="7.08284">
        <ele>360</ele>
        <time>2023-07-30T05:24:26.000Z</time>
      </trkpt>
      <trkpt lat="43.72328" lon="7.08289">
        <ele>360</ele>
        <time>2023-07-30T05:24:27.000Z</time>
      </trkpt>
      <trkpt lat="43.72328" lon="7.08294">
        <ele>360.20001220703</ele>
        <time>2023-07-30T05:24:28.000Z</time>
      </trkpt>
      <trkpt lat="43.72328" lon="7.083">
        <ele>360.20001220703</ele>
        <time>2023-07-30T05:24:29.000Z</time>
      </trkpt>
      <trkpt lat="43.72329" lon="7.08305">
        <ele>360.20001220703</ele>
        <time>2023-07-30T05:24:30.000Z</time>
      </trkpt>
      <trkpt lat="43.72329" lon="7.0831">
        <ele>360.20001220703</ele>
        <time>2023-07-30T05:24:31.000Z</time>
      </trkpt>
      <trkpt lat="43.7233" lon="7.08316">
        <ele>360.20001220703</ele>
        <time>2023-07-30T05:24:32.000Z</time>
      </trkpt>
      <trkpt lat="43.72331" lon="7.0832">
        <ele>360</ele>
        <time>2023-07-30T05:24:33.000Z</time>
      </trkpt>
      <trkpt lat="43.72333" lon="7.08324">
        <ele>360</ele>
        <time>2023-07-30T05:24:34.000Z</time>
      </trkpt>
      <trkpt lat="43.72335" lon="7.08329">
        <ele>360</ele>
        <time>2023-07-30T05:24:35.000Z</time>
      </trkpt>
      <trkpt lat="43.72337" lon="7.08333">
        <ele>360</ele>
        <time>2023-07-30T05:24:36.000Z</time>
      </trkpt>
      <trkpt lat="43.7234" lon="7.08338">
        <ele>360</ele>
        <time>2023-07-30T05:24:37.000Z</time>
      </trkpt>
      <trkpt lat="43.72343" lon="7.08342">
        <ele>360</ele>
        <time>2023-07-30T05:24:38.000Z</time>
      </trkpt>
      <trkpt lat="43.72346" lon="7.08346">
        <ele>360</ele>
        <time>2023-07-30T05:24:39.000Z</time>
      </trkpt>
      <trkpt lat="43.72349" lon="7.08349">
        <ele>359.79998779297</ele>
        <time>2023-07-30T05:24:40.000Z</time>
      </trkpt>
      <trkpt lat="43.72353" lon="7.08353">
        <ele>359.79998779297</ele>
        <time>2023-07-30T05:24:41.000Z</time>
      </trkpt>
      <trkpt lat="43.72356" lon="7.08356">
        <ele>359.79998779297</ele>
        <time>2023-07-30T05:24:42.000Z</time>
      </trkpt>
      <trkpt lat="43.72361" lon="7.08359">
        <ele>359.79998779297</ele>
        <time>2023-07-30T05:24:43.000Z</time>
      </trkpt>
      <trkpt lat="43.72365" lon="7.08361">
        <ele>359.79998779297</ele>
        <time>2023-07-30T05:24:44.000Z</time>
      </trkpt>
      <trkpt lat="43.7237" lon="7.08363">
        <ele>359.79998779297</ele>
        <time>2023-07-30T05:24:45.000Z</time>
      </trkpt>
      <trkpt lat="43.72375" lon="7.08364">
        <ele>359.60000610352</ele>
        <time>2023-07-30T05:24:46.000Z</time>
      </trkpt>
      <trkpt lat="43.7238" lon="7.08365">
        <ele>359.39999389648</ele>
        <time>2023-07-30T05:24:47.000Z</time>
      </trkpt>
      <trkpt lat="43.72385" lon="7.08364">
        <ele>359.39999389648</ele>
        <time>2023-07-30T05:24:48.000Z</time>
      </trkpt>
      <trkpt lat="43.7239" lon="7.08363">
        <ele>359.39999389648</ele>
        <time>2023-07-30T05:24:49.000Z</time>
      </trkpt>
      <trkpt lat="43.72396" lon="7.08361">
        <ele>359.20001220703</ele>
        <time>2023-07-30T05:24:50.000Z</time>
      </trkpt>
      <trkpt lat="43.72401" lon="7.08358">
        <ele>359</ele>
        <time>2023-07-30T05:24:51.000Z</time>
      </trkpt>
      <trkpt lat="43.72406" lon="7.08356">
        <ele>358.79998779297</ele>
        <time>2023-07-30T05:24:52.000Z</time>
      </trkpt>
      <trkpt lat="43.72411" lon="7.08353">
        <ele>358.79998779297</ele>
        <time>2023-07-30T05:24:53.000Z</time>
      </trkpt>
      <trkpt lat="43.72416" lon="7.0835">
        <ele>358.60000610352</ele>
        <time>2023-07-30T05:24:54.000Z</time>
      </trkpt>
      <trkpt lat="43.72421" lon="7.08347">
        <ele>358.60000610352</ele>
        <time>2023-07-30T05:24:55.000Z</time>
      </trkpt>
      <trkpt lat="43.72426" lon="7.08343">
        <ele>358.39999389648</ele>
        <time>2023-07-30T05:24:56.000Z</time>
      </trkpt>
      <trkpt lat="43.72431" lon="7.0834">
        <ele>358.20001220703</ele>
        <time>2023-07-30T05:24:57.000Z</time>
      </trkpt>
      <trkpt lat="43.72436" lon="7.08337">
        <ele>358</ele>
        <time>2023-07-30T05:24:58.000Z</time>
      </trkpt>
      <trkpt lat="43.72442" lon="7.08336">
        <ele>357.79998779297</ele>
        <time>2023-07-30T05:24:59.000Z</time>
      </trkpt>
      <trkpt lat="43.72448" lon="7.08336">
        <ele>357.60000610352</ele>
        <time>2023-07-30T05:25:00.000Z</time>
      </trkpt>
      <trkpt lat="43.72454" lon="7.08338">
        <ele>357.39999389648</ele>
        <time>2023-07-30T05:25:01.000Z</time>
      </trkpt>
      <trkpt lat="43.7246" lon="7.08343">
        <ele>357.39999389648</ele>
        <time>2023-07-30T05:25:02.000Z</time>
      </trkpt>
      <trkpt lat="43.72464" lon="7.0835">
        <ele>357.20001220703</ele>
        <time>2023-07-30T05:25:03.000Z</time>
      </trkpt>
      <trkpt lat="43.72467" lon="7.08358">
        <ele>357</ele>
        <time>2023-07-30T05:25:04.000Z</time>
      </trkpt>
      <trkpt lat="43.72469" lon="7.08367">
        <ele>357</ele>
        <time>2023-07-30T05:25:05.000Z</time>
      </trkpt>
      <trkpt lat="43.7247" lon="7.08376">
        <ele>357</ele>
        <time>2023-07-30T05:25:06.000Z</time>
      </trkpt>
      <trkpt lat="43.72469" lon="7.08385">
        <ele>356.60000610352</ele>
        <time>2023-07-30T05:25:07.000Z</time>
      </trkpt>
      <trkpt lat="43.72468" lon="7.08393">
        <ele>356.20001220703</ele>
        <time>2023-07-30T05:25:08.000Z</time>
      </trkpt>
      <trkpt lat="43.72467" lon="7.08401">
        <ele>356</ele>
        <time>2023-07-30T05:25:09.000Z</time>
      </trkpt>
      <trkpt lat="43.72465" lon="7.0841">
        <ele>355.79998779297</ele>
        <time>2023-07-30T05:25:10.000Z</time>
      </trkpt>
      <trkpt lat="43.72464" lon="7.08418">
        <ele>355.79998779297</ele>
        <time>2023-07-30T05:25:11.000Z</time>
      </trkpt>
      <trkpt lat="43.72462" lon="7.08426">
        <ele>355.79998779297</ele>
        <time>2023-07-30T05:25:12.000Z</time>
      </trkpt>
      <trkpt lat="43.72461" lon="7.08435">
        <ele>355.60000610352</ele>
        <time>2023-07-30T05:25:13.000Z</time>
      </trkpt>
      <trkpt lat="43.72459" lon="7.08442">
        <ele>355.39999389648</ele>
        <time>2023-07-30T05:25:14.000Z</time>
      </trkpt>
      <trkpt lat="43.72457" lon="7.0845">
        <ele>355.39999389648</ele>
        <time>2023-07-30T05:25:15.000Z</time>
      </trkpt>
      <trkpt lat="43.72456" lon="7.08457">
        <ele>355.20001220703</ele>
        <time>2023-07-30T05:25:16.000Z</time>
      </trkpt>
      <trkpt lat="43.72455" lon="7.08464">
        <ele>355</ele>
        <time>2023-07-30T05:25:17.000Z</time>
      </trkpt>
      <trkpt lat="43.72453" lon="7.08472">
        <ele>354.79998779297</ele>
        <time>2023-07-30T05:25:18.000Z</time>
      </trkpt>
      <trkpt lat="43.72451" lon="7.0848">
        <ele>354.79998779297</ele>
        <time>2023-07-30T05:25:19.000Z</time>
      </trkpt>
      <trkpt lat="43.72449" lon="7.08488">
        <ele>354.79998779297</ele>
        <time>2023-07-30T05:25:20.000Z</time>
      </trkpt>
      <trkpt lat="43.72448" lon="7.08496">
        <ele>354.60000610352</ele>
        <time>2023-07-30T05:25:21.000Z</time>
      </trkpt>
      <trkpt lat="43.72447" lon="7.08503">
        <ele>354.39999389648</ele>
        <time>2023-07-30T05:25:22.000Z</time>
      </trkpt>
      <trkpt lat="43.72445" lon="7.0851">
        <ele>354.39999389648</ele>
        <time>2023-07-30T05:25:23.000Z</time>
      </trkpt>
      <trkpt lat="43.72444" lon="7.08518">
        <ele>354.39999389648</ele>
        <time>2023-07-30T05:25:24.000Z</time>
      </trkpt>
      <trkpt lat="43.72442" lon="7.08526">
        <ele>354.20001220703</ele>
        <time>2023-07-30T05:25:25.000Z</time>
      </trkpt>
      <trkpt lat="43.7244" lon="7.08534">
        <ele>354</ele>
        <time>2023-07-30T05:25:26.000Z</time>
      </trkpt>
      <trkpt lat="43.72439" lon="7.08542">
        <ele>354</ele>
        <time>2023-07-30T05:25:27.000Z</time>
      </trkpt>
      <trkpt lat="43.72437" lon="7.08549">
        <ele>353.79998779297</ele>
        <time>2023-07-30T05:25:28.000Z</time>
      </trkpt>
      <trkpt lat="43.72436" lon="7.08557">
        <ele>353.60000610352</ele>
        <time>2023-07-30T05:25:29.000Z</time>
      </trkpt>
      <trkpt lat="43.72434" lon="7.08564">
        <ele>353.39999389648</ele>
        <time>2023-07-30T05:25:30.000Z</time>
      </trkpt>
      <trkpt lat="43.72433" lon="7.08572">
        <ele>353.39999389648</ele>
        <time>2023-07-30T05:25:31.000Z</time>
      </trkpt>
      <trkpt lat="43.72432" lon="7.0858">
        <ele>353.20001220703</ele>
        <time>2023-07-30T05:25:32.000Z</time>
      </trkpt>
      <trkpt lat="43.72432" lon="7.08587">
        <ele>353.20001220703</ele>
        <time>2023-07-30T05:25:33.000Z</time>
      </trkpt>
      <trkpt lat="43.72432" lon="7.08595">
        <ele>353</ele>
        <time>2023-07-30T05:25:34.000Z</time>
      </trkpt>
      <trkpt lat="43.72433" lon="7.08603">
        <ele>353</ele>
        <time>2023-07-30T05:25:35.000Z</time>
      </trkpt>
      <trkpt lat="43.72433" lon="7.0861">
        <ele>353</ele>
        <time>2023-07-30T05:25:36.000Z</time>
      </trkpt>
      <trkpt lat="43.72434" lon="7.08618">
        <ele>352.79998779297</ele>
        <time>2023-07-30T05:25:37.000Z</time>
      </trkpt>
      <trkpt lat="43.72435" lon="7.08625">
        <ele>352.79998779297</ele>
        <time>2023-07-30T05:25:38.000Z</time>
      </trkpt>
      <trkpt lat="43.72437" lon="7.08633">
        <ele>352.79998779297</ele>
        <time>2023-07-30T05:25:39.000Z</time>
      </trkpt>
      <trkpt lat="43.72438" lon="7.08639">
        <ele>352.60000610352</ele>
        <time>2023-07-30T05:25:40.000Z</time>
      </trkpt>
      <trkpt lat="43.72441" lon="7.08646">
        <ele>352.60000610352</ele>
        <time>2023-07-30T05:25:41.000Z</time>
      </trkpt>
      <trkpt lat="43.72443" lon="7.08654">
        <ele>352.39999389648</ele>
        <time>2023-07-30T05:25:42.000Z</time>
      </trkpt>
      <trkpt lat="43.72446" lon="7.0866">
        <ele>352</ele>
        <time>2023-07-30T05:25:43.000Z</time>
      </trkpt>
      <trkpt lat="43.72449" lon="7.08666">
        <ele>352</ele>
        <time>2023-07-30T05:25:44.000Z</time>
      </trkpt>
      <trkpt lat="43.72452" lon="7.08671">
        <ele>351.79998779297</ele>
        <time>2023-07-30T05:25:45.000Z</time>
      </trkpt>
      <trkpt lat="43.72456" lon="7.08676">
        <ele>351.79998779297</ele>
        <time>2023-07-30T05:25:46.000Z</time>
      </trkpt>
      <trkpt lat="43.72461" lon="7.0868">
        <ele>351.79998779297</ele>
        <time>2023-07-30T05:25:47.000Z</time>
      </trkpt>
      <trkpt lat="43.72466" lon="7.08684">
        <ele>351.79998779297</ele>
        <time>2023-07-30T05:25:48.000Z</time>
      </trkpt>
      <trkpt lat="43.72471" lon="7.08687">
        <ele>351.39999389648</ele>
        <time>2023-07-30T05:25:49.000Z</time>
      </trkpt>
      <trkpt lat="43.72476" lon="7.0869">
        <ele>351.39999389648</ele>
        <time>2023-07-30T05:25:50.000Z</time>
      </trkpt>
      <trkpt lat="43.72482" lon="7.08692">
        <ele>351.39999389648</ele>
        <time>2023-07-30T05:25:51.000Z</time>
      </trkpt>
      <trkpt lat="43.72487" lon="7.08694">
        <ele>351.20001220703</ele>
        <time>2023-07-30T05:25:52.000Z</time>
      </trkpt>
      <trkpt lat="43.72494" lon="7.08696">
        <ele>351.20001220703</ele>
        <time>2023-07-30T05:25:53.000Z</time>
      </trkpt>
      <trkpt lat="43.725" lon="7.08698">
        <ele>350.79998779297</ele>
        <time>2023-07-30T05:25:54.000Z</time>
      </trkpt>
      <trkpt lat="43.72506" lon="7.087">
        <ele>350.60000610352</ele>
        <time>2023-07-30T05:25:55.000Z</time>
      </trkpt>
      <trkpt lat="43.72512" lon="7.08701">
        <ele>350.60000610352</ele>
        <time>2023-07-30T05:25:56.000Z</time>
      </trkpt>
      <trkpt lat="43.72518" lon="7.08702">
        <ele>350.39999389648</ele>
        <time>2023-07-30T05:25:57.000Z</time>
      </trkpt>
      <trkpt lat="43.72523" lon="7.08704">
        <ele>350.20001220703</ele>
        <time>2023-07-30T05:25:58.000Z</time>
      </trkpt>
      <trkpt lat="43.7253" lon="7.08706">
        <ele>350.20001220703</ele>
        <time>2023-07-30T05:25:59.000Z</time>
      </trkpt>
      <trkpt lat="43.72535" lon="7.08707">
        <ele>350</ele>
        <time>2023-07-30T05:26:00.000Z</time>
      </trkpt>
      <trkpt lat="43.72541" lon="7.08708">
        <ele>349.79998779297</ele>
        <time>2023-07-30T05:26:01.000Z</time>
      </trkpt>
      <trkpt lat="43.72547" lon="7.08709">
        <ele>349.39999389648</ele>
        <time>2023-07-30T05:26:02.000Z</time>
      </trkpt>
      <trkpt lat="43.72553" lon="7.08711">
        <ele>349.20001220703</ele>
        <time>2023-07-30T05:26:03.000Z</time>
      </trkpt>
      <trkpt lat="43.72559" lon="7.08713">
        <ele>349.20001220703</ele>
        <time>2023-07-30T05:26:04.000Z</time>
      </trkpt>
      <trkpt lat="43.72565" lon="7.08714">
        <ele>349</ele>
        <time>2023-07-30T05:26:05.000Z</time>
      </trkpt>
      <trkpt lat="43.72571" lon="7.08715">
        <ele>349</ele>
        <time>2023-07-30T05:26:06.000Z</time>
      </trkpt>
      <trkpt lat="43.72577" lon="7.08717">
        <ele>348.79998779297</ele>
        <time>2023-07-30T05:26:07.000Z</time>
      </trkpt>
      <trkpt lat="43.72583" lon="7.08718">
        <ele>348.60000610352</ele>
        <time>2023-07-30T05:26:08.000Z</time>
      </trkpt>
      <trkpt lat="43.72588" lon="7.08719">
        <ele>348.39999389648</ele>
        <time>2023-07-30T05:26:09.000Z</time>
      </trkpt>
      <trkpt lat="43.72594" lon="7.0872">
        <ele>348.39999389648</ele>
        <time>2023-07-30T05:26:10.000Z</time>
      </trkpt>
      <trkpt lat="43.726" lon="7.08721">
        <ele>348.20001220703</ele>
        <time>2023-07-30T05:26:11.000Z</time>
      </trkpt>
      <trkpt lat="43.72606" lon="7.08723">
        <ele>348.20001220703</ele>
        <time>2023-07-30T05:26:12.000Z</time>
      </trkpt>
      <trkpt lat="43.72611" lon="7.08725">
        <ele>348.20001220703</ele>
        <time>2023-07-30T05:26:13.000Z</time>
      </trkpt>
      <trkpt lat="43.72617" lon="7.08726">
        <ele>348.20001220703</ele>
        <time>2023-07-30T05:26:14.000Z</time>
      </trkpt>
      <trkpt lat="43.72622" lon="7.08727">
        <ele>348.20001220703</ele>
        <time>2023-07-30T05:26:15.000Z</time>
      </trkpt>
      <trkpt lat="43.72628" lon="7.08727">
        <ele>348</ele>
        <time>2023-07-30T05:26:16.000Z</time>
      </trkpt>
      <trkpt lat="43.72634" lon="7.08726">
        <ele>347.79998779297</ele>
        <time>2023-07-30T05:26:17.000Z</time>
      </trkpt>
      <trkpt lat="43.72639" lon="7.08724">
        <ele>347.60000610352</ele>
        <time>2023-07-30T05:26:18.000Z</time>
      </trkpt>
      <trkpt lat="43.72644" lon="7.08723">
        <ele>347.60000610352</ele>
        <time>2023-07-30T05:26:19.000Z</time>
      </trkpt>
      <trkpt lat="43.7265" lon="7.0872">
        <ele>347.39999389648</ele>
        <time>2023-07-30T05:26:20.000Z</time>
      </trkpt>
      <trkpt lat="43.72655" lon="7.08717">
        <ele>347.39999389648</ele>
        <time>2023-07-30T05:26:21.000Z</time>
      </trkpt>
      <trkpt lat="43.72661" lon="7.08714">
        <ele>347.20001220703</ele>
        <time>2023-07-30T05:26:22.000Z</time>
      </trkpt>
      <trkpt lat="43.72666" lon="7.0871">
        <ele>347</ele>
        <time>2023-07-30T05:26:23.000Z</time>
      </trkpt>
      <trkpt lat="43.72672" lon="7.08706">
        <ele>347</ele>
        <time>2023-07-30T05:26:24.000Z</time>
      </trkpt>
      <trkpt lat="43.72678" lon="7.08704">
        <ele>346.60000610352</ele>
        <time>2023-07-30T05:26:25.000Z</time>
      </trkpt>
      <trkpt lat="43.72684" lon="7.08702">
        <ele>346.39999389648</ele>
        <time>2023-07-30T05:26:26.000Z</time>
      </trkpt>
      <trkpt lat="43.7269" lon="7.087">
        <ele>346.20001220703</ele>
        <time>2023-07-30T05:26:27.000Z</time>
      </trkpt>
      <trkpt lat="43.72696" lon="7.08698">
        <ele>345.79998779297</ele>
        <time>2023-07-30T05:26:28.000Z</time>
      </trkpt>
      <trkpt lat="43.72702" lon="7.08696">
        <ele>345.60000610352</ele>
        <time>2023-07-30T05:26:29.000Z</time>
      </trkpt>
      <trkpt lat="43.72707" lon="7.08694">
        <ele>345.39999389648</ele>
        <time>2023-07-30T05:26:30.000Z</time>
      </trkpt>
      <trkpt lat="43.72712" lon="7.08693">
        <ele>345.39999389648</ele>
        <time>2023-07-30T05:26:31.000Z</time>
      </trkpt>
      <trkpt lat="43.72718" lon="7.08692">
        <ele>345.20001220703</ele>
        <time>2023-07-30T05:26:32.000Z</time>
      </trkpt>
      <trkpt lat="43.72723" lon="7.08691">
        <ele>345.20001220703</ele>
        <time>2023-07-30T05:26:33.000Z</time>
      </trkpt>
      <trkpt lat="43.72729" lon="7.08689">
        <ele>345</ele>
        <time>2023-07-30T05:26:34.000Z</time>
      </trkpt>
      <trkpt lat="43.72735" lon="7.08687">
        <ele>345</ele>
        <time>2023-07-30T05:26:35.000Z</time>
      </trkpt>
      <trkpt lat="43.72741" lon="7.08685">
        <ele>344.79998779297</ele>
        <time>2023-07-30T05:26:36.000Z</time>
      </trkpt>
      <trkpt lat="43.72747" lon="7.08684">
        <ele>344.79998779297</ele>
        <time>2023-07-30T05:26:37.000Z</time>
      </trkpt>
      <trkpt lat="43.72754" lon="7.08683">
        <ele>344.79998779297</ele>
        <time>2023-07-30T05:26:38.000Z</time>
      </trkpt>
      <trkpt lat="43.7276" lon="7.08684">
        <ele>344.79998779297</ele>
        <time>2023-07-30T05:26:39.000Z</time>
      </trkpt>
      <trkpt lat="43.72765" lon="7.08687">
        <ele>344.60000610352</ele>
        <time>2023-07-30T05:26:40.000Z</time>
      </trkpt>
      <trkpt lat="43.7277" lon="7.08692">
        <ele>344.39999389648</ele>
        <time>2023-07-30T05:26:41.000Z</time>
      </trkpt>
      <trkpt lat="43.72774" lon="7.087">
        <ele>344.20001220703</ele>
        <time>2023-07-30T05:26:42.000Z</time>
      </trkpt>
      <trkpt lat="43.72778" lon="7.08707">
        <ele>343.79998779297</ele>
        <time>2023-07-30T05:26:43.000Z</time>
      </trkpt>
      <trkpt lat="43.7278" lon="7.08716">
        <ele>343.79998779297</ele>
        <time>2023-07-30T05:26:44.000Z</time>
      </trkpt>
      <trkpt lat="43.72781" lon="7.08725">
        <ele>343.79998779297</ele>
        <time>2023-07-30T05:26:45.000Z</time>
      </trkpt>
      <trkpt lat="43.72781" lon="7.08732">
        <ele>343.79998779297</ele>
        <time>2023-07-30T05:26:46.000Z</time>
      </trkpt>
      <trkpt lat="43.7278" lon="7.08738">
        <ele>343.60000610352</ele>
        <time>2023-07-30T05:26:47.000Z</time>
      </trkpt>
      <trkpt lat="43.72779" lon="7.08745">
        <ele>343.60000610352</ele>
        <time>2023-07-30T05:26:48.000Z</time>
      </trkpt>
      <trkpt lat="43.72778" lon="7.08752">
        <ele>343.60000610352</ele>
        <time>2023-07-30T05:26:49.000Z</time>
      </trkpt>
      <trkpt lat="43.72776" lon="7.08758">
        <ele>343.60000610352</ele>
        <time>2023-07-30T05:26:50.000Z</time>
      </trkpt>
      <trkpt lat="43.72774" lon="7.08765">
        <ele>343.60000610352</ele>
        <time>2023-07-30T05:26:51.000Z</time>
      </trkpt>
      <trkpt lat="43.72773" lon="7.08772">
        <ele>343.60000610352</ele>
        <time>2023-07-30T05:26:52.000Z</time>
      </trkpt>
      <trkpt lat="43.72772" lon="7.08778">
        <ele>343.60000610352</ele>
        <time>2023-07-30T05:26:53.000Z</time>
      </trkpt>
      <trkpt lat="43.72771" lon="7.08786">
        <ele>343.79998779297</ele>
        <time>2023-07-30T05:26:54.000Z</time>
      </trkpt>
      <trkpt lat="43.72769" lon="7.08794">
        <ele>343.79998779297</ele>
        <time>2023-07-30T05:26:55.000Z</time>
      </trkpt>
      <trkpt lat="43.72767" lon="7.08801">
        <ele>343.79998779297</ele>
        <time>2023-07-30T05:26:56.000Z</time>
      </trkpt>
      <trkpt lat="43.72765" lon="7.08808">
        <ele>343.79998779297</ele>
        <time>2023-07-30T05:26:57.000Z</time>
      </trkpt>
      <trkpt lat="43.72762" lon="7.08814">
        <ele>343.79998779297</ele>
        <time>2023-07-30T05:26:58.000Z</time>
      </trkpt>
      <trkpt lat="43.7276" lon="7.0882">
        <ele>343.79998779297</ele>
        <time>2023-07-30T05:26:59.000Z</time>
      </trkpt>
      <trkpt lat="43.72756" lon="7.08826">
        <ele>343.79998779297</ele>
        <time>2023-07-30T05:27:00.000Z</time>
      </trkpt>
      <trkpt lat="43.72753" lon="7.0883">
        <ele>343.79998779297</ele>
        <time>2023-07-30T05:27:01.000Z</time>
      </trkpt>
      <trkpt lat="43.7275" lon="7.08834">
        <ele>343.79998779297</ele>
        <time>2023-07-30T05:27:02.000Z</time>
      </trkpt>
      <trkpt lat="43.72747" lon="7.08838">
        <ele>343.79998779297</ele>
        <time>2023-07-30T05:27:03.000Z</time>
      </trkpt>
      <trkpt lat="43.72743" lon="7.08841">
        <ele>344</ele>
        <time>2023-07-30T05:27:04.000Z</time>
      </trkpt>
      <trkpt lat="43.72739" lon="7.08846">
        <ele>344</ele>
        <time>2023-07-30T05:27:05.000Z</time>
      </trkpt>
      <trkpt lat="43.72736" lon="7.0885">
        <ele>344</ele>
        <time>2023-07-30T05:27:06.000Z</time>
      </trkpt>
      <trkpt lat="43.72732" lon="7.08855">
        <ele>344</ele>
        <time>2023-07-30T05:27:07.000Z</time>
      </trkpt>
      <trkpt lat="43.72728" lon="7.08859">
        <ele>344.20001220703</ele>
        <time>2023-07-30T05:27:08.000Z</time>
      </trkpt>
      <trkpt lat="43.72723" lon="7.08863">
        <ele>344.20001220703</ele>
        <time>2023-07-30T05:27:09.000Z</time>
      </trkpt>
      <trkpt lat="43.7272" lon="7.08868">
        <ele>344.20001220703</ele>
        <time>2023-07-30T05:27:10.000Z</time>
      </trkpt>
      <trkpt lat="43.72716" lon="7.08872">
        <ele>344.20001220703</ele>
        <time>2023-07-30T05:27:11.000Z</time>
      </trkpt>
      <trkpt lat="43.72712" lon="7.08876">
        <ele>344.20001220703</ele>
        <time>2023-07-30T05:27:12.000Z</time>
      </trkpt>
      <trkpt lat="43.72708" lon="7.0888">
        <ele>344.20001220703</ele>
        <time>2023-07-30T05:27:13.000Z</time>
      </trkpt>
      <trkpt lat="43.72705" lon="7.08884">
        <ele>344.39999389648</ele>
        <time>2023-07-30T05:27:14.000Z</time>
      </trkpt>
      <trkpt lat="43.72701" lon="7.08888">
        <ele>344.39999389648</ele>
        <time>2023-07-30T05:27:15.000Z</time>
      </trkpt>
      <trkpt lat="43.72698" lon="7.08892">
        <ele>344.39999389648</ele>
        <time>2023-07-30T05:27:16.000Z</time>
      </trkpt>
      <trkpt lat="43.72694" lon="7.08896">
        <ele>344.39999389648</ele>
        <time>2023-07-30T05:27:17.000Z</time>
      </trkpt>
      <trkpt lat="43.72691" lon="7.089">
        <ele>344.39999389648</ele>
        <time>2023-07-30T05:27:18.000Z</time>
      </trkpt>
      <trkpt lat="43.72687" lon="7.08904">
        <ele>344.39999389648</ele>
        <time>2023-07-30T05:27:19.000Z</time>
      </trkpt>
      <trkpt lat="43.72684" lon="7.08908">
        <ele>344.39999389648</ele>
        <time>2023-07-30T05:27:20.000Z</time>
      </trkpt>
      <trkpt lat="43.72681" lon="7.08912">
        <ele>344.39999389648</ele>
        <time>2023-07-30T05:27:21.000Z</time>
      </trkpt>
      <trkpt lat="43.72678" lon="7.08917">
        <ele>344.39999389648</ele>
        <time>2023-07-30T05:27:22.000Z</time>
      </trkpt>
      <trkpt lat="43.72677" lon="7.08922">
        <ele>344.60000610352</ele>
        <time>2023-07-30T05:27:23.000Z</time>
      </trkpt>
      <trkpt lat="43.72675" lon="7.08927">
        <ele>344.60000610352</ele>
        <time>2023-07-30T05:27:24.000Z</time>
      </trkpt>
      <trkpt lat="43.72674" lon="7.08932">
        <ele>344.60000610352</ele>
        <time>2023-07-30T05:27:25.000Z</time>
      </trkpt>
      <trkpt lat="43.72673" lon="7.08938">
        <ele>344.60000610352</ele>
        <time>2023-07-30T05:27:26.000Z</time>
      </trkpt>
      <trkpt lat="43.72672" lon="7.08944">
        <ele>344.60000610352</ele>
        <time>2023-07-30T05:27:27.000Z</time>
      </trkpt>
      <trkpt lat="43.72672" lon="7.08949">
        <ele>344.60000610352</ele>
        <time>2023-07-30T05:27:28.000Z</time>
      </trkpt>
      <trkpt lat="43.72672" lon="7.08955">
        <ele>344.60000610352</ele>
        <time>2023-07-30T05:27:29.000Z</time>
      </trkpt>
      <trkpt lat="43.72672" lon="7.0896">
        <ele>344.60000610352</ele>
        <time>2023-07-30T05:27:30.000Z</time>
      </trkpt>
      <trkpt lat="43.72672" lon="7.08966">
        <ele>344.39999389648</ele>
        <time>2023-07-30T05:27:31.000Z</time>
      </trkpt>
      <trkpt lat="43.72672" lon="7.08972">
        <ele>344.39999389648</ele>
        <time>2023-07-30T05:27:32.000Z</time>
      </trkpt>
      <trkpt lat="43.72673" lon="7.08978">
        <ele>344.39999389648</ele>
        <time>2023-07-30T05:27:33.000Z</time>
      </trkpt>
      <trkpt lat="43.72674" lon="7.08984">
        <ele>344.39999389648</ele>
        <time>2023-07-30T05:27:34.000Z</time>
      </trkpt>
      <trkpt lat="43.72675" lon="7.0899">
        <ele>344.39999389648</ele>
        <time>2023-07-30T05:27:35.000Z</time>
      </trkpt>
      <trkpt lat="43.72676" lon="7.08996">
        <ele>344.39999389648</ele>
        <time>2023-07-30T05:27:36.000Z</time>
      </trkpt>
      <trkpt lat="43.72676" lon="7.09002">
        <ele>344.39999389648</ele>
        <time>2023-07-30T05:27:37.000Z</time>
      </trkpt>
      <trkpt lat="43.72677" lon="7.09008">
        <ele>344.39999389648</ele>
        <time>2023-07-30T05:27:38.000Z</time>
      </trkpt>
      <trkpt lat="43.72676" lon="7.09014">
        <ele>344.39999389648</ele>
        <time>2023-07-30T05:27:39.000Z</time>
      </trkpt>
      <trkpt lat="43.72676" lon="7.09019">
        <ele>344.39999389648</ele>
        <time>2023-07-30T05:27:40.000Z</time>
      </trkpt>
      <trkpt lat="43.72674" lon="7.09024">
        <ele>344.39999389648</ele>
        <time>2023-07-30T05:27:41.000Z</time>
      </trkpt>
      <trkpt lat="43.72672" lon="7.09029">
        <ele>344.39999389648</ele>
        <time>2023-07-30T05:27:42.000Z</time>
      </trkpt>
      <trkpt lat="43.72669" lon="7.09033">
        <ele>344.39999389648</ele>
        <time>2023-07-30T05:27:43.000Z</time>
      </trkpt>
      <trkpt lat="43.72665" lon="7.09037">
        <ele>344.39999389648</ele>
        <time>2023-07-30T05:27:44.000Z</time>
      </trkpt>
      <trkpt lat="43.72662" lon="7.09041">
        <ele>344.39999389648</ele>
        <time>2023-07-30T05:27:45.000Z</time>
      </trkpt>
      <trkpt lat="43.72658" lon="7.09046">
        <ele>344.39999389648</ele>
        <time>2023-07-30T05:27:46.000Z</time>
      </trkpt>
      <trkpt lat="43.72654" lon="7.09049">
        <ele>344.39999389648</ele>
        <time>2023-07-30T05:27:47.000Z</time>
      </trkpt>
      <trkpt lat="43.7265" lon="7.09053">
        <ele>344.39999389648</ele>
        <time>2023-07-30T05:27:48.000Z</time>
      </trkpt>
      <trkpt lat="43.72646" lon="7.09057">
        <ele>344.60000610352</ele>
        <time>2023-07-30T05:27:49.000Z</time>
      </trkpt>
      <trkpt lat="43.72642" lon="7.09061">
        <ele>344.60000610352</ele>
        <time>2023-07-30T05:27:50.000Z</time>
      </trkpt>
      <trkpt lat="43.72639" lon="7.09065">
        <ele>344.60000610352</ele>
        <time>2023-07-30T05:27:51.000Z</time>
      </trkpt>
      <trkpt lat="43.72635" lon="7.09069">
        <ele>344.60000610352</ele>
        <time>2023-07-30T05:27:52.000Z</time>
      </trkpt>
      <trkpt lat="43.72632" lon="7.09073">
        <ele>344.60000610352</ele>
        <time>2023-07-30T05:27:53.000Z</time>
      </trkpt>
      <trkpt lat="43.72628" lon="7.09078">
        <ele>344.60000610352</ele>
        <time>2023-07-30T05:27:54.000Z</time>
      </trkpt>
      <trkpt lat="43.72624" lon="7.09083">
        <ele>344.79998779297</ele>
        <time>2023-07-30T05:27:55.000Z</time>
      </trkpt>
      <trkpt lat="43.7262" lon="7.09087">
        <ele>344.79998779297</ele>
        <time>2023-07-30T05:27:56.000Z</time>
      </trkpt>
      <trkpt lat="43.72617" lon="7.09091">
        <ele>344.79998779297</ele>
        <time>2023-07-30T05:27:57.000Z</time>
      </trkpt>
      <trkpt lat="43.72613" lon="7.09095">
        <ele>344.79998779297</ele>
        <time>2023-07-30T05:27:58.000Z</time>
      </trkpt>
      <trkpt lat="43.7261" lon="7.09099">
        <ele>344.60000610352</ele>
        <time>2023-07-30T05:27:59.000Z</time>
      </trkpt>
      <trkpt lat="43.72605" lon="7.09102">
        <ele>344.60000610352</ele>
        <time>2023-07-30T05:28:00.000Z</time>
      </trkpt>
      <trkpt lat="43.72602" lon="7.09106">
        <ele>344.60000610352</ele>
        <time>2023-07-30T05:28:01.000Z</time>
      </trkpt>
      <trkpt lat="43.72598" lon="7.0911">
        <ele>344.60000610352</ele>
        <time>2023-07-30T05:28:02.000Z</time>
      </trkpt>
      <trkpt lat="43.72594" lon="7.09114">
        <ele>344.39999389648</ele>
        <time>2023-07-30T05:28:03.000Z</time>
      </trkpt>
      <trkpt lat="43.72591" lon="7.09119">
        <ele>344.39999389648</ele>
        <time>2023-07-30T05:28:04.000Z</time>
      </trkpt>
      <trkpt lat="43.72588" lon="7.09124">
        <ele>344.39999389648</ele>
        <time>2023-07-30T05:28:05.000Z</time>
      </trkpt>
      <trkpt lat="43.72585" lon="7.09128">
        <ele>344.39999389648</ele>
        <time>2023-07-30T05:28:06.000Z</time>
      </trkpt>
      <trkpt lat="43.72581" lon="7.09133">
        <ele>344.39999389648</ele>
        <time>2023-07-30T05:28:07.000Z</time>
      </trkpt>
      <trkpt lat="43.72578" lon="7.09138">
        <ele>344.20001220703</ele>
        <time>2023-07-30T05:28:08.000Z</time>
      </trkpt>
      <trkpt lat="43.72575" lon="7.09143">
        <ele>344.20001220703</ele>
        <time>2023-07-30T05:28:09.000Z</time>
      </trkpt>
      <trkpt lat="43.72572" lon="7.09148">
        <ele>344.20001220703</ele>
        <time>2023-07-30T05:28:10.000Z</time>
      </trkpt>
      <trkpt lat="43.72569" lon="7.09153">
        <ele>344</ele>
        <time>2023-07-30T05:28:11.000Z</time>
      </trkpt>
      <trkpt lat="43.72566" lon="7.09158">
        <ele>344</ele>
        <time>2023-07-30T05:28:12.000Z</time>
      </trkpt>
      <trkpt lat="43.72563" lon="7.09164">
        <ele>344</ele>
        <time>2023-07-30T05:28:13.000Z</time>
      </trkpt>
      <trkpt lat="43.7256" lon="7.09169">
        <ele>344</ele>
        <time>2023-07-30T05:28:14.000Z</time>
      </trkpt>
      <trkpt lat="43.72559" lon="7.09175">
        <ele>344</ele>
        <time>2023-07-30T05:28:15.000Z</time>
      </trkpt>
      <trkpt lat="43.72557" lon="7.09181">
        <ele>343.79998779297</ele>
        <time>2023-07-30T05:28:16.000Z</time>
      </trkpt>
      <trkpt lat="43.72555" lon="7.09186">
        <ele>343.79998779297</ele>
        <time>2023-07-30T05:28:17.000Z</time>
      </trkpt>
      <trkpt lat="43.72553" lon="7.09192">
        <ele>343.60000610352</ele>
        <time>2023-07-30T05:28:18.000Z</time>
      </trkpt>
      <trkpt lat="43.72551" lon="7.09197">
        <ele>343.60000610352</ele>
        <time>2023-07-30T05:28:19.000Z</time>
      </trkpt>
      <trkpt lat="43.72549" lon="7.09203">
        <ele>343.60000610352</ele>
        <time>2023-07-30T05:28:20.000Z</time>
      </trkpt>
      <trkpt lat="43.72548" lon="7.09209">
        <ele>343.60000610352</ele>
        <time>2023-07-30T05:28:21.000Z</time>
      </trkpt>
      <trkpt lat="43.72546" lon="7.09215">
        <ele>343.60000610352</ele>
        <time>2023-07-30T05:28:22.000Z</time>
      </trkpt>
      <trkpt lat="43.72545" lon="7.09221">
        <ele>343.60000610352</ele>
        <time>2023-07-30T05:28:23.000Z</time>
      </trkpt>
      <trkpt lat="43.72544" lon="7.09227">
        <ele>343.39999389648</ele>
        <time>2023-07-30T05:28:24.000Z</time>
      </trkpt>
      <trkpt lat="43.72543" lon="7.09233">
        <ele>343.39999389648</ele>
        <time>2023-07-30T05:28:25.000Z</time>
      </trkpt>
      <trkpt lat="43.72542" lon="7.09239">
        <ele>343.39999389648</ele>
        <time>2023-07-30T05:28:26.000Z</time>
      </trkpt>
      <trkpt lat="43.72542" lon="7.09246">
        <ele>343.39999389648</ele>
        <time>2023-07-30T05:28:27.000Z</time>
      </trkpt>
      <trkpt lat="43.72541" lon="7.09252">
        <ele>343.20001220703</ele>
        <time>2023-07-30T05:28:28.000Z</time>
      </trkpt>
      <trkpt lat="43.72541" lon="7.09259">
        <ele>343.20001220703</ele>
        <time>2023-07-30T05:28:29.000Z</time>
      </trkpt>
      <trkpt lat="43.72541" lon="7.09266">
        <ele>343.20001220703</ele>
        <time>2023-07-30T05:28:30.000Z</time>
      </trkpt>
      <trkpt lat="43.72542" lon="7.09273">
        <ele>343.20001220703</ele>
        <time>2023-07-30T05:28:31.000Z</time>
      </trkpt>
      <trkpt lat="43.72543" lon="7.0928">
        <ele>343</ele>
        <time>2023-07-30T05:28:32.000Z</time>
      </trkpt>
      <trkpt lat="43.72544" lon="7.09287">
        <ele>343</ele>
        <time>2023-07-30T05:28:33.000Z</time>
      </trkpt>
      <trkpt lat="43.72545" lon="7.09294">
        <ele>342.79998779297</ele>
        <time>2023-07-30T05:28:34.000Z</time>
      </trkpt>
      <trkpt lat="43.72546" lon="7.09301">
        <ele>342.79998779297</ele>
        <time>2023-07-30T05:28:35.000Z</time>
      </trkpt>
      <trkpt lat="43.72546" lon="7.09308">
        <ele>342.60000610352</ele>
        <time>2023-07-30T05:28:36.000Z</time>
      </trkpt>
      <trkpt lat="43.72548" lon="7.09315">
        <ele>342.60000610352</ele>
        <time>2023-07-30T05:28:37.000Z</time>
      </trkpt>
      <trkpt lat="43.72549" lon="7.09321">
        <ele>342.39999389648</ele>
        <time>2023-07-30T05:28:38.000Z</time>
      </trkpt>
      <trkpt lat="43.72551" lon="7.09326">
        <ele>342.39999389648</ele>
        <time>2023-07-30T05:28:39.000Z</time>
      </trkpt>
      <trkpt lat="43.72553" lon="7.09332">
        <ele>342.39999389648</ele>
        <time>2023-07-30T05:28:40.000Z</time>
      </trkpt>
      <trkpt lat="43.72555" lon="7.09337">
        <ele>342.39999389648</ele>
        <time>2023-07-30T05:28:41.000Z</time>
      </trkpt>
      <trkpt lat="43.72556" lon="7.09343">
        <ele>342.20001220703</ele>
        <time>2023-07-30T05:28:42.000Z</time>
      </trkpt>
      <trkpt lat="43.72558" lon="7.09349">
        <ele>342.20001220703</ele>
        <time>2023-07-30T05:28:43.000Z</time>
      </trkpt>
      <trkpt lat="43.72561" lon="7.09353">
        <ele>342</ele>
        <time>2023-07-30T05:28:44.000Z</time>
      </trkpt>
      <trkpt lat="43.72565" lon="7.09355">
        <ele>342</ele>
        <time>2023-07-30T05:28:45.000Z</time>
      </trkpt>
      <trkpt lat="43.72569" lon="7.09354">
        <ele>342</ele>
        <time>2023-07-30T05:28:46.000Z</time>
      </trkpt>
      <trkpt lat="43.72572" lon="7.09351">
        <ele>342</ele>
        <time>2023-07-30T05:28:47.000Z</time>
      </trkpt>
      <trkpt lat="43.72573" lon="7.09348">
        <ele>342</ele>
        <time>2023-07-30T05:28:48.000Z</time>
      </trkpt>
      <trkpt lat="43.72575" lon="7.09346">
        <ele>342</ele>
        <time>2023-07-30T05:28:49.000Z</time>
      </trkpt>
      <trkpt lat="43.72577" lon="7.09343">
        <ele>342</ele>
        <time>2023-07-30T05:28:50.000Z</time>
      </trkpt>
      <trkpt lat="43.72579" lon="7.09341">
        <ele>342.39999389648</ele>
        <time>2023-07-30T05:28:51.000Z</time>
      </trkpt>
      <trkpt lat="43.72581" lon="7.0934">
        <ele>343</ele>
        <time>2023-07-30T05:28:52.000Z</time>
      </trkpt>
      <trkpt lat="43.72583" lon="7.09337">
        <ele>343.39999389648</ele>
        <time>2023-07-30T05:28:53.000Z</time>
      </trkpt>
      <trkpt lat="43.72585" lon="7.09334">
        <ele>344</ele>
        <time>2023-07-30T05:28:54.000Z</time>
      </trkpt>
      <trkpt lat="43.72587" lon="7.09332">
        <ele>344.39999389648</ele>
        <time>2023-07-30T05:28:55.000Z</time>
      </trkpt>
      <trkpt lat="43.7259" lon="7.09329">
        <ele>345</ele>
        <time>2023-07-30T05:28:56.000Z</time>
      </trkpt>
      <trkpt lat="43.72592" lon="7.09326">
        <ele>345.60000610352</ele>
        <time>2023-07-30T05:28:57.000Z</time>
      </trkpt>
      <trkpt lat="43.72594" lon="7.09323">
        <ele>346.20001220703</ele>
        <time>2023-07-30T05:28:58.000Z</time>
      </trkpt>
      <trkpt lat="43.72595" lon="7.0932">
        <ele>346.60000610352</ele>
        <time>2023-07-30T05:28:59.000Z</time>
      </trkpt>
      <trkpt lat="43.72597" lon="7.09317">
        <ele>347.39999389648</ele>
        <time>2023-07-30T05:29:00.000Z</time>
      </trkpt>
      <trkpt lat="43.72599" lon="7.09315">
        <ele>348</ele>
        <time>2023-07-30T05:29:01.000Z</time>
      </trkpt>
      <trkpt lat="43.726" lon="7.09313">
        <ele>348.60000610352</ele>
        <time>2023-07-30T05:29:02.000Z</time>
      </trkpt>
      <trkpt lat="43.72602" lon="7.0931">
        <ele>349</ele>
        <time>2023-07-30T05:29:03.000Z</time>
      </trkpt>
      <trkpt lat="43.72604" lon="7.09307">
        <ele>349.60000610352</ele>
        <time>2023-07-30T05:29:04.000Z</time>
      </trkpt>
      <trkpt lat="43.72606" lon="7.09305">
        <ele>350.20001220703</ele>
        <time>2023-07-30T05:29:05.000Z</time>
      </trkpt>
      <trkpt lat="43.72607" lon="7.09303">
        <ele>350.79998779297</ele>
        <time>2023-07-30T05:29:06.000Z</time>
      </trkpt>
      <trkpt lat="43.72609" lon="7.09301">
        <ele>351.39999389648</ele>
        <time>2023-07-30T05:29:07.000Z</time>
      </trkpt>
      <trkpt lat="43.72612" lon="7.09298">
        <ele>352</ele>
        <time>2023-07-30T05:29:08.000Z</time>
      </trkpt>
      <trkpt lat="43.72614" lon="7.09296">
        <ele>352.60000610352</ele>
        <time>2023-07-30T05:29:09.000Z</time>
      </trkpt>
      <trkpt lat="43.72616" lon="7.09293">
        <ele>353.20001220703</ele>
        <time>2023-07-30T05:29:10.000Z</time>
      </trkpt>
      <trkpt lat="43.72617" lon="7.09291">
        <ele>353.20001220703</ele>
        <time>2023-07-30T05:29:11.000Z</time>
      </trkpt>
      <trkpt lat="43.72619" lon="7.09289">
        <ele>353.79998779297</ele>
        <time>2023-07-30T05:29:12.000Z</time>
      </trkpt>
      <trkpt lat="43.72621" lon="7.09287">
        <ele>354.39999389648</ele>
        <time>2023-07-30T05:29:13.000Z</time>
      </trkpt>
      <trkpt lat="43.72623" lon="7.09285">
        <ele>354.79998779297</ele>
        <time>2023-07-30T05:29:14.000Z</time>
      </trkpt>
      <trkpt lat="43.72625" lon="7.09283">
        <ele>355.39999389648</ele>
        <time>2023-07-30T05:29:15.000Z</time>
      </trkpt>
      <trkpt lat="43.72627" lon="7.0928">
        <ele>356</ele>
        <time>2023-07-30T05:29:16.000Z</time>
      </trkpt>
      <trkpt lat="43.72629" lon="7.09278">
        <ele>356.79998779297</ele>
        <time>2023-07-30T05:29:17.000Z</time>
      </trkpt>
      <trkpt lat="43.72631" lon="7.09277">
        <ele>357.20001220703</ele>
        <time>2023-07-30T05:29:18.000Z</time>
      </trkpt>
      <trkpt lat="43.72633" lon="7.09276">
        <ele>357.79998779297</ele>
        <time>2023-07-30T05:29:19.000Z</time>
      </trkpt>
      <trkpt lat="43.72636" lon="7.09275">
        <ele>358.39999389648</ele>
        <time>2023-07-30T05:29:20.000Z</time>
      </trkpt>
      <trkpt lat="43.72638" lon="7.09275">
        <ele>359</ele>
        <time>2023-07-30T05:29:21.000Z</time>
      </trkpt>
      <trkpt lat="43.72641" lon="7.09276">
        <ele>359.60000610352</ele>
        <time>2023-07-30T05:29:22.000Z</time>
      </trkpt>
      <trkpt lat="43.72643" lon="7.09276">
        <ele>360</ele>
        <time>2023-07-30T05:29:23.000Z</time>
      </trkpt>
      <trkpt lat="43.72645" lon="7.09275">
        <ele>360.39999389648</ele>
        <time>2023-07-30T05:29:24.000Z</time>
      </trkpt>
      <trkpt lat="43.72647" lon="7.09275">
        <ele>361</ele>
        <time>2023-07-30T05:29:25.000Z</time>
      </trkpt>
      <trkpt lat="43.72649" lon="7.09274">
        <ele>361.60000610352</ele>
        <time>2023-07-30T05:29:26.000Z</time>
      </trkpt>
      <trkpt lat="43.72652" lon="7.09274">
        <ele>362.20001220703</ele>
        <time>2023-07-30T05:29:27.000Z</time>
      </trkpt>
      <trkpt lat="43.72654" lon="7.09274">
        <ele>362.60000610352</ele>
        <time>2023-07-30T05:29:28.000Z</time>
      </trkpt>
      <trkpt lat="43.72656" lon="7.09275">
        <ele>363</ele>
        <time>2023-07-30T05:29:29.000Z</time>
      </trkpt>
      <trkpt lat="43.72659" lon="7.09274">
        <ele>363.79998779297</ele>
        <time>2023-07-30T05:29:30.000Z</time>
      </trkpt>
      <trkpt lat="43.72661" lon="7.09274">
        <ele>364.39999389648</ele>
        <time>2023-07-30T05:29:31.000Z</time>
      </trkpt>
      <trkpt lat="43.72663" lon="7.09274">
        <ele>364.79998779297</ele>
        <time>2023-07-30T05:29:32.000Z</time>
      </trkpt>
      <trkpt lat="43.72665" lon="7.09273">
        <ele>364.79998779297</ele>
        <time>2023-07-30T05:29:33.000Z</time>
      </trkpt>
      <trkpt lat="43.72667" lon="7.09273">
        <ele>365.39999389648</ele>
        <time>2023-07-30T05:29:34.000Z</time>
      </trkpt>
      <trkpt lat="43.72669" lon="7.09272">
        <ele>365.79998779297</ele>
        <time>2023-07-30T05:29:35.000Z</time>
      </trkpt>
      <trkpt lat="43.72671" lon="7.09272">
        <ele>366.39999389648</ele>
        <time>2023-07-30T05:29:36.000Z</time>
      </trkpt>
      <trkpt lat="43.72673" lon="7.09272">
        <ele>367</ele>
        <time>2023-07-30T05:29:37.000Z</time>
      </trkpt>
      <trkpt lat="43.72675" lon="7.09273">
        <ele>367.39999389648</ele>
        <time>2023-07-30T05:29:38.000Z</time>
      </trkpt>
      <trkpt lat="43.72677" lon="7.09273">
        <ele>368.20001220703</ele>
        <time>2023-07-30T05:29:39.000Z</time>
      </trkpt>
      <trkpt lat="43.72679" lon="7.09273">
        <ele>369</ele>
        <time>2023-07-30T05:29:40.000Z</time>
      </trkpt>
      <trkpt lat="43.72682" lon="7.09273">
        <ele>369.39999389648</ele>
        <time>2023-07-30T05:29:41.000Z</time>
      </trkpt>
      <trkpt lat="43.72684" lon="7.09275">
        <ele>369.79998779297</ele>
        <time>2023-07-30T05:29:42.000Z</time>
      </trkpt>
      <trkpt lat="43.72686" lon="7.09274">
        <ele>370.39999389648</ele>
        <time>2023-07-30T05:29:43.000Z</time>
      </trkpt>
      <trkpt lat="43.72689" lon="7.09274">
        <ele>371</ele>
        <time>2023-07-30T05:29:44.000Z</time>
      </trkpt>
      <trkpt lat="43.72691" lon="7.09275">
        <ele>371.60000610352</ele>
        <time>2023-07-30T05:29:45.000Z</time>
      </trkpt>
      <trkpt lat="43.72693" lon="7.09275">
        <ele>372.20001220703</ele>
        <time>2023-07-30T05:29:46.000Z</time>
      </trkpt>
      <trkpt lat="43.72695" lon="7.09275">
        <ele>372.79998779297</ele>
        <time>2023-07-30T05:29:47.000Z</time>
      </trkpt>
      <trkpt lat="43.72698" lon="7.09275">
        <ele>373.39999389648</ele>
        <time>2023-07-30T05:29:48.000Z</time>
      </trkpt>
      <trkpt lat="43.727" lon="7.09274">
        <ele>373.79998779297</ele>
        <time>2023-07-30T05:29:49.000Z</time>
      </trkpt>
      <trkpt lat="43.72702" lon="7.09274">
        <ele>374.20001220703</ele>
        <time>2023-07-30T05:29:50.000Z</time>
      </trkpt>
      <trkpt lat="43.72705" lon="7.09273">
        <ele>374.60000610352</ele>
        <time>2023-07-30T05:29:51.000Z</time>
      </trkpt>
      <trkpt lat="43.72707" lon="7.09272">
        <ele>375</ele>
        <time>2023-07-30T05:29:52.000Z</time>
      </trkpt>
      <trkpt lat="43.72709" lon="7.0927">
        <ele>375.39999389648</ele>
        <time>2023-07-30T05:29:53.000Z</time>
      </trkpt>
      <trkpt lat="43.72711" lon="7.09269">
        <ele>375.79998779297</ele>
        <time>2023-07-30T05:29:54.000Z</time>
      </trkpt>
      <trkpt lat="43.72713" lon="7.09267">
        <ele>375.79998779297</ele>
        <time>2023-07-30T05:29:55.000Z</time>
      </trkpt>
      <trkpt lat="43.72714" lon="7.09266">
        <ele>376</ele>
        <time>2023-07-30T05:29:56.000Z</time>
      </trkpt>
      <trkpt lat="43.72716" lon="7.09265">
        <ele>376.39999389648</ele>
        <time>2023-07-30T05:29:57.000Z</time>
      </trkpt>
      <trkpt lat="43.72718" lon="7.09263">
        <ele>376.79998779297</ele>
        <time>2023-07-30T05:29:58.000Z</time>
      </trkpt>
      <trkpt lat="43.7272" lon="7.09262">
        <ele>377.39999389648</ele>
        <time>2023-07-30T05:29:59.000Z</time>
      </trkpt>
      <trkpt lat="43.72722" lon="7.0926">
        <ele>378</ele>
        <time>2023-07-30T05:30:00.000Z</time>
      </trkpt>
      <trkpt lat="43.72724" lon="7.09259">
        <ele>378.39999389648</ele>
        <time>2023-07-30T05:30:01.000Z</time>
      </trkpt>
      <trkpt lat="43.72726" lon="7.09258">
        <ele>378.79998779297</ele>
        <time>2023-07-30T05:30:02.000Z</time>
      </trkpt>
      <trkpt lat="43.72728" lon="7.09257">
        <ele>379.39999389648</ele>
        <time>2023-07-30T05:30:03.000Z</time>
      </trkpt>
      <trkpt lat="43.72729" lon="7.09256">
        <ele>379.79998779297</ele>
        <time>2023-07-30T05:30:04.000Z</time>
      </trkpt>
      <trkpt lat="43.72731" lon="7.09254">
        <ele>380.20001220703</ele>
        <time>2023-07-30T05:30:05.000Z</time>
      </trkpt>
      <trkpt lat="43.72733" lon="7.09254">
        <ele>380.79998779297</ele>
        <time>2023-07-30T05:30:06.000Z</time>
      </trkpt>
      <trkpt lat="43.72736" lon="7.09255">
        <ele>381.39999389648</ele>
        <time>2023-07-30T05:30:07.000Z</time>
      </trkpt>
      <trkpt lat="43.72738" lon="7.09255">
        <ele>381.79998779297</ele>
        <time>2023-07-30T05:30:08.000Z</time>
      </trkpt>
      <trkpt lat="43.7274" lon="7.09256">
        <ele>382.39999389648</ele>
        <time>2023-07-30T05:30:09.000Z</time>
      </trkpt>
      <trkpt lat="43.72742" lon="7.09256">
        <ele>382.79998779297</ele>
        <time>2023-07-30T05:30:10.000Z</time>
      </trkpt>
      <trkpt lat="43.72745" lon="7.09257">
        <ele>383</ele>
        <time>2023-07-30T05:30:11.000Z</time>
      </trkpt>
      <trkpt lat="43.72747" lon="7.09257">
        <ele>383.60000610352</ele>
        <time>2023-07-30T05:30:12.000Z</time>
      </trkpt>
      <trkpt lat="43.72749" lon="7.09258">
        <ele>383.79998779297</ele>
        <time>2023-07-30T05:30:13.000Z</time>
      </trkpt>
      <trkpt lat="43.72751" lon="7.09258">
        <ele>384.39999389648</ele>
        <time>2023-07-30T05:30:14.000Z</time>
      </trkpt>
      <trkpt lat="43.72754" lon="7.09259">
        <ele>384.60000610352</ele>
        <time>2023-07-30T05:30:15.000Z</time>
      </trkpt>
      <trkpt lat="43.72756" lon="7.0926">
        <ele>385.20001220703</ele>
        <time>2023-07-30T05:30:16.000Z</time>
      </trkpt>
      <trkpt lat="43.72758" lon="7.0926">
        <ele>385.20001220703</ele>
        <time>2023-07-30T05:30:17.000Z</time>
      </trkpt>
      <trkpt lat="43.7276" lon="7.09261">
        <ele>385.39999389648</ele>
        <time>2023-07-30T05:30:18.000Z</time>
      </trkpt>
      <trkpt lat="43.72762" lon="7.09261">
        <ele>385.79998779297</ele>
        <time>2023-07-30T05:30:19.000Z</time>
      </trkpt>
      <trkpt lat="43.72764" lon="7.09262">
        <ele>386.20001220703</ele>
        <time>2023-07-30T05:30:20.000Z</time>
      </trkpt>
      <trkpt lat="43.72766" lon="7.09262">
        <ele>386.79998779297</ele>
        <time>2023-07-30T05:30:21.000Z</time>
      </trkpt>
      <trkpt lat="43.72767" lon="7.09261">
        <ele>387.39999389648</ele>
        <time>2023-07-30T05:30:22.000Z</time>
      </trkpt>
      <trkpt lat="43.72768" lon="7.09261">
        <ele>387.79998779297</ele>
        <time>2023-07-30T05:30:23.000Z</time>
      </trkpt>
      <trkpt lat="43.72768" lon="7.0926">
        <ele>388.39999389648</ele>
        <time>2023-07-30T05:30:24.000Z</time>
      </trkpt>
      <trkpt lat="43.72768" lon="7.0926">
        <ele>388.60000610352</ele>
        <time>2023-07-30T05:30:25.000Z</time>
      </trkpt>
      <trkpt lat="43.72768" lon="7.0926">
        <ele>388.79998779297</ele>
        <time>2023-07-30T05:30:26.000Z</time>
      </trkpt>
      <trkpt lat="43.72768" lon="7.0926">
        <ele>389</ele>
        <time>2023-07-30T05:30:27.000Z</time>
      </trkpt>
      <trkpt lat="43.72768" lon="7.0926">
        <ele>389</ele>
        <time>2023-07-30T05:30:28.000Z</time>
      </trkpt>
      <trkpt lat="43.72768" lon="7.0926">
        <ele>389</ele>
        <time>2023-07-30T05:30:29.000Z</time>
      </trkpt>
      <trkpt lat="43.72768" lon="7.0926">
        <ele>389</ele>
        <time>2023-07-30T05:30:30.000Z</time>
      </trkpt>
      <trkpt lat="43.72768" lon="7.0926">
        <ele>389</ele>
        <time>2023-07-30T05:30:31.000Z</time>
      </trkpt>
      <trkpt lat="43.72768" lon="7.0926">
        <ele>389</ele>
        <time>2023-07-30T05:30:32.000Z</time>
      </trkpt>
      <trkpt lat="43.72768" lon="7.0926">
        <ele>389</ele>
        <time>2023-07-30T05:30:33.000Z</time>
      </trkpt>
      <trkpt lat="43.72768" lon="7.0926">
        <ele>389</ele>
        <time>2023-07-30T05:30:34.000Z</time>
      </trkpt>
      <trkpt lat="43.72768" lon="7.0926">
        <ele>389</ele>
        <time>2023-07-30T05:30:35.000Z</time>
      </trkpt>
      <trkpt lat="43.72768" lon="7.0926">
        <ele>389</ele>
        <time>2023-07-30T05:30:36.000Z</time>
      </trkpt>
      <trkpt lat="43.72768" lon="7.0926">
        <ele>389</ele>
        <time>2023-07-30T05:30:37.000Z</time>
      </trkpt>
      <trkpt lat="43.72768" lon="7.0926">
        <ele>389.20001220703</ele>
        <time>2023-07-30T05:30:38.000Z</time>
      </trkpt>
      <trkpt lat="43.72768" lon="7.0926">
        <ele>389.20001220703</ele>
        <time>2023-07-30T05:30:39.000Z</time>
      </trkpt>
      <trkpt lat="43.72768" lon="7.0926">
        <ele>389.20001220703</ele>
        <time>2023-07-30T05:30:40.000Z</time>
      </trkpt>
      <trkpt lat="43.72768" lon="7.0926">
        <ele>389.20001220703</ele>
        <time>2023-07-30T05:30:41.000Z</time>
      </trkpt>
      <trkpt lat="43.72768" lon="7.0926">
        <ele>389.20001220703</ele>
        <time>2023-07-30T05:30:42.000Z</time>
      </trkpt>
      <trkpt lat="43.72768" lon="7.0926">
        <ele>389.20001220703</ele>
        <time>2023-07-30T05:30:43.000Z</time>
      </trkpt>
      <trkpt lat="43.72768" lon="7.0926">
        <ele>389.20001220703</ele>
        <time>2023-07-30T05:30:44.000Z</time>
      </trkpt>
      <trkpt lat="43.72768" lon="7.0926">
        <ele>389.20001220703</ele>
        <time>2023-07-30T05:30:45.000Z</time>
      </trkpt>
      <trkpt lat="43.72768" lon="7.0926">
        <ele>389.20001220703</ele>
        <time>2023-07-30T05:30:46.000Z</time>
      </trkpt>
      <trkpt lat="43.72768" lon="7.0926">
        <ele>389.20001220703</ele>
        <time>2023-07-30T05:30:47.000Z</time>
      </trkpt>
      <trkpt lat="43.72768" lon="7.0926">
        <ele>389</ele>
        <time>2023-07-30T05:30:48.000Z</time>
      </trkpt>
      <trkpt lat="43.72768" lon="7.0926">
        <ele>389</ele>
        <time>2023-07-30T05:30:49.000Z</time>
      </trkpt>
      <trkpt lat="43.72768" lon="7.0926">
        <ele>389</ele>
        <time>2023-07-30T05:30:50.000Z</time>
      </trkpt>
      <trkpt lat="43.72768" lon="7.0926">
        <ele>389</ele>
        <time>2023-07-30T05:30:51.000Z</time>
      </trkpt>
      <trkpt lat="43.72768" lon="7.0926">
        <ele>389</ele>
        <time>2023-07-30T05:30:52.000Z</time>
      </trkpt>
      <trkpt lat="43.72768" lon="7.0926">
        <ele>389</ele>
        <time>2023-07-30T05:30:53.000Z</time>
      </trkpt>
      <trkpt lat="43.72768" lon="7.0926">
        <ele>389</ele>
        <time>2023-07-30T05:30:54.000Z</time>
      </trkpt>
      <trkpt lat="43.72768" lon="7.0926">
        <ele>389</ele>
        <time>2023-07-30T05:30:55.000Z</time>
      </trkpt>
      <trkpt lat="43.72768" lon="7.0926">
        <ele>389</ele>
        <time>2023-07-30T05:30:56.000Z</time>
      </trkpt>
      <trkpt lat="43.72768" lon="7.0926">
        <ele>389</ele>
        <time>2023-07-30T05:30:57.000Z</time>
      </trkpt>
      <trkpt lat="43.72768" lon="7.0926">
        <ele>389</ele>
        <time>2023-07-30T05:30:58.000Z</time>
      </trkpt>
      <trkpt lat="43.72768" lon="7.0926">
        <ele>389</ele>
        <time>2023-07-30T05:30:59.000Z</time>
      </trkpt>
      <trkpt lat="43.72768" lon="7.0926">
        <ele>389</ele>
        <time>2023-07-30T05:31:00.000Z</time>
      </trkpt>
      <trkpt lat="43.72768" lon="7.0926">
        <ele>389</ele>
        <time>2023-07-30T05:31:01.000Z</time>
      </trkpt>
      <trkpt lat="43.72768" lon="7.0926">
        <ele>389</ele>
        <time>2023-07-30T05:31:02.000Z</time>
      </trkpt>
      <trkpt lat="43.72768" lon="7.0926">
        <ele>389</ele>
        <time>2023-07-30T05:31:03.000Z</time>
      </trkpt>
      <trkpt lat="43.72768" lon="7.0926">
        <ele>389</ele>
        <time>2023-07-30T05:31:04.000Z</time>
      </trkpt>
      <trkpt lat="43.72768" lon="7.0926">
        <ele>389</ele>
        <time>2023-07-30T05:31:05.000Z</time>
      </trkpt>
      <trkpt lat="43.72768" lon="7.0926">
        <ele>389</ele>
        <time>2023-07-30T05:31:06.000Z</time>
      </trkpt>
      <trkpt lat="43.72768" lon="7.0926">
        <ele>389</ele>
        <time>2023-07-30T05:31:07.000Z</time>
      </trkpt>
      <trkpt lat="43.72768" lon="7.0926">
        <ele>389</ele>
        <time>2023-07-30T05:31:08.000Z</time>
      </trkpt>
      <trkpt lat="43.72768" lon="7.0926">
        <ele>389</ele>
        <time>2023-07-30T05:31:09.000Z</time>
      </trkpt>
      <trkpt lat="43.72768" lon="7.0926">
        <ele>389</ele>
        <time>2023-07-30T05:31:10.000Z</time>
      </trkpt>
      <trkpt lat="43.72768" lon="7.0926">
        <ele>389</ele>
        <time>2023-07-30T05:31:11.000Z</time>
      </trkpt>
      <trkpt lat="43.72768" lon="7.0926">
        <ele>389</ele>
        <time>2023-07-30T05:31:12.000Z</time>
      </trkpt>
      <trkpt lat="43.72768" lon="7.0926">
        <ele>389</ele>
        <time>2023-07-30T05:31:13.000Z</time>
      </trkpt>
      <trkpt lat="43.72768" lon="7.0926">
        <ele>389</ele>
        <time>2023-07-30T05:31:14.000Z</time>
      </trkpt>
      <trkpt lat="43.72768" lon="7.0926">
        <ele>389</ele>
        <time>2023-07-30T05:31:15.000Z</time>
      </trkpt>
      <trkpt lat="43.72768" lon="7.0926">
        <ele>389</ele>
        <time>2023-07-30T05:31:16.000Z</time>
      </trkpt>
      <trkpt lat="43.72768" lon="7.0926">
        <ele>389</ele>
        <time>2023-07-30T05:31:17.000Z</time>
      </trkpt>
      <trkpt lat="43.72768" lon="7.0926">
        <ele>389</ele>
        <time>2023-07-30T05:31:18.000Z</time>
      </trkpt>
      <trkpt lat="43.72768" lon="7.0926">
        <ele>389</ele>
        <time>2023-07-30T05:31:19.000Z</time>
      </trkpt>
      <trkpt lat="43.72768" lon="7.0926">
        <ele>389</ele>
        <time>2023-07-30T05:31:20.000Z</time>
      </trkpt>
      <trkpt lat="43.72768" lon="7.0926">
        <ele>389</ele>
        <time>2023-07-30T05:31:21.000Z</time>
      </trkpt>
      <trkpt lat="43.72768" lon="7.0926">
        <ele>389</ele>
        <time>2023-07-30T05:31:22.000Z</time>
      </trkpt>
      <trkpt lat="43.72768" lon="7.0926">
        <ele>389</ele>
        <time>2023-07-30T05:31:23.000Z</time>
      </trkpt>
      <trkpt lat="43.72768" lon="7.0926">
        <ele>389</ele>
        <time>2023-07-30T05:31:24.000Z</time>
      </trkpt>
      <trkpt lat="43.72768" lon="7.0926">
        <ele>389</ele>
        <time>2023-07-30T05:31:25.000Z</time>
      </trkpt>
      <trkpt lat="43.72768" lon="7.0926">
        <ele>389</ele>
        <time>2023-07-30T05:31:26.000Z</time>
      </trkpt>
      <trkpt lat="43.72768" lon="7.0926">
        <ele>388.79998779297</ele>
        <time>2023-07-30T05:31:27.000Z</time>
      </trkpt>
      <trkpt lat="43.72768" lon="7.0926">
        <ele>388.79998779297</ele>
        <time>2023-07-30T05:31:28.000Z</time>
      </trkpt>
      <trkpt lat="43.72768" lon="7.0926">
        <ele>388.79998779297</ele>
        <time>2023-07-30T05:31:29.000Z</time>
      </trkpt>
      <trkpt lat="43.72768" lon="7.0926">
        <ele>388.79998779297</ele>
        <time>2023-07-30T05:31:30.000Z</time>
      </trkpt>
      <trkpt lat="43.72768" lon="7.0926">
        <ele>388.79998779297</ele>
        <time>2023-07-30T05:31:31.000Z</time>
      </trkpt>
      <trkpt lat="43.72768" lon="7.0926">
        <ele>388.79998779297</ele>
        <time>2023-07-30T05:31:32.000Z</time>
      </trkpt>
      <trkpt lat="43.72768" lon="7.0926">
        <ele>388.79998779297</ele>
        <time>2023-07-30T05:31:33.000Z</time>
      </trkpt>
      <trkpt lat="43.72768" lon="7.0926">
        <ele>388.79998779297</ele>
        <time>2023-07-30T05:31:34.000Z</time>
      </trkpt>
      <trkpt lat="43.72768" lon="7.0926">
        <ele>388.79998779297</ele>
        <time>2023-07-30T05:31:35.000Z</time>
      </trkpt>
      <trkpt lat="43.72768" lon="7.0926">
        <ele>388.79998779297</ele>
        <time>2023-07-30T05:31:36.000Z</time>
      </trkpt>
      <trkpt lat="43.72768" lon="7.0926">
        <ele>388.79998779297</ele>
        <time>2023-07-30T05:31:37.000Z</time>
      </trkpt>
      <trkpt lat="43.72768" lon="7.0926">
        <ele>388.79998779297</ele>
        <time>2023-07-30T05:31:38.000Z</time>
      </trkpt>
      <trkpt lat="43.72768" lon="7.0926">
        <ele>388.79998779297</ele>
        <time>2023-07-30T05:31:39.000Z</time>
      </trkpt>
      <trkpt lat="43.72768" lon="7.0926">
        <ele>388.79998779297</ele>
        <time>2023-07-30T05:31:40.000Z</time>
      </trkpt>
      <trkpt lat="43.72768" lon="7.0926">
        <ele>388.79998779297</ele>
        <time>2023-07-30T05:31:41.000Z</time>
      </trkpt>
      <trkpt lat="43.72768" lon="7.0926">
        <ele>388.79998779297</ele>
        <time>2023-07-30T05:31:42.000Z</time>
      </trkpt>
      <trkpt lat="43.72768" lon="7.0926">
        <ele>388.79998779297</ele>
        <time>2023-07-30T05:31:43.000Z</time>
      </trkpt>
      <trkpt lat="43.72768" lon="7.0926">
        <ele>388.79998779297</ele>
        <time>2023-07-30T05:31:44.000Z</time>
      </trkpt>
      <trkpt lat="43.72768" lon="7.0926">
        <ele>388.79998779297</ele>
        <time>2023-07-30T05:31:45.000Z</time>
      </trkpt>
      <trkpt lat="43.72768" lon="7.0926">
        <ele>388.79998779297</ele>
        <time>2023-07-30T05:31:46.000Z</time>
      </trkpt>
      <trkpt lat="43.72768" lon="7.0926">
        <ele>388.79998779297</ele>
        <time>2023-07-30T05:31:47.000Z</time>
      </trkpt>
      <trkpt lat="43.72768" lon="7.0926">
        <ele>388.79998779297</ele>
        <time>2023-07-30T05:31:48.000Z</time>
      </trkpt>
      <trkpt lat="43.72768" lon="7.0926">
        <ele>388.79998779297</ele>
        <time>2023-07-30T05:31:49.000Z</time>
      </trkpt>
      <trkpt lat="43.72768" lon="7.0926">
        <ele>388.79998779297</ele>
        <time>2023-07-30T05:31:50.000Z</time>
      </trkpt>
      <trkpt lat="43.72768" lon="7.0926">
        <ele>388.20001220703</ele>
        <time>2023-07-30T05:31:51.000Z</time>
      </trkpt>
      <trkpt lat="43.72768" lon="7.0926">
        <ele>388.20001220703</ele>
        <time>2023-07-30T05:31:52.000Z</time>
      </trkpt>
      <trkpt lat="43.72768" lon="7.0926">
        <ele>388.39999389648</ele>
        <time>2023-07-30T05:31:53.000Z</time>
      </trkpt>
      <trkpt lat="43.72768" lon="7.0926">
        <ele>388.39999389648</ele>
        <time>2023-07-30T05:31:54.000Z</time>
      </trkpt>
      <trkpt lat="43.72768" lon="7.0926">
        <ele>390.39999389648</ele>
        <time>2023-07-30T05:31:55.000Z</time>
      </trkpt>
      <trkpt lat="43.72768" lon="7.0926">
        <ele>390</ele>
        <time>2023-07-30T05:31:56.000Z</time>
      </trkpt>
      <trkpt lat="43.72768" lon="7.0926">
        <ele>390</ele>
        <time>2023-07-30T05:31:57.000Z</time>
      </trkpt>
      <trkpt lat="43.72768" lon="7.0926">
        <ele>390</ele>
        <time>2023-07-30T05:31:58.000Z</time>
      </trkpt>
      <trkpt lat="43.72768" lon="7.0926">
        <ele>388.79998779297</ele>
        <time>2023-07-30T05:31:59.000Z</time>
      </trkpt>
      <trkpt lat="43.72768" lon="7.0926">
        <ele>388.79998779297</ele>
        <time>2023-07-30T05:32:00.000Z</time>
      </trkpt>
      <trkpt lat="43.72768" lon="7.0926">
        <ele>388.79998779297</ele>
        <time>2023-07-30T05:32:01.000Z</time>
      </trkpt>
      <trkpt lat="43.72768" lon="7.0926">
        <ele>388.79998779297</ele>
        <time>2023-07-30T05:32:02.000Z</time>
      </trkpt>
      <trkpt lat="43.72768" lon="7.0926">
        <ele>388.79998779297</ele>
        <time>2023-07-30T05:32:03.000Z</time>
      </trkpt>
      <trkpt lat="43.72768" lon="7.0926">
        <ele>389.20001220703</ele>
        <time>2023-07-30T05:32:04.000Z</time>
      </trkpt>
      <trkpt lat="43.72768" lon="7.09259">
        <ele>389.20001220703</ele>
        <time>2023-07-30T05:32:05.000Z</time>
      </trkpt>
      <trkpt lat="43.72768" lon="7.09259">
        <ele>389.20001220703</ele>
        <time>2023-07-30T05:32:06.000Z</time>
      </trkpt>
      <trkpt lat="43.72769" lon="7.09259">
        <ele>389.20001220703</ele>
        <time>2023-07-30T05:32:07.000Z</time>
      </trkpt>
      <trkpt lat="43.72771" lon="7.09261">
        <ele>389.20001220703</ele>
        <time>2023-07-30T05:32:08.000Z</time>
      </trkpt>
      <trkpt lat="43.72773" lon="7.09263">
        <ele>389.20001220703</ele>
        <time>2023-07-30T05:32:09.000Z</time>
      </trkpt>
      <trkpt lat="43.72774" lon="7.09263">
        <ele>389.20001220703</ele>
        <time>2023-07-30T05:32:10.000Z</time>
      </trkpt>
      <trkpt lat="43.72776" lon="7.09263">
        <ele>389.20001220703</ele>
        <time>2023-07-30T05:32:11.000Z</time>
      </trkpt>
      <trkpt lat="43.72778" lon="7.09263">
        <ele>389.20001220703</ele>
        <time>2023-07-30T05:32:12.000Z</time>
      </trkpt>
      <trkpt lat="43.7278" lon="7.09263">
        <ele>389.39999389648</ele>
        <time>2023-07-30T05:32:13.000Z</time>
      </trkpt>
      <trkpt lat="43.72782" lon="7.09263">
        <ele>389.79998779297</ele>
        <time>2023-07-30T05:32:14.000Z</time>
      </trkpt>
      <trkpt lat="43.72784" lon="7.09264">
        <ele>390.20001220703</ele>
        <time>2023-07-30T05:32:15.000Z</time>
      </trkpt>
      <trkpt lat="43.72786" lon="7.09265">
        <ele>390.60000610352</ele>
        <time>2023-07-30T05:32:16.000Z</time>
      </trkpt>
      <trkpt lat="43.72788" lon="7.09265">
        <ele>391</ele>
        <time>2023-07-30T05:32:17.000Z</time>
      </trkpt>
      <trkpt lat="43.7279" lon="7.09266">
        <ele>391.39999389648</ele>
        <time>2023-07-30T05:32:18.000Z</time>
      </trkpt>
      <trkpt lat="43.72793" lon="7.09266">
        <ele>391.79998779297</ele>
        <time>2023-07-30T05:32:19.000Z</time>
      </trkpt>
      <trkpt lat="43.72795" lon="7.09267">
        <ele>392.20001220703</ele>
        <time>2023-07-30T05:32:20.000Z</time>
      </trkpt>
      <trkpt lat="43.72797" lon="7.09267">
        <ele>392.39999389648</ele>
        <time>2023-07-30T05:32:21.000Z</time>
      </trkpt>
      <trkpt lat="43.72798" lon="7.09267">
        <ele>393</ele>
        <time>2023-07-30T05:32:22.000Z</time>
      </trkpt>
      <trkpt lat="43.728" lon="7.09267">
        <ele>393.39999389648</ele>
        <time>2023-07-30T05:32:23.000Z</time>
      </trkpt>
      <trkpt lat="43.72802" lon="7.09267">
        <ele>393.60000610352</ele>
        <time>2023-07-30T05:32:24.000Z</time>
      </trkpt>
      <trkpt lat="43.72804" lon="7.09268">
        <ele>394</ele>
        <time>2023-07-30T05:32:25.000Z</time>
      </trkpt>
      <trkpt lat="43.72806" lon="7.09268">
        <ele>394.60000610352</ele>
        <time>2023-07-30T05:32:26.000Z</time>
      </trkpt>
      <trkpt lat="43.72808" lon="7.09268">
        <ele>395</ele>
        <time>2023-07-30T05:32:27.000Z</time>
      </trkpt>
      <trkpt lat="43.7281" lon="7.09268">
        <ele>395.20001220703</ele>
        <time>2023-07-30T05:32:28.000Z</time>
      </trkpt>
      <trkpt lat="43.72811" lon="7.09269">
        <ele>395.60000610352</ele>
        <time>2023-07-30T05:32:29.000Z</time>
      </trkpt>
      <trkpt lat="43.72813" lon="7.09269">
        <ele>395.60000610352</ele>
        <time>2023-07-30T05:32:30.000Z</time>
      </trkpt>
      <trkpt lat="43.72815" lon="7.0927">
        <ele>396</ele>
        <time>2023-07-30T05:32:31.000Z</time>
      </trkpt>
      <trkpt lat="43.72817" lon="7.0927">
        <ele>396.39999389648</ele>
        <time>2023-07-30T05:32:32.000Z</time>
      </trkpt>
      <trkpt lat="43.72818" lon="7.09271">
        <ele>396.60000610352</ele>
        <time>2023-07-30T05:32:33.000Z</time>
      </trkpt>
      <trkpt lat="43.7282" lon="7.09271">
        <ele>396.79998779297</ele>
        <time>2023-07-30T05:32:34.000Z</time>
      </trkpt>
      <trkpt lat="43.72822" lon="7.09272">
        <ele>397.20001220703</ele>
        <time>2023-07-30T05:32:35.000Z</time>
      </trkpt>
      <trkpt lat="43.72824" lon="7.09272">
        <ele>397.60000610352</ele>
        <time>2023-07-30T05:32:36.000Z</time>
      </trkpt>
      <trkpt lat="43.72826" lon="7.09273">
        <ele>398.20001220703</ele>
        <time>2023-07-30T05:32:37.000Z</time>
      </trkpt>
      <trkpt lat="43.72827" lon="7.09272">
        <ele>398.60000610352</ele>
        <time>2023-07-30T05:32:38.000Z</time>
      </trkpt>
      <trkpt lat="43.72829" lon="7.09272">
        <ele>398.79998779297</ele>
        <time>2023-07-30T05:32:39.000Z</time>
      </trkpt>
      <trkpt lat="43.72831" lon="7.09271">
        <ele>399.20001220703</ele>
        <time>2023-07-30T05:32:40.000Z</time>
      </trkpt>
      <trkpt lat="43.72833" lon="7.09271">
        <ele>399.60000610352</ele>
        <time>2023-07-30T05:32:41.000Z</time>
      </trkpt>
      <trkpt lat="43.72835" lon="7.0927">
        <ele>400</ele>
        <time>2023-07-30T05:32:42.000Z</time>
      </trkpt>
      <trkpt lat="43.72836" lon="7.0927">
        <ele>400.39999389648</ele>
        <time>2023-07-30T05:32:43.000Z</time>
      </trkpt>
      <trkpt lat="43.72838" lon="7.09269">
        <ele>400.79998779297</ele>
        <time>2023-07-30T05:32:44.000Z</time>
      </trkpt>
      <trkpt lat="43.7284" lon="7.09268">
        <ele>401.20001220703</ele>
        <time>2023-07-30T05:32:45.000Z</time>
      </trkpt>
      <trkpt lat="43.72842" lon="7.09268">
        <ele>401.39999389648</ele>
        <time>2023-07-30T05:32:46.000Z</time>
      </trkpt>
      <trkpt lat="43.72843" lon="7.09267">
        <ele>402</ele>
        <time>2023-07-30T05:32:47.000Z</time>
      </trkpt>
      <trkpt lat="43.72846" lon="7.09266">
        <ele>402.39999389648</ele>
        <time>2023-07-30T05:32:48.000Z</time>
      </trkpt>
      <trkpt lat="43.72848" lon="7.09267">
        <ele>402.60000610352</ele>
        <time>2023-07-30T05:32:49.000Z</time>
      </trkpt>
      <trkpt lat="43.72849" lon="7.09267">
        <ele>402.79998779297</ele>
        <time>2023-07-30T05:32:50.000Z</time>
      </trkpt>
      <trkpt lat="43.72851" lon="7.09267">
        <ele>403</ele>
        <time>2023-07-30T05:32:51.000Z</time>
      </trkpt>
      <trkpt lat="43.72853" lon="7.09267">
        <ele>403</ele>
        <time>2023-07-30T05:32:52.000Z</time>
      </trkpt>
      <trkpt lat="43.72855" lon="7.09267">
        <ele>403.20001220703</ele>
        <time>2023-07-30T05:32:53.000Z</time>
      </trkpt>
      <trkpt lat="43.72856" lon="7.09267">
        <ele>403.60000610352</ele>
        <time>2023-07-30T05:32:54.000Z</time>
      </trkpt>
      <trkpt lat="43.72858" lon="7.09267">
        <ele>404</ele>
        <time>2023-07-30T05:32:55.000Z</time>
      </trkpt>
      <trkpt lat="43.7286" lon="7.09268">
        <ele>404.20001220703</ele>
        <time>2023-07-30T05:32:56.000Z</time>
      </trkpt>
      <trkpt lat="43.72861" lon="7.09268">
        <ele>404.79998779297</ele>
        <time>2023-07-30T05:32:57.000Z</time>
      </trkpt>
      <trkpt lat="43.72863" lon="7.09267">
        <ele>405</ele>
        <time>2023-07-30T05:32:58.000Z</time>
      </trkpt>
      <trkpt lat="43.72865" lon="7.09267">
        <ele>405.20001220703</ele>
        <time>2023-07-30T05:32:59.000Z</time>
      </trkpt>
      <trkpt lat="43.72867" lon="7.09266">
        <ele>405.39999389648</ele>
        <time>2023-07-30T05:33:00.000Z</time>
      </trkpt>
      <trkpt lat="43.72868" lon="7.09265">
        <ele>405.79998779297</ele>
        <time>2023-07-30T05:33:01.000Z</time>
      </trkpt>
      <trkpt lat="43.7287" lon="7.09264">
        <ele>406</ele>
        <time>2023-07-30T05:33:02.000Z</time>
      </trkpt>
      <trkpt lat="43.72872" lon="7.09263">
        <ele>406.39999389648</ele>
        <time>2023-07-30T05:33:03.000Z</time>
      </trkpt>
      <trkpt lat="43.72873" lon="7.09262">
        <ele>406.79998779297</ele>
        <time>2023-07-30T05:33:04.000Z</time>
      </trkpt>
      <trkpt lat="43.72875" lon="7.09261">
        <ele>407.39999389648</ele>
        <time>2023-07-30T05:33:05.000Z</time>
      </trkpt>
      <trkpt lat="43.72876" lon="7.0926">
        <ele>408</ele>
        <time>2023-07-30T05:33:06.000Z</time>
      </trkpt>
      <trkpt lat="43.72878" lon="7.0926">
        <ele>408.60000610352</ele>
        <time>2023-07-30T05:33:07.000Z</time>
      </trkpt>
      <trkpt lat="43.72879" lon="7.09259">
        <ele>409.20001220703</ele>
        <time>2023-07-30T05:33:08.000Z</time>
      </trkpt>
      <trkpt lat="43.72881" lon="7.09259">
        <ele>409.39999389648</ele>
        <time>2023-07-30T05:33:09.000Z</time>
      </trkpt>
      <trkpt lat="43.72883" lon="7.09259">
        <ele>409.60000610352</ele>
        <time>2023-07-30T05:33:10.000Z</time>
      </trkpt>
      <trkpt lat="43.72884" lon="7.09259">
        <ele>409.79998779297</ele>
        <time>2023-07-30T05:33:11.000Z</time>
      </trkpt>
      <trkpt lat="43.72886" lon="7.0926">
        <ele>410</ele>
        <time>2023-07-30T05:33:12.000Z</time>
      </trkpt>
      <trkpt lat="43.72888" lon="7.0926">
        <ele>410</ele>
        <time>2023-07-30T05:33:13.000Z</time>
      </trkpt>
      <trkpt lat="43.7289" lon="7.0926">
        <ele>410</ele>
        <time>2023-07-30T05:33:14.000Z</time>
      </trkpt>
      <trkpt lat="43.72892" lon="7.09261">
        <ele>410</ele>
        <time>2023-07-30T05:33:15.000Z</time>
      </trkpt>
      <trkpt lat="43.72894" lon="7.09261">
        <ele>410</ele>
        <time>2023-07-30T05:33:16.000Z</time>
      </trkpt>
      <trkpt lat="43.72896" lon="7.09262">
        <ele>410</ele>
        <time>2023-07-30T05:33:17.000Z</time>
      </trkpt>
      <trkpt lat="43.72898" lon="7.09263">
        <ele>410</ele>
        <time>2023-07-30T05:33:18.000Z</time>
      </trkpt>
      <trkpt lat="43.729" lon="7.09264">
        <ele>410</ele>
        <time>2023-07-30T05:33:19.000Z</time>
      </trkpt>
      <trkpt lat="43.72902" lon="7.09265">
        <ele>410</ele>
        <time>2023-07-30T05:33:20.000Z</time>
      </trkpt>
      <trkpt lat="43.72904" lon="7.09266">
        <ele>410</ele>
        <time>2023-07-30T05:33:21.000Z</time>
      </trkpt>
      <trkpt lat="43.72906" lon="7.09266">
        <ele>410</ele>
        <time>2023-07-30T05:33:22.000Z</time>
      </trkpt>
      <trkpt lat="43.72908" lon="7.09267">
        <ele>410</ele>
        <time>2023-07-30T05:33:23.000Z</time>
      </trkpt>
      <trkpt lat="43.72911" lon="7.09267">
        <ele>410</ele>
        <time>2023-07-30T05:33:24.000Z</time>
      </trkpt>
      <trkpt lat="43.72912" lon="7.09268">
        <ele>410</ele>
        <time>2023-07-30T05:33:25.000Z</time>
      </trkpt>
      <trkpt lat="43.72915" lon="7.0927">
        <ele>410</ele>
        <time>2023-07-30T05:33:26.000Z</time>
      </trkpt>
      <trkpt lat="43.72917" lon="7.09272">
        <ele>410</ele>
        <time>2023-07-30T05:33:27.000Z</time>
      </trkpt>
      <trkpt lat="43.72919" lon="7.09273">
        <ele>410</ele>
        <time>2023-07-30T05:33:28.000Z</time>
      </trkpt>
      <trkpt lat="43.72921" lon="7.09275">
        <ele>409.79998779297</ele>
        <time>2023-07-30T05:33:29.000Z</time>
      </trkpt>
      <trkpt lat="43.72923" lon="7.09277">
        <ele>409.79998779297</ele>
        <time>2023-07-30T05:33:30.000Z</time>
      </trkpt>
      <trkpt lat="43.72925" lon="7.09278">
        <ele>409.79998779297</ele>
        <time>2023-07-30T05:33:31.000Z</time>
      </trkpt>
      <trkpt lat="43.72927" lon="7.09281">
        <ele>409.79998779297</ele>
        <time>2023-07-30T05:33:32.000Z</time>
      </trkpt>
      <trkpt lat="43.72929" lon="7.09283">
        <ele>409.79998779297</ele>
        <time>2023-07-30T05:33:33.000Z</time>
      </trkpt>
      <trkpt lat="43.72931" lon="7.09286">
        <ele>409.79998779297</ele>
        <time>2023-07-30T05:33:34.000Z</time>
      </trkpt>
      <trkpt lat="43.72934" lon="7.09288">
        <ele>409.79998779297</ele>
        <time>2023-07-30T05:33:35.000Z</time>
      </trkpt>
      <trkpt lat="43.72936" lon="7.09291">
        <ele>409.79998779297</ele>
        <time>2023-07-30T05:33:36.000Z</time>
      </trkpt>
      <trkpt lat="43.72938" lon="7.09294">
        <ele>410</ele>
        <time>2023-07-30T05:33:37.000Z</time>
      </trkpt>
      <trkpt lat="43.72941" lon="7.09297">
        <ele>410</ele>
        <time>2023-07-30T05:33:38.000Z</time>
      </trkpt>
      <trkpt lat="43.72943" lon="7.093">
        <ele>410</ele>
        <time>2023-07-30T05:33:39.000Z</time>
      </trkpt>
      <trkpt lat="43.72945" lon="7.09303">
        <ele>410</ele>
        <time>2023-07-30T05:33:40.000Z</time>
      </trkpt>
      <trkpt lat="43.72947" lon="7.09306">
        <ele>410.20001220703</ele>
        <time>2023-07-30T05:33:41.000Z</time>
      </trkpt>
      <trkpt lat="43.72949" lon="7.09309">
        <ele>410.20001220703</ele>
        <time>2023-07-30T05:33:42.000Z</time>
      </trkpt>
      <trkpt lat="43.72952" lon="7.09311">
        <ele>410.20001220703</ele>
        <time>2023-07-30T05:33:43.000Z</time>
      </trkpt>
      <trkpt lat="43.72954" lon="7.09314">
        <ele>410.20001220703</ele>
        <time>2023-07-30T05:33:44.000Z</time>
      </trkpt>
      <trkpt lat="43.72956" lon="7.09316">
        <ele>410.39999389648</ele>
        <time>2023-07-30T05:33:45.000Z</time>
      </trkpt>
      <trkpt lat="43.72958" lon="7.09318">
        <ele>410.39999389648</ele>
        <time>2023-07-30T05:33:46.000Z</time>
      </trkpt>
      <trkpt lat="43.7296" lon="7.09321">
        <ele>410.39999389648</ele>
        <time>2023-07-30T05:33:47.000Z</time>
      </trkpt>
      <trkpt lat="43.72961" lon="7.09324">
        <ele>410.60000610352</ele>
        <time>2023-07-30T05:33:48.000Z</time>
      </trkpt>
      <trkpt lat="43.72963" lon="7.09327">
        <ele>410.60000610352</ele>
        <time>2023-07-30T05:33:49.000Z</time>
      </trkpt>
      <trkpt lat="43.72965" lon="7.0933">
        <ele>410.79998779297</ele>
        <time>2023-07-30T05:33:50.000Z</time>
      </trkpt>
      <trkpt lat="43.72967" lon="7.09332">
        <ele>410.79998779297</ele>
        <time>2023-07-30T05:33:51.000Z</time>
      </trkpt>
      <trkpt lat="43.72969" lon="7.09336">
        <ele>410.79998779297</ele>
        <time>2023-07-30T05:33:52.000Z</time>
      </trkpt>
      <trkpt lat="43.7297" lon="7.09339">
        <ele>410.79998779297</ele>
        <time>2023-07-30T05:33:53.000Z</time>
      </trkpt>
      <trkpt lat="43.72973" lon="7.09342">
        <ele>410.79998779297</ele>
        <time>2023-07-30T05:33:54.000Z</time>
      </trkpt>
      <trkpt lat="43.72975" lon="7.09345">
        <ele>410.79998779297</ele>
        <time>2023-07-30T05:33:55.000Z</time>
      </trkpt>
      <trkpt lat="43.72976" lon="7.09349">
        <ele>410.79998779297</ele>
        <time>2023-07-30T05:33:56.000Z</time>
      </trkpt>
      <trkpt lat="43.72977" lon="7.09353">
        <ele>411</ele>
        <time>2023-07-30T05:33:57.000Z</time>
      </trkpt>
      <trkpt lat="43.72978" lon="7.09357">
        <ele>411</ele>
        <time>2023-07-30T05:33:58.000Z</time>
      </trkpt>
      <trkpt lat="43.7298" lon="7.0936">
        <ele>411</ele>
        <time>2023-07-30T05:33:59.000Z</time>
      </trkpt>
      <trkpt lat="43.72981" lon="7.09365">
        <ele>411</ele>
        <time>2023-07-30T05:34:00.000Z</time>
      </trkpt>
      <trkpt lat="43.72982" lon="7.09369">
        <ele>411</ele>
        <time>2023-07-30T05:34:01.000Z</time>
      </trkpt>
      <trkpt lat="43.72982" lon="7.09374">
        <ele>410.79998779297</ele>
        <time>2023-07-30T05:34:02.000Z</time>
      </trkpt>
      <trkpt lat="43.72982" lon="7.09379">
        <ele>410.79998779297</ele>
        <time>2023-07-30T05:34:03.000Z</time>
      </trkpt>
      <trkpt lat="43.72983" lon="7.09384">
        <ele>410.79998779297</ele>
        <time>2023-07-30T05:34:04.000Z</time>
      </trkpt>
      <trkpt lat="43.72983" lon="7.09388">
        <ele>410.79998779297</ele>
        <time>2023-07-30T05:34:05.000Z</time>
      </trkpt>
      <trkpt lat="43.72983" lon="7.09392">
        <ele>410.79998779297</ele>
        <time>2023-07-30T05:34:06.000Z</time>
      </trkpt>
      <trkpt lat="43.72983" lon="7.09397">
        <ele>410.79998779297</ele>
        <time>2023-07-30T05:34:07.000Z</time>
      </trkpt>
      <trkpt lat="43.72982" lon="7.09402">
        <ele>410.79998779297</ele>
        <time>2023-07-30T05:34:08.000Z</time>
      </trkpt>
      <trkpt lat="43.72982" lon="7.09406">
        <ele>410.79998779297</ele>
        <time>2023-07-30T05:34:09.000Z</time>
      </trkpt>
      <trkpt lat="43.72982" lon="7.09411">
        <ele>410.79998779297</ele>
        <time>2023-07-30T05:34:10.000Z</time>
      </trkpt>
      <trkpt lat="43.72981" lon="7.09416">
        <ele>410.79998779297</ele>
        <time>2023-07-30T05:34:11.000Z</time>
      </trkpt>
      <trkpt lat="43.72981" lon="7.0942">
        <ele>410.79998779297</ele>
        <time>2023-07-30T05:34:12.000Z</time>
      </trkpt>
      <trkpt lat="43.7298" lon="7.09424">
        <ele>410.79998779297</ele>
        <time>2023-07-30T05:34:13.000Z</time>
      </trkpt>
      <trkpt lat="43.72979" lon="7.09429">
        <ele>410.79998779297</ele>
        <time>2023-07-30T05:34:14.000Z</time>
      </trkpt>
      <trkpt lat="43.72979" lon="7.09433">
        <ele>410.79998779297</ele>
        <time>2023-07-30T05:34:15.000Z</time>
      </trkpt>
      <trkpt lat="43.72977" lon="7.09437">
        <ele>410.79998779297</ele>
        <time>2023-07-30T05:34:16.000Z</time>
      </trkpt>
      <trkpt lat="43.72976" lon="7.09441">
        <ele>410.79998779297</ele>
        <time>2023-07-30T05:34:17.000Z</time>
      </trkpt>
      <trkpt lat="43.72975" lon="7.09446">
        <ele>410.79998779297</ele>
        <time>2023-07-30T05:34:18.000Z</time>
      </trkpt>
      <trkpt lat="43.72973" lon="7.09449">
        <ele>410.79998779297</ele>
        <time>2023-07-30T05:34:19.000Z</time>
      </trkpt>
      <trkpt lat="43.72971" lon="7.09453">
        <ele>410.79998779297</ele>
        <time>2023-07-30T05:34:20.000Z</time>
      </trkpt>
      <trkpt lat="43.72968" lon="7.09457">
        <ele>410.79998779297</ele>
        <time>2023-07-30T05:34:21.000Z</time>
      </trkpt>
      <trkpt lat="43.72966" lon="7.09461">
        <ele>410.79998779297</ele>
        <time>2023-07-30T05:34:22.000Z</time>
      </trkpt>
      <trkpt lat="43.72963" lon="7.09465">
        <ele>410.79998779297</ele>
        <time>2023-07-30T05:34:23.000Z</time>
      </trkpt>
      <trkpt lat="43.72961" lon="7.0947">
        <ele>410.79998779297</ele>
        <time>2023-07-30T05:34:24.000Z</time>
      </trkpt>
      <trkpt lat="43.72959" lon="7.09474">
        <ele>410.60000610352</ele>
        <time>2023-07-30T05:34:25.000Z</time>
      </trkpt>
      <trkpt lat="43.72958" lon="7.09479">
        <ele>410.60000610352</ele>
        <time>2023-07-30T05:34:26.000Z</time>
      </trkpt>
      <trkpt lat="43.72956" lon="7.09485">
        <ele>410.39999389648</ele>
        <time>2023-07-30T05:34:27.000Z</time>
      </trkpt>
      <trkpt lat="43.72956" lon="7.09489">
        <ele>410.39999389648</ele>
        <time>2023-07-30T05:34:28.000Z</time>
      </trkpt>
      <trkpt lat="43.72955" lon="7.09494">
        <ele>410.39999389648</ele>
        <time>2023-07-30T05:34:29.000Z</time>
      </trkpt>
      <trkpt lat="43.72955" lon="7.09498">
        <ele>410.39999389648</ele>
        <time>2023-07-30T05:34:30.000Z</time>
      </trkpt>
      <trkpt lat="43.72954" lon="7.09502">
        <ele>410.20001220703</ele>
        <time>2023-07-30T05:34:31.000Z</time>
      </trkpt>
      <trkpt lat="43.72954" lon="7.09507">
        <ele>410.20001220703</ele>
        <time>2023-07-30T05:34:32.000Z</time>
      </trkpt>
      <trkpt lat="43.72955" lon="7.09512">
        <ele>410.39999389648</ele>
        <time>2023-07-30T05:34:33.000Z</time>
      </trkpt>
      <trkpt lat="43.72955" lon="7.09516">
        <ele>410.39999389648</ele>
        <time>2023-07-30T05:34:34.000Z</time>
      </trkpt>
      <trkpt lat="43.72956" lon="7.0952">
        <ele>410.39999389648</ele>
        <time>2023-07-30T05:34:35.000Z</time>
      </trkpt>
      <trkpt lat="43.72957" lon="7.09524">
        <ele>410.39999389648</ele>
        <time>2023-07-30T05:34:36.000Z</time>
      </trkpt>
      <trkpt lat="43.72958" lon="7.09528">
        <ele>410.39999389648</ele>
        <time>2023-07-30T05:34:37.000Z</time>
      </trkpt>
      <trkpt lat="43.72959" lon="7.09532">
        <ele>410.60000610352</ele>
        <time>2023-07-30T05:34:38.000Z</time>
      </trkpt>
      <trkpt lat="43.7296" lon="7.09536">
        <ele>410.60000610352</ele>
        <time>2023-07-30T05:34:39.000Z</time>
      </trkpt>
      <trkpt lat="43.7296" lon="7.09541">
        <ele>410.60000610352</ele>
        <time>2023-07-30T05:34:40.000Z</time>
      </trkpt>
      <trkpt lat="43.7296" lon="7.09545">
        <ele>410.60000610352</ele>
        <time>2023-07-30T05:34:41.000Z</time>
      </trkpt>
      <trkpt lat="43.7296" lon="7.0955">
        <ele>410.79998779297</ele>
        <time>2023-07-30T05:34:42.000Z</time>
      </trkpt>
      <trkpt lat="43.7296" lon="7.09554">
        <ele>410.79998779297</ele>
        <time>2023-07-30T05:34:43.000Z</time>
      </trkpt>
      <trkpt lat="43.7296" lon="7.09558">
        <ele>410.79998779297</ele>
        <time>2023-07-30T05:34:44.000Z</time>
      </trkpt>
      <trkpt lat="43.72959" lon="7.09562">
        <ele>410.79998779297</ele>
        <time>2023-07-30T05:34:45.000Z</time>
      </trkpt>
      <trkpt lat="43.72959" lon="7.09566">
        <ele>410.79998779297</ele>
        <time>2023-07-30T05:34:46.000Z</time>
      </trkpt>
      <trkpt lat="43.72959" lon="7.09571">
        <ele>410.79998779297</ele>
        <time>2023-07-30T05:34:47.000Z</time>
      </trkpt>
      <trkpt lat="43.72959" lon="7.09576">
        <ele>410.79998779297</ele>
        <time>2023-07-30T05:34:48.000Z</time>
      </trkpt>
      <trkpt lat="43.7296" lon="7.09581">
        <ele>410.60000610352</ele>
        <time>2023-07-30T05:34:49.000Z</time>
      </trkpt>
      <trkpt lat="43.7296" lon="7.09586">
        <ele>410.60000610352</ele>
        <time>2023-07-30T05:34:50.000Z</time>
      </trkpt>
      <trkpt lat="43.72959" lon="7.09591">
        <ele>410.60000610352</ele>
        <time>2023-07-30T05:34:51.000Z</time>
      </trkpt>
      <trkpt lat="43.72959" lon="7.09596">
        <ele>410.60000610352</ele>
        <time>2023-07-30T05:34:52.000Z</time>
      </trkpt>
      <trkpt lat="43.72959" lon="7.09601">
        <ele>410.60000610352</ele>
        <time>2023-07-30T05:34:53.000Z</time>
      </trkpt>
      <trkpt lat="43.72959" lon="7.09607">
        <ele>410.60000610352</ele>
        <time>2023-07-30T05:34:54.000Z</time>
      </trkpt>
      <trkpt lat="43.72959" lon="7.09612">
        <ele>410.20001220703</ele>
        <time>2023-07-30T05:34:55.000Z</time>
      </trkpt>
      <trkpt lat="43.72959" lon="7.09618">
        <ele>410.20001220703</ele>
        <time>2023-07-30T05:34:56.000Z</time>
      </trkpt>
      <trkpt lat="43.72959" lon="7.09624">
        <ele>410.20001220703</ele>
        <time>2023-07-30T05:34:57.000Z</time>
      </trkpt>
      <trkpt lat="43.72959" lon="7.0963">
        <ele>409.79998779297</ele>
        <time>2023-07-30T05:34:58.000Z</time>
      </trkpt>
      <trkpt lat="43.72959" lon="7.09636">
        <ele>409.79998779297</ele>
        <time>2023-07-30T05:34:59.000Z</time>
      </trkpt>
      <trkpt lat="43.72958" lon="7.09642">
        <ele>409.79998779297</ele>
        <time>2023-07-30T05:35:00.000Z</time>
      </trkpt>
      <trkpt lat="43.72958" lon="7.09647">
        <ele>409.79998779297</ele>
        <time>2023-07-30T05:35:01.000Z</time>
      </trkpt>
      <trkpt lat="43.72957" lon="7.09652">
        <ele>409.79998779297</ele>
        <time>2023-07-30T05:35:02.000Z</time>
      </trkpt>
      <trkpt lat="43.72956" lon="7.09657">
        <ele>409.79998779297</ele>
        <time>2023-07-30T05:35:03.000Z</time>
      </trkpt>
      <trkpt lat="43.72955" lon="7.09662">
        <ele>409.79998779297</ele>
        <time>2023-07-30T05:35:04.000Z</time>
      </trkpt>
      <trkpt lat="43.72954" lon="7.09667">
        <ele>409.79998779297</ele>
        <time>2023-07-30T05:35:05.000Z</time>
      </trkpt>
      <trkpt lat="43.72954" lon="7.09672">
        <ele>409.79998779297</ele>
        <time>2023-07-30T05:35:06.000Z</time>
      </trkpt>
      <trkpt lat="43.72953" lon="7.09677">
        <ele>409.79998779297</ele>
        <time>2023-07-30T05:35:07.000Z</time>
      </trkpt>
      <trkpt lat="43.72952" lon="7.09681">
        <ele>410</ele>
        <time>2023-07-30T05:35:08.000Z</time>
      </trkpt>
      <trkpt lat="43.72951" lon="7.09686">
        <ele>410</ele>
        <time>2023-07-30T05:35:09.000Z</time>
      </trkpt>
      <trkpt lat="43.72949" lon="7.0969">
        <ele>410.20001220703</ele>
        <time>2023-07-30T05:35:10.000Z</time>
      </trkpt>
      <trkpt lat="43.72948" lon="7.09694">
        <ele>410.20001220703</ele>
        <time>2023-07-30T05:35:11.000Z</time>
      </trkpt>
      <trkpt lat="43.72947" lon="7.09698">
        <ele>410.20001220703</ele>
        <time>2023-07-30T05:35:12.000Z</time>
      </trkpt>
      <trkpt lat="43.72946" lon="7.09703">
        <ele>410.39999389648</ele>
        <time>2023-07-30T05:35:13.000Z</time>
      </trkpt>
      <trkpt lat="43.72944" lon="7.09707">
        <ele>410.39999389648</ele>
        <time>2023-07-30T05:35:14.000Z</time>
      </trkpt>
      <trkpt lat="43.72943" lon="7.09711">
        <ele>410.60000610352</ele>
        <time>2023-07-30T05:35:15.000Z</time>
      </trkpt>
      <trkpt lat="43.72941" lon="7.09714">
        <ele>410.60000610352</ele>
        <time>2023-07-30T05:35:16.000Z</time>
      </trkpt>
      <trkpt lat="43.72939" lon="7.09718">
        <ele>410.60000610352</ele>
        <time>2023-07-30T05:35:17.000Z</time>
      </trkpt>
      <trkpt lat="43.72938" lon="7.09722">
        <ele>410.60000610352</ele>
        <time>2023-07-30T05:35:18.000Z</time>
      </trkpt>
      <trkpt lat="43.72936" lon="7.09726">
        <ele>410.79998779297</ele>
        <time>2023-07-30T05:35:19.000Z</time>
      </trkpt>
      <trkpt lat="43.72934" lon="7.0973">
        <ele>411</ele>
        <time>2023-07-30T05:35:20.000Z</time>
      </trkpt>
      <trkpt lat="43.72933" lon="7.09734">
        <ele>411</ele>
        <time>2023-07-30T05:35:21.000Z</time>
      </trkpt>
      <trkpt lat="43.72931" lon="7.09738">
        <ele>411</ele>
        <time>2023-07-30T05:35:22.000Z</time>
      </trkpt>
      <trkpt lat="43.7293" lon="7.09743">
        <ele>411.20001220703</ele>
        <time>2023-07-30T05:35:23.000Z</time>
      </trkpt>
      <trkpt lat="43.72928" lon="7.09747">
        <ele>411.20001220703</ele>
        <time>2023-07-30T05:35:24.000Z</time>
      </trkpt>
      <trkpt lat="43.72927" lon="7.09752">
        <ele>411.39999389648</ele>
        <time>2023-07-30T05:35:25.000Z</time>
      </trkpt>
      <trkpt lat="43.72926" lon="7.09756">
        <ele>411.39999389648</ele>
        <time>2023-07-30T05:35:26.000Z</time>
      </trkpt>
      <trkpt lat="43.72924" lon="7.09761">
        <ele>411.39999389648</ele>
        <time>2023-07-30T05:35:27.000Z</time>
      </trkpt>
      <trkpt lat="43.72922" lon="7.09765">
        <ele>411.39999389648</ele>
        <time>2023-07-30T05:35:28.000Z</time>
      </trkpt>
      <trkpt lat="43.72921" lon="7.09769">
        <ele>411.60000610352</ele>
        <time>2023-07-30T05:35:29.000Z</time>
      </trkpt>
      <trkpt lat="43.72919" lon="7.09774">
        <ele>411.60000610352</ele>
        <time>2023-07-30T05:35:30.000Z</time>
      </trkpt>
      <trkpt lat="43.72917" lon="7.09778">
        <ele>411.60000610352</ele>
        <time>2023-07-30T05:35:31.000Z</time>
      </trkpt>
      <trkpt lat="43.72916" lon="7.09783">
        <ele>411.60000610352</ele>
        <time>2023-07-30T05:35:32.000Z</time>
      </trkpt>
      <trkpt lat="43.72914" lon="7.09787">
        <ele>411.60000610352</ele>
        <time>2023-07-30T05:35:33.000Z</time>
      </trkpt>
      <trkpt lat="43.72911" lon="7.09792">
        <ele>411.60000610352</ele>
        <time>2023-07-30T05:35:34.000Z</time>
      </trkpt>
      <trkpt lat="43.72909" lon="7.09796">
        <ele>411.60000610352</ele>
        <time>2023-07-30T05:35:35.000Z</time>
      </trkpt>
      <trkpt lat="43.72907" lon="7.098">
        <ele>411.60000610352</ele>
        <time>2023-07-30T05:35:36.000Z</time>
      </trkpt>
      <trkpt lat="43.72905" lon="7.09805">
        <ele>411.60000610352</ele>
        <time>2023-07-30T05:35:37.000Z</time>
      </trkpt>
      <trkpt lat="43.72903" lon="7.0981">
        <ele>411.60000610352</ele>
        <time>2023-07-30T05:35:38.000Z</time>
      </trkpt>
      <trkpt lat="43.72901" lon="7.09815">
        <ele>411.60000610352</ele>
        <time>2023-07-30T05:35:39.000Z</time>
      </trkpt>
      <trkpt lat="43.72899" lon="7.09819">
        <ele>411.60000610352</ele>
        <time>2023-07-30T05:35:40.000Z</time>
      </trkpt>
      <trkpt lat="43.72897" lon="7.09824">
        <ele>411.60000610352</ele>
        <time>2023-07-30T05:35:41.000Z</time>
      </trkpt>
      <trkpt lat="43.72896" lon="7.09829">
        <ele>411.60000610352</ele>
        <time>2023-07-30T05:35:42.000Z</time>
      </trkpt>
      <trkpt lat="43.72894" lon="7.09834">
        <ele>411.60000610352</ele>
        <time>2023-07-30T05:35:43.000Z</time>
      </trkpt>
      <trkpt lat="43.72892" lon="7.09839">
        <ele>411.39999389648</ele>
        <time>2023-07-30T05:35:44.000Z</time>
      </trkpt>
      <trkpt lat="43.72891" lon="7.09844">
        <ele>411.39999389648</ele>
        <time>2023-07-30T05:35:45.000Z</time>
      </trkpt>
      <trkpt lat="43.72889" lon="7.09849">
        <ele>411.39999389648</ele>
        <time>2023-07-30T05:35:46.000Z</time>
      </trkpt>
      <trkpt lat="43.72888" lon="7.09854">
        <ele>411.39999389648</ele>
        <time>2023-07-30T05:35:47.000Z</time>
      </trkpt>
      <trkpt lat="43.72887" lon="7.09859">
        <ele>411.39999389648</ele>
        <time>2023-07-30T05:35:48.000Z</time>
      </trkpt>
      <trkpt lat="43.72886" lon="7.09864">
        <ele>411.39999389648</ele>
        <time>2023-07-30T05:35:49.000Z</time>
      </trkpt>
      <trkpt lat="43.72884" lon="7.09869">
        <ele>411.39999389648</ele>
        <time>2023-07-30T05:35:50.000Z</time>
      </trkpt>
      <trkpt lat="43.72883" lon="7.09873">
        <ele>411.39999389648</ele>
        <time>2023-07-30T05:35:51.000Z</time>
      </trkpt>
      <trkpt lat="43.72882" lon="7.09877">
        <ele>411.39999389648</ele>
        <time>2023-07-30T05:35:52.000Z</time>
      </trkpt>
      <trkpt lat="43.72881" lon="7.09882">
        <ele>411.39999389648</ele>
        <time>2023-07-30T05:35:53.000Z</time>
      </trkpt>
      <trkpt lat="43.7288" lon="7.09887">
        <ele>411.39999389648</ele>
        <time>2023-07-30T05:35:54.000Z</time>
      </trkpt>
      <trkpt lat="43.72879" lon="7.09891">
        <ele>411.39999389648</ele>
        <time>2023-07-30T05:35:55.000Z</time>
      </trkpt>
      <trkpt lat="43.72879" lon="7.09895">
        <ele>411.60000610352</ele>
        <time>2023-07-30T05:35:56.000Z</time>
      </trkpt>
      <trkpt lat="43.72879" lon="7.099">
        <ele>411.60000610352</ele>
        <time>2023-07-30T05:35:57.000Z</time>
      </trkpt>
      <trkpt lat="43.72879" lon="7.09904">
        <ele>411.60000610352</ele>
        <time>2023-07-30T05:35:58.000Z</time>
      </trkpt>
      <trkpt lat="43.7288" lon="7.09909">
        <ele>411.79998779297</ele>
        <time>2023-07-30T05:35:59.000Z</time>
      </trkpt>
      <trkpt lat="43.72881" lon="7.09913">
        <ele>411.79998779297</ele>
        <time>2023-07-30T05:36:00.000Z</time>
      </trkpt>
      <trkpt lat="43.72882" lon="7.09917">
        <ele>411.79998779297</ele>
        <time>2023-07-30T05:36:01.000Z</time>
      </trkpt>
      <trkpt lat="43.72884" lon="7.09921">
        <ele>411.79998779297</ele>
        <time>2023-07-30T05:36:02.000Z</time>
      </trkpt>
      <trkpt lat="43.72885" lon="7.09925">
        <ele>412</ele>
        <time>2023-07-30T05:36:03.000Z</time>
      </trkpt>
      <trkpt lat="43.72886" lon="7.0993">
        <ele>412</ele>
        <time>2023-07-30T05:36:04.000Z</time>
      </trkpt>
      <trkpt lat="43.72887" lon="7.09935">
        <ele>412</ele>
        <time>2023-07-30T05:36:05.000Z</time>
      </trkpt>
      <trkpt lat="43.72888" lon="7.09939">
        <ele>412</ele>
        <time>2023-07-30T05:36:06.000Z</time>
      </trkpt>
      <trkpt lat="43.72889" lon="7.09944">
        <ele>412</ele>
        <time>2023-07-30T05:36:07.000Z</time>
      </trkpt>
      <trkpt lat="43.7289" lon="7.09949">
        <ele>411.79998779297</ele>
        <time>2023-07-30T05:36:08.000Z</time>
      </trkpt>
      <trkpt lat="43.72891" lon="7.09954">
        <ele>411.79998779297</ele>
        <time>2023-07-30T05:36:09.000Z</time>
      </trkpt>
      <trkpt lat="43.72892" lon="7.09959">
        <ele>411.79998779297</ele>
        <time>2023-07-30T05:36:10.000Z</time>
      </trkpt>
      <trkpt lat="43.72894" lon="7.09963">
        <ele>411.79998779297</ele>
        <time>2023-07-30T05:36:11.000Z</time>
      </trkpt>
      <trkpt lat="43.72896" lon="7.09968">
        <ele>411.79998779297</ele>
        <time>2023-07-30T05:36:12.000Z</time>
      </trkpt>
      <trkpt lat="43.72898" lon="7.09972">
        <ele>411.79998779297</ele>
        <time>2023-07-30T05:36:13.000Z</time>
      </trkpt>
      <trkpt lat="43.729" lon="7.09977">
        <ele>411.60000610352</ele>
        <time>2023-07-30T05:36:14.000Z</time>
      </trkpt>
      <trkpt lat="43.72902" lon="7.09981">
        <ele>411.60000610352</ele>
        <time>2023-07-30T05:36:15.000Z</time>
      </trkpt>
      <trkpt lat="43.72905" lon="7.09985">
        <ele>411.60000610352</ele>
        <time>2023-07-30T05:36:16.000Z</time>
      </trkpt>
      <trkpt lat="43.72907" lon="7.09989">
        <ele>411.60000610352</ele>
        <time>2023-07-30T05:36:17.000Z</time>
      </trkpt>
      <trkpt lat="43.72909" lon="7.09994">
        <ele>411.60000610352</ele>
        <time>2023-07-30T05:36:18.000Z</time>
      </trkpt>
      <trkpt lat="43.72912" lon="7.09998">
        <ele>411.39999389648</ele>
        <time>2023-07-30T05:36:19.000Z</time>
      </trkpt>
      <trkpt lat="43.72915" lon="7.10003">
        <ele>411.39999389648</ele>
        <time>2023-07-30T05:36:20.000Z</time>
      </trkpt>
      <trkpt lat="43.72918" lon="7.10007">
        <ele>411.20001220703</ele>
        <time>2023-07-30T05:36:21.000Z</time>
      </trkpt>
      <trkpt lat="43.7292" lon="7.10012">
        <ele>411.20001220703</ele>
        <time>2023-07-30T05:36:22.000Z</time>
      </trkpt>
      <trkpt lat="43.72923" lon="7.10016">
        <ele>411.20001220703</ele>
        <time>2023-07-30T05:36:23.000Z</time>
      </trkpt>
      <trkpt lat="43.72926" lon="7.1002">
        <ele>411.20001220703</ele>
        <time>2023-07-30T05:36:24.000Z</time>
      </trkpt>
      <trkpt lat="43.72929" lon="7.10025">
        <ele>411.20001220703</ele>
        <time>2023-07-30T05:36:25.000Z</time>
      </trkpt>
      <trkpt lat="43.72932" lon="7.10029">
        <ele>411.20001220703</ele>
        <time>2023-07-30T05:36:26.000Z</time>
      </trkpt>
      <trkpt lat="43.72935" lon="7.10033">
        <ele>411.20001220703</ele>
        <time>2023-07-30T05:36:27.000Z</time>
      </trkpt>
      <trkpt lat="43.72938" lon="7.10037">
        <ele>411.20001220703</ele>
        <time>2023-07-30T05:36:28.000Z</time>
      </trkpt>
      <trkpt lat="43.7294" lon="7.10041">
        <ele>411.20001220703</ele>
        <time>2023-07-30T05:36:29.000Z</time>
      </trkpt>
      <trkpt lat="43.72943" lon="7.10045">
        <ele>411.20001220703</ele>
        <time>2023-07-30T05:36:30.000Z</time>
      </trkpt>
      <trkpt lat="43.72946" lon="7.10049">
        <ele>411.20001220703</ele>
        <time>2023-07-30T05:36:31.000Z</time>
      </trkpt>
      <trkpt lat="43.7295" lon="7.10052">
        <ele>411.20001220703</ele>
        <time>2023-07-30T05:36:32.000Z</time>
      </trkpt>
      <trkpt lat="43.72952" lon="7.10055">
        <ele>411.20001220703</ele>
        <time>2023-07-30T05:36:33.000Z</time>
      </trkpt>
      <trkpt lat="43.72956" lon="7.10058">
        <ele>411.20001220703</ele>
        <time>2023-07-30T05:36:34.000Z</time>
      </trkpt>
      <trkpt lat="43.72959" lon="7.10061">
        <ele>411.20001220703</ele>
        <time>2023-07-30T05:36:35.000Z</time>
      </trkpt>
      <trkpt lat="43.72962" lon="7.10064">
        <ele>411.20001220703</ele>
        <time>2023-07-30T05:36:36.000Z</time>
      </trkpt>
      <trkpt lat="43.72965" lon="7.10067">
        <ele>411.20001220703</ele>
        <time>2023-07-30T05:36:37.000Z</time>
      </trkpt>
      <trkpt lat="43.72968" lon="7.10069">
        <ele>411.20001220703</ele>
        <time>2023-07-30T05:36:38.000Z</time>
      </trkpt>
      <trkpt lat="43.72971" lon="7.10072">
        <ele>411.20001220703</ele>
        <time>2023-07-30T05:36:39.000Z</time>
      </trkpt>
      <trkpt lat="43.72974" lon="7.10075">
        <ele>411.20001220703</ele>
        <time>2023-07-30T05:36:40.000Z</time>
      </trkpt>
      <trkpt lat="43.72977" lon="7.10078">
        <ele>411.20001220703</ele>
        <time>2023-07-30T05:36:41.000Z</time>
      </trkpt>
      <trkpt lat="43.7298" lon="7.10081">
        <ele>411.39999389648</ele>
        <time>2023-07-30T05:36:42.000Z</time>
      </trkpt>
      <trkpt lat="43.72983" lon="7.10083">
        <ele>411.39999389648</ele>
        <time>2023-07-30T05:36:43.000Z</time>
      </trkpt>
      <trkpt lat="43.72986" lon="7.10085">
        <ele>411.39999389648</ele>
        <time>2023-07-30T05:36:44.000Z</time>
      </trkpt>
      <trkpt lat="43.72989" lon="7.10088">
        <ele>411.39999389648</ele>
        <time>2023-07-30T05:36:45.000Z</time>
      </trkpt>
      <trkpt lat="43.72993" lon="7.1009">
        <ele>411.39999389648</ele>
        <time>2023-07-30T05:36:46.000Z</time>
      </trkpt>
      <trkpt lat="43.72996" lon="7.10093">
        <ele>411.39999389648</ele>
        <time>2023-07-30T05:36:47.000Z</time>
      </trkpt>
      <trkpt lat="43.73" lon="7.10096">
        <ele>411.39999389648</ele>
        <time>2023-07-30T05:36:48.000Z</time>
      </trkpt>
      <trkpt lat="43.73002" lon="7.10099">
        <ele>411.39999389648</ele>
        <time>2023-07-30T05:36:49.000Z</time>
      </trkpt>
      <trkpt lat="43.73005" lon="7.10102">
        <ele>411.39999389648</ele>
        <time>2023-07-30T05:36:50.000Z</time>
      </trkpt>
      <trkpt lat="43.73009" lon="7.10105">
        <ele>411.39999389648</ele>
        <time>2023-07-30T05:36:51.000Z</time>
      </trkpt>
      <trkpt lat="43.73012" lon="7.10107">
        <ele>411.20001220703</ele>
        <time>2023-07-30T05:36:52.000Z</time>
      </trkpt>
      <trkpt lat="43.73015" lon="7.10109">
        <ele>411.20001220703</ele>
        <time>2023-07-30T05:36:53.000Z</time>
      </trkpt>
      <trkpt lat="43.73018" lon="7.10112">
        <ele>411.20001220703</ele>
        <time>2023-07-30T05:36:54.000Z</time>
      </trkpt>
      <trkpt lat="43.73021" lon="7.10115">
        <ele>411.20001220703</ele>
        <time>2023-07-30T05:36:55.000Z</time>
      </trkpt>
      <trkpt lat="43.73025" lon="7.10117">
        <ele>411.20001220703</ele>
        <time>2023-07-30T05:36:56.000Z</time>
      </trkpt>
      <trkpt lat="43.73028" lon="7.1012">
        <ele>411.20001220703</ele>
        <time>2023-07-30T05:36:57.000Z</time>
      </trkpt>
      <trkpt lat="43.73032" lon="7.10122">
        <ele>411.20001220703</ele>
        <time>2023-07-30T05:36:58.000Z</time>
      </trkpt>
      <trkpt lat="43.73035" lon="7.10125">
        <ele>411.20001220703</ele>
        <time>2023-07-30T05:36:59.000Z</time>
      </trkpt>
      <trkpt lat="43.73038" lon="7.10128">
        <ele>411.20001220703</ele>
        <time>2023-07-30T05:37:00.000Z</time>
      </trkpt>
      <trkpt lat="43.73041" lon="7.10131">
        <ele>411.20001220703</ele>
        <time>2023-07-30T05:37:01.000Z</time>
      </trkpt>
      <trkpt lat="43.73044" lon="7.10134">
        <ele>411.20001220703</ele>
        <time>2023-07-30T05:37:02.000Z</time>
      </trkpt>
      <trkpt lat="43.73047" lon="7.10138">
        <ele>411</ele>
        <time>2023-07-30T05:37:03.000Z</time>
      </trkpt>
      <trkpt lat="43.73049" lon="7.10141">
        <ele>411</ele>
        <time>2023-07-30T05:37:04.000Z</time>
      </trkpt>
      <trkpt lat="43.73051" lon="7.10146">
        <ele>411</ele>
        <time>2023-07-30T05:37:05.000Z</time>
      </trkpt>
      <trkpt lat="43.73054" lon="7.1015">
        <ele>411</ele>
        <time>2023-07-30T05:37:06.000Z</time>
      </trkpt>
      <trkpt lat="43.73056" lon="7.10154">
        <ele>411</ele>
        <time>2023-07-30T05:37:07.000Z</time>
      </trkpt>
      <trkpt lat="43.73059" lon="7.10158">
        <ele>411</ele>
        <time>2023-07-30T05:37:08.000Z</time>
      </trkpt>
      <trkpt lat="43.73061" lon="7.10161">
        <ele>411.20001220703</ele>
        <time>2023-07-30T05:37:09.000Z</time>
      </trkpt>
      <trkpt lat="43.73063" lon="7.10165">
        <ele>411.20001220703</ele>
        <time>2023-07-30T05:37:10.000Z</time>
      </trkpt>
      <trkpt lat="43.73066" lon="7.10168">
        <ele>411.20001220703</ele>
        <time>2023-07-30T05:37:11.000Z</time>
      </trkpt>
      <trkpt lat="43.73068" lon="7.10172">
        <ele>411.20001220703</ele>
        <time>2023-07-30T05:37:12.000Z</time>
      </trkpt>
      <trkpt lat="43.7307" lon="7.10175">
        <ele>411.39999389648</ele>
        <time>2023-07-30T05:37:13.000Z</time>
      </trkpt>
      <trkpt lat="43.73073" lon="7.10177">
        <ele>411.60000610352</ele>
        <time>2023-07-30T05:37:14.000Z</time>
      </trkpt>
      <trkpt lat="43.73075" lon="7.1018">
        <ele>411.60000610352</ele>
        <time>2023-07-30T05:37:15.000Z</time>
      </trkpt>
      <trkpt lat="43.73077" lon="7.10182">
        <ele>411.60000610352</ele>
        <time>2023-07-30T05:37:16.000Z</time>
      </trkpt>
      <trkpt lat="43.73079" lon="7.10184">
        <ele>411.60000610352</ele>
        <time>2023-07-30T05:37:17.000Z</time>
      </trkpt>
      <trkpt lat="43.73081" lon="7.10186">
        <ele>411.60000610352</ele>
        <time>2023-07-30T05:37:18.000Z</time>
      </trkpt>
      <trkpt lat="43.73082" lon="7.10187">
        <ele>411.79998779297</ele>
        <time>2023-07-30T05:37:19.000Z</time>
      </trkpt>
      <trkpt lat="43.73084" lon="7.10189">
        <ele>411.79998779297</ele>
        <time>2023-07-30T05:37:20.000Z</time>
      </trkpt>
      <trkpt lat="43.73086" lon="7.1019">
        <ele>411.79998779297</ele>
        <time>2023-07-30T05:37:21.000Z</time>
      </trkpt>
      <trkpt lat="43.73087" lon="7.10191">
        <ele>411.79998779297</ele>
        <time>2023-07-30T05:37:22.000Z</time>
      </trkpt>
      <trkpt lat="43.73088" lon="7.10192">
        <ele>411.60000610352</ele>
        <time>2023-07-30T05:37:23.000Z</time>
      </trkpt>
      <trkpt lat="43.7309" lon="7.10193">
        <ele>411.60000610352</ele>
        <time>2023-07-30T05:37:24.000Z</time>
      </trkpt>
      <trkpt lat="43.73091" lon="7.10193">
        <ele>411.60000610352</ele>
        <time>2023-07-30T05:37:25.000Z</time>
      </trkpt>
      <trkpt lat="43.73092" lon="7.10194">
        <ele>411.60000610352</ele>
        <time>2023-07-30T05:37:26.000Z</time>
      </trkpt>
      <trkpt lat="43.73093" lon="7.10195">
        <ele>411.60000610352</ele>
        <time>2023-07-30T05:37:27.000Z</time>
      </trkpt>
      <trkpt lat="43.73095" lon="7.10197">
        <ele>411.39999389648</ele>
        <time>2023-07-30T05:37:28.000Z</time>
      </trkpt>
      <trkpt lat="43.73097" lon="7.10196">
        <ele>411.60000610352</ele>
        <time>2023-07-30T05:37:29.000Z</time>
      </trkpt>
      <trkpt lat="43.73097" lon="7.10194">
        <ele>411.60000610352</ele>
        <time>2023-07-30T05:37:30.000Z</time>
      </trkpt>
      <trkpt lat="43.73096" lon="7.10192">
        <ele>411.60000610352</ele>
        <time>2023-07-30T05:37:31.000Z</time>
      </trkpt>
      <trkpt lat="43.73095" lon="7.10192">
        <ele>411.60000610352</ele>
        <time>2023-07-30T05:37:32.000Z</time>
      </trkpt>
      <trkpt lat="43.73093" lon="7.10192">
        <ele>411.60000610352</ele>
        <time>2023-07-30T05:37:33.000Z</time>
      </trkpt>
      <trkpt lat="43.73091" lon="7.10192">
        <ele>411.60000610352</ele>
        <time>2023-07-30T05:37:34.000Z</time>
      </trkpt>
      <trkpt lat="43.73088" lon="7.10192">
        <ele>411.60000610352</ele>
        <time>2023-07-30T05:37:35.000Z</time>
      </trkpt>
      <trkpt lat="43.73086" lon="7.1019">
        <ele>411.60000610352</ele>
        <time>2023-07-30T05:37:36.000Z</time>
      </trkpt>
      <trkpt lat="43.73084" lon="7.10188">
        <ele>411.79998779297</ele>
        <time>2023-07-30T05:37:37.000Z</time>
      </trkpt>
      <trkpt lat="43.73082" lon="7.10186">
        <ele>411.79998779297</ele>
        <time>2023-07-30T05:37:38.000Z</time>
      </trkpt>
      <trkpt lat="43.7308" lon="7.10183">
        <ele>411.79998779297</ele>
        <time>2023-07-30T05:37:39.000Z</time>
      </trkpt>
      <trkpt lat="43.73078" lon="7.10181">
        <ele>411.79998779297</ele>
        <time>2023-07-30T05:37:40.000Z</time>
      </trkpt>
      <trkpt lat="43.73075" lon="7.10179">
        <ele>412</ele>
        <time>2023-07-30T05:37:41.000Z</time>
      </trkpt>
      <trkpt lat="43.73072" lon="7.10177">
        <ele>412</ele>
        <time>2023-07-30T05:37:42.000Z</time>
      </trkpt>
      <trkpt lat="43.7307" lon="7.10174">
        <ele>412</ele>
        <time>2023-07-30T05:37:43.000Z</time>
      </trkpt>
      <trkpt lat="43.73067" lon="7.10172">
        <ele>412</ele>
        <time>2023-07-30T05:37:44.000Z</time>
      </trkpt>
      <trkpt lat="43.73064" lon="7.10169">
        <ele>412</ele>
        <time>2023-07-30T05:37:45.000Z</time>
      </trkpt>
      <trkpt lat="43.73062" lon="7.10166">
        <ele>411.79998779297</ele>
        <time>2023-07-30T05:37:46.000Z</time>
      </trkpt>
      <trkpt lat="43.73059" lon="7.10163">
        <ele>411.79998779297</ele>
        <time>2023-07-30T05:37:47.000Z</time>
      </trkpt>
      <trkpt lat="43.73057" lon="7.10159">
        <ele>411.79998779297</ele>
        <time>2023-07-30T05:37:48.000Z</time>
      </trkpt>
      <trkpt lat="43.73056" lon="7.10154">
        <ele>411.79998779297</ele>
        <time>2023-07-30T05:37:49.000Z</time>
      </trkpt>
      <trkpt lat="43.73053" lon="7.1015">
        <ele>411.79998779297</ele>
        <time>2023-07-30T05:37:50.000Z</time>
      </trkpt>
      <trkpt lat="43.73051" lon="7.10146">
        <ele>411.79998779297</ele>
        <time>2023-07-30T05:37:51.000Z</time>
      </trkpt>
      <trkpt lat="43.73049" lon="7.10142">
        <ele>411.60000610352</ele>
        <time>2023-07-30T05:37:52.000Z</time>
      </trkpt>
      <trkpt lat="43.73047" lon="7.10138">
        <ele>411.60000610352</ele>
        <time>2023-07-30T05:37:53.000Z</time>
      </trkpt>
      <trkpt lat="43.73044" lon="7.10134">
        <ele>411.60000610352</ele>
        <time>2023-07-30T05:37:54.000Z</time>
      </trkpt>
      <trkpt lat="43.73043" lon="7.10132">
        <ele>411.60000610352</ele>
        <time>2023-07-30T05:37:55.000Z</time>
      </trkpt>
      <trkpt lat="43.73042" lon="7.1013">
        <ele>411.39999389648</ele>
        <time>2023-07-30T05:37:56.000Z</time>
      </trkpt>
      <trkpt lat="43.73041" lon="7.10128">
        <ele>411.20001220703</ele>
        <time>2023-07-30T05:37:57.000Z</time>
      </trkpt>
      <trkpt lat="43.73041" lon="7.10129">
        <ele>411.20001220703</ele>
        <time>2023-07-30T05:37:58.000Z</time>
      </trkpt>
      <trkpt lat="43.73041" lon="7.10129">
        <ele>411.20001220703</ele>
        <time>2023-07-30T05:37:59.000Z</time>
      </trkpt>
      <trkpt lat="43.73041" lon="7.10129">
        <ele>411.20001220703</ele>
        <time>2023-07-30T05:38:00.000Z</time>
      </trkpt>
      <trkpt lat="43.73041" lon="7.10129">
        <ele>411.20001220703</ele>
        <time>2023-07-30T05:38:01.000Z</time>
      </trkpt>
      <trkpt lat="43.73041" lon="7.10129">
        <ele>411.20001220703</ele>
        <time>2023-07-30T05:38:02.000Z</time>
      </trkpt>
      <trkpt lat="43.73041" lon="7.10129">
        <ele>411.20001220703</ele>
        <time>2023-07-30T05:38:03.000Z</time>
      </trkpt>
      <trkpt lat="43.73041" lon="7.10129">
        <ele>411.20001220703</ele>
        <time>2023-07-30T05:38:04.000Z</time>
      </trkpt>
      <trkpt lat="43.73041" lon="7.10129">
        <ele>411.20001220703</ele>
        <time>2023-07-30T05:38:05.000Z</time>
      </trkpt>
      <trkpt lat="43.73041" lon="7.10129">
        <ele>411.20001220703</ele>
        <time>2023-07-30T05:38:06.000Z</time>
      </trkpt>
      <trkpt lat="43.73041" lon="7.10129">
        <ele>411.20001220703</ele>
        <time>2023-07-30T05:38:07.000Z</time>
      </trkpt>
      <trkpt lat="43.73041" lon="7.10129">
        <ele>411.20001220703</ele>
        <time>2023-07-30T05:38:08.000Z</time>
      </trkpt>
      <trkpt lat="43.73041" lon="7.10129">
        <ele>411.20001220703</ele>
        <time>2023-07-30T05:38:09.000Z</time>
      </trkpt>
      <trkpt lat="43.73041" lon="7.10129">
        <ele>411.20001220703</ele>
        <time>2023-07-30T05:38:10.000Z</time>
      </trkpt>
      <trkpt lat="43.73041" lon="7.10129">
        <ele>411.20001220703</ele>
        <time>2023-07-30T05:38:11.000Z</time>
      </trkpt>
      <trkpt lat="43.73041" lon="7.10129">
        <ele>411.20001220703</ele>
        <time>2023-07-30T05:38:12.000Z</time>
      </trkpt>
      <trkpt lat="43.73041" lon="7.10129">
        <ele>410.79998779297</ele>
        <time>2023-07-30T05:38:13.000Z</time>
      </trkpt>
      <trkpt lat="43.73041" lon="7.10129">
        <ele>410.60000610352</ele>
        <time>2023-07-30T05:38:14.000Z</time>
      </trkpt>
      <trkpt lat="43.73041" lon="7.10129">
        <ele>410.60000610352</ele>
        <time>2023-07-30T05:38:15.000Z</time>
      </trkpt>
      <trkpt lat="43.73041" lon="7.10129">
        <ele>410.79998779297</ele>
        <time>2023-07-30T05:38:16.000Z</time>
      </trkpt>
      <trkpt lat="43.73041" lon="7.10129">
        <ele>411.60000610352</ele>
        <time>2023-07-30T05:38:17.000Z</time>
      </trkpt>
      <trkpt lat="43.73041" lon="7.10129">
        <ele>411.60000610352</ele>
        <time>2023-07-30T05:38:18.000Z</time>
      </trkpt>
      <trkpt lat="43.73041" lon="7.10129">
        <ele>412</ele>
        <time>2023-07-30T05:38:19.000Z</time>
      </trkpt>
      <trkpt lat="43.73041" lon="7.10129">
        <ele>412</ele>
        <time>2023-07-30T05:38:20.000Z</time>
      </trkpt>
      <trkpt lat="43.73041" lon="7.10129">
        <ele>412</ele>
        <time>2023-07-30T05:38:21.000Z</time>
      </trkpt>
      <trkpt lat="43.73041" lon="7.10129">
        <ele>411.79998779297</ele>
        <time>2023-07-30T05:38:22.000Z</time>
      </trkpt>
      <trkpt lat="43.73041" lon="7.10129">
        <ele>411.39999389648</ele>
        <time>2023-07-30T05:38:23.000Z</time>
      </trkpt>
      <trkpt lat="43.73041" lon="7.10129">
        <ele>411.39999389648</ele>
        <time>2023-07-30T05:38:24.000Z</time>
      </trkpt>
      <trkpt lat="43.73041" lon="7.10129">
        <ele>411.39999389648</ele>
        <time>2023-07-30T05:38:25.000Z</time>
      </trkpt>
      <trkpt lat="43.73041" lon="7.10129">
        <ele>411.39999389648</ele>
        <time>2023-07-30T05:38:26.000Z</time>
      </trkpt>
      <trkpt lat="43.73041" lon="7.10129">
        <ele>411.20001220703</ele>
        <time>2023-07-30T05:38:27.000Z</time>
      </trkpt>
      <trkpt lat="43.73041" lon="7.10129">
        <ele>411.20001220703</ele>
        <time>2023-07-30T05:38:28.000Z</time>
      </trkpt>
      <trkpt lat="43.73041" lon="7.10129">
        <ele>411.20001220703</ele>
        <time>2023-07-30T05:38:29.000Z</time>
      </trkpt>
      <trkpt lat="43.73041" lon="7.10129">
        <ele>411.20001220703</ele>
        <time>2023-07-30T05:38:30.000Z</time>
      </trkpt>
      <trkpt lat="43.73041" lon="7.10129">
        <ele>411.20001220703</ele>
        <time>2023-07-30T05:38:31.000Z</time>
      </trkpt>
      <trkpt lat="43.73041" lon="7.10129">
        <ele>411.20001220703</ele>
        <time>2023-07-30T05:38:32.000Z</time>
      </trkpt>
      <trkpt lat="43.73038" lon="7.10129">
        <ele>411.39999389648</ele>
        <time>2023-07-30T05:38:33.000Z</time>
      </trkpt>
      <trkpt lat="43.73039" lon="7.1013">
        <ele>411.60000610352</ele>
        <time>2023-07-30T05:38:34.000Z</time>
      </trkpt>
      <trkpt lat="43.73039" lon="7.10131">
        <ele>411.60000610352</ele>
        <time>2023-07-30T05:38:35.000Z</time>
      </trkpt>
      <trkpt lat="43.73041" lon="7.10131">
        <ele>411.60000610352</ele>
        <time>2023-07-30T05:38:36.000Z</time>
      </trkpt>
      <trkpt lat="43.73042" lon="7.10132">
        <ele>411.60000610352</ele>
        <time>2023-07-30T05:38:37.000Z</time>
      </trkpt>
      <trkpt lat="43.73043" lon="7.10133">
        <ele>411.60000610352</ele>
        <time>2023-07-30T05:38:38.000Z</time>
      </trkpt>
      <trkpt lat="43.73045" lon="7.10135">
        <ele>411.60000610352</ele>
        <time>2023-07-30T05:38:39.000Z</time>
      </trkpt>
      <trkpt lat="43.73046" lon="7.10138">
        <ele>411.60000610352</ele>
        <time>2023-07-30T05:38:40.000Z</time>
      </trkpt>
      <trkpt lat="43.73048" lon="7.10141">
        <ele>411.60000610352</ele>
        <time>2023-07-30T05:38:41.000Z</time>
      </trkpt>
      <trkpt lat="43.7305" lon="7.10144">
        <ele>411.60000610352</ele>
        <time>2023-07-30T05:38:42.000Z</time>
      </trkpt>
      <trkpt lat="43.73052" lon="7.10147">
        <ele>411.60000610352</ele>
        <time>2023-07-30T05:38:43.000Z</time>
      </trkpt>
      <trkpt lat="43.73054" lon="7.1015">
        <ele>411.79998779297</ele>
        <time>2023-07-30T05:38:44.000Z</time>
      </trkpt>
      <trkpt lat="43.73056" lon="7.10153">
        <ele>411.79998779297</ele>
        <time>2023-07-30T05:38:45.000Z</time>
      </trkpt>
      <trkpt lat="43.73058" lon="7.10157">
        <ele>411.79998779297</ele>
        <time>2023-07-30T05:38:46.000Z</time>
      </trkpt>
      <trkpt lat="43.73061" lon="7.1016">
        <ele>411.79998779297</ele>
        <time>2023-07-30T05:38:47.000Z</time>
      </trkpt>
      <trkpt lat="43.73063" lon="7.10163">
        <ele>411.79998779297</ele>
        <time>2023-07-30T05:38:48.000Z</time>
      </trkpt>
      <trkpt lat="43.73065" lon="7.10167">
        <ele>411.79998779297</ele>
        <time>2023-07-30T05:38:49.000Z</time>
      </trkpt>
      <trkpt lat="43.73067" lon="7.1017">
        <ele>411.79998779297</ele>
        <time>2023-07-30T05:38:50.000Z</time>
      </trkpt>
      <trkpt lat="43.73069" lon="7.10173">
        <ele>412</ele>
        <time>2023-07-30T05:38:51.000Z</time>
      </trkpt>
      <trkpt lat="43.73071" lon="7.10176">
        <ele>412.20001220703</ele>
        <time>2023-07-30T05:38:52.000Z</time>
      </trkpt>
      <trkpt lat="43.73074" lon="7.10179">
        <ele>412.20001220703</ele>
        <time>2023-07-30T05:38:53.000Z</time>
      </trkpt>
      <trkpt lat="43.73076" lon="7.10182">
        <ele>412.20001220703</ele>
        <time>2023-07-30T05:38:54.000Z</time>
      </trkpt>
      <trkpt lat="43.73079" lon="7.10185">
        <ele>412.39999389648</ele>
        <time>2023-07-30T05:38:55.000Z</time>
      </trkpt>
      <trkpt lat="43.73083" lon="7.10187">
        <ele>412.39999389648</ele>
        <time>2023-07-30T05:38:56.000Z</time>
      </trkpt>
      <trkpt lat="43.73086" lon="7.10189">
        <ele>412.60000610352</ele>
        <time>2023-07-30T05:38:57.000Z</time>
      </trkpt>
      <trkpt lat="43.73089" lon="7.10191">
        <ele>412.60000610352</ele>
        <time>2023-07-30T05:38:58.000Z</time>
      </trkpt>
      <trkpt lat="43.73093" lon="7.10193">
        <ele>412.60000610352</ele>
        <time>2023-07-30T05:38:59.000Z</time>
      </trkpt>
      <trkpt lat="43.73096" lon="7.10195">
        <ele>412.60000610352</ele>
        <time>2023-07-30T05:39:00.000Z</time>
      </trkpt>
      <trkpt lat="43.731" lon="7.10197">
        <ele>412.60000610352</ele>
        <time>2023-07-30T05:39:01.000Z</time>
      </trkpt>
      <trkpt lat="43.73105" lon="7.10198">
        <ele>412.60000610352</ele>
        <time>2023-07-30T05:39:02.000Z</time>
      </trkpt>
      <trkpt lat="43.73109" lon="7.10198">
        <ele>412.60000610352</ele>
        <time>2023-07-30T05:39:03.000Z</time>
      </trkpt>
      <trkpt lat="43.73113" lon="7.10199">
        <ele>412.60000610352</ele>
        <time>2023-07-30T05:39:04.000Z</time>
      </trkpt>
      <trkpt lat="43.73117" lon="7.10198">
        <ele>412.39999389648</ele>
        <time>2023-07-30T05:39:05.000Z</time>
      </trkpt>
      <trkpt lat="43.73121" lon="7.10198">
        <ele>412.39999389648</ele>
        <time>2023-07-30T05:39:06.000Z</time>
      </trkpt>
      <trkpt lat="43.73125" lon="7.10198">
        <ele>412.39999389648</ele>
        <time>2023-07-30T05:39:07.000Z</time>
      </trkpt>
      <trkpt lat="43.73128" lon="7.10198">
        <ele>412.39999389648</ele>
        <time>2023-07-30T05:39:08.000Z</time>
      </trkpt>
      <trkpt lat="43.73132" lon="7.10198">
        <ele>412.39999389648</ele>
        <time>2023-07-30T05:39:09.000Z</time>
      </trkpt>
      <trkpt lat="43.73136" lon="7.10199">
        <ele>412.39999389648</ele>
        <time>2023-07-30T05:39:10.000Z</time>
      </trkpt>
      <trkpt lat="43.7314" lon="7.10198">
        <ele>412.20001220703</ele>
        <time>2023-07-30T05:39:11.000Z</time>
      </trkpt>
      <trkpt lat="43.73143" lon="7.10199">
        <ele>412.20001220703</ele>
        <time>2023-07-30T05:39:12.000Z</time>
      </trkpt>
      <trkpt lat="43.73147" lon="7.10199">
        <ele>412.39999389648</ele>
        <time>2023-07-30T05:39:13.000Z</time>
      </trkpt>
      <trkpt lat="43.73151" lon="7.10199">
        <ele>412.39999389648</ele>
        <time>2023-07-30T05:39:14.000Z</time>
      </trkpt>
      <trkpt lat="43.73154" lon="7.102">
        <ele>412.39999389648</ele>
        <time>2023-07-30T05:39:15.000Z</time>
      </trkpt>
      <trkpt lat="43.73158" lon="7.102">
        <ele>412.39999389648</ele>
        <time>2023-07-30T05:39:16.000Z</time>
      </trkpt>
      <trkpt lat="43.73161" lon="7.102">
        <ele>412.39999389648</ele>
        <time>2023-07-30T05:39:17.000Z</time>
      </trkpt>
      <trkpt lat="43.73165" lon="7.102">
        <ele>412.39999389648</ele>
        <time>2023-07-30T05:39:18.000Z</time>
      </trkpt>
      <trkpt lat="43.73169" lon="7.102">
        <ele>412.39999389648</ele>
        <time>2023-07-30T05:39:19.000Z</time>
      </trkpt>
      <trkpt lat="43.73173" lon="7.10201">
        <ele>412.39999389648</ele>
        <time>2023-07-30T05:39:20.000Z</time>
      </trkpt>
      <trkpt lat="43.73177" lon="7.10201">
        <ele>412.39999389648</ele>
        <time>2023-07-30T05:39:21.000Z</time>
      </trkpt>
      <trkpt lat="43.73181" lon="7.10202">
        <ele>412.20001220703</ele>
        <time>2023-07-30T05:39:22.000Z</time>
      </trkpt>
      <trkpt lat="43.73184" lon="7.10205">
        <ele>412.20001220703</ele>
        <time>2023-07-30T05:39:23.000Z</time>
      </trkpt>
      <trkpt lat="43.73187" lon="7.10209">
        <ele>412.20001220703</ele>
        <time>2023-07-30T05:39:24.000Z</time>
      </trkpt>
      <trkpt lat="43.73191" lon="7.10212">
        <ele>412.20001220703</ele>
        <time>2023-07-30T05:39:25.000Z</time>
      </trkpt>
      <trkpt lat="43.73194" lon="7.10215">
        <ele>412.20001220703</ele>
        <time>2023-07-30T05:39:26.000Z</time>
      </trkpt>
      <trkpt lat="43.73197" lon="7.10218">
        <ele>412.20001220703</ele>
        <time>2023-07-30T05:39:27.000Z</time>
      </trkpt>
      <trkpt lat="43.732" lon="7.10222">
        <ele>412.20001220703</ele>
        <time>2023-07-30T05:39:28.000Z</time>
      </trkpt>
      <trkpt lat="43.73203" lon="7.10226">
        <ele>412.20001220703</ele>
        <time>2023-07-30T05:39:29.000Z</time>
      </trkpt>
      <trkpt lat="43.73205" lon="7.10229">
        <ele>412.20001220703</ele>
        <time>2023-07-30T05:39:30.000Z</time>
      </trkpt>
      <trkpt lat="43.73208" lon="7.10233">
        <ele>412.20001220703</ele>
        <time>2023-07-30T05:39:31.000Z</time>
      </trkpt>
      <trkpt lat="43.7321" lon="7.10237">
        <ele>412.20001220703</ele>
        <time>2023-07-30T05:39:32.000Z</time>
      </trkpt>
      <trkpt lat="43.73213" lon="7.1024">
        <ele>412.39999389648</ele>
        <time>2023-07-30T05:39:33.000Z</time>
      </trkpt>
      <trkpt lat="43.73215" lon="7.10244">
        <ele>412.39999389648</ele>
        <time>2023-07-30T05:39:34.000Z</time>
      </trkpt>
      <trkpt lat="43.73218" lon="7.10248">
        <ele>412.39999389648</ele>
        <time>2023-07-30T05:39:35.000Z</time>
      </trkpt>
      <trkpt lat="43.73221" lon="7.10252">
        <ele>412.39999389648</ele>
        <time>2023-07-30T05:39:36.000Z</time>
      </trkpt>
      <trkpt lat="43.73225" lon="7.10257">
        <ele>412.39999389648</ele>
        <time>2023-07-30T05:39:37.000Z</time>
      </trkpt>
      <trkpt lat="43.73229" lon="7.10261">
        <ele>412.20001220703</ele>
        <time>2023-07-30T05:39:38.000Z</time>
      </trkpt>
      <trkpt lat="43.73233" lon="7.10266">
        <ele>412</ele>
        <time>2023-07-30T05:39:39.000Z</time>
      </trkpt>
      <trkpt lat="43.73236" lon="7.10272">
        <ele>411.60000610352</ele>
        <time>2023-07-30T05:39:40.000Z</time>
      </trkpt>
      <trkpt lat="43.73241" lon="7.10277">
        <ele>411.20001220703</ele>
        <time>2023-07-30T05:39:41.000Z</time>
      </trkpt>
      <trkpt lat="43.73246" lon="7.10283">
        <ele>410.79998779297</ele>
        <time>2023-07-30T05:39:42.000Z</time>
      </trkpt>
      <trkpt lat="43.73249" lon="7.10291">
        <ele>410.39999389648</ele>
        <time>2023-07-30T05:39:43.000Z</time>
      </trkpt>
      <trkpt lat="43.73253" lon="7.10298">
        <ele>410</ele>
        <time>2023-07-30T05:39:44.000Z</time>
      </trkpt>
      <trkpt lat="43.73255" lon="7.10302">
        <ele>409</ele>
        <time>2023-07-30T05:39:45.000Z</time>
      </trkpt>
      <trkpt lat="43.73258" lon="7.10308">
        <ele>408.20001220703</ele>
        <time>2023-07-30T05:39:46.000Z</time>
      </trkpt>
      <trkpt lat="43.73261" lon="7.10311">
        <ele>408.20001220703</ele>
        <time>2023-07-30T05:39:47.000Z</time>
      </trkpt>
      <trkpt lat="43.73264" lon="7.10313">
        <ele>408.20001220703</ele>
        <time>2023-07-30T05:39:48.000Z</time>
      </trkpt>
      <trkpt lat="43.73266" lon="7.10315">
        <ele>408.20001220703</ele>
        <time>2023-07-30T05:39:49.000Z</time>
      </trkpt>
      <trkpt lat="43.73268" lon="7.10317">
        <ele>408.20001220703</ele>
        <time>2023-07-30T05:39:50.000Z</time>
      </trkpt>
      <trkpt lat="43.7327" lon="7.1032">
        <ele>408.79998779297</ele>
        <time>2023-07-30T05:39:51.000Z</time>
      </trkpt>
      <trkpt lat="43.73273" lon="7.10322">
        <ele>408.79998779297</ele>
        <time>2023-07-30T05:39:52.000Z</time>
      </trkpt>
      <trkpt lat="43.73275" lon="7.10324">
        <ele>408.79998779297</ele>
        <time>2023-07-30T05:39:53.000Z</time>
      </trkpt>
      <trkpt lat="43.73276" lon="7.10326">
        <ele>409.20001220703</ele>
        <time>2023-07-30T05:39:54.000Z</time>
      </trkpt>
      <trkpt lat="43.73278" lon="7.10327">
        <ele>409.39999389648</ele>
        <time>2023-07-30T05:39:55.000Z</time>
      </trkpt>
      <trkpt lat="43.7328" lon="7.1033">
        <ele>409.60000610352</ele>
        <time>2023-07-30T05:39:56.000Z</time>
      </trkpt>
      <trkpt lat="43.73282" lon="7.10332">
        <ele>410</ele>
        <time>2023-07-30T05:39:57.000Z</time>
      </trkpt>
      <trkpt lat="43.73284" lon="7.10334">
        <ele>410.20001220703</ele>
        <time>2023-07-30T05:39:58.000Z</time>
      </trkpt>
      <trkpt lat="43.73287" lon="7.10335">
        <ele>410.39999389648</ele>
        <time>2023-07-30T05:39:59.000Z</time>
      </trkpt>
      <trkpt lat="43.73289" lon="7.10335">
        <ele>410.79998779297</ele>
        <time>2023-07-30T05:40:00.000Z</time>
      </trkpt>
      <trkpt lat="43.73291" lon="7.10333">
        <ele>411.20001220703</ele>
        <time>2023-07-30T05:40:01.000Z</time>
      </trkpt>
      <trkpt lat="43.73293" lon="7.1033">
        <ele>411.60000610352</ele>
        <time>2023-07-30T05:40:02.000Z</time>
      </trkpt>
      <trkpt lat="43.73293" lon="7.10326">
        <ele>412</ele>
        <time>2023-07-30T05:40:03.000Z</time>
      </trkpt>
      <trkpt lat="43.73291" lon="7.10324">
        <ele>412.20001220703</ele>
        <time>2023-07-30T05:40:04.000Z</time>
      </trkpt>
      <trkpt lat="43.73289" lon="7.10322">
        <ele>412.60000610352</ele>
        <time>2023-07-30T05:40:05.000Z</time>
      </trkpt>
      <trkpt lat="43.73287" lon="7.1032">
        <ele>412.79998779297</ele>
        <time>2023-07-30T05:40:06.000Z</time>
      </trkpt>
      <trkpt lat="43.73285" lon="7.10318">
        <ele>413</ele>
        <time>2023-07-30T05:40:07.000Z</time>
      </trkpt>
      <trkpt lat="43.73282" lon="7.10317">
        <ele>413.39999389648</ele>
        <time>2023-07-30T05:40:08.000Z</time>
      </trkpt>
      <trkpt lat="43.7328" lon="7.10315">
        <ele>413.60000610352</ele>
        <time>2023-07-30T05:40:09.000Z</time>
      </trkpt>
      <trkpt lat="43.73278" lon="7.10313">
        <ele>413.79998779297</ele>
        <time>2023-07-30T05:40:10.000Z</time>
      </trkpt>
      <trkpt lat="43.73276" lon="7.10311">
        <ele>414</ele>
        <time>2023-07-30T05:40:11.000Z</time>
      </trkpt>
      <trkpt lat="43.73275" lon="7.10308">
        <ele>414.20001220703</ele>
        <time>2023-07-30T05:40:12.000Z</time>
      </trkpt>
      <trkpt lat="43.73273" lon="7.10306">
        <ele>414.39999389648</ele>
        <time>2023-07-30T05:40:13.000Z</time>
      </trkpt>
      <trkpt lat="43.73271" lon="7.10303">
        <ele>415</ele>
        <time>2023-07-30T05:40:14.000Z</time>
      </trkpt>
      <trkpt lat="43.7327" lon="7.103">
        <ele>415.20001220703</ele>
        <time>2023-07-30T05:40:15.000Z</time>
      </trkpt>
      <trkpt lat="43.73268" lon="7.10297">
        <ele>415.20001220703</ele>
        <time>2023-07-30T05:40:16.000Z</time>
      </trkpt>
      <trkpt lat="43.73266" lon="7.10295">
        <ele>415.39999389648</ele>
        <time>2023-07-30T05:40:17.000Z</time>
      </trkpt>
      <trkpt lat="43.73264" lon="7.10291">
        <ele>415.79998779297</ele>
        <time>2023-07-30T05:40:18.000Z</time>
      </trkpt>
      <trkpt lat="43.73263" lon="7.10289">
        <ele>416</ele>
        <time>2023-07-30T05:40:19.000Z</time>
      </trkpt>
      <trkpt lat="43.73262" lon="7.10286">
        <ele>416.39999389648</ele>
        <time>2023-07-30T05:40:20.000Z</time>
      </trkpt>
      <trkpt lat="43.73261" lon="7.10284">
        <ele>416.60000610352</ele>
        <time>2023-07-30T05:40:21.000Z</time>
      </trkpt>
      <trkpt lat="43.7326" lon="7.10281">
        <ele>417</ele>
        <time>2023-07-30T05:40:22.000Z</time>
      </trkpt>
      <trkpt lat="43.73259" lon="7.10278">
        <ele>417.20001220703</ele>
        <time>2023-07-30T05:40:23.000Z</time>
      </trkpt>
      <trkpt lat="43.73258" lon="7.10276">
        <ele>417.60000610352</ele>
        <time>2023-07-30T05:40:24.000Z</time>
      </trkpt>
      <trkpt lat="43.73257" lon="7.10273">
        <ele>417.79998779297</ele>
        <time>2023-07-30T05:40:25.000Z</time>
      </trkpt>
      <trkpt lat="43.73255" lon="7.1027">
        <ele>418.20001220703</ele>
        <time>2023-07-30T05:40:26.000Z</time>
      </trkpt>
      <trkpt lat="43.73254" lon="7.10266">
        <ele>418.60000610352</ele>
        <time>2023-07-30T05:40:27.000Z</time>
      </trkpt>
      <trkpt lat="43.73256" lon="7.10263">
        <ele>418.79998779297</ele>
        <time>2023-07-30T05:40:28.000Z</time>
      </trkpt>
      <trkpt lat="43.73257" lon="7.10262">
        <ele>419</ele>
        <time>2023-07-30T05:40:29.000Z</time>
      </trkpt>
      <trkpt lat="43.73259" lon="7.10263">
        <ele>419.20001220703</ele>
        <time>2023-07-30T05:40:30.000Z</time>
      </trkpt>
      <trkpt lat="43.7326" lon="7.10265">
        <ele>419.39999389648</ele>
        <time>2023-07-30T05:40:31.000Z</time>
      </trkpt>
      <trkpt lat="43.73261" lon="7.10268">
        <ele>419.79998779297</ele>
        <time>2023-07-30T05:40:32.000Z</time>
      </trkpt>
      <trkpt lat="43.73262" lon="7.1027">
        <ele>420.39999389648</ele>
        <time>2023-07-30T05:40:33.000Z</time>
      </trkpt>
      <trkpt lat="43.73264" lon="7.10273">
        <ele>420.60000610352</ele>
        <time>2023-07-30T05:40:34.000Z</time>
      </trkpt>
      <trkpt lat="43.73266" lon="7.10275">
        <ele>420.79998779297</ele>
        <time>2023-07-30T05:40:35.000Z</time>
      </trkpt>
      <trkpt lat="43.73268" lon="7.10276">
        <ele>421</ele>
        <time>2023-07-30T05:40:36.000Z</time>
      </trkpt>
      <trkpt lat="43.73269" lon="7.10279">
        <ele>421.39999389648</ele>
        <time>2023-07-30T05:40:37.000Z</time>
      </trkpt>
      <trkpt lat="43.73271" lon="7.10281">
        <ele>421.39999389648</ele>
        <time>2023-07-30T05:40:38.000Z</time>
      </trkpt>
      <trkpt lat="43.73272" lon="7.10283">
        <ele>421.60000610352</ele>
        <time>2023-07-30T05:40:39.000Z</time>
      </trkpt>
      <trkpt lat="43.73274" lon="7.10285">
        <ele>421.79998779297</ele>
        <time>2023-07-30T05:40:40.000Z</time>
      </trkpt>
      <trkpt lat="43.73276" lon="7.10287">
        <ele>422.20001220703</ele>
        <time>2023-07-30T05:40:41.000Z</time>
      </trkpt>
      <trkpt lat="43.73278" lon="7.10288">
        <ele>422.39999389648</ele>
        <time>2023-07-30T05:40:42.000Z</time>
      </trkpt>
      <trkpt lat="43.7328" lon="7.1029">
        <ele>422.79998779297</ele>
        <time>2023-07-30T05:40:43.000Z</time>
      </trkpt>
      <trkpt lat="43.73283" lon="7.10291">
        <ele>423.20001220703</ele>
        <time>2023-07-30T05:40:44.000Z</time>
      </trkpt>
      <trkpt lat="43.73285" lon="7.10291">
        <ele>423.39999389648</ele>
        <time>2023-07-30T05:40:45.000Z</time>
      </trkpt>
      <trkpt lat="43.73287" lon="7.10291">
        <ele>423.60000610352</ele>
        <time>2023-07-30T05:40:46.000Z</time>
      </trkpt>
      <trkpt lat="43.73289" lon="7.10291">
        <ele>423.79998779297</ele>
        <time>2023-07-30T05:40:47.000Z</time>
      </trkpt>
      <trkpt lat="43.73291" lon="7.10291">
        <ele>424.39999389648</ele>
        <time>2023-07-30T05:40:48.000Z</time>
      </trkpt>
      <trkpt lat="43.73294" lon="7.10291">
        <ele>424.39999389648</ele>
        <time>2023-07-30T05:40:49.000Z</time>
      </trkpt>
      <trkpt lat="43.73296" lon="7.1029">
        <ele>424.60000610352</ele>
        <time>2023-07-30T05:40:50.000Z</time>
      </trkpt>
      <trkpt lat="43.73298" lon="7.10289">
        <ele>424.79998779297</ele>
        <time>2023-07-30T05:40:51.000Z</time>
      </trkpt>
      <trkpt lat="43.733" lon="7.10288">
        <ele>425.20001220703</ele>
        <time>2023-07-30T05:40:52.000Z</time>
      </trkpt>
      <trkpt lat="43.73303" lon="7.10286">
        <ele>425.39999389648</ele>
        <time>2023-07-30T05:40:53.000Z</time>
      </trkpt>
      <trkpt lat="43.73305" lon="7.10286">
        <ele>425.60000610352</ele>
        <time>2023-07-30T05:40:54.000Z</time>
      </trkpt>
      <trkpt lat="43.73308" lon="7.10285">
        <ele>425.79998779297</ele>
        <time>2023-07-30T05:40:55.000Z</time>
      </trkpt>
      <trkpt lat="43.7331" lon="7.10284">
        <ele>426</ele>
        <time>2023-07-30T05:40:56.000Z</time>
      </trkpt>
      <trkpt lat="43.73313" lon="7.10284">
        <ele>426.20001220703</ele>
        <time>2023-07-30T05:40:57.000Z</time>
      </trkpt>
      <trkpt lat="43.73315" lon="7.10284">
        <ele>426.39999389648</ele>
        <time>2023-07-30T05:40:58.000Z</time>
      </trkpt>
      <trkpt lat="43.73317" lon="7.10283">
        <ele>426.60000610352</ele>
        <time>2023-07-30T05:40:59.000Z</time>
      </trkpt>
      <trkpt lat="43.73319" lon="7.10282">
        <ele>426.60000610352</ele>
        <time>2023-07-30T05:41:00.000Z</time>
      </trkpt>
      <trkpt lat="43.73322" lon="7.10282">
        <ele>427</ele>
        <time>2023-07-30T05:41:01.000Z</time>
      </trkpt>
      <trkpt lat="43.73323" lon="7.10282">
        <ele>427.39999389648</ele>
        <time>2023-07-30T05:41:02.000Z</time>
      </trkpt>
      <trkpt lat="43.73325" lon="7.10282">
        <ele>427.39999389648</ele>
        <time>2023-07-30T05:41:03.000Z</time>
      </trkpt>
      <trkpt lat="43.73327" lon="7.10281">
        <ele>427.79998779297</ele>
        <time>2023-07-30T05:41:04.000Z</time>
      </trkpt>
      <trkpt lat="43.73329" lon="7.1028">
        <ele>428.20001220703</ele>
        <time>2023-07-30T05:41:05.000Z</time>
      </trkpt>
      <trkpt lat="43.73332" lon="7.1028">
        <ele>428.60000610352</ele>
        <time>2023-07-30T05:41:06.000Z</time>
      </trkpt>
      <trkpt lat="43.73334" lon="7.10279">
        <ele>428.60000610352</ele>
        <time>2023-07-30T05:41:07.000Z</time>
      </trkpt>
      <trkpt lat="43.73336" lon="7.10279">
        <ele>429</ele>
        <time>2023-07-30T05:41:08.000Z</time>
      </trkpt>
      <trkpt lat="43.73338" lon="7.10278">
        <ele>429.20001220703</ele>
        <time>2023-07-30T05:41:09.000Z</time>
      </trkpt>
      <trkpt lat="43.73341" lon="7.10278">
        <ele>429.39999389648</ele>
        <time>2023-07-30T05:41:10.000Z</time>
      </trkpt>
      <trkpt lat="43.73343" lon="7.10277">
        <ele>429.79998779297</ele>
        <time>2023-07-30T05:41:11.000Z</time>
      </trkpt>
      <trkpt lat="43.73346" lon="7.10276">
        <ele>430</ele>
        <time>2023-07-30T05:41:12.000Z</time>
      </trkpt>
      <trkpt lat="43.73349" lon="7.10275">
        <ele>430.20001220703</ele>
        <time>2023-07-30T05:41:13.000Z</time>
      </trkpt>
      <trkpt lat="43.73351" lon="7.10273">
        <ele>430.60000610352</ele>
        <time>2023-07-30T05:41:14.000Z</time>
      </trkpt>
      <trkpt lat="43.73353" lon="7.10272">
        <ele>430.79998779297</ele>
        <time>2023-07-30T05:41:15.000Z</time>
      </trkpt>
      <trkpt lat="43.73355" lon="7.10272">
        <ele>431</ele>
        <time>2023-07-30T05:41:16.000Z</time>
      </trkpt>
      <trkpt lat="43.73358" lon="7.10272">
        <ele>431.39999389648</ele>
        <time>2023-07-30T05:41:17.000Z</time>
      </trkpt>
      <trkpt lat="43.73361" lon="7.10272">
        <ele>431.60000610352</ele>
        <time>2023-07-30T05:41:18.000Z</time>
      </trkpt>
      <trkpt lat="43.73363" lon="7.10271">
        <ele>431.79998779297</ele>
        <time>2023-07-30T05:41:19.000Z</time>
      </trkpt>
      <trkpt lat="43.73364" lon="7.1027">
        <ele>432</ele>
        <time>2023-07-30T05:41:20.000Z</time>
      </trkpt>
      <trkpt lat="43.73366" lon="7.10269">
        <ele>432.39999389648</ele>
        <time>2023-07-30T05:41:21.000Z</time>
      </trkpt>
      <trkpt lat="43.73368" lon="7.10269">
        <ele>432.39999389648</ele>
        <time>2023-07-30T05:41:22.000Z</time>
      </trkpt>
      <trkpt lat="43.7337" lon="7.10268">
        <ele>432.79998779297</ele>
        <time>2023-07-30T05:41:23.000Z</time>
      </trkpt>
      <trkpt lat="43.73371" lon="7.10267">
        <ele>433</ele>
        <time>2023-07-30T05:41:24.000Z</time>
      </trkpt>
      <trkpt lat="43.73372" lon="7.10263">
        <ele>433.39999389648</ele>
        <time>2023-07-30T05:41:25.000Z</time>
      </trkpt>
      <trkpt lat="43.73371" lon="7.1026">
        <ele>433.60000610352</ele>
        <time>2023-07-30T05:41:26.000Z</time>
      </trkpt>
      <trkpt lat="43.7337" lon="7.10258">
        <ele>433.79998779297</ele>
        <time>2023-07-30T05:41:27.000Z</time>
      </trkpt>
      <trkpt lat="43.73368" lon="7.10257">
        <ele>434</ele>
        <time>2023-07-30T05:41:28.000Z</time>
      </trkpt>
      <trkpt lat="43.73365" lon="7.10257">
        <ele>434.20001220703</ele>
        <time>2023-07-30T05:41:29.000Z</time>
      </trkpt>
      <trkpt lat="43.73363" lon="7.10256">
        <ele>434.60000610352</ele>
        <time>2023-07-30T05:41:30.000Z</time>
      </trkpt>
      <trkpt lat="43.73361" lon="7.10255">
        <ele>434.79998779297</ele>
        <time>2023-07-30T05:41:31.000Z</time>
      </trkpt>
      <trkpt lat="43.7336" lon="7.10254">
        <ele>435</ele>
        <time>2023-07-30T05:41:32.000Z</time>
      </trkpt>
      <trkpt lat="43.73357" lon="7.10253">
        <ele>435.39999389648</ele>
        <time>2023-07-30T05:41:33.000Z</time>
      </trkpt>
      <trkpt lat="43.73356" lon="7.10252">
        <ele>435.60000610352</ele>
        <time>2023-07-30T05:41:34.000Z</time>
      </trkpt>
      <trkpt lat="43.73354" lon="7.10251">
        <ele>436</ele>
        <time>2023-07-30T05:41:35.000Z</time>
      </trkpt>
      <trkpt lat="43.73353" lon="7.1025">
        <ele>436.20001220703</ele>
        <time>2023-07-30T05:41:36.000Z</time>
      </trkpt>
      <trkpt lat="43.73351" lon="7.10249">
        <ele>436.60000610352</ele>
        <time>2023-07-30T05:41:37.000Z</time>
      </trkpt>
      <trkpt lat="43.7335" lon="7.10246">
        <ele>437.20001220703</ele>
        <time>2023-07-30T05:41:38.000Z</time>
      </trkpt>
      <trkpt lat="43.73348" lon="7.10244">
        <ele>437.60000610352</ele>
        <time>2023-07-30T05:41:39.000Z</time>
      </trkpt>
      <trkpt lat="43.73346" lon="7.10242">
        <ele>437.79998779297</ele>
        <time>2023-07-30T05:41:40.000Z</time>
      </trkpt>
      <trkpt lat="43.73345" lon="7.1024">
        <ele>438.20001220703</ele>
        <time>2023-07-30T05:41:41.000Z</time>
      </trkpt>
      <trkpt lat="43.73343" lon="7.10239">
        <ele>438.60000610352</ele>
        <time>2023-07-30T05:41:42.000Z</time>
      </trkpt>
      <trkpt lat="43.73342" lon="7.10236">
        <ele>439</ele>
        <time>2023-07-30T05:41:43.000Z</time>
      </trkpt>
      <trkpt lat="43.73341" lon="7.10234">
        <ele>439.39999389648</ele>
        <time>2023-07-30T05:41:44.000Z</time>
      </trkpt>
      <trkpt lat="43.73339" lon="7.10232">
        <ele>439.39999389648</ele>
        <time>2023-07-30T05:41:45.000Z</time>
      </trkpt>
      <trkpt lat="43.73338" lon="7.10229">
        <ele>439.60000610352</ele>
        <time>2023-07-30T05:41:46.000Z</time>
      </trkpt>
      <trkpt lat="43.73336" lon="7.10226">
        <ele>440</ele>
        <time>2023-07-30T05:41:47.000Z</time>
      </trkpt>
      <trkpt lat="43.73336" lon="7.10224">
        <ele>440.39999389648</ele>
        <time>2023-07-30T05:41:48.000Z</time>
      </trkpt>
      <trkpt lat="43.73334" lon="7.10221">
        <ele>440.79998779297</ele>
        <time>2023-07-30T05:41:49.000Z</time>
      </trkpt>
      <trkpt lat="43.73333" lon="7.10218">
        <ele>441</ele>
        <time>2023-07-30T05:41:50.000Z</time>
      </trkpt>
      <trkpt lat="43.73332" lon="7.10216">
        <ele>441.20001220703</ele>
        <time>2023-07-30T05:41:51.000Z</time>
      </trkpt>
      <trkpt lat="43.73331" lon="7.10214">
        <ele>441.39999389648</ele>
        <time>2023-07-30T05:41:52.000Z</time>
      </trkpt>
      <trkpt lat="43.7333" lon="7.10211">
        <ele>441.60000610352</ele>
        <time>2023-07-30T05:41:53.000Z</time>
      </trkpt>
      <trkpt lat="43.73328" lon="7.10208">
        <ele>441.79998779297</ele>
        <time>2023-07-30T05:41:54.000Z</time>
      </trkpt>
      <trkpt lat="43.73327" lon="7.10204">
        <ele>442</ele>
        <time>2023-07-30T05:41:55.000Z</time>
      </trkpt>
      <trkpt lat="43.73327" lon="7.10201">
        <ele>442.20001220703</ele>
        <time>2023-07-30T05:41:56.000Z</time>
      </trkpt>
      <trkpt lat="43.73326" lon="7.10197">
        <ele>442.60000610352</ele>
        <time>2023-07-30T05:41:57.000Z</time>
      </trkpt>
      <trkpt lat="43.73325" lon="7.10194">
        <ele>442.79998779297</ele>
        <time>2023-07-30T05:41:58.000Z</time>
      </trkpt>
      <trkpt lat="43.73324" lon="7.10191">
        <ele>443</ele>
        <time>2023-07-30T05:41:59.000Z</time>
      </trkpt>
      <trkpt lat="43.73323" lon="7.10188">
        <ele>443</ele>
        <time>2023-07-30T05:42:00.000Z</time>
      </trkpt>
      <trkpt lat="43.73322" lon="7.10184">
        <ele>443.20001220703</ele>
        <time>2023-07-30T05:42:01.000Z</time>
      </trkpt>
      <trkpt lat="43.7332" lon="7.10181">
        <ele>443.20001220703</ele>
        <time>2023-07-30T05:42:02.000Z</time>
      </trkpt>
      <trkpt lat="43.73319" lon="7.10178">
        <ele>443.39999389648</ele>
        <time>2023-07-30T05:42:03.000Z</time>
      </trkpt>
      <trkpt lat="43.73318" lon="7.10175">
        <ele>443.39999389648</ele>
        <time>2023-07-30T05:42:04.000Z</time>
      </trkpt>
      <trkpt lat="43.73317" lon="7.10172">
        <ele>443.60000610352</ele>
        <time>2023-07-30T05:42:05.000Z</time>
      </trkpt>
      <trkpt lat="43.73316" lon="7.10168">
        <ele>443.60000610352</ele>
        <time>2023-07-30T05:42:06.000Z</time>
      </trkpt>
      <trkpt lat="43.73315" lon="7.10165">
        <ele>443.60000610352</ele>
        <time>2023-07-30T05:42:07.000Z</time>
      </trkpt>
      <trkpt lat="43.73314" lon="7.10162">
        <ele>443.79998779297</ele>
        <time>2023-07-30T05:42:08.000Z</time>
      </trkpt>
      <trkpt lat="43.73312" lon="7.10159">
        <ele>443.79998779297</ele>
        <time>2023-07-30T05:42:09.000Z</time>
      </trkpt>
      <trkpt lat="43.73311" lon="7.10156">
        <ele>444</ele>
        <time>2023-07-30T05:42:10.000Z</time>
      </trkpt>
      <trkpt lat="43.7331" lon="7.10153">
        <ele>444.20001220703</ele>
        <time>2023-07-30T05:42:11.000Z</time>
      </trkpt>
      <trkpt lat="43.73309" lon="7.1015">
        <ele>444.39999389648</ele>
        <time>2023-07-30T05:42:12.000Z</time>
      </trkpt>
      <trkpt lat="43.73308" lon="7.10147">
        <ele>444.39999389648</ele>
        <time>2023-07-30T05:42:13.000Z</time>
      </trkpt>
      <trkpt lat="43.73307" lon="7.10143">
        <ele>444.60000610352</ele>
        <time>2023-07-30T05:42:14.000Z</time>
      </trkpt>
      <trkpt lat="43.73306" lon="7.1014">
        <ele>444.79998779297</ele>
        <time>2023-07-30T05:42:15.000Z</time>
      </trkpt>
      <trkpt lat="43.73305" lon="7.10137">
        <ele>445</ele>
        <time>2023-07-30T05:42:16.000Z</time>
      </trkpt>
      <trkpt lat="43.73304" lon="7.10134">
        <ele>445.20001220703</ele>
        <time>2023-07-30T05:42:17.000Z</time>
      </trkpt>
      <trkpt lat="43.73303" lon="7.10131">
        <ele>445.20001220703</ele>
        <time>2023-07-30T05:42:18.000Z</time>
      </trkpt>
      <trkpt lat="43.73301" lon="7.10128">
        <ele>445.39999389648</ele>
        <time>2023-07-30T05:42:19.000Z</time>
      </trkpt>
      <trkpt lat="43.733" lon="7.10126">
        <ele>445.60000610352</ele>
        <time>2023-07-30T05:42:20.000Z</time>
      </trkpt>
      <trkpt lat="43.73299" lon="7.10122">
        <ele>445.79998779297</ele>
        <time>2023-07-30T05:42:21.000Z</time>
      </trkpt>
      <trkpt lat="43.73297" lon="7.1012">
        <ele>446.20001220703</ele>
        <time>2023-07-30T05:42:22.000Z</time>
      </trkpt>
      <trkpt lat="43.73295" lon="7.10117">
        <ele>446.20001220703</ele>
        <time>2023-07-30T05:42:23.000Z</time>
      </trkpt>
      <trkpt lat="43.73293" lon="7.10115">
        <ele>446.39999389648</ele>
        <time>2023-07-30T05:42:24.000Z</time>
      </trkpt>
      <trkpt lat="43.73291" lon="7.10112">
        <ele>446.60000610352</ele>
        <time>2023-07-30T05:42:25.000Z</time>
      </trkpt>
      <trkpt lat="43.73289" lon="7.1011">
        <ele>446.60000610352</ele>
        <time>2023-07-30T05:42:26.000Z</time>
      </trkpt>
      <trkpt lat="43.73287" lon="7.10107">
        <ele>446.60000610352</ele>
        <time>2023-07-30T05:42:27.000Z</time>
      </trkpt>
      <trkpt lat="43.73285" lon="7.10104">
        <ele>446.79998779297</ele>
        <time>2023-07-30T05:42:28.000Z</time>
      </trkpt>
      <trkpt lat="43.73282" lon="7.10102">
        <ele>446.79998779297</ele>
        <time>2023-07-30T05:42:29.000Z</time>
      </trkpt>
      <trkpt lat="43.7328" lon="7.10099">
        <ele>446.79998779297</ele>
        <time>2023-07-30T05:42:30.000Z</time>
      </trkpt>
      <trkpt lat="43.73278" lon="7.10096">
        <ele>446.79998779297</ele>
        <time>2023-07-30T05:42:31.000Z</time>
      </trkpt>
      <trkpt lat="43.73275" lon="7.10094">
        <ele>446.79998779297</ele>
        <time>2023-07-30T05:42:32.000Z</time>
      </trkpt>
      <trkpt lat="43.73273" lon="7.10091">
        <ele>446.79998779297</ele>
        <time>2023-07-30T05:42:33.000Z</time>
      </trkpt>
      <trkpt lat="43.73271" lon="7.10088">
        <ele>446.79998779297</ele>
        <time>2023-07-30T05:42:34.000Z</time>
      </trkpt>
      <trkpt lat="43.73269" lon="7.10085">
        <ele>446.79998779297</ele>
        <time>2023-07-30T05:42:35.000Z</time>
      </trkpt>
      <trkpt lat="43.73267" lon="7.10082">
        <ele>446.79998779297</ele>
        <time>2023-07-30T05:42:36.000Z</time>
      </trkpt>
      <trkpt lat="43.73264" lon="7.10079">
        <ele>446.79998779297</ele>
        <time>2023-07-30T05:42:37.000Z</time>
      </trkpt>
      <trkpt lat="43.73262" lon="7.10076">
        <ele>446.79998779297</ele>
        <time>2023-07-30T05:42:38.000Z</time>
      </trkpt>
      <trkpt lat="43.7326" lon="7.10073">
        <ele>446.79998779297</ele>
        <time>2023-07-30T05:42:39.000Z</time>
      </trkpt>
      <trkpt lat="43.73258" lon="7.10069">
        <ele>446.60000610352</ele>
        <time>2023-07-30T05:42:40.000Z</time>
      </trkpt>
      <trkpt lat="43.73256" lon="7.10066">
        <ele>446.60000610352</ele>
        <time>2023-07-30T05:42:41.000Z</time>
      </trkpt>
      <trkpt lat="43.73255" lon="7.10062">
        <ele>446.60000610352</ele>
        <time>2023-07-30T05:42:42.000Z</time>
      </trkpt>
      <trkpt lat="43.73254" lon="7.10058">
        <ele>446.60000610352</ele>
        <time>2023-07-30T05:42:43.000Z</time>
      </trkpt>
      <trkpt lat="43.73253" lon="7.10054">
        <ele>446.60000610352</ele>
        <time>2023-07-30T05:42:44.000Z</time>
      </trkpt>
      <trkpt lat="43.73252" lon="7.1005">
        <ele>446.60000610352</ele>
        <time>2023-07-30T05:42:45.000Z</time>
      </trkpt>
      <trkpt lat="43.73251" lon="7.10046">
        <ele>446.60000610352</ele>
        <time>2023-07-30T05:42:46.000Z</time>
      </trkpt>
      <trkpt lat="43.73249" lon="7.10042">
        <ele>446.60000610352</ele>
        <time>2023-07-30T05:42:47.000Z</time>
      </trkpt>
      <trkpt lat="43.73248" lon="7.10038">
        <ele>446.60000610352</ele>
        <time>2023-07-30T05:42:48.000Z</time>
      </trkpt>
      <trkpt lat="43.73246" lon="7.10034">
        <ele>446.60000610352</ele>
        <time>2023-07-30T05:42:49.000Z</time>
      </trkpt>
      <trkpt lat="43.73244" lon="7.1003">
        <ele>446.60000610352</ele>
        <time>2023-07-30T05:42:50.000Z</time>
      </trkpt>
      <trkpt lat="43.73242" lon="7.10028">
        <ele>446.60000610352</ele>
        <time>2023-07-30T05:42:51.000Z</time>
      </trkpt>
      <trkpt lat="43.73239" lon="7.10026">
        <ele>446.79998779297</ele>
        <time>2023-07-30T05:42:52.000Z</time>
      </trkpt>
      <trkpt lat="43.73236" lon="7.10024">
        <ele>447</ele>
        <time>2023-07-30T05:42:53.000Z</time>
      </trkpt>
      <trkpt lat="43.73234" lon="7.10022">
        <ele>447.20001220703</ele>
        <time>2023-07-30T05:42:54.000Z</time>
      </trkpt>
      <trkpt lat="43.73231" lon="7.1002">
        <ele>447.39999389648</ele>
        <time>2023-07-30T05:42:55.000Z</time>
      </trkpt>
      <trkpt lat="43.73228" lon="7.10017">
        <ele>447.60000610352</ele>
        <time>2023-07-30T05:42:56.000Z</time>
      </trkpt>
      <trkpt lat="43.73226" lon="7.10015">
        <ele>448</ele>
        <time>2023-07-30T05:42:57.000Z</time>
      </trkpt>
      <trkpt lat="43.73224" lon="7.10013">
        <ele>448.20001220703</ele>
        <time>2023-07-30T05:42:58.000Z</time>
      </trkpt>
      <trkpt lat="43.73222" lon="7.10011">
        <ele>448.60000610352</ele>
        <time>2023-07-30T05:42:59.000Z</time>
      </trkpt>
      <trkpt lat="43.7322" lon="7.10009">
        <ele>448.79998779297</ele>
        <time>2023-07-30T05:43:00.000Z</time>
      </trkpt>
      <trkpt lat="43.73218" lon="7.10007">
        <ele>449.39999389648</ele>
        <time>2023-07-30T05:43:01.000Z</time>
      </trkpt>
      <trkpt lat="43.73216" lon="7.10004">
        <ele>449.60000610352</ele>
        <time>2023-07-30T05:43:02.000Z</time>
      </trkpt>
      <trkpt lat="43.73215" lon="7.10002">
        <ele>450.20001220703</ele>
        <time>2023-07-30T05:43:03.000Z</time>
      </trkpt>
      <trkpt lat="43.73213" lon="7.1">
        <ele>450.60000610352</ele>
        <time>2023-07-30T05:43:04.000Z</time>
      </trkpt>
      <trkpt lat="43.7321" lon="7.09997">
        <ele>451</ele>
        <time>2023-07-30T05:43:05.000Z</time>
      </trkpt>
      <trkpt lat="43.73208" lon="7.09996">
        <ele>451.39999389648</ele>
        <time>2023-07-30T05:43:06.000Z</time>
      </trkpt>
      <trkpt lat="43.73206" lon="7.09995">
        <ele>451.79998779297</ele>
        <time>2023-07-30T05:43:07.000Z</time>
      </trkpt>
      <trkpt lat="43.73203" lon="7.09995">
        <ele>452.20001220703</ele>
        <time>2023-07-30T05:43:08.000Z</time>
      </trkpt>
      <trkpt lat="43.73201" lon="7.09994">
        <ele>452.79998779297</ele>
        <time>2023-07-30T05:43:09.000Z</time>
      </trkpt>
      <trkpt lat="43.73198" lon="7.09994">
        <ele>453.20001220703</ele>
        <time>2023-07-30T05:43:10.000Z</time>
      </trkpt>
      <trkpt lat="43.73196" lon="7.09993">
        <ele>453.39999389648</ele>
        <time>2023-07-30T05:43:11.000Z</time>
      </trkpt>
      <trkpt lat="43.73194" lon="7.09993">
        <ele>454</ele>
        <time>2023-07-30T05:43:12.000Z</time>
      </trkpt>
      <trkpt lat="43.73192" lon="7.09992">
        <ele>454.39999389648</ele>
        <time>2023-07-30T05:43:13.000Z</time>
      </trkpt>
      <trkpt lat="43.73189" lon="7.09992">
        <ele>454.39999389648</ele>
        <time>2023-07-30T05:43:14.000Z</time>
      </trkpt>
      <trkpt lat="43.73187" lon="7.09991">
        <ele>454.79998779297</ele>
        <time>2023-07-30T05:43:15.000Z</time>
      </trkpt>
      <trkpt lat="43.73185" lon="7.09991">
        <ele>455.39999389648</ele>
        <time>2023-07-30T05:43:16.000Z</time>
      </trkpt>
      <trkpt lat="43.73183" lon="7.0999">
        <ele>455.79998779297</ele>
        <time>2023-07-30T05:43:17.000Z</time>
      </trkpt>
      <trkpt lat="43.73181" lon="7.09989">
        <ele>456.39999389648</ele>
        <time>2023-07-30T05:43:18.000Z</time>
      </trkpt>
      <trkpt lat="43.7318" lon="7.09988">
        <ele>457</ele>
        <time>2023-07-30T05:43:19.000Z</time>
      </trkpt>
      <trkpt lat="43.73178" lon="7.09986">
        <ele>457.39999389648</ele>
        <time>2023-07-30T05:43:20.000Z</time>
      </trkpt>
      <trkpt lat="43.73176" lon="7.09986">
        <ele>457.79998779297</ele>
        <time>2023-07-30T05:43:21.000Z</time>
      </trkpt>
      <trkpt lat="43.73174" lon="7.09987">
        <ele>458.20001220703</ele>
        <time>2023-07-30T05:43:22.000Z</time>
      </trkpt>
      <trkpt lat="43.73173" lon="7.09987">
        <ele>458.60000610352</ele>
        <time>2023-07-30T05:43:23.000Z</time>
      </trkpt>
      <trkpt lat="43.73171" lon="7.09985">
        <ele>459</ele>
        <time>2023-07-30T05:43:24.000Z</time>
      </trkpt>
      <trkpt lat="43.73171" lon="7.09982">
        <ele>459.39999389648</ele>
        <time>2023-07-30T05:43:25.000Z</time>
      </trkpt>
      <trkpt lat="43.73172" lon="7.0998">
        <ele>459.60000610352</ele>
        <time>2023-07-30T05:43:26.000Z</time>
      </trkpt>
      <trkpt lat="43.73173" lon="7.0998">
        <ele>460</ele>
        <time>2023-07-30T05:43:27.000Z</time>
      </trkpt>
      <trkpt lat="43.73175" lon="7.0998">
        <ele>460.20001220703</ele>
        <time>2023-07-30T05:43:28.000Z</time>
      </trkpt>
      <trkpt lat="43.73177" lon="7.09979">
        <ele>460.60000610352</ele>
        <time>2023-07-30T05:43:29.000Z</time>
      </trkpt>
      <trkpt lat="43.73179" lon="7.09978">
        <ele>461</ele>
        <time>2023-07-30T05:43:30.000Z</time>
      </trkpt>
      <trkpt lat="43.7318" lon="7.09977">
        <ele>461.39999389648</ele>
        <time>2023-07-30T05:43:31.000Z</time>
      </trkpt>
      <trkpt lat="43.73182" lon="7.09975">
        <ele>461.79998779297</ele>
        <time>2023-07-30T05:43:32.000Z</time>
      </trkpt>
      <trkpt lat="43.73183" lon="7.09973">
        <ele>462.20001220703</ele>
        <time>2023-07-30T05:43:33.000Z</time>
      </trkpt>
      <trkpt lat="43.73185" lon="7.09972">
        <ele>462.39999389648</ele>
        <time>2023-07-30T05:43:34.000Z</time>
      </trkpt>
      <trkpt lat="43.73186" lon="7.0997">
        <ele>462.79998779297</ele>
        <time>2023-07-30T05:43:35.000Z</time>
      </trkpt>
      <trkpt lat="43.73188" lon="7.09968">
        <ele>462.79998779297</ele>
        <time>2023-07-30T05:43:36.000Z</time>
      </trkpt>
      <trkpt lat="43.73189" lon="7.09966">
        <ele>463</ele>
        <time>2023-07-30T05:43:37.000Z</time>
      </trkpt>
      <trkpt lat="43.7319" lon="7.09964">
        <ele>463.39999389648</ele>
        <time>2023-07-30T05:43:38.000Z</time>
      </trkpt>
      <trkpt lat="43.7319" lon="7.0996">
        <ele>463.60000610352</ele>
        <time>2023-07-30T05:43:39.000Z</time>
      </trkpt>
      <trkpt lat="43.73191" lon="7.09957">
        <ele>463.79998779297</ele>
        <time>2023-07-30T05:43:40.000Z</time>
      </trkpt>
      <trkpt lat="43.7319" lon="7.09955">
        <ele>464.20001220703</ele>
        <time>2023-07-30T05:43:41.000Z</time>
      </trkpt>
      <trkpt lat="43.73189" lon="7.09952">
        <ele>464.60000610352</ele>
        <time>2023-07-30T05:43:42.000Z</time>
      </trkpt>
      <trkpt lat="43.73188" lon="7.09949">
        <ele>465</ele>
        <time>2023-07-30T05:43:43.000Z</time>
      </trkpt>
      <trkpt lat="43.73188" lon="7.09946">
        <ele>465.39999389648</ele>
        <time>2023-07-30T05:43:44.000Z</time>
      </trkpt>
      <trkpt lat="43.73188" lon="7.09942">
        <ele>466</ele>
        <time>2023-07-30T05:43:45.000Z</time>
      </trkpt>
      <trkpt lat="43.73188" lon="7.09938">
        <ele>466.39999389648</ele>
        <time>2023-07-30T05:43:46.000Z</time>
      </trkpt>
      <trkpt lat="43.73188" lon="7.09935">
        <ele>466.79998779297</ele>
        <time>2023-07-30T05:43:47.000Z</time>
      </trkpt>
      <trkpt lat="43.73189" lon="7.09931">
        <ele>467</ele>
        <time>2023-07-30T05:43:48.000Z</time>
      </trkpt>
      <trkpt lat="43.73188" lon="7.09928">
        <ele>467.39999389648</ele>
        <time>2023-07-30T05:43:49.000Z</time>
      </trkpt>
      <trkpt lat="43.73188" lon="7.09925">
        <ele>468</ele>
        <time>2023-07-30T05:43:50.000Z</time>
      </trkpt>
      <trkpt lat="43.73187" lon="7.09923">
        <ele>468.60000610352</ele>
        <time>2023-07-30T05:43:51.000Z</time>
      </trkpt>
      <trkpt lat="43.73186" lon="7.0992">
        <ele>469.20001220703</ele>
        <time>2023-07-30T05:43:52.000Z</time>
      </trkpt>
      <trkpt lat="43.73184" lon="7.09917">
        <ele>469.60000610352</ele>
        <time>2023-07-30T05:43:53.000Z</time>
      </trkpt>
      <trkpt lat="43.73183" lon="7.09915">
        <ele>470</ele>
        <time>2023-07-30T05:43:54.000Z</time>
      </trkpt>
      <trkpt lat="43.73182" lon="7.09912">
        <ele>470.39999389648</ele>
        <time>2023-07-30T05:43:55.000Z</time>
      </trkpt>
      <trkpt lat="43.73182" lon="7.09908">
        <ele>470.60000610352</ele>
        <time>2023-07-30T05:43:56.000Z</time>
      </trkpt>
      <trkpt lat="43.73182" lon="7.09905">
        <ele>471</ele>
        <time>2023-07-30T05:43:57.000Z</time>
      </trkpt>
      <trkpt lat="43.73183" lon="7.09901">
        <ele>471</ele>
        <time>2023-07-30T05:43:58.000Z</time>
      </trkpt>
      <trkpt lat="43.73183" lon="7.09898">
        <ele>471.20001220703</ele>
        <time>2023-07-30T05:43:59.000Z</time>
      </trkpt>
      <trkpt lat="43.73183" lon="7.09895">
        <ele>471.39999389648</ele>
        <time>2023-07-30T05:44:00.000Z</time>
      </trkpt>
      <trkpt lat="43.73183" lon="7.09892">
        <ele>471.79998779297</ele>
        <time>2023-07-30T05:44:01.000Z</time>
      </trkpt>
      <trkpt lat="43.73184" lon="7.09888">
        <ele>472</ele>
        <time>2023-07-30T05:44:02.000Z</time>
      </trkpt>
      <trkpt lat="43.73185" lon="7.09886">
        <ele>472.20001220703</ele>
        <time>2023-07-30T05:44:03.000Z</time>
      </trkpt>
      <trkpt lat="43.73185" lon="7.09882">
        <ele>472.39999389648</ele>
        <time>2023-07-30T05:44:04.000Z</time>
      </trkpt>
      <trkpt lat="43.73186" lon="7.0988">
        <ele>472.79998779297</ele>
        <time>2023-07-30T05:44:05.000Z</time>
      </trkpt>
      <trkpt lat="43.73186" lon="7.09877">
        <ele>473</ele>
        <time>2023-07-30T05:44:06.000Z</time>
      </trkpt>
      <trkpt lat="43.73187" lon="7.09874">
        <ele>473.39999389648</ele>
        <time>2023-07-30T05:44:07.000Z</time>
      </trkpt>
      <trkpt lat="43.73187" lon="7.09871">
        <ele>473.60000610352</ele>
        <time>2023-07-30T05:44:08.000Z</time>
      </trkpt>
      <trkpt lat="43.73187" lon="7.09869">
        <ele>474</ele>
        <time>2023-07-30T05:44:09.000Z</time>
      </trkpt>
      <trkpt lat="43.73188" lon="7.09866">
        <ele>474.39999389648</ele>
        <time>2023-07-30T05:44:10.000Z</time>
      </trkpt>
      <trkpt lat="43.7319" lon="7.09863">
        <ele>475</ele>
        <time>2023-07-30T05:44:11.000Z</time>
      </trkpt>
      <trkpt lat="43.73191" lon="7.09861">
        <ele>475</ele>
        <time>2023-07-30T05:44:12.000Z</time>
      </trkpt>
      <trkpt lat="43.73192" lon="7.09859">
        <ele>475.39999389648</ele>
        <time>2023-07-30T05:44:13.000Z</time>
      </trkpt>
      <trkpt lat="43.73193" lon="7.09856">
        <ele>475.79998779297</ele>
        <time>2023-07-30T05:44:14.000Z</time>
      </trkpt>
      <trkpt lat="43.73194" lon="7.09854">
        <ele>476.20001220703</ele>
        <time>2023-07-30T05:44:15.000Z</time>
      </trkpt>
      <trkpt lat="43.73195" lon="7.09851">
        <ele>476.60000610352</ele>
        <time>2023-07-30T05:44:16.000Z</time>
      </trkpt>
      <trkpt lat="43.73196" lon="7.09849">
        <ele>477</ele>
        <time>2023-07-30T05:44:17.000Z</time>
      </trkpt>
      <trkpt lat="43.73198" lon="7.09846">
        <ele>477.39999389648</ele>
        <time>2023-07-30T05:44:18.000Z</time>
      </trkpt>
      <trkpt lat="43.73199" lon="7.09844">
        <ele>477.79998779297</ele>
        <time>2023-07-30T05:44:19.000Z</time>
      </trkpt>
      <trkpt lat="43.732" lon="7.09841">
        <ele>478.39999389648</ele>
        <time>2023-07-30T05:44:20.000Z</time>
      </trkpt>
      <trkpt lat="43.73201" lon="7.09839">
        <ele>478.39999389648</ele>
        <time>2023-07-30T05:44:21.000Z</time>
      </trkpt>
      <trkpt lat="43.73202" lon="7.09836">
        <ele>479</ele>
        <time>2023-07-30T05:44:22.000Z</time>
      </trkpt>
      <trkpt lat="43.73203" lon="7.09833">
        <ele>479.39999389648</ele>
        <time>2023-07-30T05:44:23.000Z</time>
      </trkpt>
      <trkpt lat="43.73205" lon="7.0983">
        <ele>479.79998779297</ele>
        <time>2023-07-30T05:44:24.000Z</time>
      </trkpt>
      <trkpt lat="43.73206" lon="7.09827">
        <ele>480.60000610352</ele>
        <time>2023-07-30T05:44:25.000Z</time>
      </trkpt>
      <trkpt lat="43.73207" lon="7.09825">
        <ele>481</ele>
        <time>2023-07-30T05:44:26.000Z</time>
      </trkpt>
      <trkpt lat="43.73207" lon="7.09821">
        <ele>481.79998779297</ele>
        <time>2023-07-30T05:44:27.000Z</time>
      </trkpt>
      <trkpt lat="43.73207" lon="7.09817">
        <ele>482.39999389648</ele>
        <time>2023-07-30T05:44:28.000Z</time>
      </trkpt>
      <trkpt lat="43.73208" lon="7.09813">
        <ele>482.79998779297</ele>
        <time>2023-07-30T05:44:29.000Z</time>
      </trkpt>
      <trkpt lat="43.73208" lon="7.0981">
        <ele>483.60000610352</ele>
        <time>2023-07-30T05:44:30.000Z</time>
      </trkpt>
      <trkpt lat="43.73208" lon="7.09807">
        <ele>484</ele>
        <time>2023-07-30T05:44:31.000Z</time>
      </trkpt>
      <trkpt lat="43.73208" lon="7.09804">
        <ele>484.79998779297</ele>
        <time>2023-07-30T05:44:32.000Z</time>
      </trkpt>
      <trkpt lat="43.73207" lon="7.098">
        <ele>485.39999389648</ele>
        <time>2023-07-30T05:44:33.000Z</time>
      </trkpt>
      <trkpt lat="43.73206" lon="7.09796">
        <ele>486.20001220703</ele>
        <time>2023-07-30T05:44:34.000Z</time>
      </trkpt>
      <trkpt lat="43.73206" lon="7.09793">
        <ele>486.79998779297</ele>
        <time>2023-07-30T05:44:35.000Z</time>
      </trkpt>
      <trkpt lat="43.73206" lon="7.0979">
        <ele>487.20001220703</ele>
        <time>2023-07-30T05:44:36.000Z</time>
      </trkpt>
      <trkpt lat="43.73205" lon="7.09787">
        <ele>487.79998779297</ele>
        <time>2023-07-30T05:44:37.000Z</time>
      </trkpt>
      <trkpt lat="43.73203" lon="7.09785">
        <ele>488.20001220703</ele>
        <time>2023-07-30T05:44:38.000Z</time>
      </trkpt>
      <trkpt lat="43.73202" lon="7.09782">
        <ele>488.39999389648</ele>
        <time>2023-07-30T05:44:39.000Z</time>
      </trkpt>
      <trkpt lat="43.73201" lon="7.0978">
        <ele>488.79998779297</ele>
        <time>2023-07-30T05:44:40.000Z</time>
      </trkpt>
      <trkpt lat="43.732" lon="7.09777">
        <ele>489.20001220703</ele>
        <time>2023-07-30T05:44:41.000Z</time>
      </trkpt>
      <trkpt lat="43.73199" lon="7.09774">
        <ele>489.79998779297</ele>
        <time>2023-07-30T05:44:42.000Z</time>
      </trkpt>
      <trkpt lat="43.73198" lon="7.09771">
        <ele>489.79998779297</ele>
        <time>2023-07-30T05:44:43.000Z</time>
      </trkpt>
      <trkpt lat="43.73198" lon="7.09768">
        <ele>490.20001220703</ele>
        <time>2023-07-30T05:44:44.000Z</time>
      </trkpt>
      <trkpt lat="43.73198" lon="7.09764">
        <ele>490.60000610352</ele>
        <time>2023-07-30T05:44:45.000Z</time>
      </trkpt>
      <trkpt lat="43.73198" lon="7.0976">
        <ele>490.79998779297</ele>
        <time>2023-07-30T05:44:46.000Z</time>
      </trkpt>
      <trkpt lat="43.73199" lon="7.09758">
        <ele>491.20001220703</ele>
        <time>2023-07-30T05:44:47.000Z</time>
      </trkpt>
      <trkpt lat="43.73201" lon="7.09757">
        <ele>491.20001220703</ele>
        <time>2023-07-30T05:44:48.000Z</time>
      </trkpt>
      <trkpt lat="43.73203" lon="7.09756">
        <ele>491.60000610352</ele>
        <time>2023-07-30T05:44:49.000Z</time>
      </trkpt>
      <trkpt lat="43.73206" lon="7.09756">
        <ele>492.20001220703</ele>
        <time>2023-07-30T05:44:50.000Z</time>
      </trkpt>
      <trkpt lat="43.73208" lon="7.09754">
        <ele>492.60000610352</ele>
        <time>2023-07-30T05:44:51.000Z</time>
      </trkpt>
      <trkpt lat="43.73209" lon="7.09752">
        <ele>493.39999389648</ele>
        <time>2023-07-30T05:44:52.000Z</time>
      </trkpt>
      <trkpt lat="43.7321" lon="7.0975">
        <ele>494</ele>
        <time>2023-07-30T05:44:53.000Z</time>
      </trkpt>
      <trkpt lat="43.73212" lon="7.09748">
        <ele>494.60000610352</ele>
        <time>2023-07-30T05:44:54.000Z</time>
      </trkpt>
      <trkpt lat="43.73213" lon="7.09746">
        <ele>495.20001220703</ele>
        <time>2023-07-30T05:44:55.000Z</time>
      </trkpt>
      <trkpt lat="43.73213" lon="7.09743">
        <ele>495.79998779297</ele>
        <time>2023-07-30T05:44:56.000Z</time>
      </trkpt>
      <trkpt lat="43.73214" lon="7.09741">
        <ele>496.20001220703</ele>
        <time>2023-07-30T05:44:57.000Z</time>
      </trkpt>
      <trkpt lat="43.73214" lon="7.09738">
        <ele>496.39999389648</ele>
        <time>2023-07-30T05:44:58.000Z</time>
      </trkpt>
      <trkpt lat="43.73215" lon="7.09736">
        <ele>496.79998779297</ele>
        <time>2023-07-30T05:44:59.000Z</time>
      </trkpt>
      <trkpt lat="43.73216" lon="7.09733">
        <ele>497.20001220703</ele>
        <time>2023-07-30T05:45:00.000Z</time>
      </trkpt>
      <trkpt lat="43.73217" lon="7.09731">
        <ele>497.60000610352</ele>
        <time>2023-07-30T05:45:01.000Z</time>
      </trkpt>
      <trkpt lat="43.73219" lon="7.09728">
        <ele>497.60000610352</ele>
        <time>2023-07-30T05:45:02.000Z</time>
      </trkpt>
      <trkpt lat="43.7322" lon="7.09726">
        <ele>498</ele>
        <time>2023-07-30T05:45:03.000Z</time>
      </trkpt>
      <trkpt lat="43.73222" lon="7.09724">
        <ele>498.20001220703</ele>
        <time>2023-07-30T05:45:04.000Z</time>
      </trkpt>
      <trkpt lat="43.73222" lon="7.09721">
        <ele>498.60000610352</ele>
        <time>2023-07-30T05:45:05.000Z</time>
      </trkpt>
      <trkpt lat="43.73224" lon="7.09719">
        <ele>498.60000610352</ele>
        <time>2023-07-30T05:45:06.000Z</time>
      </trkpt>
      <trkpt lat="43.73225" lon="7.09717">
        <ele>499.20001220703</ele>
        <time>2023-07-30T05:45:07.000Z</time>
      </trkpt>
      <trkpt lat="43.73226" lon="7.09714">
        <ele>499.39999389648</ele>
        <time>2023-07-30T05:45:08.000Z</time>
      </trkpt>
      <trkpt lat="43.73227" lon="7.09711">
        <ele>499.60000610352</ele>
        <time>2023-07-30T05:45:09.000Z</time>
      </trkpt>
      <trkpt lat="43.73228" lon="7.09708">
        <ele>500</ele>
        <time>2023-07-30T05:45:10.000Z</time>
      </trkpt>
      <trkpt lat="43.73228" lon="7.09706">
        <ele>500.39999389648</ele>
        <time>2023-07-30T05:45:11.000Z</time>
      </trkpt>
      <trkpt lat="43.73228" lon="7.09705">
        <ele>500.79998779297</ele>
        <time>2023-07-30T05:45:12.000Z</time>
      </trkpt>
      <trkpt lat="43.73229" lon="7.09702">
        <ele>501.20001220703</ele>
        <time>2023-07-30T05:45:13.000Z</time>
      </trkpt>
      <trkpt lat="43.7323" lon="7.097">
        <ele>501.39999389648</ele>
        <time>2023-07-30T05:45:14.000Z</time>
      </trkpt>
      <trkpt lat="43.7323" lon="7.09697">
        <ele>501.60000610352</ele>
        <time>2023-07-30T05:45:15.000Z</time>
      </trkpt>
      <trkpt lat="43.73231" lon="7.09694">
        <ele>501.79998779297</ele>
        <time>2023-07-30T05:45:16.000Z</time>
      </trkpt>
      <trkpt lat="43.73232" lon="7.09691">
        <ele>502.20001220703</ele>
        <time>2023-07-30T05:45:17.000Z</time>
      </trkpt>
      <trkpt lat="43.73232" lon="7.09688">
        <ele>502.20001220703</ele>
        <time>2023-07-30T05:45:18.000Z</time>
      </trkpt>
      <trkpt lat="43.73233" lon="7.09686">
        <ele>502.39999389648</ele>
        <time>2023-07-30T05:45:19.000Z</time>
      </trkpt>
      <trkpt lat="43.73233" lon="7.09683">
        <ele>502.39999389648</ele>
        <time>2023-07-30T05:45:20.000Z</time>
      </trkpt>
      <trkpt lat="43.73233" lon="7.0968">
        <ele>502.60000610352</ele>
        <time>2023-07-30T05:45:21.000Z</time>
      </trkpt>
      <trkpt lat="43.73233" lon="7.09677">
        <ele>502.60000610352</ele>
        <time>2023-07-30T05:45:22.000Z</time>
      </trkpt>
      <trkpt lat="43.73233" lon="7.09674">
        <ele>502.60000610352</ele>
        <time>2023-07-30T05:45:23.000Z</time>
      </trkpt>
      <trkpt lat="43.73234" lon="7.09671">
        <ele>502.60000610352</ele>
        <time>2023-07-30T05:45:24.000Z</time>
      </trkpt>
      <trkpt lat="43.73235" lon="7.09668">
        <ele>502.39999389648</ele>
        <time>2023-07-30T05:45:25.000Z</time>
      </trkpt>
      <trkpt lat="43.73236" lon="7.09665">
        <ele>502.39999389648</ele>
        <time>2023-07-30T05:45:26.000Z</time>
      </trkpt>
      <trkpt lat="43.73237" lon="7.09662">
        <ele>502.39999389648</ele>
        <time>2023-07-30T05:45:27.000Z</time>
      </trkpt>
      <trkpt lat="43.73238" lon="7.09659">
        <ele>502.39999389648</ele>
        <time>2023-07-30T05:45:28.000Z</time>
      </trkpt>
      <trkpt lat="43.73239" lon="7.09656">
        <ele>502.39999389648</ele>
        <time>2023-07-30T05:45:29.000Z</time>
      </trkpt>
      <trkpt lat="43.73239" lon="7.09652">
        <ele>502.39999389648</ele>
        <time>2023-07-30T05:45:30.000Z</time>
      </trkpt>
      <trkpt lat="43.73239" lon="7.09649">
        <ele>502.39999389648</ele>
        <time>2023-07-30T05:45:31.000Z</time>
      </trkpt>
      <trkpt lat="43.73239" lon="7.09646">
        <ele>502.39999389648</ele>
        <time>2023-07-30T05:45:32.000Z</time>
      </trkpt>
      <trkpt lat="43.7324" lon="7.09642">
        <ele>502.39999389648</ele>
        <time>2023-07-30T05:45:33.000Z</time>
      </trkpt>
      <trkpt lat="43.7324" lon="7.09639">
        <ele>502.39999389648</ele>
        <time>2023-07-30T05:45:34.000Z</time>
      </trkpt>
      <trkpt lat="43.73241" lon="7.09636">
        <ele>502.39999389648</ele>
        <time>2023-07-30T05:45:35.000Z</time>
      </trkpt>
      <trkpt lat="43.73241" lon="7.09633">
        <ele>502.60000610352</ele>
        <time>2023-07-30T05:45:36.000Z</time>
      </trkpt>
      <trkpt lat="43.73241" lon="7.0963">
        <ele>502.60000610352</ele>
        <time>2023-07-30T05:45:37.000Z</time>
      </trkpt>
      <trkpt lat="43.73241" lon="7.09627">
        <ele>502.60000610352</ele>
        <time>2023-07-30T05:45:38.000Z</time>
      </trkpt>
      <trkpt lat="43.73241" lon="7.09624">
        <ele>502.60000610352</ele>
        <time>2023-07-30T05:45:39.000Z</time>
      </trkpt>
      <trkpt lat="43.73242" lon="7.09621">
        <ele>502.60000610352</ele>
        <time>2023-07-30T05:45:40.000Z</time>
      </trkpt>
      <trkpt lat="43.73243" lon="7.09619">
        <ele>502.79998779297</ele>
        <time>2023-07-30T05:45:41.000Z</time>
      </trkpt>
      <trkpt lat="43.73244" lon="7.09616">
        <ele>502.79998779297</ele>
        <time>2023-07-30T05:45:42.000Z</time>
      </trkpt>
      <trkpt lat="43.73245" lon="7.09614">
        <ele>503</ele>
        <time>2023-07-30T05:45:43.000Z</time>
      </trkpt>
      <trkpt lat="43.73247" lon="7.09612">
        <ele>503</ele>
        <time>2023-07-30T05:45:44.000Z</time>
      </trkpt>
      <trkpt lat="43.73248" lon="7.0961">
        <ele>503.20001220703</ele>
        <time>2023-07-30T05:45:45.000Z</time>
      </trkpt>
      <trkpt lat="43.7325" lon="7.09609">
        <ele>503.60000610352</ele>
        <time>2023-07-30T05:45:46.000Z</time>
      </trkpt>
      <trkpt lat="43.73251" lon="7.09607">
        <ele>503.60000610352</ele>
        <time>2023-07-30T05:45:47.000Z</time>
      </trkpt>
      <trkpt lat="43.73252" lon="7.09605">
        <ele>504</ele>
        <time>2023-07-30T05:45:48.000Z</time>
      </trkpt>
      <trkpt lat="43.73253" lon="7.09603">
        <ele>504.20001220703</ele>
        <time>2023-07-30T05:45:49.000Z</time>
      </trkpt>
      <trkpt lat="43.73254" lon="7.09601">
        <ele>504.20001220703</ele>
        <time>2023-07-30T05:45:50.000Z</time>
      </trkpt>
      <trkpt lat="43.73256" lon="7.096">
        <ele>504.39999389648</ele>
        <time>2023-07-30T05:45:51.000Z</time>
      </trkpt>
      <trkpt lat="43.73257" lon="7.09598">
        <ele>504.60000610352</ele>
        <time>2023-07-30T05:45:52.000Z</time>
      </trkpt>
      <trkpt lat="43.73258" lon="7.09597">
        <ele>505</ele>
        <time>2023-07-30T05:45:53.000Z</time>
      </trkpt>
      <trkpt lat="43.73259" lon="7.09595">
        <ele>505.39999389648</ele>
        <time>2023-07-30T05:45:54.000Z</time>
      </trkpt>
      <trkpt lat="43.73261" lon="7.09593">
        <ele>505.60000610352</ele>
        <time>2023-07-30T05:45:55.000Z</time>
      </trkpt>
      <trkpt lat="43.73262" lon="7.09591">
        <ele>505.79998779297</ele>
        <time>2023-07-30T05:45:56.000Z</time>
      </trkpt>
      <trkpt lat="43.73263" lon="7.09589">
        <ele>506.20001220703</ele>
        <time>2023-07-30T05:45:57.000Z</time>
      </trkpt>
      <trkpt lat="43.73264" lon="7.09587">
        <ele>506.39999389648</ele>
        <time>2023-07-30T05:45:58.000Z</time>
      </trkpt>
      <trkpt lat="43.73265" lon="7.09584">
        <ele>506.60000610352</ele>
        <time>2023-07-30T05:45:59.000Z</time>
      </trkpt>
      <trkpt lat="43.73265" lon="7.09581">
        <ele>507</ele>
        <time>2023-07-30T05:46:00.000Z</time>
      </trkpt>
      <trkpt lat="43.73266" lon="7.09578">
        <ele>507.39999389648</ele>
        <time>2023-07-30T05:46:01.000Z</time>
      </trkpt>
      <trkpt lat="43.73267" lon="7.09575">
        <ele>507.39999389648</ele>
        <time>2023-07-30T05:46:02.000Z</time>
      </trkpt>
      <trkpt lat="43.73268" lon="7.09572">
        <ele>507.60000610352</ele>
        <time>2023-07-30T05:46:03.000Z</time>
      </trkpt>
      <trkpt lat="43.73268" lon="7.0957">
        <ele>507.79998779297</ele>
        <time>2023-07-30T05:46:04.000Z</time>
      </trkpt>
      <trkpt lat="43.73269" lon="7.09567">
        <ele>508</ele>
        <time>2023-07-30T05:46:05.000Z</time>
      </trkpt>
      <trkpt lat="43.7327" lon="7.09564">
        <ele>508</ele>
        <time>2023-07-30T05:46:06.000Z</time>
      </trkpt>
      <trkpt lat="43.73271" lon="7.09561">
        <ele>508</ele>
        <time>2023-07-30T05:46:07.000Z</time>
      </trkpt>
      <trkpt lat="43.73273" lon="7.09559">
        <ele>508.20001220703</ele>
        <time>2023-07-30T05:46:08.000Z</time>
      </trkpt>
      <trkpt lat="43.73274" lon="7.09556">
        <ele>508.20001220703</ele>
        <time>2023-07-30T05:46:09.000Z</time>
      </trkpt>
      <trkpt lat="43.73275" lon="7.09554">
        <ele>508.60000610352</ele>
        <time>2023-07-30T05:46:10.000Z</time>
      </trkpt>
      <trkpt lat="43.73276" lon="7.09552">
        <ele>508.79998779297</ele>
        <time>2023-07-30T05:46:11.000Z</time>
      </trkpt>
      <trkpt lat="43.73277" lon="7.09549">
        <ele>509</ele>
        <time>2023-07-30T05:46:12.000Z</time>
      </trkpt>
      <trkpt lat="43.73278" lon="7.09547">
        <ele>509</ele>
        <time>2023-07-30T05:46:13.000Z</time>
      </trkpt>
      <trkpt lat="43.73279" lon="7.09544">
        <ele>509.39999389648</ele>
        <time>2023-07-30T05:46:14.000Z</time>
      </trkpt>
      <trkpt lat="43.7328" lon="7.09542">
        <ele>509.79998779297</ele>
        <time>2023-07-30T05:46:15.000Z</time>
      </trkpt>
      <trkpt lat="43.73281" lon="7.09541">
        <ele>509.79998779297</ele>
        <time>2023-07-30T05:46:16.000Z</time>
      </trkpt>
      <trkpt lat="43.73282" lon="7.09539">
        <ele>510.20001220703</ele>
        <time>2023-07-30T05:46:17.000Z</time>
      </trkpt>
      <trkpt lat="43.73283" lon="7.09537">
        <ele>510.79998779297</ele>
        <time>2023-07-30T05:46:18.000Z</time>
      </trkpt>
      <trkpt lat="43.73284" lon="7.09534">
        <ele>511</ele>
        <time>2023-07-30T05:46:19.000Z</time>
      </trkpt>
      <trkpt lat="43.73285" lon="7.09532">
        <ele>511.39999389648</ele>
        <time>2023-07-30T05:46:20.000Z</time>
      </trkpt>
      <trkpt lat="43.73286" lon="7.09529">
        <ele>511.60000610352</ele>
        <time>2023-07-30T05:46:21.000Z</time>
      </trkpt>
      <trkpt lat="43.73287" lon="7.09526">
        <ele>512</ele>
        <time>2023-07-30T05:46:22.000Z</time>
      </trkpt>
      <trkpt lat="43.73289" lon="7.09524">
        <ele>512</ele>
        <time>2023-07-30T05:46:23.000Z</time>
      </trkpt>
      <trkpt lat="43.73289" lon="7.09521">
        <ele>512.20001220703</ele>
        <time>2023-07-30T05:46:24.000Z</time>
      </trkpt>
      <trkpt lat="43.7329" lon="7.09519">
        <ele>512.40002441406</ele>
        <time>2023-07-30T05:46:25.000Z</time>
      </trkpt>
      <trkpt lat="43.73291" lon="7.09516">
        <ele>512.59997558594</ele>
        <time>2023-07-30T05:46:26.000Z</time>
      </trkpt>
      <trkpt lat="43.73291" lon="7.09515">
        <ele>512.79998779297</ele>
        <time>2023-07-30T05:46:27.000Z</time>
      </trkpt>
      <trkpt lat="43.73292" lon="7.09512">
        <ele>512.79998779297</ele>
        <time>2023-07-30T05:46:28.000Z</time>
      </trkpt>
      <trkpt lat="43.73293" lon="7.0951">
        <ele>513</ele>
        <time>2023-07-30T05:46:29.000Z</time>
      </trkpt>
      <trkpt lat="43.73294" lon="7.09507">
        <ele>513</ele>
        <time>2023-07-30T05:46:30.000Z</time>
      </trkpt>
      <trkpt lat="43.73295" lon="7.09504">
        <ele>513</ele>
        <time>2023-07-30T05:46:31.000Z</time>
      </trkpt>
      <trkpt lat="43.73296" lon="7.09502">
        <ele>513.20001220703</ele>
        <time>2023-07-30T05:46:32.000Z</time>
      </trkpt>
      <trkpt lat="43.73296" lon="7.09499">
        <ele>513.20001220703</ele>
        <time>2023-07-30T05:46:33.000Z</time>
      </trkpt>
      <trkpt lat="43.73297" lon="7.09497">
        <ele>513.20001220703</ele>
        <time>2023-07-30T05:46:34.000Z</time>
      </trkpt>
      <trkpt lat="43.73298" lon="7.09495">
        <ele>513.20001220703</ele>
        <time>2023-07-30T05:46:35.000Z</time>
      </trkpt>
      <trkpt lat="43.73299" lon="7.09492">
        <ele>513.40002441406</ele>
        <time>2023-07-30T05:46:36.000Z</time>
      </trkpt>
      <trkpt lat="43.73299" lon="7.0949">
        <ele>513.40002441406</ele>
        <time>2023-07-30T05:46:37.000Z</time>
      </trkpt>
      <trkpt lat="43.733" lon="7.09487">
        <ele>513.59997558594</ele>
        <time>2023-07-30T05:46:38.000Z</time>
      </trkpt>
      <trkpt lat="43.733" lon="7.09485">
        <ele>513.79998779297</ele>
        <time>2023-07-30T05:46:39.000Z</time>
      </trkpt>
      <trkpt lat="43.73301" lon="7.09482">
        <ele>513.79998779297</ele>
        <time>2023-07-30T05:46:40.000Z</time>
      </trkpt>
      <trkpt lat="43.73302" lon="7.09479">
        <ele>514</ele>
        <time>2023-07-30T05:46:41.000Z</time>
      </trkpt>
      <trkpt lat="43.73302" lon="7.09476">
        <ele>514.20001220703</ele>
        <time>2023-07-30T05:46:42.000Z</time>
      </trkpt>
      <trkpt lat="43.73303" lon="7.09473">
        <ele>514.40002441406</ele>
        <time>2023-07-30T05:46:43.000Z</time>
      </trkpt>
      <trkpt lat="43.73303" lon="7.09471">
        <ele>514.79998779297</ele>
        <time>2023-07-30T05:46:44.000Z</time>
      </trkpt>
      <trkpt lat="43.73303" lon="7.09468">
        <ele>515</ele>
        <time>2023-07-30T05:46:45.000Z</time>
      </trkpt>
      <trkpt lat="43.73303" lon="7.09466">
        <ele>515.20001220703</ele>
        <time>2023-07-30T05:46:46.000Z</time>
      </trkpt>
      <trkpt lat="43.73303" lon="7.09463">
        <ele>515.40002441406</ele>
        <time>2023-07-30T05:46:47.000Z</time>
      </trkpt>
      <trkpt lat="43.73302" lon="7.0946">
        <ele>515.59997558594</ele>
        <time>2023-07-30T05:46:48.000Z</time>
      </trkpt>
      <trkpt lat="43.73301" lon="7.09457">
        <ele>515.59997558594</ele>
        <time>2023-07-30T05:46:49.000Z</time>
      </trkpt>
      <trkpt lat="43.73301" lon="7.09455">
        <ele>515.79998779297</ele>
        <time>2023-07-30T05:46:50.000Z</time>
      </trkpt>
      <trkpt lat="43.73301" lon="7.09452">
        <ele>516</ele>
        <time>2023-07-30T05:46:51.000Z</time>
      </trkpt>
      <trkpt lat="43.73301" lon="7.09449">
        <ele>516.20001220703</ele>
        <time>2023-07-30T05:46:52.000Z</time>
      </trkpt>
      <trkpt lat="43.73301" lon="7.09446">
        <ele>516.40002441406</ele>
        <time>2023-07-30T05:46:53.000Z</time>
      </trkpt>
      <trkpt lat="43.73301" lon="7.09443">
        <ele>516.40002441406</ele>
        <time>2023-07-30T05:46:54.000Z</time>
      </trkpt>
      <trkpt lat="43.73301" lon="7.0944">
        <ele>516.59997558594</ele>
        <time>2023-07-30T05:46:55.000Z</time>
      </trkpt>
      <trkpt lat="43.73301" lon="7.09435">
        <ele>516.59997558594</ele>
        <time>2023-07-30T05:46:56.000Z</time>
      </trkpt>
      <trkpt lat="43.73301" lon="7.09432">
        <ele>516.59997558594</ele>
        <time>2023-07-30T05:46:57.000Z</time>
      </trkpt>
      <trkpt lat="43.73301" lon="7.09429">
        <ele>516.79998779297</ele>
        <time>2023-07-30T05:46:58.000Z</time>
      </trkpt>
      <trkpt lat="43.73301" lon="7.09425">
        <ele>516.79998779297</ele>
        <time>2023-07-30T05:46:59.000Z</time>
      </trkpt>
      <trkpt lat="43.733" lon="7.09422">
        <ele>517</ele>
        <time>2023-07-30T05:47:00.000Z</time>
      </trkpt>
      <trkpt lat="43.733" lon="7.09418">
        <ele>517</ele>
        <time>2023-07-30T05:47:01.000Z</time>
      </trkpt>
      <trkpt lat="43.733" lon="7.09414">
        <ele>517.20001220703</ele>
        <time>2023-07-30T05:47:02.000Z</time>
      </trkpt>
      <trkpt lat="43.733" lon="7.09411">
        <ele>517.20001220703</ele>
        <time>2023-07-30T05:47:03.000Z</time>
      </trkpt>
      <trkpt lat="43.733" lon="7.09408">
        <ele>517.20001220703</ele>
        <time>2023-07-30T05:47:04.000Z</time>
      </trkpt>
      <trkpt lat="43.733" lon="7.09405">
        <ele>517.40002441406</ele>
        <time>2023-07-30T05:47:05.000Z</time>
      </trkpt>
      <trkpt lat="43.73299" lon="7.09402">
        <ele>517.79998779297</ele>
        <time>2023-07-30T05:47:06.000Z</time>
      </trkpt>
      <trkpt lat="43.73299" lon="7.094">
        <ele>518</ele>
        <time>2023-07-30T05:47:07.000Z</time>
      </trkpt>
      <trkpt lat="43.73299" lon="7.09397">
        <ele>518.40002441406</ele>
        <time>2023-07-30T05:47:08.000Z</time>
      </trkpt>
      <trkpt lat="43.73299" lon="7.09393">
        <ele>518.59997558594</ele>
        <time>2023-07-30T05:47:09.000Z</time>
      </trkpt>
      <trkpt lat="43.73298" lon="7.0939">
        <ele>518.79998779297</ele>
        <time>2023-07-30T05:47:10.000Z</time>
      </trkpt>
      <trkpt lat="43.73298" lon="7.09387">
        <ele>519</ele>
        <time>2023-07-30T05:47:11.000Z</time>
      </trkpt>
      <trkpt lat="43.73298" lon="7.09383">
        <ele>519.20001220703</ele>
        <time>2023-07-30T05:47:12.000Z</time>
      </trkpt>
      <trkpt lat="43.73298" lon="7.0938">
        <ele>519.40002441406</ele>
        <time>2023-07-30T05:47:13.000Z</time>
      </trkpt>
      <trkpt lat="43.73298" lon="7.09377">
        <ele>519.59997558594</ele>
        <time>2023-07-30T05:47:14.000Z</time>
      </trkpt>
      <trkpt lat="43.73299" lon="7.09373">
        <ele>519.79998779297</ele>
        <time>2023-07-30T05:47:15.000Z</time>
      </trkpt>
      <trkpt lat="43.73299" lon="7.09371">
        <ele>519.79998779297</ele>
        <time>2023-07-30T05:47:16.000Z</time>
      </trkpt>
      <trkpt lat="43.733" lon="7.09368">
        <ele>520</ele>
        <time>2023-07-30T05:47:17.000Z</time>
      </trkpt>
      <trkpt lat="43.733" lon="7.09366">
        <ele>520.20001220703</ele>
        <time>2023-07-30T05:47:18.000Z</time>
      </trkpt>
      <trkpt lat="43.733" lon="7.09363">
        <ele>520.20001220703</ele>
        <time>2023-07-30T05:47:19.000Z</time>
      </trkpt>
      <trkpt lat="43.733" lon="7.09361">
        <ele>520.20001220703</ele>
        <time>2023-07-30T05:47:20.000Z</time>
      </trkpt>
      <trkpt lat="43.73299" lon="7.09358">
        <ele>520.40002441406</ele>
        <time>2023-07-30T05:47:21.000Z</time>
      </trkpt>
      <trkpt lat="43.73299" lon="7.09356">
        <ele>520.40002441406</ele>
        <time>2023-07-30T05:47:22.000Z</time>
      </trkpt>
      <trkpt lat="43.73299" lon="7.09354">
        <ele>520.59997558594</ele>
        <time>2023-07-30T05:47:23.000Z</time>
      </trkpt>
      <trkpt lat="43.73299" lon="7.09351">
        <ele>520.59997558594</ele>
        <time>2023-07-30T05:47:24.000Z</time>
      </trkpt>
      <trkpt lat="43.73298" lon="7.09348">
        <ele>520.59997558594</ele>
        <time>2023-07-30T05:47:25.000Z</time>
      </trkpt>
      <trkpt lat="43.73299" lon="7.09345">
        <ele>520.59997558594</ele>
        <time>2023-07-30T05:47:26.000Z</time>
      </trkpt>
      <trkpt lat="43.733" lon="7.09342">
        <ele>520.59997558594</ele>
        <time>2023-07-30T05:47:27.000Z</time>
      </trkpt>
      <trkpt lat="43.73301" lon="7.09339">
        <ele>520.40002441406</ele>
        <time>2023-07-30T05:47:28.000Z</time>
      </trkpt>
      <trkpt lat="43.73302" lon="7.09335">
        <ele>520.40002441406</ele>
        <time>2023-07-30T05:47:29.000Z</time>
      </trkpt>
      <trkpt lat="43.73302" lon="7.09332">
        <ele>520.40002441406</ele>
        <time>2023-07-30T05:47:30.000Z</time>
      </trkpt>
      <trkpt lat="43.73303" lon="7.09329">
        <ele>520.40002441406</ele>
        <time>2023-07-30T05:47:31.000Z</time>
      </trkpt>
      <trkpt lat="43.73304" lon="7.09326">
        <ele>520.40002441406</ele>
        <time>2023-07-30T05:47:32.000Z</time>
      </trkpt>
      <trkpt lat="43.73305" lon="7.09323">
        <ele>520.40002441406</ele>
        <time>2023-07-30T05:47:33.000Z</time>
      </trkpt>
      <trkpt lat="43.73307" lon="7.09318">
        <ele>520.40002441406</ele>
        <time>2023-07-30T05:47:34.000Z</time>
      </trkpt>
      <trkpt lat="43.73309" lon="7.09313">
        <ele>520.40002441406</ele>
        <time>2023-07-30T05:47:35.000Z</time>
      </trkpt>
      <trkpt lat="43.73312" lon="7.09308">
        <ele>520.40002441406</ele>
        <time>2023-07-30T05:47:36.000Z</time>
      </trkpt>
      <trkpt lat="43.73315" lon="7.09303">
        <ele>520.20001220703</ele>
        <time>2023-07-30T05:47:37.000Z</time>
      </trkpt>
      <trkpt lat="43.73319" lon="7.09297">
        <ele>519.79998779297</ele>
        <time>2023-07-30T05:47:38.000Z</time>
      </trkpt>
      <trkpt lat="43.73324" lon="7.09293">
        <ele>519.59997558594</ele>
        <time>2023-07-30T05:47:39.000Z</time>
      </trkpt>
      <trkpt lat="43.73328" lon="7.09287">
        <ele>519</ele>
        <time>2023-07-30T05:47:40.000Z</time>
      </trkpt>
      <trkpt lat="43.73331" lon="7.09281">
        <ele>519</ele>
        <time>2023-07-30T05:47:41.000Z</time>
      </trkpt>
      <trkpt lat="43.73334" lon="7.09274">
        <ele>518.59997558594</ele>
        <time>2023-07-30T05:47:42.000Z</time>
      </trkpt>
      <trkpt lat="43.73337" lon="7.09268">
        <ele>518.40002441406</ele>
        <time>2023-07-30T05:47:43.000Z</time>
      </trkpt>
      <trkpt lat="43.73339" lon="7.09261">
        <ele>518.40002441406</ele>
        <time>2023-07-30T05:47:44.000Z</time>
      </trkpt>
      <trkpt lat="43.7334" lon="7.09255">
        <ele>518.40002441406</ele>
        <time>2023-07-30T05:47:45.000Z</time>
      </trkpt>
      <trkpt lat="43.73342" lon="7.09251">
        <ele>518.40002441406</ele>
        <time>2023-07-30T05:47:46.000Z</time>
      </trkpt>
      <trkpt lat="43.73343" lon="7.09246">
        <ele>518.40002441406</ele>
        <time>2023-07-30T05:47:47.000Z</time>
      </trkpt>
      <trkpt lat="43.73343" lon="7.09242">
        <ele>518.40002441406</ele>
        <time>2023-07-30T05:47:48.000Z</time>
      </trkpt>
      <trkpt lat="43.73343" lon="7.09238">
        <ele>518.59997558594</ele>
        <time>2023-07-30T05:47:49.000Z</time>
      </trkpt>
      <trkpt lat="43.73343" lon="7.09235">
        <ele>518.79998779297</ele>
        <time>2023-07-30T05:47:50.000Z</time>
      </trkpt>
      <trkpt lat="43.73343" lon="7.09231">
        <ele>519</ele>
        <time>2023-07-30T05:47:51.000Z</time>
      </trkpt>
      <trkpt lat="43.73342" lon="7.09227">
        <ele>519.20001220703</ele>
        <time>2023-07-30T05:47:52.000Z</time>
      </trkpt>
      <trkpt lat="43.73342" lon="7.09224">
        <ele>519.59997558594</ele>
        <time>2023-07-30T05:47:53.000Z</time>
      </trkpt>
      <trkpt lat="43.73341" lon="7.09219">
        <ele>519.79998779297</ele>
        <time>2023-07-30T05:47:54.000Z</time>
      </trkpt>
      <trkpt lat="43.73341" lon="7.09215">
        <ele>520</ele>
        <time>2023-07-30T05:47:55.000Z</time>
      </trkpt>
      <trkpt lat="43.7334" lon="7.0921">
        <ele>520</ele>
        <time>2023-07-30T05:47:56.000Z</time>
      </trkpt>
      <trkpt lat="43.7334" lon="7.09205">
        <ele>520.40002441406</ele>
        <time>2023-07-30T05:47:57.000Z</time>
      </trkpt>
      <trkpt lat="43.73339" lon="7.09201">
        <ele>520.40002441406</ele>
        <time>2023-07-30T05:47:58.000Z</time>
      </trkpt>
      <trkpt lat="43.73339" lon="7.09197">
        <ele>520.79998779297</ele>
        <time>2023-07-30T05:47:59.000Z</time>
      </trkpt>
      <trkpt lat="43.73339" lon="7.09194">
        <ele>521</ele>
        <time>2023-07-30T05:48:00.000Z</time>
      </trkpt>
      <trkpt lat="43.73339" lon="7.0919">
        <ele>521.40002441406</ele>
        <time>2023-07-30T05:48:01.000Z</time>
      </trkpt>
      <trkpt lat="43.7334" lon="7.09187">
        <ele>521.59997558594</ele>
        <time>2023-07-30T05:48:02.000Z</time>
      </trkpt>
      <trkpt lat="43.7334" lon="7.09183">
        <ele>522</ele>
        <time>2023-07-30T05:48:03.000Z</time>
      </trkpt>
      <trkpt lat="43.73341" lon="7.0918">
        <ele>522</ele>
        <time>2023-07-30T05:48:04.000Z</time>
      </trkpt>
      <trkpt lat="43.73341" lon="7.09176">
        <ele>522.40002441406</ele>
        <time>2023-07-30T05:48:05.000Z</time>
      </trkpt>
      <trkpt lat="43.73341" lon="7.09172">
        <ele>522.79998779297</ele>
        <time>2023-07-30T05:48:06.000Z</time>
      </trkpt>
      <trkpt lat="43.73341" lon="7.09168">
        <ele>523</ele>
        <time>2023-07-30T05:48:07.000Z</time>
      </trkpt>
      <trkpt lat="43.73342" lon="7.09164">
        <ele>523.20001220703</ele>
        <time>2023-07-30T05:48:08.000Z</time>
      </trkpt>
      <trkpt lat="43.73342" lon="7.09161">
        <ele>523.40002441406</ele>
        <time>2023-07-30T05:48:09.000Z</time>
      </trkpt>
      <trkpt lat="43.73343" lon="7.09158">
        <ele>523.79998779297</ele>
        <time>2023-07-30T05:48:10.000Z</time>
      </trkpt>
      <trkpt lat="43.73344" lon="7.09155">
        <ele>524</ele>
        <time>2023-07-30T05:48:11.000Z</time>
      </trkpt>
      <trkpt lat="43.73345" lon="7.09152">
        <ele>524.40002441406</ele>
        <time>2023-07-30T05:48:12.000Z</time>
      </trkpt>
      <trkpt lat="43.73347" lon="7.09149">
        <ele>524.79998779297</ele>
        <time>2023-07-30T05:48:13.000Z</time>
      </trkpt>
      <trkpt lat="43.73348" lon="7.09146">
        <ele>525.20001220703</ele>
        <time>2023-07-30T05:48:14.000Z</time>
      </trkpt>
      <trkpt lat="43.73349" lon="7.09144">
        <ele>525.59997558594</ele>
        <time>2023-07-30T05:48:15.000Z</time>
      </trkpt>
      <trkpt lat="43.7335" lon="7.09141">
        <ele>526.20001220703</ele>
        <time>2023-07-30T05:48:16.000Z</time>
      </trkpt>
      <trkpt lat="43.73351" lon="7.09138">
        <ele>526.59997558594</ele>
        <time>2023-07-30T05:48:17.000Z</time>
      </trkpt>
      <trkpt lat="43.73352" lon="7.09136">
        <ele>526.79998779297</ele>
        <time>2023-07-30T05:48:18.000Z</time>
      </trkpt>
      <trkpt lat="43.73353" lon="7.09134">
        <ele>527.59997558594</ele>
        <time>2023-07-30T05:48:19.000Z</time>
      </trkpt>
      <trkpt lat="43.73355" lon="7.09132">
        <ele>528</ele>
        <time>2023-07-30T05:48:20.000Z</time>
      </trkpt>
      <trkpt lat="43.73357" lon="7.0913">
        <ele>528.40002441406</ele>
        <time>2023-07-30T05:48:21.000Z</time>
      </trkpt>
      <trkpt lat="43.73359" lon="7.09128">
        <ele>529</ele>
        <time>2023-07-30T05:48:22.000Z</time>
      </trkpt>
      <trkpt lat="43.7336" lon="7.09126">
        <ele>529.40002441406</ele>
        <time>2023-07-30T05:48:23.000Z</time>
      </trkpt>
      <trkpt lat="43.73361" lon="7.09123">
        <ele>530</ele>
        <time>2023-07-30T05:48:24.000Z</time>
      </trkpt>
      <trkpt lat="43.73362" lon="7.0912">
        <ele>530.59997558594</ele>
        <time>2023-07-30T05:48:25.000Z</time>
      </trkpt>
      <trkpt lat="43.73364" lon="7.09118">
        <ele>530.59997558594</ele>
        <time>2023-07-30T05:48:26.000Z</time>
      </trkpt>
      <trkpt lat="43.73365" lon="7.09115">
        <ele>531</ele>
        <time>2023-07-30T05:48:27.000Z</time>
      </trkpt>
      <trkpt lat="43.73365" lon="7.09113">
        <ele>531.59997558594</ele>
        <time>2023-07-30T05:48:28.000Z</time>
      </trkpt>
      <trkpt lat="43.73367" lon="7.0911">
        <ele>532</ele>
        <time>2023-07-30T05:48:29.000Z</time>
      </trkpt>
      <trkpt lat="43.73368" lon="7.09108">
        <ele>532.59997558594</ele>
        <time>2023-07-30T05:48:30.000Z</time>
      </trkpt>
      <trkpt lat="43.73368" lon="7.09105">
        <ele>533.20001220703</ele>
        <time>2023-07-30T05:48:31.000Z</time>
      </trkpt>
      <trkpt lat="43.73369" lon="7.09103">
        <ele>533.79998779297</ele>
        <time>2023-07-30T05:48:32.000Z</time>
      </trkpt>
      <trkpt lat="43.7337" lon="7.09101">
        <ele>534.20001220703</ele>
        <time>2023-07-30T05:48:33.000Z</time>
      </trkpt>
      <trkpt lat="43.73371" lon="7.09098">
        <ele>534.79998779297</ele>
        <time>2023-07-30T05:48:34.000Z</time>
      </trkpt>
      <trkpt lat="43.73372" lon="7.09097">
        <ele>535</ele>
        <time>2023-07-30T05:48:35.000Z</time>
      </trkpt>
      <trkpt lat="43.73373" lon="7.09095">
        <ele>535.59997558594</ele>
        <time>2023-07-30T05:48:36.000Z</time>
      </trkpt>
      <trkpt lat="43.73374" lon="7.09093">
        <ele>536</ele>
        <time>2023-07-30T05:48:37.000Z</time>
      </trkpt>
      <trkpt lat="43.73375" lon="7.09091">
        <ele>536.20001220703</ele>
        <time>2023-07-30T05:48:38.000Z</time>
      </trkpt>
      <trkpt lat="43.73376" lon="7.09088">
        <ele>536.59997558594</ele>
        <time>2023-07-30T05:48:39.000Z</time>
      </trkpt>
      <trkpt lat="43.73377" lon="7.09086">
        <ele>537</ele>
        <time>2023-07-30T05:48:40.000Z</time>
      </trkpt>
      <trkpt lat="43.73377" lon="7.09083">
        <ele>537.40002441406</ele>
        <time>2023-07-30T05:48:41.000Z</time>
      </trkpt>
      <trkpt lat="43.73378" lon="7.09081">
        <ele>537.79998779297</ele>
        <time>2023-07-30T05:48:42.000Z</time>
      </trkpt>
      <trkpt lat="43.7338" lon="7.09079">
        <ele>538.20001220703</ele>
        <time>2023-07-30T05:48:43.000Z</time>
      </trkpt>
      <trkpt lat="43.73381" lon="7.09077">
        <ele>538.59997558594</ele>
        <time>2023-07-30T05:48:44.000Z</time>
      </trkpt>
      <trkpt lat="43.73381" lon="7.09075">
        <ele>539</ele>
        <time>2023-07-30T05:48:45.000Z</time>
      </trkpt>
      <trkpt lat="43.73382" lon="7.09073">
        <ele>539.40002441406</ele>
        <time>2023-07-30T05:48:46.000Z</time>
      </trkpt>
      <trkpt lat="43.73383" lon="7.09071">
        <ele>539.79998779297</ele>
        <time>2023-07-30T05:48:47.000Z</time>
      </trkpt>
      <trkpt lat="43.73384" lon="7.0907">
        <ele>539.79998779297</ele>
        <time>2023-07-30T05:48:48.000Z</time>
      </trkpt>
      <trkpt lat="43.73386" lon="7.09069">
        <ele>540.20001220703</ele>
        <time>2023-07-30T05:48:49.000Z</time>
      </trkpt>
      <trkpt lat="43.73387" lon="7.09068">
        <ele>540.59997558594</ele>
        <time>2023-07-30T05:48:50.000Z</time>
      </trkpt>
      <trkpt lat="43.73389" lon="7.09067">
        <ele>541</ele>
        <time>2023-07-30T05:48:51.000Z</time>
      </trkpt>
      <trkpt lat="43.73391" lon="7.09067">
        <ele>541.40002441406</ele>
        <time>2023-07-30T05:48:52.000Z</time>
      </trkpt>
      <trkpt lat="43.73393" lon="7.09066">
        <ele>541.79998779297</ele>
        <time>2023-07-30T05:48:53.000Z</time>
      </trkpt>
      <trkpt lat="43.73394" lon="7.09063">
        <ele>542.20001220703</ele>
        <time>2023-07-30T05:48:54.000Z</time>
      </trkpt>
      <trkpt lat="43.73396" lon="7.09062">
        <ele>542.59997558594</ele>
        <time>2023-07-30T05:48:55.000Z</time>
      </trkpt>
      <trkpt lat="43.73398" lon="7.0906">
        <ele>543</ele>
        <time>2023-07-30T05:48:56.000Z</time>
      </trkpt>
      <trkpt lat="43.734" lon="7.09058">
        <ele>543.59997558594</ele>
        <time>2023-07-30T05:48:57.000Z</time>
      </trkpt>
      <trkpt lat="43.73402" lon="7.09056">
        <ele>544</ele>
        <time>2023-07-30T05:48:58.000Z</time>
      </trkpt>
      <trkpt lat="43.73403" lon="7.09054">
        <ele>544.20001220703</ele>
        <time>2023-07-30T05:48:59.000Z</time>
      </trkpt>
      <trkpt lat="43.73404" lon="7.09052">
        <ele>544.59997558594</ele>
        <time>2023-07-30T05:49:00.000Z</time>
      </trkpt>
      <trkpt lat="43.73406" lon="7.0905">
        <ele>545</ele>
        <time>2023-07-30T05:49:01.000Z</time>
      </trkpt>
      <trkpt lat="43.73407" lon="7.09048">
        <ele>545.40002441406</ele>
        <time>2023-07-30T05:49:02.000Z</time>
      </trkpt>
      <trkpt lat="43.73408" lon="7.09045">
        <ele>545.59997558594</ele>
        <time>2023-07-30T05:49:03.000Z</time>
      </trkpt>
      <trkpt lat="43.73409" lon="7.09042">
        <ele>546</ele>
        <time>2023-07-30T05:49:04.000Z</time>
      </trkpt>
      <trkpt lat="43.73411" lon="7.0904">
        <ele>546.20001220703</ele>
        <time>2023-07-30T05:49:05.000Z</time>
      </trkpt>
      <trkpt lat="43.73412" lon="7.09038">
        <ele>546.40002441406</ele>
        <time>2023-07-30T05:49:06.000Z</time>
      </trkpt>
      <trkpt lat="43.73413" lon="7.09036">
        <ele>546.59997558594</ele>
        <time>2023-07-30T05:49:07.000Z</time>
      </trkpt>
      <trkpt lat="43.73414" lon="7.09034">
        <ele>546.79998779297</ele>
        <time>2023-07-30T05:49:08.000Z</time>
      </trkpt>
      <trkpt lat="43.73416" lon="7.09031">
        <ele>547.20001220703</ele>
        <time>2023-07-30T05:49:09.000Z</time>
      </trkpt>
      <trkpt lat="43.73417" lon="7.09029">
        <ele>547.20001220703</ele>
        <time>2023-07-30T05:49:10.000Z</time>
      </trkpt>
      <trkpt lat="43.73418" lon="7.09026">
        <ele>547.40002441406</ele>
        <time>2023-07-30T05:49:11.000Z</time>
      </trkpt>
      <trkpt lat="43.7342" lon="7.09023">
        <ele>547.59997558594</ele>
        <time>2023-07-30T05:49:12.000Z</time>
      </trkpt>
      <trkpt lat="43.73421" lon="7.09021">
        <ele>547.79998779297</ele>
        <time>2023-07-30T05:49:13.000Z</time>
      </trkpt>
      <trkpt lat="43.73421" lon="7.09019">
        <ele>548.20001220703</ele>
        <time>2023-07-30T05:49:14.000Z</time>
      </trkpt>
      <trkpt lat="43.73422" lon="7.09017">
        <ele>548.40002441406</ele>
        <time>2023-07-30T05:49:15.000Z</time>
      </trkpt>
      <trkpt lat="43.73424" lon="7.09014">
        <ele>548.59997558594</ele>
        <time>2023-07-30T05:49:16.000Z</time>
      </trkpt>
      <trkpt lat="43.73425" lon="7.09012">
        <ele>548.79998779297</ele>
        <time>2023-07-30T05:49:17.000Z</time>
      </trkpt>
      <trkpt lat="43.73426" lon="7.09011">
        <ele>549.20001220703</ele>
        <time>2023-07-30T05:49:18.000Z</time>
      </trkpt>
      <trkpt lat="43.73428" lon="7.0901">
        <ele>549.59997558594</ele>
        <time>2023-07-30T05:49:19.000Z</time>
      </trkpt>
      <trkpt lat="43.73429" lon="7.09009">
        <ele>549.59997558594</ele>
        <time>2023-07-30T05:49:20.000Z</time>
      </trkpt>
      <trkpt lat="43.73431" lon="7.09008">
        <ele>550</ele>
        <time>2023-07-30T05:49:21.000Z</time>
      </trkpt>
      <trkpt lat="43.73433" lon="7.09009">
        <ele>550.20001220703</ele>
        <time>2023-07-30T05:49:22.000Z</time>
      </trkpt>
      <trkpt lat="43.73435" lon="7.09009">
        <ele>550.40002441406</ele>
        <time>2023-07-30T05:49:23.000Z</time>
      </trkpt>
      <trkpt lat="43.73437" lon="7.09009">
        <ele>550.79998779297</ele>
        <time>2023-07-30T05:49:24.000Z</time>
      </trkpt>
      <trkpt lat="43.73439" lon="7.09009">
        <ele>551</ele>
        <time>2023-07-30T05:49:25.000Z</time>
      </trkpt>
      <trkpt lat="43.73442" lon="7.09009">
        <ele>551.20001220703</ele>
        <time>2023-07-30T05:49:26.000Z</time>
      </trkpt>
      <trkpt lat="43.73444" lon="7.09008">
        <ele>551.20001220703</ele>
        <time>2023-07-30T05:49:27.000Z</time>
      </trkpt>
      <trkpt lat="43.73446" lon="7.09007">
        <ele>551.40002441406</ele>
        <time>2023-07-30T05:49:28.000Z</time>
      </trkpt>
      <trkpt lat="43.73448" lon="7.09006">
        <ele>551.59997558594</ele>
        <time>2023-07-30T05:49:29.000Z</time>
      </trkpt>
      <trkpt lat="43.7345" lon="7.09004">
        <ele>551.79998779297</ele>
        <time>2023-07-30T05:49:30.000Z</time>
      </trkpt>
      <trkpt lat="43.73453" lon="7.09003">
        <ele>552</ele>
        <time>2023-07-30T05:49:31.000Z</time>
      </trkpt>
      <trkpt lat="43.73454" lon="7.09001">
        <ele>552</ele>
        <time>2023-07-30T05:49:32.000Z</time>
      </trkpt>
      <trkpt lat="43.73456" lon="7.08999">
        <ele>552.20001220703</ele>
        <time>2023-07-30T05:49:33.000Z</time>
      </trkpt>
      <trkpt lat="43.73458" lon="7.08996">
        <ele>552.40002441406</ele>
        <time>2023-07-30T05:49:34.000Z</time>
      </trkpt>
      <trkpt lat="43.73459" lon="7.08993">
        <ele>552.59997558594</ele>
        <time>2023-07-30T05:49:35.000Z</time>
      </trkpt>
      <trkpt lat="43.73459" lon="7.0899">
        <ele>553</ele>
        <time>2023-07-30T05:49:36.000Z</time>
      </trkpt>
      <trkpt lat="43.7346" lon="7.08986">
        <ele>553</ele>
        <time>2023-07-30T05:49:37.000Z</time>
      </trkpt>
      <trkpt lat="43.73462" lon="7.08984">
        <ele>553.40002441406</ele>
        <time>2023-07-30T05:49:38.000Z</time>
      </trkpt>
      <trkpt lat="43.73463" lon="7.08983">
        <ele>553.40002441406</ele>
        <time>2023-07-30T05:49:39.000Z</time>
      </trkpt>
      <trkpt lat="43.73466" lon="7.08983">
        <ele>553.59997558594</ele>
        <time>2023-07-30T05:49:40.000Z</time>
      </trkpt>
      <trkpt lat="43.73467" lon="7.08982">
        <ele>553.79998779297</ele>
        <time>2023-07-30T05:49:41.000Z</time>
      </trkpt>
      <trkpt lat="43.73469" lon="7.08981">
        <ele>554</ele>
        <time>2023-07-30T05:49:42.000Z</time>
      </trkpt>
      <trkpt lat="43.73469" lon="7.08978">
        <ele>554.20001220703</ele>
        <time>2023-07-30T05:49:43.000Z</time>
      </trkpt>
      <trkpt lat="43.7347" lon="7.08976">
        <ele>554.20001220703</ele>
        <time>2023-07-30T05:49:44.000Z</time>
      </trkpt>
      <trkpt lat="43.73471" lon="7.08975">
        <ele>554.40002441406</ele>
        <time>2023-07-30T05:49:45.000Z</time>
      </trkpt>
      <trkpt lat="43.73471" lon="7.08973">
        <ele>554.79998779297</ele>
        <time>2023-07-30T05:49:46.000Z</time>
      </trkpt>
      <trkpt lat="43.73471" lon="7.08972">
        <ele>554.79998779297</ele>
        <time>2023-07-30T05:49:47.000Z</time>
      </trkpt>
      <trkpt lat="43.73472" lon="7.0897">
        <ele>555</ele>
        <time>2023-07-30T05:49:48.000Z</time>
      </trkpt>
      <trkpt lat="43.73473" lon="7.08968">
        <ele>555.20001220703</ele>
        <time>2023-07-30T05:49:49.000Z</time>
      </trkpt>
      <trkpt lat="43.73473" lon="7.08966">
        <ele>555.20001220703</ele>
        <time>2023-07-30T05:49:50.000Z</time>
      </trkpt>
      <trkpt lat="43.73474" lon="7.08965">
        <ele>555.40002441406</ele>
        <time>2023-07-30T05:49:51.000Z</time>
      </trkpt>
      <trkpt lat="43.73475" lon="7.08964">
        <ele>555.59997558594</ele>
        <time>2023-07-30T05:49:52.000Z</time>
      </trkpt>
      <trkpt lat="43.73476" lon="7.08962">
        <ele>555.59997558594</ele>
        <time>2023-07-30T05:49:53.000Z</time>
      </trkpt>
      <trkpt lat="43.73478" lon="7.08961">
        <ele>555.59997558594</ele>
        <time>2023-07-30T05:49:54.000Z</time>
      </trkpt>
      <trkpt lat="43.73479" lon="7.0896">
        <ele>555.79998779297</ele>
        <time>2023-07-30T05:49:55.000Z</time>
      </trkpt>
      <trkpt lat="43.7348" lon="7.08958">
        <ele>555.79998779297</ele>
        <time>2023-07-30T05:49:56.000Z</time>
      </trkpt>
      <trkpt lat="43.73481" lon="7.08956">
        <ele>556</ele>
        <time>2023-07-30T05:49:57.000Z</time>
      </trkpt>
      <trkpt lat="43.73482" lon="7.08955">
        <ele>556</ele>
        <time>2023-07-30T05:49:58.000Z</time>
      </trkpt>
      <trkpt lat="43.73483" lon="7.08953">
        <ele>556.20001220703</ele>
        <time>2023-07-30T05:49:59.000Z</time>
      </trkpt>
      <trkpt lat="43.73484" lon="7.08952">
        <ele>556.40002441406</ele>
        <time>2023-07-30T05:50:00.000Z</time>
      </trkpt>
      <trkpt lat="43.73485" lon="7.0895">
        <ele>556.40002441406</ele>
        <time>2023-07-30T05:50:01.000Z</time>
      </trkpt>
      <trkpt lat="43.73485" lon="7.08949">
        <ele>556.59997558594</ele>
        <time>2023-07-30T05:50:02.000Z</time>
      </trkpt>
      <trkpt lat="43.73486" lon="7.08947">
        <ele>556.59997558594</ele>
        <time>2023-07-30T05:50:03.000Z</time>
      </trkpt>
      <trkpt lat="43.73486" lon="7.08945">
        <ele>556.79998779297</ele>
        <time>2023-07-30T05:50:04.000Z</time>
      </trkpt>
      <trkpt lat="43.73487" lon="7.08943">
        <ele>557</ele>
        <time>2023-07-30T05:50:05.000Z</time>
      </trkpt>
      <trkpt lat="43.73488" lon="7.08942">
        <ele>557.20001220703</ele>
        <time>2023-07-30T05:50:06.000Z</time>
      </trkpt>
      <trkpt lat="43.73488" lon="7.08941">
        <ele>557.20001220703</ele>
        <time>2023-07-30T05:50:07.000Z</time>
      </trkpt>
      <trkpt lat="43.7349" lon="7.08939">
        <ele>557.40002441406</ele>
        <time>2023-07-30T05:50:08.000Z</time>
      </trkpt>
      <trkpt lat="43.73491" lon="7.08938">
        <ele>557.40002441406</ele>
        <time>2023-07-30T05:50:09.000Z</time>
      </trkpt>
      <trkpt lat="43.73492" lon="7.08936">
        <ele>557.59997558594</ele>
        <time>2023-07-30T05:50:10.000Z</time>
      </trkpt>
      <trkpt lat="43.73493" lon="7.08934">
        <ele>557.79998779297</ele>
        <time>2023-07-30T05:50:11.000Z</time>
      </trkpt>
      <trkpt lat="43.73494" lon="7.08933">
        <ele>558</ele>
        <time>2023-07-30T05:50:12.000Z</time>
      </trkpt>
      <trkpt lat="43.73495" lon="7.0893">
        <ele>558.20001220703</ele>
        <time>2023-07-30T05:50:13.000Z</time>
      </trkpt>
      <trkpt lat="43.73495" lon="7.08929">
        <ele>558.40002441406</ele>
        <time>2023-07-30T05:50:14.000Z</time>
      </trkpt>
      <trkpt lat="43.73497" lon="7.08927">
        <ele>558.59997558594</ele>
        <time>2023-07-30T05:50:15.000Z</time>
      </trkpt>
      <trkpt lat="43.73498" lon="7.08925">
        <ele>558.59997558594</ele>
        <time>2023-07-30T05:50:16.000Z</time>
      </trkpt>
      <trkpt lat="43.73499" lon="7.08923">
        <ele>558.79998779297</ele>
        <time>2023-07-30T05:50:17.000Z</time>
      </trkpt>
      <trkpt lat="43.735" lon="7.08921">
        <ele>558.79998779297</ele>
        <time>2023-07-30T05:50:18.000Z</time>
      </trkpt>
      <trkpt lat="43.73501" lon="7.0892">
        <ele>559.20001220703</ele>
        <time>2023-07-30T05:50:19.000Z</time>
      </trkpt>
      <trkpt lat="43.73503" lon="7.08917">
        <ele>559.40002441406</ele>
        <time>2023-07-30T05:50:20.000Z</time>
      </trkpt>
      <trkpt lat="43.73504" lon="7.08916">
        <ele>559.40002441406</ele>
        <time>2023-07-30T05:50:21.000Z</time>
      </trkpt>
      <trkpt lat="43.73505" lon="7.08914">
        <ele>559.79998779297</ele>
        <time>2023-07-30T05:50:22.000Z</time>
      </trkpt>
      <trkpt lat="43.73506" lon="7.08911">
        <ele>559.79998779297</ele>
        <time>2023-07-30T05:50:23.000Z</time>
      </trkpt>
      <trkpt lat="43.73507" lon="7.08909">
        <ele>560</ele>
        <time>2023-07-30T05:50:24.000Z</time>
      </trkpt>
      <trkpt lat="43.73508" lon="7.08907">
        <ele>560.20001220703</ele>
        <time>2023-07-30T05:50:25.000Z</time>
      </trkpt>
      <trkpt lat="43.7351" lon="7.08905">
        <ele>560.20001220703</ele>
        <time>2023-07-30T05:50:26.000Z</time>
      </trkpt>
      <trkpt lat="43.7351" lon="7.08903">
        <ele>560.40002441406</ele>
        <time>2023-07-30T05:50:27.000Z</time>
      </trkpt>
      <trkpt lat="43.73512" lon="7.08901">
        <ele>560.59997558594</ele>
        <time>2023-07-30T05:50:28.000Z</time>
      </trkpt>
      <trkpt lat="43.73513" lon="7.08899">
        <ele>560.79998779297</ele>
        <time>2023-07-30T05:50:29.000Z</time>
      </trkpt>
      <trkpt lat="43.73514" lon="7.08897">
        <ele>561</ele>
        <time>2023-07-30T05:50:30.000Z</time>
      </trkpt>
      <trkpt lat="43.73515" lon="7.08895">
        <ele>561</ele>
        <time>2023-07-30T05:50:31.000Z</time>
      </trkpt>
      <trkpt lat="43.73516" lon="7.08894">
        <ele>561.20001220703</ele>
        <time>2023-07-30T05:50:32.000Z</time>
      </trkpt>
      <trkpt lat="43.73517" lon="7.08892">
        <ele>561.40002441406</ele>
        <time>2023-07-30T05:50:33.000Z</time>
      </trkpt>
      <trkpt lat="43.73518" lon="7.08891">
        <ele>561.40002441406</ele>
        <time>2023-07-30T05:50:34.000Z</time>
      </trkpt>
      <trkpt lat="43.73519" lon="7.08889">
        <ele>561.79998779297</ele>
        <time>2023-07-30T05:50:35.000Z</time>
      </trkpt>
      <trkpt lat="43.73521" lon="7.08887">
        <ele>562</ele>
        <time>2023-07-30T05:50:36.000Z</time>
      </trkpt>
      <trkpt lat="43.73522" lon="7.08886">
        <ele>562</ele>
        <time>2023-07-30T05:50:37.000Z</time>
      </trkpt>
      <trkpt lat="43.73523" lon="7.08884">
        <ele>562</ele>
        <time>2023-07-30T05:50:38.000Z</time>
      </trkpt>
      <trkpt lat="43.73525" lon="7.08883">
        <ele>562.20001220703</ele>
        <time>2023-07-30T05:50:39.000Z</time>
      </trkpt>
      <trkpt lat="43.73526" lon="7.08881">
        <ele>562.20001220703</ele>
        <time>2023-07-30T05:50:40.000Z</time>
      </trkpt>
      <trkpt lat="43.73527" lon="7.08879">
        <ele>562.40002441406</ele>
        <time>2023-07-30T05:50:41.000Z</time>
      </trkpt>
      <trkpt lat="43.73528" lon="7.08877">
        <ele>562.40002441406</ele>
        <time>2023-07-30T05:50:42.000Z</time>
      </trkpt>
      <trkpt lat="43.73529" lon="7.08875">
        <ele>562.79998779297</ele>
        <time>2023-07-30T05:50:43.000Z</time>
      </trkpt>
      <trkpt lat="43.7353" lon="7.08873">
        <ele>562.79998779297</ele>
        <time>2023-07-30T05:50:44.000Z</time>
      </trkpt>
      <trkpt lat="43.73531" lon="7.08871">
        <ele>563</ele>
        <time>2023-07-30T05:50:45.000Z</time>
      </trkpt>
      <trkpt lat="43.73532" lon="7.0887">
        <ele>563.20001220703</ele>
        <time>2023-07-30T05:50:46.000Z</time>
      </trkpt>
      <trkpt lat="43.73533" lon="7.08868">
        <ele>563.40002441406</ele>
        <time>2023-07-30T05:50:47.000Z</time>
      </trkpt>
      <trkpt lat="43.73534" lon="7.08866">
        <ele>563.40002441406</ele>
        <time>2023-07-30T05:50:48.000Z</time>
      </trkpt>
      <trkpt lat="43.73535" lon="7.08865">
        <ele>563.59997558594</ele>
        <time>2023-07-30T05:50:49.000Z</time>
      </trkpt>
      <trkpt lat="43.73535" lon="7.08863">
        <ele>563.79998779297</ele>
        <time>2023-07-30T05:50:50.000Z</time>
      </trkpt>
      <trkpt lat="43.73535" lon="7.08863">
        <ele>564</ele>
        <time>2023-07-30T05:50:51.000Z</time>
      </trkpt>
      <trkpt lat="43.73535" lon="7.08863">
        <ele>564.20001220703</ele>
        <time>2023-07-30T05:50:52.000Z</time>
      </trkpt>
      <trkpt lat="43.73535" lon="7.08863">
        <ele>564.40002441406</ele>
        <time>2023-07-30T05:50:53.000Z</time>
      </trkpt>
      <trkpt lat="43.73535" lon="7.08863">
        <ele>564.40002441406</ele>
        <time>2023-07-30T05:50:54.000Z</time>
      </trkpt>
      <trkpt lat="43.73535" lon="7.08863">
        <ele>564.40002441406</ele>
        <time>2023-07-30T05:50:55.000Z</time>
      </trkpt>
      <trkpt lat="43.73535" lon="7.08863">
        <ele>564.40002441406</ele>
        <time>2023-07-30T05:50:56.000Z</time>
      </trkpt>
      <trkpt lat="43.73536" lon="7.08864">
        <ele>564.40002441406</ele>
        <time>2023-07-30T05:50:57.000Z</time>
      </trkpt>
      <trkpt lat="43.73536" lon="7.08864">
        <ele>564.59997558594</ele>
        <time>2023-07-30T05:50:58.000Z</time>
      </trkpt>
      <trkpt lat="43.73536" lon="7.08864">
        <ele>564.59997558594</ele>
        <time>2023-07-30T05:50:59.000Z</time>
      </trkpt>
      <trkpt lat="43.73536" lon="7.08864">
        <ele>564.59997558594</ele>
        <time>2023-07-30T05:51:00.000Z</time>
      </trkpt>
      <trkpt lat="43.73536" lon="7.08864">
        <ele>564.59997558594</ele>
        <time>2023-07-30T05:51:01.000Z</time>
      </trkpt>
      <trkpt lat="43.73536" lon="7.08864">
        <ele>564.59997558594</ele>
        <time>2023-07-30T05:51:02.000Z</time>
      </trkpt>
      <trkpt lat="43.73536" lon="7.08864">
        <ele>564.59997558594</ele>
        <time>2023-07-30T05:51:03.000Z</time>
      </trkpt>
      <trkpt lat="43.73536" lon="7.08864">
        <ele>564.59997558594</ele>
        <time>2023-07-30T05:51:04.000Z</time>
      </trkpt>
      <trkpt lat="43.73536" lon="7.08864">
        <ele>564.59997558594</ele>
        <time>2023-07-30T05:51:05.000Z</time>
      </trkpt>
      <trkpt lat="43.73536" lon="7.08864">
        <ele>564.79998779297</ele>
        <time>2023-07-30T05:51:06.000Z</time>
      </trkpt>
      <trkpt lat="43.73536" lon="7.08864">
        <ele>564.79998779297</ele>
        <time>2023-07-30T05:51:07.000Z</time>
      </trkpt>
      <trkpt lat="43.73536" lon="7.08864">
        <ele>564.79998779297</ele>
        <time>2023-07-30T05:51:08.000Z</time>
      </trkpt>
      <trkpt lat="43.73536" lon="7.08864">
        <ele>564.79998779297</ele>
        <time>2023-07-30T05:51:09.000Z</time>
      </trkpt>
      <trkpt lat="43.73536" lon="7.08864">
        <ele>564.79998779297</ele>
        <time>2023-07-30T05:51:10.000Z</time>
      </trkpt>
      <trkpt lat="43.73536" lon="7.08864">
        <ele>564.79998779297</ele>
        <time>2023-07-30T05:51:11.000Z</time>
      </trkpt>
      <trkpt lat="43.73536" lon="7.08864">
        <ele>564.79998779297</ele>
        <time>2023-07-30T05:51:12.000Z</time>
      </trkpt>
      <trkpt lat="43.73536" lon="7.08864">
        <ele>564.79998779297</ele>
        <time>2023-07-30T05:51:13.000Z</time>
      </trkpt>
      <trkpt lat="43.73536" lon="7.08864">
        <ele>564.79998779297</ele>
        <time>2023-07-30T05:51:14.000Z</time>
      </trkpt>
      <trkpt lat="43.73536" lon="7.08864">
        <ele>564.79998779297</ele>
        <time>2023-07-30T05:51:15.000Z</time>
      </trkpt>
      <trkpt lat="43.73536" lon="7.08864">
        <ele>564.59997558594</ele>
        <time>2023-07-30T05:51:16.000Z</time>
      </trkpt>
      <trkpt lat="43.73536" lon="7.08864">
        <ele>564.59997558594</ele>
        <time>2023-07-30T05:51:17.000Z</time>
      </trkpt>
      <trkpt lat="43.73536" lon="7.08864">
        <ele>564.59997558594</ele>
        <time>2023-07-30T05:51:18.000Z</time>
      </trkpt>
      <trkpt lat="43.73536" lon="7.08864">
        <ele>564.59997558594</ele>
        <time>2023-07-30T05:51:19.000Z</time>
      </trkpt>
      <trkpt lat="43.73536" lon="7.08864">
        <ele>564.59997558594</ele>
        <time>2023-07-30T05:51:20.000Z</time>
      </trkpt>
      <trkpt lat="43.73536" lon="7.08864">
        <ele>564.40002441406</ele>
        <time>2023-07-30T05:51:21.000Z</time>
      </trkpt>
      <trkpt lat="43.73536" lon="7.08864">
        <ele>564.40002441406</ele>
        <time>2023-07-30T05:51:22.000Z</time>
      </trkpt>
      <trkpt lat="43.73536" lon="7.08864">
        <ele>564.40002441406</ele>
        <time>2023-07-30T05:51:23.000Z</time>
      </trkpt>
      <trkpt lat="43.73536" lon="7.08864">
        <ele>564.40002441406</ele>
        <time>2023-07-30T05:51:24.000Z</time>
      </trkpt>
      <trkpt lat="43.73536" lon="7.08864">
        <ele>564.40002441406</ele>
        <time>2023-07-30T05:51:25.000Z</time>
      </trkpt>
      <trkpt lat="43.73536" lon="7.08864">
        <ele>564.40002441406</ele>
        <time>2023-07-30T05:51:26.000Z</time>
      </trkpt>
      <trkpt lat="43.73536" lon="7.08864">
        <ele>564.40002441406</ele>
        <time>2023-07-30T05:51:27.000Z</time>
      </trkpt>
      <trkpt lat="43.73536" lon="7.08864">
        <ele>564.40002441406</ele>
        <time>2023-07-30T05:51:28.000Z</time>
      </trkpt>
      <trkpt lat="43.73536" lon="7.08864">
        <ele>564.40002441406</ele>
        <time>2023-07-30T05:51:29.000Z</time>
      </trkpt>
      <trkpt lat="43.73536" lon="7.08864">
        <ele>564.40002441406</ele>
        <time>2023-07-30T05:51:30.000Z</time>
      </trkpt>
      <trkpt lat="43.73536" lon="7.08864">
        <ele>564.40002441406</ele>
        <time>2023-07-30T05:51:31.000Z</time>
      </trkpt>
      <trkpt lat="43.73536" lon="7.08864">
        <ele>564.40002441406</ele>
        <time>2023-07-30T05:51:32.000Z</time>
      </trkpt>
      <trkpt lat="43.73536" lon="7.08864">
        <ele>564.40002441406</ele>
        <time>2023-07-30T05:51:33.000Z</time>
      </trkpt>
      <trkpt lat="43.73536" lon="7.08864">
        <ele>564.59997558594</ele>
        <time>2023-07-30T05:51:34.000Z</time>
      </trkpt>
      <trkpt lat="43.73536" lon="7.08864">
        <ele>564.59997558594</ele>
        <time>2023-07-30T05:51:35.000Z</time>
      </trkpt>
      <trkpt lat="43.73536" lon="7.08864">
        <ele>564.59997558594</ele>
        <time>2023-07-30T05:51:36.000Z</time>
      </trkpt>
      <trkpt lat="43.73536" lon="7.08864">
        <ele>564.59997558594</ele>
        <time>2023-07-30T05:51:37.000Z</time>
      </trkpt>
      <trkpt lat="43.73536" lon="7.08864">
        <ele>564.59997558594</ele>
        <time>2023-07-30T05:51:38.000Z</time>
      </trkpt>
      <trkpt lat="43.73536" lon="7.08864">
        <ele>564.59997558594</ele>
        <time>2023-07-30T05:51:39.000Z</time>
      </trkpt>
      <trkpt lat="43.73536" lon="7.08864">
        <ele>564.40002441406</ele>
        <time>2023-07-30T05:51:40.000Z</time>
      </trkpt>
      <trkpt lat="43.73536" lon="7.08864">
        <ele>564.40002441406</ele>
        <time>2023-07-30T05:51:41.000Z</time>
      </trkpt>
      <trkpt lat="43.73536" lon="7.08864">
        <ele>564.40002441406</ele>
        <time>2023-07-30T05:51:42.000Z</time>
      </trkpt>
      <trkpt lat="43.73536" lon="7.08864">
        <ele>564.40002441406</ele>
        <time>2023-07-30T05:51:43.000Z</time>
      </trkpt>
      <trkpt lat="43.73536" lon="7.08864">
        <ele>564.40002441406</ele>
        <time>2023-07-30T05:51:44.000Z</time>
      </trkpt>
      <trkpt lat="43.73536" lon="7.08864">
        <ele>564.40002441406</ele>
        <time>2023-07-30T05:51:45.000Z</time>
      </trkpt>
      <trkpt lat="43.73536" lon="7.08864">
        <ele>564.40002441406</ele>
        <time>2023-07-30T05:51:46.000Z</time>
      </trkpt>
      <trkpt lat="43.73536" lon="7.08864">
        <ele>564.40002441406</ele>
        <time>2023-07-30T05:51:47.000Z</time>
      </trkpt>
      <trkpt lat="43.73536" lon="7.08864">
        <ele>564.20001220703</ele>
        <time>2023-07-30T05:51:48.000Z</time>
      </trkpt>
      <trkpt lat="43.73536" lon="7.08864">
        <ele>564.40002441406</ele>
        <time>2023-07-30T05:51:49.000Z</time>
      </trkpt>
      <trkpt lat="43.73536" lon="7.08864">
        <ele>564.40002441406</ele>
        <time>2023-07-30T05:51:50.000Z</time>
      </trkpt>
      <trkpt lat="43.73536" lon="7.08864">
        <ele>564.40002441406</ele>
        <time>2023-07-30T05:51:51.000Z</time>
      </trkpt>
      <trkpt lat="43.73536" lon="7.08864">
        <ele>564.20001220703</ele>
        <time>2023-07-30T05:51:52.000Z</time>
      </trkpt>
      <trkpt lat="43.73536" lon="7.08864">
        <ele>564.20001220703</ele>
        <time>2023-07-30T05:51:53.000Z</time>
      </trkpt>
      <trkpt lat="43.73536" lon="7.08864">
        <ele>564.20001220703</ele>
        <time>2023-07-30T05:51:54.000Z</time>
      </trkpt>
      <trkpt lat="43.73536" lon="7.08864">
        <ele>564.20001220703</ele>
        <time>2023-07-30T05:51:55.000Z</time>
      </trkpt>
      <trkpt lat="43.73536" lon="7.08864">
        <ele>564.20001220703</ele>
        <time>2023-07-30T05:51:56.000Z</time>
      </trkpt>
      <trkpt lat="43.73536" lon="7.08864">
        <ele>564.20001220703</ele>
        <time>2023-07-30T05:51:57.000Z</time>
      </trkpt>
      <trkpt lat="43.73536" lon="7.08864">
        <ele>564.20001220703</ele>
        <time>2023-07-30T05:51:58.000Z</time>
      </trkpt>
      <trkpt lat="43.73536" lon="7.08864">
        <ele>564.20001220703</ele>
        <time>2023-07-30T05:51:59.000Z</time>
      </trkpt>
      <trkpt lat="43.73536" lon="7.08864">
        <ele>564.20001220703</ele>
        <time>2023-07-30T05:52:00.000Z</time>
      </trkpt>
      <trkpt lat="43.73536" lon="7.08864">
        <ele>564.20001220703</ele>
        <time>2023-07-30T05:52:01.000Z</time>
      </trkpt>
      <trkpt lat="43.73536" lon="7.08864">
        <ele>564.20001220703</ele>
        <time>2023-07-30T05:52:02.000Z</time>
      </trkpt>
      <trkpt lat="43.73536" lon="7.08864">
        <ele>564.20001220703</ele>
        <time>2023-07-30T05:52:03.000Z</time>
      </trkpt>
      <trkpt lat="43.73536" lon="7.08864">
        <ele>564.20001220703</ele>
        <time>2023-07-30T05:52:04.000Z</time>
      </trkpt>
      <trkpt lat="43.73536" lon="7.08864">
        <ele>564.20001220703</ele>
        <time>2023-07-30T05:52:05.000Z</time>
      </trkpt>
      <trkpt lat="43.73536" lon="7.08864">
        <ele>564.20001220703</ele>
        <time>2023-07-30T05:52:06.000Z</time>
      </trkpt>
      <trkpt lat="43.73536" lon="7.08864">
        <ele>564.20001220703</ele>
        <time>2023-07-30T05:52:07.000Z</time>
      </trkpt>
      <trkpt lat="43.73536" lon="7.08864">
        <ele>564.20001220703</ele>
        <time>2023-07-30T05:52:08.000Z</time>
      </trkpt>
      <trkpt lat="43.73536" lon="7.08864">
        <ele>564.20001220703</ele>
        <time>2023-07-30T05:52:09.000Z</time>
      </trkpt>
      <trkpt lat="43.73536" lon="7.08864">
        <ele>564.20001220703</ele>
        <time>2023-07-30T05:52:10.000Z</time>
      </trkpt>
      <trkpt lat="43.73536" lon="7.08864">
        <ele>564.20001220703</ele>
        <time>2023-07-30T05:52:11.000Z</time>
      </trkpt>
      <trkpt lat="43.73536" lon="7.08864">
        <ele>564.20001220703</ele>
        <time>2023-07-30T05:52:12.000Z</time>
      </trkpt>
      <trkpt lat="43.73536" lon="7.08864">
        <ele>564.20001220703</ele>
        <time>2023-07-30T05:52:13.000Z</time>
      </trkpt>
      <trkpt lat="43.73536" lon="7.08864">
        <ele>564.20001220703</ele>
        <time>2023-07-30T05:52:14.000Z</time>
      </trkpt>
      <trkpt lat="43.73536" lon="7.08864">
        <ele>564.20001220703</ele>
        <time>2023-07-30T05:52:15.000Z</time>
      </trkpt>
      <trkpt lat="43.73536" lon="7.08864">
        <ele>564.20001220703</ele>
        <time>2023-07-30T05:52:16.000Z</time>
      </trkpt>
      <trkpt lat="43.73536" lon="7.08864">
        <ele>564.20001220703</ele>
        <time>2023-07-30T05:52:17.000Z</time>
      </trkpt>
      <trkpt lat="43.73536" lon="7.08864">
        <ele>564.20001220703</ele>
        <time>2023-07-30T05:52:18.000Z</time>
      </trkpt>
      <trkpt lat="43.73536" lon="7.08864">
        <ele>564.20001220703</ele>
        <time>2023-07-30T05:52:19.000Z</time>
      </trkpt>
      <trkpt lat="43.73536" lon="7.08864">
        <ele>564.20001220703</ele>
        <time>2023-07-30T05:52:20.000Z</time>
      </trkpt>
      <trkpt lat="43.73536" lon="7.08864">
        <ele>564.20001220703</ele>
        <time>2023-07-30T05:52:21.000Z</time>
      </trkpt>
      <trkpt lat="43.73536" lon="7.08864">
        <ele>564.20001220703</ele>
        <time>2023-07-30T05:52:22.000Z</time>
      </trkpt>
      <trkpt lat="43.73536" lon="7.08864">
        <ele>564.20001220703</ele>
        <time>2023-07-30T05:52:23.000Z</time>
      </trkpt>
      <trkpt lat="43.73536" lon="7.08864">
        <ele>564.20001220703</ele>
        <time>2023-07-30T05:52:24.000Z</time>
      </trkpt>
      <trkpt lat="43.73536" lon="7.08864">
        <ele>564.20001220703</ele>
        <time>2023-07-30T05:52:25.000Z</time>
      </trkpt>
      <trkpt lat="43.73536" lon="7.08864">
        <ele>564.20001220703</ele>
        <time>2023-07-30T05:52:26.000Z</time>
      </trkpt>
      <trkpt lat="43.73536" lon="7.08864">
        <ele>564.20001220703</ele>
        <time>2023-07-30T05:52:27.000Z</time>
      </trkpt>
      <trkpt lat="43.73536" lon="7.08864">
        <ele>564.20001220703</ele>
        <time>2023-07-30T05:52:28.000Z</time>
      </trkpt>
      <trkpt lat="43.73536" lon="7.08864">
        <ele>564.20001220703</ele>
        <time>2023-07-30T05:52:29.000Z</time>
      </trkpt>
      <trkpt lat="43.73536" lon="7.08864">
        <ele>564.20001220703</ele>
        <time>2023-07-30T05:52:30.000Z</time>
      </trkpt>
      <trkpt lat="43.73536" lon="7.08864">
        <ele>564.20001220703</ele>
        <time>2023-07-30T05:52:31.000Z</time>
      </trkpt>
      <trkpt lat="43.73536" lon="7.08864">
        <ele>564.20001220703</ele>
        <time>2023-07-30T05:52:32.000Z</time>
      </trkpt>
      <trkpt lat="43.73536" lon="7.08864">
        <ele>564.20001220703</ele>
        <time>2023-07-30T05:52:33.000Z</time>
      </trkpt>
      <trkpt lat="43.73536" lon="7.08864">
        <ele>564.20001220703</ele>
        <time>2023-07-30T05:52:34.000Z</time>
      </trkpt>
      <trkpt lat="43.73536" lon="7.08864">
        <ele>564.20001220703</ele>
        <time>2023-07-30T05:52:35.000Z</time>
      </trkpt>
      <trkpt lat="43.73536" lon="7.08864">
        <ele>564.20001220703</ele>
        <time>2023-07-30T05:52:36.000Z</time>
      </trkpt>
      <trkpt lat="43.73536" lon="7.08864">
        <ele>564.20001220703</ele>
        <time>2023-07-30T05:52:37.000Z</time>
      </trkpt>
      <trkpt lat="43.73536" lon="7.08864">
        <ele>564.20001220703</ele>
        <time>2023-07-30T05:52:38.000Z</time>
      </trkpt>
      <trkpt lat="43.73536" lon="7.08864">
        <ele>564.20001220703</ele>
        <time>2023-07-30T05:52:39.000Z</time>
      </trkpt>
      <trkpt lat="43.73536" lon="7.08864">
        <ele>564.20001220703</ele>
        <time>2023-07-30T05:52:40.000Z</time>
      </trkpt>
      <trkpt lat="43.73536" lon="7.08864">
        <ele>564.20001220703</ele>
        <time>2023-07-30T05:52:41.000Z</time>
      </trkpt>
      <trkpt lat="43.73536" lon="7.08864">
        <ele>564.20001220703</ele>
        <time>2023-07-30T05:52:42.000Z</time>
      </trkpt>
      <trkpt lat="43.73536" lon="7.08864">
        <ele>564.20001220703</ele>
        <time>2023-07-30T05:52:43.000Z</time>
      </trkpt>
      <trkpt lat="43.73536" lon="7.08864">
        <ele>564.20001220703</ele>
        <time>2023-07-30T05:52:44.000Z</time>
      </trkpt>
      <trkpt lat="43.73536" lon="7.08864">
        <ele>564.20001220703</ele>
        <time>2023-07-30T05:52:45.000Z</time>
      </trkpt>
      <trkpt lat="43.73536" lon="7.08864">
        <ele>564.20001220703</ele>
        <time>2023-07-30T05:52:46.000Z</time>
      </trkpt>
      <trkpt lat="43.73536" lon="7.08864">
        <ele>564.20001220703</ele>
        <time>2023-07-30T05:52:47.000Z</time>
      </trkpt>
      <trkpt lat="43.73536" lon="7.08864">
        <ele>564.20001220703</ele>
        <time>2023-07-30T05:52:48.000Z</time>
      </trkpt>
      <trkpt lat="43.73536" lon="7.08864">
        <ele>564.20001220703</ele>
        <time>2023-07-30T05:52:49.000Z</time>
      </trkpt>
      <trkpt lat="43.73536" lon="7.08864">
        <ele>564.20001220703</ele>
        <time>2023-07-30T05:52:50.000Z</time>
      </trkpt>
      <trkpt lat="43.73536" lon="7.08864">
        <ele>564.20001220703</ele>
        <time>2023-07-30T05:52:51.000Z</time>
      </trkpt>
      <trkpt lat="43.73536" lon="7.08864">
        <ele>564.20001220703</ele>
        <time>2023-07-30T05:52:52.000Z</time>
      </trkpt>
      <trkpt lat="43.73536" lon="7.08864">
        <ele>564.20001220703</ele>
        <time>2023-07-30T05:52:53.000Z</time>
      </trkpt>
      <trkpt lat="43.73536" lon="7.08864">
        <ele>564.20001220703</ele>
        <time>2023-07-30T05:52:54.000Z</time>
      </trkpt>
      <trkpt lat="43.73536" lon="7.08864">
        <ele>564.20001220703</ele>
        <time>2023-07-30T05:52:55.000Z</time>
      </trkpt>
      <trkpt lat="43.73536" lon="7.08864">
        <ele>564.20001220703</ele>
        <time>2023-07-30T05:52:56.000Z</time>
      </trkpt>
      <trkpt lat="43.73536" lon="7.08864">
        <ele>564.20001220703</ele>
        <time>2023-07-30T05:52:57.000Z</time>
      </trkpt>
      <trkpt lat="43.73536" lon="7.08864">
        <ele>564.20001220703</ele>
        <time>2023-07-30T05:52:58.000Z</time>
      </trkpt>
      <trkpt lat="43.73536" lon="7.08864">
        <ele>564.20001220703</ele>
        <time>2023-07-30T05:52:59.000Z</time>
      </trkpt>
      <trkpt lat="43.73536" lon="7.08864">
        <ele>564.20001220703</ele>
        <time>2023-07-30T05:53:00.000Z</time>
      </trkpt>
      <trkpt lat="43.73536" lon="7.08864">
        <ele>564.20001220703</ele>
        <time>2023-07-30T05:53:01.000Z</time>
      </trkpt>
      <trkpt lat="43.73536" lon="7.08864">
        <ele>564.20001220703</ele>
        <time>2023-07-30T05:53:02.000Z</time>
      </trkpt>
      <trkpt lat="43.73536" lon="7.08864">
        <ele>564.20001220703</ele>
        <time>2023-07-30T05:53:03.000Z</time>
      </trkpt>
      <trkpt lat="43.73536" lon="7.08864">
        <ele>564.20001220703</ele>
        <time>2023-07-30T05:53:04.000Z</time>
      </trkpt>
      <trkpt lat="43.73536" lon="7.08864">
        <ele>564.20001220703</ele>
        <time>2023-07-30T05:53:05.000Z</time>
      </trkpt>
      <trkpt lat="43.73536" lon="7.08864">
        <ele>564.20001220703</ele>
        <time>2023-07-30T05:53:06.000Z</time>
      </trkpt>
      <trkpt lat="43.73536" lon="7.08864">
        <ele>564.20001220703</ele>
        <time>2023-07-30T05:53:07.000Z</time>
      </trkpt>
      <trkpt lat="43.73536" lon="7.08864">
        <ele>564.20001220703</ele>
        <time>2023-07-30T05:53:08.000Z</time>
      </trkpt>
      <trkpt lat="43.73536" lon="7.08864">
        <ele>564.20001220703</ele>
        <time>2023-07-30T05:53:09.000Z</time>
      </trkpt>
      <trkpt lat="43.73536" lon="7.08864">
        <ele>564.20001220703</ele>
        <time>2023-07-30T05:53:10.000Z</time>
      </trkpt>
      <trkpt lat="43.73536" lon="7.08864">
        <ele>564.20001220703</ele>
        <time>2023-07-30T05:53:11.000Z</time>
      </trkpt>
      <trkpt lat="43.73536" lon="7.08864">
        <ele>564.20001220703</ele>
        <time>2023-07-30T05:53:12.000Z</time>
      </trkpt>
      <trkpt lat="43.73536" lon="7.08864">
        <ele>564.20001220703</ele>
        <time>2023-07-30T05:53:13.000Z</time>
      </trkpt>
      <trkpt lat="43.73536" lon="7.08864">
        <ele>564.20001220703</ele>
        <time>2023-07-30T05:53:14.000Z</time>
      </trkpt>
      <trkpt lat="43.73536" lon="7.08864">
        <ele>564.20001220703</ele>
        <time>2023-07-30T05:53:15.000Z</time>
      </trkpt>
      <trkpt lat="43.73536" lon="7.08864">
        <ele>564.20001220703</ele>
        <time>2023-07-30T05:53:16.000Z</time>
      </trkpt>
      <trkpt lat="43.73536" lon="7.08864">
        <ele>564.20001220703</ele>
        <time>2023-07-30T05:53:17.000Z</time>
      </trkpt>
      <trkpt lat="43.73536" lon="7.08864">
        <ele>564.20001220703</ele>
        <time>2023-07-30T05:53:18.000Z</time>
      </trkpt>
      <trkpt lat="43.73536" lon="7.08864">
        <ele>564.20001220703</ele>
        <time>2023-07-30T05:53:19.000Z</time>
      </trkpt>
      <trkpt lat="43.73536" lon="7.08864">
        <ele>564.20001220703</ele>
        <time>2023-07-30T05:53:20.000Z</time>
      </trkpt>
      <trkpt lat="43.73536" lon="7.08864">
        <ele>564.20001220703</ele>
        <time>2023-07-30T05:53:21.000Z</time>
      </trkpt>
      <trkpt lat="43.73536" lon="7.08864">
        <ele>564.20001220703</ele>
        <time>2023-07-30T05:53:22.000Z</time>
      </trkpt>
      <trkpt lat="43.73536" lon="7.08864">
        <ele>564.20001220703</ele>
        <time>2023-07-30T05:53:23.000Z</time>
      </trkpt>
      <trkpt lat="43.73536" lon="7.08864">
        <ele>564.20001220703</ele>
        <time>2023-07-30T05:53:24.000Z</time>
      </trkpt>
      <trkpt lat="43.73536" lon="7.08864">
        <ele>564.20001220703</ele>
        <time>2023-07-30T05:53:25.000Z</time>
      </trkpt>
      <trkpt lat="43.73536" lon="7.08864">
        <ele>564.20001220703</ele>
        <time>2023-07-30T05:53:26.000Z</time>
      </trkpt>
      <trkpt lat="43.73536" lon="7.08864">
        <ele>564.20001220703</ele>
        <time>2023-07-30T05:53:27.000Z</time>
      </trkpt>
      <trkpt lat="43.73536" lon="7.08864">
        <ele>564.20001220703</ele>
        <time>2023-07-30T05:53:28.000Z</time>
      </trkpt>
      <trkpt lat="43.73536" lon="7.08864">
        <ele>564.20001220703</ele>
        <time>2023-07-30T05:53:29.000Z</time>
      </trkpt>
      <trkpt lat="43.73536" lon="7.08864">
        <ele>564.20001220703</ele>
        <time>2023-07-30T05:53:30.000Z</time>
      </trkpt>
      <trkpt lat="43.73536" lon="7.08864">
        <ele>564.20001220703</ele>
        <time>2023-07-30T05:53:31.000Z</time>
      </trkpt>
      <trkpt lat="43.73536" lon="7.08864">
        <ele>564.20001220703</ele>
        <time>2023-07-30T05:53:32.000Z</time>
      </trkpt>
      <trkpt lat="43.73536" lon="7.08864">
        <ele>564.20001220703</ele>
        <time>2023-07-30T05:53:33.000Z</time>
      </trkpt>
      <trkpt lat="43.73536" lon="7.08864">
        <ele>564.20001220703</ele>
        <time>2023-07-30T05:53:34.000Z</time>
      </trkpt>
      <trkpt lat="43.73536" lon="7.08864">
        <ele>564.20001220703</ele>
        <time>2023-07-30T05:53:35.000Z</time>
      </trkpt>
      <trkpt lat="43.73536" lon="7.08864">
        <ele>564.20001220703</ele>
        <time>2023-07-30T05:53:36.000Z</time>
      </trkpt>
      <trkpt lat="43.73536" lon="7.08864">
        <ele>564.20001220703</ele>
        <time>2023-07-30T05:53:37.000Z</time>
      </trkpt>
      <trkpt lat="43.73536" lon="7.08864">
        <ele>564.20001220703</ele>
        <time>2023-07-30T05:53:38.000Z</time>
      </trkpt>
      <trkpt lat="43.73536" lon="7.08864">
        <ele>564.20001220703</ele>
        <time>2023-07-30T05:53:39.000Z</time>
      </trkpt>
      <trkpt lat="43.73536" lon="7.08864">
        <ele>564.20001220703</ele>
        <time>2023-07-30T05:53:40.000Z</time>
      </trkpt>
      <trkpt lat="43.73536" lon="7.08864">
        <ele>564.20001220703</ele>
        <time>2023-07-30T05:53:41.000Z</time>
      </trkpt>
      <trkpt lat="43.73536" lon="7.08864">
        <ele>564.20001220703</ele>
        <time>2023-07-30T05:53:42.000Z</time>
      </trkpt>
      <trkpt lat="43.73536" lon="7.08864">
        <ele>564.20001220703</ele>
        <time>2023-07-30T05:53:43.000Z</time>
      </trkpt>
      <trkpt lat="43.73536" lon="7.08864">
        <ele>564.20001220703</ele>
        <time>2023-07-30T05:53:44.000Z</time>
      </trkpt>
      <trkpt lat="43.73536" lon="7.08864">
        <ele>564.20001220703</ele>
        <time>2023-07-30T05:53:45.000Z</time>
      </trkpt>
      <trkpt lat="43.73536" lon="7.08864">
        <ele>564.20001220703</ele>
        <time>2023-07-30T05:53:46.000Z</time>
      </trkpt>
      <trkpt lat="43.73536" lon="7.08864">
        <ele>564.20001220703</ele>
        <time>2023-07-30T05:53:47.000Z</time>
      </trkpt>
      <trkpt lat="43.73536" lon="7.08864">
        <ele>564.20001220703</ele>
        <time>2023-07-30T05:53:48.000Z</time>
      </trkpt>
      <trkpt lat="43.73536" lon="7.08864">
        <ele>564.20001220703</ele>
        <time>2023-07-30T05:53:49.000Z</time>
      </trkpt>
      <trkpt lat="43.73536" lon="7.08864">
        <ele>564.20001220703</ele>
        <time>2023-07-30T05:53:50.000Z</time>
      </trkpt>
      <trkpt lat="43.73536" lon="7.08864">
        <ele>564.20001220703</ele>
        <time>2023-07-30T05:53:51.000Z</time>
      </trkpt>
      <trkpt lat="43.73536" lon="7.08864">
        <ele>564.20001220703</ele>
        <time>2023-07-30T05:53:52.000Z</time>
      </trkpt>
      <trkpt lat="43.73536" lon="7.08864">
        <ele>564.20001220703</ele>
        <time>2023-07-30T05:53:53.000Z</time>
      </trkpt>
      <trkpt lat="43.73536" lon="7.08864">
        <ele>564.20001220703</ele>
        <time>2023-07-30T05:53:54.000Z</time>
      </trkpt>
      <trkpt lat="43.73536" lon="7.08864">
        <ele>564.20001220703</ele>
        <time>2023-07-30T05:53:55.000Z</time>
      </trkpt>
      <trkpt lat="43.73536" lon="7.08864">
        <ele>564.20001220703</ele>
        <time>2023-07-30T05:53:56.000Z</time>
      </trkpt>
      <trkpt lat="43.73536" lon="7.08864">
        <ele>564.20001220703</ele>
        <time>2023-07-30T05:53:57.000Z</time>
      </trkpt>
      <trkpt lat="43.73536" lon="7.08864">
        <ele>564.20001220703</ele>
        <time>2023-07-30T05:53:58.000Z</time>
      </trkpt>
      <trkpt lat="43.73536" lon="7.08864">
        <ele>564.20001220703</ele>
        <time>2023-07-30T05:53:59.000Z</time>
      </trkpt>
      <trkpt lat="43.73536" lon="7.08864">
        <ele>564.20001220703</ele>
        <time>2023-07-30T05:54:00.000Z</time>
      </trkpt>
      <trkpt lat="43.73536" lon="7.08864">
        <ele>564.20001220703</ele>
        <time>2023-07-30T05:54:01.000Z</time>
      </trkpt>
      <trkpt lat="43.73536" lon="7.08864">
        <ele>564.20001220703</ele>
        <time>2023-07-30T05:54:02.000Z</time>
      </trkpt>
      <trkpt lat="43.73536" lon="7.08864">
        <ele>564.20001220703</ele>
        <time>2023-07-30T05:54:03.000Z</time>
      </trkpt>
      <trkpt lat="43.73536" lon="7.08864">
        <ele>564.20001220703</ele>
        <time>2023-07-30T05:54:04.000Z</time>
      </trkpt>
      <trkpt lat="43.73536" lon="7.08864">
        <ele>564.20001220703</ele>
        <time>2023-07-30T05:54:05.000Z</time>
      </trkpt>
      <trkpt lat="43.73536" lon="7.08864">
        <ele>564.20001220703</ele>
        <time>2023-07-30T05:54:06.000Z</time>
      </trkpt>
      <trkpt lat="43.73536" lon="7.08864">
        <ele>564.20001220703</ele>
        <time>2023-07-30T05:54:07.000Z</time>
      </trkpt>
      <trkpt lat="43.73536" lon="7.08864">
        <ele>564.20001220703</ele>
        <time>2023-07-30T05:54:08.000Z</time>
      </trkpt>
      <trkpt lat="43.73536" lon="7.08864">
        <ele>564.20001220703</ele>
        <time>2023-07-30T05:54:09.000Z</time>
      </trkpt>
      <trkpt lat="43.73536" lon="7.08864">
        <ele>564.20001220703</ele>
        <time>2023-07-30T05:54:10.000Z</time>
      </trkpt>
      <trkpt lat="43.73536" lon="7.08864">
        <ele>564.20001220703</ele>
        <time>2023-07-30T05:54:11.000Z</time>
      </trkpt>
      <trkpt lat="43.73536" lon="7.08864">
        <ele>564.20001220703</ele>
        <time>2023-07-30T05:54:12.000Z</time>
      </trkpt>
      <trkpt lat="43.73536" lon="7.08864">
        <ele>564.20001220703</ele>
        <time>2023-07-30T05:54:13.000Z</time>
      </trkpt>
      <trkpt lat="43.73536" lon="7.08864">
        <ele>564.20001220703</ele>
        <time>2023-07-30T05:54:14.000Z</time>
      </trkpt>
      <trkpt lat="43.73536" lon="7.08864">
        <ele>564.20001220703</ele>
        <time>2023-07-30T05:54:15.000Z</time>
      </trkpt>
      <trkpt lat="43.73536" lon="7.08864">
        <ele>564.20001220703</ele>
        <time>2023-07-30T05:54:16.000Z</time>
      </trkpt>
      <trkpt lat="43.73536" lon="7.08864">
        <ele>564.20001220703</ele>
        <time>2023-07-30T05:54:17.000Z</time>
      </trkpt>
      <trkpt lat="43.73536" lon="7.08864">
        <ele>564.20001220703</ele>
        <time>2023-07-30T05:54:18.000Z</time>
      </trkpt>
      <trkpt lat="43.73536" lon="7.08864">
        <ele>564.20001220703</ele>
        <time>2023-07-30T05:54:19.000Z</time>
      </trkpt>
      <trkpt lat="43.73536" lon="7.08864">
        <ele>564.20001220703</ele>
        <time>2023-07-30T05:54:20.000Z</time>
      </trkpt>
      <trkpt lat="43.73536" lon="7.08864">
        <ele>564.20001220703</ele>
        <time>2023-07-30T05:54:21.000Z</time>
      </trkpt>
      <trkpt lat="43.73536" lon="7.08864">
        <ele>564.20001220703</ele>
        <time>2023-07-30T05:54:22.000Z</time>
      </trkpt>
      <trkpt lat="43.73536" lon="7.08864">
        <ele>564.20001220703</ele>
        <time>2023-07-30T05:54:23.000Z</time>
      </trkpt>
      <trkpt lat="43.73536" lon="7.08864">
        <ele>564.20001220703</ele>
        <time>2023-07-30T05:54:24.000Z</time>
      </trkpt>
      <trkpt lat="43.73536" lon="7.08864">
        <ele>564.20001220703</ele>
        <time>2023-07-30T05:54:25.000Z</time>
      </trkpt>
      <trkpt lat="43.73536" lon="7.08864">
        <ele>564.20001220703</ele>
        <time>2023-07-30T05:54:26.000Z</time>
      </trkpt>
      <trkpt lat="43.73536" lon="7.08864">
        <ele>564.20001220703</ele>
        <time>2023-07-30T05:54:27.000Z</time>
      </trkpt>
      <trkpt lat="43.73536" lon="7.08864">
        <ele>564.20001220703</ele>
        <time>2023-07-30T05:54:28.000Z</time>
      </trkpt>
      <trkpt lat="43.73536" lon="7.08864">
        <ele>564.20001220703</ele>
        <time>2023-07-30T05:54:29.000Z</time>
      </trkpt>
      <trkpt lat="43.73536" lon="7.08864">
        <ele>564.20001220703</ele>
        <time>2023-07-30T05:54:30.000Z</time>
      </trkpt>
      <trkpt lat="43.73536" lon="7.08864">
        <ele>564.20001220703</ele>
        <time>2023-07-30T05:54:31.000Z</time>
      </trkpt>
      <trkpt lat="43.73536" lon="7.08864">
        <ele>564.20001220703</ele>
        <time>2023-07-30T05:54:32.000Z</time>
      </trkpt>
      <trkpt lat="43.73536" lon="7.08864">
        <ele>564.20001220703</ele>
        <time>2023-07-30T05:54:33.000Z</time>
      </trkpt>
      <trkpt lat="43.73536" lon="7.08864">
        <ele>564.20001220703</ele>
        <time>2023-07-30T05:54:34.000Z</time>
      </trkpt>
      <trkpt lat="43.73536" lon="7.08864">
        <ele>564.20001220703</ele>
        <time>2023-07-30T05:54:35.000Z</time>
      </trkpt>
      <trkpt lat="43.73536" lon="7.08864">
        <ele>564.20001220703</ele>
        <time>2023-07-30T05:54:36.000Z</time>
      </trkpt>
      <trkpt lat="43.73536" lon="7.08864">
        <ele>564.20001220703</ele>
        <time>2023-07-30T05:54:37.000Z</time>
      </trkpt>
      <trkpt lat="43.73536" lon="7.08864">
        <ele>564.20001220703</ele>
        <time>2023-07-30T05:54:38.000Z</time>
      </trkpt>
      <trkpt lat="43.73536" lon="7.08864">
        <ele>564.20001220703</ele>
        <time>2023-07-30T05:54:39.000Z</time>
      </trkpt>
      <trkpt lat="43.73536" lon="7.08864">
        <ele>564.20001220703</ele>
        <time>2023-07-30T05:54:40.000Z</time>
      </trkpt>
      <trkpt lat="43.73536" lon="7.08864">
        <ele>564.20001220703</ele>
        <time>2023-07-30T05:54:41.000Z</time>
      </trkpt>
      <trkpt lat="43.73536" lon="7.08864">
        <ele>564.20001220703</ele>
        <time>2023-07-30T05:54:42.000Z</time>
      </trkpt>
      <trkpt lat="43.73536" lon="7.08864">
        <ele>564.20001220703</ele>
        <time>2023-07-30T05:54:43.000Z</time>
      </trkpt>
      <trkpt lat="43.73536" lon="7.08864">
        <ele>564.20001220703</ele>
        <time>2023-07-30T05:54:44.000Z</time>
      </trkpt>
      <trkpt lat="43.73536" lon="7.08864">
        <ele>564.20001220703</ele>
        <time>2023-07-30T05:54:45.000Z</time>
      </trkpt>
      <trkpt lat="43.73536" lon="7.08864">
        <ele>564.20001220703</ele>
        <time>2023-07-30T05:54:46.000Z</time>
      </trkpt>
      <trkpt lat="43.73536" lon="7.08864">
        <ele>564.20001220703</ele>
        <time>2023-07-30T05:54:47.000Z</time>
      </trkpt>
      <trkpt lat="43.73536" lon="7.08864">
        <ele>564.20001220703</ele>
        <time>2023-07-30T05:54:48.000Z</time>
      </trkpt>
      <trkpt lat="43.73536" lon="7.08864">
        <ele>564.20001220703</ele>
        <time>2023-07-30T05:54:49.000Z</time>
      </trkpt>
      <trkpt lat="43.73536" lon="7.08864">
        <ele>564.20001220703</ele>
        <time>2023-07-30T05:54:50.000Z</time>
      </trkpt>
      <trkpt lat="43.73536" lon="7.08864">
        <ele>564.20001220703</ele>
        <time>2023-07-30T05:54:51.000Z</time>
      </trkpt>
      <trkpt lat="43.73536" lon="7.08864">
        <ele>564.20001220703</ele>
        <time>2023-07-30T05:54:52.000Z</time>
      </trkpt>
      <trkpt lat="43.73536" lon="7.08864">
        <ele>564.20001220703</ele>
        <time>2023-07-30T05:54:53.000Z</time>
      </trkpt>
      <trkpt lat="43.73536" lon="7.08864">
        <ele>564.20001220703</ele>
        <time>2023-07-30T05:54:54.000Z</time>
      </trkpt>
      <trkpt lat="43.73536" lon="7.08864">
        <ele>564.20001220703</ele>
        <time>2023-07-30T05:54:55.000Z</time>
      </trkpt>
      <trkpt lat="43.73536" lon="7.08864">
        <ele>564.20001220703</ele>
        <time>2023-07-30T05:54:56.000Z</time>
      </trkpt>
      <trkpt lat="43.73536" lon="7.08864">
        <ele>564.20001220703</ele>
        <time>2023-07-30T05:54:57.000Z</time>
      </trkpt>
      <trkpt lat="43.73536" lon="7.08864">
        <ele>564.20001220703</ele>
        <time>2023-07-30T05:54:58.000Z</time>
      </trkpt>
      <trkpt lat="43.73536" lon="7.08864">
        <ele>564.20001220703</ele>
        <time>2023-07-30T05:54:59.000Z</time>
      </trkpt>
      <trkpt lat="43.73536" lon="7.08864">
        <ele>564.20001220703</ele>
        <time>2023-07-30T05:55:00.000Z</time>
      </trkpt>
      <trkpt lat="43.73536" lon="7.08864">
        <ele>564.20001220703</ele>
        <time>2023-07-30T05:55:01.000Z</time>
      </trkpt>
      <trkpt lat="43.73536" lon="7.08864">
        <ele>564.20001220703</ele>
        <time>2023-07-30T05:55:02.000Z</time>
      </trkpt>
      <trkpt lat="43.73536" lon="7.08864">
        <ele>564.20001220703</ele>
        <time>2023-07-30T05:55:03.000Z</time>
      </trkpt>
      <trkpt lat="43.73536" lon="7.08864">
        <ele>564.20001220703</ele>
        <time>2023-07-30T05:55:04.000Z</time>
      </trkpt>
      <trkpt lat="43.73536" lon="7.08864">
        <ele>564.20001220703</ele>
        <time>2023-07-30T05:55:05.000Z</time>
      </trkpt>
      <trkpt lat="43.73536" lon="7.08864">
        <ele>564.20001220703</ele>
        <time>2023-07-30T05:55:06.000Z</time>
      </trkpt>
      <trkpt lat="43.73536" lon="7.08864">
        <ele>564.20001220703</ele>
        <time>2023-07-30T05:55:07.000Z</time>
      </trkpt>
      <trkpt lat="43.73536" lon="7.08864">
        <ele>564.20001220703</ele>
        <time>2023-07-30T05:55:08.000Z</time>
      </trkpt>
      <trkpt lat="43.73536" lon="7.08864">
        <ele>564.20001220703</ele>
        <time>2023-07-30T05:55:09.000Z</time>
      </trkpt>
      <trkpt lat="43.73534" lon="7.08863">
        <ele>564.20001220703</ele>
        <time>2023-07-30T05:55:10.000Z</time>
      </trkpt>
      <trkpt lat="43.73534" lon="7.08863">
        <ele>564.20001220703</ele>
        <time>2023-07-30T05:55:11.000Z</time>
      </trkpt>
      <trkpt lat="43.73533" lon="7.08862">
        <ele>564.20001220703</ele>
        <time>2023-07-30T05:55:12.000Z</time>
      </trkpt>
      <trkpt lat="43.73533" lon="7.08862">
        <ele>564.20001220703</ele>
        <time>2023-07-30T05:55:13.000Z</time>
      </trkpt>
      <trkpt lat="43.73533" lon="7.08862">
        <ele>564.20001220703</ele>
        <time>2023-07-30T05:55:14.000Z</time>
      </trkpt>
      <trkpt lat="43.73533" lon="7.08862">
        <ele>564.20001220703</ele>
        <time>2023-07-30T05:55:15.000Z</time>
      </trkpt>
      <trkpt lat="43.73534" lon="7.08862">
        <ele>564.20001220703</ele>
        <time>2023-07-30T05:55:16.000Z</time>
      </trkpt>
      <trkpt lat="43.73534" lon="7.08862">
        <ele>564.20001220703</ele>
        <time>2023-07-30T05:55:17.000Z</time>
      </trkpt>
      <trkpt lat="43.73534" lon="7.08862">
        <ele>564.20001220703</ele>
        <time>2023-07-30T05:55:18.000Z</time>
      </trkpt>
      <trkpt lat="43.73534" lon="7.08862">
        <ele>564.20001220703</ele>
        <time>2023-07-30T05:55:19.000Z</time>
      </trkpt>
      <trkpt lat="43.73534" lon="7.08862">
        <ele>564.20001220703</ele>
        <time>2023-07-30T05:55:20.000Z</time>
      </trkpt>
      <trkpt lat="43.73534" lon="7.08862">
        <ele>564.20001220703</ele>
        <time>2023-07-30T05:55:21.000Z</time>
      </trkpt>
      <trkpt lat="43.73534" lon="7.08862">
        <ele>564.20001220703</ele>
        <time>2023-07-30T05:55:22.000Z</time>
      </trkpt>
      <trkpt lat="43.73534" lon="7.08862">
        <ele>564.20001220703</ele>
        <time>2023-07-30T05:55:23.000Z</time>
      </trkpt>
      <trkpt lat="43.73534" lon="7.08863">
        <ele>564.20001220703</ele>
        <time>2023-07-30T05:55:24.000Z</time>
      </trkpt>
      <trkpt lat="43.73534" lon="7.08862">
        <ele>564.20001220703</ele>
        <time>2023-07-30T05:55:25.000Z</time>
      </trkpt>
      <trkpt lat="43.73534" lon="7.08863">
        <ele>564.20001220703</ele>
        <time>2023-07-30T05:55:26.000Z</time>
      </trkpt>
      <trkpt lat="43.73534" lon="7.08863">
        <ele>564.20001220703</ele>
        <time>2023-07-30T05:55:27.000Z</time>
      </trkpt>
      <trkpt lat="43.73534" lon="7.08863">
        <ele>564.20001220703</ele>
        <time>2023-07-30T05:55:28.000Z</time>
      </trkpt>
      <trkpt lat="43.73534" lon="7.08863">
        <ele>564.20001220703</ele>
        <time>2023-07-30T05:55:29.000Z</time>
      </trkpt>
      <trkpt lat="43.73534" lon="7.08863">
        <ele>564.20001220703</ele>
        <time>2023-07-30T05:55:30.000Z</time>
      </trkpt>
      <trkpt lat="43.73534" lon="7.08863">
        <ele>564.20001220703</ele>
        <time>2023-07-30T05:55:31.000Z</time>
      </trkpt>
      <trkpt lat="43.73534" lon="7.08863">
        <ele>564.20001220703</ele>
        <time>2023-07-30T05:55:32.000Z</time>
      </trkpt>
      <trkpt lat="43.73534" lon="7.08863">
        <ele>564.20001220703</ele>
        <time>2023-07-30T05:55:33.000Z</time>
      </trkpt>
      <trkpt lat="43.73534" lon="7.08863">
        <ele>564.20001220703</ele>
        <time>2023-07-30T05:55:34.000Z</time>
      </trkpt>
      <trkpt lat="43.73534" lon="7.08863">
        <ele>564.20001220703</ele>
        <time>2023-07-30T05:55:35.000Z</time>
      </trkpt>
      <trkpt lat="43.73534" lon="7.08863">
        <ele>564.20001220703</ele>
        <time>2023-07-30T05:55:36.000Z</time>
      </trkpt>
      <trkpt lat="43.73534" lon="7.08863">
        <ele>564.20001220703</ele>
        <time>2023-07-30T05:55:37.000Z</time>
      </trkpt>
      <trkpt lat="43.73534" lon="7.08863">
        <ele>564.20001220703</ele>
        <time>2023-07-30T05:55:38.000Z</time>
      </trkpt>
      <trkpt lat="43.73534" lon="7.08863">
        <ele>564.20001220703</ele>
        <time>2023-07-30T05:55:39.000Z</time>
      </trkpt>
      <trkpt lat="43.73534" lon="7.08863">
        <ele>564.20001220703</ele>
        <time>2023-07-30T05:55:40.000Z</time>
      </trkpt>
      <trkpt lat="43.73534" lon="7.08863">
        <ele>564.20001220703</ele>
        <time>2023-07-30T05:55:41.000Z</time>
      </trkpt>
      <trkpt lat="43.73534" lon="7.08863">
        <ele>564.20001220703</ele>
        <time>2023-07-30T05:55:42.000Z</time>
      </trkpt>
      <trkpt lat="43.73534" lon="7.08863">
        <ele>564.20001220703</ele>
        <time>2023-07-30T05:55:43.000Z</time>
      </trkpt>
      <trkpt lat="43.73534" lon="7.08863">
        <ele>564.20001220703</ele>
        <time>2023-07-30T05:55:44.000Z</time>
      </trkpt>
      <trkpt lat="43.73534" lon="7.08863">
        <ele>564.20001220703</ele>
        <time>2023-07-30T05:55:45.000Z</time>
      </trkpt>
      <trkpt lat="43.73534" lon="7.08863">
        <ele>564.20001220703</ele>
        <time>2023-07-30T05:55:46.000Z</time>
      </trkpt>
      <trkpt lat="43.73534" lon="7.08863">
        <ele>564.20001220703</ele>
        <time>2023-07-30T05:55:47.000Z</time>
      </trkpt>
      <trkpt lat="43.73534" lon="7.08862">
        <ele>564.20001220703</ele>
        <time>2023-07-30T05:55:48.000Z</time>
      </trkpt>
      <trkpt lat="43.73534" lon="7.08861">
        <ele>564.20001220703</ele>
        <time>2023-07-30T05:55:49.000Z</time>
      </trkpt>
      <trkpt lat="43.73534" lon="7.0886">
        <ele>564.20001220703</ele>
        <time>2023-07-30T05:55:50.000Z</time>
      </trkpt>
      <trkpt lat="43.73535" lon="7.08858">
        <ele>564.20001220703</ele>
        <time>2023-07-30T05:55:51.000Z</time>
      </trkpt>
      <trkpt lat="43.73537" lon="7.08857">
        <ele>564.20001220703</ele>
        <time>2023-07-30T05:55:52.000Z</time>
      </trkpt>
      <trkpt lat="43.73537" lon="7.08856">
        <ele>564.20001220703</ele>
        <time>2023-07-30T05:55:53.000Z</time>
      </trkpt>
      <trkpt lat="43.73538" lon="7.08854">
        <ele>564.20001220703</ele>
        <time>2023-07-30T05:55:54.000Z</time>
      </trkpt>
      <trkpt lat="43.73539" lon="7.08852">
        <ele>564.20001220703</ele>
        <time>2023-07-30T05:55:55.000Z</time>
      </trkpt>
      <trkpt lat="43.73541" lon="7.0885">
        <ele>564.20001220703</ele>
        <time>2023-07-30T05:55:56.000Z</time>
      </trkpt>
      <trkpt lat="43.73542" lon="7.08849">
        <ele>564.20001220703</ele>
        <time>2023-07-30T05:55:57.000Z</time>
      </trkpt>
      <trkpt lat="43.73544" lon="7.08847">
        <ele>566</ele>
        <time>2023-07-30T05:55:58.000Z</time>
      </trkpt>
      <trkpt lat="43.73545" lon="7.08844">
        <ele>566</ele>
        <time>2023-07-30T05:55:59.000Z</time>
      </trkpt>
      <trkpt lat="43.73546" lon="7.08842">
        <ele>566.40002441406</ele>
        <time>2023-07-30T05:56:00.000Z</time>
      </trkpt>
      <trkpt lat="43.73547" lon="7.0884">
        <ele>566.79998779297</ele>
        <time>2023-07-30T05:56:01.000Z</time>
      </trkpt>
      <trkpt lat="43.73548" lon="7.08839">
        <ele>567</ele>
        <time>2023-07-30T05:56:02.000Z</time>
      </trkpt>
      <trkpt lat="43.73549" lon="7.08836">
        <ele>567</ele>
        <time>2023-07-30T05:56:03.000Z</time>
      </trkpt>
      <trkpt lat="43.7355" lon="7.08834">
        <ele>567</ele>
        <time>2023-07-30T05:56:04.000Z</time>
      </trkpt>
      <trkpt lat="43.73551" lon="7.08831">
        <ele>567.20001220703</ele>
        <time>2023-07-30T05:56:05.000Z</time>
      </trkpt>
      <trkpt lat="43.73552" lon="7.08829">
        <ele>567.79998779297</ele>
        <time>2023-07-30T05:56:06.000Z</time>
      </trkpt>
      <trkpt lat="43.73552" lon="7.08827">
        <ele>568.20001220703</ele>
        <time>2023-07-30T05:56:07.000Z</time>
      </trkpt>
      <trkpt lat="43.73554" lon="7.08824">
        <ele>568.59997558594</ele>
        <time>2023-07-30T05:56:08.000Z</time>
      </trkpt>
      <trkpt lat="43.73555" lon="7.08822">
        <ele>569</ele>
        <time>2023-07-30T05:56:09.000Z</time>
      </trkpt>
      <trkpt lat="43.73556" lon="7.0882">
        <ele>569.40002441406</ele>
        <time>2023-07-30T05:56:10.000Z</time>
      </trkpt>
      <trkpt lat="43.73557" lon="7.08818">
        <ele>569.79998779297</ele>
        <time>2023-07-30T05:56:11.000Z</time>
      </trkpt>
      <trkpt lat="43.73558" lon="7.08816">
        <ele>570</ele>
        <time>2023-07-30T05:56:12.000Z</time>
      </trkpt>
      <trkpt lat="43.7356" lon="7.08814">
        <ele>570.40002441406</ele>
        <time>2023-07-30T05:56:13.000Z</time>
      </trkpt>
      <trkpt lat="43.73561" lon="7.08812">
        <ele>570.59997558594</ele>
        <time>2023-07-30T05:56:14.000Z</time>
      </trkpt>
      <trkpt lat="43.73562" lon="7.08811">
        <ele>571.20001220703</ele>
        <time>2023-07-30T05:56:15.000Z</time>
      </trkpt>
      <trkpt lat="43.73564" lon="7.0881">
        <ele>571.40002441406</ele>
        <time>2023-07-30T05:56:16.000Z</time>
      </trkpt>
      <trkpt lat="43.73565" lon="7.08808">
        <ele>571.59997558594</ele>
        <time>2023-07-30T05:56:17.000Z</time>
      </trkpt>
      <trkpt lat="43.73567" lon="7.08807">
        <ele>572</ele>
        <time>2023-07-30T05:56:18.000Z</time>
      </trkpt>
      <trkpt lat="43.73568" lon="7.08805">
        <ele>572.59997558594</ele>
        <time>2023-07-30T05:56:19.000Z</time>
      </trkpt>
      <trkpt lat="43.7357" lon="7.08803">
        <ele>572.79998779297</ele>
        <time>2023-07-30T05:56:20.000Z</time>
      </trkpt>
      <trkpt lat="43.73571" lon="7.08802">
        <ele>573.40002441406</ele>
        <time>2023-07-30T05:56:21.000Z</time>
      </trkpt>
      <trkpt lat="43.73573" lon="7.08801">
        <ele>573.79998779297</ele>
        <time>2023-07-30T05:56:22.000Z</time>
      </trkpt>
      <trkpt lat="43.73574" lon="7.088">
        <ele>574.40002441406</ele>
        <time>2023-07-30T05:56:23.000Z</time>
      </trkpt>
      <trkpt lat="43.73575" lon="7.08798">
        <ele>574.40002441406</ele>
        <time>2023-07-30T05:56:24.000Z</time>
      </trkpt>
      <trkpt lat="43.73576" lon="7.08797">
        <ele>574.79998779297</ele>
        <time>2023-07-30T05:56:25.000Z</time>
      </trkpt>
      <trkpt lat="43.73577" lon="7.08795">
        <ele>575.40002441406</ele>
        <time>2023-07-30T05:56:26.000Z</time>
      </trkpt>
      <trkpt lat="43.73579" lon="7.08793">
        <ele>575.79998779297</ele>
        <time>2023-07-30T05:56:27.000Z</time>
      </trkpt>
      <trkpt lat="43.7358" lon="7.08791">
        <ele>576.20001220703</ele>
        <time>2023-07-30T05:56:28.000Z</time>
      </trkpt>
      <trkpt lat="43.73581" lon="7.0879">
        <ele>576.40002441406</ele>
        <time>2023-07-30T05:56:29.000Z</time>
      </trkpt>
      <trkpt lat="43.73582" lon="7.08788">
        <ele>576.79998779297</ele>
        <time>2023-07-30T05:56:30.000Z</time>
      </trkpt>
      <trkpt lat="43.73583" lon="7.08785">
        <ele>577.20001220703</ele>
        <time>2023-07-30T05:56:31.000Z</time>
      </trkpt>
      <trkpt lat="43.73584" lon="7.08782">
        <ele>577.40002441406</ele>
        <time>2023-07-30T05:56:32.000Z</time>
      </trkpt>
      <trkpt lat="43.73585" lon="7.0878">
        <ele>578</ele>
        <time>2023-07-30T05:56:33.000Z</time>
      </trkpt>
      <trkpt lat="43.73585" lon="7.08778">
        <ele>578.20001220703</ele>
        <time>2023-07-30T05:56:34.000Z</time>
      </trkpt>
      <trkpt lat="43.73586" lon="7.08776">
        <ele>578.59997558594</ele>
        <time>2023-07-30T05:56:35.000Z</time>
      </trkpt>
      <trkpt lat="43.73587" lon="7.08774">
        <ele>579</ele>
        <time>2023-07-30T05:56:36.000Z</time>
      </trkpt>
      <trkpt lat="43.73588" lon="7.08772">
        <ele>579.40002441406</ele>
        <time>2023-07-30T05:56:37.000Z</time>
      </trkpt>
      <trkpt lat="43.73589" lon="7.0877">
        <ele>579.79998779297</ele>
        <time>2023-07-30T05:56:38.000Z</time>
      </trkpt>
      <trkpt lat="43.7359" lon="7.08768">
        <ele>580</ele>
        <time>2023-07-30T05:56:39.000Z</time>
      </trkpt>
      <trkpt lat="43.73591" lon="7.08766">
        <ele>580.40002441406</ele>
        <time>2023-07-30T05:56:40.000Z</time>
      </trkpt>
      <trkpt lat="43.73592" lon="7.08764">
        <ele>580.59997558594</ele>
        <time>2023-07-30T05:56:41.000Z</time>
      </trkpt>
      <trkpt lat="43.73593" lon="7.08761">
        <ele>580.79998779297</ele>
        <time>2023-07-30T05:56:42.000Z</time>
      </trkpt>
      <trkpt lat="43.73594" lon="7.08759">
        <ele>581.20001220703</ele>
        <time>2023-07-30T05:56:43.000Z</time>
      </trkpt>
      <trkpt lat="43.73595" lon="7.08757">
        <ele>581.40002441406</ele>
        <time>2023-07-30T05:56:44.000Z</time>
      </trkpt>
      <trkpt lat="43.73595" lon="7.08755">
        <ele>581.79998779297</ele>
        <time>2023-07-30T05:56:45.000Z</time>
      </trkpt>
      <trkpt lat="43.73596" lon="7.08753">
        <ele>581.79998779297</ele>
        <time>2023-07-30T05:56:46.000Z</time>
      </trkpt>
      <trkpt lat="43.73597" lon="7.0875">
        <ele>582.20001220703</ele>
        <time>2023-07-30T05:56:47.000Z</time>
      </trkpt>
      <trkpt lat="43.73598" lon="7.08748">
        <ele>582.40002441406</ele>
        <time>2023-07-30T05:56:48.000Z</time>
      </trkpt>
      <trkpt lat="43.73599" lon="7.08746">
        <ele>582.59997558594</ele>
        <time>2023-07-30T05:56:49.000Z</time>
      </trkpt>
      <trkpt lat="43.73599" lon="7.08743">
        <ele>583</ele>
        <time>2023-07-30T05:56:50.000Z</time>
      </trkpt>
      <trkpt lat="43.73599" lon="7.08741">
        <ele>583.59997558594</ele>
        <time>2023-07-30T05:56:51.000Z</time>
      </trkpt>
      <trkpt lat="43.736" lon="7.08738">
        <ele>584</ele>
        <time>2023-07-30T05:56:52.000Z</time>
      </trkpt>
      <trkpt lat="43.73601" lon="7.08736">
        <ele>584.20001220703</ele>
        <time>2023-07-30T05:56:53.000Z</time>
      </trkpt>
      <trkpt lat="43.73602" lon="7.08735">
        <ele>584.40002441406</ele>
        <time>2023-07-30T05:56:54.000Z</time>
      </trkpt>
      <trkpt lat="43.73603" lon="7.08732">
        <ele>584.59997558594</ele>
        <time>2023-07-30T05:56:55.000Z</time>
      </trkpt>
      <trkpt lat="43.73605" lon="7.0873">
        <ele>585</ele>
        <time>2023-07-30T05:56:56.000Z</time>
      </trkpt>
      <trkpt lat="43.73606" lon="7.08729">
        <ele>585.20001220703</ele>
        <time>2023-07-30T05:56:57.000Z</time>
      </trkpt>
      <trkpt lat="43.73608" lon="7.08727">
        <ele>585.59997558594</ele>
        <time>2023-07-30T05:56:58.000Z</time>
      </trkpt>
      <trkpt lat="43.7361" lon="7.08726">
        <ele>585.79998779297</ele>
        <time>2023-07-30T05:56:59.000Z</time>
      </trkpt>
      <trkpt lat="43.73612" lon="7.08725">
        <ele>586.20001220703</ele>
        <time>2023-07-30T05:57:00.000Z</time>
      </trkpt>
      <trkpt lat="43.73612" lon="7.08723">
        <ele>586.40002441406</ele>
        <time>2023-07-30T05:57:01.000Z</time>
      </trkpt>
      <trkpt lat="43.73614" lon="7.08721">
        <ele>587</ele>
        <time>2023-07-30T05:57:02.000Z</time>
      </trkpt>
      <trkpt lat="43.73615" lon="7.0872">
        <ele>587.40002441406</ele>
        <time>2023-07-30T05:57:03.000Z</time>
      </trkpt>
      <trkpt lat="43.73616" lon="7.08719">
        <ele>587.59997558594</ele>
        <time>2023-07-30T05:57:04.000Z</time>
      </trkpt>
      <trkpt lat="43.73617" lon="7.08717">
        <ele>588</ele>
        <time>2023-07-30T05:57:05.000Z</time>
      </trkpt>
      <trkpt lat="43.73619" lon="7.08715">
        <ele>588.40002441406</ele>
        <time>2023-07-30T05:57:06.000Z</time>
      </trkpt>
      <trkpt lat="43.7362" lon="7.08713">
        <ele>588.59997558594</ele>
        <time>2023-07-30T05:57:07.000Z</time>
      </trkpt>
      <trkpt lat="43.73621" lon="7.08711">
        <ele>588.59997558594</ele>
        <time>2023-07-30T05:57:08.000Z</time>
      </trkpt>
      <trkpt lat="43.73622" lon="7.08709">
        <ele>588.79998779297</ele>
        <time>2023-07-30T05:57:09.000Z</time>
      </trkpt>
      <trkpt lat="43.73623" lon="7.08708">
        <ele>589</ele>
        <time>2023-07-30T05:57:10.000Z</time>
      </trkpt>
      <trkpt lat="43.73624" lon="7.08706">
        <ele>589.40002441406</ele>
        <time>2023-07-30T05:57:11.000Z</time>
      </trkpt>
      <trkpt lat="43.73625" lon="7.08705">
        <ele>589.59997558594</ele>
        <time>2023-07-30T05:57:12.000Z</time>
      </trkpt>
      <trkpt lat="43.73625" lon="7.08705">
        <ele>589.59997558594</ele>
        <time>2023-07-30T05:57:13.000Z</time>
      </trkpt>
      <trkpt lat="43.73625" lon="7.08705">
        <ele>590</ele>
        <time>2023-07-30T05:57:14.000Z</time>
      </trkpt>
      <trkpt lat="43.73625" lon="7.08705">
        <ele>590</ele>
        <time>2023-07-30T05:57:15.000Z</time>
      </trkpt>
      <trkpt lat="43.73625" lon="7.08705">
        <ele>590.20001220703</ele>
        <time>2023-07-30T05:57:16.000Z</time>
      </trkpt>
      <trkpt lat="43.73625" lon="7.08705">
        <ele>590.20001220703</ele>
        <time>2023-07-30T05:57:17.000Z</time>
      </trkpt>
      <trkpt lat="43.73625" lon="7.08705">
        <ele>590.20001220703</ele>
        <time>2023-07-30T05:57:18.000Z</time>
      </trkpt>
      <trkpt lat="43.73625" lon="7.08705">
        <ele>590.20001220703</ele>
        <time>2023-07-30T05:57:19.000Z</time>
      </trkpt>
      <trkpt lat="43.73625" lon="7.08705">
        <ele>590.40002441406</ele>
        <time>2023-07-30T05:57:20.000Z</time>
      </trkpt>
      <trkpt lat="43.73625" lon="7.08705">
        <ele>590.40002441406</ele>
        <time>2023-07-30T05:57:21.000Z</time>
      </trkpt>
      <trkpt lat="43.73625" lon="7.08705">
        <ele>590.40002441406</ele>
        <time>2023-07-30T05:57:22.000Z</time>
      </trkpt>
      <trkpt lat="43.73625" lon="7.08705">
        <ele>590.40002441406</ele>
        <time>2023-07-30T05:57:23.000Z</time>
      </trkpt>
      <trkpt lat="43.73625" lon="7.08705">
        <ele>590.40002441406</ele>
        <time>2023-07-30T05:57:24.000Z</time>
      </trkpt>
      <trkpt lat="43.73625" lon="7.08705">
        <ele>590.40002441406</ele>
        <time>2023-07-30T05:57:25.000Z</time>
      </trkpt>
      <trkpt lat="43.73625" lon="7.08705">
        <ele>590.59997558594</ele>
        <time>2023-07-30T05:57:26.000Z</time>
      </trkpt>
      <trkpt lat="43.73625" lon="7.08705">
        <ele>590.59997558594</ele>
        <time>2023-07-30T05:57:27.000Z</time>
      </trkpt>
      <trkpt lat="43.73625" lon="7.08705">
        <ele>590.59997558594</ele>
        <time>2023-07-30T05:57:28.000Z</time>
      </trkpt>
      <trkpt lat="43.73625" lon="7.08704">
        <ele>590.59997558594</ele>
        <time>2023-07-30T05:57:29.000Z</time>
      </trkpt>
      <trkpt lat="43.73625" lon="7.08704">
        <ele>590.59997558594</ele>
        <time>2023-07-30T05:57:30.000Z</time>
      </trkpt>
      <trkpt lat="43.73625" lon="7.08704">
        <ele>590.59997558594</ele>
        <time>2023-07-30T05:57:31.000Z</time>
      </trkpt>
      <trkpt lat="43.73625" lon="7.08704">
        <ele>590.59997558594</ele>
        <time>2023-07-30T05:57:32.000Z</time>
      </trkpt>
      <trkpt lat="43.73625" lon="7.08704">
        <ele>590.59997558594</ele>
        <time>2023-07-30T05:57:33.000Z</time>
      </trkpt>
      <trkpt lat="43.73625" lon="7.08704">
        <ele>590.59997558594</ele>
        <time>2023-07-30T05:57:34.000Z</time>
      </trkpt>
      <trkpt lat="43.73625" lon="7.08704">
        <ele>590.59997558594</ele>
        <time>2023-07-30T05:57:35.000Z</time>
      </trkpt>
      <trkpt lat="43.73625" lon="7.08704">
        <ele>590.59997558594</ele>
        <time>2023-07-30T05:57:36.000Z</time>
      </trkpt>
      <trkpt lat="43.73625" lon="7.08704">
        <ele>590.59997558594</ele>
        <time>2023-07-30T05:57:37.000Z</time>
      </trkpt>
      <trkpt lat="43.73625" lon="7.08704">
        <ele>590.59997558594</ele>
        <time>2023-07-30T05:57:38.000Z</time>
      </trkpt>
      <trkpt lat="43.73625" lon="7.08704">
        <ele>590.59997558594</ele>
        <time>2023-07-30T05:57:39.000Z</time>
      </trkpt>
      <trkpt lat="43.73625" lon="7.08704">
        <ele>590.59997558594</ele>
        <time>2023-07-30T05:57:40.000Z</time>
      </trkpt>
      <trkpt lat="43.73624" lon="7.08704">
        <ele>590.59997558594</ele>
        <time>2023-07-30T05:57:41.000Z</time>
      </trkpt>
      <trkpt lat="43.73624" lon="7.08704">
        <ele>590.59997558594</ele>
        <time>2023-07-30T05:57:42.000Z</time>
      </trkpt>
      <trkpt lat="43.73624" lon="7.08704">
        <ele>590.59997558594</ele>
        <time>2023-07-30T05:57:43.000Z</time>
      </trkpt>
      <trkpt lat="43.73624" lon="7.08704">
        <ele>590.59997558594</ele>
        <time>2023-07-30T05:57:44.000Z</time>
      </trkpt>
      <trkpt lat="43.73624" lon="7.08704">
        <ele>590.59997558594</ele>
        <time>2023-07-30T05:57:45.000Z</time>
      </trkpt>
      <trkpt lat="43.73624" lon="7.08704">
        <ele>590.59997558594</ele>
        <time>2023-07-30T05:57:46.000Z</time>
      </trkpt>
      <trkpt lat="43.73624" lon="7.08704">
        <ele>590.59997558594</ele>
        <time>2023-07-30T05:57:47.000Z</time>
      </trkpt>
      <trkpt lat="43.73624" lon="7.08704">
        <ele>590.59997558594</ele>
        <time>2023-07-30T05:57:48.000Z</time>
      </trkpt>
      <trkpt lat="43.73624" lon="7.08704">
        <ele>590.59997558594</ele>
        <time>2023-07-30T05:57:49.000Z</time>
      </trkpt>
      <trkpt lat="43.73624" lon="7.08704">
        <ele>590.59997558594</ele>
        <time>2023-07-30T05:57:50.000Z</time>
      </trkpt>
      <trkpt lat="43.73624" lon="7.08704">
        <ele>590.59997558594</ele>
        <time>2023-07-30T05:57:51.000Z</time>
      </trkpt>
      <trkpt lat="43.73624" lon="7.08704">
        <ele>590.59997558594</ele>
        <time>2023-07-30T05:57:52.000Z</time>
      </trkpt>
      <trkpt lat="43.73624" lon="7.08704">
        <ele>590.59997558594</ele>
        <time>2023-07-30T05:57:53.000Z</time>
      </trkpt>
      <trkpt lat="43.73624" lon="7.08704">
        <ele>590.59997558594</ele>
        <time>2023-07-30T05:57:54.000Z</time>
      </trkpt>
      <trkpt lat="43.73624" lon="7.08704">
        <ele>590.59997558594</ele>
        <time>2023-07-30T05:57:55.000Z</time>
      </trkpt>
      <trkpt lat="43.73624" lon="7.08704">
        <ele>590.59997558594</ele>
        <time>2023-07-30T05:57:56.000Z</time>
      </trkpt>
      <trkpt lat="43.73624" lon="7.08704">
        <ele>590.59997558594</ele>
        <time>2023-07-30T05:57:57.000Z</time>
      </trkpt>
      <trkpt lat="43.73624" lon="7.08704">
        <ele>590.59997558594</ele>
        <time>2023-07-30T05:57:58.000Z</time>
      </trkpt>
      <trkpt lat="43.73624" lon="7.08704">
        <ele>590.59997558594</ele>
        <time>2023-07-30T05:57:59.000Z</time>
      </trkpt>
      <trkpt lat="43.73625" lon="7.08704">
        <ele>590.59997558594</ele>
        <time>2023-07-30T05:58:00.000Z</time>
      </trkpt>
      <trkpt lat="43.73625" lon="7.08704">
        <ele>590.59997558594</ele>
        <time>2023-07-30T05:58:01.000Z</time>
      </trkpt>
      <trkpt lat="43.73625" lon="7.08704">
        <ele>590.59997558594</ele>
        <time>2023-07-30T05:58:02.000Z</time>
      </trkpt>
      <trkpt lat="43.73625" lon="7.08704">
        <ele>590.59997558594</ele>
        <time>2023-07-30T05:58:03.000Z</time>
      </trkpt>
      <trkpt lat="43.73625" lon="7.08704">
        <ele>590.59997558594</ele>
        <time>2023-07-30T05:58:04.000Z</time>
      </trkpt>
      <trkpt lat="43.73625" lon="7.08704">
        <ele>590.59997558594</ele>
        <time>2023-07-30T05:58:05.000Z</time>
      </trkpt>
      <trkpt lat="43.73625" lon="7.08704">
        <ele>590.59997558594</ele>
        <time>2023-07-30T05:58:06.000Z</time>
      </trkpt>
      <trkpt lat="43.73625" lon="7.08704">
        <ele>590.59997558594</ele>
        <time>2023-07-30T05:58:07.000Z</time>
      </trkpt>
      <trkpt lat="43.73625" lon="7.08702">
        <ele>590.59997558594</ele>
        <time>2023-07-30T05:58:08.000Z</time>
      </trkpt>
      <trkpt lat="43.73625" lon="7.087">
        <ele>590.59997558594</ele>
        <time>2023-07-30T05:58:09.000Z</time>
      </trkpt>
      <trkpt lat="43.73626" lon="7.08699">
        <ele>590.59997558594</ele>
        <time>2023-07-30T05:58:10.000Z</time>
      </trkpt>
      <trkpt lat="43.73627" lon="7.08697">
        <ele>590.59997558594</ele>
        <time>2023-07-30T05:58:11.000Z</time>
      </trkpt>
      <trkpt lat="43.73627" lon="7.08695">
        <ele>590.59997558594</ele>
        <time>2023-07-30T05:58:12.000Z</time>
      </trkpt>
      <trkpt lat="43.73628" lon="7.08692">
        <ele>590.59997558594</ele>
        <time>2023-07-30T05:58:13.000Z</time>
      </trkpt>
      <trkpt lat="43.73629" lon="7.08688">
        <ele>590.59997558594</ele>
        <time>2023-07-30T05:58:14.000Z</time>
      </trkpt>
      <trkpt lat="43.7363" lon="7.08684">
        <ele>590.59997558594</ele>
        <time>2023-07-30T05:58:15.000Z</time>
      </trkpt>
      <trkpt lat="43.73632" lon="7.08679">
        <ele>590.59997558594</ele>
        <time>2023-07-30T05:58:16.000Z</time>
      </trkpt>
      <trkpt lat="43.73633" lon="7.08674">
        <ele>590.20001220703</ele>
        <time>2023-07-30T05:58:17.000Z</time>
      </trkpt>
      <trkpt lat="43.73635" lon="7.08669">
        <ele>590.20001220703</ele>
        <time>2023-07-30T05:58:18.000Z</time>
      </trkpt>
      <trkpt lat="43.73636" lon="7.08662">
        <ele>590</ele>
        <time>2023-07-30T05:58:19.000Z</time>
      </trkpt>
      <trkpt lat="43.73636" lon="7.08657">
        <ele>589.59997558594</ele>
        <time>2023-07-30T05:58:20.000Z</time>
      </trkpt>
      <trkpt lat="43.73637" lon="7.08652">
        <ele>588.59997558594</ele>
        <time>2023-07-30T05:58:21.000Z</time>
      </trkpt>
      <trkpt lat="43.73638" lon="7.08647">
        <ele>588.59997558594</ele>
        <time>2023-07-30T05:58:22.000Z</time>
      </trkpt>
      <trkpt lat="43.73639" lon="7.08642">
        <ele>588.40002441406</ele>
        <time>2023-07-30T05:58:23.000Z</time>
      </trkpt>
      <trkpt lat="43.73641" lon="7.08637">
        <ele>588.20001220703</ele>
        <time>2023-07-30T05:58:24.000Z</time>
      </trkpt>
      <trkpt lat="43.73643" lon="7.08632">
        <ele>588</ele>
        <time>2023-07-30T05:58:25.000Z</time>
      </trkpt>
      <trkpt lat="43.73644" lon="7.08628">
        <ele>587.79998779297</ele>
        <time>2023-07-30T05:58:26.000Z</time>
      </trkpt>
      <trkpt lat="43.73646" lon="7.08624">
        <ele>587.59997558594</ele>
        <time>2023-07-30T05:58:27.000Z</time>
      </trkpt>
      <trkpt lat="43.73648" lon="7.0862">
        <ele>587.59997558594</ele>
        <time>2023-07-30T05:58:28.000Z</time>
      </trkpt>
      <trkpt lat="43.73651" lon="7.08618">
        <ele>587.59997558594</ele>
        <time>2023-07-30T05:58:29.000Z</time>
      </trkpt>
      <trkpt lat="43.73654" lon="7.08616">
        <ele>587.59997558594</ele>
        <time>2023-07-30T05:58:30.000Z</time>
      </trkpt>
      <trkpt lat="43.73657" lon="7.08614">
        <ele>587.59997558594</ele>
        <time>2023-07-30T05:58:31.000Z</time>
      </trkpt>
      <trkpt lat="43.73659" lon="7.08613">
        <ele>587.79998779297</ele>
        <time>2023-07-30T05:58:32.000Z</time>
      </trkpt>
      <trkpt lat="43.73661" lon="7.08611">
        <ele>588</ele>
        <time>2023-07-30T05:58:33.000Z</time>
      </trkpt>
      <trkpt lat="43.73663" lon="7.08609">
        <ele>588.20001220703</ele>
        <time>2023-07-30T05:58:34.000Z</time>
      </trkpt>
      <trkpt lat="43.73665" lon="7.08607">
        <ele>588.20001220703</ele>
        <time>2023-07-30T05:58:35.000Z</time>
      </trkpt>
      <trkpt lat="43.73666" lon="7.08605">
        <ele>589</ele>
        <time>2023-07-30T05:58:36.000Z</time>
      </trkpt>
      <trkpt lat="43.73667" lon="7.08603">
        <ele>589.59997558594</ele>
        <time>2023-07-30T05:58:37.000Z</time>
      </trkpt>
      <trkpt lat="43.73669" lon="7.08602">
        <ele>590</ele>
        <time>2023-07-30T05:58:38.000Z</time>
      </trkpt>
      <trkpt lat="43.7367" lon="7.08601">
        <ele>590.20001220703</ele>
        <time>2023-07-30T05:58:39.000Z</time>
      </trkpt>
      <trkpt lat="43.7367" lon="7.08601">
        <ele>590.59997558594</ele>
        <time>2023-07-30T05:58:40.000Z</time>
      </trkpt>
      <trkpt lat="43.73669" lon="7.086">
        <ele>591</ele>
        <time>2023-07-30T05:58:41.000Z</time>
      </trkpt>
      <trkpt lat="43.73669" lon="7.086">
        <ele>591.59997558594</ele>
        <time>2023-07-30T05:58:42.000Z</time>
      </trkpt>
      <trkpt lat="43.7367" lon="7.086">
        <ele>592</ele>
        <time>2023-07-30T05:58:43.000Z</time>
      </trkpt>
      <trkpt lat="43.7367" lon="7.08601">
        <ele>592</ele>
        <time>2023-07-30T05:58:44.000Z</time>
      </trkpt>
      <trkpt lat="43.73669" lon="7.08601">
        <ele>592</ele>
        <time>2023-07-30T05:58:45.000Z</time>
      </trkpt>
      <trkpt lat="43.73669" lon="7.08601">
        <ele>592</ele>
        <time>2023-07-30T05:58:46.000Z</time>
      </trkpt>
      <trkpt lat="43.73669" lon="7.08601">
        <ele>592</ele>
        <time>2023-07-30T05:58:47.000Z</time>
      </trkpt>
      <trkpt lat="43.73669" lon="7.08601">
        <ele>592</ele>
        <time>2023-07-30T05:58:48.000Z</time>
      </trkpt>
      <trkpt lat="43.73669" lon="7.08601">
        <ele>592</ele>
        <time>2023-07-30T05:58:49.000Z</time>
      </trkpt>
      <trkpt lat="43.73669" lon="7.086">
        <ele>592.20001220703</ele>
        <time>2023-07-30T05:58:50.000Z</time>
      </trkpt>
      <trkpt lat="43.73671" lon="7.08599">
        <ele>592.20001220703</ele>
        <time>2023-07-30T05:58:51.000Z</time>
      </trkpt>
      <trkpt lat="43.73671" lon="7.08597">
        <ele>592.20001220703</ele>
        <time>2023-07-30T05:58:52.000Z</time>
      </trkpt>
      <trkpt lat="43.73672" lon="7.08596">
        <ele>592.20001220703</ele>
        <time>2023-07-30T05:58:53.000Z</time>
      </trkpt>
      <trkpt lat="43.73672" lon="7.08596">
        <ele>592.40002441406</ele>
        <time>2023-07-30T05:58:54.000Z</time>
      </trkpt>
      <trkpt lat="43.73672" lon="7.08596">
        <ele>592.40002441406</ele>
        <time>2023-07-30T05:58:55.000Z</time>
      </trkpt>
      <trkpt lat="43.73672" lon="7.08596">
        <ele>592.79998779297</ele>
        <time>2023-07-30T05:58:56.000Z</time>
      </trkpt>
      <trkpt lat="43.73672" lon="7.08595">
        <ele>592.79998779297</ele>
        <time>2023-07-30T05:58:57.000Z</time>
      </trkpt>
      <trkpt lat="43.73673" lon="7.08594">
        <ele>593</ele>
        <time>2023-07-30T05:58:58.000Z</time>
      </trkpt>
      <trkpt lat="43.73674" lon="7.08592">
        <ele>593</ele>
        <time>2023-07-30T05:58:59.000Z</time>
      </trkpt>
      <trkpt lat="43.73675" lon="7.0859">
        <ele>593</ele>
        <time>2023-07-30T05:59:00.000Z</time>
      </trkpt>
      <trkpt lat="43.73676" lon="7.08588">
        <ele>593.20001220703</ele>
        <time>2023-07-30T05:59:01.000Z</time>
      </trkpt>
      <trkpt lat="43.73677" lon="7.08587">
        <ele>593.40002441406</ele>
        <time>2023-07-30T05:59:02.000Z</time>
      </trkpt>
      <trkpt lat="43.73679" lon="7.08585">
        <ele>593.79998779297</ele>
        <time>2023-07-30T05:59:03.000Z</time>
      </trkpt>
      <trkpt lat="43.7368" lon="7.08584">
        <ele>594</ele>
        <time>2023-07-30T05:59:04.000Z</time>
      </trkpt>
      <trkpt lat="43.73681" lon="7.08582">
        <ele>594.40002441406</ele>
        <time>2023-07-30T05:59:05.000Z</time>
      </trkpt>
      <trkpt lat="43.73683" lon="7.0858">
        <ele>594.79998779297</ele>
        <time>2023-07-30T05:59:06.000Z</time>
      </trkpt>
      <trkpt lat="43.73683" lon="7.08578">
        <ele>595</ele>
        <time>2023-07-30T05:59:07.000Z</time>
      </trkpt>
      <trkpt lat="43.73684" lon="7.08576">
        <ele>595.20001220703</ele>
        <time>2023-07-30T05:59:08.000Z</time>
      </trkpt>
      <trkpt lat="43.73685" lon="7.08574">
        <ele>595.79998779297</ele>
        <time>2023-07-30T05:59:09.000Z</time>
      </trkpt>
      <trkpt lat="43.73686" lon="7.08572">
        <ele>596</ele>
        <time>2023-07-30T05:59:10.000Z</time>
      </trkpt>
      <trkpt lat="43.73688" lon="7.08569">
        <ele>596.20001220703</ele>
        <time>2023-07-30T05:59:11.000Z</time>
      </trkpt>
      <trkpt lat="43.73688" lon="7.08566">
        <ele>596.20001220703</ele>
        <time>2023-07-30T05:59:12.000Z</time>
      </trkpt>
      <trkpt lat="43.7369" lon="7.08562">
        <ele>596.20001220703</ele>
        <time>2023-07-30T05:59:13.000Z</time>
      </trkpt>
      <trkpt lat="43.73691" lon="7.08559">
        <ele>596.20001220703</ele>
        <time>2023-07-30T05:59:14.000Z</time>
      </trkpt>
      <trkpt lat="43.73692" lon="7.08555">
        <ele>596.20001220703</ele>
        <time>2023-07-30T05:59:15.000Z</time>
      </trkpt>
      <trkpt lat="43.73693" lon="7.08551">
        <ele>596</ele>
        <time>2023-07-30T05:59:16.000Z</time>
      </trkpt>
      <trkpt lat="43.73694" lon="7.08547">
        <ele>595.79998779297</ele>
        <time>2023-07-30T05:59:17.000Z</time>
      </trkpt>
      <trkpt lat="43.73695" lon="7.08543">
        <ele>595.79998779297</ele>
        <time>2023-07-30T05:59:18.000Z</time>
      </trkpt>
      <trkpt lat="43.73696" lon="7.08541">
        <ele>595.79998779297</ele>
        <time>2023-07-30T05:59:19.000Z</time>
      </trkpt>
      <trkpt lat="43.73697" lon="7.08537">
        <ele>595.79998779297</ele>
        <time>2023-07-30T05:59:20.000Z</time>
      </trkpt>
      <trkpt lat="43.73698" lon="7.08535">
        <ele>595.79998779297</ele>
        <time>2023-07-30T05:59:21.000Z</time>
      </trkpt>
      <trkpt lat="43.73698" lon="7.08532">
        <ele>596</ele>
        <time>2023-07-30T05:59:22.000Z</time>
      </trkpt>
      <trkpt lat="43.73699" lon="7.08529">
        <ele>596.20001220703</ele>
        <time>2023-07-30T05:59:23.000Z</time>
      </trkpt>
      <trkpt lat="43.73699" lon="7.08526">
        <ele>596.79998779297</ele>
        <time>2023-07-30T05:59:24.000Z</time>
      </trkpt>
      <trkpt lat="43.737" lon="7.08524">
        <ele>597</ele>
        <time>2023-07-30T05:59:25.000Z</time>
      </trkpt>
      <trkpt lat="43.73701" lon="7.08521">
        <ele>597.40002441406</ele>
        <time>2023-07-30T05:59:26.000Z</time>
      </trkpt>
      <trkpt lat="43.73701" lon="7.08518">
        <ele>597.59997558594</ele>
        <time>2023-07-30T05:59:27.000Z</time>
      </trkpt>
      <trkpt lat="43.73701" lon="7.08515">
        <ele>598.20001220703</ele>
        <time>2023-07-30T05:59:28.000Z</time>
      </trkpt>
      <trkpt lat="43.73702" lon="7.08511">
        <ele>598.20001220703</ele>
        <time>2023-07-30T05:59:29.000Z</time>
      </trkpt>
      <trkpt lat="43.73702" lon="7.08508">
        <ele>598.79998779297</ele>
        <time>2023-07-30T05:59:30.000Z</time>
      </trkpt>
      <trkpt lat="43.73703" lon="7.08505">
        <ele>599</ele>
        <time>2023-07-30T05:59:31.000Z</time>
      </trkpt>
      <trkpt lat="43.73704" lon="7.08502">
        <ele>599.40002441406</ele>
        <time>2023-07-30T05:59:32.000Z</time>
      </trkpt>
      <trkpt lat="43.73704" lon="7.08499">
        <ele>599.79998779297</ele>
        <time>2023-07-30T05:59:33.000Z</time>
      </trkpt>
      <trkpt lat="43.73705" lon="7.08497">
        <ele>600.20001220703</ele>
        <time>2023-07-30T05:59:34.000Z</time>
      </trkpt>
      <trkpt lat="43.73706" lon="7.08495">
        <ele>600.59997558594</ele>
        <time>2023-07-30T05:59:35.000Z</time>
      </trkpt>
      <trkpt lat="43.73706" lon="7.08493">
        <ele>600.79998779297</ele>
        <time>2023-07-30T05:59:36.000Z</time>
      </trkpt>
      <trkpt lat="43.73707" lon="7.0849">
        <ele>601.40002441406</ele>
        <time>2023-07-30T05:59:37.000Z</time>
      </trkpt>
      <trkpt lat="43.73707" lon="7.08488">
        <ele>601.40002441406</ele>
        <time>2023-07-30T05:59:38.000Z</time>
      </trkpt>
      <trkpt lat="43.73707" lon="7.08488">
        <ele>601.59997558594</ele>
        <time>2023-07-30T05:59:39.000Z</time>
      </trkpt>
      <trkpt lat="43.73707" lon="7.08488">
        <ele>602</ele>
        <time>2023-07-30T05:59:40.000Z</time>
      </trkpt>
      <trkpt lat="43.73707" lon="7.08488">
        <ele>602</ele>
        <time>2023-07-30T05:59:41.000Z</time>
      </trkpt>
      <trkpt lat="43.73708" lon="7.08487">
        <ele>602</ele>
        <time>2023-07-30T05:59:42.000Z</time>
      </trkpt>
      <trkpt lat="43.73707" lon="7.08487">
        <ele>602</ele>
        <time>2023-07-30T05:59:43.000Z</time>
      </trkpt>
      <trkpt lat="43.73707" lon="7.08487">
        <ele>602</ele>
        <time>2023-07-30T05:59:44.000Z</time>
      </trkpt>
      <trkpt lat="43.73706" lon="7.08487">
        <ele>602</ele>
        <time>2023-07-30T05:59:45.000Z</time>
      </trkpt>
      <trkpt lat="43.73707" lon="7.08488">
        <ele>602</ele>
        <time>2023-07-30T05:59:46.000Z</time>
      </trkpt>
      <trkpt lat="43.73706" lon="7.08488">
        <ele>602</ele>
        <time>2023-07-30T05:59:47.000Z</time>
      </trkpt>
      <trkpt lat="43.73706" lon="7.08488">
        <ele>601.79998779297</ele>
        <time>2023-07-30T05:59:48.000Z</time>
      </trkpt>
      <trkpt lat="43.73706" lon="7.08489">
        <ele>601.79998779297</ele>
        <time>2023-07-30T05:59:49.000Z</time>
      </trkpt>
      <trkpt lat="43.73706" lon="7.08489">
        <ele>601.79998779297</ele>
        <time>2023-07-30T05:59:50.000Z</time>
      </trkpt>
      <trkpt lat="43.73706" lon="7.08489">
        <ele>601.79998779297</ele>
        <time>2023-07-30T05:59:51.000Z</time>
      </trkpt>
      <trkpt lat="43.73705" lon="7.08491">
        <ele>601.79998779297</ele>
        <time>2023-07-30T05:59:52.000Z</time>
      </trkpt>
      <trkpt lat="43.73705" lon="7.08492">
        <ele>601.79998779297</ele>
        <time>2023-07-30T05:59:53.000Z</time>
      </trkpt>
      <trkpt lat="43.73704" lon="7.08493">
        <ele>601.79998779297</ele>
        <time>2023-07-30T05:59:54.000Z</time>
      </trkpt>
      <trkpt lat="43.73704" lon="7.08494">
        <ele>601.79998779297</ele>
        <time>2023-07-30T05:59:55.000Z</time>
      </trkpt>
      <trkpt lat="43.73704" lon="7.08494">
        <ele>601.79998779297</ele>
        <time>2023-07-30T05:59:56.000Z</time>
      </trkpt>
      <trkpt lat="43.73704" lon="7.08494">
        <ele>601.79998779297</ele>
        <time>2023-07-30T05:59:57.000Z</time>
      </trkpt>
      <trkpt lat="43.73704" lon="7.08494">
        <ele>601.79998779297</ele>
        <time>2023-07-30T05:59:58.000Z</time>
      </trkpt>
      <trkpt lat="43.73704" lon="7.08494">
        <ele>601.79998779297</ele>
        <time>2023-07-30T05:59:59.000Z</time>
      </trkpt>
      <trkpt lat="43.73704" lon="7.08494">
        <ele>601.59997558594</ele>
        <time>2023-07-30T06:00:00.000Z</time>
      </trkpt>
      <trkpt lat="43.73704" lon="7.08494">
        <ele>601.59997558594</ele>
        <time>2023-07-30T06:00:01.000Z</time>
      </trkpt>
      <trkpt lat="43.73704" lon="7.08494">
        <ele>601.59997558594</ele>
        <time>2023-07-30T06:00:02.000Z</time>
      </trkpt>
      <trkpt lat="43.73704" lon="7.08494">
        <ele>601.59997558594</ele>
        <time>2023-07-30T06:00:03.000Z</time>
      </trkpt>
      <trkpt lat="43.73704" lon="7.08494">
        <ele>601.59997558594</ele>
        <time>2023-07-30T06:00:04.000Z</time>
      </trkpt>
      <trkpt lat="43.73704" lon="7.08494">
        <ele>601.59997558594</ele>
        <time>2023-07-30T06:00:05.000Z</time>
      </trkpt>
      <trkpt lat="43.73704" lon="7.08494">
        <ele>601.59997558594</ele>
        <time>2023-07-30T06:00:06.000Z</time>
      </trkpt>
      <trkpt lat="43.73704" lon="7.08494">
        <ele>601.59997558594</ele>
        <time>2023-07-30T06:00:07.000Z</time>
      </trkpt>
      <trkpt lat="43.73704" lon="7.08494">
        <ele>601.59997558594</ele>
        <time>2023-07-30T06:00:08.000Z</time>
      </trkpt>
      <trkpt lat="43.73704" lon="7.08494">
        <ele>601.59997558594</ele>
        <time>2023-07-30T06:00:09.000Z</time>
      </trkpt>
      <trkpt lat="43.73704" lon="7.08494">
        <ele>601.59997558594</ele>
        <time>2023-07-30T06:00:10.000Z</time>
      </trkpt>
      <trkpt lat="43.73704" lon="7.08494">
        <ele>601.79998779297</ele>
        <time>2023-07-30T06:00:11.000Z</time>
      </trkpt>
      <trkpt lat="43.73704" lon="7.08494">
        <ele>601.79998779297</ele>
        <time>2023-07-30T06:00:12.000Z</time>
      </trkpt>
      <trkpt lat="43.73704" lon="7.08494">
        <ele>601.79998779297</ele>
        <time>2023-07-30T06:00:13.000Z</time>
      </trkpt>
      <trkpt lat="43.73704" lon="7.08494">
        <ele>601.79998779297</ele>
        <time>2023-07-30T06:00:14.000Z</time>
      </trkpt>
      <trkpt lat="43.73704" lon="7.08494">
        <ele>601.59997558594</ele>
        <time>2023-07-30T06:00:15.000Z</time>
      </trkpt>
      <trkpt lat="43.73704" lon="7.08494">
        <ele>601.59997558594</ele>
        <time>2023-07-30T06:00:16.000Z</time>
      </trkpt>
      <trkpt lat="43.73704" lon="7.08494">
        <ele>601.59997558594</ele>
        <time>2023-07-30T06:00:17.000Z</time>
      </trkpt>
      <trkpt lat="43.73704" lon="7.08494">
        <ele>601.59997558594</ele>
        <time>2023-07-30T06:00:18.000Z</time>
      </trkpt>
      <trkpt lat="43.73704" lon="7.08494">
        <ele>601.59997558594</ele>
        <time>2023-07-30T06:00:19.000Z</time>
      </trkpt>
      <trkpt lat="43.73704" lon="7.08494">
        <ele>601.59997558594</ele>
        <time>2023-07-30T06:00:20.000Z</time>
      </trkpt>
      <trkpt lat="43.73704" lon="7.08494">
        <ele>601.59997558594</ele>
        <time>2023-07-30T06:00:21.000Z</time>
      </trkpt>
      <trkpt lat="43.73704" lon="7.08494">
        <ele>601.59997558594</ele>
        <time>2023-07-30T06:00:22.000Z</time>
      </trkpt>
      <trkpt lat="43.73704" lon="7.08494">
        <ele>601.59997558594</ele>
        <time>2023-07-30T06:00:23.000Z</time>
      </trkpt>
      <trkpt lat="43.73704" lon="7.08494">
        <ele>601.59997558594</ele>
        <time>2023-07-30T06:00:24.000Z</time>
      </trkpt>
      <trkpt lat="43.73704" lon="7.08494">
        <ele>601.59997558594</ele>
        <time>2023-07-30T06:00:25.000Z</time>
      </trkpt>
      <trkpt lat="43.73704" lon="7.08494">
        <ele>601.59997558594</ele>
        <time>2023-07-30T06:00:26.000Z</time>
      </trkpt>
      <trkpt lat="43.73704" lon="7.08494">
        <ele>601.59997558594</ele>
        <time>2023-07-30T06:00:27.000Z</time>
      </trkpt>
      <trkpt lat="43.73704" lon="7.08494">
        <ele>601.59997558594</ele>
        <time>2023-07-30T06:00:28.000Z</time>
      </trkpt>
      <trkpt lat="43.73704" lon="7.08494">
        <ele>601.59997558594</ele>
        <time>2023-07-30T06:00:29.000Z</time>
      </trkpt>
      <trkpt lat="43.73704" lon="7.08494">
        <ele>601.59997558594</ele>
        <time>2023-07-30T06:00:30.000Z</time>
      </trkpt>
      <trkpt lat="43.73704" lon="7.08494">
        <ele>601.59997558594</ele>
        <time>2023-07-30T06:00:31.000Z</time>
      </trkpt>
      <trkpt lat="43.73704" lon="7.08494">
        <ele>601.59997558594</ele>
        <time>2023-07-30T06:00:32.000Z</time>
      </trkpt>
      <trkpt lat="43.73704" lon="7.08494">
        <ele>601.59997558594</ele>
        <time>2023-07-30T06:00:33.000Z</time>
      </trkpt>
      <trkpt lat="43.73704" lon="7.08494">
        <ele>601.59997558594</ele>
        <time>2023-07-30T06:00:34.000Z</time>
      </trkpt>
      <trkpt lat="43.73704" lon="7.08494">
        <ele>601.59997558594</ele>
        <time>2023-07-30T06:00:35.000Z</time>
      </trkpt>
      <trkpt lat="43.73704" lon="7.08494">
        <ele>601.59997558594</ele>
        <time>2023-07-30T06:00:36.000Z</time>
      </trkpt>
      <trkpt lat="43.73704" lon="7.08494">
        <ele>601.59997558594</ele>
        <time>2023-07-30T06:00:37.000Z</time>
      </trkpt>
      <trkpt lat="43.73704" lon="7.08494">
        <ele>601.59997558594</ele>
        <time>2023-07-30T06:00:38.000Z</time>
      </trkpt>
      <trkpt lat="43.73704" lon="7.08494">
        <ele>601.59997558594</ele>
        <time>2023-07-30T06:00:39.000Z</time>
      </trkpt>
      <trkpt lat="43.73704" lon="7.08494">
        <ele>601.59997558594</ele>
        <time>2023-07-30T06:00:40.000Z</time>
      </trkpt>
      <trkpt lat="43.73704" lon="7.08494">
        <ele>601.59997558594</ele>
        <time>2023-07-30T06:00:41.000Z</time>
      </trkpt>
      <trkpt lat="43.73704" lon="7.08494">
        <ele>601.59997558594</ele>
        <time>2023-07-30T06:00:42.000Z</time>
      </trkpt>
      <trkpt lat="43.73704" lon="7.08494">
        <ele>601.59997558594</ele>
        <time>2023-07-30T06:00:43.000Z</time>
      </trkpt>
      <trkpt lat="43.73704" lon="7.08494">
        <ele>601.59997558594</ele>
        <time>2023-07-30T06:00:44.000Z</time>
      </trkpt>
      <trkpt lat="43.73704" lon="7.08494">
        <ele>601.59997558594</ele>
        <time>2023-07-30T06:00:45.000Z</time>
      </trkpt>
      <trkpt lat="43.73704" lon="7.08494">
        <ele>601.59997558594</ele>
        <time>2023-07-30T06:00:46.000Z</time>
      </trkpt>
      <trkpt lat="43.73704" lon="7.08494">
        <ele>601.59997558594</ele>
        <time>2023-07-30T06:00:47.000Z</time>
      </trkpt>
      <trkpt lat="43.73704" lon="7.08494">
        <ele>601.59997558594</ele>
        <time>2023-07-30T06:00:48.000Z</time>
      </trkpt>
      <trkpt lat="43.73704" lon="7.08494">
        <ele>601.59997558594</ele>
        <time>2023-07-30T06:00:49.000Z</time>
      </trkpt>
      <trkpt lat="43.73704" lon="7.08494">
        <ele>601.59997558594</ele>
        <time>2023-07-30T06:00:50.000Z</time>
      </trkpt>
      <trkpt lat="43.73704" lon="7.08494">
        <ele>601.59997558594</ele>
        <time>2023-07-30T06:00:51.000Z</time>
      </trkpt>
      <trkpt lat="43.73704" lon="7.08494">
        <ele>601.59997558594</ele>
        <time>2023-07-30T06:00:52.000Z</time>
      </trkpt>
      <trkpt lat="43.73704" lon="7.08494">
        <ele>601.59997558594</ele>
        <time>2023-07-30T06:00:53.000Z</time>
      </trkpt>
      <trkpt lat="43.73704" lon="7.08494">
        <ele>601.59997558594</ele>
        <time>2023-07-30T06:00:54.000Z</time>
      </trkpt>
      <trkpt lat="43.73704" lon="7.08494">
        <ele>601.59997558594</ele>
        <time>2023-07-30T06:00:55.000Z</time>
      </trkpt>
      <trkpt lat="43.73704" lon="7.08494">
        <ele>601.59997558594</ele>
        <time>2023-07-30T06:00:56.000Z</time>
      </trkpt>
      <trkpt lat="43.73704" lon="7.08494">
        <ele>601.59997558594</ele>
        <time>2023-07-30T06:00:57.000Z</time>
      </trkpt>
      <trkpt lat="43.73704" lon="7.08494">
        <ele>601.59997558594</ele>
        <time>2023-07-30T06:00:58.000Z</time>
      </trkpt>
      <trkpt lat="43.73704" lon="7.08494">
        <ele>601.59997558594</ele>
        <time>2023-07-30T06:00:59.000Z</time>
      </trkpt>
      <trkpt lat="43.73704" lon="7.08494">
        <ele>601.59997558594</ele>
        <time>2023-07-30T06:01:00.000Z</time>
      </trkpt>
      <trkpt lat="43.73704" lon="7.08494">
        <ele>601.59997558594</ele>
        <time>2023-07-30T06:01:01.000Z</time>
      </trkpt>
      <trkpt lat="43.73704" lon="7.08494">
        <ele>601.59997558594</ele>
        <time>2023-07-30T06:01:02.000Z</time>
      </trkpt>
      <trkpt lat="43.73704" lon="7.08494">
        <ele>601.59997558594</ele>
        <time>2023-07-30T06:01:03.000Z</time>
      </trkpt>
      <trkpt lat="43.73704" lon="7.08494">
        <ele>601.59997558594</ele>
        <time>2023-07-30T06:01:04.000Z</time>
      </trkpt>
      <trkpt lat="43.73704" lon="7.08494">
        <ele>601.59997558594</ele>
        <time>2023-07-30T06:01:05.000Z</time>
      </trkpt>
      <trkpt lat="43.73704" lon="7.08494">
        <ele>601.59997558594</ele>
        <time>2023-07-30T06:01:06.000Z</time>
      </trkpt>
      <trkpt lat="43.73704" lon="7.08494">
        <ele>601.59997558594</ele>
        <time>2023-07-30T06:01:07.000Z</time>
      </trkpt>
      <trkpt lat="43.73704" lon="7.08494">
        <ele>601.59997558594</ele>
        <time>2023-07-30T06:01:08.000Z</time>
      </trkpt>
      <trkpt lat="43.73704" lon="7.08494">
        <ele>601.59997558594</ele>
        <time>2023-07-30T06:01:09.000Z</time>
      </trkpt>
      <trkpt lat="43.73704" lon="7.08494">
        <ele>601.59997558594</ele>
        <time>2023-07-30T06:01:10.000Z</time>
      </trkpt>
      <trkpt lat="43.73704" lon="7.08494">
        <ele>601.59997558594</ele>
        <time>2023-07-30T06:01:11.000Z</time>
      </trkpt>
      <trkpt lat="43.73704" lon="7.08494">
        <ele>601.40002441406</ele>
        <time>2023-07-30T06:01:12.000Z</time>
      </trkpt>
      <trkpt lat="43.73704" lon="7.08494">
        <ele>601.40002441406</ele>
        <time>2023-07-30T06:01:13.000Z</time>
      </trkpt>
      <trkpt lat="43.73704" lon="7.08494">
        <ele>601.40002441406</ele>
        <time>2023-07-30T06:01:14.000Z</time>
      </trkpt>
      <trkpt lat="43.73704" lon="7.08494">
        <ele>601.40002441406</ele>
        <time>2023-07-30T06:01:15.000Z</time>
      </trkpt>
      <trkpt lat="43.73704" lon="7.08495">
        <ele>601.40002441406</ele>
        <time>2023-07-30T06:01:16.000Z</time>
      </trkpt>
      <trkpt lat="43.73704" lon="7.08494">
        <ele>601.40002441406</ele>
        <time>2023-07-30T06:01:17.000Z</time>
      </trkpt>
      <trkpt lat="43.73705" lon="7.08495">
        <ele>601.40002441406</ele>
        <time>2023-07-30T06:01:18.000Z</time>
      </trkpt>
      <trkpt lat="43.73706" lon="7.08493">
        <ele>601.40002441406</ele>
        <time>2023-07-30T06:01:19.000Z</time>
      </trkpt>
      <trkpt lat="43.73706" lon="7.08492">
        <ele>601.40002441406</ele>
        <time>2023-07-30T06:01:20.000Z</time>
      </trkpt>
      <trkpt lat="43.73707" lon="7.08492">
        <ele>601.20001220703</ele>
        <time>2023-07-30T06:01:21.000Z</time>
      </trkpt>
      <trkpt lat="43.73707" lon="7.08492">
        <ele>601.20001220703</ele>
        <time>2023-07-30T06:01:22.000Z</time>
      </trkpt>
      <trkpt lat="43.73708" lon="7.08491">
        <ele>601.20001220703</ele>
        <time>2023-07-30T06:01:23.000Z</time>
      </trkpt>
      <trkpt lat="43.73707" lon="7.0849">
        <ele>601.20001220703</ele>
        <time>2023-07-30T06:01:24.000Z</time>
      </trkpt>
      <trkpt lat="43.73706" lon="7.08489">
        <ele>601.40002441406</ele>
        <time>2023-07-30T06:01:25.000Z</time>
      </trkpt>
      <trkpt lat="43.73707" lon="7.08488">
        <ele>601.40002441406</ele>
        <time>2023-07-30T06:01:26.000Z</time>
      </trkpt>
      <trkpt lat="43.73707" lon="7.08487">
        <ele>601.40002441406</ele>
        <time>2023-07-30T06:01:27.000Z</time>
      </trkpt>
      <trkpt lat="43.73708" lon="7.08487">
        <ele>601.40002441406</ele>
        <time>2023-07-30T06:01:28.000Z</time>
      </trkpt>
      <trkpt lat="43.73708" lon="7.08486">
        <ele>601.40002441406</ele>
        <time>2023-07-30T06:01:29.000Z</time>
      </trkpt>
      <trkpt lat="43.73708" lon="7.08485">
        <ele>601.59997558594</ele>
        <time>2023-07-30T06:01:30.000Z</time>
      </trkpt>
      <trkpt lat="43.73708" lon="7.08486">
        <ele>601.59997558594</ele>
        <time>2023-07-30T06:01:31.000Z</time>
      </trkpt>
      <trkpt lat="43.73708" lon="7.08485">
        <ele>601.59997558594</ele>
        <time>2023-07-30T06:01:32.000Z</time>
      </trkpt>
      <trkpt lat="43.73708" lon="7.08484">
        <ele>601.59997558594</ele>
        <time>2023-07-30T06:01:33.000Z</time>
      </trkpt>
      <trkpt lat="43.73709" lon="7.08483">
        <ele>601.59997558594</ele>
        <time>2023-07-30T06:01:34.000Z</time>
      </trkpt>
      <trkpt lat="43.73709" lon="7.0848">
        <ele>601.59997558594</ele>
        <time>2023-07-30T06:01:35.000Z</time>
      </trkpt>
      <trkpt lat="43.73711" lon="7.08478">
        <ele>601.59997558594</ele>
        <time>2023-07-30T06:01:36.000Z</time>
      </trkpt>
      <trkpt lat="43.73712" lon="7.08476">
        <ele>601.59997558594</ele>
        <time>2023-07-30T06:01:37.000Z</time>
      </trkpt>
      <trkpt lat="43.73714" lon="7.08473">
        <ele>601.59997558594</ele>
        <time>2023-07-30T06:01:38.000Z</time>
      </trkpt>
      <trkpt lat="43.73716" lon="7.0847">
        <ele>601.59997558594</ele>
        <time>2023-07-30T06:01:39.000Z</time>
      </trkpt>
      <trkpt lat="43.73719" lon="7.08468">
        <ele>601.40002441406</ele>
        <time>2023-07-30T06:01:40.000Z</time>
      </trkpt>
      <trkpt lat="43.73723" lon="7.08467">
        <ele>601.40002441406</ele>
        <time>2023-07-30T06:01:41.000Z</time>
      </trkpt>
      <trkpt lat="43.73727" lon="7.08465">
        <ele>601.40002441406</ele>
        <time>2023-07-30T06:01:42.000Z</time>
      </trkpt>
      <trkpt lat="43.73731" lon="7.08465">
        <ele>601</ele>
        <time>2023-07-30T06:01:43.000Z</time>
      </trkpt>
      <trkpt lat="43.73734" lon="7.08464">
        <ele>600.59997558594</ele>
        <time>2023-07-30T06:01:44.000Z</time>
      </trkpt>
      <trkpt lat="43.73736" lon="7.08463">
        <ele>600.59997558594</ele>
        <time>2023-07-30T06:01:45.000Z</time>
      </trkpt>
      <trkpt lat="43.73739" lon="7.08462">
        <ele>600.59997558594</ele>
        <time>2023-07-30T06:01:46.000Z</time>
      </trkpt>
      <trkpt lat="43.73741" lon="7.0846">
        <ele>600.59997558594</ele>
        <time>2023-07-30T06:01:47.000Z</time>
      </trkpt>
      <trkpt lat="43.73744" lon="7.08458">
        <ele>600.59997558594</ele>
        <time>2023-07-30T06:01:48.000Z</time>
      </trkpt>
      <trkpt lat="43.73747" lon="7.08456">
        <ele>600.59997558594</ele>
        <time>2023-07-30T06:01:49.000Z</time>
      </trkpt>
      <trkpt lat="43.73749" lon="7.08453">
        <ele>600.59997558594</ele>
        <time>2023-07-30T06:01:50.000Z</time>
      </trkpt>
      <trkpt lat="43.73751" lon="7.08451">
        <ele>600.79998779297</ele>
        <time>2023-07-30T06:01:51.000Z</time>
      </trkpt>
      <trkpt lat="43.73752" lon="7.08448">
        <ele>601</ele>
        <time>2023-07-30T06:01:52.000Z</time>
      </trkpt>
      <trkpt lat="43.73753" lon="7.08445">
        <ele>601</ele>
        <time>2023-07-30T06:01:53.000Z</time>
      </trkpt>
      <trkpt lat="43.73754" lon="7.08444">
        <ele>601</ele>
        <time>2023-07-30T06:01:54.000Z</time>
      </trkpt>
      <trkpt lat="43.73756" lon="7.08442">
        <ele>601</ele>
        <time>2023-07-30T06:01:55.000Z</time>
      </trkpt>
      <trkpt lat="43.73759" lon="7.08441">
        <ele>601.20001220703</ele>
        <time>2023-07-30T06:01:56.000Z</time>
      </trkpt>
      <trkpt lat="43.73762" lon="7.08441">
        <ele>601.40002441406</ele>
        <time>2023-07-30T06:01:57.000Z</time>
      </trkpt>
      <trkpt lat="43.73764" lon="7.0844">
        <ele>601.40002441406</ele>
        <time>2023-07-30T06:01:58.000Z</time>
      </trkpt>
      <trkpt lat="43.73766" lon="7.08438">
        <ele>601.40002441406</ele>
        <time>2023-07-30T06:01:59.000Z</time>
      </trkpt>
      <trkpt lat="43.73767" lon="7.08436">
        <ele>601.40002441406</ele>
        <time>2023-07-30T06:02:00.000Z</time>
      </trkpt>
      <trkpt lat="43.7377" lon="7.08434">
        <ele>601.40002441406</ele>
        <time>2023-07-30T06:02:01.000Z</time>
      </trkpt>
      <trkpt lat="43.73771" lon="7.08432">
        <ele>601.20001220703</ele>
        <time>2023-07-30T06:02:02.000Z</time>
      </trkpt>
      <trkpt lat="43.73774" lon="7.08431">
        <ele>601</ele>
        <time>2023-07-30T06:02:03.000Z</time>
      </trkpt>
      <trkpt lat="43.73776" lon="7.0843">
        <ele>600.79998779297</ele>
        <time>2023-07-30T06:02:04.000Z</time>
      </trkpt>
      <trkpt lat="43.73779" lon="7.08428">
        <ele>600.79998779297</ele>
        <time>2023-07-30T06:02:05.000Z</time>
      </trkpt>
      <trkpt lat="43.73781" lon="7.08426">
        <ele>600.79998779297</ele>
        <time>2023-07-30T06:02:06.000Z</time>
      </trkpt>
      <trkpt lat="43.73784" lon="7.08425">
        <ele>600.40002441406</ele>
        <time>2023-07-30T06:02:07.000Z</time>
      </trkpt>
      <trkpt lat="43.73786" lon="7.08424">
        <ele>600</ele>
        <time>2023-07-30T06:02:08.000Z</time>
      </trkpt>
      <trkpt lat="43.73788" lon="7.08423">
        <ele>600</ele>
        <time>2023-07-30T06:02:09.000Z</time>
      </trkpt>
      <trkpt lat="43.73789" lon="7.08421">
        <ele>599.59997558594</ele>
        <time>2023-07-30T06:02:10.000Z</time>
      </trkpt>
      <trkpt lat="43.73792" lon="7.0842">
        <ele>599.40002441406</ele>
        <time>2023-07-30T06:02:11.000Z</time>
      </trkpt>
      <trkpt lat="43.73794" lon="7.08419">
        <ele>599</ele>
        <time>2023-07-30T06:02:12.000Z</time>
      </trkpt>
      <trkpt lat="43.73797" lon="7.08418">
        <ele>598.79998779297</ele>
        <time>2023-07-30T06:02:13.000Z</time>
      </trkpt>
      <trkpt lat="43.738" lon="7.08417">
        <ele>598.59997558594</ele>
        <time>2023-07-30T06:02:14.000Z</time>
      </trkpt>
      <trkpt lat="43.73803" lon="7.08417">
        <ele>598.59997558594</ele>
        <time>2023-07-30T06:02:15.000Z</time>
      </trkpt>
      <trkpt lat="43.73805" lon="7.08415">
        <ele>598.20001220703</ele>
        <time>2023-07-30T06:02:16.000Z</time>
      </trkpt>
      <trkpt lat="43.73807" lon="7.08413">
        <ele>597.59997558594</ele>
        <time>2023-07-30T06:02:17.000Z</time>
      </trkpt>
      <trkpt lat="43.7381" lon="7.08413">
        <ele>597.59997558594</ele>
        <time>2023-07-30T06:02:18.000Z</time>
      </trkpt>
      <trkpt lat="43.73813" lon="7.08413">
        <ele>597.59997558594</ele>
        <time>2023-07-30T06:02:19.000Z</time>
      </trkpt>
      <trkpt lat="43.73815" lon="7.08413">
        <ele>597.59997558594</ele>
        <time>2023-07-30T06:02:20.000Z</time>
      </trkpt>
      <trkpt lat="43.73816" lon="7.08412">
        <ele>597.59997558594</ele>
        <time>2023-07-30T06:02:21.000Z</time>
      </trkpt>
      <trkpt lat="43.73818" lon="7.08411">
        <ele>598.20001220703</ele>
        <time>2023-07-30T06:02:22.000Z</time>
      </trkpt>
      <trkpt lat="43.7382" lon="7.0841">
        <ele>598.40002441406</ele>
        <time>2023-07-30T06:02:23.000Z</time>
      </trkpt>
      <trkpt lat="43.73821" lon="7.08408">
        <ele>598.79998779297</ele>
        <time>2023-07-30T06:02:24.000Z</time>
      </trkpt>
      <trkpt lat="43.73822" lon="7.08407">
        <ele>599.20001220703</ele>
        <time>2023-07-30T06:02:25.000Z</time>
      </trkpt>
      <trkpt lat="43.73821" lon="7.08407">
        <ele>599.20001220703</ele>
        <time>2023-07-30T06:02:26.000Z</time>
      </trkpt>
      <trkpt lat="43.73821" lon="7.08407">
        <ele>599.59997558594</ele>
        <time>2023-07-30T06:02:27.000Z</time>
      </trkpt>
      <trkpt lat="43.73821" lon="7.08408">
        <ele>599.79998779297</ele>
        <time>2023-07-30T06:02:28.000Z</time>
      </trkpt>
      <trkpt lat="43.73821" lon="7.08408">
        <ele>599.79998779297</ele>
        <time>2023-07-30T06:02:29.000Z</time>
      </trkpt>
      <trkpt lat="43.73821" lon="7.08408">
        <ele>600</ele>
        <time>2023-07-30T06:02:30.000Z</time>
      </trkpt>
      <trkpt lat="43.73821" lon="7.08408">
        <ele>600</ele>
        <time>2023-07-30T06:02:31.000Z</time>
      </trkpt>
      <trkpt lat="43.73821" lon="7.08408">
        <ele>600</ele>
        <time>2023-07-30T06:02:32.000Z</time>
      </trkpt>
      <trkpt lat="43.73821" lon="7.08408">
        <ele>600</ele>
        <time>2023-07-30T06:02:33.000Z</time>
      </trkpt>
      <trkpt lat="43.73821" lon="7.08408">
        <ele>600</ele>
        <time>2023-07-30T06:02:34.000Z</time>
      </trkpt>
      <trkpt lat="43.73821" lon="7.08408">
        <ele>600</ele>
        <time>2023-07-30T06:02:35.000Z</time>
      </trkpt>
      <trkpt lat="43.73821" lon="7.08408">
        <ele>599.79998779297</ele>
        <time>2023-07-30T06:02:36.000Z</time>
      </trkpt>
      <trkpt lat="43.73821" lon="7.08408">
        <ele>599.79998779297</ele>
        <time>2023-07-30T06:02:37.000Z</time>
      </trkpt>
      <trkpt lat="43.73821" lon="7.08408">
        <ele>599.79998779297</ele>
        <time>2023-07-30T06:02:38.000Z</time>
      </trkpt>
      <trkpt lat="43.73821" lon="7.08408">
        <ele>599.79998779297</ele>
        <time>2023-07-30T06:02:39.000Z</time>
      </trkpt>
      <trkpt lat="43.73821" lon="7.08408">
        <ele>599.79998779297</ele>
        <time>2023-07-30T06:02:40.000Z</time>
      </trkpt>
      <trkpt lat="43.73821" lon="7.08408">
        <ele>599.79998779297</ele>
        <time>2023-07-30T06:02:41.000Z</time>
      </trkpt>
      <trkpt lat="43.73821" lon="7.08408">
        <ele>599.79998779297</ele>
        <time>2023-07-30T06:02:42.000Z</time>
      </trkpt>
      <trkpt lat="43.73821" lon="7.08408">
        <ele>599.79998779297</ele>
        <time>2023-07-30T06:02:43.000Z</time>
      </trkpt>
      <trkpt lat="43.73821" lon="7.08408">
        <ele>599.79998779297</ele>
        <time>2023-07-30T06:02:44.000Z</time>
      </trkpt>
      <trkpt lat="43.73821" lon="7.08408">
        <ele>599.79998779297</ele>
        <time>2023-07-30T06:02:45.000Z</time>
      </trkpt>
      <trkpt lat="43.73821" lon="7.08408">
        <ele>599.79998779297</ele>
        <time>2023-07-30T06:02:46.000Z</time>
      </trkpt>
      <trkpt lat="43.73821" lon="7.08408">
        <ele>599.79998779297</ele>
        <time>2023-07-30T06:02:47.000Z</time>
      </trkpt>
      <trkpt lat="43.73821" lon="7.08408">
        <ele>599.79998779297</ele>
        <time>2023-07-30T06:02:48.000Z</time>
      </trkpt>
      <trkpt lat="43.73821" lon="7.08408">
        <ele>599.79998779297</ele>
        <time>2023-07-30T06:02:49.000Z</time>
      </trkpt>
      <trkpt lat="43.73821" lon="7.08408">
        <ele>599.79998779297</ele>
        <time>2023-07-30T06:02:50.000Z</time>
      </trkpt>
      <trkpt lat="43.73821" lon="7.08408">
        <ele>599.59997558594</ele>
        <time>2023-07-30T06:02:51.000Z</time>
      </trkpt>
      <trkpt lat="43.73822" lon="7.08408">
        <ele>599.59997558594</ele>
        <time>2023-07-30T06:02:52.000Z</time>
      </trkpt>
      <trkpt lat="43.73822" lon="7.08408">
        <ele>599.59997558594</ele>
        <time>2023-07-30T06:02:53.000Z</time>
      </trkpt>
      <trkpt lat="43.73822" lon="7.08408">
        <ele>599.59997558594</ele>
        <time>2023-07-30T06:02:54.000Z</time>
      </trkpt>
      <trkpt lat="43.73822" lon="7.08408">
        <ele>599.59997558594</ele>
        <time>2023-07-30T06:02:55.000Z</time>
      </trkpt>
      <trkpt lat="43.73822" lon="7.08408">
        <ele>599.59997558594</ele>
        <time>2023-07-30T06:02:56.000Z</time>
      </trkpt>
      <trkpt lat="43.73822" lon="7.08408">
        <ele>599.59997558594</ele>
        <time>2023-07-30T06:02:57.000Z</time>
      </trkpt>
      <trkpt lat="43.73822" lon="7.08408">
        <ele>599.59997558594</ele>
        <time>2023-07-30T06:02:58.000Z</time>
      </trkpt>
      <trkpt lat="43.73822" lon="7.08408">
        <ele>599.59997558594</ele>
        <time>2023-07-30T06:02:59.000Z</time>
      </trkpt>
      <trkpt lat="43.73822" lon="7.08408">
        <ele>599.59997558594</ele>
        <time>2023-07-30T06:03:00.000Z</time>
      </trkpt>
      <trkpt lat="43.73822" lon="7.08408">
        <ele>599.59997558594</ele>
        <time>2023-07-30T06:03:01.000Z</time>
      </trkpt>
      <trkpt lat="43.73822" lon="7.08408">
        <ele>599.59997558594</ele>
        <time>2023-07-30T06:03:02.000Z</time>
      </trkpt>
      <trkpt lat="43.73822" lon="7.08408">
        <ele>599.59997558594</ele>
        <time>2023-07-30T06:03:03.000Z</time>
      </trkpt>
      <trkpt lat="43.73822" lon="7.08408">
        <ele>599.59997558594</ele>
        <time>2023-07-30T06:03:04.000Z</time>
      </trkpt>
      <trkpt lat="43.73822" lon="7.08408">
        <ele>599.59997558594</ele>
        <time>2023-07-30T06:03:05.000Z</time>
      </trkpt>
      <trkpt lat="43.73823" lon="7.08406">
        <ele>599.59997558594</ele>
        <time>2023-07-30T06:03:06.000Z</time>
      </trkpt>
      <trkpt lat="43.73823" lon="7.08406">
        <ele>599.59997558594</ele>
        <time>2023-07-30T06:03:07.000Z</time>
      </trkpt>
      <trkpt lat="43.73823" lon="7.08404">
        <ele>599.59997558594</ele>
        <time>2023-07-30T06:03:08.000Z</time>
      </trkpt>
      <trkpt lat="43.73824" lon="7.08403">
        <ele>599.59997558594</ele>
        <time>2023-07-30T06:03:09.000Z</time>
      </trkpt>
      <trkpt lat="43.73824" lon="7.08401">
        <ele>599.59997558594</ele>
        <time>2023-07-30T06:03:10.000Z</time>
      </trkpt>
      <trkpt lat="43.73824" lon="7.08399">
        <ele>599.59997558594</ele>
        <time>2023-07-30T06:03:11.000Z</time>
      </trkpt>
      <trkpt lat="43.73825" lon="7.08396">
        <ele>599.59997558594</ele>
        <time>2023-07-30T06:03:12.000Z</time>
      </trkpt>
      <trkpt lat="43.73826" lon="7.08393">
        <ele>599.40002441406</ele>
        <time>2023-07-30T06:03:13.000Z</time>
      </trkpt>
      <trkpt lat="43.73827" lon="7.08392">
        <ele>599.20001220703</ele>
        <time>2023-07-30T06:03:14.000Z</time>
      </trkpt>
      <trkpt lat="43.73829" lon="7.0839">
        <ele>599.20001220703</ele>
        <time>2023-07-30T06:03:15.000Z</time>
      </trkpt>
      <trkpt lat="43.73831" lon="7.08389">
        <ele>599.20001220703</ele>
        <time>2023-07-30T06:03:16.000Z</time>
      </trkpt>
      <trkpt lat="43.73831" lon="7.08388">
        <ele>599</ele>
        <time>2023-07-30T06:03:17.000Z</time>
      </trkpt>
      <trkpt lat="43.73831" lon="7.08387">
        <ele>599</ele>
        <time>2023-07-30T06:03:18.000Z</time>
      </trkpt>
      <trkpt lat="43.73833" lon="7.08385">
        <ele>599.20001220703</ele>
        <time>2023-07-30T06:03:19.000Z</time>
      </trkpt>
      <trkpt lat="43.73834" lon="7.08384">
        <ele>599.20001220703</ele>
        <time>2023-07-30T06:03:20.000Z</time>
      </trkpt>
      <trkpt lat="43.73834" lon="7.08384">
        <ele>599.20001220703</ele>
        <time>2023-07-30T06:03:21.000Z</time>
      </trkpt>
      <trkpt lat="43.73834" lon="7.08384">
        <ele>599.40002441406</ele>
        <time>2023-07-30T06:03:22.000Z</time>
      </trkpt>
      <trkpt lat="43.73834" lon="7.08384">
        <ele>599.40002441406</ele>
        <time>2023-07-30T06:03:23.000Z</time>
      </trkpt>
      <trkpt lat="43.73834" lon="7.08384">
        <ele>599.59997558594</ele>
        <time>2023-07-30T06:03:24.000Z</time>
      </trkpt>
      <trkpt lat="43.73834" lon="7.08384">
        <ele>599.59997558594</ele>
        <time>2023-07-30T06:03:25.000Z</time>
      </trkpt>
      <trkpt lat="43.73834" lon="7.08384">
        <ele>599.79998779297</ele>
        <time>2023-07-30T06:03:26.000Z</time>
      </trkpt>
      <trkpt lat="43.73834" lon="7.08384">
        <ele>599.79998779297</ele>
        <time>2023-07-30T06:03:27.000Z</time>
      </trkpt>
      <trkpt lat="43.73834" lon="7.08384">
        <ele>599.79998779297</ele>
        <time>2023-07-30T06:03:28.000Z</time>
      </trkpt>
      <trkpt lat="43.73834" lon="7.08384">
        <ele>599.79998779297</ele>
        <time>2023-07-30T06:03:29.000Z</time>
      </trkpt>
      <trkpt lat="43.73834" lon="7.08384">
        <ele>599.79998779297</ele>
        <time>2023-07-30T06:03:30.000Z</time>
      </trkpt>
      <trkpt lat="43.73834" lon="7.08384">
        <ele>599.79998779297</ele>
        <time>2023-07-30T06:03:31.000Z</time>
      </trkpt>
      <trkpt lat="43.73834" lon="7.08384">
        <ele>599.79998779297</ele>
        <time>2023-07-30T06:03:32.000Z</time>
      </trkpt>
      <trkpt lat="43.73834" lon="7.08384">
        <ele>599.79998779297</ele>
        <time>2023-07-30T06:03:33.000Z</time>
      </trkpt>
      <trkpt lat="43.73834" lon="7.08384">
        <ele>599.79998779297</ele>
        <time>2023-07-30T06:03:34.000Z</time>
      </trkpt>
      <trkpt lat="43.73834" lon="7.08384">
        <ele>599.79998779297</ele>
        <time>2023-07-30T06:03:35.000Z</time>
      </trkpt>
      <trkpt lat="43.73834" lon="7.08383">
        <ele>599.79998779297</ele>
        <time>2023-07-30T06:03:36.000Z</time>
      </trkpt>
      <trkpt lat="43.73834" lon="7.08382">
        <ele>599.79998779297</ele>
        <time>2023-07-30T06:03:37.000Z</time>
      </trkpt>
      <trkpt lat="43.73834" lon="7.08382">
        <ele>599.79998779297</ele>
        <time>2023-07-30T06:03:38.000Z</time>
      </trkpt>
      <trkpt lat="43.73834" lon="7.08382">
        <ele>599.79998779297</ele>
        <time>2023-07-30T06:03:39.000Z</time>
      </trkpt>
      <trkpt lat="43.73834" lon="7.08382">
        <ele>599.79998779297</ele>
        <time>2023-07-30T06:03:40.000Z</time>
      </trkpt>
      <trkpt lat="43.73836" lon="7.08382">
        <ele>599.79998779297</ele>
        <time>2023-07-30T06:03:41.000Z</time>
      </trkpt>
      <trkpt lat="43.73836" lon="7.08383">
        <ele>599.79998779297</ele>
        <time>2023-07-30T06:03:42.000Z</time>
      </trkpt>
      <trkpt lat="43.73837" lon="7.08382">
        <ele>599.79998779297</ele>
        <time>2023-07-30T06:03:43.000Z</time>
      </trkpt>
      <trkpt lat="43.73837" lon="7.08382">
        <ele>599.79998779297</ele>
        <time>2023-07-30T06:03:44.000Z</time>
      </trkpt>
      <trkpt lat="43.73837" lon="7.08382">
        <ele>599.79998779297</ele>
        <time>2023-07-30T06:03:45.000Z</time>
      </trkpt>
      <trkpt lat="43.73838" lon="7.08381">
        <ele>599.79998779297</ele>
        <time>2023-07-30T06:03:46.000Z</time>
      </trkpt>
      <trkpt lat="43.73839" lon="7.0838">
        <ele>599.79998779297</ele>
        <time>2023-07-30T06:03:47.000Z</time>
      </trkpt>
      <trkpt lat="43.73842" lon="7.0838">
        <ele>599.79998779297</ele>
        <time>2023-07-30T06:03:48.000Z</time>
      </trkpt>
      <trkpt lat="43.73844" lon="7.08381">
        <ele>599.79998779297</ele>
        <time>2023-07-30T06:03:49.000Z</time>
      </trkpt>
      <trkpt lat="43.73846" lon="7.08382">
        <ele>599.79998779297</ele>
        <time>2023-07-30T06:03:50.000Z</time>
      </trkpt>
      <trkpt lat="43.73848" lon="7.08382">
        <ele>599.79998779297</ele>
        <time>2023-07-30T06:03:51.000Z</time>
      </trkpt>
      <trkpt lat="43.73848" lon="7.08382">
        <ele>599.79998779297</ele>
        <time>2023-07-30T06:03:52.000Z</time>
      </trkpt>
      <trkpt lat="43.73848" lon="7.08382">
        <ele>599.79998779297</ele>
        <time>2023-07-30T06:03:53.000Z</time>
      </trkpt>
      <trkpt lat="43.73849" lon="7.08382">
        <ele>599.79998779297</ele>
        <time>2023-07-30T06:03:54.000Z</time>
      </trkpt>
      <trkpt lat="43.73849" lon="7.08382">
        <ele>599.79998779297</ele>
        <time>2023-07-30T06:03:55.000Z</time>
      </trkpt>
      <trkpt lat="43.73849" lon="7.08382">
        <ele>599.79998779297</ele>
        <time>2023-07-30T06:03:56.000Z</time>
      </trkpt>
      <trkpt lat="43.73849" lon="7.08382">
        <ele>599.79998779297</ele>
        <time>2023-07-30T06:03:57.000Z</time>
      </trkpt>
      <trkpt lat="43.73849" lon="7.08382">
        <ele>599.79998779297</ele>
        <time>2023-07-30T06:03:58.000Z</time>
      </trkpt>
      <trkpt lat="43.7385" lon="7.08382">
        <ele>599.79998779297</ele>
        <time>2023-07-30T06:03:59.000Z</time>
      </trkpt>
      <trkpt lat="43.73852" lon="7.08383">
        <ele>599.79998779297</ele>
        <time>2023-07-30T06:04:00.000Z</time>
      </trkpt>
      <trkpt lat="43.73853" lon="7.08383">
        <ele>599.79998779297</ele>
        <time>2023-07-30T06:04:01.000Z</time>
      </trkpt>
      <trkpt lat="43.73855" lon="7.08383">
        <ele>599.79998779297</ele>
        <time>2023-07-30T06:04:02.000Z</time>
      </trkpt>
      <trkpt lat="43.73857" lon="7.08383">
        <ele>599.79998779297</ele>
        <time>2023-07-30T06:04:03.000Z</time>
      </trkpt>
      <trkpt lat="43.73858" lon="7.08383">
        <ele>600.20001220703</ele>
        <time>2023-07-30T06:04:04.000Z</time>
      </trkpt>
      <trkpt lat="43.7386" lon="7.08382">
        <ele>600.20001220703</ele>
        <time>2023-07-30T06:04:05.000Z</time>
      </trkpt>
      <trkpt lat="43.73862" lon="7.08382">
        <ele>600.20001220703</ele>
        <time>2023-07-30T06:04:06.000Z</time>
      </trkpt>
      <trkpt lat="43.73864" lon="7.08382">
        <ele>600.40002441406</ele>
        <time>2023-07-30T06:04:07.000Z</time>
      </trkpt>
      <trkpt lat="43.73866" lon="7.08381">
        <ele>600.59997558594</ele>
        <time>2023-07-30T06:04:08.000Z</time>
      </trkpt>
      <trkpt lat="43.73867" lon="7.0838">
        <ele>600.79998779297</ele>
        <time>2023-07-30T06:04:09.000Z</time>
      </trkpt>
      <trkpt lat="43.73869" lon="7.08379">
        <ele>601</ele>
        <time>2023-07-30T06:04:10.000Z</time>
      </trkpt>
      <trkpt lat="43.73871" lon="7.08378">
        <ele>601.20001220703</ele>
        <time>2023-07-30T06:04:11.000Z</time>
      </trkpt>
      <trkpt lat="43.73873" lon="7.08379">
        <ele>601.20001220703</ele>
        <time>2023-07-30T06:04:12.000Z</time>
      </trkpt>
      <trkpt lat="43.73875" lon="7.08379">
        <ele>601.59997558594</ele>
        <time>2023-07-30T06:04:13.000Z</time>
      </trkpt>
      <trkpt lat="43.73877" lon="7.08379">
        <ele>601.79998779297</ele>
        <time>2023-07-30T06:04:14.000Z</time>
      </trkpt>
      <trkpt lat="43.73878" lon="7.08378">
        <ele>602</ele>
        <time>2023-07-30T06:04:15.000Z</time>
      </trkpt>
      <trkpt lat="43.7388" lon="7.08378">
        <ele>602.20001220703</ele>
        <time>2023-07-30T06:04:16.000Z</time>
      </trkpt>
      <trkpt lat="43.7388" lon="7.08377">
        <ele>602.59997558594</ele>
        <time>2023-07-30T06:04:17.000Z</time>
      </trkpt>
      <trkpt lat="43.73879" lon="7.08376">
        <ele>602.79998779297</ele>
        <time>2023-07-30T06:04:18.000Z</time>
      </trkpt>
      <trkpt lat="43.73879" lon="7.08376">
        <ele>603</ele>
        <time>2023-07-30T06:04:19.000Z</time>
      </trkpt>
      <trkpt lat="43.7388" lon="7.08376">
        <ele>603</ele>
        <time>2023-07-30T06:04:20.000Z</time>
      </trkpt>
      <trkpt lat="43.7388" lon="7.08376">
        <ele>603</ele>
        <time>2023-07-30T06:04:21.000Z</time>
      </trkpt>
      <trkpt lat="43.7388" lon="7.08376">
        <ele>603</ele>
        <time>2023-07-30T06:04:22.000Z</time>
      </trkpt>
      <trkpt lat="43.7388" lon="7.08377">
        <ele>602.79998779297</ele>
        <time>2023-07-30T06:04:23.000Z</time>
      </trkpt>
      <trkpt lat="43.7388" lon="7.08377">
        <ele>602.59997558594</ele>
        <time>2023-07-30T06:04:24.000Z</time>
      </trkpt>
      <trkpt lat="43.7388" lon="7.08377">
        <ele>602.59997558594</ele>
        <time>2023-07-30T06:04:25.000Z</time>
      </trkpt>
      <trkpt lat="43.7388" lon="7.08378">
        <ele>602.59997558594</ele>
        <time>2023-07-30T06:04:26.000Z</time>
      </trkpt>
      <trkpt lat="43.7388" lon="7.08378">
        <ele>602.59997558594</ele>
        <time>2023-07-30T06:04:27.000Z</time>
      </trkpt>
      <trkpt lat="43.7388" lon="7.08378">
        <ele>602.59997558594</ele>
        <time>2023-07-30T06:04:28.000Z</time>
      </trkpt>
      <trkpt lat="43.73881" lon="7.08378">
        <ele>602.79998779297</ele>
        <time>2023-07-30T06:04:29.000Z</time>
      </trkpt>
      <trkpt lat="43.73881" lon="7.08377">
        <ele>603.20001220703</ele>
        <time>2023-07-30T06:04:30.000Z</time>
      </trkpt>
      <trkpt lat="43.73882" lon="7.08377">
        <ele>603.20001220703</ele>
        <time>2023-07-30T06:04:31.000Z</time>
      </trkpt>
      <trkpt lat="43.73882" lon="7.08378">
        <ele>603.40002441406</ele>
        <time>2023-07-30T06:04:32.000Z</time>
      </trkpt>
      <trkpt lat="43.73882" lon="7.08378">
        <ele>603.40002441406</ele>
        <time>2023-07-30T06:04:33.000Z</time>
      </trkpt>
      <trkpt lat="43.73882" lon="7.08378">
        <ele>603.40002441406</ele>
        <time>2023-07-30T06:04:34.000Z</time>
      </trkpt>
      <trkpt lat="43.73882" lon="7.08378">
        <ele>603.40002441406</ele>
        <time>2023-07-30T06:04:35.000Z</time>
      </trkpt>
      <trkpt lat="43.73882" lon="7.08378">
        <ele>603.40002441406</ele>
        <time>2023-07-30T06:04:36.000Z</time>
      </trkpt>
      <trkpt lat="43.73882" lon="7.08378">
        <ele>603.40002441406</ele>
        <time>2023-07-30T06:04:37.000Z</time>
      </trkpt>
      <trkpt lat="43.73882" lon="7.08378">
        <ele>603.40002441406</ele>
        <time>2023-07-30T06:04:38.000Z</time>
      </trkpt>
      <trkpt lat="43.73882" lon="7.08378">
        <ele>603.40002441406</ele>
        <time>2023-07-30T06:04:39.000Z</time>
      </trkpt>
      <trkpt lat="43.73882" lon="7.08378">
        <ele>603.20001220703</ele>
        <time>2023-07-30T06:04:40.000Z</time>
      </trkpt>
      <trkpt lat="43.73882" lon="7.08377">
        <ele>603.20001220703</ele>
        <time>2023-07-30T06:04:41.000Z</time>
      </trkpt>
      <trkpt lat="43.73881" lon="7.08377">
        <ele>603.20001220703</ele>
        <time>2023-07-30T06:04:42.000Z</time>
      </trkpt>
      <trkpt lat="43.73881" lon="7.08377">
        <ele>603.20001220703</ele>
        <time>2023-07-30T06:04:43.000Z</time>
      </trkpt>
      <trkpt lat="43.73881" lon="7.08377">
        <ele>603.20001220703</ele>
        <time>2023-07-30T06:04:44.000Z</time>
      </trkpt>
      <trkpt lat="43.73881" lon="7.08377">
        <ele>603.20001220703</ele>
        <time>2023-07-30T06:04:45.000Z</time>
      </trkpt>
      <trkpt lat="43.73881" lon="7.08377">
        <ele>603.20001220703</ele>
        <time>2023-07-30T06:04:46.000Z</time>
      </trkpt>
      <trkpt lat="43.73881" lon="7.08377">
        <ele>603.20001220703</ele>
        <time>2023-07-30T06:04:47.000Z</time>
      </trkpt>
      <trkpt lat="43.73881" lon="7.08377">
        <ele>603.20001220703</ele>
        <time>2023-07-30T06:04:48.000Z</time>
      </trkpt>
      <trkpt lat="43.73881" lon="7.08377">
        <ele>603.20001220703</ele>
        <time>2023-07-30T06:04:49.000Z</time>
      </trkpt>
      <trkpt lat="43.73881" lon="7.08377">
        <ele>603.20001220703</ele>
        <time>2023-07-30T06:04:50.000Z</time>
      </trkpt>
      <trkpt lat="43.73881" lon="7.08376">
        <ele>603.20001220703</ele>
        <time>2023-07-30T06:04:51.000Z</time>
      </trkpt>
      <trkpt lat="43.73881" lon="7.08377">
        <ele>603.20001220703</ele>
        <time>2023-07-30T06:04:52.000Z</time>
      </trkpt>
      <trkpt lat="43.73882" lon="7.08377">
        <ele>603.20001220703</ele>
        <time>2023-07-30T06:04:53.000Z</time>
      </trkpt>
      <trkpt lat="43.73883" lon="7.08377">
        <ele>603.20001220703</ele>
        <time>2023-07-30T06:04:54.000Z</time>
      </trkpt>
      <trkpt lat="43.73883" lon="7.08377">
        <ele>603.20001220703</ele>
        <time>2023-07-30T06:04:55.000Z</time>
      </trkpt>
      <trkpt lat="43.73884" lon="7.08377">
        <ele>603.40002441406</ele>
        <time>2023-07-30T06:04:56.000Z</time>
      </trkpt>
      <trkpt lat="43.73885" lon="7.08376">
        <ele>603.40002441406</ele>
        <time>2023-07-30T06:04:57.000Z</time>
      </trkpt>
      <trkpt lat="43.73886" lon="7.08376">
        <ele>603.40002441406</ele>
        <time>2023-07-30T06:04:58.000Z</time>
      </trkpt>
      <trkpt lat="43.73886" lon="7.08376">
        <ele>603.40002441406</ele>
        <time>2023-07-30T06:04:59.000Z</time>
      </trkpt>
      <trkpt lat="43.73887" lon="7.08376">
        <ele>603.40002441406</ele>
        <time>2023-07-30T06:05:00.000Z</time>
      </trkpt>
      <trkpt lat="43.73888" lon="7.08375">
        <ele>603.59997558594</ele>
        <time>2023-07-30T06:05:01.000Z</time>
      </trkpt>
      <trkpt lat="43.73888" lon="7.08375">
        <ele>603.59997558594</ele>
        <time>2023-07-30T06:05:02.000Z</time>
      </trkpt>
      <trkpt lat="43.73888" lon="7.08375">
        <ele>603.79998779297</ele>
        <time>2023-07-30T06:05:03.000Z</time>
      </trkpt>
      <trkpt lat="43.73888" lon="7.08376">
        <ele>603.79998779297</ele>
        <time>2023-07-30T06:05:04.000Z</time>
      </trkpt>
      <trkpt lat="43.73888" lon="7.08375">
        <ele>603.79998779297</ele>
        <time>2023-07-30T06:05:05.000Z</time>
      </trkpt>
      <trkpt lat="43.73889" lon="7.08376">
        <ele>603.79998779297</ele>
        <time>2023-07-30T06:05:06.000Z</time>
      </trkpt>
      <trkpt lat="43.73889" lon="7.08375">
        <ele>603.79998779297</ele>
        <time>2023-07-30T06:05:07.000Z</time>
      </trkpt>
      <trkpt lat="43.73889" lon="7.08375">
        <ele>603.79998779297</ele>
        <time>2023-07-30T06:05:08.000Z</time>
      </trkpt>
      <trkpt lat="43.7389" lon="7.08375">
        <ele>603.79998779297</ele>
        <time>2023-07-30T06:05:09.000Z</time>
      </trkpt>
      <trkpt lat="43.73891" lon="7.08374">
        <ele>603.79998779297</ele>
        <time>2023-07-30T06:05:10.000Z</time>
      </trkpt>
      <trkpt lat="43.73893" lon="7.08374">
        <ele>603.79998779297</ele>
        <time>2023-07-30T06:05:11.000Z</time>
      </trkpt>
      <trkpt lat="43.73895" lon="7.08373">
        <ele>603.79998779297</ele>
        <time>2023-07-30T06:05:12.000Z</time>
      </trkpt>
      <trkpt lat="43.73897" lon="7.08373">
        <ele>604</ele>
        <time>2023-07-30T06:05:13.000Z</time>
      </trkpt>
      <trkpt lat="43.73898" lon="7.08373">
        <ele>604</ele>
        <time>2023-07-30T06:05:14.000Z</time>
      </trkpt>
      <trkpt lat="43.73899" lon="7.08371">
        <ele>604.20001220703</ele>
        <time>2023-07-30T06:05:15.000Z</time>
      </trkpt>
      <trkpt lat="43.739" lon="7.0837">
        <ele>604.40002441406</ele>
        <time>2023-07-30T06:05:16.000Z</time>
      </trkpt>
      <trkpt lat="43.73902" lon="7.08369">
        <ele>604.79998779297</ele>
        <time>2023-07-30T06:05:17.000Z</time>
      </trkpt>
      <trkpt lat="43.73904" lon="7.08368">
        <ele>605</ele>
        <time>2023-07-30T06:05:18.000Z</time>
      </trkpt>
      <trkpt lat="43.73905" lon="7.08366">
        <ele>605.20001220703</ele>
        <time>2023-07-30T06:05:19.000Z</time>
      </trkpt>
      <trkpt lat="43.73907" lon="7.08365">
        <ele>605.20001220703</ele>
        <time>2023-07-30T06:05:20.000Z</time>
      </trkpt>
      <trkpt lat="43.73908" lon="7.08364">
        <ele>605.40002441406</ele>
        <time>2023-07-30T06:05:21.000Z</time>
      </trkpt>
      <trkpt lat="43.7391" lon="7.08363">
        <ele>605.40002441406</ele>
        <time>2023-07-30T06:05:22.000Z</time>
      </trkpt>
      <trkpt lat="43.73912" lon="7.08361">
        <ele>605.59997558594</ele>
        <time>2023-07-30T06:05:23.000Z</time>
      </trkpt>
      <trkpt lat="43.73913" lon="7.08359">
        <ele>605.79998779297</ele>
        <time>2023-07-30T06:05:24.000Z</time>
      </trkpt>
      <trkpt lat="43.73915" lon="7.08358">
        <ele>606</ele>
        <time>2023-07-30T06:05:25.000Z</time>
      </trkpt>
      <trkpt lat="43.73917" lon="7.08356">
        <ele>606</ele>
        <time>2023-07-30T06:05:26.000Z</time>
      </trkpt>
      <trkpt lat="43.73919" lon="7.08355">
        <ele>606.20001220703</ele>
        <time>2023-07-30T06:05:27.000Z</time>
      </trkpt>
      <trkpt lat="43.73921" lon="7.08354">
        <ele>606.40002441406</ele>
        <time>2023-07-30T06:05:28.000Z</time>
      </trkpt>
      <trkpt lat="43.73922" lon="7.08352">
        <ele>606.59997558594</ele>
        <time>2023-07-30T06:05:29.000Z</time>
      </trkpt>
      <trkpt lat="43.73925" lon="7.08351">
        <ele>606.59997558594</ele>
        <time>2023-07-30T06:05:30.000Z</time>
      </trkpt>
      <trkpt lat="43.73927" lon="7.08351">
        <ele>607</ele>
        <time>2023-07-30T06:05:31.000Z</time>
      </trkpt>
      <trkpt lat="43.73929" lon="7.08352">
        <ele>607</ele>
        <time>2023-07-30T06:05:32.000Z</time>
      </trkpt>
      <trkpt lat="43.73932" lon="7.08353">
        <ele>607</ele>
        <time>2023-07-30T06:05:33.000Z</time>
      </trkpt>
      <trkpt lat="43.73934" lon="7.08353">
        <ele>607</ele>
        <time>2023-07-30T06:05:34.000Z</time>
      </trkpt>
      <trkpt lat="43.73936" lon="7.08354">
        <ele>607</ele>
        <time>2023-07-30T06:05:35.000Z</time>
      </trkpt>
      <trkpt lat="43.73937" lon="7.08354">
        <ele>607.40002441406</ele>
        <time>2023-07-30T06:05:36.000Z</time>
      </trkpt>
      <trkpt lat="43.73937" lon="7.08354">
        <ele>607.59997558594</ele>
        <time>2023-07-30T06:05:37.000Z</time>
      </trkpt>
      <trkpt lat="43.73937" lon="7.08354">
        <ele>608.20001220703</ele>
        <time>2023-07-30T06:05:38.000Z</time>
      </trkpt>
      <trkpt lat="43.73937" lon="7.08354">
        <ele>608.40002441406</ele>
        <time>2023-07-30T06:05:39.000Z</time>
      </trkpt>
      <trkpt lat="43.73937" lon="7.08354">
        <ele>608.59997558594</ele>
        <time>2023-07-30T06:05:40.000Z</time>
      </trkpt>
      <trkpt lat="43.73938" lon="7.08353">
        <ele>609</ele>
        <time>2023-07-30T06:05:41.000Z</time>
      </trkpt>
      <trkpt lat="43.73939" lon="7.08353">
        <ele>609</ele>
        <time>2023-07-30T06:05:42.000Z</time>
      </trkpt>
      <trkpt lat="43.73939" lon="7.08353">
        <ele>609</ele>
        <time>2023-07-30T06:05:43.000Z</time>
      </trkpt>
      <trkpt lat="43.73939" lon="7.08352">
        <ele>609</ele>
        <time>2023-07-30T06:05:44.000Z</time>
      </trkpt>
      <trkpt lat="43.7394" lon="7.08352">
        <ele>609.20001220703</ele>
        <time>2023-07-30T06:05:45.000Z</time>
      </trkpt>
      <trkpt lat="43.7394" lon="7.08352">
        <ele>609.20001220703</ele>
        <time>2023-07-30T06:05:46.000Z</time>
      </trkpt>
      <trkpt lat="43.7394" lon="7.08352">
        <ele>609.40002441406</ele>
        <time>2023-07-30T06:05:47.000Z</time>
      </trkpt>
      <trkpt lat="43.7394" lon="7.08352">
        <ele>609.40002441406</ele>
        <time>2023-07-30T06:05:48.000Z</time>
      </trkpt>
      <trkpt lat="43.7394" lon="7.08352">
        <ele>609.40002441406</ele>
        <time>2023-07-30T06:05:49.000Z</time>
      </trkpt>
      <trkpt lat="43.7394" lon="7.08351">
        <ele>609.40002441406</ele>
        <time>2023-07-30T06:05:50.000Z</time>
      </trkpt>
      <trkpt lat="43.7394" lon="7.08351">
        <ele>609.40002441406</ele>
        <time>2023-07-30T06:05:51.000Z</time>
      </trkpt>
      <trkpt lat="43.7394" lon="7.08351">
        <ele>609.40002441406</ele>
        <time>2023-07-30T06:05:52.000Z</time>
      </trkpt>
      <trkpt lat="43.7394" lon="7.08351">
        <ele>609.40002441406</ele>
        <time>2023-07-30T06:05:53.000Z</time>
      </trkpt>
      <trkpt lat="43.7394" lon="7.08351">
        <ele>609.40002441406</ele>
        <time>2023-07-30T06:05:54.000Z</time>
      </trkpt>
      <trkpt lat="43.7394" lon="7.08351">
        <ele>609.40002441406</ele>
        <time>2023-07-30T06:05:55.000Z</time>
      </trkpt>
      <trkpt lat="43.7394" lon="7.08351">
        <ele>608.79998779297</ele>
        <time>2023-07-30T06:05:56.000Z</time>
      </trkpt>
      <trkpt lat="43.7394" lon="7.08351">
        <ele>608.79998779297</ele>
        <time>2023-07-30T06:05:57.000Z</time>
      </trkpt>
      <trkpt lat="43.7394" lon="7.08351">
        <ele>608.79998779297</ele>
        <time>2023-07-30T06:05:58.000Z</time>
      </trkpt>
      <trkpt lat="43.7394" lon="7.08351">
        <ele>609</ele>
        <time>2023-07-30T06:05:59.000Z</time>
      </trkpt>
      <trkpt lat="43.7394" lon="7.08351">
        <ele>610</ele>
        <time>2023-07-30T06:06:00.000Z</time>
      </trkpt>
      <trkpt lat="43.7394" lon="7.08351">
        <ele>609.20001220703</ele>
        <time>2023-07-30T06:06:01.000Z</time>
      </trkpt>
      <trkpt lat="43.7394" lon="7.08351">
        <ele>609.20001220703</ele>
        <time>2023-07-30T06:06:02.000Z</time>
      </trkpt>
      <trkpt lat="43.7394" lon="7.08351">
        <ele>609.20001220703</ele>
        <time>2023-07-30T06:06:03.000Z</time>
      </trkpt>
      <trkpt lat="43.7394" lon="7.08351">
        <ele>609.20001220703</ele>
        <time>2023-07-30T06:06:04.000Z</time>
      </trkpt>
      <trkpt lat="43.7394" lon="7.08351">
        <ele>609.20001220703</ele>
        <time>2023-07-30T06:06:05.000Z</time>
      </trkpt>
      <trkpt lat="43.7394" lon="7.08351">
        <ele>609.20001220703</ele>
        <time>2023-07-30T06:06:06.000Z</time>
      </trkpt>
      <trkpt lat="43.7394" lon="7.08351">
        <ele>609.20001220703</ele>
        <time>2023-07-30T06:06:07.000Z</time>
      </trkpt>
      <trkpt lat="43.7394" lon="7.08351">
        <ele>609.59997558594</ele>
        <time>2023-07-30T06:06:08.000Z</time>
      </trkpt>
      <trkpt lat="43.7394" lon="7.08351">
        <ele>609.59997558594</ele>
        <time>2023-07-30T06:06:09.000Z</time>
      </trkpt>
      <trkpt lat="43.7394" lon="7.08351">
        <ele>609.79998779297</ele>
        <time>2023-07-30T06:06:10.000Z</time>
      </trkpt>
      <trkpt lat="43.7394" lon="7.08351">
        <ele>610</ele>
        <time>2023-07-30T06:06:11.000Z</time>
      </trkpt>
      <trkpt lat="43.7394" lon="7.08351">
        <ele>609.79998779297</ele>
        <time>2023-07-30T06:06:12.000Z</time>
      </trkpt>
      <trkpt lat="43.7394" lon="7.08351">
        <ele>609.59997558594</ele>
        <time>2023-07-30T06:06:13.000Z</time>
      </trkpt>
      <trkpt lat="43.7394" lon="7.08351">
        <ele>609.59997558594</ele>
        <time>2023-07-30T06:06:14.000Z</time>
      </trkpt>
      <trkpt lat="43.7394" lon="7.08351">
        <ele>609.20001220703</ele>
        <time>2023-07-30T06:06:15.000Z</time>
      </trkpt>
      <trkpt lat="43.7394" lon="7.08351">
        <ele>609.20001220703</ele>
        <time>2023-07-30T06:06:16.000Z</time>
      </trkpt>
      <trkpt lat="43.7394" lon="7.08351">
        <ele>609.20001220703</ele>
        <time>2023-07-30T06:06:17.000Z</time>
      </trkpt>
      <trkpt lat="43.7394" lon="7.08351">
        <ele>609.20001220703</ele>
        <time>2023-07-30T06:06:18.000Z</time>
      </trkpt>
      <trkpt lat="43.7394" lon="7.08351">
        <ele>609.20001220703</ele>
        <time>2023-07-30T06:06:19.000Z</time>
      </trkpt>
      <trkpt lat="43.7394" lon="7.08351">
        <ele>609.20001220703</ele>
        <time>2023-07-30T06:06:20.000Z</time>
      </trkpt>
      <trkpt lat="43.7394" lon="7.08351">
        <ele>609.40002441406</ele>
        <time>2023-07-30T06:06:21.000Z</time>
      </trkpt>
      <trkpt lat="43.7394" lon="7.08351">
        <ele>609.40002441406</ele>
        <time>2023-07-30T06:06:22.000Z</time>
      </trkpt>
      <trkpt lat="43.7394" lon="7.08351">
        <ele>609.40002441406</ele>
        <time>2023-07-30T06:06:23.000Z</time>
      </trkpt>
      <trkpt lat="43.7394" lon="7.08351">
        <ele>609.20001220703</ele>
        <time>2023-07-30T06:06:24.000Z</time>
      </trkpt>
      <trkpt lat="43.7394" lon="7.08351">
        <ele>609.20001220703</ele>
        <time>2023-07-30T06:06:25.000Z</time>
      </trkpt>
      <trkpt lat="43.7394" lon="7.08351">
        <ele>609.20001220703</ele>
        <time>2023-07-30T06:06:26.000Z</time>
      </trkpt>
      <trkpt lat="43.7394" lon="7.08351">
        <ele>609.59997558594</ele>
        <time>2023-07-30T06:06:27.000Z</time>
      </trkpt>
      <trkpt lat="43.7394" lon="7.08351">
        <ele>610.20001220703</ele>
        <time>2023-07-30T06:06:28.000Z</time>
      </trkpt>
      <trkpt lat="43.7394" lon="7.08351">
        <ele>610.20001220703</ele>
        <time>2023-07-30T06:06:29.000Z</time>
      </trkpt>
      <trkpt lat="43.7394" lon="7.08351">
        <ele>610.20001220703</ele>
        <time>2023-07-30T06:06:30.000Z</time>
      </trkpt>
      <trkpt lat="43.7394" lon="7.08351">
        <ele>610.20001220703</ele>
        <time>2023-07-30T06:06:31.000Z</time>
      </trkpt>
      <trkpt lat="43.7394" lon="7.08351">
        <ele>610.20001220703</ele>
        <time>2023-07-30T06:06:32.000Z</time>
      </trkpt>
      <trkpt lat="43.7394" lon="7.08351">
        <ele>609.79998779297</ele>
        <time>2023-07-30T06:06:33.000Z</time>
      </trkpt>
      <trkpt lat="43.7394" lon="7.08351">
        <ele>609.40002441406</ele>
        <time>2023-07-30T06:06:34.000Z</time>
      </trkpt>
      <trkpt lat="43.7394" lon="7.08351">
        <ele>609.40002441406</ele>
        <time>2023-07-30T06:06:35.000Z</time>
      </trkpt>
      <trkpt lat="43.7394" lon="7.08351">
        <ele>609.40002441406</ele>
        <time>2023-07-30T06:06:36.000Z</time>
      </trkpt>
      <trkpt lat="43.7394" lon="7.08351">
        <ele>609.40002441406</ele>
        <time>2023-07-30T06:06:37.000Z</time>
      </trkpt>
      <trkpt lat="43.7394" lon="7.08351">
        <ele>609.40002441406</ele>
        <time>2023-07-30T06:06:38.000Z</time>
      </trkpt>
      <trkpt lat="43.7394" lon="7.08351">
        <ele>609.40002441406</ele>
        <time>2023-07-30T06:06:39.000Z</time>
      </trkpt>
      <trkpt lat="43.7394" lon="7.08351">
        <ele>609.59997558594</ele>
        <time>2023-07-30T06:06:40.000Z</time>
      </trkpt>
      <trkpt lat="43.7394" lon="7.08351">
        <ele>610</ele>
        <time>2023-07-30T06:06:41.000Z</time>
      </trkpt>
      <trkpt lat="43.7394" lon="7.08351">
        <ele>610</ele>
        <time>2023-07-30T06:06:42.000Z</time>
      </trkpt>
      <trkpt lat="43.7394" lon="7.08351">
        <ele>610</ele>
        <time>2023-07-30T06:06:43.000Z</time>
      </trkpt>
      <trkpt lat="43.7394" lon="7.08351">
        <ele>610</ele>
        <time>2023-07-30T06:06:44.000Z</time>
      </trkpt>
      <trkpt lat="43.7394" lon="7.08351">
        <ele>610</ele>
        <time>2023-07-30T06:06:45.000Z</time>
      </trkpt>
      <trkpt lat="43.7394" lon="7.08351">
        <ele>609.59997558594</ele>
        <time>2023-07-30T06:06:46.000Z</time>
      </trkpt>
      <trkpt lat="43.7394" lon="7.08351">
        <ele>609.59997558594</ele>
        <time>2023-07-30T06:06:47.000Z</time>
      </trkpt>
      <trkpt lat="43.7394" lon="7.08351">
        <ele>609.59997558594</ele>
        <time>2023-07-30T06:06:48.000Z</time>
      </trkpt>
      <trkpt lat="43.7394" lon="7.08351">
        <ele>609.59997558594</ele>
        <time>2023-07-30T06:06:49.000Z</time>
      </trkpt>
      <trkpt lat="43.7394" lon="7.08351">
        <ele>609.59997558594</ele>
        <time>2023-07-30T06:06:50.000Z</time>
      </trkpt>
      <trkpt lat="43.7394" lon="7.08351">
        <ele>609.59997558594</ele>
        <time>2023-07-30T06:06:51.000Z</time>
      </trkpt>
      <trkpt lat="43.7394" lon="7.08351">
        <ele>609.59997558594</ele>
        <time>2023-07-30T06:06:52.000Z</time>
      </trkpt>
      <trkpt lat="43.7394" lon="7.08351">
        <ele>609.59997558594</ele>
        <time>2023-07-30T06:06:53.000Z</time>
      </trkpt>
      <trkpt lat="43.7394" lon="7.08351">
        <ele>609.59997558594</ele>
        <time>2023-07-30T06:06:54.000Z</time>
      </trkpt>
      <trkpt lat="43.7394" lon="7.08351">
        <ele>609.79998779297</ele>
        <time>2023-07-30T06:06:55.000Z</time>
      </trkpt>
      <trkpt lat="43.7394" lon="7.08351">
        <ele>610</ele>
        <time>2023-07-30T06:06:56.000Z</time>
      </trkpt>
      <trkpt lat="43.7394" lon="7.08352">
        <ele>610</ele>
        <time>2023-07-30T06:06:57.000Z</time>
      </trkpt>
      <trkpt lat="43.7394" lon="7.08352">
        <ele>610.20001220703</ele>
        <time>2023-07-30T06:06:58.000Z</time>
      </trkpt>
      <trkpt lat="43.7394" lon="7.08352">
        <ele>610.20001220703</ele>
        <time>2023-07-30T06:06:59.000Z</time>
      </trkpt>
      <trkpt lat="43.7394" lon="7.08352">
        <ele>610.20001220703</ele>
        <time>2023-07-30T06:07:00.000Z</time>
      </trkpt>
      <trkpt lat="43.7394" lon="7.08351">
        <ele>610.20001220703</ele>
        <time>2023-07-30T06:07:01.000Z</time>
      </trkpt>
      <trkpt lat="43.7394" lon="7.08351">
        <ele>610.20001220703</ele>
        <time>2023-07-30T06:07:02.000Z</time>
      </trkpt>
      <trkpt lat="43.7394" lon="7.08351">
        <ele>610.20001220703</ele>
        <time>2023-07-30T06:07:03.000Z</time>
      </trkpt>
      <trkpt lat="43.7394" lon="7.08351">
        <ele>610.20001220703</ele>
        <time>2023-07-30T06:07:04.000Z</time>
      </trkpt>
      <trkpt lat="43.7394" lon="7.08352">
        <ele>610.20001220703</ele>
        <time>2023-07-30T06:07:05.000Z</time>
      </trkpt>
      <trkpt lat="43.7394" lon="7.08352">
        <ele>610.20001220703</ele>
        <time>2023-07-30T06:07:06.000Z</time>
      </trkpt>
      <trkpt lat="43.7394" lon="7.08352">
        <ele>610.20001220703</ele>
        <time>2023-07-30T06:07:07.000Z</time>
      </trkpt>
      <trkpt lat="43.7394" lon="7.08352">
        <ele>610.20001220703</ele>
        <time>2023-07-30T06:07:08.000Z</time>
      </trkpt>
      <trkpt lat="43.7394" lon="7.08352">
        <ele>610.20001220703</ele>
        <time>2023-07-30T06:07:09.000Z</time>
      </trkpt>
      <trkpt lat="43.7394" lon="7.08352">
        <ele>610.20001220703</ele>
        <time>2023-07-30T06:07:10.000Z</time>
      </trkpt>
      <trkpt lat="43.7394" lon="7.08352">
        <ele>610</ele>
        <time>2023-07-30T06:07:11.000Z</time>
      </trkpt>
      <trkpt lat="43.7394" lon="7.08351">
        <ele>610</ele>
        <time>2023-07-30T06:07:12.000Z</time>
      </trkpt>
      <trkpt lat="43.7394" lon="7.08351">
        <ele>610</ele>
        <time>2023-07-30T06:07:13.000Z</time>
      </trkpt>
      <trkpt lat="43.7394" lon="7.08351">
        <ele>610</ele>
        <time>2023-07-30T06:07:14.000Z</time>
      </trkpt>
      <trkpt lat="43.7394" lon="7.08351">
        <ele>610</ele>
        <time>2023-07-30T06:07:15.000Z</time>
      </trkpt>
      <trkpt lat="43.7394" lon="7.08351">
        <ele>610</ele>
        <time>2023-07-30T06:07:16.000Z</time>
      </trkpt>
      <trkpt lat="43.7394" lon="7.08351">
        <ele>610</ele>
        <time>2023-07-30T06:07:17.000Z</time>
      </trkpt>
      <trkpt lat="43.7394" lon="7.08351">
        <ele>610</ele>
        <time>2023-07-30T06:07:18.000Z</time>
      </trkpt>
      <trkpt lat="43.7394" lon="7.08351">
        <ele>610</ele>
        <time>2023-07-30T06:07:19.000Z</time>
      </trkpt>
      <trkpt lat="43.7394" lon="7.08351">
        <ele>610</ele>
        <time>2023-07-30T06:07:20.000Z</time>
      </trkpt>
      <trkpt lat="43.7394" lon="7.08351">
        <ele>610</ele>
        <time>2023-07-30T06:07:21.000Z</time>
      </trkpt>
      <trkpt lat="43.7394" lon="7.08351">
        <ele>610</ele>
        <time>2023-07-30T06:07:22.000Z</time>
      </trkpt>
      <trkpt lat="43.7394" lon="7.08351">
        <ele>610</ele>
        <time>2023-07-30T06:07:23.000Z</time>
      </trkpt>
      <trkpt lat="43.7394" lon="7.08351">
        <ele>610</ele>
        <time>2023-07-30T06:07:24.000Z</time>
      </trkpt>
      <trkpt lat="43.7394" lon="7.08351">
        <ele>610</ele>
        <time>2023-07-30T06:07:25.000Z</time>
      </trkpt>
      <trkpt lat="43.7394" lon="7.08351">
        <ele>610</ele>
        <time>2023-07-30T06:07:26.000Z</time>
      </trkpt>
      <trkpt lat="43.7394" lon="7.08351">
        <ele>610</ele>
        <time>2023-07-30T06:07:27.000Z</time>
      </trkpt>
      <trkpt lat="43.7394" lon="7.08351">
        <ele>610</ele>
        <time>2023-07-30T06:07:28.000Z</time>
      </trkpt>
      <trkpt lat="43.7394" lon="7.08351">
        <ele>610.20001220703</ele>
        <time>2023-07-30T06:07:29.000Z</time>
      </trkpt>
      <trkpt lat="43.7394" lon="7.08351">
        <ele>610.20001220703</ele>
        <time>2023-07-30T06:07:30.000Z</time>
      </trkpt>
      <trkpt lat="43.7394" lon="7.08351">
        <ele>610.20001220703</ele>
        <time>2023-07-30T06:07:31.000Z</time>
      </trkpt>
      <trkpt lat="43.7394" lon="7.08351">
        <ele>610.20001220703</ele>
        <time>2023-07-30T06:07:32.000Z</time>
      </trkpt>
      <trkpt lat="43.7394" lon="7.08351">
        <ele>610.20001220703</ele>
        <time>2023-07-30T06:07:33.000Z</time>
      </trkpt>
      <trkpt lat="43.7394" lon="7.08351">
        <ele>610.20001220703</ele>
        <time>2023-07-30T06:07:34.000Z</time>
      </trkpt>
      <trkpt lat="43.7394" lon="7.08351">
        <ele>610.20001220703</ele>
        <time>2023-07-30T06:07:35.000Z</time>
      </trkpt>
      <trkpt lat="43.7394" lon="7.08351">
        <ele>610.20001220703</ele>
        <time>2023-07-30T06:07:36.000Z</time>
      </trkpt>
      <trkpt lat="43.7394" lon="7.08351">
        <ele>610.20001220703</ele>
        <time>2023-07-30T06:07:37.000Z</time>
      </trkpt>
      <trkpt lat="43.7394" lon="7.08351">
        <ele>610.20001220703</ele>
        <time>2023-07-30T06:07:38.000Z</time>
      </trkpt>
      <trkpt lat="43.7394" lon="7.08351">
        <ele>610.20001220703</ele>
        <time>2023-07-30T06:07:39.000Z</time>
      </trkpt>
      <trkpt lat="43.7394" lon="7.08351">
        <ele>610.20001220703</ele>
        <time>2023-07-30T06:07:40.000Z</time>
      </trkpt>
      <trkpt lat="43.7394" lon="7.08351">
        <ele>610.20001220703</ele>
        <time>2023-07-30T06:07:41.000Z</time>
      </trkpt>
      <trkpt lat="43.7394" lon="7.08351">
        <ele>610.20001220703</ele>
        <time>2023-07-30T06:07:42.000Z</time>
      </trkpt>
      <trkpt lat="43.7394" lon="7.08351">
        <ele>610.20001220703</ele>
        <time>2023-07-30T06:07:43.000Z</time>
      </trkpt>
      <trkpt lat="43.7394" lon="7.08351">
        <ele>610.20001220703</ele>
        <time>2023-07-30T06:07:44.000Z</time>
      </trkpt>
      <trkpt lat="43.7394" lon="7.08351">
        <ele>610.20001220703</ele>
        <time>2023-07-30T06:07:45.000Z</time>
      </trkpt>
      <trkpt lat="43.7394" lon="7.08351">
        <ele>610.20001220703</ele>
        <time>2023-07-30T06:07:46.000Z</time>
      </trkpt>
      <trkpt lat="43.7394" lon="7.08351">
        <ele>610.20001220703</ele>
        <time>2023-07-30T06:07:47.000Z</time>
      </trkpt>
      <trkpt lat="43.7394" lon="7.08351">
        <ele>610.20001220703</ele>
        <time>2023-07-30T06:07:48.000Z</time>
      </trkpt>
      <trkpt lat="43.7394" lon="7.08351">
        <ele>610.20001220703</ele>
        <time>2023-07-30T06:07:49.000Z</time>
      </trkpt>
      <trkpt lat="43.7394" lon="7.08352">
        <ele>610.20001220703</ele>
        <time>2023-07-30T06:07:50.000Z</time>
      </trkpt>
      <trkpt lat="43.7394" lon="7.08351">
        <ele>610.20001220703</ele>
        <time>2023-07-30T06:07:51.000Z</time>
      </trkpt>
      <trkpt lat="43.7394" lon="7.08351">
        <ele>610.20001220703</ele>
        <time>2023-07-30T06:07:52.000Z</time>
      </trkpt>
      <trkpt lat="43.7394" lon="7.08351">
        <ele>610.20001220703</ele>
        <time>2023-07-30T06:07:53.000Z</time>
      </trkpt>
      <trkpt lat="43.7394" lon="7.08351">
        <ele>610.20001220703</ele>
        <time>2023-07-30T06:07:54.000Z</time>
      </trkpt>
      <trkpt lat="43.7394" lon="7.08351">
        <ele>610.20001220703</ele>
        <time>2023-07-30T06:07:55.000Z</time>
      </trkpt>
      <trkpt lat="43.7394" lon="7.08351">
        <ele>610.20001220703</ele>
        <time>2023-07-30T06:07:56.000Z</time>
      </trkpt>
      <trkpt lat="43.7394" lon="7.08351">
        <ele>610.20001220703</ele>
        <time>2023-07-30T06:07:57.000Z</time>
      </trkpt>
      <trkpt lat="43.7394" lon="7.08351">
        <ele>610.20001220703</ele>
        <time>2023-07-30T06:07:58.000Z</time>
      </trkpt>
      <trkpt lat="43.7394" lon="7.08351">
        <ele>610.20001220703</ele>
        <time>2023-07-30T06:07:59.000Z</time>
      </trkpt>
      <trkpt lat="43.7394" lon="7.08351">
        <ele>610.59997558594</ele>
        <time>2023-07-30T06:08:00.000Z</time>
      </trkpt>
      <trkpt lat="43.7394" lon="7.08351">
        <ele>610.59997558594</ele>
        <time>2023-07-30T06:08:01.000Z</time>
      </trkpt>
      <trkpt lat="43.7394" lon="7.08351">
        <ele>610.59997558594</ele>
        <time>2023-07-30T06:08:02.000Z</time>
      </trkpt>
      <trkpt lat="43.7394" lon="7.08351">
        <ele>610.59997558594</ele>
        <time>2023-07-30T06:08:03.000Z</time>
      </trkpt>
      <trkpt lat="43.7394" lon="7.08351">
        <ele>610.40002441406</ele>
        <time>2023-07-30T06:08:04.000Z</time>
      </trkpt>
      <trkpt lat="43.7394" lon="7.08351">
        <ele>610.20001220703</ele>
        <time>2023-07-30T06:08:05.000Z</time>
      </trkpt>
      <trkpt lat="43.7394" lon="7.08351">
        <ele>610.20001220703</ele>
        <time>2023-07-30T06:08:06.000Z</time>
      </trkpt>
      <trkpt lat="43.7394" lon="7.08351">
        <ele>610.20001220703</ele>
        <time>2023-07-30T06:08:07.000Z</time>
      </trkpt>
      <trkpt lat="43.7394" lon="7.08351">
        <ele>610.20001220703</ele>
        <time>2023-07-30T06:08:08.000Z</time>
      </trkpt>
      <trkpt lat="43.7394" lon="7.08351">
        <ele>610.20001220703</ele>
        <time>2023-07-30T06:08:09.000Z</time>
      </trkpt>
      <trkpt lat="43.7394" lon="7.08351">
        <ele>610.20001220703</ele>
        <time>2023-07-30T06:08:10.000Z</time>
      </trkpt>
      <trkpt lat="43.7394" lon="7.08351">
        <ele>610.40002441406</ele>
        <time>2023-07-30T06:08:11.000Z</time>
      </trkpt>
      <trkpt lat="43.7394" lon="7.08351">
        <ele>610.40002441406</ele>
        <time>2023-07-30T06:08:12.000Z</time>
      </trkpt>
      <trkpt lat="43.7394" lon="7.08351">
        <ele>610.40002441406</ele>
        <time>2023-07-30T06:08:13.000Z</time>
      </trkpt>
      <trkpt lat="43.7394" lon="7.08351">
        <ele>610.40002441406</ele>
        <time>2023-07-30T06:08:14.000Z</time>
      </trkpt>
      <trkpt lat="43.7394" lon="7.08351">
        <ele>610.40002441406</ele>
        <time>2023-07-30T06:08:15.000Z</time>
      </trkpt>
      <trkpt lat="43.7394" lon="7.08351">
        <ele>610.40002441406</ele>
        <time>2023-07-30T06:08:16.000Z</time>
      </trkpt>
      <trkpt lat="43.7394" lon="7.08351">
        <ele>610.40002441406</ele>
        <time>2023-07-30T06:08:17.000Z</time>
      </trkpt>
      <trkpt lat="43.7394" lon="7.08351">
        <ele>610.40002441406</ele>
        <time>2023-07-30T06:08:18.000Z</time>
      </trkpt>
      <trkpt lat="43.7394" lon="7.08351">
        <ele>610.40002441406</ele>
        <time>2023-07-30T06:08:19.000Z</time>
      </trkpt>
      <trkpt lat="43.7394" lon="7.08351">
        <ele>610.40002441406</ele>
        <time>2023-07-30T06:08:20.000Z</time>
      </trkpt>
      <trkpt lat="43.7394" lon="7.08351">
        <ele>610.40002441406</ele>
        <time>2023-07-30T06:08:21.000Z</time>
      </trkpt>
      <trkpt lat="43.7394" lon="7.08351">
        <ele>610.40002441406</ele>
        <time>2023-07-30T06:08:22.000Z</time>
      </trkpt>
      <trkpt lat="43.7394" lon="7.08351">
        <ele>610.40002441406</ele>
        <time>2023-07-30T06:08:23.000Z</time>
      </trkpt>
      <trkpt lat="43.7394" lon="7.08351">
        <ele>610.40002441406</ele>
        <time>2023-07-30T06:08:24.000Z</time>
      </trkpt>
      <trkpt lat="43.7394" lon="7.08351">
        <ele>610.40002441406</ele>
        <time>2023-07-30T06:08:25.000Z</time>
      </trkpt>
      <trkpt lat="43.7394" lon="7.08351">
        <ele>610.40002441406</ele>
        <time>2023-07-30T06:08:26.000Z</time>
      </trkpt>
      <trkpt lat="43.7394" lon="7.08351">
        <ele>610.40002441406</ele>
        <time>2023-07-30T06:08:27.000Z</time>
      </trkpt>
      <trkpt lat="43.7394" lon="7.08351">
        <ele>610.40002441406</ele>
        <time>2023-07-30T06:08:28.000Z</time>
      </trkpt>
      <trkpt lat="43.7394" lon="7.08351">
        <ele>610.40002441406</ele>
        <time>2023-07-30T06:08:29.000Z</time>
      </trkpt>
      <trkpt lat="43.7394" lon="7.08351">
        <ele>610.40002441406</ele>
        <time>2023-07-30T06:08:30.000Z</time>
      </trkpt>
      <trkpt lat="43.7394" lon="7.08351">
        <ele>610.40002441406</ele>
        <time>2023-07-30T06:08:31.000Z</time>
      </trkpt>
      <trkpt lat="43.7394" lon="7.08351">
        <ele>610.40002441406</ele>
        <time>2023-07-30T06:08:32.000Z</time>
      </trkpt>
      <trkpt lat="43.7394" lon="7.08351">
        <ele>610.40002441406</ele>
        <time>2023-07-30T06:08:33.000Z</time>
      </trkpt>
      <trkpt lat="43.7394" lon="7.08351">
        <ele>610.40002441406</ele>
        <time>2023-07-30T06:08:34.000Z</time>
      </trkpt>
      <trkpt lat="43.7394" lon="7.08351">
        <ele>610.40002441406</ele>
        <time>2023-07-30T06:08:35.000Z</time>
      </trkpt>
      <trkpt lat="43.7394" lon="7.08351">
        <ele>610.40002441406</ele>
        <time>2023-07-30T06:08:36.000Z</time>
      </trkpt>
      <trkpt lat="43.7394" lon="7.08351">
        <ele>610.40002441406</ele>
        <time>2023-07-30T06:08:37.000Z</time>
      </trkpt>
      <trkpt lat="43.7394" lon="7.08351">
        <ele>610.40002441406</ele>
        <time>2023-07-30T06:08:38.000Z</time>
      </trkpt>
      <trkpt lat="43.7394" lon="7.08351">
        <ele>610.40002441406</ele>
        <time>2023-07-30T06:08:39.000Z</time>
      </trkpt>
      <trkpt lat="43.7394" lon="7.08351">
        <ele>610.40002441406</ele>
        <time>2023-07-30T06:08:40.000Z</time>
      </trkpt>
      <trkpt lat="43.7394" lon="7.08351">
        <ele>610.20001220703</ele>
        <time>2023-07-30T06:08:41.000Z</time>
      </trkpt>
      <trkpt lat="43.7394" lon="7.08351">
        <ele>610.20001220703</ele>
        <time>2023-07-30T06:08:42.000Z</time>
      </trkpt>
      <trkpt lat="43.7394" lon="7.08351">
        <ele>610.20001220703</ele>
        <time>2023-07-30T06:08:43.000Z</time>
      </trkpt>
      <trkpt lat="43.7394" lon="7.08351">
        <ele>610.20001220703</ele>
        <time>2023-07-30T06:08:44.000Z</time>
      </trkpt>
      <trkpt lat="43.7394" lon="7.08351">
        <ele>610.20001220703</ele>
        <time>2023-07-30T06:08:45.000Z</time>
      </trkpt>
      <trkpt lat="43.7394" lon="7.08351">
        <ele>610.20001220703</ele>
        <time>2023-07-30T06:08:46.000Z</time>
      </trkpt>
      <trkpt lat="43.7394" lon="7.08351">
        <ele>610.20001220703</ele>
        <time>2023-07-30T06:08:47.000Z</time>
      </trkpt>
      <trkpt lat="43.7394" lon="7.08351">
        <ele>610.20001220703</ele>
        <time>2023-07-30T06:08:48.000Z</time>
      </trkpt>
      <trkpt lat="43.7394" lon="7.08351">
        <ele>610.20001220703</ele>
        <time>2023-07-30T06:08:49.000Z</time>
      </trkpt>
      <trkpt lat="43.7394" lon="7.08351">
        <ele>610.20001220703</ele>
        <time>2023-07-30T06:08:50.000Z</time>
      </trkpt>
      <trkpt lat="43.7394" lon="7.08351">
        <ele>610.20001220703</ele>
        <time>2023-07-30T06:08:51.000Z</time>
      </trkpt>
      <trkpt lat="43.7394" lon="7.08351">
        <ele>610.20001220703</ele>
        <time>2023-07-30T06:08:52.000Z</time>
      </trkpt>
      <trkpt lat="43.7394" lon="7.08351">
        <ele>610.20001220703</ele>
        <time>2023-07-30T06:08:53.000Z</time>
      </trkpt>
      <trkpt lat="43.7394" lon="7.08351">
        <ele>610.20001220703</ele>
        <time>2023-07-30T06:08:54.000Z</time>
      </trkpt>
      <trkpt lat="43.7394" lon="7.08351">
        <ele>610.20001220703</ele>
        <time>2023-07-30T06:08:55.000Z</time>
      </trkpt>
      <trkpt lat="43.7394" lon="7.08351">
        <ele>610.20001220703</ele>
        <time>2023-07-30T06:08:56.000Z</time>
      </trkpt>
      <trkpt lat="43.7394" lon="7.08351">
        <ele>610.20001220703</ele>
        <time>2023-07-30T06:08:57.000Z</time>
      </trkpt>
      <trkpt lat="43.7394" lon="7.08351">
        <ele>610.20001220703</ele>
        <time>2023-07-30T06:08:58.000Z</time>
      </trkpt>
      <trkpt lat="43.7394" lon="7.08352">
        <ele>610.20001220703</ele>
        <time>2023-07-30T06:08:59.000Z</time>
      </trkpt>
      <trkpt lat="43.7394" lon="7.08352">
        <ele>610.20001220703</ele>
        <time>2023-07-30T06:09:00.000Z</time>
      </trkpt>
      <trkpt lat="43.7394" lon="7.08352">
        <ele>610.40002441406</ele>
        <time>2023-07-30T06:09:01.000Z</time>
      </trkpt>
      <trkpt lat="43.7394" lon="7.08351">
        <ele>610.40002441406</ele>
        <time>2023-07-30T06:09:02.000Z</time>
      </trkpt>
      <trkpt lat="43.7394" lon="7.08352">
        <ele>610.40002441406</ele>
        <time>2023-07-30T06:09:03.000Z</time>
      </trkpt>
      <trkpt lat="43.7394" lon="7.08351">
        <ele>610.20001220703</ele>
        <time>2023-07-30T06:09:04.000Z</time>
      </trkpt>
      <trkpt lat="43.73942" lon="7.0835">
        <ele>610.40002441406</ele>
        <time>2023-07-30T06:09:05.000Z</time>
      </trkpt>
      <trkpt lat="43.73944" lon="7.0835">
        <ele>610.20001220703</ele>
        <time>2023-07-30T06:09:06.000Z</time>
      </trkpt>
      <trkpt lat="43.73947" lon="7.0835">
        <ele>610.20001220703</ele>
        <time>2023-07-30T06:09:07.000Z</time>
      </trkpt>
      <trkpt lat="43.73949" lon="7.08349">
        <ele>610.40002441406</ele>
        <time>2023-07-30T06:09:08.000Z</time>
      </trkpt>
      <trkpt lat="43.73951" lon="7.08349">
        <ele>610.40002441406</ele>
        <time>2023-07-30T06:09:09.000Z</time>
      </trkpt>
      <trkpt lat="43.73952" lon="7.08347">
        <ele>610.59997558594</ele>
        <time>2023-07-30T06:09:10.000Z</time>
      </trkpt>
      <trkpt lat="43.73953" lon="7.08345">
        <ele>610.59997558594</ele>
        <time>2023-07-30T06:09:11.000Z</time>
      </trkpt>
      <trkpt lat="43.73954" lon="7.08342">
        <ele>610.59997558594</ele>
        <time>2023-07-30T06:09:12.000Z</time>
      </trkpt>
      <trkpt lat="43.73956" lon="7.08341">
        <ele>610.59997558594</ele>
        <time>2023-07-30T06:09:13.000Z</time>
      </trkpt>
      <trkpt lat="43.73957" lon="7.08339">
        <ele>610.59997558594</ele>
        <time>2023-07-30T06:09:14.000Z</time>
      </trkpt>
      <trkpt lat="43.73959" lon="7.08338">
        <ele>610.59997558594</ele>
        <time>2023-07-30T06:09:15.000Z</time>
      </trkpt>
      <trkpt lat="43.73961" lon="7.08337">
        <ele>610.59997558594</ele>
        <time>2023-07-30T06:09:16.000Z</time>
      </trkpt>
      <trkpt lat="43.73963" lon="7.08337">
        <ele>610.20001220703</ele>
        <time>2023-07-30T06:09:17.000Z</time>
      </trkpt>
      <trkpt lat="43.73965" lon="7.08336">
        <ele>610</ele>
        <time>2023-07-30T06:09:18.000Z</time>
      </trkpt>
      <trkpt lat="43.73967" lon="7.08336">
        <ele>610</ele>
        <time>2023-07-30T06:09:19.000Z</time>
      </trkpt>
      <trkpt lat="43.73969" lon="7.08335">
        <ele>609.59997558594</ele>
        <time>2023-07-30T06:09:20.000Z</time>
      </trkpt>
      <trkpt lat="43.73971" lon="7.08335">
        <ele>609.59997558594</ele>
        <time>2023-07-30T06:09:21.000Z</time>
      </trkpt>
      <trkpt lat="43.73971" lon="7.08335">
        <ele>609.59997558594</ele>
        <time>2023-07-30T06:09:22.000Z</time>
      </trkpt>
      <trkpt lat="43.73971" lon="7.08335">
        <ele>609.59997558594</ele>
        <time>2023-07-30T06:09:23.000Z</time>
      </trkpt>
      <trkpt lat="43.73972" lon="7.08335">
        <ele>609.59997558594</ele>
        <time>2023-07-30T06:09:24.000Z</time>
      </trkpt>
      <trkpt lat="43.73972" lon="7.08335">
        <ele>609.79998779297</ele>
        <time>2023-07-30T06:09:25.000Z</time>
      </trkpt>
      <trkpt lat="43.73972" lon="7.08335">
        <ele>610</ele>
        <time>2023-07-30T06:09:26.000Z</time>
      </trkpt>
      <trkpt lat="43.73972" lon="7.08334">
        <ele>610</ele>
        <time>2023-07-30T06:09:27.000Z</time>
      </trkpt>
      <trkpt lat="43.73972" lon="7.08333">
        <ele>610</ele>
        <time>2023-07-30T06:09:28.000Z</time>
      </trkpt>
      <trkpt lat="43.73972" lon="7.08333">
        <ele>610</ele>
        <time>2023-07-30T06:09:29.000Z</time>
      </trkpt>
      <trkpt lat="43.73972" lon="7.08333">
        <ele>610</ele>
        <time>2023-07-30T06:09:30.000Z</time>
      </trkpt>
      <trkpt lat="43.73972" lon="7.08333">
        <ele>610.20001220703</ele>
        <time>2023-07-30T06:09:31.000Z</time>
      </trkpt>
      <trkpt lat="43.73972" lon="7.08333">
        <ele>610.20001220703</ele>
        <time>2023-07-30T06:09:32.000Z</time>
      </trkpt>
      <trkpt lat="43.73973" lon="7.08331">
        <ele>610.20001220703</ele>
        <time>2023-07-30T06:09:33.000Z</time>
      </trkpt>
      <trkpt lat="43.73974" lon="7.08329">
        <ele>610.20001220703</ele>
        <time>2023-07-30T06:09:34.000Z</time>
      </trkpt>
      <trkpt lat="43.73976" lon="7.08327">
        <ele>610.20001220703</ele>
        <time>2023-07-30T06:09:35.000Z</time>
      </trkpt>
      <trkpt lat="43.73977" lon="7.08324">
        <ele>610.20001220703</ele>
        <time>2023-07-30T06:09:36.000Z</time>
      </trkpt>
      <trkpt lat="43.73979" lon="7.08321">
        <ele>610.20001220703</ele>
        <time>2023-07-30T06:09:37.000Z</time>
      </trkpt>
      <trkpt lat="43.7398" lon="7.08318">
        <ele>610.20001220703</ele>
        <time>2023-07-30T06:09:38.000Z</time>
      </trkpt>
      <trkpt lat="43.73982" lon="7.08315">
        <ele>610.20001220703</ele>
        <time>2023-07-30T06:09:39.000Z</time>
      </trkpt>
      <trkpt lat="43.73983" lon="7.08312">
        <ele>610.40002441406</ele>
        <time>2023-07-30T06:09:40.000Z</time>
      </trkpt>
      <trkpt lat="43.73985" lon="7.0831">
        <ele>610.40002441406</ele>
        <time>2023-07-30T06:09:41.000Z</time>
      </trkpt>
      <trkpt lat="43.73985" lon="7.08307">
        <ele>610.40002441406</ele>
        <time>2023-07-30T06:09:42.000Z</time>
      </trkpt>
      <trkpt lat="43.73986" lon="7.08304">
        <ele>610.40002441406</ele>
        <time>2023-07-30T06:09:43.000Z</time>
      </trkpt>
      <trkpt lat="43.73987" lon="7.08301">
        <ele>610.59997558594</ele>
        <time>2023-07-30T06:09:44.000Z</time>
      </trkpt>
      <trkpt lat="43.73989" lon="7.08299">
        <ele>610.59997558594</ele>
        <time>2023-07-30T06:09:45.000Z</time>
      </trkpt>
      <trkpt lat="43.7399" lon="7.08298">
        <ele>610.59997558594</ele>
        <time>2023-07-30T06:09:46.000Z</time>
      </trkpt>
      <trkpt lat="43.73992" lon="7.08296">
        <ele>610.59997558594</ele>
        <time>2023-07-30T06:09:47.000Z</time>
      </trkpt>
      <trkpt lat="43.73994" lon="7.08294">
        <ele>610.59997558594</ele>
        <time>2023-07-30T06:09:48.000Z</time>
      </trkpt>
      <trkpt lat="43.73996" lon="7.08292">
        <ele>610.59997558594</ele>
        <time>2023-07-30T06:09:49.000Z</time>
      </trkpt>
      <trkpt lat="43.73998" lon="7.0829">
        <ele>610.59997558594</ele>
        <time>2023-07-30T06:09:50.000Z</time>
      </trkpt>
      <trkpt lat="43.73999" lon="7.08288">
        <ele>610.79998779297</ele>
        <time>2023-07-30T06:09:51.000Z</time>
      </trkpt>
      <trkpt lat="43.74002" lon="7.08287">
        <ele>611</ele>
        <time>2023-07-30T06:09:52.000Z</time>
      </trkpt>
      <trkpt lat="43.74004" lon="7.08286">
        <ele>611</ele>
        <time>2023-07-30T06:09:53.000Z</time>
      </trkpt>
      <trkpt lat="43.74007" lon="7.08285">
        <ele>611.20001220703</ele>
        <time>2023-07-30T06:09:54.000Z</time>
      </trkpt>
      <trkpt lat="43.74008" lon="7.08283">
        <ele>611.40002441406</ele>
        <time>2023-07-30T06:09:55.000Z</time>
      </trkpt>
      <trkpt lat="43.7401" lon="7.08281">
        <ele>611.40002441406</ele>
        <time>2023-07-30T06:09:56.000Z</time>
      </trkpt>
      <trkpt lat="43.74012" lon="7.08279">
        <ele>611.40002441406</ele>
        <time>2023-07-30T06:09:57.000Z</time>
      </trkpt>
      <trkpt lat="43.74013" lon="7.08277">
        <ele>612</ele>
        <time>2023-07-30T06:09:58.000Z</time>
      </trkpt>
      <trkpt lat="43.74014" lon="7.08275">
        <ele>612.20001220703</ele>
        <time>2023-07-30T06:09:59.000Z</time>
      </trkpt>
      <trkpt lat="43.74016" lon="7.08273">
        <ele>612.59997558594</ele>
        <time>2023-07-30T06:10:00.000Z</time>
      </trkpt>
      <trkpt lat="43.74018" lon="7.08272">
        <ele>612.59997558594</ele>
        <time>2023-07-30T06:10:01.000Z</time>
      </trkpt>
      <trkpt lat="43.7402" lon="7.0827">
        <ele>613</ele>
        <time>2023-07-30T06:10:02.000Z</time>
      </trkpt>
      <trkpt lat="43.74021" lon="7.08269">
        <ele>613.20001220703</ele>
        <time>2023-07-30T06:10:03.000Z</time>
      </trkpt>
      <trkpt lat="43.74023" lon="7.08267">
        <ele>613.20001220703</ele>
        <time>2023-07-30T06:10:04.000Z</time>
      </trkpt>
      <trkpt lat="43.74025" lon="7.08266">
        <ele>613.59997558594</ele>
        <time>2023-07-30T06:10:05.000Z</time>
      </trkpt>
      <trkpt lat="43.74027" lon="7.08264">
        <ele>614</ele>
        <time>2023-07-30T06:10:06.000Z</time>
      </trkpt>
      <trkpt lat="43.74028" lon="7.08263">
        <ele>614</ele>
        <time>2023-07-30T06:10:07.000Z</time>
      </trkpt>
      <trkpt lat="43.7403" lon="7.08261">
        <ele>614.79998779297</ele>
        <time>2023-07-30T06:10:08.000Z</time>
      </trkpt>
      <trkpt lat="43.74031" lon="7.08258">
        <ele>615</ele>
        <time>2023-07-30T06:10:09.000Z</time>
      </trkpt>
      <trkpt lat="43.74033" lon="7.08256">
        <ele>615.20001220703</ele>
        <time>2023-07-30T06:10:10.000Z</time>
      </trkpt>
      <trkpt lat="43.74035" lon="7.08254">
        <ele>615.40002441406</ele>
        <time>2023-07-30T06:10:11.000Z</time>
      </trkpt>
      <trkpt lat="43.74036" lon="7.08252">
        <ele>615.79998779297</ele>
        <time>2023-07-30T06:10:12.000Z</time>
      </trkpt>
      <trkpt lat="43.74038" lon="7.0825">
        <ele>616</ele>
        <time>2023-07-30T06:10:13.000Z</time>
      </trkpt>
      <trkpt lat="43.7404" lon="7.08248">
        <ele>616.20001220703</ele>
        <time>2023-07-30T06:10:14.000Z</time>
      </trkpt>
      <trkpt lat="43.74041" lon="7.08246">
        <ele>616.20001220703</ele>
        <time>2023-07-30T06:10:15.000Z</time>
      </trkpt>
      <trkpt lat="43.74043" lon="7.08244">
        <ele>616.59997558594</ele>
        <time>2023-07-30T06:10:16.000Z</time>
      </trkpt>
      <trkpt lat="43.74044" lon="7.08242">
        <ele>617</ele>
        <time>2023-07-30T06:10:17.000Z</time>
      </trkpt>
      <trkpt lat="43.74046" lon="7.08241">
        <ele>617</ele>
        <time>2023-07-30T06:10:18.000Z</time>
      </trkpt>
      <trkpt lat="43.74048" lon="7.0824">
        <ele>617</ele>
        <time>2023-07-30T06:10:19.000Z</time>
      </trkpt>
      <trkpt lat="43.7405" lon="7.08239">
        <ele>617.40002441406</ele>
        <time>2023-07-30T06:10:20.000Z</time>
      </trkpt>
      <trkpt lat="43.74052" lon="7.08238">
        <ele>617.59997558594</ele>
        <time>2023-07-30T06:10:21.000Z</time>
      </trkpt>
      <trkpt lat="43.74053" lon="7.08236">
        <ele>618</ele>
        <time>2023-07-30T06:10:22.000Z</time>
      </trkpt>
      <trkpt lat="43.74055" lon="7.08234">
        <ele>618</ele>
        <time>2023-07-30T06:10:23.000Z</time>
      </trkpt>
      <trkpt lat="43.74057" lon="7.08233">
        <ele>618.40002441406</ele>
        <time>2023-07-30T06:10:24.000Z</time>
      </trkpt>
      <trkpt lat="43.74058" lon="7.08231">
        <ele>618.40002441406</ele>
        <time>2023-07-30T06:10:25.000Z</time>
      </trkpt>
      <trkpt lat="43.7406" lon="7.08228">
        <ele>618.59997558594</ele>
        <time>2023-07-30T06:10:26.000Z</time>
      </trkpt>
      <trkpt lat="43.74061" lon="7.08225">
        <ele>619</ele>
        <time>2023-07-30T06:10:27.000Z</time>
      </trkpt>
      <trkpt lat="43.74063" lon="7.08223">
        <ele>619.20001220703</ele>
        <time>2023-07-30T06:10:28.000Z</time>
      </trkpt>
      <trkpt lat="43.74064" lon="7.08222">
        <ele>619.59997558594</ele>
        <time>2023-07-30T06:10:29.000Z</time>
      </trkpt>
      <trkpt lat="43.74066" lon="7.08221">
        <ele>620</ele>
        <time>2023-07-30T06:10:30.000Z</time>
      </trkpt>
      <trkpt lat="43.74069" lon="7.08219">
        <ele>620</ele>
        <time>2023-07-30T06:10:31.000Z</time>
      </trkpt>
      <trkpt lat="43.74071" lon="7.08218">
        <ele>620.20001220703</ele>
        <time>2023-07-30T06:10:32.000Z</time>
      </trkpt>
      <trkpt lat="43.74073" lon="7.08218">
        <ele>620.40002441406</ele>
        <time>2023-07-30T06:10:33.000Z</time>
      </trkpt>
      <trkpt lat="43.74075" lon="7.08217">
        <ele>620.79998779297</ele>
        <time>2023-07-30T06:10:34.000Z</time>
      </trkpt>
      <trkpt lat="43.74077" lon="7.08215">
        <ele>621.20001220703</ele>
        <time>2023-07-30T06:10:35.000Z</time>
      </trkpt>
      <trkpt lat="43.74079" lon="7.08214">
        <ele>621.40002441406</ele>
        <time>2023-07-30T06:10:36.000Z</time>
      </trkpt>
      <trkpt lat="43.74081" lon="7.08212">
        <ele>621.59997558594</ele>
        <time>2023-07-30T06:10:37.000Z</time>
      </trkpt>
      <trkpt lat="43.74082" lon="7.08211">
        <ele>621.59997558594</ele>
        <time>2023-07-30T06:10:38.000Z</time>
      </trkpt>
      <trkpt lat="43.74084" lon="7.08208">
        <ele>622.20001220703</ele>
        <time>2023-07-30T06:10:39.000Z</time>
      </trkpt>
      <trkpt lat="43.74086" lon="7.08206">
        <ele>622.20001220703</ele>
        <time>2023-07-30T06:10:40.000Z</time>
      </trkpt>
      <trkpt lat="43.74088" lon="7.08204">
        <ele>622.20001220703</ele>
        <time>2023-07-30T06:10:41.000Z</time>
      </trkpt>
      <trkpt lat="43.7409" lon="7.08202">
        <ele>622.40002441406</ele>
        <time>2023-07-30T06:10:42.000Z</time>
      </trkpt>
      <trkpt lat="43.74091" lon="7.082">
        <ele>622.59997558594</ele>
        <time>2023-07-30T06:10:43.000Z</time>
      </trkpt>
      <trkpt lat="43.74093" lon="7.08197">
        <ele>622.59997558594</ele>
        <time>2023-07-30T06:10:44.000Z</time>
      </trkpt>
      <trkpt lat="43.74094" lon="7.08195">
        <ele>622.59997558594</ele>
        <time>2023-07-30T06:10:45.000Z</time>
      </trkpt>
      <trkpt lat="43.74096" lon="7.08193">
        <ele>623</ele>
        <time>2023-07-30T06:10:46.000Z</time>
      </trkpt>
      <trkpt lat="43.74097" lon="7.0819">
        <ele>623</ele>
        <time>2023-07-30T06:10:47.000Z</time>
      </trkpt>
      <trkpt lat="43.74099" lon="7.08188">
        <ele>623.20001220703</ele>
        <time>2023-07-30T06:10:48.000Z</time>
      </trkpt>
      <trkpt lat="43.74101" lon="7.08186">
        <ele>623.40002441406</ele>
        <time>2023-07-30T06:10:49.000Z</time>
      </trkpt>
      <trkpt lat="43.74102" lon="7.08184">
        <ele>623.59997558594</ele>
        <time>2023-07-30T06:10:50.000Z</time>
      </trkpt>
      <trkpt lat="43.74104" lon="7.08182">
        <ele>623.59997558594</ele>
        <time>2023-07-30T06:10:51.000Z</time>
      </trkpt>
      <trkpt lat="43.74105" lon="7.08179">
        <ele>623.79998779297</ele>
        <time>2023-07-30T06:10:52.000Z</time>
      </trkpt>
      <trkpt lat="43.74107" lon="7.08177">
        <ele>623.79998779297</ele>
        <time>2023-07-30T06:10:53.000Z</time>
      </trkpt>
      <trkpt lat="43.74108" lon="7.08175">
        <ele>624</ele>
        <time>2023-07-30T06:10:54.000Z</time>
      </trkpt>
      <trkpt lat="43.7411" lon="7.08172">
        <ele>624</ele>
        <time>2023-07-30T06:10:55.000Z</time>
      </trkpt>
      <trkpt lat="43.74112" lon="7.08169">
        <ele>624.20001220703</ele>
        <time>2023-07-30T06:10:56.000Z</time>
      </trkpt>
      <trkpt lat="43.74113" lon="7.08168">
        <ele>624.59997558594</ele>
        <time>2023-07-30T06:10:57.000Z</time>
      </trkpt>
      <trkpt lat="43.74115" lon="7.08166">
        <ele>624.79998779297</ele>
        <time>2023-07-30T06:10:58.000Z</time>
      </trkpt>
      <trkpt lat="43.74116" lon="7.08163">
        <ele>624.79998779297</ele>
        <time>2023-07-30T06:10:59.000Z</time>
      </trkpt>
      <trkpt lat="43.74117" lon="7.0816">
        <ele>625</ele>
        <time>2023-07-30T06:11:00.000Z</time>
      </trkpt>
      <trkpt lat="43.74118" lon="7.08157">
        <ele>625.20001220703</ele>
        <time>2023-07-30T06:11:01.000Z</time>
      </trkpt>
      <trkpt lat="43.7412" lon="7.08155">
        <ele>625.20001220703</ele>
        <time>2023-07-30T06:11:02.000Z</time>
      </trkpt>
      <trkpt lat="43.74121" lon="7.08153">
        <ele>625.40002441406</ele>
        <time>2023-07-30T06:11:03.000Z</time>
      </trkpt>
      <trkpt lat="43.74123" lon="7.08151">
        <ele>625.40002441406</ele>
        <time>2023-07-30T06:11:04.000Z</time>
      </trkpt>
      <trkpt lat="43.74125" lon="7.08149">
        <ele>625.40002441406</ele>
        <time>2023-07-30T06:11:05.000Z</time>
      </trkpt>
      <trkpt lat="43.74126" lon="7.08147">
        <ele>625.59997558594</ele>
        <time>2023-07-30T06:11:06.000Z</time>
      </trkpt>
      <trkpt lat="43.74129" lon="7.08146">
        <ele>625.59997558594</ele>
        <time>2023-07-30T06:11:07.000Z</time>
      </trkpt>
      <trkpt lat="43.74131" lon="7.08145">
        <ele>625.79998779297</ele>
        <time>2023-07-30T06:11:08.000Z</time>
      </trkpt>
      <trkpt lat="43.74133" lon="7.08144">
        <ele>626</ele>
        <time>2023-07-30T06:11:09.000Z</time>
      </trkpt>
      <trkpt lat="43.74135" lon="7.08143">
        <ele>626.20001220703</ele>
        <time>2023-07-30T06:11:10.000Z</time>
      </trkpt>
      <trkpt lat="43.74138" lon="7.08143">
        <ele>626.40002441406</ele>
        <time>2023-07-30T06:11:11.000Z</time>
      </trkpt>
      <trkpt lat="43.7414" lon="7.08143">
        <ele>626.40002441406</ele>
        <time>2023-07-30T06:11:12.000Z</time>
      </trkpt>
      <trkpt lat="43.74142" lon="7.08143">
        <ele>626.59997558594</ele>
        <time>2023-07-30T06:11:13.000Z</time>
      </trkpt>
      <trkpt lat="43.74144" lon="7.08144">
        <ele>626.59997558594</ele>
        <time>2023-07-30T06:11:14.000Z</time>
      </trkpt>
      <trkpt lat="43.74147" lon="7.08144">
        <ele>627</ele>
        <time>2023-07-30T06:11:15.000Z</time>
      </trkpt>
      <trkpt lat="43.74149" lon="7.08144">
        <ele>627.20001220703</ele>
        <time>2023-07-30T06:11:16.000Z</time>
      </trkpt>
      <trkpt lat="43.74151" lon="7.08144">
        <ele>627.40002441406</ele>
        <time>2023-07-30T06:11:17.000Z</time>
      </trkpt>
      <trkpt lat="43.74154" lon="7.08144">
        <ele>627.59997558594</ele>
        <time>2023-07-30T06:11:18.000Z</time>
      </trkpt>
      <trkpt lat="43.74155" lon="7.08141">
        <ele>627.59997558594</ele>
        <time>2023-07-30T06:11:19.000Z</time>
      </trkpt>
      <trkpt lat="43.74156" lon="7.08138">
        <ele>627.79998779297</ele>
        <time>2023-07-30T06:11:20.000Z</time>
      </trkpt>
      <trkpt lat="43.74158" lon="7.08136">
        <ele>627.79998779297</ele>
        <time>2023-07-30T06:11:21.000Z</time>
      </trkpt>
      <trkpt lat="43.7416" lon="7.08134">
        <ele>627.79998779297</ele>
        <time>2023-07-30T06:11:22.000Z</time>
      </trkpt>
      <trkpt lat="43.74163" lon="7.08132">
        <ele>627.79998779297</ele>
        <time>2023-07-30T06:11:23.000Z</time>
      </trkpt>
      <trkpt lat="43.74165" lon="7.08129">
        <ele>627.79998779297</ele>
        <time>2023-07-30T06:11:24.000Z</time>
      </trkpt>
      <trkpt lat="43.74166" lon="7.08126">
        <ele>628</ele>
        <time>2023-07-30T06:11:25.000Z</time>
      </trkpt>
      <trkpt lat="43.74168" lon="7.08124">
        <ele>628.20001220703</ele>
        <time>2023-07-30T06:11:26.000Z</time>
      </trkpt>
      <trkpt lat="43.74169" lon="7.08122">
        <ele>628.40002441406</ele>
        <time>2023-07-30T06:11:27.000Z</time>
      </trkpt>
      <trkpt lat="43.7417" lon="7.0812">
        <ele>628.79998779297</ele>
        <time>2023-07-30T06:11:28.000Z</time>
      </trkpt>
      <trkpt lat="43.74171" lon="7.08118">
        <ele>629.20001220703</ele>
        <time>2023-07-30T06:11:29.000Z</time>
      </trkpt>
      <trkpt lat="43.74173" lon="7.08116">
        <ele>629.79998779297</ele>
        <time>2023-07-30T06:11:30.000Z</time>
      </trkpt>
      <trkpt lat="43.74174" lon="7.08114">
        <ele>630</ele>
        <time>2023-07-30T06:11:31.000Z</time>
      </trkpt>
      <trkpt lat="43.74175" lon="7.08113">
        <ele>630.40002441406</ele>
        <time>2023-07-30T06:11:32.000Z</time>
      </trkpt>
      <trkpt lat="43.74176" lon="7.08112">
        <ele>630.59997558594</ele>
        <time>2023-07-30T06:11:33.000Z</time>
      </trkpt>
      <trkpt lat="43.74177" lon="7.08111">
        <ele>631</ele>
        <time>2023-07-30T06:11:34.000Z</time>
      </trkpt>
      <trkpt lat="43.74178" lon="7.0811">
        <ele>631</ele>
        <time>2023-07-30T06:11:35.000Z</time>
      </trkpt>
      <trkpt lat="43.74178" lon="7.08108">
        <ele>631</ele>
        <time>2023-07-30T06:11:36.000Z</time>
      </trkpt>
      <trkpt lat="43.74179" lon="7.08105">
        <ele>631</ele>
        <time>2023-07-30T06:11:37.000Z</time>
      </trkpt>
      <trkpt lat="43.74179" lon="7.08101">
        <ele>631</ele>
        <time>2023-07-30T06:11:38.000Z</time>
      </trkpt>
      <trkpt lat="43.74181" lon="7.08099">
        <ele>630.59997558594</ele>
        <time>2023-07-30T06:11:39.000Z</time>
      </trkpt>
      <trkpt lat="43.74183" lon="7.08097">
        <ele>630</ele>
        <time>2023-07-30T06:11:40.000Z</time>
      </trkpt>
      <trkpt lat="43.74186" lon="7.08096">
        <ele>629.59997558594</ele>
        <time>2023-07-30T06:11:41.000Z</time>
      </trkpt>
      <trkpt lat="43.74188" lon="7.08094">
        <ele>629.40002441406</ele>
        <time>2023-07-30T06:11:42.000Z</time>
      </trkpt>
      <trkpt lat="43.7419" lon="7.08093">
        <ele>629.40002441406</ele>
        <time>2023-07-30T06:11:43.000Z</time>
      </trkpt>
      <trkpt lat="43.74191" lon="7.08092">
        <ele>629.40002441406</ele>
        <time>2023-07-30T06:11:44.000Z</time>
      </trkpt>
      <trkpt lat="43.74191" lon="7.08092">
        <ele>629.59997558594</ele>
        <time>2023-07-30T06:11:45.000Z</time>
      </trkpt>
      <trkpt lat="43.74191" lon="7.08092">
        <ele>629.59997558594</ele>
        <time>2023-07-30T06:11:46.000Z</time>
      </trkpt>
      <trkpt lat="43.74191" lon="7.08092">
        <ele>629.79998779297</ele>
        <time>2023-07-30T06:11:47.000Z</time>
      </trkpt>
      <trkpt lat="43.74191" lon="7.08092">
        <ele>630</ele>
        <time>2023-07-30T06:11:48.000Z</time>
      </trkpt>
      <trkpt lat="43.74191" lon="7.08092">
        <ele>630</ele>
        <time>2023-07-30T06:11:49.000Z</time>
      </trkpt>
      <trkpt lat="43.74191" lon="7.08093">
        <ele>630</ele>
        <time>2023-07-30T06:11:50.000Z</time>
      </trkpt>
      <trkpt lat="43.74191" lon="7.08093">
        <ele>630.20001220703</ele>
        <time>2023-07-30T06:11:51.000Z</time>
      </trkpt>
      <trkpt lat="43.74191" lon="7.08093">
        <ele>630.20001220703</ele>
        <time>2023-07-30T06:11:52.000Z</time>
      </trkpt>
      <trkpt lat="43.74191" lon="7.08093">
        <ele>630.20001220703</ele>
        <time>2023-07-30T06:11:53.000Z</time>
      </trkpt>
      <trkpt lat="43.74191" lon="7.08093">
        <ele>630.20001220703</ele>
        <time>2023-07-30T06:11:54.000Z</time>
      </trkpt>
      <trkpt lat="43.74191" lon="7.08093">
        <ele>630.20001220703</ele>
        <time>2023-07-30T06:11:55.000Z</time>
      </trkpt>
      <trkpt lat="43.74191" lon="7.08092">
        <ele>630.20001220703</ele>
        <time>2023-07-30T06:11:56.000Z</time>
      </trkpt>
      <trkpt lat="43.74191" lon="7.08092">
        <ele>630.20001220703</ele>
        <time>2023-07-30T06:11:57.000Z</time>
      </trkpt>
      <trkpt lat="43.7419" lon="7.08092">
        <ele>630.20001220703</ele>
        <time>2023-07-30T06:11:58.000Z</time>
      </trkpt>
      <trkpt lat="43.7419" lon="7.08092">
        <ele>630.20001220703</ele>
        <time>2023-07-30T06:11:59.000Z</time>
      </trkpt>
      <trkpt lat="43.7419" lon="7.08092">
        <ele>630.20001220703</ele>
        <time>2023-07-30T06:12:00.000Z</time>
      </trkpt>
      <trkpt lat="43.74191" lon="7.08092">
        <ele>630.20001220703</ele>
        <time>2023-07-30T06:12:01.000Z</time>
      </trkpt>
      <trkpt lat="43.74191" lon="7.08092">
        <ele>630</ele>
        <time>2023-07-30T06:12:02.000Z</time>
      </trkpt>
      <trkpt lat="43.74191" lon="7.08092">
        <ele>630</ele>
        <time>2023-07-30T06:12:03.000Z</time>
      </trkpt>
      <trkpt lat="43.74191" lon="7.08092">
        <ele>630</ele>
        <time>2023-07-30T06:12:04.000Z</time>
      </trkpt>
      <trkpt lat="43.74191" lon="7.08092">
        <ele>630</ele>
        <time>2023-07-30T06:12:05.000Z</time>
      </trkpt>
      <trkpt lat="43.74191" lon="7.08092">
        <ele>630</ele>
        <time>2023-07-30T06:12:06.000Z</time>
      </trkpt>
      <trkpt lat="43.74191" lon="7.08092">
        <ele>630</ele>
        <time>2023-07-30T06:12:07.000Z</time>
      </trkpt>
      <trkpt lat="43.74191" lon="7.08092">
        <ele>630</ele>
        <time>2023-07-30T06:12:08.000Z</time>
      </trkpt>
      <trkpt lat="43.74191" lon="7.08092">
        <ele>630</ele>
        <time>2023-07-30T06:12:09.000Z</time>
      </trkpt>
      <trkpt lat="43.74191" lon="7.08092">
        <ele>630</ele>
        <time>2023-07-30T06:12:10.000Z</time>
      </trkpt>
      <trkpt lat="43.74191" lon="7.08092">
        <ele>630</ele>
        <time>2023-07-30T06:12:11.000Z</time>
      </trkpt>
      <trkpt lat="43.74191" lon="7.08092">
        <ele>630</ele>
        <time>2023-07-30T06:12:12.000Z</time>
      </trkpt>
      <trkpt lat="43.74191" lon="7.08092">
        <ele>630</ele>
        <time>2023-07-30T06:12:13.000Z</time>
      </trkpt>
      <trkpt lat="43.74191" lon="7.08092">
        <ele>630</ele>
        <time>2023-07-30T06:12:14.000Z</time>
      </trkpt>
      <trkpt lat="43.74191" lon="7.08092">
        <ele>630</ele>
        <time>2023-07-30T06:12:15.000Z</time>
      </trkpt>
      <trkpt lat="43.74191" lon="7.08092">
        <ele>630</ele>
        <time>2023-07-30T06:12:16.000Z</time>
      </trkpt>
      <trkpt lat="43.74191" lon="7.08092">
        <ele>630</ele>
        <time>2023-07-30T06:12:17.000Z</time>
      </trkpt>
      <trkpt lat="43.74191" lon="7.08092">
        <ele>630</ele>
        <time>2023-07-30T06:12:18.000Z</time>
      </trkpt>
      <trkpt lat="43.74191" lon="7.08092">
        <ele>630</ele>
        <time>2023-07-30T06:12:19.000Z</time>
      </trkpt>
      <trkpt lat="43.74191" lon="7.08092">
        <ele>630</ele>
        <time>2023-07-30T06:12:20.000Z</time>
      </trkpt>
      <trkpt lat="43.74191" lon="7.08092">
        <ele>630</ele>
        <time>2023-07-30T06:12:21.000Z</time>
      </trkpt>
      <trkpt lat="43.74191" lon="7.08092">
        <ele>630</ele>
        <time>2023-07-30T06:12:22.000Z</time>
      </trkpt>
      <trkpt lat="43.74191" lon="7.08092">
        <ele>630.20001220703</ele>
        <time>2023-07-30T06:12:23.000Z</time>
      </trkpt>
      <trkpt lat="43.74191" lon="7.08092">
        <ele>630.20001220703</ele>
        <time>2023-07-30T06:12:24.000Z</time>
      </trkpt>
      <trkpt lat="43.74191" lon="7.08092">
        <ele>630.20001220703</ele>
        <time>2023-07-30T06:12:25.000Z</time>
      </trkpt>
      <trkpt lat="43.74191" lon="7.08092">
        <ele>630.20001220703</ele>
        <time>2023-07-30T06:12:26.000Z</time>
      </trkpt>
      <trkpt lat="43.74191" lon="7.08092">
        <ele>630.20001220703</ele>
        <time>2023-07-30T06:12:27.000Z</time>
      </trkpt>
      <trkpt lat="43.74191" lon="7.08092">
        <ele>630</ele>
        <time>2023-07-30T06:12:28.000Z</time>
      </trkpt>
      <trkpt lat="43.74191" lon="7.08092">
        <ele>630.20001220703</ele>
        <time>2023-07-30T06:12:29.000Z</time>
      </trkpt>
      <trkpt lat="43.74191" lon="7.08092">
        <ele>630.20001220703</ele>
        <time>2023-07-30T06:12:30.000Z</time>
      </trkpt>
      <trkpt lat="43.74191" lon="7.08092">
        <ele>630.20001220703</ele>
        <time>2023-07-30T06:12:31.000Z</time>
      </trkpt>
      <trkpt lat="43.74191" lon="7.08092">
        <ele>630.20001220703</ele>
        <time>2023-07-30T06:12:32.000Z</time>
      </trkpt>
      <trkpt lat="43.74191" lon="7.08092">
        <ele>630.20001220703</ele>
        <time>2023-07-30T06:12:33.000Z</time>
      </trkpt>
      <trkpt lat="43.74191" lon="7.08092">
        <ele>630.20001220703</ele>
        <time>2023-07-30T06:12:34.000Z</time>
      </trkpt>
      <trkpt lat="43.74191" lon="7.08092">
        <ele>630.20001220703</ele>
        <time>2023-07-30T06:12:35.000Z</time>
      </trkpt>
      <trkpt lat="43.74191" lon="7.08092">
        <ele>630.20001220703</ele>
        <time>2023-07-30T06:12:36.000Z</time>
      </trkpt>
      <trkpt lat="43.74191" lon="7.08092">
        <ele>630.20001220703</ele>
        <time>2023-07-30T06:12:37.000Z</time>
      </trkpt>
      <trkpt lat="43.74191" lon="7.08092">
        <ele>630.20001220703</ele>
        <time>2023-07-30T06:12:38.000Z</time>
      </trkpt>
      <trkpt lat="43.74191" lon="7.08092">
        <ele>630.20001220703</ele>
        <time>2023-07-30T06:12:39.000Z</time>
      </trkpt>
      <trkpt lat="43.74191" lon="7.08092">
        <ele>630.20001220703</ele>
        <time>2023-07-30T06:12:40.000Z</time>
      </trkpt>
      <trkpt lat="43.74191" lon="7.08092">
        <ele>630.20001220703</ele>
        <time>2023-07-30T06:12:41.000Z</time>
      </trkpt>
      <trkpt lat="43.74191" lon="7.08092">
        <ele>630.20001220703</ele>
        <time>2023-07-30T06:12:42.000Z</time>
      </trkpt>
      <trkpt lat="43.74191" lon="7.08092">
        <ele>630.20001220703</ele>
        <time>2023-07-30T06:12:43.000Z</time>
      </trkpt>
      <trkpt lat="43.74191" lon="7.08092">
        <ele>630</ele>
        <time>2023-07-30T06:12:44.000Z</time>
      </trkpt>
      <trkpt lat="43.74191" lon="7.08092">
        <ele>630</ele>
        <time>2023-07-30T06:12:45.000Z</time>
      </trkpt>
      <trkpt lat="43.74191" lon="7.08092">
        <ele>630.20001220703</ele>
        <time>2023-07-30T06:12:46.000Z</time>
      </trkpt>
      <trkpt lat="43.74191" lon="7.08092">
        <ele>630.20001220703</ele>
        <time>2023-07-30T06:12:47.000Z</time>
      </trkpt>
      <trkpt lat="43.74191" lon="7.08092">
        <ele>630.20001220703</ele>
        <time>2023-07-30T06:12:48.000Z</time>
      </trkpt>
      <trkpt lat="43.74191" lon="7.08092">
        <ele>630.20001220703</ele>
        <time>2023-07-30T06:12:49.000Z</time>
      </trkpt>
      <trkpt lat="43.74191" lon="7.08092">
        <ele>630.20001220703</ele>
        <time>2023-07-30T06:12:50.000Z</time>
      </trkpt>
      <trkpt lat="43.74191" lon="7.08092">
        <ele>630.20001220703</ele>
        <time>2023-07-30T06:12:51.000Z</time>
      </trkpt>
      <trkpt lat="43.74191" lon="7.08092">
        <ele>630.20001220703</ele>
        <time>2023-07-30T06:12:52.000Z</time>
      </trkpt>
      <trkpt lat="43.74191" lon="7.08092">
        <ele>630.20001220703</ele>
        <time>2023-07-30T06:12:53.000Z</time>
      </trkpt>
      <trkpt lat="43.74191" lon="7.08092">
        <ele>630.20001220703</ele>
        <time>2023-07-30T06:12:54.000Z</time>
      </trkpt>
      <trkpt lat="43.74191" lon="7.08092">
        <ele>630.20001220703</ele>
        <time>2023-07-30T06:12:55.000Z</time>
      </trkpt>
      <trkpt lat="43.7419" lon="7.08093">
        <ele>630.20001220703</ele>
        <time>2023-07-30T06:12:56.000Z</time>
      </trkpt>
      <trkpt lat="43.7419" lon="7.08093">
        <ele>630.20001220703</ele>
        <time>2023-07-30T06:12:57.000Z</time>
      </trkpt>
      <trkpt lat="43.7419" lon="7.08093">
        <ele>630.20001220703</ele>
        <time>2023-07-30T06:12:58.000Z</time>
      </trkpt>
      <trkpt lat="43.7419" lon="7.08093">
        <ele>630.20001220703</ele>
        <time>2023-07-30T06:12:59.000Z</time>
      </trkpt>
      <trkpt lat="43.7419" lon="7.08093">
        <ele>630.20001220703</ele>
        <time>2023-07-30T06:13:00.000Z</time>
      </trkpt>
      <trkpt lat="43.7419" lon="7.08093">
        <ele>630.20001220703</ele>
        <time>2023-07-30T06:13:01.000Z</time>
      </trkpt>
      <trkpt lat="43.7419" lon="7.08093">
        <ele>630.20001220703</ele>
        <time>2023-07-30T06:13:02.000Z</time>
      </trkpt>
      <trkpt lat="43.7419" lon="7.08093">
        <ele>630.20001220703</ele>
        <time>2023-07-30T06:13:03.000Z</time>
      </trkpt>
      <trkpt lat="43.7419" lon="7.08093">
        <ele>630.20001220703</ele>
        <time>2023-07-30T06:13:04.000Z</time>
      </trkpt>
      <trkpt lat="43.7419" lon="7.08093">
        <ele>630.20001220703</ele>
        <time>2023-07-30T06:13:05.000Z</time>
      </trkpt>
      <trkpt lat="43.7419" lon="7.08093">
        <ele>630.20001220703</ele>
        <time>2023-07-30T06:13:06.000Z</time>
      </trkpt>
      <trkpt lat="43.7419" lon="7.08093">
        <ele>630.20001220703</ele>
        <time>2023-07-30T06:13:07.000Z</time>
      </trkpt>
      <trkpt lat="43.7419" lon="7.08093">
        <ele>630.20001220703</ele>
        <time>2023-07-30T06:13:08.000Z</time>
      </trkpt>
      <trkpt lat="43.7419" lon="7.08093">
        <ele>630.20001220703</ele>
        <time>2023-07-30T06:13:09.000Z</time>
      </trkpt>
      <trkpt lat="43.7419" lon="7.08093">
        <ele>630.20001220703</ele>
        <time>2023-07-30T06:13:10.000Z</time>
      </trkpt>
      <trkpt lat="43.7419" lon="7.08093">
        <ele>630.20001220703</ele>
        <time>2023-07-30T06:13:11.000Z</time>
      </trkpt>
      <trkpt lat="43.7419" lon="7.08093">
        <ele>630.20001220703</ele>
        <time>2023-07-30T06:13:12.000Z</time>
      </trkpt>
      <trkpt lat="43.7419" lon="7.08093">
        <ele>630.20001220703</ele>
        <time>2023-07-30T06:13:13.000Z</time>
      </trkpt>
      <trkpt lat="43.7419" lon="7.08093">
        <ele>630.20001220703</ele>
        <time>2023-07-30T06:13:14.000Z</time>
      </trkpt>
      <trkpt lat="43.7419" lon="7.08093">
        <ele>630.20001220703</ele>
        <time>2023-07-30T06:13:15.000Z</time>
      </trkpt>
      <trkpt lat="43.7419" lon="7.08093">
        <ele>630.20001220703</ele>
        <time>2023-07-30T06:13:16.000Z</time>
      </trkpt>
      <trkpt lat="43.74191" lon="7.08093">
        <ele>630.20001220703</ele>
        <time>2023-07-30T06:13:17.000Z</time>
      </trkpt>
      <trkpt lat="43.74191" lon="7.08093">
        <ele>630.20001220703</ele>
        <time>2023-07-30T06:13:18.000Z</time>
      </trkpt>
      <trkpt lat="43.74191" lon="7.08093">
        <ele>630.20001220703</ele>
        <time>2023-07-30T06:13:19.000Z</time>
      </trkpt>
      <trkpt lat="43.7419" lon="7.08093">
        <ele>630.20001220703</ele>
        <time>2023-07-30T06:13:20.000Z</time>
      </trkpt>
      <trkpt lat="43.74191" lon="7.08093">
        <ele>630.20001220703</ele>
        <time>2023-07-30T06:13:21.000Z</time>
      </trkpt>
      <trkpt lat="43.74191" lon="7.08093">
        <ele>630.20001220703</ele>
        <time>2023-07-30T06:13:22.000Z</time>
      </trkpt>
      <trkpt lat="43.74191" lon="7.08093">
        <ele>630.20001220703</ele>
        <time>2023-07-30T06:13:23.000Z</time>
      </trkpt>
      <trkpt lat="43.74191" lon="7.08093">
        <ele>630.20001220703</ele>
        <time>2023-07-30T06:13:24.000Z</time>
      </trkpt>
      <trkpt lat="43.74191" lon="7.08093">
        <ele>630.20001220703</ele>
        <time>2023-07-30T06:13:25.000Z</time>
      </trkpt>
      <trkpt lat="43.74191" lon="7.08093">
        <ele>630.20001220703</ele>
        <time>2023-07-30T06:13:26.000Z</time>
      </trkpt>
      <trkpt lat="43.74191" lon="7.08093">
        <ele>630.20001220703</ele>
        <time>2023-07-30T06:13:27.000Z</time>
      </trkpt>
      <trkpt lat="43.74191" lon="7.08093">
        <ele>630.20001220703</ele>
        <time>2023-07-30T06:13:28.000Z</time>
      </trkpt>
      <trkpt lat="43.7419" lon="7.08093">
        <ele>630.20001220703</ele>
        <time>2023-07-30T06:13:29.000Z</time>
      </trkpt>
      <trkpt lat="43.7419" lon="7.08093">
        <ele>630.20001220703</ele>
        <time>2023-07-30T06:13:30.000Z</time>
      </trkpt>
      <trkpt lat="43.7419" lon="7.08093">
        <ele>630.20001220703</ele>
        <time>2023-07-30T06:13:31.000Z</time>
      </trkpt>
      <trkpt lat="43.7419" lon="7.08093">
        <ele>630.20001220703</ele>
        <time>2023-07-30T06:13:32.000Z</time>
      </trkpt>
      <trkpt lat="43.7419" lon="7.08093">
        <ele>630.20001220703</ele>
        <time>2023-07-30T06:13:33.000Z</time>
      </trkpt>
      <trkpt lat="43.74191" lon="7.08093">
        <ele>630.20001220703</ele>
        <time>2023-07-30T06:13:34.000Z</time>
      </trkpt>
      <trkpt lat="43.74191" lon="7.08092">
        <ele>630.20001220703</ele>
        <time>2023-07-30T06:13:35.000Z</time>
      </trkpt>
      <trkpt lat="43.74191" lon="7.08092">
        <ele>630.20001220703</ele>
        <time>2023-07-30T06:13:36.000Z</time>
      </trkpt>
      <trkpt lat="43.74191" lon="7.08092">
        <ele>630.20001220703</ele>
        <time>2023-07-30T06:13:37.000Z</time>
      </trkpt>
      <trkpt lat="43.74191" lon="7.08092">
        <ele>630.20001220703</ele>
        <time>2023-07-30T06:13:38.000Z</time>
      </trkpt>
      <trkpt lat="43.74191" lon="7.08092">
        <ele>630.20001220703</ele>
        <time>2023-07-30T06:13:39.000Z</time>
      </trkpt>
      <trkpt lat="43.74191" lon="7.08092">
        <ele>630.20001220703</ele>
        <time>2023-07-30T06:13:40.000Z</time>
      </trkpt>
      <trkpt lat="43.74191" lon="7.08092">
        <ele>630.20001220703</ele>
        <time>2023-07-30T06:13:41.000Z</time>
      </trkpt>
      <trkpt lat="43.74191" lon="7.08092">
        <ele>630.20001220703</ele>
        <time>2023-07-30T06:13:42.000Z</time>
      </trkpt>
      <trkpt lat="43.74191" lon="7.08092">
        <ele>630.20001220703</ele>
        <time>2023-07-30T06:13:43.000Z</time>
      </trkpt>
      <trkpt lat="43.74191" lon="7.08092">
        <ele>630.20001220703</ele>
        <time>2023-07-30T06:13:44.000Z</time>
      </trkpt>
      <trkpt lat="43.74191" lon="7.08092">
        <ele>630.20001220703</ele>
        <time>2023-07-30T06:13:45.000Z</time>
      </trkpt>
      <trkpt lat="43.74191" lon="7.08092">
        <ele>630.20001220703</ele>
        <time>2023-07-30T06:13:46.000Z</time>
      </trkpt>
      <trkpt lat="43.74191" lon="7.08092">
        <ele>630.20001220703</ele>
        <time>2023-07-30T06:13:47.000Z</time>
      </trkpt>
      <trkpt lat="43.74191" lon="7.08092">
        <ele>630.20001220703</ele>
        <time>2023-07-30T06:13:48.000Z</time>
      </trkpt>
      <trkpt lat="43.74191" lon="7.08092">
        <ele>630.20001220703</ele>
        <time>2023-07-30T06:13:49.000Z</time>
      </trkpt>
      <trkpt lat="43.74191" lon="7.08092">
        <ele>630.20001220703</ele>
        <time>2023-07-30T06:13:50.000Z</time>
      </trkpt>
      <trkpt lat="43.74191" lon="7.08092">
        <ele>630.20001220703</ele>
        <time>2023-07-30T06:13:51.000Z</time>
      </trkpt>
      <trkpt lat="43.74191" lon="7.08091">
        <ele>630.20001220703</ele>
        <time>2023-07-30T06:13:52.000Z</time>
      </trkpt>
      <trkpt lat="43.74191" lon="7.08091">
        <ele>630.20001220703</ele>
        <time>2023-07-30T06:13:53.000Z</time>
      </trkpt>
      <trkpt lat="43.74191" lon="7.08091">
        <ele>630.20001220703</ele>
        <time>2023-07-30T06:13:54.000Z</time>
      </trkpt>
      <trkpt lat="43.74191" lon="7.08091">
        <ele>630.20001220703</ele>
        <time>2023-07-30T06:13:55.000Z</time>
      </trkpt>
      <trkpt lat="43.74191" lon="7.08091">
        <ele>630.20001220703</ele>
        <time>2023-07-30T06:13:56.000Z</time>
      </trkpt>
      <trkpt lat="43.74191" lon="7.08091">
        <ele>630.20001220703</ele>
        <time>2023-07-30T06:13:57.000Z</time>
      </trkpt>
      <trkpt lat="43.74191" lon="7.08091">
        <ele>630.20001220703</ele>
        <time>2023-07-30T06:13:58.000Z</time>
      </trkpt>
      <trkpt lat="43.74191" lon="7.08091">
        <ele>630.20001220703</ele>
        <time>2023-07-30T06:13:59.000Z</time>
      </trkpt>
      <trkpt lat="43.74191" lon="7.08091">
        <ele>630.20001220703</ele>
        <time>2023-07-30T06:14:00.000Z</time>
      </trkpt>
      <trkpt lat="43.74191" lon="7.08091">
        <ele>630.20001220703</ele>
        <time>2023-07-30T06:14:01.000Z</time>
      </trkpt>
      <trkpt lat="43.74191" lon="7.08091">
        <ele>630.20001220703</ele>
        <time>2023-07-30T06:14:02.000Z</time>
      </trkpt>
      <trkpt lat="43.74191" lon="7.08091">
        <ele>630.20001220703</ele>
        <time>2023-07-30T06:14:03.000Z</time>
      </trkpt>
      <trkpt lat="43.74191" lon="7.08091">
        <ele>630.20001220703</ele>
        <time>2023-07-30T06:14:04.000Z</time>
      </trkpt>
      <trkpt lat="43.74191" lon="7.08091">
        <ele>630.20001220703</ele>
        <time>2023-07-30T06:14:05.000Z</time>
      </trkpt>
      <trkpt lat="43.74191" lon="7.08091">
        <ele>630.20001220703</ele>
        <time>2023-07-30T06:14:06.000Z</time>
      </trkpt>
      <trkpt lat="43.74191" lon="7.08091">
        <ele>630.20001220703</ele>
        <time>2023-07-30T06:14:07.000Z</time>
      </trkpt>
      <trkpt lat="43.74191" lon="7.08091">
        <ele>630.20001220703</ele>
        <time>2023-07-30T06:14:08.000Z</time>
      </trkpt>
      <trkpt lat="43.74191" lon="7.08091">
        <ele>630.20001220703</ele>
        <time>2023-07-30T06:14:09.000Z</time>
      </trkpt>
      <trkpt lat="43.74191" lon="7.08091">
        <ele>630.20001220703</ele>
        <time>2023-07-30T06:14:10.000Z</time>
      </trkpt>
      <trkpt lat="43.74191" lon="7.08091">
        <ele>630.20001220703</ele>
        <time>2023-07-30T06:14:11.000Z</time>
      </trkpt>
      <trkpt lat="43.74191" lon="7.08091">
        <ele>630.40002441406</ele>
        <time>2023-07-30T06:14:12.000Z</time>
      </trkpt>
      <trkpt lat="43.74191" lon="7.08091">
        <ele>630.40002441406</ele>
        <time>2023-07-30T06:14:13.000Z</time>
      </trkpt>
      <trkpt lat="43.74191" lon="7.08091">
        <ele>630.40002441406</ele>
        <time>2023-07-30T06:14:14.000Z</time>
      </trkpt>
      <trkpt lat="43.74191" lon="7.08091">
        <ele>630.20001220703</ele>
        <time>2023-07-30T06:14:15.000Z</time>
      </trkpt>
      <trkpt lat="43.74191" lon="7.08091">
        <ele>630.20001220703</ele>
        <time>2023-07-30T06:14:16.000Z</time>
      </trkpt>
      <trkpt lat="43.74191" lon="7.08091">
        <ele>630.20001220703</ele>
        <time>2023-07-30T06:14:17.000Z</time>
      </trkpt>
      <trkpt lat="43.74191" lon="7.08091">
        <ele>630.20001220703</ele>
        <time>2023-07-30T06:14:18.000Z</time>
      </trkpt>
      <trkpt lat="43.74191" lon="7.08091">
        <ele>630.20001220703</ele>
        <time>2023-07-30T06:14:19.000Z</time>
      </trkpt>
      <trkpt lat="43.74191" lon="7.08091">
        <ele>630.20001220703</ele>
        <time>2023-07-30T06:14:20.000Z</time>
      </trkpt>
      <trkpt lat="43.74191" lon="7.08091">
        <ele>630.20001220703</ele>
        <time>2023-07-30T06:14:21.000Z</time>
      </trkpt>
      <trkpt lat="43.74191" lon="7.08091">
        <ele>630.20001220703</ele>
        <time>2023-07-30T06:14:22.000Z</time>
      </trkpt>
      <trkpt lat="43.74191" lon="7.08091">
        <ele>630.20001220703</ele>
        <time>2023-07-30T06:14:23.000Z</time>
      </trkpt>
      <trkpt lat="43.74191" lon="7.08091">
        <ele>630.20001220703</ele>
        <time>2023-07-30T06:14:24.000Z</time>
      </trkpt>
      <trkpt lat="43.74191" lon="7.08091">
        <ele>630.20001220703</ele>
        <time>2023-07-30T06:14:25.000Z</time>
      </trkpt>
      <trkpt lat="43.74191" lon="7.08091">
        <ele>630.20001220703</ele>
        <time>2023-07-30T06:14:26.000Z</time>
      </trkpt>
      <trkpt lat="43.74191" lon="7.08091">
        <ele>630.20001220703</ele>
        <time>2023-07-30T06:14:27.000Z</time>
      </trkpt>
      <trkpt lat="43.74191" lon="7.08091">
        <ele>630.20001220703</ele>
        <time>2023-07-30T06:14:28.000Z</time>
      </trkpt>
      <trkpt lat="43.74191" lon="7.08091">
        <ele>630.20001220703</ele>
        <time>2023-07-30T06:14:29.000Z</time>
      </trkpt>
      <trkpt lat="43.74191" lon="7.08091">
        <ele>630.20001220703</ele>
        <time>2023-07-30T06:14:30.000Z</time>
      </trkpt>
      <trkpt lat="43.74191" lon="7.08091">
        <ele>630.20001220703</ele>
        <time>2023-07-30T06:14:31.000Z</time>
      </trkpt>
      <trkpt lat="43.74191" lon="7.08091">
        <ele>630.20001220703</ele>
        <time>2023-07-30T06:14:32.000Z</time>
      </trkpt>
      <trkpt lat="43.74191" lon="7.08091">
        <ele>630.40002441406</ele>
        <time>2023-07-30T06:14:33.000Z</time>
      </trkpt>
      <trkpt lat="43.74191" lon="7.08091">
        <ele>630.40002441406</ele>
        <time>2023-07-30T06:14:34.000Z</time>
      </trkpt>
      <trkpt lat="43.74191" lon="7.08091">
        <ele>630.40002441406</ele>
        <time>2023-07-30T06:14:35.000Z</time>
      </trkpt>
      <trkpt lat="43.74191" lon="7.08091">
        <ele>630.40002441406</ele>
        <time>2023-07-30T06:14:36.000Z</time>
      </trkpt>
      <trkpt lat="43.74191" lon="7.08091">
        <ele>630.40002441406</ele>
        <time>2023-07-30T06:14:37.000Z</time>
      </trkpt>
      <trkpt lat="43.74191" lon="7.08091">
        <ele>630.40002441406</ele>
        <time>2023-07-30T06:14:38.000Z</time>
      </trkpt>
      <trkpt lat="43.74191" lon="7.08091">
        <ele>630.40002441406</ele>
        <time>2023-07-30T06:14:39.000Z</time>
      </trkpt>
      <trkpt lat="43.74191" lon="7.08091">
        <ele>630.40002441406</ele>
        <time>2023-07-30T06:14:40.000Z</time>
      </trkpt>
      <trkpt lat="43.74191" lon="7.08091">
        <ele>630.40002441406</ele>
        <time>2023-07-30T06:14:41.000Z</time>
      </trkpt>
      <trkpt lat="43.74191" lon="7.08091">
        <ele>630.40002441406</ele>
        <time>2023-07-30T06:14:42.000Z</time>
      </trkpt>
      <trkpt lat="43.74191" lon="7.08091">
        <ele>630.40002441406</ele>
        <time>2023-07-30T06:14:43.000Z</time>
      </trkpt>
      <trkpt lat="43.74191" lon="7.08091">
        <ele>630.40002441406</ele>
        <time>2023-07-30T06:14:44.000Z</time>
      </trkpt>
      <trkpt lat="43.74191" lon="7.08091">
        <ele>630.40002441406</ele>
        <time>2023-07-30T06:14:45.000Z</time>
      </trkpt>
      <trkpt lat="43.74191" lon="7.08091">
        <ele>630.40002441406</ele>
        <time>2023-07-30T06:14:46.000Z</time>
      </trkpt>
      <trkpt lat="43.74191" lon="7.08091">
        <ele>630.40002441406</ele>
        <time>2023-07-30T06:14:47.000Z</time>
      </trkpt>
      <trkpt lat="43.74191" lon="7.08091">
        <ele>630.59997558594</ele>
        <time>2023-07-30T06:14:48.000Z</time>
      </trkpt>
      <trkpt lat="43.74191" lon="7.08091">
        <ele>630.59997558594</ele>
        <time>2023-07-30T06:14:49.000Z</time>
      </trkpt>
      <trkpt lat="43.74191" lon="7.08091">
        <ele>630.59997558594</ele>
        <time>2023-07-30T06:14:50.000Z</time>
      </trkpt>
      <trkpt lat="43.74191" lon="7.08091">
        <ele>630.59997558594</ele>
        <time>2023-07-30T06:14:51.000Z</time>
      </trkpt>
      <trkpt lat="43.74191" lon="7.08091">
        <ele>630.59997558594</ele>
        <time>2023-07-30T06:14:52.000Z</time>
      </trkpt>
      <trkpt lat="43.74191" lon="7.08091">
        <ele>630.59997558594</ele>
        <time>2023-07-30T06:14:53.000Z</time>
      </trkpt>
      <trkpt lat="43.74191" lon="7.08091">
        <ele>630.59997558594</ele>
        <time>2023-07-30T06:14:54.000Z</time>
      </trkpt>
      <trkpt lat="43.74191" lon="7.08091">
        <ele>630.59997558594</ele>
        <time>2023-07-30T06:14:55.000Z</time>
      </trkpt>
      <trkpt lat="43.74191" lon="7.08091">
        <ele>630.59997558594</ele>
        <time>2023-07-30T06:14:56.000Z</time>
      </trkpt>
      <trkpt lat="43.74191" lon="7.08091">
        <ele>630.59997558594</ele>
        <time>2023-07-30T06:14:57.000Z</time>
      </trkpt>
      <trkpt lat="43.74191" lon="7.08091">
        <ele>630.59997558594</ele>
        <time>2023-07-30T06:14:58.000Z</time>
      </trkpt>
      <trkpt lat="43.74191" lon="7.08091">
        <ele>630.59997558594</ele>
        <time>2023-07-30T06:14:59.000Z</time>
      </trkpt>
      <trkpt lat="43.74191" lon="7.08091">
        <ele>630.59997558594</ele>
        <time>2023-07-30T06:15:00.000Z</time>
      </trkpt>
      <trkpt lat="43.74191" lon="7.08091">
        <ele>630.59997558594</ele>
        <time>2023-07-30T06:15:01.000Z</time>
      </trkpt>
      <trkpt lat="43.74191" lon="7.08091">
        <ele>630.59997558594</ele>
        <time>2023-07-30T06:15:02.000Z</time>
      </trkpt>
      <trkpt lat="43.74191" lon="7.08091">
        <ele>630.59997558594</ele>
        <time>2023-07-30T06:15:03.000Z</time>
      </trkpt>
      <trkpt lat="43.74191" lon="7.08091">
        <ele>630.79998779297</ele>
        <time>2023-07-30T06:15:04.000Z</time>
      </trkpt>
      <trkpt lat="43.74191" lon="7.08091">
        <ele>630.79998779297</ele>
        <time>2023-07-30T06:15:05.000Z</time>
      </trkpt>
      <trkpt lat="43.74191" lon="7.08091">
        <ele>630.79998779297</ele>
        <time>2023-07-30T06:15:06.000Z</time>
      </trkpt>
      <trkpt lat="43.74191" lon="7.08091">
        <ele>630.79998779297</ele>
        <time>2023-07-30T06:15:07.000Z</time>
      </trkpt>
      <trkpt lat="43.74191" lon="7.08091">
        <ele>630.79998779297</ele>
        <time>2023-07-30T06:15:08.000Z</time>
      </trkpt>
      <trkpt lat="43.74191" lon="7.08091">
        <ele>630.79998779297</ele>
        <time>2023-07-30T06:15:09.000Z</time>
      </trkpt>
      <trkpt lat="43.74191" lon="7.08091">
        <ele>630.79998779297</ele>
        <time>2023-07-30T06:15:10.000Z</time>
      </trkpt>
      <trkpt lat="43.74191" lon="7.08091">
        <ele>630.79998779297</ele>
        <time>2023-07-30T06:15:11.000Z</time>
      </trkpt>
      <trkpt lat="43.74191" lon="7.08091">
        <ele>630.79998779297</ele>
        <time>2023-07-30T06:15:12.000Z</time>
      </trkpt>
      <trkpt lat="43.74191" lon="7.08091">
        <ele>630.79998779297</ele>
        <time>2023-07-30T06:15:13.000Z</time>
      </trkpt>
      <trkpt lat="43.74191" lon="7.08091">
        <ele>630.79998779297</ele>
        <time>2023-07-30T06:15:14.000Z</time>
      </trkpt>
      <trkpt lat="43.74191" lon="7.08091">
        <ele>630.79998779297</ele>
        <time>2023-07-30T06:15:15.000Z</time>
      </trkpt>
      <trkpt lat="43.74191" lon="7.08091">
        <ele>630.79998779297</ele>
        <time>2023-07-30T06:15:16.000Z</time>
      </trkpt>
      <trkpt lat="43.74191" lon="7.08091">
        <ele>630.79998779297</ele>
        <time>2023-07-30T06:15:17.000Z</time>
      </trkpt>
      <trkpt lat="43.74191" lon="7.08091">
        <ele>630.79998779297</ele>
        <time>2023-07-30T06:15:18.000Z</time>
      </trkpt>
      <trkpt lat="43.74191" lon="7.08091">
        <ele>630.79998779297</ele>
        <time>2023-07-30T06:15:19.000Z</time>
      </trkpt>
      <trkpt lat="43.74191" lon="7.08091">
        <ele>630.79998779297</ele>
        <time>2023-07-30T06:15:20.000Z</time>
      </trkpt>
      <trkpt lat="43.74191" lon="7.08091">
        <ele>630.79998779297</ele>
        <time>2023-07-30T06:15:21.000Z</time>
      </trkpt>
      <trkpt lat="43.74191" lon="7.08091">
        <ele>630.79998779297</ele>
        <time>2023-07-30T06:15:22.000Z</time>
      </trkpt>
      <trkpt lat="43.74191" lon="7.08091">
        <ele>630.79998779297</ele>
        <time>2023-07-30T06:15:23.000Z</time>
      </trkpt>
      <trkpt lat="43.74191" lon="7.08091">
        <ele>631</ele>
        <time>2023-07-30T06:15:24.000Z</time>
      </trkpt>
      <trkpt lat="43.74191" lon="7.08091">
        <ele>631</ele>
        <time>2023-07-30T06:15:25.000Z</time>
      </trkpt>
      <trkpt lat="43.74191" lon="7.08091">
        <ele>631</ele>
        <time>2023-07-30T06:15:26.000Z</time>
      </trkpt>
      <trkpt lat="43.74191" lon="7.08091">
        <ele>631</ele>
        <time>2023-07-30T06:15:27.000Z</time>
      </trkpt>
      <trkpt lat="43.74191" lon="7.08091">
        <ele>631</ele>
        <time>2023-07-30T06:15:28.000Z</time>
      </trkpt>
      <trkpt lat="43.74191" lon="7.08091">
        <ele>631</ele>
        <time>2023-07-30T06:15:29.000Z</time>
      </trkpt>
      <trkpt lat="43.74191" lon="7.08091">
        <ele>631</ele>
        <time>2023-07-30T06:15:30.000Z</time>
      </trkpt>
      <trkpt lat="43.74191" lon="7.08091">
        <ele>631</ele>
        <time>2023-07-30T06:15:31.000Z</time>
      </trkpt>
      <trkpt lat="43.74191" lon="7.08091">
        <ele>631</ele>
        <time>2023-07-30T06:15:32.000Z</time>
      </trkpt>
      <trkpt lat="43.74191" lon="7.08091">
        <ele>631</ele>
        <time>2023-07-30T06:15:33.000Z</time>
      </trkpt>
      <trkpt lat="43.74191" lon="7.08091">
        <ele>631</ele>
        <time>2023-07-30T06:15:34.000Z</time>
      </trkpt>
      <trkpt lat="43.74191" lon="7.08091">
        <ele>631</ele>
        <time>2023-07-30T06:15:35.000Z</time>
      </trkpt>
      <trkpt lat="43.74191" lon="7.08091">
        <ele>631</ele>
        <time>2023-07-30T06:15:36.000Z</time>
      </trkpt>
      <trkpt lat="43.74191" lon="7.08091">
        <ele>631</ele>
        <time>2023-07-30T06:15:37.000Z</time>
      </trkpt>
      <trkpt lat="43.74191" lon="7.08091">
        <ele>631</ele>
        <time>2023-07-30T06:15:38.000Z</time>
      </trkpt>
      <trkpt lat="43.74191" lon="7.08091">
        <ele>631</ele>
        <time>2023-07-30T06:15:39.000Z</time>
      </trkpt>
      <trkpt lat="43.74191" lon="7.08091">
        <ele>631</ele>
        <time>2023-07-30T06:15:40.000Z</time>
      </trkpt>
      <trkpt lat="43.74191" lon="7.08091">
        <ele>631</ele>
        <time>2023-07-30T06:15:41.000Z</time>
      </trkpt>
      <trkpt lat="43.74191" lon="7.08091">
        <ele>631</ele>
        <time>2023-07-30T06:15:42.000Z</time>
      </trkpt>
      <trkpt lat="43.74191" lon="7.08091">
        <ele>631</ele>
        <time>2023-07-30T06:15:43.000Z</time>
      </trkpt>
      <trkpt lat="43.74191" lon="7.08091">
        <ele>631</ele>
        <time>2023-07-30T06:15:44.000Z</time>
      </trkpt>
      <trkpt lat="43.74191" lon="7.08091">
        <ele>631</ele>
        <time>2023-07-30T06:15:45.000Z</time>
      </trkpt>
      <trkpt lat="43.74191" lon="7.08091">
        <ele>631</ele>
        <time>2023-07-30T06:15:46.000Z</time>
      </trkpt>
      <trkpt lat="43.74191" lon="7.08091">
        <ele>631</ele>
        <time>2023-07-30T06:15:47.000Z</time>
      </trkpt>
      <trkpt lat="43.74191" lon="7.08091">
        <ele>631</ele>
        <time>2023-07-30T06:15:48.000Z</time>
      </trkpt>
      <trkpt lat="43.74191" lon="7.08091">
        <ele>631</ele>
        <time>2023-07-30T06:15:49.000Z</time>
      </trkpt>
      <trkpt lat="43.7419" lon="7.08091">
        <ele>631</ele>
        <time>2023-07-30T06:15:50.000Z</time>
      </trkpt>
      <trkpt lat="43.7419" lon="7.08091">
        <ele>631</ele>
        <time>2023-07-30T06:15:51.000Z</time>
      </trkpt>
      <trkpt lat="43.7419" lon="7.08091">
        <ele>631</ele>
        <time>2023-07-30T06:15:52.000Z</time>
      </trkpt>
      <trkpt lat="43.7419" lon="7.08091">
        <ele>631</ele>
        <time>2023-07-30T06:15:53.000Z</time>
      </trkpt>
      <trkpt lat="43.7419" lon="7.08091">
        <ele>631</ele>
        <time>2023-07-30T06:15:54.000Z</time>
      </trkpt>
      <trkpt lat="43.7419" lon="7.08091">
        <ele>631.20001220703</ele>
        <time>2023-07-30T06:15:55.000Z</time>
      </trkpt>
      <trkpt lat="43.7419" lon="7.08091">
        <ele>631.20001220703</ele>
        <time>2023-07-30T06:15:56.000Z</time>
      </trkpt>
      <trkpt lat="43.7419" lon="7.08091">
        <ele>631.20001220703</ele>
        <time>2023-07-30T06:15:57.000Z</time>
      </trkpt>
      <trkpt lat="43.7419" lon="7.08091">
        <ele>631.20001220703</ele>
        <time>2023-07-30T06:15:58.000Z</time>
      </trkpt>
      <trkpt lat="43.7419" lon="7.08091">
        <ele>631.20001220703</ele>
        <time>2023-07-30T06:15:59.000Z</time>
      </trkpt>
      <trkpt lat="43.7419" lon="7.08091">
        <ele>630.59997558594</ele>
        <time>2023-07-30T06:16:00.000Z</time>
      </trkpt>
      <trkpt lat="43.7419" lon="7.08091">
        <ele>630</ele>
        <time>2023-07-30T06:16:01.000Z</time>
      </trkpt>
      <trkpt lat="43.7419" lon="7.08092">
        <ele>629.59997558594</ele>
        <time>2023-07-30T06:16:02.000Z</time>
      </trkpt>
      <trkpt lat="43.7419" lon="7.08092">
        <ele>629.20001220703</ele>
        <time>2023-07-30T06:16:03.000Z</time>
      </trkpt>
      <trkpt lat="43.7419" lon="7.08092">
        <ele>629.20001220703</ele>
        <time>2023-07-30T06:16:04.000Z</time>
      </trkpt>
      <trkpt lat="43.7419" lon="7.08092">
        <ele>629.20001220703</ele>
        <time>2023-07-30T06:16:05.000Z</time>
      </trkpt>
      <trkpt lat="43.7419" lon="7.08092">
        <ele>629.20001220703</ele>
        <time>2023-07-30T06:16:06.000Z</time>
      </trkpt>
      <trkpt lat="43.7419" lon="7.08091">
        <ele>632.59997558594</ele>
        <time>2023-07-30T06:16:07.000Z</time>
      </trkpt>
      <trkpt lat="43.7419" lon="7.08091">
        <ele>632.59997558594</ele>
        <time>2023-07-30T06:16:08.000Z</time>
      </trkpt>
      <trkpt lat="43.7419" lon="7.08091">
        <ele>632.59997558594</ele>
        <time>2023-07-30T06:16:09.000Z</time>
      </trkpt>
      <trkpt lat="43.7419" lon="7.08091">
        <ele>632.59997558594</ele>
        <time>2023-07-30T06:16:10.000Z</time>
      </trkpt>
      <trkpt lat="43.7419" lon="7.08091">
        <ele>632.59997558594</ele>
        <time>2023-07-30T06:16:11.000Z</time>
      </trkpt>
      <trkpt lat="43.7419" lon="7.08091">
        <ele>632.20001220703</ele>
        <time>2023-07-30T06:16:12.000Z</time>
      </trkpt>
      <trkpt lat="43.7419" lon="7.08091">
        <ele>631.79998779297</ele>
        <time>2023-07-30T06:16:13.000Z</time>
      </trkpt>
      <trkpt lat="43.7419" lon="7.08091">
        <ele>631.40002441406</ele>
        <time>2023-07-30T06:16:14.000Z</time>
      </trkpt>
      <trkpt lat="43.7419" lon="7.08091">
        <ele>631.40002441406</ele>
        <time>2023-07-30T06:16:15.000Z</time>
      </trkpt>
      <trkpt lat="43.7419" lon="7.08091">
        <ele>631.40002441406</ele>
        <time>2023-07-30T06:16:16.000Z</time>
      </trkpt>
      <trkpt lat="43.7419" lon="7.08091">
        <ele>631.40002441406</ele>
        <time>2023-07-30T06:16:17.000Z</time>
      </trkpt>
      <trkpt lat="43.7419" lon="7.08091">
        <ele>631.20001220703</ele>
        <time>2023-07-30T06:16:18.000Z</time>
      </trkpt>
      <trkpt lat="43.7419" lon="7.08091">
        <ele>631.20001220703</ele>
        <time>2023-07-30T06:16:19.000Z</time>
      </trkpt>
      <trkpt lat="43.7419" lon="7.08091">
        <ele>631.40002441406</ele>
        <time>2023-07-30T06:16:20.000Z</time>
      </trkpt>
      <trkpt lat="43.7419" lon="7.08091">
        <ele>631.40002441406</ele>
        <time>2023-07-30T06:16:21.000Z</time>
      </trkpt>
      <trkpt lat="43.7419" lon="7.08091">
        <ele>631.40002441406</ele>
        <time>2023-07-30T06:16:22.000Z</time>
      </trkpt>
      <trkpt lat="43.7419" lon="7.08091">
        <ele>631.40002441406</ele>
        <time>2023-07-30T06:16:23.000Z</time>
      </trkpt>
      <trkpt lat="43.7419" lon="7.08091">
        <ele>631.40002441406</ele>
        <time>2023-07-30T06:16:24.000Z</time>
      </trkpt>
      <trkpt lat="43.7419" lon="7.08091">
        <ele>631.40002441406</ele>
        <time>2023-07-30T06:16:25.000Z</time>
      </trkpt>
      <trkpt lat="43.7419" lon="7.08091">
        <ele>631.40002441406</ele>
        <time>2023-07-30T06:16:26.000Z</time>
      </trkpt>
      <trkpt lat="43.7419" lon="7.08091">
        <ele>631.40002441406</ele>
        <time>2023-07-30T06:16:27.000Z</time>
      </trkpt>
      <trkpt lat="43.7419" lon="7.08091">
        <ele>631.40002441406</ele>
        <time>2023-07-30T06:16:28.000Z</time>
      </trkpt>
      <trkpt lat="43.7419" lon="7.08091">
        <ele>631.40002441406</ele>
        <time>2023-07-30T06:16:29.000Z</time>
      </trkpt>
      <trkpt lat="43.7419" lon="7.08091">
        <ele>631.40002441406</ele>
        <time>2023-07-30T06:16:30.000Z</time>
      </trkpt>
      <trkpt lat="43.7419" lon="7.08091">
        <ele>631.40002441406</ele>
        <time>2023-07-30T06:16:31.000Z</time>
      </trkpt>
      <trkpt lat="43.7419" lon="7.08091">
        <ele>631.40002441406</ele>
        <time>2023-07-30T06:16:32.000Z</time>
      </trkpt>
      <trkpt lat="43.7419" lon="7.08091">
        <ele>631.20001220703</ele>
        <time>2023-07-30T06:16:33.000Z</time>
      </trkpt>
      <trkpt lat="43.7419" lon="7.08091">
        <ele>631.20001220703</ele>
        <time>2023-07-30T06:16:34.000Z</time>
      </trkpt>
      <trkpt lat="43.7419" lon="7.08091">
        <ele>631.20001220703</ele>
        <time>2023-07-30T06:16:35.000Z</time>
      </trkpt>
      <trkpt lat="43.7419" lon="7.08091">
        <ele>631.20001220703</ele>
        <time>2023-07-30T06:16:36.000Z</time>
      </trkpt>
      <trkpt lat="43.7419" lon="7.08091">
        <ele>631.20001220703</ele>
        <time>2023-07-30T06:16:37.000Z</time>
      </trkpt>
      <trkpt lat="43.7419" lon="7.08091">
        <ele>631.20001220703</ele>
        <time>2023-07-30T06:16:38.000Z</time>
      </trkpt>
      <trkpt lat="43.7419" lon="7.08091">
        <ele>631.40002441406</ele>
        <time>2023-07-30T06:16:39.000Z</time>
      </trkpt>
      <trkpt lat="43.7419" lon="7.08091">
        <ele>631.40002441406</ele>
        <time>2023-07-30T06:16:40.000Z</time>
      </trkpt>
      <trkpt lat="43.7419" lon="7.08091">
        <ele>631.40002441406</ele>
        <time>2023-07-30T06:16:41.000Z</time>
      </trkpt>
      <trkpt lat="43.7419" lon="7.08091">
        <ele>631.40002441406</ele>
        <time>2023-07-30T06:16:42.000Z</time>
      </trkpt>
      <trkpt lat="43.7419" lon="7.08091">
        <ele>631.40002441406</ele>
        <time>2023-07-30T06:16:43.000Z</time>
      </trkpt>
      <trkpt lat="43.7419" lon="7.08091">
        <ele>631.40002441406</ele>
        <time>2023-07-30T06:16:44.000Z</time>
      </trkpt>
      <trkpt lat="43.7419" lon="7.08091">
        <ele>631.40002441406</ele>
        <time>2023-07-30T06:16:45.000Z</time>
      </trkpt>
      <trkpt lat="43.7419" lon="7.08091">
        <ele>631.20001220703</ele>
        <time>2023-07-30T06:16:46.000Z</time>
      </trkpt>
      <trkpt lat="43.7419" lon="7.08091">
        <ele>631.20001220703</ele>
        <time>2023-07-30T06:16:47.000Z</time>
      </trkpt>
      <trkpt lat="43.7419" lon="7.08091">
        <ele>630.79998779297</ele>
        <time>2023-07-30T06:16:48.000Z</time>
      </trkpt>
      <trkpt lat="43.7419" lon="7.08091">
        <ele>630.79998779297</ele>
        <time>2023-07-30T06:16:49.000Z</time>
      </trkpt>
      <trkpt lat="43.7419" lon="7.08091">
        <ele>630.79998779297</ele>
        <time>2023-07-30T06:16:50.000Z</time>
      </trkpt>
      <trkpt lat="43.7419" lon="7.08091">
        <ele>630.79998779297</ele>
        <time>2023-07-30T06:16:51.000Z</time>
      </trkpt>
      <trkpt lat="43.7419" lon="7.08091">
        <ele>630.79998779297</ele>
        <time>2023-07-30T06:16:52.000Z</time>
      </trkpt>
      <trkpt lat="43.7419" lon="7.08091">
        <ele>630.79998779297</ele>
        <time>2023-07-30T06:16:53.000Z</time>
      </trkpt>
      <trkpt lat="43.7419" lon="7.08091">
        <ele>630.79998779297</ele>
        <time>2023-07-30T06:16:54.000Z</time>
      </trkpt>
      <trkpt lat="43.7419" lon="7.08091">
        <ele>630.79998779297</ele>
        <time>2023-07-30T06:16:55.000Z</time>
      </trkpt>
      <trkpt lat="43.7419" lon="7.08092">
        <ele>630.79998779297</ele>
        <time>2023-07-30T06:16:56.000Z</time>
      </trkpt>
      <trkpt lat="43.7419" lon="7.08091">
        <ele>630.79998779297</ele>
        <time>2023-07-30T06:16:57.000Z</time>
      </trkpt>
      <trkpt lat="43.7419" lon="7.08092">
        <ele>631</ele>
        <time>2023-07-30T06:16:58.000Z</time>
      </trkpt>
      <trkpt lat="43.7419" lon="7.08091">
        <ele>631.79998779297</ele>
        <time>2023-07-30T06:16:59.000Z</time>
      </trkpt>
      <trkpt lat="43.7419" lon="7.08091">
        <ele>631.79998779297</ele>
        <time>2023-07-30T06:17:00.000Z</time>
      </trkpt>
      <trkpt lat="43.7419" lon="7.08091">
        <ele>631.79998779297</ele>
        <time>2023-07-30T06:17:01.000Z</time>
      </trkpt>
      <trkpt lat="43.7419" lon="7.08091">
        <ele>631.79998779297</ele>
        <time>2023-07-30T06:17:02.000Z</time>
      </trkpt>
      <trkpt lat="43.7419" lon="7.08091">
        <ele>631.59997558594</ele>
        <time>2023-07-30T06:17:03.000Z</time>
      </trkpt>
      <trkpt lat="43.7419" lon="7.08091">
        <ele>631.59997558594</ele>
        <time>2023-07-30T06:17:04.000Z</time>
      </trkpt>
      <trkpt lat="43.7419" lon="7.08091">
        <ele>631.59997558594</ele>
        <time>2023-07-30T06:17:05.000Z</time>
      </trkpt>
      <trkpt lat="43.74191" lon="7.08091">
        <ele>631.59997558594</ele>
        <time>2023-07-30T06:17:06.000Z</time>
      </trkpt>
      <trkpt lat="43.7419" lon="7.08091">
        <ele>631.59997558594</ele>
        <time>2023-07-30T06:17:07.000Z</time>
      </trkpt>
      <trkpt lat="43.7419" lon="7.08091">
        <ele>631.59997558594</ele>
        <time>2023-07-30T06:17:08.000Z</time>
      </trkpt>
      <trkpt lat="43.7419" lon="7.08091">
        <ele>631.59997558594</ele>
        <time>2023-07-30T06:17:09.000Z</time>
      </trkpt>
      <trkpt lat="43.7419" lon="7.08091">
        <ele>631.59997558594</ele>
        <time>2023-07-30T06:17:10.000Z</time>
      </trkpt>
      <trkpt lat="43.7419" lon="7.08091">
        <ele>631.59997558594</ele>
        <time>2023-07-30T06:17:11.000Z</time>
      </trkpt>
      <trkpt lat="43.7419" lon="7.08091">
        <ele>631.59997558594</ele>
        <time>2023-07-30T06:17:12.000Z</time>
      </trkpt>
      <trkpt lat="43.7419" lon="7.08091">
        <ele>631.40002441406</ele>
        <time>2023-07-30T06:17:13.000Z</time>
      </trkpt>
      <trkpt lat="43.7419" lon="7.08091">
        <ele>631.40002441406</ele>
        <time>2023-07-30T06:17:14.000Z</time>
      </trkpt>
      <trkpt lat="43.7419" lon="7.08091">
        <ele>631.40002441406</ele>
        <time>2023-07-30T06:17:15.000Z</time>
      </trkpt>
      <trkpt lat="43.7419" lon="7.08091">
        <ele>631</ele>
        <time>2023-07-30T06:17:16.000Z</time>
      </trkpt>
      <trkpt lat="43.7419" lon="7.08091">
        <ele>631</ele>
        <time>2023-07-30T06:17:17.000Z</time>
      </trkpt>
      <trkpt lat="43.7419" lon="7.08091">
        <ele>631</ele>
        <time>2023-07-30T06:17:18.000Z</time>
      </trkpt>
      <trkpt lat="43.7419" lon="7.08091">
        <ele>631</ele>
        <time>2023-07-30T06:17:19.000Z</time>
      </trkpt>
      <trkpt lat="43.74191" lon="7.08091">
        <ele>631</ele>
        <time>2023-07-30T06:17:20.000Z</time>
      </trkpt>
      <trkpt lat="43.74191" lon="7.08092">
        <ele>631</ele>
        <time>2023-07-30T06:17:21.000Z</time>
      </trkpt>
      <trkpt lat="43.74191" lon="7.08092">
        <ele>631</ele>
        <time>2023-07-30T06:17:22.000Z</time>
      </trkpt>
      <trkpt lat="43.74191" lon="7.08091">
        <ele>631</ele>
        <time>2023-07-30T06:17:23.000Z</time>
      </trkpt>
      <trkpt lat="43.7419" lon="7.08091">
        <ele>631</ele>
        <time>2023-07-30T06:17:24.000Z</time>
      </trkpt>
      <trkpt lat="43.7419" lon="7.08091">
        <ele>631</ele>
        <time>2023-07-30T06:17:25.000Z</time>
      </trkpt>
      <trkpt lat="43.7419" lon="7.08091">
        <ele>631</ele>
        <time>2023-07-30T06:17:26.000Z</time>
      </trkpt>
      <trkpt lat="43.7419" lon="7.08091">
        <ele>631</ele>
        <time>2023-07-30T06:17:27.000Z</time>
      </trkpt>
      <trkpt lat="43.7419" lon="7.08091">
        <ele>631</ele>
        <time>2023-07-30T06:17:28.000Z</time>
      </trkpt>
      <trkpt lat="43.74191" lon="7.08091">
        <ele>631</ele>
        <time>2023-07-30T06:17:29.000Z</time>
      </trkpt>
      <trkpt lat="43.74192" lon="7.0809">
        <ele>631</ele>
        <time>2023-07-30T06:17:30.000Z</time>
      </trkpt>
      <trkpt lat="43.74194" lon="7.08089">
        <ele>631</ele>
        <time>2023-07-30T06:17:31.000Z</time>
      </trkpt>
      <trkpt lat="43.74194" lon="7.08089">
        <ele>631</ele>
        <time>2023-07-30T06:17:32.000Z</time>
      </trkpt>
      <trkpt lat="43.74193" lon="7.08089">
        <ele>631</ele>
        <time>2023-07-30T06:17:33.000Z</time>
      </trkpt>
      <trkpt lat="43.74193" lon="7.08089">
        <ele>631</ele>
        <time>2023-07-30T06:17:34.000Z</time>
      </trkpt>
      <trkpt lat="43.74193" lon="7.08089">
        <ele>631</ele>
        <time>2023-07-30T06:17:35.000Z</time>
      </trkpt>
      <trkpt lat="43.74193" lon="7.08089">
        <ele>631</ele>
        <time>2023-07-30T06:17:36.000Z</time>
      </trkpt>
      <trkpt lat="43.74193" lon="7.08089">
        <ele>631</ele>
        <time>2023-07-30T06:17:37.000Z</time>
      </trkpt>
      <trkpt lat="43.74193" lon="7.08089">
        <ele>631</ele>
        <time>2023-07-30T06:17:38.000Z</time>
      </trkpt>
      <trkpt lat="43.74193" lon="7.08089">
        <ele>631</ele>
        <time>2023-07-30T06:17:39.000Z</time>
      </trkpt>
      <trkpt lat="43.74194" lon="7.08089">
        <ele>631</ele>
        <time>2023-07-30T06:17:40.000Z</time>
      </trkpt>
      <trkpt lat="43.74195" lon="7.08089">
        <ele>631</ele>
        <time>2023-07-30T06:17:41.000Z</time>
      </trkpt>
      <trkpt lat="43.74196" lon="7.08088">
        <ele>631</ele>
        <time>2023-07-30T06:17:42.000Z</time>
      </trkpt>
      <trkpt lat="43.74196" lon="7.08088">
        <ele>631</ele>
        <time>2023-07-30T06:17:43.000Z</time>
      </trkpt>
      <trkpt lat="43.74195" lon="7.08089">
        <ele>631</ele>
        <time>2023-07-30T06:17:44.000Z</time>
      </trkpt>
      <trkpt lat="43.74195" lon="7.08089">
        <ele>631</ele>
        <time>2023-07-30T06:17:45.000Z</time>
      </trkpt>
      <trkpt lat="43.74196" lon="7.08089">
        <ele>631</ele>
        <time>2023-07-30T06:17:46.000Z</time>
      </trkpt>
      <trkpt lat="43.74196" lon="7.08089">
        <ele>631</ele>
        <time>2023-07-30T06:17:47.000Z</time>
      </trkpt>
      <trkpt lat="43.74197" lon="7.08089">
        <ele>631</ele>
        <time>2023-07-30T06:17:48.000Z</time>
      </trkpt>
      <trkpt lat="43.74197" lon="7.08088">
        <ele>631</ele>
        <time>2023-07-30T06:17:49.000Z</time>
      </trkpt>
      <trkpt lat="43.74197" lon="7.08088">
        <ele>631</ele>
        <time>2023-07-30T06:17:50.000Z</time>
      </trkpt>
      <trkpt lat="43.74198" lon="7.08088">
        <ele>631</ele>
        <time>2023-07-30T06:17:51.000Z</time>
      </trkpt>
      <trkpt lat="43.74198" lon="7.08087">
        <ele>631</ele>
        <time>2023-07-30T06:17:52.000Z</time>
      </trkpt>
      <trkpt lat="43.74199" lon="7.08087">
        <ele>631</ele>
        <time>2023-07-30T06:17:53.000Z</time>
      </trkpt>
      <trkpt lat="43.742" lon="7.08086">
        <ele>631</ele>
        <time>2023-07-30T06:17:54.000Z</time>
      </trkpt>
      <trkpt lat="43.74201" lon="7.08085">
        <ele>630.79998779297</ele>
        <time>2023-07-30T06:17:55.000Z</time>
      </trkpt>
      <trkpt lat="43.74201" lon="7.08083">
        <ele>630.79998779297</ele>
        <time>2023-07-30T06:17:56.000Z</time>
      </trkpt>
      <trkpt lat="43.74202" lon="7.08083">
        <ele>631</ele>
        <time>2023-07-30T06:17:57.000Z</time>
      </trkpt>
      <trkpt lat="43.74201" lon="7.08082">
        <ele>631.20001220703</ele>
        <time>2023-07-30T06:17:58.000Z</time>
      </trkpt>
      <trkpt lat="43.74201" lon="7.08083">
        <ele>631.20001220703</ele>
        <time>2023-07-30T06:17:59.000Z</time>
      </trkpt>
      <trkpt lat="43.74201" lon="7.08083">
        <ele>631.40002441406</ele>
        <time>2023-07-30T06:18:00.000Z</time>
      </trkpt>
      <trkpt lat="43.74201" lon="7.08083">
        <ele>631.40002441406</ele>
        <time>2023-07-30T06:18:01.000Z</time>
      </trkpt>
      <trkpt lat="43.74201" lon="7.08083">
        <ele>631.59997558594</ele>
        <time>2023-07-30T06:18:02.000Z</time>
      </trkpt>
      <trkpt lat="43.74201" lon="7.08083">
        <ele>631.59997558594</ele>
        <time>2023-07-30T06:18:03.000Z</time>
      </trkpt>
      <trkpt lat="43.74201" lon="7.08083">
        <ele>631.59997558594</ele>
        <time>2023-07-30T06:18:04.000Z</time>
      </trkpt>
      <trkpt lat="43.74202" lon="7.08082">
        <ele>631.59997558594</ele>
        <time>2023-07-30T06:18:05.000Z</time>
      </trkpt>
      <trkpt lat="43.74203" lon="7.0808">
        <ele>631.59997558594</ele>
        <time>2023-07-30T06:18:06.000Z</time>
      </trkpt>
      <trkpt lat="43.74205" lon="7.08079">
        <ele>631.59997558594</ele>
        <time>2023-07-30T06:18:07.000Z</time>
      </trkpt>
      <trkpt lat="43.74208" lon="7.08078">
        <ele>631.79998779297</ele>
        <time>2023-07-30T06:18:08.000Z</time>
      </trkpt>
      <trkpt lat="43.7421" lon="7.08078">
        <ele>632</ele>
        <time>2023-07-30T06:18:09.000Z</time>
      </trkpt>
      <trkpt lat="43.74212" lon="7.08076">
        <ele>632.20001220703</ele>
        <time>2023-07-30T06:18:10.000Z</time>
      </trkpt>
      <trkpt lat="43.74213" lon="7.08074">
        <ele>632.59997558594</ele>
        <time>2023-07-30T06:18:11.000Z</time>
      </trkpt>
      <trkpt lat="43.74214" lon="7.08072">
        <ele>633</ele>
        <time>2023-07-30T06:18:12.000Z</time>
      </trkpt>
      <trkpt lat="43.74216" lon="7.08072">
        <ele>633.59997558594</ele>
        <time>2023-07-30T06:18:13.000Z</time>
      </trkpt>
      <trkpt lat="43.74218" lon="7.08071">
        <ele>634</ele>
        <time>2023-07-30T06:18:14.000Z</time>
      </trkpt>
      <trkpt lat="43.7422" lon="7.08071">
        <ele>634.40002441406</ele>
        <time>2023-07-30T06:18:15.000Z</time>
      </trkpt>
      <trkpt lat="43.74222" lon="7.0807">
        <ele>635</ele>
        <time>2023-07-30T06:18:16.000Z</time>
      </trkpt>
      <trkpt lat="43.74223" lon="7.08069">
        <ele>635.40002441406</ele>
        <time>2023-07-30T06:18:17.000Z</time>
      </trkpt>
      <trkpt lat="43.74225" lon="7.08069">
        <ele>635.79998779297</ele>
        <time>2023-07-30T06:18:18.000Z</time>
      </trkpt>
      <trkpt lat="43.74226" lon="7.08068">
        <ele>636.20001220703</ele>
        <time>2023-07-30T06:18:19.000Z</time>
      </trkpt>
      <trkpt lat="43.74227" lon="7.08067">
        <ele>636.59997558594</ele>
        <time>2023-07-30T06:18:20.000Z</time>
      </trkpt>
      <trkpt lat="43.74229" lon="7.08066">
        <ele>636.59997558594</ele>
        <time>2023-07-30T06:18:21.000Z</time>
      </trkpt>
      <trkpt lat="43.7423" lon="7.08065">
        <ele>637</ele>
        <time>2023-07-30T06:18:22.000Z</time>
      </trkpt>
      <trkpt lat="43.74232" lon="7.08064">
        <ele>637.20001220703</ele>
        <time>2023-07-30T06:18:23.000Z</time>
      </trkpt>
      <trkpt lat="43.74233" lon="7.08064">
        <ele>637.59997558594</ele>
        <time>2023-07-30T06:18:24.000Z</time>
      </trkpt>
      <trkpt lat="43.74235" lon="7.08063">
        <ele>638</ele>
        <time>2023-07-30T06:18:25.000Z</time>
      </trkpt>
      <trkpt lat="43.74236" lon="7.08062">
        <ele>638.40002441406</ele>
        <time>2023-07-30T06:18:26.000Z</time>
      </trkpt>
      <trkpt lat="43.74238" lon="7.08061">
        <ele>638.79998779297</ele>
        <time>2023-07-30T06:18:27.000Z</time>
      </trkpt>
      <trkpt lat="43.7424" lon="7.08061">
        <ele>639</ele>
        <time>2023-07-30T06:18:28.000Z</time>
      </trkpt>
      <trkpt lat="43.74242" lon="7.0806">
        <ele>639.40002441406</ele>
        <time>2023-07-30T06:18:29.000Z</time>
      </trkpt>
      <trkpt lat="43.74244" lon="7.0806">
        <ele>639.40002441406</ele>
        <time>2023-07-30T06:18:30.000Z</time>
      </trkpt>
      <trkpt lat="43.74245" lon="7.08059">
        <ele>639.59997558594</ele>
        <time>2023-07-30T06:18:31.000Z</time>
      </trkpt>
      <trkpt lat="43.74247" lon="7.08059">
        <ele>639.59997558594</ele>
        <time>2023-07-30T06:18:32.000Z</time>
      </trkpt>
      <trkpt lat="43.7425" lon="7.08059">
        <ele>640</ele>
        <time>2023-07-30T06:18:33.000Z</time>
      </trkpt>
      <trkpt lat="43.74252" lon="7.08059">
        <ele>640.20001220703</ele>
        <time>2023-07-30T06:18:34.000Z</time>
      </trkpt>
      <trkpt lat="43.74254" lon="7.08058">
        <ele>640.20001220703</ele>
        <time>2023-07-30T06:18:35.000Z</time>
      </trkpt>
      <trkpt lat="43.74256" lon="7.08058">
        <ele>640.40002441406</ele>
        <time>2023-07-30T06:18:36.000Z</time>
      </trkpt>
      <trkpt lat="43.74258" lon="7.08056">
        <ele>640.59997558594</ele>
        <time>2023-07-30T06:18:37.000Z</time>
      </trkpt>
      <trkpt lat="43.74259" lon="7.08054">
        <ele>640.59997558594</ele>
        <time>2023-07-30T06:18:38.000Z</time>
      </trkpt>
      <trkpt lat="43.74261" lon="7.08053">
        <ele>640.79998779297</ele>
        <time>2023-07-30T06:18:39.000Z</time>
      </trkpt>
      <trkpt lat="43.74263" lon="7.08052">
        <ele>641.20001220703</ele>
        <time>2023-07-30T06:18:40.000Z</time>
      </trkpt>
      <trkpt lat="43.74265" lon="7.08052">
        <ele>641.59997558594</ele>
        <time>2023-07-30T06:18:41.000Z</time>
      </trkpt>
      <trkpt lat="43.74264" lon="7.08051">
        <ele>641.79998779297</ele>
        <time>2023-07-30T06:18:42.000Z</time>
      </trkpt>
      <trkpt lat="43.74264" lon="7.08051">
        <ele>641.79998779297</ele>
        <time>2023-07-30T06:18:43.000Z</time>
      </trkpt>
      <trkpt lat="43.74265" lon="7.08051">
        <ele>642.40002441406</ele>
        <time>2023-07-30T06:18:44.000Z</time>
      </trkpt>
      <trkpt lat="43.74265" lon="7.08051">
        <ele>642.59997558594</ele>
        <time>2023-07-30T06:18:45.000Z</time>
      </trkpt>
      <trkpt lat="43.74265" lon="7.08051">
        <ele>642.79998779297</ele>
        <time>2023-07-30T06:18:46.000Z</time>
      </trkpt>
      <trkpt lat="43.74265" lon="7.08051">
        <ele>643</ele>
        <time>2023-07-30T06:18:47.000Z</time>
      </trkpt>
      <trkpt lat="43.74265" lon="7.08051">
        <ele>643</ele>
        <time>2023-07-30T06:18:48.000Z</time>
      </trkpt>
      <trkpt lat="43.74265" lon="7.08051">
        <ele>643</ele>
        <time>2023-07-30T06:18:49.000Z</time>
      </trkpt>
      <trkpt lat="43.74265" lon="7.08051">
        <ele>643</ele>
        <time>2023-07-30T06:18:50.000Z</time>
      </trkpt>
      <trkpt lat="43.74265" lon="7.08051">
        <ele>643</ele>
        <time>2023-07-30T06:18:51.000Z</time>
      </trkpt>
      <trkpt lat="43.74267" lon="7.0805">
        <ele>643</ele>
        <time>2023-07-30T06:18:52.000Z</time>
      </trkpt>
      <trkpt lat="43.74267" lon="7.0805">
        <ele>643</ele>
        <time>2023-07-30T06:18:53.000Z</time>
      </trkpt>
      <trkpt lat="43.74267" lon="7.0805">
        <ele>643.20001220703</ele>
        <time>2023-07-30T06:18:54.000Z</time>
      </trkpt>
      <trkpt lat="43.74267" lon="7.0805">
        <ele>643.20001220703</ele>
        <time>2023-07-30T06:18:55.000Z</time>
      </trkpt>
      <trkpt lat="43.74267" lon="7.0805">
        <ele>643.20001220703</ele>
        <time>2023-07-30T06:18:56.000Z</time>
      </trkpt>
      <trkpt lat="43.74269" lon="7.08049">
        <ele>643.20001220703</ele>
        <time>2023-07-30T06:18:57.000Z</time>
      </trkpt>
      <trkpt lat="43.7427" lon="7.08048">
        <ele>643.40002441406</ele>
        <time>2023-07-30T06:18:58.000Z</time>
      </trkpt>
      <trkpt lat="43.74272" lon="7.08047">
        <ele>643.40002441406</ele>
        <time>2023-07-30T06:18:59.000Z</time>
      </trkpt>
      <trkpt lat="43.74274" lon="7.08046">
        <ele>643.59997558594</ele>
        <time>2023-07-30T06:19:00.000Z</time>
      </trkpt>
      <trkpt lat="43.74275" lon="7.08044">
        <ele>644</ele>
        <time>2023-07-30T06:19:01.000Z</time>
      </trkpt>
      <trkpt lat="43.74276" lon="7.08043">
        <ele>644.20001220703</ele>
        <time>2023-07-30T06:19:02.000Z</time>
      </trkpt>
      <trkpt lat="43.74278" lon="7.08042">
        <ele>644.20001220703</ele>
        <time>2023-07-30T06:19:03.000Z</time>
      </trkpt>
      <trkpt lat="43.74279" lon="7.08041">
        <ele>644.40002441406</ele>
        <time>2023-07-30T06:19:04.000Z</time>
      </trkpt>
      <trkpt lat="43.74281" lon="7.08039">
        <ele>644.40002441406</ele>
        <time>2023-07-30T06:19:05.000Z</time>
      </trkpt>
      <trkpt lat="43.74284" lon="7.08038">
        <ele>644.79998779297</ele>
        <time>2023-07-30T06:19:06.000Z</time>
      </trkpt>
      <trkpt lat="43.74285" lon="7.08036">
        <ele>645</ele>
        <time>2023-07-30T06:19:07.000Z</time>
      </trkpt>
      <trkpt lat="43.74287" lon="7.08034">
        <ele>645.20001220703</ele>
        <time>2023-07-30T06:19:08.000Z</time>
      </trkpt>
      <trkpt lat="43.74289" lon="7.08033">
        <ele>645.40002441406</ele>
        <time>2023-07-30T06:19:09.000Z</time>
      </trkpt>
      <trkpt lat="43.74291" lon="7.08032">
        <ele>645.40002441406</ele>
        <time>2023-07-30T06:19:10.000Z</time>
      </trkpt>
      <trkpt lat="43.74293" lon="7.08031">
        <ele>645.59997558594</ele>
        <time>2023-07-30T06:19:11.000Z</time>
      </trkpt>
      <trkpt lat="43.74295" lon="7.08029">
        <ele>645.79998779297</ele>
        <time>2023-07-30T06:19:12.000Z</time>
      </trkpt>
      <trkpt lat="43.74297" lon="7.08027">
        <ele>646</ele>
        <time>2023-07-30T06:19:13.000Z</time>
      </trkpt>
      <trkpt lat="43.74299" lon="7.08026">
        <ele>646.20001220703</ele>
        <time>2023-07-30T06:19:14.000Z</time>
      </trkpt>
      <trkpt lat="43.743" lon="7.08024">
        <ele>646.40002441406</ele>
        <time>2023-07-30T06:19:15.000Z</time>
      </trkpt>
      <trkpt lat="43.74302" lon="7.08022">
        <ele>646.79998779297</ele>
        <time>2023-07-30T06:19:16.000Z</time>
      </trkpt>
      <trkpt lat="43.74304" lon="7.0802">
        <ele>647</ele>
        <time>2023-07-30T06:19:17.000Z</time>
      </trkpt>
      <trkpt lat="43.74305" lon="7.08018">
        <ele>647.59997558594</ele>
        <time>2023-07-30T06:19:18.000Z</time>
      </trkpt>
      <trkpt lat="43.74307" lon="7.08016">
        <ele>647.79998779297</ele>
        <time>2023-07-30T06:19:19.000Z</time>
      </trkpt>
      <trkpt lat="43.74308" lon="7.08014">
        <ele>648.40002441406</ele>
        <time>2023-07-30T06:19:20.000Z</time>
      </trkpt>
      <trkpt lat="43.7431" lon="7.08012">
        <ele>648.59997558594</ele>
        <time>2023-07-30T06:19:21.000Z</time>
      </trkpt>
      <trkpt lat="43.74311" lon="7.08011">
        <ele>649</ele>
        <time>2023-07-30T06:19:22.000Z</time>
      </trkpt>
      <trkpt lat="43.74313" lon="7.08009">
        <ele>649.40002441406</ele>
        <time>2023-07-30T06:19:23.000Z</time>
      </trkpt>
      <trkpt lat="43.74314" lon="7.08008">
        <ele>650</ele>
        <time>2023-07-30T06:19:24.000Z</time>
      </trkpt>
      <trkpt lat="43.74315" lon="7.08007">
        <ele>650.40002441406</ele>
        <time>2023-07-30T06:19:25.000Z</time>
      </trkpt>
      <trkpt lat="43.74316" lon="7.08006">
        <ele>651</ele>
        <time>2023-07-30T06:19:26.000Z</time>
      </trkpt>
      <trkpt lat="43.74316" lon="7.08005">
        <ele>651</ele>
        <time>2023-07-30T06:19:27.000Z</time>
      </trkpt>
      <trkpt lat="43.74316" lon="7.08005">
        <ele>651.20001220703</ele>
        <time>2023-07-30T06:19:28.000Z</time>
      </trkpt>
      <trkpt lat="43.74316" lon="7.08005">
        <ele>651.59997558594</ele>
        <time>2023-07-30T06:19:29.000Z</time>
      </trkpt>
      <trkpt lat="43.74316" lon="7.08005">
        <ele>652</ele>
        <time>2023-07-30T06:19:30.000Z</time>
      </trkpt>
      <trkpt lat="43.74316" lon="7.08005">
        <ele>652.20001220703</ele>
        <time>2023-07-30T06:19:31.000Z</time>
      </trkpt>
      <trkpt lat="43.74316" lon="7.08005">
        <ele>652.40002441406</ele>
        <time>2023-07-30T06:19:32.000Z</time>
      </trkpt>
      <trkpt lat="43.74316" lon="7.08005">
        <ele>652.40002441406</ele>
        <time>2023-07-30T06:19:33.000Z</time>
      </trkpt>
      <trkpt lat="43.74316" lon="7.08005">
        <ele>652.40002441406</ele>
        <time>2023-07-30T06:19:34.000Z</time>
      </trkpt>
      <trkpt lat="43.74317" lon="7.08003">
        <ele>652.59997558594</ele>
        <time>2023-07-30T06:19:35.000Z</time>
      </trkpt>
      <trkpt lat="43.74317" lon="7.08002">
        <ele>652.59997558594</ele>
        <time>2023-07-30T06:19:36.000Z</time>
      </trkpt>
      <trkpt lat="43.74318" lon="7.08">
        <ele>652.59997558594</ele>
        <time>2023-07-30T06:19:37.000Z</time>
      </trkpt>
      <trkpt lat="43.74319" lon="7.07997">
        <ele>652.59997558594</ele>
        <time>2023-07-30T06:19:38.000Z</time>
      </trkpt>
      <trkpt lat="43.7432" lon="7.07996">
        <ele>652.79998779297</ele>
        <time>2023-07-30T06:19:39.000Z</time>
      </trkpt>
      <trkpt lat="43.74321" lon="7.07993">
        <ele>653.20001220703</ele>
        <time>2023-07-30T06:19:40.000Z</time>
      </trkpt>
      <trkpt lat="43.74322" lon="7.07992">
        <ele>653.59997558594</ele>
        <time>2023-07-30T06:19:41.000Z</time>
      </trkpt>
      <trkpt lat="43.74323" lon="7.07991">
        <ele>654</ele>
        <time>2023-07-30T06:19:42.000Z</time>
      </trkpt>
      <trkpt lat="43.74326" lon="7.0799">
        <ele>654.59997558594</ele>
        <time>2023-07-30T06:19:43.000Z</time>
      </trkpt>
      <trkpt lat="43.74328" lon="7.07989">
        <ele>654.59997558594</ele>
        <time>2023-07-30T06:19:44.000Z</time>
      </trkpt>
      <trkpt lat="43.74329" lon="7.07989">
        <ele>655.20001220703</ele>
        <time>2023-07-30T06:19:45.000Z</time>
      </trkpt>
      <trkpt lat="43.74331" lon="7.07989">
        <ele>655.79998779297</ele>
        <time>2023-07-30T06:19:46.000Z</time>
      </trkpt>
      <trkpt lat="43.74333" lon="7.07988">
        <ele>656</ele>
        <time>2023-07-30T06:19:47.000Z</time>
      </trkpt>
      <trkpt lat="43.74334" lon="7.07988">
        <ele>656.79998779297</ele>
        <time>2023-07-30T06:19:48.000Z</time>
      </trkpt>
      <trkpt lat="43.74335" lon="7.07988">
        <ele>656.79998779297</ele>
        <time>2023-07-30T06:19:49.000Z</time>
      </trkpt>
      <trkpt lat="43.74336" lon="7.07988">
        <ele>657</ele>
        <time>2023-07-30T06:19:50.000Z</time>
      </trkpt>
      <trkpt lat="43.74337" lon="7.07988">
        <ele>657.59997558594</ele>
        <time>2023-07-30T06:19:51.000Z</time>
      </trkpt>
      <trkpt lat="43.74337" lon="7.07988">
        <ele>658.20001220703</ele>
        <time>2023-07-30T06:19:52.000Z</time>
      </trkpt>
      <trkpt lat="43.74337" lon="7.07988">
        <ele>658.59997558594</ele>
        <time>2023-07-30T06:19:53.000Z</time>
      </trkpt>
      <trkpt lat="43.74337" lon="7.07988">
        <ele>659</ele>
        <time>2023-07-30T06:19:54.000Z</time>
      </trkpt>
      <trkpt lat="43.74337" lon="7.07988">
        <ele>659.20001220703</ele>
        <time>2023-07-30T06:19:55.000Z</time>
      </trkpt>
      <trkpt lat="43.74337" lon="7.07988">
        <ele>659.40002441406</ele>
        <time>2023-07-30T06:19:56.000Z</time>
      </trkpt>
      <trkpt lat="43.74338" lon="7.07988">
        <ele>659.40002441406</ele>
        <time>2023-07-30T06:19:57.000Z</time>
      </trkpt>
      <trkpt lat="43.74339" lon="7.07988">
        <ele>659.40002441406</ele>
        <time>2023-07-30T06:19:58.000Z</time>
      </trkpt>
      <trkpt lat="43.74339" lon="7.07989">
        <ele>659.40002441406</ele>
        <time>2023-07-30T06:19:59.000Z</time>
      </trkpt>
      <trkpt lat="43.74339" lon="7.07989">
        <ele>659.59997558594</ele>
        <time>2023-07-30T06:20:00.000Z</time>
      </trkpt>
      <trkpt lat="43.74339" lon="7.07989">
        <ele>659.59997558594</ele>
        <time>2023-07-30T06:20:01.000Z</time>
      </trkpt>
      <trkpt lat="43.74339" lon="7.07989">
        <ele>659.59997558594</ele>
        <time>2023-07-30T06:20:02.000Z</time>
      </trkpt>
      <trkpt lat="43.74339" lon="7.07989">
        <ele>659.79998779297</ele>
        <time>2023-07-30T06:20:03.000Z</time>
      </trkpt>
      <trkpt lat="43.74339" lon="7.07989">
        <ele>660</ele>
        <time>2023-07-30T06:20:04.000Z</time>
      </trkpt>
      <trkpt lat="43.7434" lon="7.0799">
        <ele>660</ele>
        <time>2023-07-30T06:20:05.000Z</time>
      </trkpt>
      <trkpt lat="43.7434" lon="7.07991">
        <ele>660</ele>
        <time>2023-07-30T06:20:06.000Z</time>
      </trkpt>
      <trkpt lat="43.74341" lon="7.07991">
        <ele>660</ele>
        <time>2023-07-30T06:20:07.000Z</time>
      </trkpt>
      <trkpt lat="43.74341" lon="7.07991">
        <ele>660</ele>
        <time>2023-07-30T06:20:08.000Z</time>
      </trkpt>
      <trkpt lat="43.74341" lon="7.07991">
        <ele>660.20001220703</ele>
        <time>2023-07-30T06:20:09.000Z</time>
      </trkpt>
      <trkpt lat="43.74341" lon="7.07991">
        <ele>660.59997558594</ele>
        <time>2023-07-30T06:20:10.000Z</time>
      </trkpt>
      <trkpt lat="43.74341" lon="7.07991">
        <ele>660.59997558594</ele>
        <time>2023-07-30T06:20:11.000Z</time>
      </trkpt>
      <trkpt lat="43.74342" lon="7.07991">
        <ele>660.59997558594</ele>
        <time>2023-07-30T06:20:12.000Z</time>
      </trkpt>
      <trkpt lat="43.74343" lon="7.07991">
        <ele>660.79998779297</ele>
        <time>2023-07-30T06:20:13.000Z</time>
      </trkpt>
      <trkpt lat="43.74344" lon="7.07991">
        <ele>660.79998779297</ele>
        <time>2023-07-30T06:20:14.000Z</time>
      </trkpt>
      <trkpt lat="43.74344" lon="7.07991">
        <ele>661</ele>
        <time>2023-07-30T06:20:15.000Z</time>
      </trkpt>
      <trkpt lat="43.74345" lon="7.07991">
        <ele>661</ele>
        <time>2023-07-30T06:20:16.000Z</time>
      </trkpt>
      <trkpt lat="43.74345" lon="7.07991">
        <ele>661.20001220703</ele>
        <time>2023-07-30T06:20:17.000Z</time>
      </trkpt>
      <trkpt lat="43.74346" lon="7.07991">
        <ele>661.40002441406</ele>
        <time>2023-07-30T06:20:18.000Z</time>
      </trkpt>
      <trkpt lat="43.74347" lon="7.07991">
        <ele>661.59997558594</ele>
        <time>2023-07-30T06:20:19.000Z</time>
      </trkpt>
      <trkpt lat="43.74347" lon="7.07991">
        <ele>661.79998779297</ele>
        <time>2023-07-30T06:20:20.000Z</time>
      </trkpt>
      <trkpt lat="43.74347" lon="7.07991">
        <ele>661.79998779297</ele>
        <time>2023-07-30T06:20:21.000Z</time>
      </trkpt>
      <trkpt lat="43.74347" lon="7.07991">
        <ele>662.20001220703</ele>
        <time>2023-07-30T06:20:22.000Z</time>
      </trkpt>
      <trkpt lat="43.74348" lon="7.07991">
        <ele>662.40002441406</ele>
        <time>2023-07-30T06:20:23.000Z</time>
      </trkpt>
      <trkpt lat="43.74348" lon="7.07991">
        <ele>662.59997558594</ele>
        <time>2023-07-30T06:20:24.000Z</time>
      </trkpt>
      <trkpt lat="43.74348" lon="7.07991">
        <ele>662.79998779297</ele>
        <time>2023-07-30T06:20:25.000Z</time>
      </trkpt>
      <trkpt lat="43.74349" lon="7.07991">
        <ele>663</ele>
        <time>2023-07-30T06:20:26.000Z</time>
      </trkpt>
      <trkpt lat="43.74349" lon="7.07991">
        <ele>663</ele>
        <time>2023-07-30T06:20:27.000Z</time>
      </trkpt>
      <trkpt lat="43.74349" lon="7.07991">
        <ele>663</ele>
        <time>2023-07-30T06:20:28.000Z</time>
      </trkpt>
      <trkpt lat="43.74349" lon="7.07992">
        <ele>663.20001220703</ele>
        <time>2023-07-30T06:20:29.000Z</time>
      </trkpt>
      <trkpt lat="43.74349" lon="7.07992">
        <ele>663.20001220703</ele>
        <time>2023-07-30T06:20:30.000Z</time>
      </trkpt>
      <trkpt lat="43.74349" lon="7.07992">
        <ele>663.20001220703</ele>
        <time>2023-07-30T06:20:31.000Z</time>
      </trkpt>
      <trkpt lat="43.74349" lon="7.07992">
        <ele>663.40002441406</ele>
        <time>2023-07-30T06:20:32.000Z</time>
      </trkpt>
      <trkpt lat="43.74349" lon="7.07992">
        <ele>663.59997558594</ele>
        <time>2023-07-30T06:20:33.000Z</time>
      </trkpt>
      <trkpt lat="43.74349" lon="7.07992">
        <ele>663.59997558594</ele>
        <time>2023-07-30T06:20:34.000Z</time>
      </trkpt>
      <trkpt lat="43.74349" lon="7.07992">
        <ele>663.59997558594</ele>
        <time>2023-07-30T06:20:35.000Z</time>
      </trkpt>
      <trkpt lat="43.7435" lon="7.07992">
        <ele>663.79998779297</ele>
        <time>2023-07-30T06:20:36.000Z</time>
      </trkpt>
      <trkpt lat="43.7435" lon="7.07992">
        <ele>663.79998779297</ele>
        <time>2023-07-30T06:20:37.000Z</time>
      </trkpt>
      <trkpt lat="43.7435" lon="7.07992">
        <ele>663.79998779297</ele>
        <time>2023-07-30T06:20:38.000Z</time>
      </trkpt>
      <trkpt lat="43.74351" lon="7.07992">
        <ele>663.79998779297</ele>
        <time>2023-07-30T06:20:39.000Z</time>
      </trkpt>
      <trkpt lat="43.74352" lon="7.07992">
        <ele>664</ele>
        <time>2023-07-30T06:20:40.000Z</time>
      </trkpt>
      <trkpt lat="43.74353" lon="7.07992">
        <ele>664.20001220703</ele>
        <time>2023-07-30T06:20:41.000Z</time>
      </trkpt>
      <trkpt lat="43.74353" lon="7.07992">
        <ele>664.20001220703</ele>
        <time>2023-07-30T06:20:42.000Z</time>
      </trkpt>
      <trkpt lat="43.74353" lon="7.07992">
        <ele>664.20001220703</ele>
        <time>2023-07-30T06:20:43.000Z</time>
      </trkpt>
      <trkpt lat="43.74353" lon="7.07991">
        <ele>664.40002441406</ele>
        <time>2023-07-30T06:20:44.000Z</time>
      </trkpt>
      <trkpt lat="43.74352" lon="7.07991">
        <ele>664.59997558594</ele>
        <time>2023-07-30T06:20:45.000Z</time>
      </trkpt>
      <trkpt lat="43.74352" lon="7.07991">
        <ele>664.59997558594</ele>
        <time>2023-07-30T06:20:46.000Z</time>
      </trkpt>
      <trkpt lat="43.74352" lon="7.07991">
        <ele>664.79998779297</ele>
        <time>2023-07-30T06:20:47.000Z</time>
      </trkpt>
      <trkpt lat="43.74352" lon="7.07991">
        <ele>664.79998779297</ele>
        <time>2023-07-30T06:20:48.000Z</time>
      </trkpt>
      <trkpt lat="43.74352" lon="7.07991">
        <ele>665</ele>
        <time>2023-07-30T06:20:49.000Z</time>
      </trkpt>
      <trkpt lat="43.74352" lon="7.0799">
        <ele>665</ele>
        <time>2023-07-30T06:20:50.000Z</time>
      </trkpt>
      <trkpt lat="43.74352" lon="7.07989">
        <ele>665</ele>
        <time>2023-07-30T06:20:51.000Z</time>
      </trkpt>
      <trkpt lat="43.74352" lon="7.07989">
        <ele>665</ele>
        <time>2023-07-30T06:20:52.000Z</time>
      </trkpt>
      <trkpt lat="43.74353" lon="7.07988">
        <ele>665</ele>
        <time>2023-07-30T06:20:53.000Z</time>
      </trkpt>
      <trkpt lat="43.74352" lon="7.07988">
        <ele>665</ele>
        <time>2023-07-30T06:20:54.000Z</time>
      </trkpt>
      <trkpt lat="43.74353" lon="7.07988">
        <ele>665.20001220703</ele>
        <time>2023-07-30T06:20:55.000Z</time>
      </trkpt>
      <trkpt lat="43.74353" lon="7.07987">
        <ele>665.20001220703</ele>
        <time>2023-07-30T06:20:56.000Z</time>
      </trkpt>
      <trkpt lat="43.74353" lon="7.07986">
        <ele>665.20001220703</ele>
        <time>2023-07-30T06:20:57.000Z</time>
      </trkpt>
      <trkpt lat="43.74353" lon="7.07985">
        <ele>665.40002441406</ele>
        <time>2023-07-30T06:20:58.000Z</time>
      </trkpt>
      <trkpt lat="43.74354" lon="7.07985">
        <ele>665.40002441406</ele>
        <time>2023-07-30T06:20:59.000Z</time>
      </trkpt>
      <trkpt lat="43.74354" lon="7.07985">
        <ele>665.59997558594</ele>
        <time>2023-07-30T06:21:00.000Z</time>
      </trkpt>
      <trkpt lat="43.74355" lon="7.07985">
        <ele>665.59997558594</ele>
        <time>2023-07-30T06:21:01.000Z</time>
      </trkpt>
      <trkpt lat="43.74355" lon="7.07985">
        <ele>665.79998779297</ele>
        <time>2023-07-30T06:21:02.000Z</time>
      </trkpt>
      <trkpt lat="43.74355" lon="7.07985">
        <ele>665.79998779297</ele>
        <time>2023-07-30T06:21:03.000Z</time>
      </trkpt>
      <trkpt lat="43.74355" lon="7.07985">
        <ele>666</ele>
        <time>2023-07-30T06:21:04.000Z</time>
      </trkpt>
      <trkpt lat="43.74355" lon="7.07985">
        <ele>666</ele>
        <time>2023-07-30T06:21:05.000Z</time>
      </trkpt>
      <trkpt lat="43.74355" lon="7.07985">
        <ele>666</ele>
        <time>2023-07-30T06:21:06.000Z</time>
      </trkpt>
      <trkpt lat="43.74355" lon="7.07985">
        <ele>666</ele>
        <time>2023-07-30T06:21:07.000Z</time>
      </trkpt>
      <trkpt lat="43.74355" lon="7.07985">
        <ele>666</ele>
        <time>2023-07-30T06:21:08.000Z</time>
      </trkpt>
      <trkpt lat="43.74355" lon="7.07985">
        <ele>666</ele>
        <time>2023-07-30T06:21:09.000Z</time>
      </trkpt>
      <trkpt lat="43.74356" lon="7.07985">
        <ele>666</ele>
        <time>2023-07-30T06:21:10.000Z</time>
      </trkpt>
      <trkpt lat="43.74356" lon="7.07985">
        <ele>666</ele>
        <time>2023-07-30T06:21:11.000Z</time>
      </trkpt>
      <trkpt lat="43.74355" lon="7.07985">
        <ele>665.79998779297</ele>
        <time>2023-07-30T06:21:12.000Z</time>
      </trkpt>
      <trkpt lat="43.74355" lon="7.07985">
        <ele>665.79998779297</ele>
        <time>2023-07-30T06:21:13.000Z</time>
      </trkpt>
      <trkpt lat="43.74355" lon="7.07985">
        <ele>665.79998779297</ele>
        <time>2023-07-30T06:21:14.000Z</time>
      </trkpt>
      <trkpt lat="43.74356" lon="7.07985">
        <ele>665.79998779297</ele>
        <time>2023-07-30T06:21:15.000Z</time>
      </trkpt>
      <trkpt lat="43.74356" lon="7.07985">
        <ele>665.79998779297</ele>
        <time>2023-07-30T06:21:16.000Z</time>
      </trkpt>
      <trkpt lat="43.74356" lon="7.07985">
        <ele>665.79998779297</ele>
        <time>2023-07-30T06:21:17.000Z</time>
      </trkpt>
      <trkpt lat="43.74356" lon="7.07985">
        <ele>665.79998779297</ele>
        <time>2023-07-30T06:21:18.000Z</time>
      </trkpt>
      <trkpt lat="43.74356" lon="7.07985">
        <ele>665.79998779297</ele>
        <time>2023-07-30T06:21:19.000Z</time>
      </trkpt>
      <trkpt lat="43.74356" lon="7.07985">
        <ele>665.79998779297</ele>
        <time>2023-07-30T06:21:20.000Z</time>
      </trkpt>
      <trkpt lat="43.74356" lon="7.07985">
        <ele>665.79998779297</ele>
        <time>2023-07-30T06:21:21.000Z</time>
      </trkpt>
      <trkpt lat="43.74356" lon="7.07985">
        <ele>665.79998779297</ele>
        <time>2023-07-30T06:21:22.000Z</time>
      </trkpt>
      <trkpt lat="43.74356" lon="7.07985">
        <ele>665.79998779297</ele>
        <time>2023-07-30T06:21:23.000Z</time>
      </trkpt>
      <trkpt lat="43.74356" lon="7.07985">
        <ele>665.79998779297</ele>
        <time>2023-07-30T06:21:24.000Z</time>
      </trkpt>
      <trkpt lat="43.74356" lon="7.07985">
        <ele>665.79998779297</ele>
        <time>2023-07-30T06:21:25.000Z</time>
      </trkpt>
      <trkpt lat="43.74356" lon="7.07985">
        <ele>665.79998779297</ele>
        <time>2023-07-30T06:21:26.000Z</time>
      </trkpt>
      <trkpt lat="43.74356" lon="7.07985">
        <ele>665.79998779297</ele>
        <time>2023-07-30T06:21:27.000Z</time>
      </trkpt>
      <trkpt lat="43.74356" lon="7.07985">
        <ele>665.79998779297</ele>
        <time>2023-07-30T06:21:28.000Z</time>
      </trkpt>
      <trkpt lat="43.74356" lon="7.07985">
        <ele>665.79998779297</ele>
        <time>2023-07-30T06:21:29.000Z</time>
      </trkpt>
      <trkpt lat="43.74356" lon="7.07985">
        <ele>665.79998779297</ele>
        <time>2023-07-30T06:21:30.000Z</time>
      </trkpt>
      <trkpt lat="43.74356" lon="7.07985">
        <ele>665.79998779297</ele>
        <time>2023-07-30T06:21:31.000Z</time>
      </trkpt>
      <trkpt lat="43.74356" lon="7.07985">
        <ele>665.59997558594</ele>
        <time>2023-07-30T06:21:32.000Z</time>
      </trkpt>
      <trkpt lat="43.74356" lon="7.07985">
        <ele>665.59997558594</ele>
        <time>2023-07-30T06:21:33.000Z</time>
      </trkpt>
      <trkpt lat="43.74356" lon="7.07985">
        <ele>665.59997558594</ele>
        <time>2023-07-30T06:21:34.000Z</time>
      </trkpt>
      <trkpt lat="43.74356" lon="7.07985">
        <ele>665.59997558594</ele>
        <time>2023-07-30T06:21:35.000Z</time>
      </trkpt>
      <trkpt lat="43.74356" lon="7.07985">
        <ele>665.59997558594</ele>
        <time>2023-07-30T06:21:36.000Z</time>
      </trkpt>
      <trkpt lat="43.74356" lon="7.07985">
        <ele>665.79998779297</ele>
        <time>2023-07-30T06:21:37.000Z</time>
      </trkpt>
      <trkpt lat="43.74356" lon="7.07985">
        <ele>665.79998779297</ele>
        <time>2023-07-30T06:21:38.000Z</time>
      </trkpt>
      <trkpt lat="43.74356" lon="7.07985">
        <ele>665.79998779297</ele>
        <time>2023-07-30T06:21:39.000Z</time>
      </trkpt>
      <trkpt lat="43.74356" lon="7.07985">
        <ele>665.79998779297</ele>
        <time>2023-07-30T06:21:40.000Z</time>
      </trkpt>
      <trkpt lat="43.74356" lon="7.07985">
        <ele>665.79998779297</ele>
        <time>2023-07-30T06:21:41.000Z</time>
      </trkpt>
      <trkpt lat="43.74356" lon="7.07985">
        <ele>665.79998779297</ele>
        <time>2023-07-30T06:21:42.000Z</time>
      </trkpt>
      <trkpt lat="43.74356" lon="7.07985">
        <ele>665.59997558594</ele>
        <time>2023-07-30T06:21:43.000Z</time>
      </trkpt>
      <trkpt lat="43.74356" lon="7.07985">
        <ele>665.59997558594</ele>
        <time>2023-07-30T06:21:44.000Z</time>
      </trkpt>
      <trkpt lat="43.74356" lon="7.07985">
        <ele>665.59997558594</ele>
        <time>2023-07-30T06:21:45.000Z</time>
      </trkpt>
      <trkpt lat="43.74356" lon="7.07985">
        <ele>665.59997558594</ele>
        <time>2023-07-30T06:21:46.000Z</time>
      </trkpt>
      <trkpt lat="43.74356" lon="7.07985">
        <ele>665.59997558594</ele>
        <time>2023-07-30T06:21:47.000Z</time>
      </trkpt>
      <trkpt lat="43.74356" lon="7.07985">
        <ele>665.59997558594</ele>
        <time>2023-07-30T06:21:48.000Z</time>
      </trkpt>
      <trkpt lat="43.74355" lon="7.07985">
        <ele>665.59997558594</ele>
        <time>2023-07-30T06:21:49.000Z</time>
      </trkpt>
      <trkpt lat="43.74355" lon="7.07985">
        <ele>665.59997558594</ele>
        <time>2023-07-30T06:21:50.000Z</time>
      </trkpt>
      <trkpt lat="43.74355" lon="7.07985">
        <ele>665.59997558594</ele>
        <time>2023-07-30T06:21:51.000Z</time>
      </trkpt>
      <trkpt lat="43.74355" lon="7.07985">
        <ele>665.59997558594</ele>
        <time>2023-07-30T06:21:52.000Z</time>
      </trkpt>
      <trkpt lat="43.74355" lon="7.07985">
        <ele>665.59997558594</ele>
        <time>2023-07-30T06:21:53.000Z</time>
      </trkpt>
      <trkpt lat="43.74355" lon="7.07985">
        <ele>665.59997558594</ele>
        <time>2023-07-30T06:21:54.000Z</time>
      </trkpt>
      <trkpt lat="43.74355" lon="7.07985">
        <ele>665.40002441406</ele>
        <time>2023-07-30T06:21:55.000Z</time>
      </trkpt>
      <trkpt lat="43.74355" lon="7.07985">
        <ele>665.40002441406</ele>
        <time>2023-07-30T06:21:56.000Z</time>
      </trkpt>
      <trkpt lat="43.74355" lon="7.07985">
        <ele>665.40002441406</ele>
        <time>2023-07-30T06:21:57.000Z</time>
      </trkpt>
      <trkpt lat="43.74355" lon="7.07985">
        <ele>665.40002441406</ele>
        <time>2023-07-30T06:21:58.000Z</time>
      </trkpt>
      <trkpt lat="43.74355" lon="7.07985">
        <ele>665.40002441406</ele>
        <time>2023-07-30T06:21:59.000Z</time>
      </trkpt>
      <trkpt lat="43.74355" lon="7.07985">
        <ele>665.40002441406</ele>
        <time>2023-07-30T06:22:00.000Z</time>
      </trkpt>
      <trkpt lat="43.74355" lon="7.07985">
        <ele>665.40002441406</ele>
        <time>2023-07-30T06:22:01.000Z</time>
      </trkpt>
      <trkpt lat="43.74355" lon="7.07985">
        <ele>665.40002441406</ele>
        <time>2023-07-30T06:22:02.000Z</time>
      </trkpt>
      <trkpt lat="43.74355" lon="7.07985">
        <ele>665.40002441406</ele>
        <time>2023-07-30T06:22:03.000Z</time>
      </trkpt>
      <trkpt lat="43.74355" lon="7.07985">
        <ele>665.40002441406</ele>
        <time>2023-07-30T06:22:04.000Z</time>
      </trkpt>
      <trkpt lat="43.74355" lon="7.07985">
        <ele>665.40002441406</ele>
        <time>2023-07-30T06:22:05.000Z</time>
      </trkpt>
      <trkpt lat="43.74355" lon="7.07985">
        <ele>665.40002441406</ele>
        <time>2023-07-30T06:22:06.000Z</time>
      </trkpt>
      <trkpt lat="43.74355" lon="7.07985">
        <ele>665.40002441406</ele>
        <time>2023-07-30T06:22:07.000Z</time>
      </trkpt>
      <trkpt lat="43.74355" lon="7.07985">
        <ele>665.40002441406</ele>
        <time>2023-07-30T06:22:08.000Z</time>
      </trkpt>
      <trkpt lat="43.74355" lon="7.07985">
        <ele>665.40002441406</ele>
        <time>2023-07-30T06:22:09.000Z</time>
      </trkpt>
      <trkpt lat="43.74355" lon="7.07985">
        <ele>665.40002441406</ele>
        <time>2023-07-30T06:22:10.000Z</time>
      </trkpt>
      <trkpt lat="43.74355" lon="7.07985">
        <ele>665.40002441406</ele>
        <time>2023-07-30T06:22:11.000Z</time>
      </trkpt>
      <trkpt lat="43.74355" lon="7.07985">
        <ele>665.40002441406</ele>
        <time>2023-07-30T06:22:12.000Z</time>
      </trkpt>
      <trkpt lat="43.74355" lon="7.07985">
        <ele>665.40002441406</ele>
        <time>2023-07-30T06:22:13.000Z</time>
      </trkpt>
      <trkpt lat="43.74355" lon="7.07985">
        <ele>665.40002441406</ele>
        <time>2023-07-30T06:22:14.000Z</time>
      </trkpt>
      <trkpt lat="43.74355" lon="7.07985">
        <ele>665.20001220703</ele>
        <time>2023-07-30T06:22:15.000Z</time>
      </trkpt>
      <trkpt lat="43.74355" lon="7.07985">
        <ele>665.20001220703</ele>
        <time>2023-07-30T06:22:16.000Z</time>
      </trkpt>
      <trkpt lat="43.74355" lon="7.07985">
        <ele>665.20001220703</ele>
        <time>2023-07-30T06:22:17.000Z</time>
      </trkpt>
      <trkpt lat="43.74355" lon="7.07985">
        <ele>665.20001220703</ele>
        <time>2023-07-30T06:22:18.000Z</time>
      </trkpt>
      <trkpt lat="43.74355" lon="7.07985">
        <ele>665.20001220703</ele>
        <time>2023-07-30T06:22:19.000Z</time>
      </trkpt>
      <trkpt lat="43.74355" lon="7.07985">
        <ele>665.20001220703</ele>
        <time>2023-07-30T06:22:20.000Z</time>
      </trkpt>
      <trkpt lat="43.74355" lon="7.07985">
        <ele>665.20001220703</ele>
        <time>2023-07-30T06:22:21.000Z</time>
      </trkpt>
      <trkpt lat="43.74355" lon="7.07985">
        <ele>665.20001220703</ele>
        <time>2023-07-30T06:22:22.000Z</time>
      </trkpt>
      <trkpt lat="43.74355" lon="7.07985">
        <ele>665.20001220703</ele>
        <time>2023-07-30T06:22:23.000Z</time>
      </trkpt>
      <trkpt lat="43.74355" lon="7.07985">
        <ele>665.20001220703</ele>
        <time>2023-07-30T06:22:24.000Z</time>
      </trkpt>
      <trkpt lat="43.74355" lon="7.07985">
        <ele>665.20001220703</ele>
        <time>2023-07-30T06:22:25.000Z</time>
      </trkpt>
      <trkpt lat="43.74355" lon="7.07985">
        <ele>665.20001220703</ele>
        <time>2023-07-30T06:22:26.000Z</time>
      </trkpt>
      <trkpt lat="43.74355" lon="7.07985">
        <ele>665.20001220703</ele>
        <time>2023-07-30T06:22:27.000Z</time>
      </trkpt>
      <trkpt lat="43.74355" lon="7.07985">
        <ele>665.20001220703</ele>
        <time>2023-07-30T06:22:28.000Z</time>
      </trkpt>
      <trkpt lat="43.74355" lon="7.07985">
        <ele>665.20001220703</ele>
        <time>2023-07-30T06:22:29.000Z</time>
      </trkpt>
      <trkpt lat="43.74355" lon="7.07985">
        <ele>665.20001220703</ele>
        <time>2023-07-30T06:22:30.000Z</time>
      </trkpt>
      <trkpt lat="43.74355" lon="7.07985">
        <ele>665.20001220703</ele>
        <time>2023-07-30T06:22:31.000Z</time>
      </trkpt>
      <trkpt lat="43.74355" lon="7.07985">
        <ele>665.20001220703</ele>
        <time>2023-07-30T06:22:32.000Z</time>
      </trkpt>
      <trkpt lat="43.74355" lon="7.07985">
        <ele>665.20001220703</ele>
        <time>2023-07-30T06:22:33.000Z</time>
      </trkpt>
      <trkpt lat="43.74355" lon="7.07985">
        <ele>665.20001220703</ele>
        <time>2023-07-30T06:22:34.000Z</time>
      </trkpt>
      <trkpt lat="43.74355" lon="7.07985">
        <ele>665.20001220703</ele>
        <time>2023-07-30T06:22:35.000Z</time>
      </trkpt>
      <trkpt lat="43.74355" lon="7.07985">
        <ele>665.20001220703</ele>
        <time>2023-07-30T06:22:36.000Z</time>
      </trkpt>
      <trkpt lat="43.74355" lon="7.07985">
        <ele>665.20001220703</ele>
        <time>2023-07-30T06:22:37.000Z</time>
      </trkpt>
      <trkpt lat="43.74355" lon="7.07985">
        <ele>665.20001220703</ele>
        <time>2023-07-30T06:22:38.000Z</time>
      </trkpt>
      <trkpt lat="43.74355" lon="7.07985">
        <ele>665.20001220703</ele>
        <time>2023-07-30T06:22:39.000Z</time>
      </trkpt>
      <trkpt lat="43.74355" lon="7.07985">
        <ele>665.20001220703</ele>
        <time>2023-07-30T06:22:40.000Z</time>
      </trkpt>
      <trkpt lat="43.74355" lon="7.07985">
        <ele>665.20001220703</ele>
        <time>2023-07-30T06:22:41.000Z</time>
      </trkpt>
      <trkpt lat="43.74355" lon="7.07985">
        <ele>665.20001220703</ele>
        <time>2023-07-30T06:22:42.000Z</time>
      </trkpt>
      <trkpt lat="43.74355" lon="7.07985">
        <ele>665.20001220703</ele>
        <time>2023-07-30T06:22:43.000Z</time>
      </trkpt>
      <trkpt lat="43.74355" lon="7.07985">
        <ele>665.20001220703</ele>
        <time>2023-07-30T06:22:44.000Z</time>
      </trkpt>
      <trkpt lat="43.74355" lon="7.07985">
        <ele>665.20001220703</ele>
        <time>2023-07-30T06:22:45.000Z</time>
      </trkpt>
      <trkpt lat="43.74355" lon="7.07985">
        <ele>665.20001220703</ele>
        <time>2023-07-30T06:22:46.000Z</time>
      </trkpt>
      <trkpt lat="43.74355" lon="7.07985">
        <ele>665.20001220703</ele>
        <time>2023-07-30T06:22:47.000Z</time>
      </trkpt>
      <trkpt lat="43.74355" lon="7.07985">
        <ele>665.20001220703</ele>
        <time>2023-07-30T06:22:48.000Z</time>
      </trkpt>
      <trkpt lat="43.74355" lon="7.07985">
        <ele>665.20001220703</ele>
        <time>2023-07-30T06:22:49.000Z</time>
      </trkpt>
      <trkpt lat="43.74355" lon="7.07985">
        <ele>665.20001220703</ele>
        <time>2023-07-30T06:22:50.000Z</time>
      </trkpt>
      <trkpt lat="43.74355" lon="7.07985">
        <ele>665.20001220703</ele>
        <time>2023-07-30T06:22:51.000Z</time>
      </trkpt>
      <trkpt lat="43.74355" lon="7.07985">
        <ele>665.20001220703</ele>
        <time>2023-07-30T06:22:52.000Z</time>
      </trkpt>
      <trkpt lat="43.74355" lon="7.07985">
        <ele>665.20001220703</ele>
        <time>2023-07-30T06:22:53.000Z</time>
      </trkpt>
      <trkpt lat="43.74355" lon="7.07985">
        <ele>665.20001220703</ele>
        <time>2023-07-30T06:22:54.000Z</time>
      </trkpt>
      <trkpt lat="43.74355" lon="7.07985">
        <ele>665.20001220703</ele>
        <time>2023-07-30T06:22:55.000Z</time>
      </trkpt>
      <trkpt lat="43.74355" lon="7.07985">
        <ele>665.20001220703</ele>
        <time>2023-07-30T06:22:56.000Z</time>
      </trkpt>
      <trkpt lat="43.74355" lon="7.07985">
        <ele>665.20001220703</ele>
        <time>2023-07-30T06:22:57.000Z</time>
      </trkpt>
      <trkpt lat="43.74355" lon="7.07985">
        <ele>665.20001220703</ele>
        <time>2023-07-30T06:22:58.000Z</time>
      </trkpt>
      <trkpt lat="43.74355" lon="7.07985">
        <ele>665.20001220703</ele>
        <time>2023-07-30T06:22:59.000Z</time>
      </trkpt>
      <trkpt lat="43.74355" lon="7.07985">
        <ele>665.20001220703</ele>
        <time>2023-07-30T06:23:00.000Z</time>
      </trkpt>
      <trkpt lat="43.74355" lon="7.07985">
        <ele>665.20001220703</ele>
        <time>2023-07-30T06:23:01.000Z</time>
      </trkpt>
      <trkpt lat="43.74355" lon="7.07985">
        <ele>665.20001220703</ele>
        <time>2023-07-30T06:23:02.000Z</time>
      </trkpt>
      <trkpt lat="43.74355" lon="7.07985">
        <ele>665.20001220703</ele>
        <time>2023-07-30T06:23:03.000Z</time>
      </trkpt>
      <trkpt lat="43.74355" lon="7.07985">
        <ele>665.20001220703</ele>
        <time>2023-07-30T06:23:04.000Z</time>
      </trkpt>
      <trkpt lat="43.74355" lon="7.07985">
        <ele>665.20001220703</ele>
        <time>2023-07-30T06:23:05.000Z</time>
      </trkpt>
      <trkpt lat="43.74356" lon="7.07985">
        <ele>665.20001220703</ele>
        <time>2023-07-30T06:23:06.000Z</time>
      </trkpt>
      <trkpt lat="43.74356" lon="7.07985">
        <ele>665.20001220703</ele>
        <time>2023-07-30T06:23:07.000Z</time>
      </trkpt>
      <trkpt lat="43.74356" lon="7.07985">
        <ele>665.20001220703</ele>
        <time>2023-07-30T06:23:08.000Z</time>
      </trkpt>
      <trkpt lat="43.74356" lon="7.07985">
        <ele>665.20001220703</ele>
        <time>2023-07-30T06:23:09.000Z</time>
      </trkpt>
      <trkpt lat="43.74356" lon="7.07985">
        <ele>665.20001220703</ele>
        <time>2023-07-30T06:23:10.000Z</time>
      </trkpt>
      <trkpt lat="43.74356" lon="7.07985">
        <ele>665.20001220703</ele>
        <time>2023-07-30T06:23:11.000Z</time>
      </trkpt>
      <trkpt lat="43.74356" lon="7.07985">
        <ele>665.20001220703</ele>
        <time>2023-07-30T06:23:12.000Z</time>
      </trkpt>
      <trkpt lat="43.74356" lon="7.07985">
        <ele>665.20001220703</ele>
        <time>2023-07-30T06:23:13.000Z</time>
      </trkpt>
      <trkpt lat="43.74356" lon="7.07985">
        <ele>665.20001220703</ele>
        <time>2023-07-30T06:23:14.000Z</time>
      </trkpt>
      <trkpt lat="43.74355" lon="7.07985">
        <ele>665.20001220703</ele>
        <time>2023-07-30T06:23:15.000Z</time>
      </trkpt>
      <trkpt lat="43.74355" lon="7.07985">
        <ele>665.20001220703</ele>
        <time>2023-07-30T06:23:16.000Z</time>
      </trkpt>
      <trkpt lat="43.74355" lon="7.07985">
        <ele>665.20001220703</ele>
        <time>2023-07-30T06:23:17.000Z</time>
      </trkpt>
      <trkpt lat="43.74355" lon="7.07985">
        <ele>665.20001220703</ele>
        <time>2023-07-30T06:23:18.000Z</time>
      </trkpt>
      <trkpt lat="43.74355" lon="7.07985">
        <ele>665.20001220703</ele>
        <time>2023-07-30T06:23:19.000Z</time>
      </trkpt>
      <trkpt lat="43.74355" lon="7.07985">
        <ele>665.20001220703</ele>
        <time>2023-07-30T06:23:20.000Z</time>
      </trkpt>
      <trkpt lat="43.74355" lon="7.07985">
        <ele>665.20001220703</ele>
        <time>2023-07-30T06:23:21.000Z</time>
      </trkpt>
      <trkpt lat="43.74355" lon="7.07985">
        <ele>665.20001220703</ele>
        <time>2023-07-30T06:23:22.000Z</time>
      </trkpt>
      <trkpt lat="43.74355" lon="7.07985">
        <ele>665.20001220703</ele>
        <time>2023-07-30T06:23:23.000Z</time>
      </trkpt>
      <trkpt lat="43.74355" lon="7.07985">
        <ele>665.20001220703</ele>
        <time>2023-07-30T06:23:24.000Z</time>
      </trkpt>
      <trkpt lat="43.74356" lon="7.07985">
        <ele>665.20001220703</ele>
        <time>2023-07-30T06:23:25.000Z</time>
      </trkpt>
      <trkpt lat="43.74356" lon="7.07985">
        <ele>665.20001220703</ele>
        <time>2023-07-30T06:23:26.000Z</time>
      </trkpt>
      <trkpt lat="43.74356" lon="7.07985">
        <ele>665.20001220703</ele>
        <time>2023-07-30T06:23:27.000Z</time>
      </trkpt>
      <trkpt lat="43.74356" lon="7.07985">
        <ele>665.20001220703</ele>
        <time>2023-07-30T06:23:28.000Z</time>
      </trkpt>
      <trkpt lat="43.74356" lon="7.07985">
        <ele>665.20001220703</ele>
        <time>2023-07-30T06:23:29.000Z</time>
      </trkpt>
      <trkpt lat="43.74356" lon="7.07985">
        <ele>665.20001220703</ele>
        <time>2023-07-30T06:23:30.000Z</time>
      </trkpt>
      <trkpt lat="43.74356" lon="7.07985">
        <ele>665.20001220703</ele>
        <time>2023-07-30T06:23:31.000Z</time>
      </trkpt>
      <trkpt lat="43.74355" lon="7.07985">
        <ele>665.20001220703</ele>
        <time>2023-07-30T06:23:32.000Z</time>
      </trkpt>
      <trkpt lat="43.74355" lon="7.07985">
        <ele>665.20001220703</ele>
        <time>2023-07-30T06:23:33.000Z</time>
      </trkpt>
      <trkpt lat="43.74355" lon="7.07985">
        <ele>665.20001220703</ele>
        <time>2023-07-30T06:23:34.000Z</time>
      </trkpt>
      <trkpt lat="43.74355" lon="7.07985">
        <ele>665.20001220703</ele>
        <time>2023-07-30T06:23:35.000Z</time>
      </trkpt>
      <trkpt lat="43.74355" lon="7.07985">
        <ele>665.20001220703</ele>
        <time>2023-07-30T06:23:36.000Z</time>
      </trkpt>
      <trkpt lat="43.74355" lon="7.07985">
        <ele>665.20001220703</ele>
        <time>2023-07-30T06:23:37.000Z</time>
      </trkpt>
      <trkpt lat="43.74356" lon="7.07985">
        <ele>665.20001220703</ele>
        <time>2023-07-30T06:23:38.000Z</time>
      </trkpt>
      <trkpt lat="43.74356" lon="7.07985">
        <ele>665.20001220703</ele>
        <time>2023-07-30T06:23:39.000Z</time>
      </trkpt>
      <trkpt lat="43.74355" lon="7.07985">
        <ele>665.20001220703</ele>
        <time>2023-07-30T06:23:40.000Z</time>
      </trkpt>
      <trkpt lat="43.74355" lon="7.07985">
        <ele>665.20001220703</ele>
        <time>2023-07-30T06:23:41.000Z</time>
      </trkpt>
      <trkpt lat="43.74356" lon="7.07985">
        <ele>665.20001220703</ele>
        <time>2023-07-30T06:23:42.000Z</time>
      </trkpt>
      <trkpt lat="43.74356" lon="7.07985">
        <ele>665.20001220703</ele>
        <time>2023-07-30T06:23:43.000Z</time>
      </trkpt>
      <trkpt lat="43.74356" lon="7.07985">
        <ele>665.20001220703</ele>
        <time>2023-07-30T06:23:44.000Z</time>
      </trkpt>
      <trkpt lat="43.74356" lon="7.07985">
        <ele>665.20001220703</ele>
        <time>2023-07-30T06:23:45.000Z</time>
      </trkpt>
      <trkpt lat="43.74356" lon="7.07985">
        <ele>665.20001220703</ele>
        <time>2023-07-30T06:23:46.000Z</time>
      </trkpt>
      <trkpt lat="43.74356" lon="7.07985">
        <ele>665.20001220703</ele>
        <time>2023-07-30T06:23:47.000Z</time>
      </trkpt>
      <trkpt lat="43.74356" lon="7.07985">
        <ele>665.20001220703</ele>
        <time>2023-07-30T06:23:48.000Z</time>
      </trkpt>
      <trkpt lat="43.74355" lon="7.07985">
        <ele>665.20001220703</ele>
        <time>2023-07-30T06:23:49.000Z</time>
      </trkpt>
      <trkpt lat="43.74355" lon="7.07985">
        <ele>665.20001220703</ele>
        <time>2023-07-30T06:23:50.000Z</time>
      </trkpt>
      <trkpt lat="43.74355" lon="7.07985">
        <ele>665.20001220703</ele>
        <time>2023-07-30T06:23:51.000Z</time>
      </trkpt>
      <trkpt lat="43.74355" lon="7.07985">
        <ele>665.20001220703</ele>
        <time>2023-07-30T06:23:52.000Z</time>
      </trkpt>
      <trkpt lat="43.74355" lon="7.07985">
        <ele>665.20001220703</ele>
        <time>2023-07-30T06:23:53.000Z</time>
      </trkpt>
      <trkpt lat="43.74355" lon="7.07985">
        <ele>665.20001220703</ele>
        <time>2023-07-30T06:23:54.000Z</time>
      </trkpt>
      <trkpt lat="43.74356" lon="7.07985">
        <ele>665.20001220703</ele>
        <time>2023-07-30T06:23:55.000Z</time>
      </trkpt>
      <trkpt lat="43.74355" lon="7.07985">
        <ele>665.20001220703</ele>
        <time>2023-07-30T06:23:56.000Z</time>
      </trkpt>
      <trkpt lat="43.74355" lon="7.07985">
        <ele>665.20001220703</ele>
        <time>2023-07-30T06:23:57.000Z</time>
      </trkpt>
      <trkpt lat="43.74355" lon="7.07985">
        <ele>665.20001220703</ele>
        <time>2023-07-30T06:23:58.000Z</time>
      </trkpt>
      <trkpt lat="43.74355" lon="7.07985">
        <ele>665.20001220703</ele>
        <time>2023-07-30T06:23:59.000Z</time>
      </trkpt>
      <trkpt lat="43.74355" lon="7.07985">
        <ele>665.20001220703</ele>
        <time>2023-07-30T06:24:00.000Z</time>
      </trkpt>
      <trkpt lat="43.74355" lon="7.07985">
        <ele>665.20001220703</ele>
        <time>2023-07-30T06:24:01.000Z</time>
      </trkpt>
      <trkpt lat="43.74355" lon="7.07985">
        <ele>665.20001220703</ele>
        <time>2023-07-30T06:24:02.000Z</time>
      </trkpt>
      <trkpt lat="43.74355" lon="7.07985">
        <ele>665.20001220703</ele>
        <time>2023-07-30T06:24:03.000Z</time>
      </trkpt>
      <trkpt lat="43.74355" lon="7.07985">
        <ele>665.20001220703</ele>
        <time>2023-07-30T06:24:04.000Z</time>
      </trkpt>
      <trkpt lat="43.74355" lon="7.07985">
        <ele>665.20001220703</ele>
        <time>2023-07-30T06:24:05.000Z</time>
      </trkpt>
      <trkpt lat="43.74355" lon="7.07985">
        <ele>665.20001220703</ele>
        <time>2023-07-30T06:24:06.000Z</time>
      </trkpt>
      <trkpt lat="43.74355" lon="7.07985">
        <ele>665.20001220703</ele>
        <time>2023-07-30T06:24:07.000Z</time>
      </trkpt>
      <trkpt lat="43.74355" lon="7.07985">
        <ele>665.20001220703</ele>
        <time>2023-07-30T06:24:08.000Z</time>
      </trkpt>
      <trkpt lat="43.74355" lon="7.07985">
        <ele>665.20001220703</ele>
        <time>2023-07-30T06:24:09.000Z</time>
      </trkpt>
      <trkpt lat="43.74355" lon="7.07985">
        <ele>665.20001220703</ele>
        <time>2023-07-30T06:24:10.000Z</time>
      </trkpt>
      <trkpt lat="43.74355" lon="7.07985">
        <ele>665.20001220703</ele>
        <time>2023-07-30T06:24:11.000Z</time>
      </trkpt>
      <trkpt lat="43.74355" lon="7.07985">
        <ele>665.20001220703</ele>
        <time>2023-07-30T06:24:12.000Z</time>
      </trkpt>
      <trkpt lat="43.74355" lon="7.07985">
        <ele>665.20001220703</ele>
        <time>2023-07-30T06:24:13.000Z</time>
      </trkpt>
      <trkpt lat="43.74355" lon="7.07985">
        <ele>665.20001220703</ele>
        <time>2023-07-30T06:24:14.000Z</time>
      </trkpt>
      <trkpt lat="43.74355" lon="7.07985">
        <ele>665.20001220703</ele>
        <time>2023-07-30T06:24:15.000Z</time>
      </trkpt>
      <trkpt lat="43.74356" lon="7.07985">
        <ele>665.20001220703</ele>
        <time>2023-07-30T06:24:16.000Z</time>
      </trkpt>
      <trkpt lat="43.74356" lon="7.07985">
        <ele>665.20001220703</ele>
        <time>2023-07-30T06:24:17.000Z</time>
      </trkpt>
      <trkpt lat="43.74356" lon="7.07985">
        <ele>665.20001220703</ele>
        <time>2023-07-30T06:24:18.000Z</time>
      </trkpt>
      <trkpt lat="43.74356" lon="7.07985">
        <ele>665.20001220703</ele>
        <time>2023-07-30T06:24:19.000Z</time>
      </trkpt>
      <trkpt lat="43.74356" lon="7.07985">
        <ele>665.20001220703</ele>
        <time>2023-07-30T06:24:20.000Z</time>
      </trkpt>
      <trkpt lat="43.74356" lon="7.07985">
        <ele>665.20001220703</ele>
        <time>2023-07-30T06:24:21.000Z</time>
      </trkpt>
      <trkpt lat="43.74355" lon="7.07985">
        <ele>665.20001220703</ele>
        <time>2023-07-30T06:24:22.000Z</time>
      </trkpt>
      <trkpt lat="43.74355" lon="7.07985">
        <ele>665.20001220703</ele>
        <time>2023-07-30T06:24:23.000Z</time>
      </trkpt>
      <trkpt lat="43.74355" lon="7.07985">
        <ele>665.20001220703</ele>
        <time>2023-07-30T06:24:24.000Z</time>
      </trkpt>
      <trkpt lat="43.74355" lon="7.07985">
        <ele>665.20001220703</ele>
        <time>2023-07-30T06:24:25.000Z</time>
      </trkpt>
      <trkpt lat="43.74355" lon="7.07985">
        <ele>665.20001220703</ele>
        <time>2023-07-30T06:24:26.000Z</time>
      </trkpt>
      <trkpt lat="43.74355" lon="7.07985">
        <ele>665.20001220703</ele>
        <time>2023-07-30T06:24:27.000Z</time>
      </trkpt>
      <trkpt lat="43.74355" lon="7.07985">
        <ele>665.20001220703</ele>
        <time>2023-07-30T06:24:28.000Z</time>
      </trkpt>
      <trkpt lat="43.74355" lon="7.07985">
        <ele>665.20001220703</ele>
        <time>2023-07-30T06:24:29.000Z</time>
      </trkpt>
      <trkpt lat="43.74355" lon="7.07985">
        <ele>665.20001220703</ele>
        <time>2023-07-30T06:24:30.000Z</time>
      </trkpt>
      <trkpt lat="43.74355" lon="7.07985">
        <ele>665.20001220703</ele>
        <time>2023-07-30T06:24:31.000Z</time>
      </trkpt>
      <trkpt lat="43.74355" lon="7.07985">
        <ele>665.20001220703</ele>
        <time>2023-07-30T06:24:32.000Z</time>
      </trkpt>
      <trkpt lat="43.74355" lon="7.07985">
        <ele>665.20001220703</ele>
        <time>2023-07-30T06:24:33.000Z</time>
      </trkpt>
      <trkpt lat="43.74355" lon="7.07985">
        <ele>665.20001220703</ele>
        <time>2023-07-30T06:24:34.000Z</time>
      </trkpt>
      <trkpt lat="43.74355" lon="7.07985">
        <ele>665.20001220703</ele>
        <time>2023-07-30T06:24:35.000Z</time>
      </trkpt>
      <trkpt lat="43.74355" lon="7.07985">
        <ele>665.20001220703</ele>
        <time>2023-07-30T06:24:36.000Z</time>
      </trkpt>
      <trkpt lat="43.74355" lon="7.07985">
        <ele>665.20001220703</ele>
        <time>2023-07-30T06:24:37.000Z</time>
      </trkpt>
      <trkpt lat="43.74355" lon="7.07985">
        <ele>665.20001220703</ele>
        <time>2023-07-30T06:24:38.000Z</time>
      </trkpt>
      <trkpt lat="43.74355" lon="7.07985">
        <ele>665.20001220703</ele>
        <time>2023-07-30T06:24:39.000Z</time>
      </trkpt>
      <trkpt lat="43.74355" lon="7.07985">
        <ele>665.20001220703</ele>
        <time>2023-07-30T06:24:40.000Z</time>
      </trkpt>
      <trkpt lat="43.74355" lon="7.07985">
        <ele>665.20001220703</ele>
        <time>2023-07-30T06:24:41.000Z</time>
      </trkpt>
      <trkpt lat="43.74355" lon="7.07985">
        <ele>665.20001220703</ele>
        <time>2023-07-30T06:24:42.000Z</time>
      </trkpt>
      <trkpt lat="43.74355" lon="7.07985">
        <ele>665.20001220703</ele>
        <time>2023-07-30T06:24:43.000Z</time>
      </trkpt>
      <trkpt lat="43.74355" lon="7.07985">
        <ele>665.20001220703</ele>
        <time>2023-07-30T06:24:44.000Z</time>
      </trkpt>
      <trkpt lat="43.74355" lon="7.07985">
        <ele>665.20001220703</ele>
        <time>2023-07-30T06:24:45.000Z</time>
      </trkpt>
      <trkpt lat="43.74355" lon="7.07985">
        <ele>665.20001220703</ele>
        <time>2023-07-30T06:24:46.000Z</time>
      </trkpt>
      <trkpt lat="43.74355" lon="7.07985">
        <ele>665.20001220703</ele>
        <time>2023-07-30T06:24:47.000Z</time>
      </trkpt>
      <trkpt lat="43.74355" lon="7.07985">
        <ele>665.20001220703</ele>
        <time>2023-07-30T06:24:48.000Z</time>
      </trkpt>
      <trkpt lat="43.74355" lon="7.07985">
        <ele>665.20001220703</ele>
        <time>2023-07-30T06:24:49.000Z</time>
      </trkpt>
      <trkpt lat="43.74355" lon="7.07985">
        <ele>665.20001220703</ele>
        <time>2023-07-30T06:24:50.000Z</time>
      </trkpt>
      <trkpt lat="43.74355" lon="7.07985">
        <ele>665.20001220703</ele>
        <time>2023-07-30T06:24:51.000Z</time>
      </trkpt>
      <trkpt lat="43.74356" lon="7.07985">
        <ele>665.20001220703</ele>
        <time>2023-07-30T06:24:52.000Z</time>
      </trkpt>
      <trkpt lat="43.74356" lon="7.07985">
        <ele>665.20001220703</ele>
        <time>2023-07-30T06:24:53.000Z</time>
      </trkpt>
      <trkpt lat="43.74356" lon="7.07985">
        <ele>665.20001220703</ele>
        <time>2023-07-30T06:24:54.000Z</time>
      </trkpt>
      <trkpt lat="43.74355" lon="7.07985">
        <ele>665.20001220703</ele>
        <time>2023-07-30T06:24:55.000Z</time>
      </trkpt>
      <trkpt lat="43.74355" lon="7.07984">
        <ele>665.20001220703</ele>
        <time>2023-07-30T06:24:56.000Z</time>
      </trkpt>
      <trkpt lat="43.74355" lon="7.07984">
        <ele>665.20001220703</ele>
        <time>2023-07-30T06:24:57.000Z</time>
      </trkpt>
      <trkpt lat="43.74355" lon="7.07984">
        <ele>665.20001220703</ele>
        <time>2023-07-30T06:24:58.000Z</time>
      </trkpt>
      <trkpt lat="43.74355" lon="7.07984">
        <ele>665.20001220703</ele>
        <time>2023-07-30T06:24:59.000Z</time>
      </trkpt>
      <trkpt lat="43.74356" lon="7.07984">
        <ele>665.20001220703</ele>
        <time>2023-07-30T06:25:00.000Z</time>
      </trkpt>
      <trkpt lat="43.74355" lon="7.07984">
        <ele>665.20001220703</ele>
        <time>2023-07-30T06:25:01.000Z</time>
      </trkpt>
      <trkpt lat="43.74355" lon="7.07984">
        <ele>665.20001220703</ele>
        <time>2023-07-30T06:25:02.000Z</time>
      </trkpt>
      <trkpt lat="43.74355" lon="7.07984">
        <ele>665.20001220703</ele>
        <time>2023-07-30T06:25:03.000Z</time>
      </trkpt>
      <trkpt lat="43.74355" lon="7.07984">
        <ele>665.20001220703</ele>
        <time>2023-07-30T06:25:04.000Z</time>
      </trkpt>
      <trkpt lat="43.74356" lon="7.07984">
        <ele>665.20001220703</ele>
        <time>2023-07-30T06:25:05.000Z</time>
      </trkpt>
      <trkpt lat="43.74357" lon="7.07982">
        <ele>665.20001220703</ele>
        <time>2023-07-30T06:25:06.000Z</time>
      </trkpt>
      <trkpt lat="43.74358" lon="7.07982">
        <ele>665.20001220703</ele>
        <time>2023-07-30T06:25:07.000Z</time>
      </trkpt>
      <trkpt lat="43.74358" lon="7.07982">
        <ele>665.20001220703</ele>
        <time>2023-07-30T06:25:08.000Z</time>
      </trkpt>
      <trkpt lat="43.74359" lon="7.07982">
        <ele>665.20001220703</ele>
        <time>2023-07-30T06:25:09.000Z</time>
      </trkpt>
      <trkpt lat="43.74359" lon="7.07981">
        <ele>665.20001220703</ele>
        <time>2023-07-30T06:25:10.000Z</time>
      </trkpt>
      <trkpt lat="43.7436" lon="7.07981">
        <ele>665.20001220703</ele>
        <time>2023-07-30T06:25:11.000Z</time>
      </trkpt>
      <trkpt lat="43.7436" lon="7.07981">
        <ele>667.20001220703</ele>
        <time>2023-07-30T06:25:12.000Z</time>
      </trkpt>
      <trkpt lat="43.74361" lon="7.0798">
        <ele>667.59997558594</ele>
        <time>2023-07-30T06:25:13.000Z</time>
      </trkpt>
      <trkpt lat="43.74362" lon="7.0798">
        <ele>667.59997558594</ele>
        <time>2023-07-30T06:25:14.000Z</time>
      </trkpt>
      <trkpt lat="43.74362" lon="7.07979">
        <ele>667.79998779297</ele>
        <time>2023-07-30T06:25:15.000Z</time>
      </trkpt>
      <trkpt lat="43.74363" lon="7.07979">
        <ele>668</ele>
        <time>2023-07-30T06:25:16.000Z</time>
      </trkpt>
      <trkpt lat="43.74364" lon="7.07978">
        <ele>668.20001220703</ele>
        <time>2023-07-30T06:25:17.000Z</time>
      </trkpt>
      <trkpt lat="43.74364" lon="7.07978">
        <ele>668.40002441406</ele>
        <time>2023-07-30T06:25:18.000Z</time>
      </trkpt>
      <trkpt lat="43.74365" lon="7.07979">
        <ele>668.59997558594</ele>
        <time>2023-07-30T06:25:19.000Z</time>
      </trkpt>
      <trkpt lat="43.74366" lon="7.07979">
        <ele>668.79998779297</ele>
        <time>2023-07-30T06:25:20.000Z</time>
      </trkpt>
      <trkpt lat="43.74366" lon="7.07979">
        <ele>669</ele>
        <time>2023-07-30T06:25:21.000Z</time>
      </trkpt>
      <trkpt lat="43.74367" lon="7.07979">
        <ele>669</ele>
        <time>2023-07-30T06:25:22.000Z</time>
      </trkpt>
      <trkpt lat="43.74368" lon="7.0798">
        <ele>669.20001220703</ele>
        <time>2023-07-30T06:25:23.000Z</time>
      </trkpt>
      <trkpt lat="43.74368" lon="7.0798">
        <ele>669.40002441406</ele>
        <time>2023-07-30T06:25:24.000Z</time>
      </trkpt>
      <trkpt lat="43.74369" lon="7.07981">
        <ele>669.40002441406</ele>
        <time>2023-07-30T06:25:25.000Z</time>
      </trkpt>
      <trkpt lat="43.74369" lon="7.07982">
        <ele>669.79998779297</ele>
        <time>2023-07-30T06:25:26.000Z</time>
      </trkpt>
      <trkpt lat="43.7437" lon="7.07982">
        <ele>669.79998779297</ele>
        <time>2023-07-30T06:25:27.000Z</time>
      </trkpt>
      <trkpt lat="43.7437" lon="7.07982">
        <ele>670</ele>
        <time>2023-07-30T06:25:28.000Z</time>
      </trkpt>
      <trkpt lat="43.74371" lon="7.07983">
        <ele>670.20001220703</ele>
        <time>2023-07-30T06:25:29.000Z</time>
      </trkpt>
      <trkpt lat="43.74372" lon="7.07983">
        <ele>670.40002441406</ele>
        <time>2023-07-30T06:25:30.000Z</time>
      </trkpt>
      <trkpt lat="43.74373" lon="7.07983">
        <ele>670.40002441406</ele>
        <time>2023-07-30T06:25:31.000Z</time>
      </trkpt>
      <trkpt lat="43.74373" lon="7.07982">
        <ele>670.79998779297</ele>
        <time>2023-07-30T06:25:32.000Z</time>
      </trkpt>
      <trkpt lat="43.74373" lon="7.07982">
        <ele>670.79998779297</ele>
        <time>2023-07-30T06:25:33.000Z</time>
      </trkpt>
      <trkpt lat="43.74373" lon="7.07982">
        <ele>671</ele>
        <time>2023-07-30T06:25:34.000Z</time>
      </trkpt>
      <trkpt lat="43.74373" lon="7.07982">
        <ele>671.20001220703</ele>
        <time>2023-07-30T06:25:35.000Z</time>
      </trkpt>
      <trkpt lat="43.74373" lon="7.07982">
        <ele>671.20001220703</ele>
        <time>2023-07-30T06:25:36.000Z</time>
      </trkpt>
      <trkpt lat="43.74373" lon="7.07982">
        <ele>671.20001220703</ele>
        <time>2023-07-30T06:25:37.000Z</time>
      </trkpt>
      <trkpt lat="43.74373" lon="7.07982">
        <ele>671.40002441406</ele>
        <time>2023-07-30T06:25:38.000Z</time>
      </trkpt>
      <trkpt lat="43.74374" lon="7.07982">
        <ele>671.40002441406</ele>
        <time>2023-07-30T06:25:39.000Z</time>
      </trkpt>
      <trkpt lat="43.74376" lon="7.07981">
        <ele>671.40002441406</ele>
        <time>2023-07-30T06:25:40.000Z</time>
      </trkpt>
      <trkpt lat="43.74376" lon="7.07981">
        <ele>671.40002441406</ele>
        <time>2023-07-30T06:25:41.000Z</time>
      </trkpt>
      <trkpt lat="43.74376" lon="7.07981">
        <ele>671.40002441406</ele>
        <time>2023-07-30T06:25:42.000Z</time>
      </trkpt>
      <trkpt lat="43.74376" lon="7.07981">
        <ele>671.59997558594</ele>
        <time>2023-07-30T06:25:43.000Z</time>
      </trkpt>
      <trkpt lat="43.74377" lon="7.07981">
        <ele>671.59997558594</ele>
        <time>2023-07-30T06:25:44.000Z</time>
      </trkpt>
      <trkpt lat="43.74377" lon="7.07981">
        <ele>671.79998779297</ele>
        <time>2023-07-30T06:25:45.000Z</time>
      </trkpt>
      <trkpt lat="43.74377" lon="7.07981">
        <ele>672.20001220703</ele>
        <time>2023-07-30T06:25:46.000Z</time>
      </trkpt>
      <trkpt lat="43.74377" lon="7.07981">
        <ele>672.20001220703</ele>
        <time>2023-07-30T06:25:47.000Z</time>
      </trkpt>
      <trkpt lat="43.74377" lon="7.07981">
        <ele>672.40002441406</ele>
        <time>2023-07-30T06:25:48.000Z</time>
      </trkpt>
      <trkpt lat="43.74378" lon="7.0798">
        <ele>672.40002441406</ele>
        <time>2023-07-30T06:25:49.000Z</time>
      </trkpt>
      <trkpt lat="43.74378" lon="7.0798">
        <ele>672.40002441406</ele>
        <time>2023-07-30T06:25:50.000Z</time>
      </trkpt>
      <trkpt lat="43.74378" lon="7.0798">
        <ele>672.40002441406</ele>
        <time>2023-07-30T06:25:51.000Z</time>
      </trkpt>
      <trkpt lat="43.74378" lon="7.0798">
        <ele>672.40002441406</ele>
        <time>2023-07-30T06:25:52.000Z</time>
      </trkpt>
      <trkpt lat="43.74378" lon="7.07979">
        <ele>672.59997558594</ele>
        <time>2023-07-30T06:25:53.000Z</time>
      </trkpt>
      <trkpt lat="43.74379" lon="7.07979">
        <ele>672.59997558594</ele>
        <time>2023-07-30T06:25:54.000Z</time>
      </trkpt>
      <trkpt lat="43.74379" lon="7.07979">
        <ele>672.59997558594</ele>
        <time>2023-07-30T06:25:55.000Z</time>
      </trkpt>
      <trkpt lat="43.7438" lon="7.07979">
        <ele>672.79998779297</ele>
        <time>2023-07-30T06:25:56.000Z</time>
      </trkpt>
      <trkpt lat="43.7438" lon="7.07978">
        <ele>672.79998779297</ele>
        <time>2023-07-30T06:25:57.000Z</time>
      </trkpt>
      <trkpt lat="43.74381" lon="7.07979">
        <ele>672.79998779297</ele>
        <time>2023-07-30T06:25:58.000Z</time>
      </trkpt>
      <trkpt lat="43.74381" lon="7.07978">
        <ele>672.79998779297</ele>
        <time>2023-07-30T06:25:59.000Z</time>
      </trkpt>
      <trkpt lat="43.74382" lon="7.07978">
        <ele>673</ele>
        <time>2023-07-30T06:26:00.000Z</time>
      </trkpt>
      <trkpt lat="43.74382" lon="7.07978">
        <ele>673.20001220703</ele>
        <time>2023-07-30T06:26:01.000Z</time>
      </trkpt>
      <trkpt lat="43.74382" lon="7.07978">
        <ele>673.40002441406</ele>
        <time>2023-07-30T06:26:02.000Z</time>
      </trkpt>
      <trkpt lat="43.74383" lon="7.07978">
        <ele>673.59997558594</ele>
        <time>2023-07-30T06:26:03.000Z</time>
      </trkpt>
      <trkpt lat="43.74383" lon="7.07978">
        <ele>673.59997558594</ele>
        <time>2023-07-30T06:26:04.000Z</time>
      </trkpt>
      <trkpt lat="43.74383" lon="7.07978">
        <ele>673.79998779297</ele>
        <time>2023-07-30T06:26:05.000Z</time>
      </trkpt>
      <trkpt lat="43.74384" lon="7.07978">
        <ele>673.79998779297</ele>
        <time>2023-07-30T06:26:06.000Z</time>
      </trkpt>
      <trkpt lat="43.74385" lon="7.07978">
        <ele>673.79998779297</ele>
        <time>2023-07-30T06:26:07.000Z</time>
      </trkpt>
      <trkpt lat="43.74385" lon="7.07978">
        <ele>674</ele>
        <time>2023-07-30T06:26:08.000Z</time>
      </trkpt>
      <trkpt lat="43.74385" lon="7.07978">
        <ele>674</ele>
        <time>2023-07-30T06:26:09.000Z</time>
      </trkpt>
      <trkpt lat="43.74385" lon="7.07978">
        <ele>674.20001220703</ele>
        <time>2023-07-30T06:26:10.000Z</time>
      </trkpt>
      <trkpt lat="43.74386" lon="7.07978">
        <ele>674.20001220703</ele>
        <time>2023-07-30T06:26:11.000Z</time>
      </trkpt>
      <trkpt lat="43.74387" lon="7.07978">
        <ele>674.40002441406</ele>
        <time>2023-07-30T06:26:12.000Z</time>
      </trkpt>
      <trkpt lat="43.74387" lon="7.07978">
        <ele>674.40002441406</ele>
        <time>2023-07-30T06:26:13.000Z</time>
      </trkpt>
      <trkpt lat="43.74387" lon="7.07979">
        <ele>674.59997558594</ele>
        <time>2023-07-30T06:26:14.000Z</time>
      </trkpt>
      <trkpt lat="43.74387" lon="7.07979">
        <ele>674.59997558594</ele>
        <time>2023-07-30T06:26:15.000Z</time>
      </trkpt>
      <trkpt lat="43.74388" lon="7.0798">
        <ele>674.79998779297</ele>
        <time>2023-07-30T06:26:16.000Z</time>
      </trkpt>
      <trkpt lat="43.74388" lon="7.07981">
        <ele>674.79998779297</ele>
        <time>2023-07-30T06:26:17.000Z</time>
      </trkpt>
      <trkpt lat="43.74389" lon="7.07982">
        <ele>674.79998779297</ele>
        <time>2023-07-30T06:26:18.000Z</time>
      </trkpt>
      <trkpt lat="43.74389" lon="7.07983">
        <ele>675</ele>
        <time>2023-07-30T06:26:19.000Z</time>
      </trkpt>
      <trkpt lat="43.74389" lon="7.07984">
        <ele>675.20001220703</ele>
        <time>2023-07-30T06:26:20.000Z</time>
      </trkpt>
      <trkpt lat="43.74389" lon="7.07983">
        <ele>675.40002441406</ele>
        <time>2023-07-30T06:26:21.000Z</time>
      </trkpt>
      <trkpt lat="43.74389" lon="7.07983">
        <ele>675.59997558594</ele>
        <time>2023-07-30T06:26:22.000Z</time>
      </trkpt>
      <trkpt lat="43.74389" lon="7.07983">
        <ele>675.79998779297</ele>
        <time>2023-07-30T06:26:23.000Z</time>
      </trkpt>
      <trkpt lat="43.74389" lon="7.07983">
        <ele>676</ele>
        <time>2023-07-30T06:26:24.000Z</time>
      </trkpt>
      <trkpt lat="43.74389" lon="7.07983">
        <ele>676</ele>
        <time>2023-07-30T06:26:25.000Z</time>
      </trkpt>
      <trkpt lat="43.74389" lon="7.07983">
        <ele>676</ele>
        <time>2023-07-30T06:26:26.000Z</time>
      </trkpt>
      <trkpt lat="43.74389" lon="7.07983">
        <ele>676</ele>
        <time>2023-07-30T06:26:27.000Z</time>
      </trkpt>
      <trkpt lat="43.74389" lon="7.07984">
        <ele>676</ele>
        <time>2023-07-30T06:26:28.000Z</time>
      </trkpt>
      <trkpt lat="43.74389" lon="7.07984">
        <ele>676</ele>
        <time>2023-07-30T06:26:29.000Z</time>
      </trkpt>
      <trkpt lat="43.74389" lon="7.07985">
        <ele>676</ele>
        <time>2023-07-30T06:26:30.000Z</time>
      </trkpt>
      <trkpt lat="43.74389" lon="7.07986">
        <ele>676</ele>
        <time>2023-07-30T06:26:31.000Z</time>
      </trkpt>
      <trkpt lat="43.74389" lon="7.07986">
        <ele>676.20001220703</ele>
        <time>2023-07-30T06:26:32.000Z</time>
      </trkpt>
      <trkpt lat="43.7439" lon="7.07987">
        <ele>676.20001220703</ele>
        <time>2023-07-30T06:26:33.000Z</time>
      </trkpt>
      <trkpt lat="43.7439" lon="7.07988">
        <ele>676.20001220703</ele>
        <time>2023-07-30T06:26:34.000Z</time>
      </trkpt>
      <trkpt lat="43.7439" lon="7.07988">
        <ele>676.59997558594</ele>
        <time>2023-07-30T06:26:35.000Z</time>
      </trkpt>
      <trkpt lat="43.74391" lon="7.07989">
        <ele>676.79998779297</ele>
        <time>2023-07-30T06:26:36.000Z</time>
      </trkpt>
      <trkpt lat="43.74391" lon="7.0799">
        <ele>676.79998779297</ele>
        <time>2023-07-30T06:26:37.000Z</time>
      </trkpt>
      <trkpt lat="43.74391" lon="7.07991">
        <ele>677</ele>
        <time>2023-07-30T06:26:38.000Z</time>
      </trkpt>
      <trkpt lat="43.74392" lon="7.07991">
        <ele>677</ele>
        <time>2023-07-30T06:26:39.000Z</time>
      </trkpt>
      <trkpt lat="43.74392" lon="7.07992">
        <ele>677.20001220703</ele>
        <time>2023-07-30T06:26:40.000Z</time>
      </trkpt>
      <trkpt lat="43.74393" lon="7.07993">
        <ele>677.20001220703</ele>
        <time>2023-07-30T06:26:41.000Z</time>
      </trkpt>
      <trkpt lat="43.74393" lon="7.07993">
        <ele>677.59997558594</ele>
        <time>2023-07-30T06:26:42.000Z</time>
      </trkpt>
      <trkpt lat="43.74393" lon="7.07993">
        <ele>677.79998779297</ele>
        <time>2023-07-30T06:26:43.000Z</time>
      </trkpt>
      <trkpt lat="43.74394" lon="7.07993">
        <ele>677.79998779297</ele>
        <time>2023-07-30T06:26:44.000Z</time>
      </trkpt>
      <trkpt lat="43.74394" lon="7.07994">
        <ele>678</ele>
        <time>2023-07-30T06:26:45.000Z</time>
      </trkpt>
      <trkpt lat="43.74395" lon="7.07994">
        <ele>678.40002441406</ele>
        <time>2023-07-30T06:26:46.000Z</time>
      </trkpt>
      <trkpt lat="43.74395" lon="7.07995">
        <ele>678.40002441406</ele>
        <time>2023-07-30T06:26:47.000Z</time>
      </trkpt>
      <trkpt lat="43.74396" lon="7.07996">
        <ele>678.59997558594</ele>
        <time>2023-07-30T06:26:48.000Z</time>
      </trkpt>
      <trkpt lat="43.74396" lon="7.07997">
        <ele>679</ele>
        <time>2023-07-30T06:26:49.000Z</time>
      </trkpt>
      <trkpt lat="43.74396" lon="7.07997">
        <ele>679</ele>
        <time>2023-07-30T06:26:50.000Z</time>
      </trkpt>
      <trkpt lat="43.74397" lon="7.07997">
        <ele>679.20001220703</ele>
        <time>2023-07-30T06:26:51.000Z</time>
      </trkpt>
      <trkpt lat="43.74397" lon="7.07998">
        <ele>679.59997558594</ele>
        <time>2023-07-30T06:26:52.000Z</time>
      </trkpt>
      <trkpt lat="43.74397" lon="7.07999">
        <ele>679.79998779297</ele>
        <time>2023-07-30T06:26:53.000Z</time>
      </trkpt>
      <trkpt lat="43.74397" lon="7.07999">
        <ele>680</ele>
        <time>2023-07-30T06:26:54.000Z</time>
      </trkpt>
      <trkpt lat="43.74398" lon="7.08">
        <ele>680</ele>
        <time>2023-07-30T06:26:55.000Z</time>
      </trkpt>
      <trkpt lat="43.74398" lon="7.08001">
        <ele>680.20001220703</ele>
        <time>2023-07-30T06:26:56.000Z</time>
      </trkpt>
      <trkpt lat="43.74398" lon="7.08002">
        <ele>680.40002441406</ele>
        <time>2023-07-30T06:26:57.000Z</time>
      </trkpt>
      <trkpt lat="43.74399" lon="7.08002">
        <ele>680.59997558594</ele>
        <time>2023-07-30T06:26:58.000Z</time>
      </trkpt>
      <trkpt lat="43.74399" lon="7.08003">
        <ele>680.79998779297</ele>
        <time>2023-07-30T06:26:59.000Z</time>
      </trkpt>
      <trkpt lat="43.744" lon="7.08004">
        <ele>681</ele>
        <time>2023-07-30T06:27:00.000Z</time>
      </trkpt>
      <trkpt lat="43.744" lon="7.08005">
        <ele>681.40002441406</ele>
        <time>2023-07-30T06:27:01.000Z</time>
      </trkpt>
      <trkpt lat="43.74401" lon="7.08006">
        <ele>681.40002441406</ele>
        <time>2023-07-30T06:27:02.000Z</time>
      </trkpt>
      <trkpt lat="43.74402" lon="7.08007">
        <ele>681.59997558594</ele>
        <time>2023-07-30T06:27:03.000Z</time>
      </trkpt>
      <trkpt lat="43.74402" lon="7.08007">
        <ele>681.79998779297</ele>
        <time>2023-07-30T06:27:04.000Z</time>
      </trkpt>
      <trkpt lat="43.74402" lon="7.08008">
        <ele>681.79998779297</ele>
        <time>2023-07-30T06:27:05.000Z</time>
      </trkpt>
      <trkpt lat="43.74402" lon="7.08008">
        <ele>682</ele>
        <time>2023-07-30T06:27:06.000Z</time>
      </trkpt>
      <trkpt lat="43.74403" lon="7.08008">
        <ele>682.20001220703</ele>
        <time>2023-07-30T06:27:07.000Z</time>
      </trkpt>
      <trkpt lat="43.74403" lon="7.08008">
        <ele>682.40002441406</ele>
        <time>2023-07-30T06:27:08.000Z</time>
      </trkpt>
      <trkpt lat="43.74404" lon="7.08007">
        <ele>682.59997558594</ele>
        <time>2023-07-30T06:27:09.000Z</time>
      </trkpt>
      <trkpt lat="43.74405" lon="7.08008">
        <ele>682.59997558594</ele>
        <time>2023-07-30T06:27:10.000Z</time>
      </trkpt>
      <trkpt lat="43.74406" lon="7.08007">
        <ele>682.79998779297</ele>
        <time>2023-07-30T06:27:11.000Z</time>
      </trkpt>
      <trkpt lat="43.74406" lon="7.08007">
        <ele>682.79998779297</ele>
        <time>2023-07-30T06:27:12.000Z</time>
      </trkpt>
      <trkpt lat="43.74407" lon="7.08007">
        <ele>682.79998779297</ele>
        <time>2023-07-30T06:27:13.000Z</time>
      </trkpt>
      <trkpt lat="43.74407" lon="7.08006">
        <ele>683</ele>
        <time>2023-07-30T06:27:14.000Z</time>
      </trkpt>
      <trkpt lat="43.74408" lon="7.08006">
        <ele>683.40002441406</ele>
        <time>2023-07-30T06:27:15.000Z</time>
      </trkpt>
      <trkpt lat="43.74407" lon="7.08005">
        <ele>683.40002441406</ele>
        <time>2023-07-30T06:27:16.000Z</time>
      </trkpt>
      <trkpt lat="43.74407" lon="7.08005">
        <ele>683.59997558594</ele>
        <time>2023-07-30T06:27:17.000Z</time>
      </trkpt>
      <trkpt lat="43.74407" lon="7.08005">
        <ele>683.59997558594</ele>
        <time>2023-07-30T06:27:18.000Z</time>
      </trkpt>
      <trkpt lat="43.74408" lon="7.08005">
        <ele>683.79998779297</ele>
        <time>2023-07-30T06:27:19.000Z</time>
      </trkpt>
      <trkpt lat="43.74409" lon="7.08005">
        <ele>683.79998779297</ele>
        <time>2023-07-30T06:27:20.000Z</time>
      </trkpt>
      <trkpt lat="43.74409" lon="7.08005">
        <ele>683.79998779297</ele>
        <time>2023-07-30T06:27:21.000Z</time>
      </trkpt>
      <trkpt lat="43.7441" lon="7.08005">
        <ele>684</ele>
        <time>2023-07-30T06:27:22.000Z</time>
      </trkpt>
      <trkpt lat="43.74411" lon="7.08004">
        <ele>684</ele>
        <time>2023-07-30T06:27:23.000Z</time>
      </trkpt>
      <trkpt lat="43.74411" lon="7.08004">
        <ele>684.20001220703</ele>
        <time>2023-07-30T06:27:24.000Z</time>
      </trkpt>
      <trkpt lat="43.74411" lon="7.08004">
        <ele>684.40002441406</ele>
        <time>2023-07-30T06:27:25.000Z</time>
      </trkpt>
      <trkpt lat="43.74412" lon="7.08003">
        <ele>684.40002441406</ele>
        <time>2023-07-30T06:27:26.000Z</time>
      </trkpt>
      <trkpt lat="43.74413" lon="7.08003">
        <ele>684.59997558594</ele>
        <time>2023-07-30T06:27:27.000Z</time>
      </trkpt>
      <trkpt lat="43.74413" lon="7.08003">
        <ele>684.79998779297</ele>
        <time>2023-07-30T06:27:28.000Z</time>
      </trkpt>
      <trkpt lat="43.74413" lon="7.08003">
        <ele>685</ele>
        <time>2023-07-30T06:27:29.000Z</time>
      </trkpt>
      <trkpt lat="43.74413" lon="7.08003">
        <ele>685.20001220703</ele>
        <time>2023-07-30T06:27:30.000Z</time>
      </trkpt>
      <trkpt lat="43.74413" lon="7.08003">
        <ele>685.20001220703</ele>
        <time>2023-07-30T06:27:31.000Z</time>
      </trkpt>
      <trkpt lat="43.74413" lon="7.08003">
        <ele>685.40002441406</ele>
        <time>2023-07-30T06:27:32.000Z</time>
      </trkpt>
      <trkpt lat="43.74413" lon="7.08003">
        <ele>685.40002441406</ele>
        <time>2023-07-30T06:27:33.000Z</time>
      </trkpt>
      <trkpt lat="43.74413" lon="7.08003">
        <ele>685.40002441406</ele>
        <time>2023-07-30T06:27:34.000Z</time>
      </trkpt>
      <trkpt lat="43.74413" lon="7.08003">
        <ele>685.40002441406</ele>
        <time>2023-07-30T06:27:35.000Z</time>
      </trkpt>
      <trkpt lat="43.74413" lon="7.08003">
        <ele>685.40002441406</ele>
        <time>2023-07-30T06:27:36.000Z</time>
      </trkpt>
      <trkpt lat="43.74413" lon="7.08003">
        <ele>685.40002441406</ele>
        <time>2023-07-30T06:27:37.000Z</time>
      </trkpt>
      <trkpt lat="43.74413" lon="7.08003">
        <ele>685.40002441406</ele>
        <time>2023-07-30T06:27:38.000Z</time>
      </trkpt>
      <trkpt lat="43.74413" lon="7.08003">
        <ele>685.40002441406</ele>
        <time>2023-07-30T06:27:39.000Z</time>
      </trkpt>
      <trkpt lat="43.74413" lon="7.08003">
        <ele>685.40002441406</ele>
        <time>2023-07-30T06:27:40.000Z</time>
      </trkpt>
      <trkpt lat="43.74414" lon="7.08002">
        <ele>685.40002441406</ele>
        <time>2023-07-30T06:27:41.000Z</time>
      </trkpt>
      <trkpt lat="43.74415" lon="7.08001">
        <ele>685.40002441406</ele>
        <time>2023-07-30T06:27:42.000Z</time>
      </trkpt>
      <trkpt lat="43.74416" lon="7.08">
        <ele>685.59997558594</ele>
        <time>2023-07-30T06:27:43.000Z</time>
      </trkpt>
      <trkpt lat="43.74416" lon="7.08001">
        <ele>685.59997558594</ele>
        <time>2023-07-30T06:27:44.000Z</time>
      </trkpt>
      <trkpt lat="43.74416" lon="7.08001">
        <ele>685.59997558594</ele>
        <time>2023-07-30T06:27:45.000Z</time>
      </trkpt>
      <trkpt lat="43.74416" lon="7.08001">
        <ele>685.79998779297</ele>
        <time>2023-07-30T06:27:46.000Z</time>
      </trkpt>
      <trkpt lat="43.74416" lon="7.08001">
        <ele>686</ele>
        <time>2023-07-30T06:27:47.000Z</time>
      </trkpt>
      <trkpt lat="43.74417" lon="7.07999">
        <ele>686.20001220703</ele>
        <time>2023-07-30T06:27:48.000Z</time>
      </trkpt>
      <trkpt lat="43.74417" lon="7.07998">
        <ele>686.20001220703</ele>
        <time>2023-07-30T06:27:49.000Z</time>
      </trkpt>
      <trkpt lat="43.74418" lon="7.07997">
        <ele>686.20001220703</ele>
        <time>2023-07-30T06:27:50.000Z</time>
      </trkpt>
      <trkpt lat="43.74418" lon="7.07996">
        <ele>686.40002441406</ele>
        <time>2023-07-30T06:27:51.000Z</time>
      </trkpt>
      <trkpt lat="43.74418" lon="7.07996">
        <ele>686.40002441406</ele>
        <time>2023-07-30T06:27:52.000Z</time>
      </trkpt>
      <trkpt lat="43.74418" lon="7.07996">
        <ele>686.59997558594</ele>
        <time>2023-07-30T06:27:53.000Z</time>
      </trkpt>
      <trkpt lat="43.74418" lon="7.07996">
        <ele>686.59997558594</ele>
        <time>2023-07-30T06:27:54.000Z</time>
      </trkpt>
      <trkpt lat="43.74418" lon="7.07996">
        <ele>686.59997558594</ele>
        <time>2023-07-30T06:27:55.000Z</time>
      </trkpt>
      <trkpt lat="43.74419" lon="7.07995">
        <ele>686.79998779297</ele>
        <time>2023-07-30T06:27:56.000Z</time>
      </trkpt>
      <trkpt lat="43.7442" lon="7.07993">
        <ele>686.79998779297</ele>
        <time>2023-07-30T06:27:57.000Z</time>
      </trkpt>
      <trkpt lat="43.74422" lon="7.07991">
        <ele>686.79998779297</ele>
        <time>2023-07-30T06:27:58.000Z</time>
      </trkpt>
      <trkpt lat="43.74423" lon="7.0799">
        <ele>687</ele>
        <time>2023-07-30T06:27:59.000Z</time>
      </trkpt>
      <trkpt lat="43.74425" lon="7.07989">
        <ele>687</ele>
        <time>2023-07-30T06:28:00.000Z</time>
      </trkpt>
      <trkpt lat="43.74427" lon="7.07989">
        <ele>687</ele>
        <time>2023-07-30T06:28:01.000Z</time>
      </trkpt>
      <trkpt lat="43.74429" lon="7.07989">
        <ele>687.59997558594</ele>
        <time>2023-07-30T06:28:02.000Z</time>
      </trkpt>
      <trkpt lat="43.74431" lon="7.0799">
        <ele>687.79998779297</ele>
        <time>2023-07-30T06:28:03.000Z</time>
      </trkpt>
      <trkpt lat="43.74433" lon="7.0799">
        <ele>688.20001220703</ele>
        <time>2023-07-30T06:28:04.000Z</time>
      </trkpt>
      <trkpt lat="43.74434" lon="7.07989">
        <ele>688.59997558594</ele>
        <time>2023-07-30T06:28:05.000Z</time>
      </trkpt>
      <trkpt lat="43.74436" lon="7.07988">
        <ele>689</ele>
        <time>2023-07-30T06:28:06.000Z</time>
      </trkpt>
      <trkpt lat="43.74438" lon="7.07987">
        <ele>689.40002441406</ele>
        <time>2023-07-30T06:28:07.000Z</time>
      </trkpt>
      <trkpt lat="43.7444" lon="7.07986">
        <ele>689.59997558594</ele>
        <time>2023-07-30T06:28:08.000Z</time>
      </trkpt>
      <trkpt lat="43.74443" lon="7.07986">
        <ele>690</ele>
        <time>2023-07-30T06:28:09.000Z</time>
      </trkpt>
      <trkpt lat="43.74445" lon="7.07986">
        <ele>690.20001220703</ele>
        <time>2023-07-30T06:28:10.000Z</time>
      </trkpt>
      <trkpt lat="43.74447" lon="7.07985">
        <ele>690.59997558594</ele>
        <time>2023-07-30T06:28:11.000Z</time>
      </trkpt>
      <trkpt lat="43.74448" lon="7.07984">
        <ele>690.79998779297</ele>
        <time>2023-07-30T06:28:12.000Z</time>
      </trkpt>
      <trkpt lat="43.7445" lon="7.07983">
        <ele>691.40002441406</ele>
        <time>2023-07-30T06:28:13.000Z</time>
      </trkpt>
      <trkpt lat="43.74451" lon="7.07982">
        <ele>691.79998779297</ele>
        <time>2023-07-30T06:28:14.000Z</time>
      </trkpt>
      <trkpt lat="43.74452" lon="7.07981">
        <ele>692.40002441406</ele>
        <time>2023-07-30T06:28:15.000Z</time>
      </trkpt>
      <trkpt lat="43.74454" lon="7.0798">
        <ele>692.79998779297</ele>
        <time>2023-07-30T06:28:16.000Z</time>
      </trkpt>
      <trkpt lat="43.74455" lon="7.07979">
        <ele>693</ele>
        <time>2023-07-30T06:28:17.000Z</time>
      </trkpt>
      <trkpt lat="43.74457" lon="7.07977">
        <ele>693.20001220703</ele>
        <time>2023-07-30T06:28:18.000Z</time>
      </trkpt>
      <trkpt lat="43.74458" lon="7.07976">
        <ele>693.20001220703</ele>
        <time>2023-07-30T06:28:19.000Z</time>
      </trkpt>
      <trkpt lat="43.7446" lon="7.07975">
        <ele>693.59997558594</ele>
        <time>2023-07-30T06:28:20.000Z</time>
      </trkpt>
      <trkpt lat="43.74461" lon="7.07974">
        <ele>693.59997558594</ele>
        <time>2023-07-30T06:28:21.000Z</time>
      </trkpt>
      <trkpt lat="43.74461" lon="7.07974">
        <ele>693.79998779297</ele>
        <time>2023-07-30T06:28:22.000Z</time>
      </trkpt>
      <trkpt lat="43.74461" lon="7.07975">
        <ele>694</ele>
        <time>2023-07-30T06:28:23.000Z</time>
      </trkpt>
      <trkpt lat="43.74461" lon="7.07976">
        <ele>694</ele>
        <time>2023-07-30T06:28:24.000Z</time>
      </trkpt>
      <trkpt lat="43.74461" lon="7.07975">
        <ele>694.20001220703</ele>
        <time>2023-07-30T06:28:25.000Z</time>
      </trkpt>
      <trkpt lat="43.74461" lon="7.07975">
        <ele>694.20001220703</ele>
        <time>2023-07-30T06:28:26.000Z</time>
      </trkpt>
      <trkpt lat="43.74461" lon="7.07975">
        <ele>694.20001220703</ele>
        <time>2023-07-30T06:28:27.000Z</time>
      </trkpt>
      <trkpt lat="43.74461" lon="7.07975">
        <ele>694.20001220703</ele>
        <time>2023-07-30T06:28:28.000Z</time>
      </trkpt>
      <trkpt lat="43.74461" lon="7.07975">
        <ele>694.20001220703</ele>
        <time>2023-07-30T06:28:29.000Z</time>
      </trkpt>
      <trkpt lat="43.74461" lon="7.07975">
        <ele>694.20001220703</ele>
        <time>2023-07-30T06:28:30.000Z</time>
      </trkpt>
      <trkpt lat="43.74461" lon="7.07975">
        <ele>694.20001220703</ele>
        <time>2023-07-30T06:28:31.000Z</time>
      </trkpt>
      <trkpt lat="43.74461" lon="7.07975">
        <ele>694</ele>
        <time>2023-07-30T06:28:32.000Z</time>
      </trkpt>
      <trkpt lat="43.74461" lon="7.07975">
        <ele>694</ele>
        <time>2023-07-30T06:28:33.000Z</time>
      </trkpt>
      <trkpt lat="43.74461" lon="7.07975">
        <ele>694</ele>
        <time>2023-07-30T06:28:34.000Z</time>
      </trkpt>
      <trkpt lat="43.74461" lon="7.07975">
        <ele>694.20001220703</ele>
        <time>2023-07-30T06:28:35.000Z</time>
      </trkpt>
      <trkpt lat="43.74461" lon="7.07975">
        <ele>694.20001220703</ele>
        <time>2023-07-30T06:28:36.000Z</time>
      </trkpt>
      <trkpt lat="43.74461" lon="7.07975">
        <ele>694.20001220703</ele>
        <time>2023-07-30T06:28:37.000Z</time>
      </trkpt>
      <trkpt lat="43.74461" lon="7.07975">
        <ele>694.20001220703</ele>
        <time>2023-07-30T06:28:38.000Z</time>
      </trkpt>
      <trkpt lat="43.74461" lon="7.07975">
        <ele>694.20001220703</ele>
        <time>2023-07-30T06:28:39.000Z</time>
      </trkpt>
      <trkpt lat="43.74461" lon="7.07975">
        <ele>694.20001220703</ele>
        <time>2023-07-30T06:28:40.000Z</time>
      </trkpt>
      <trkpt lat="43.74461" lon="7.07975">
        <ele>694.20001220703</ele>
        <time>2023-07-30T06:28:41.000Z</time>
      </trkpt>
      <trkpt lat="43.74461" lon="7.07975">
        <ele>694.40002441406</ele>
        <time>2023-07-30T06:28:42.000Z</time>
      </trkpt>
      <trkpt lat="43.74461" lon="7.07975">
        <ele>694.40002441406</ele>
        <time>2023-07-30T06:28:43.000Z</time>
      </trkpt>
      <trkpt lat="43.74461" lon="7.07975">
        <ele>694.40002441406</ele>
        <time>2023-07-30T06:28:44.000Z</time>
      </trkpt>
      <trkpt lat="43.74461" lon="7.07975">
        <ele>694.40002441406</ele>
        <time>2023-07-30T06:28:45.000Z</time>
      </trkpt>
      <trkpt lat="43.74461" lon="7.07975">
        <ele>694.40002441406</ele>
        <time>2023-07-30T06:28:46.000Z</time>
      </trkpt>
      <trkpt lat="43.74461" lon="7.07975">
        <ele>694.40002441406</ele>
        <time>2023-07-30T06:28:47.000Z</time>
      </trkpt>
      <trkpt lat="43.74461" lon="7.07975">
        <ele>694.40002441406</ele>
        <time>2023-07-30T06:28:48.000Z</time>
      </trkpt>
      <trkpt lat="43.74461" lon="7.07975">
        <ele>694.40002441406</ele>
        <time>2023-07-30T06:28:49.000Z</time>
      </trkpt>
      <trkpt lat="43.74461" lon="7.07975">
        <ele>694.40002441406</ele>
        <time>2023-07-30T06:28:50.000Z</time>
      </trkpt>
      <trkpt lat="43.74461" lon="7.07975">
        <ele>694.40002441406</ele>
        <time>2023-07-30T06:28:51.000Z</time>
      </trkpt>
      <trkpt lat="43.74461" lon="7.07975">
        <ele>694.40002441406</ele>
        <time>2023-07-30T06:28:52.000Z</time>
      </trkpt>
      <trkpt lat="43.74461" lon="7.07975">
        <ele>694.40002441406</ele>
        <time>2023-07-30T06:28:53.000Z</time>
      </trkpt>
      <trkpt lat="43.74461" lon="7.07975">
        <ele>694.40002441406</ele>
        <time>2023-07-30T06:28:54.000Z</time>
      </trkpt>
      <trkpt lat="43.74461" lon="7.07975">
        <ele>694.40002441406</ele>
        <time>2023-07-30T06:28:55.000Z</time>
      </trkpt>
      <trkpt lat="43.74461" lon="7.07975">
        <ele>694.59997558594</ele>
        <time>2023-07-30T06:28:56.000Z</time>
      </trkpt>
      <trkpt lat="43.74461" lon="7.07975">
        <ele>694.59997558594</ele>
        <time>2023-07-30T06:28:57.000Z</time>
      </trkpt>
      <trkpt lat="43.74461" lon="7.07975">
        <ele>694.59997558594</ele>
        <time>2023-07-30T06:28:58.000Z</time>
      </trkpt>
      <trkpt lat="43.74461" lon="7.07975">
        <ele>694.59997558594</ele>
        <time>2023-07-30T06:28:59.000Z</time>
      </trkpt>
      <trkpt lat="43.74461" lon="7.07975">
        <ele>694.59997558594</ele>
        <time>2023-07-30T06:29:00.000Z</time>
      </trkpt>
      <trkpt lat="43.74461" lon="7.07975">
        <ele>694.59997558594</ele>
        <time>2023-07-30T06:29:01.000Z</time>
      </trkpt>
      <trkpt lat="43.74461" lon="7.07975">
        <ele>694.59997558594</ele>
        <time>2023-07-30T06:29:02.000Z</time>
      </trkpt>
      <trkpt lat="43.74461" lon="7.07975">
        <ele>694.40002441406</ele>
        <time>2023-07-30T06:29:03.000Z</time>
      </trkpt>
      <trkpt lat="43.74461" lon="7.07975">
        <ele>694.40002441406</ele>
        <time>2023-07-30T06:29:04.000Z</time>
      </trkpt>
      <trkpt lat="43.74461" lon="7.07975">
        <ele>694.40002441406</ele>
        <time>2023-07-30T06:29:05.000Z</time>
      </trkpt>
      <trkpt lat="43.74461" lon="7.07975">
        <ele>694.40002441406</ele>
        <time>2023-07-30T06:29:06.000Z</time>
      </trkpt>
      <trkpt lat="43.74461" lon="7.07975">
        <ele>694.40002441406</ele>
        <time>2023-07-30T06:29:07.000Z</time>
      </trkpt>
      <trkpt lat="43.74461" lon="7.07975">
        <ele>694.40002441406</ele>
        <time>2023-07-30T06:29:08.000Z</time>
      </trkpt>
      <trkpt lat="43.74461" lon="7.07975">
        <ele>694.40002441406</ele>
        <time>2023-07-30T06:29:09.000Z</time>
      </trkpt>
      <trkpt lat="43.74461" lon="7.07975">
        <ele>694.59997558594</ele>
        <time>2023-07-30T06:29:10.000Z</time>
      </trkpt>
      <trkpt lat="43.74461" lon="7.07975">
        <ele>694.59997558594</ele>
        <time>2023-07-30T06:29:11.000Z</time>
      </trkpt>
      <trkpt lat="43.74461" lon="7.07975">
        <ele>694.59997558594</ele>
        <time>2023-07-30T06:29:12.000Z</time>
      </trkpt>
      <trkpt lat="43.74461" lon="7.07975">
        <ele>694.40002441406</ele>
        <time>2023-07-30T06:29:13.000Z</time>
      </trkpt>
      <trkpt lat="43.74461" lon="7.07975">
        <ele>694.59997558594</ele>
        <time>2023-07-30T06:29:14.000Z</time>
      </trkpt>
      <trkpt lat="43.74461" lon="7.07975">
        <ele>694.59997558594</ele>
        <time>2023-07-30T06:29:15.000Z</time>
      </trkpt>
      <trkpt lat="43.74461" lon="7.07975">
        <ele>694.59997558594</ele>
        <time>2023-07-30T06:29:16.000Z</time>
      </trkpt>
      <trkpt lat="43.74461" lon="7.07975">
        <ele>694.59997558594</ele>
        <time>2023-07-30T06:29:17.000Z</time>
      </trkpt>
      <trkpt lat="43.74461" lon="7.07975">
        <ele>694.59997558594</ele>
        <time>2023-07-30T06:29:18.000Z</time>
      </trkpt>
      <trkpt lat="43.74461" lon="7.07975">
        <ele>694.59997558594</ele>
        <time>2023-07-30T06:29:19.000Z</time>
      </trkpt>
      <trkpt lat="43.74461" lon="7.07975">
        <ele>694.59997558594</ele>
        <time>2023-07-30T06:29:20.000Z</time>
      </trkpt>
      <trkpt lat="43.74461" lon="7.07975">
        <ele>694.40002441406</ele>
        <time>2023-07-30T06:29:21.000Z</time>
      </trkpt>
      <trkpt lat="43.74461" lon="7.07975">
        <ele>694.40002441406</ele>
        <time>2023-07-30T06:29:22.000Z</time>
      </trkpt>
      <trkpt lat="43.74461" lon="7.07975">
        <ele>694.59997558594</ele>
        <time>2023-07-30T06:29:23.000Z</time>
      </trkpt>
      <trkpt lat="43.74461" lon="7.07975">
        <ele>694.59997558594</ele>
        <time>2023-07-30T06:29:24.000Z</time>
      </trkpt>
      <trkpt lat="43.74461" lon="7.07975">
        <ele>694.40002441406</ele>
        <time>2023-07-30T06:29:25.000Z</time>
      </trkpt>
      <trkpt lat="43.74461" lon="7.07975">
        <ele>694.40002441406</ele>
        <time>2023-07-30T06:29:26.000Z</time>
      </trkpt>
      <trkpt lat="43.74461" lon="7.07975">
        <ele>694.40002441406</ele>
        <time>2023-07-30T06:29:27.000Z</time>
      </trkpt>
      <trkpt lat="43.74461" lon="7.07975">
        <ele>694.40002441406</ele>
        <time>2023-07-30T06:29:28.000Z</time>
      </trkpt>
      <trkpt lat="43.74461" lon="7.07975">
        <ele>694.40002441406</ele>
        <time>2023-07-30T06:29:29.000Z</time>
      </trkpt>
      <trkpt lat="43.74461" lon="7.07975">
        <ele>694.40002441406</ele>
        <time>2023-07-30T06:29:30.000Z</time>
      </trkpt>
      <trkpt lat="43.74461" lon="7.07975">
        <ele>694.40002441406</ele>
        <time>2023-07-30T06:29:31.000Z</time>
      </trkpt>
      <trkpt lat="43.74461" lon="7.07975">
        <ele>694.40002441406</ele>
        <time>2023-07-30T06:29:32.000Z</time>
      </trkpt>
      <trkpt lat="43.74461" lon="7.07975">
        <ele>694.40002441406</ele>
        <time>2023-07-30T06:29:33.000Z</time>
      </trkpt>
      <trkpt lat="43.74461" lon="7.07975">
        <ele>694.40002441406</ele>
        <time>2023-07-30T06:29:34.000Z</time>
      </trkpt>
      <trkpt lat="43.74461" lon="7.07975">
        <ele>694.40002441406</ele>
        <time>2023-07-30T06:29:35.000Z</time>
      </trkpt>
      <trkpt lat="43.74461" lon="7.07975">
        <ele>694.40002441406</ele>
        <time>2023-07-30T06:29:36.000Z</time>
      </trkpt>
      <trkpt lat="43.74461" lon="7.07975">
        <ele>694.40002441406</ele>
        <time>2023-07-30T06:29:37.000Z</time>
      </trkpt>
      <trkpt lat="43.74461" lon="7.07975">
        <ele>694.40002441406</ele>
        <time>2023-07-30T06:29:38.000Z</time>
      </trkpt>
      <trkpt lat="43.74461" lon="7.07975">
        <ele>694.40002441406</ele>
        <time>2023-07-30T06:29:39.000Z</time>
      </trkpt>
      <trkpt lat="43.74461" lon="7.07975">
        <ele>694.40002441406</ele>
        <time>2023-07-30T06:29:40.000Z</time>
      </trkpt>
      <trkpt lat="43.74461" lon="7.07975">
        <ele>694.40002441406</ele>
        <time>2023-07-30T06:29:41.000Z</time>
      </trkpt>
      <trkpt lat="43.74461" lon="7.07975">
        <ele>694.40002441406</ele>
        <time>2023-07-30T06:29:42.000Z</time>
      </trkpt>
      <trkpt lat="43.74461" lon="7.07975">
        <ele>694.40002441406</ele>
        <time>2023-07-30T06:29:43.000Z</time>
      </trkpt>
      <trkpt lat="43.74461" lon="7.07975">
        <ele>694.40002441406</ele>
        <time>2023-07-30T06:29:44.000Z</time>
      </trkpt>
      <trkpt lat="43.74461" lon="7.07975">
        <ele>694.40002441406</ele>
        <time>2023-07-30T06:29:45.000Z</time>
      </trkpt>
      <trkpt lat="43.74461" lon="7.07975">
        <ele>694.40002441406</ele>
        <time>2023-07-30T06:29:46.000Z</time>
      </trkpt>
      <trkpt lat="43.74461" lon="7.07975">
        <ele>694.40002441406</ele>
        <time>2023-07-30T06:29:47.000Z</time>
      </trkpt>
      <trkpt lat="43.74461" lon="7.07975">
        <ele>694.40002441406</ele>
        <time>2023-07-30T06:29:48.000Z</time>
      </trkpt>
      <trkpt lat="43.74461" lon="7.07975">
        <ele>694.40002441406</ele>
        <time>2023-07-30T06:29:49.000Z</time>
      </trkpt>
      <trkpt lat="43.74461" lon="7.07975">
        <ele>694.40002441406</ele>
        <time>2023-07-30T06:29:50.000Z</time>
      </trkpt>
      <trkpt lat="43.74461" lon="7.07975">
        <ele>694.40002441406</ele>
        <time>2023-07-30T06:29:51.000Z</time>
      </trkpt>
      <trkpt lat="43.74461" lon="7.07975">
        <ele>694.40002441406</ele>
        <time>2023-07-30T06:29:52.000Z</time>
      </trkpt>
      <trkpt lat="43.74461" lon="7.07975">
        <ele>694.40002441406</ele>
        <time>2023-07-30T06:29:53.000Z</time>
      </trkpt>
      <trkpt lat="43.74461" lon="7.07975">
        <ele>694.40002441406</ele>
        <time>2023-07-30T06:29:54.000Z</time>
      </trkpt>
      <trkpt lat="43.74461" lon="7.07975">
        <ele>694.40002441406</ele>
        <time>2023-07-30T06:29:55.000Z</time>
      </trkpt>
      <trkpt lat="43.74461" lon="7.07975">
        <ele>694.40002441406</ele>
        <time>2023-07-30T06:29:56.000Z</time>
      </trkpt>
      <trkpt lat="43.74461" lon="7.07975">
        <ele>694.40002441406</ele>
        <time>2023-07-30T06:29:57.000Z</time>
      </trkpt>
      <trkpt lat="43.74461" lon="7.07975">
        <ele>694.40002441406</ele>
        <time>2023-07-30T06:29:58.000Z</time>
      </trkpt>
      <trkpt lat="43.74461" lon="7.07975">
        <ele>694.40002441406</ele>
        <time>2023-07-30T06:29:59.000Z</time>
      </trkpt>
      <trkpt lat="43.74461" lon="7.07975">
        <ele>694.40002441406</ele>
        <time>2023-07-30T06:30:00.000Z</time>
      </trkpt>
      <trkpt lat="43.74461" lon="7.07975">
        <ele>694.40002441406</ele>
        <time>2023-07-30T06:30:01.000Z</time>
      </trkpt>
      <trkpt lat="43.74461" lon="7.07975">
        <ele>694.40002441406</ele>
        <time>2023-07-30T06:30:02.000Z</time>
      </trkpt>
      <trkpt lat="43.74461" lon="7.07975">
        <ele>694.40002441406</ele>
        <time>2023-07-30T06:30:03.000Z</time>
      </trkpt>
      <trkpt lat="43.74461" lon="7.07975">
        <ele>694.40002441406</ele>
        <time>2023-07-30T06:30:04.000Z</time>
      </trkpt>
      <trkpt lat="43.74461" lon="7.07975">
        <ele>694.40002441406</ele>
        <time>2023-07-30T06:30:05.000Z</time>
      </trkpt>
      <trkpt lat="43.74461" lon="7.07975">
        <ele>694.40002441406</ele>
        <time>2023-07-30T06:30:06.000Z</time>
      </trkpt>
      <trkpt lat="43.74461" lon="7.07975">
        <ele>694.40002441406</ele>
        <time>2023-07-30T06:30:07.000Z</time>
      </trkpt>
      <trkpt lat="43.74461" lon="7.07975">
        <ele>694.40002441406</ele>
        <time>2023-07-30T06:30:08.000Z</time>
      </trkpt>
      <trkpt lat="43.74461" lon="7.07975">
        <ele>694.40002441406</ele>
        <time>2023-07-30T06:30:09.000Z</time>
      </trkpt>
      <trkpt lat="43.74461" lon="7.07975">
        <ele>694.40002441406</ele>
        <time>2023-07-30T06:30:10.000Z</time>
      </trkpt>
      <trkpt lat="43.74461" lon="7.07975">
        <ele>694.40002441406</ele>
        <time>2023-07-30T06:30:11.000Z</time>
      </trkpt>
      <trkpt lat="43.74461" lon="7.07975">
        <ele>694.40002441406</ele>
        <time>2023-07-30T06:30:12.000Z</time>
      </trkpt>
      <trkpt lat="43.74461" lon="7.07975">
        <ele>694.40002441406</ele>
        <time>2023-07-30T06:30:13.000Z</time>
      </trkpt>
      <trkpt lat="43.74461" lon="7.07975">
        <ele>694.40002441406</ele>
        <time>2023-07-30T06:30:14.000Z</time>
      </trkpt>
      <trkpt lat="43.74461" lon="7.07975">
        <ele>694.40002441406</ele>
        <time>2023-07-30T06:30:15.000Z</time>
      </trkpt>
      <trkpt lat="43.74461" lon="7.07975">
        <ele>694.40002441406</ele>
        <time>2023-07-30T06:30:16.000Z</time>
      </trkpt>
      <trkpt lat="43.74461" lon="7.07975">
        <ele>694.40002441406</ele>
        <time>2023-07-30T06:30:17.000Z</time>
      </trkpt>
      <trkpt lat="43.74461" lon="7.07975">
        <ele>694.40002441406</ele>
        <time>2023-07-30T06:30:18.000Z</time>
      </trkpt>
      <trkpt lat="43.74461" lon="7.07975">
        <ele>694.40002441406</ele>
        <time>2023-07-30T06:30:19.000Z</time>
      </trkpt>
      <trkpt lat="43.74461" lon="7.07975">
        <ele>694.40002441406</ele>
        <time>2023-07-30T06:30:20.000Z</time>
      </trkpt>
      <trkpt lat="43.74461" lon="7.07975">
        <ele>694.40002441406</ele>
        <time>2023-07-30T06:30:21.000Z</time>
      </trkpt>
      <trkpt lat="43.74461" lon="7.07975">
        <ele>694.40002441406</ele>
        <time>2023-07-30T06:30:22.000Z</time>
      </trkpt>
      <trkpt lat="43.74461" lon="7.07975">
        <ele>694.40002441406</ele>
        <time>2023-07-30T06:30:23.000Z</time>
      </trkpt>
      <trkpt lat="43.74461" lon="7.07975">
        <ele>694.40002441406</ele>
        <time>2023-07-30T06:30:24.000Z</time>
      </trkpt>
      <trkpt lat="43.74461" lon="7.07975">
        <ele>694.40002441406</ele>
        <time>2023-07-30T06:30:25.000Z</time>
      </trkpt>
      <trkpt lat="43.74461" lon="7.07975">
        <ele>694.40002441406</ele>
        <time>2023-07-30T06:30:26.000Z</time>
      </trkpt>
      <trkpt lat="43.74461" lon="7.07975">
        <ele>694.59997558594</ele>
        <time>2023-07-30T06:30:27.000Z</time>
      </trkpt>
      <trkpt lat="43.74461" lon="7.07975">
        <ele>694.59997558594</ele>
        <time>2023-07-30T06:30:28.000Z</time>
      </trkpt>
      <trkpt lat="43.74461" lon="7.07975">
        <ele>694.59997558594</ele>
        <time>2023-07-30T06:30:29.000Z</time>
      </trkpt>
      <trkpt lat="43.74461" lon="7.07975">
        <ele>694.59997558594</ele>
        <time>2023-07-30T06:30:30.000Z</time>
      </trkpt>
      <trkpt lat="43.74461" lon="7.07975">
        <ele>694.59997558594</ele>
        <time>2023-07-30T06:30:31.000Z</time>
      </trkpt>
      <trkpt lat="43.74461" lon="7.07975">
        <ele>694.59997558594</ele>
        <time>2023-07-30T06:30:32.000Z</time>
      </trkpt>
      <trkpt lat="43.74461" lon="7.07975">
        <ele>694.59997558594</ele>
        <time>2023-07-30T06:30:33.000Z</time>
      </trkpt>
      <trkpt lat="43.74461" lon="7.07975">
        <ele>694.59997558594</ele>
        <time>2023-07-30T06:30:34.000Z</time>
      </trkpt>
      <trkpt lat="43.74461" lon="7.07975">
        <ele>694.59997558594</ele>
        <time>2023-07-30T06:30:35.000Z</time>
      </trkpt>
      <trkpt lat="43.74461" lon="7.07975">
        <ele>694.59997558594</ele>
        <time>2023-07-30T06:30:36.000Z</time>
      </trkpt>
      <trkpt lat="43.74461" lon="7.07975">
        <ele>694.79998779297</ele>
        <time>2023-07-30T06:30:37.000Z</time>
      </trkpt>
      <trkpt lat="43.74461" lon="7.07975">
        <ele>694.79998779297</ele>
        <time>2023-07-30T06:30:38.000Z</time>
      </trkpt>
      <trkpt lat="43.74461" lon="7.07975">
        <ele>694.79998779297</ele>
        <time>2023-07-30T06:30:39.000Z</time>
      </trkpt>
      <trkpt lat="43.74461" lon="7.07975">
        <ele>694.79998779297</ele>
        <time>2023-07-30T06:30:40.000Z</time>
      </trkpt>
      <trkpt lat="43.74461" lon="7.07975">
        <ele>694.79998779297</ele>
        <time>2023-07-30T06:30:41.000Z</time>
      </trkpt>
      <trkpt lat="43.74461" lon="7.07974">
        <ele>694.59997558594</ele>
        <time>2023-07-30T06:30:42.000Z</time>
      </trkpt>
      <trkpt lat="43.74461" lon="7.07974">
        <ele>694.59997558594</ele>
        <time>2023-07-30T06:30:43.000Z</time>
      </trkpt>
      <trkpt lat="43.74461" lon="7.07974">
        <ele>694.79998779297</ele>
        <time>2023-07-30T06:30:44.000Z</time>
      </trkpt>
      <trkpt lat="43.74461" lon="7.07974">
        <ele>694.79998779297</ele>
        <time>2023-07-30T06:30:45.000Z</time>
      </trkpt>
      <trkpt lat="43.74461" lon="7.07974">
        <ele>694.79998779297</ele>
        <time>2023-07-30T06:30:46.000Z</time>
      </trkpt>
      <trkpt lat="43.74461" lon="7.07974">
        <ele>695</ele>
        <time>2023-07-30T06:30:47.000Z</time>
      </trkpt>
      <trkpt lat="43.74461" lon="7.07974">
        <ele>695</ele>
        <time>2023-07-30T06:30:48.000Z</time>
      </trkpt>
      <trkpt lat="43.74461" lon="7.07974">
        <ele>695.20001220703</ele>
        <time>2023-07-30T06:30:49.000Z</time>
      </trkpt>
      <trkpt lat="43.74461" lon="7.07974">
        <ele>695.20001220703</ele>
        <time>2023-07-30T06:30:50.000Z</time>
      </trkpt>
      <trkpt lat="43.74461" lon="7.07974">
        <ele>695.20001220703</ele>
        <time>2023-07-30T06:30:51.000Z</time>
      </trkpt>
      <trkpt lat="43.74461" lon="7.07974">
        <ele>695.20001220703</ele>
        <time>2023-07-30T06:30:52.000Z</time>
      </trkpt>
      <trkpt lat="43.74461" lon="7.07974">
        <ele>695.20001220703</ele>
        <time>2023-07-30T06:30:53.000Z</time>
      </trkpt>
      <trkpt lat="43.74461" lon="7.07974">
        <ele>695.20001220703</ele>
        <time>2023-07-30T06:30:54.000Z</time>
      </trkpt>
      <trkpt lat="43.74461" lon="7.07974">
        <ele>695.20001220703</ele>
        <time>2023-07-30T06:30:55.000Z</time>
      </trkpt>
      <trkpt lat="43.74461" lon="7.07974">
        <ele>695.20001220703</ele>
        <time>2023-07-30T06:30:56.000Z</time>
      </trkpt>
      <trkpt lat="43.74461" lon="7.07974">
        <ele>695.20001220703</ele>
        <time>2023-07-30T06:30:57.000Z</time>
      </trkpt>
      <trkpt lat="43.74461" lon="7.07974">
        <ele>695.20001220703</ele>
        <time>2023-07-30T06:30:58.000Z</time>
      </trkpt>
      <trkpt lat="43.74461" lon="7.07974">
        <ele>695.20001220703</ele>
        <time>2023-07-30T06:30:59.000Z</time>
      </trkpt>
      <trkpt lat="43.7446" lon="7.07974">
        <ele>695.20001220703</ele>
        <time>2023-07-30T06:31:00.000Z</time>
      </trkpt>
      <trkpt lat="43.7446" lon="7.07975">
        <ele>695.20001220703</ele>
        <time>2023-07-30T06:31:01.000Z</time>
      </trkpt>
      <trkpt lat="43.7446" lon="7.07974">
        <ele>695.20001220703</ele>
        <time>2023-07-30T06:31:02.000Z</time>
      </trkpt>
      <trkpt lat="43.7446" lon="7.07974">
        <ele>695.40002441406</ele>
        <time>2023-07-30T06:31:03.000Z</time>
      </trkpt>
      <trkpt lat="43.7446" lon="7.07974">
        <ele>695.40002441406</ele>
        <time>2023-07-30T06:31:04.000Z</time>
      </trkpt>
      <trkpt lat="43.7446" lon="7.07974">
        <ele>695.40002441406</ele>
        <time>2023-07-30T06:31:05.000Z</time>
      </trkpt>
      <trkpt lat="43.7446" lon="7.07975">
        <ele>695.40002441406</ele>
        <time>2023-07-30T06:31:06.000Z</time>
      </trkpt>
      <trkpt lat="43.74461" lon="7.07975">
        <ele>695.40002441406</ele>
        <time>2023-07-30T06:31:07.000Z</time>
      </trkpt>
      <trkpt lat="43.74461" lon="7.07975">
        <ele>695.40002441406</ele>
        <time>2023-07-30T06:31:08.000Z</time>
      </trkpt>
      <trkpt lat="43.74461" lon="7.07975">
        <ele>695.40002441406</ele>
        <time>2023-07-30T06:31:09.000Z</time>
      </trkpt>
      <trkpt lat="43.74461" lon="7.07975">
        <ele>695.40002441406</ele>
        <time>2023-07-30T06:31:10.000Z</time>
      </trkpt>
      <trkpt lat="43.74462" lon="7.07974">
        <ele>695.40002441406</ele>
        <time>2023-07-30T06:31:11.000Z</time>
      </trkpt>
      <trkpt lat="43.74462" lon="7.07975">
        <ele>695.40002441406</ele>
        <time>2023-07-30T06:31:12.000Z</time>
      </trkpt>
      <trkpt lat="43.74462" lon="7.07975">
        <ele>695.40002441406</ele>
        <time>2023-07-30T06:31:13.000Z</time>
      </trkpt>
      <trkpt lat="43.74462" lon="7.07975">
        <ele>695.40002441406</ele>
        <time>2023-07-30T06:31:14.000Z</time>
      </trkpt>
      <trkpt lat="43.74462" lon="7.07975">
        <ele>695.40002441406</ele>
        <time>2023-07-30T06:31:15.000Z</time>
      </trkpt>
      <trkpt lat="43.74462" lon="7.07975">
        <ele>695.40002441406</ele>
        <time>2023-07-30T06:31:16.000Z</time>
      </trkpt>
      <trkpt lat="43.74462" lon="7.07975">
        <ele>695.40002441406</ele>
        <time>2023-07-30T06:31:17.000Z</time>
      </trkpt>
      <trkpt lat="43.74462" lon="7.07975">
        <ele>695.40002441406</ele>
        <time>2023-07-30T06:31:18.000Z</time>
      </trkpt>
      <trkpt lat="43.74462" lon="7.07975">
        <ele>695.40002441406</ele>
        <time>2023-07-30T06:31:19.000Z</time>
      </trkpt>
      <trkpt lat="43.74462" lon="7.07975">
        <ele>695.40002441406</ele>
        <time>2023-07-30T06:31:20.000Z</time>
      </trkpt>
      <trkpt lat="43.74462" lon="7.07975">
        <ele>695.40002441406</ele>
        <time>2023-07-30T06:31:21.000Z</time>
      </trkpt>
      <trkpt lat="43.74462" lon="7.07975">
        <ele>695.40002441406</ele>
        <time>2023-07-30T06:31:22.000Z</time>
      </trkpt>
      <trkpt lat="43.74462" lon="7.07975">
        <ele>695.40002441406</ele>
        <time>2023-07-30T06:31:23.000Z</time>
      </trkpt>
      <trkpt lat="43.74462" lon="7.07975">
        <ele>695.40002441406</ele>
        <time>2023-07-30T06:31:24.000Z</time>
      </trkpt>
      <trkpt lat="43.74462" lon="7.07975">
        <ele>695.40002441406</ele>
        <time>2023-07-30T06:31:25.000Z</time>
      </trkpt>
      <trkpt lat="43.74462" lon="7.07975">
        <ele>695.40002441406</ele>
        <time>2023-07-30T06:31:26.000Z</time>
      </trkpt>
      <trkpt lat="43.74462" lon="7.07975">
        <ele>695.40002441406</ele>
        <time>2023-07-30T06:31:27.000Z</time>
      </trkpt>
      <trkpt lat="43.74462" lon="7.07975">
        <ele>695.40002441406</ele>
        <time>2023-07-30T06:31:28.000Z</time>
      </trkpt>
      <trkpt lat="43.74462" lon="7.07975">
        <ele>695.40002441406</ele>
        <time>2023-07-30T06:31:29.000Z</time>
      </trkpt>
      <trkpt lat="43.74462" lon="7.07975">
        <ele>695.40002441406</ele>
        <time>2023-07-30T06:31:30.000Z</time>
      </trkpt>
      <trkpt lat="43.74462" lon="7.07975">
        <ele>695.40002441406</ele>
        <time>2023-07-30T06:31:31.000Z</time>
      </trkpt>
      <trkpt lat="43.74462" lon="7.07975">
        <ele>695.40002441406</ele>
        <time>2023-07-30T06:31:32.000Z</time>
      </trkpt>
      <trkpt lat="43.74462" lon="7.07975">
        <ele>695.40002441406</ele>
        <time>2023-07-30T06:31:33.000Z</time>
      </trkpt>
      <trkpt lat="43.74462" lon="7.07975">
        <ele>695.40002441406</ele>
        <time>2023-07-30T06:31:34.000Z</time>
      </trkpt>
      <trkpt lat="43.74462" lon="7.07975">
        <ele>695.40002441406</ele>
        <time>2023-07-30T06:31:35.000Z</time>
      </trkpt>
      <trkpt lat="43.74462" lon="7.07975">
        <ele>695.40002441406</ele>
        <time>2023-07-30T06:31:36.000Z</time>
      </trkpt>
      <trkpt lat="43.74462" lon="7.07975">
        <ele>695.40002441406</ele>
        <time>2023-07-30T06:31:37.000Z</time>
      </trkpt>
      <trkpt lat="43.74462" lon="7.07975">
        <ele>695.40002441406</ele>
        <time>2023-07-30T06:31:38.000Z</time>
      </trkpt>
      <trkpt lat="43.74462" lon="7.07975">
        <ele>695.40002441406</ele>
        <time>2023-07-30T06:31:39.000Z</time>
      </trkpt>
      <trkpt lat="43.74462" lon="7.07975">
        <ele>695.40002441406</ele>
        <time>2023-07-30T06:31:40.000Z</time>
      </trkpt>
      <trkpt lat="43.74462" lon="7.07975">
        <ele>695.40002441406</ele>
        <time>2023-07-30T06:31:41.000Z</time>
      </trkpt>
      <trkpt lat="43.74462" lon="7.07975">
        <ele>695.40002441406</ele>
        <time>2023-07-30T06:31:42.000Z</time>
      </trkpt>
      <trkpt lat="43.74462" lon="7.07975">
        <ele>695.40002441406</ele>
        <time>2023-07-30T06:31:43.000Z</time>
      </trkpt>
      <trkpt lat="43.74462" lon="7.07975">
        <ele>695.40002441406</ele>
        <time>2023-07-30T06:31:44.000Z</time>
      </trkpt>
      <trkpt lat="43.74462" lon="7.07975">
        <ele>695.40002441406</ele>
        <time>2023-07-30T06:31:45.000Z</time>
      </trkpt>
      <trkpt lat="43.74462" lon="7.07975">
        <ele>695.40002441406</ele>
        <time>2023-07-30T06:31:46.000Z</time>
      </trkpt>
      <trkpt lat="43.74462" lon="7.07975">
        <ele>695.40002441406</ele>
        <time>2023-07-30T06:31:47.000Z</time>
      </trkpt>
      <trkpt lat="43.74462" lon="7.07975">
        <ele>695.40002441406</ele>
        <time>2023-07-30T06:31:48.000Z</time>
      </trkpt>
      <trkpt lat="43.74462" lon="7.07975">
        <ele>695.40002441406</ele>
        <time>2023-07-30T06:31:49.000Z</time>
      </trkpt>
      <trkpt lat="43.74462" lon="7.07975">
        <ele>695.40002441406</ele>
        <time>2023-07-30T06:31:50.000Z</time>
      </trkpt>
      <trkpt lat="43.74462" lon="7.07975">
        <ele>695.59997558594</ele>
        <time>2023-07-30T06:31:51.000Z</time>
      </trkpt>
      <trkpt lat="43.74462" lon="7.07975">
        <ele>695.40002441406</ele>
        <time>2023-07-30T06:31:52.000Z</time>
      </trkpt>
      <trkpt lat="43.74462" lon="7.07975">
        <ele>695.40002441406</ele>
        <time>2023-07-30T06:31:53.000Z</time>
      </trkpt>
      <trkpt lat="43.74462" lon="7.07975">
        <ele>695.40002441406</ele>
        <time>2023-07-30T06:31:54.000Z</time>
      </trkpt>
      <trkpt lat="43.74462" lon="7.07975">
        <ele>695.40002441406</ele>
        <time>2023-07-30T06:31:55.000Z</time>
      </trkpt>
      <trkpt lat="43.74462" lon="7.07975">
        <ele>695.40002441406</ele>
        <time>2023-07-30T06:31:56.000Z</time>
      </trkpt>
      <trkpt lat="43.74462" lon="7.07975">
        <ele>695.40002441406</ele>
        <time>2023-07-30T06:31:57.000Z</time>
      </trkpt>
      <trkpt lat="43.74462" lon="7.07975">
        <ele>695.40002441406</ele>
        <time>2023-07-30T06:31:58.000Z</time>
      </trkpt>
      <trkpt lat="43.74462" lon="7.07975">
        <ele>695.40002441406</ele>
        <time>2023-07-30T06:31:59.000Z</time>
      </trkpt>
      <trkpt lat="43.74462" lon="7.07975">
        <ele>695.40002441406</ele>
        <time>2023-07-30T06:32:00.000Z</time>
      </trkpt>
      <trkpt lat="43.74462" lon="7.07975">
        <ele>695.40002441406</ele>
        <time>2023-07-30T06:32:01.000Z</time>
      </trkpt>
      <trkpt lat="43.74462" lon="7.07975">
        <ele>695.59997558594</ele>
        <time>2023-07-30T06:32:02.000Z</time>
      </trkpt>
      <trkpt lat="43.74462" lon="7.07975">
        <ele>695.59997558594</ele>
        <time>2023-07-30T06:32:03.000Z</time>
      </trkpt>
      <trkpt lat="43.74462" lon="7.07975">
        <ele>695.59997558594</ele>
        <time>2023-07-30T06:32:04.000Z</time>
      </trkpt>
      <trkpt lat="43.74462" lon="7.07975">
        <ele>695.59997558594</ele>
        <time>2023-07-30T06:32:05.000Z</time>
      </trkpt>
      <trkpt lat="43.74462" lon="7.07975">
        <ele>695.59997558594</ele>
        <time>2023-07-30T06:32:06.000Z</time>
      </trkpt>
      <trkpt lat="43.74462" lon="7.07975">
        <ele>695.59997558594</ele>
        <time>2023-07-30T06:32:07.000Z</time>
      </trkpt>
      <trkpt lat="43.74462" lon="7.07975">
        <ele>695.59997558594</ele>
        <time>2023-07-30T06:32:08.000Z</time>
      </trkpt>
      <trkpt lat="43.74462" lon="7.07975">
        <ele>695.59997558594</ele>
        <time>2023-07-30T06:32:09.000Z</time>
      </trkpt>
      <trkpt lat="43.74462" lon="7.07975">
        <ele>695.59997558594</ele>
        <time>2023-07-30T06:32:10.000Z</time>
      </trkpt>
      <trkpt lat="43.74462" lon="7.07975">
        <ele>695.59997558594</ele>
        <time>2023-07-30T06:32:11.000Z</time>
      </trkpt>
      <trkpt lat="43.74462" lon="7.07975">
        <ele>695.59997558594</ele>
        <time>2023-07-30T06:32:12.000Z</time>
      </trkpt>
      <trkpt lat="43.74462" lon="7.07975">
        <ele>695.59997558594</ele>
        <time>2023-07-30T06:32:13.000Z</time>
      </trkpt>
      <trkpt lat="43.74462" lon="7.07975">
        <ele>695.79998779297</ele>
        <time>2023-07-30T06:32:14.000Z</time>
      </trkpt>
      <trkpt lat="43.74462" lon="7.07975">
        <ele>695.79998779297</ele>
        <time>2023-07-30T06:32:15.000Z</time>
      </trkpt>
      <trkpt lat="43.74462" lon="7.07975">
        <ele>695.79998779297</ele>
        <time>2023-07-30T06:32:16.000Z</time>
      </trkpt>
      <trkpt lat="43.74462" lon="7.07975">
        <ele>695.79998779297</ele>
        <time>2023-07-30T06:32:17.000Z</time>
      </trkpt>
      <trkpt lat="43.74462" lon="7.07975">
        <ele>695.79998779297</ele>
        <time>2023-07-30T06:32:18.000Z</time>
      </trkpt>
      <trkpt lat="43.74462" lon="7.07975">
        <ele>695.79998779297</ele>
        <time>2023-07-30T06:32:19.000Z</time>
      </trkpt>
      <trkpt lat="43.74462" lon="7.07975">
        <ele>695.79998779297</ele>
        <time>2023-07-30T06:32:20.000Z</time>
      </trkpt>
      <trkpt lat="43.74462" lon="7.07975">
        <ele>695.79998779297</ele>
        <time>2023-07-30T06:32:21.000Z</time>
      </trkpt>
      <trkpt lat="43.74462" lon="7.07975">
        <ele>695.79998779297</ele>
        <time>2023-07-30T06:32:22.000Z</time>
      </trkpt>
      <trkpt lat="43.74461" lon="7.07975">
        <ele>695.79998779297</ele>
        <time>2023-07-30T06:32:23.000Z</time>
      </trkpt>
      <trkpt lat="43.74461" lon="7.07976">
        <ele>695.79998779297</ele>
        <time>2023-07-30T06:32:24.000Z</time>
      </trkpt>
      <trkpt lat="43.74461" lon="7.07975">
        <ele>695.79998779297</ele>
        <time>2023-07-30T06:32:25.000Z</time>
      </trkpt>
      <trkpt lat="43.74461" lon="7.07975">
        <ele>695.79998779297</ele>
        <time>2023-07-30T06:32:26.000Z</time>
      </trkpt>
      <trkpt lat="43.7446" lon="7.07976">
        <ele>695.79998779297</ele>
        <time>2023-07-30T06:32:27.000Z</time>
      </trkpt>
      <trkpt lat="43.7446" lon="7.07976">
        <ele>695.79998779297</ele>
        <time>2023-07-30T06:32:28.000Z</time>
      </trkpt>
      <trkpt lat="43.7446" lon="7.07976">
        <ele>695.79998779297</ele>
        <time>2023-07-30T06:32:29.000Z</time>
      </trkpt>
      <trkpt lat="43.7446" lon="7.07976">
        <ele>695.79998779297</ele>
        <time>2023-07-30T06:32:30.000Z</time>
      </trkpt>
      <trkpt lat="43.7446" lon="7.07976">
        <ele>695.79998779297</ele>
        <time>2023-07-30T06:32:31.000Z</time>
      </trkpt>
      <trkpt lat="43.7446" lon="7.07976">
        <ele>695.79998779297</ele>
        <time>2023-07-30T06:32:32.000Z</time>
      </trkpt>
      <trkpt lat="43.7446" lon="7.07976">
        <ele>695.79998779297</ele>
        <time>2023-07-30T06:32:33.000Z</time>
      </trkpt>
      <trkpt lat="43.7446" lon="7.07976">
        <ele>695.79998779297</ele>
        <time>2023-07-30T06:32:34.000Z</time>
      </trkpt>
      <trkpt lat="43.7446" lon="7.07976">
        <ele>695.79998779297</ele>
        <time>2023-07-30T06:32:35.000Z</time>
      </trkpt>
      <trkpt lat="43.7446" lon="7.07976">
        <ele>695.79998779297</ele>
        <time>2023-07-30T06:32:36.000Z</time>
      </trkpt>
      <trkpt lat="43.7446" lon="7.07976">
        <ele>695.79998779297</ele>
        <time>2023-07-30T06:32:37.000Z</time>
      </trkpt>
      <trkpt lat="43.7446" lon="7.07976">
        <ele>695.79998779297</ele>
        <time>2023-07-30T06:32:38.000Z</time>
      </trkpt>
      <trkpt lat="43.7446" lon="7.07976">
        <ele>695.79998779297</ele>
        <time>2023-07-30T06:32:39.000Z</time>
      </trkpt>
      <trkpt lat="43.7446" lon="7.07976">
        <ele>695.79998779297</ele>
        <time>2023-07-30T06:32:40.000Z</time>
      </trkpt>
      <trkpt lat="43.7446" lon="7.07975">
        <ele>695.79998779297</ele>
        <time>2023-07-30T06:32:41.000Z</time>
      </trkpt>
      <trkpt lat="43.74461" lon="7.07975">
        <ele>695.79998779297</ele>
        <time>2023-07-30T06:32:42.000Z</time>
      </trkpt>
      <trkpt lat="43.74461" lon="7.07975">
        <ele>695.79998779297</ele>
        <time>2023-07-30T06:32:43.000Z</time>
      </trkpt>
      <trkpt lat="43.74461" lon="7.07975">
        <ele>695.79998779297</ele>
        <time>2023-07-30T06:32:44.000Z</time>
      </trkpt>
      <trkpt lat="43.74461" lon="7.07974">
        <ele>695.79998779297</ele>
        <time>2023-07-30T06:32:45.000Z</time>
      </trkpt>
      <trkpt lat="43.74461" lon="7.07974">
        <ele>695.79998779297</ele>
        <time>2023-07-30T06:32:46.000Z</time>
      </trkpt>
      <trkpt lat="43.74461" lon="7.07974">
        <ele>695.79998779297</ele>
        <time>2023-07-30T06:32:47.000Z</time>
      </trkpt>
      <trkpt lat="43.74461" lon="7.07974">
        <ele>695.79998779297</ele>
        <time>2023-07-30T06:32:48.000Z</time>
      </trkpt>
      <trkpt lat="43.74461" lon="7.07975">
        <ele>695.79998779297</ele>
        <time>2023-07-30T06:32:49.000Z</time>
      </trkpt>
      <trkpt lat="43.74461" lon="7.07975">
        <ele>695.79998779297</ele>
        <time>2023-07-30T06:32:50.000Z</time>
      </trkpt>
      <trkpt lat="43.74462" lon="7.07974">
        <ele>695.79998779297</ele>
        <time>2023-07-30T06:32:51.000Z</time>
      </trkpt>
      <trkpt lat="43.74462" lon="7.07974">
        <ele>695.79998779297</ele>
        <time>2023-07-30T06:32:52.000Z</time>
      </trkpt>
      <trkpt lat="43.74462" lon="7.07974">
        <ele>695.79998779297</ele>
        <time>2023-07-30T06:32:53.000Z</time>
      </trkpt>
      <trkpt lat="43.74462" lon="7.07974">
        <ele>695.79998779297</ele>
        <time>2023-07-30T06:32:54.000Z</time>
      </trkpt>
      <trkpt lat="43.74461" lon="7.07974">
        <ele>695.79998779297</ele>
        <time>2023-07-30T06:32:55.000Z</time>
      </trkpt>
      <trkpt lat="43.74461" lon="7.07974">
        <ele>695.79998779297</ele>
        <time>2023-07-30T06:32:56.000Z</time>
      </trkpt>
      <trkpt lat="43.74461" lon="7.07974">
        <ele>695.79998779297</ele>
        <time>2023-07-30T06:32:57.000Z</time>
      </trkpt>
      <trkpt lat="43.74461" lon="7.07974">
        <ele>695.79998779297</ele>
        <time>2023-07-30T06:32:58.000Z</time>
      </trkpt>
      <trkpt lat="43.74461" lon="7.07974">
        <ele>695.79998779297</ele>
        <time>2023-07-30T06:32:59.000Z</time>
      </trkpt>
      <trkpt lat="43.74461" lon="7.07974">
        <ele>695.79998779297</ele>
        <time>2023-07-30T06:33:00.000Z</time>
      </trkpt>
      <trkpt lat="43.74461" lon="7.07974">
        <ele>695.79998779297</ele>
        <time>2023-07-30T06:33:01.000Z</time>
      </trkpt>
      <trkpt lat="43.74461" lon="7.07974">
        <ele>695.79998779297</ele>
        <time>2023-07-30T06:33:02.000Z</time>
      </trkpt>
      <trkpt lat="43.74461" lon="7.07974">
        <ele>695.79998779297</ele>
        <time>2023-07-30T06:33:03.000Z</time>
      </trkpt>
      <trkpt lat="43.74461" lon="7.07974">
        <ele>695.79998779297</ele>
        <time>2023-07-30T06:33:04.000Z</time>
      </trkpt>
      <trkpt lat="43.74461" lon="7.07974">
        <ele>695.79998779297</ele>
        <time>2023-07-30T06:33:05.000Z</time>
      </trkpt>
      <trkpt lat="43.74461" lon="7.07974">
        <ele>695.79998779297</ele>
        <time>2023-07-30T06:33:06.000Z</time>
      </trkpt>
      <trkpt lat="43.74461" lon="7.07974">
        <ele>695.79998779297</ele>
        <time>2023-07-30T06:33:07.000Z</time>
      </trkpt>
      <trkpt lat="43.74461" lon="7.07974">
        <ele>695.79998779297</ele>
        <time>2023-07-30T06:33:08.000Z</time>
      </trkpt>
      <trkpt lat="43.74461" lon="7.07974">
        <ele>695.79998779297</ele>
        <time>2023-07-30T06:33:09.000Z</time>
      </trkpt>
      <trkpt lat="43.74461" lon="7.07974">
        <ele>695.79998779297</ele>
        <time>2023-07-30T06:33:10.000Z</time>
      </trkpt>
      <trkpt lat="43.74461" lon="7.07974">
        <ele>695.79998779297</ele>
        <time>2023-07-30T06:33:11.000Z</time>
      </trkpt>
      <trkpt lat="43.74461" lon="7.07974">
        <ele>695.79998779297</ele>
        <time>2023-07-30T06:33:12.000Z</time>
      </trkpt>
      <trkpt lat="43.74461" lon="7.07974">
        <ele>695.79998779297</ele>
        <time>2023-07-30T06:33:13.000Z</time>
      </trkpt>
      <trkpt lat="43.74461" lon="7.07974">
        <ele>695.79998779297</ele>
        <time>2023-07-30T06:33:14.000Z</time>
      </trkpt>
      <trkpt lat="43.74461" lon="7.07974">
        <ele>695.79998779297</ele>
        <time>2023-07-30T06:33:15.000Z</time>
      </trkpt>
      <trkpt lat="43.74461" lon="7.07974">
        <ele>695.79998779297</ele>
        <time>2023-07-30T06:33:16.000Z</time>
      </trkpt>
      <trkpt lat="43.74461" lon="7.07974">
        <ele>695.79998779297</ele>
        <time>2023-07-30T06:33:17.000Z</time>
      </trkpt>
      <trkpt lat="43.74461" lon="7.07974">
        <ele>695.79998779297</ele>
        <time>2023-07-30T06:33:18.000Z</time>
      </trkpt>
      <trkpt lat="43.74461" lon="7.07974">
        <ele>695.79998779297</ele>
        <time>2023-07-30T06:33:19.000Z</time>
      </trkpt>
      <trkpt lat="43.74461" lon="7.07974">
        <ele>695.79998779297</ele>
        <time>2023-07-30T06:33:20.000Z</time>
      </trkpt>
      <trkpt lat="43.74461" lon="7.07974">
        <ele>695.79998779297</ele>
        <time>2023-07-30T06:33:21.000Z</time>
      </trkpt>
      <trkpt lat="43.74461" lon="7.07974">
        <ele>695.79998779297</ele>
        <time>2023-07-30T06:33:22.000Z</time>
      </trkpt>
      <trkpt lat="43.74461" lon="7.07974">
        <ele>695.79998779297</ele>
        <time>2023-07-30T06:33:23.000Z</time>
      </trkpt>
      <trkpt lat="43.74461" lon="7.07974">
        <ele>695.79998779297</ele>
        <time>2023-07-30T06:33:24.000Z</time>
      </trkpt>
      <trkpt lat="43.74461" lon="7.07974">
        <ele>695.79998779297</ele>
        <time>2023-07-30T06:33:25.000Z</time>
      </trkpt>
      <trkpt lat="43.74461" lon="7.07974">
        <ele>695.79998779297</ele>
        <time>2023-07-30T06:33:26.000Z</time>
      </trkpt>
      <trkpt lat="43.74463" lon="7.07973">
        <ele>695.79998779297</ele>
        <time>2023-07-30T06:33:27.000Z</time>
      </trkpt>
      <trkpt lat="43.74464" lon="7.07972">
        <ele>695.79998779297</ele>
        <time>2023-07-30T06:33:28.000Z</time>
      </trkpt>
      <trkpt lat="43.74465" lon="7.07971">
        <ele>695.79998779297</ele>
        <time>2023-07-30T06:33:29.000Z</time>
      </trkpt>
      <trkpt lat="43.74466" lon="7.07969">
        <ele>695.79998779297</ele>
        <time>2023-07-30T06:33:30.000Z</time>
      </trkpt>
      <trkpt lat="43.74468" lon="7.07968">
        <ele>695.79998779297</ele>
        <time>2023-07-30T06:33:31.000Z</time>
      </trkpt>
      <trkpt lat="43.74469" lon="7.07967">
        <ele>695.79998779297</ele>
        <time>2023-07-30T06:33:32.000Z</time>
      </trkpt>
      <trkpt lat="43.7447" lon="7.07966">
        <ele>695.79998779297</ele>
        <time>2023-07-30T06:33:33.000Z</time>
      </trkpt>
      <trkpt lat="43.74472" lon="7.07964">
        <ele>695.79998779297</ele>
        <time>2023-07-30T06:33:34.000Z</time>
      </trkpt>
      <trkpt lat="43.74473" lon="7.07963">
        <ele>695.79998779297</ele>
        <time>2023-07-30T06:33:35.000Z</time>
      </trkpt>
      <trkpt lat="43.74475" lon="7.07962">
        <ele>695.79998779297</ele>
        <time>2023-07-30T06:33:36.000Z</time>
      </trkpt>
      <trkpt lat="43.74476" lon="7.07961">
        <ele>695.79998779297</ele>
        <time>2023-07-30T06:33:37.000Z</time>
      </trkpt>
      <trkpt lat="43.74478" lon="7.0796">
        <ele>695.79998779297</ele>
        <time>2023-07-30T06:33:38.000Z</time>
      </trkpt>
      <trkpt lat="43.74479" lon="7.07959">
        <ele>695.79998779297</ele>
        <time>2023-07-30T06:33:39.000Z</time>
      </trkpt>
      <trkpt lat="43.74481" lon="7.07958">
        <ele>695.79998779297</ele>
        <time>2023-07-30T06:33:40.000Z</time>
      </trkpt>
      <trkpt lat="43.74483" lon="7.07957">
        <ele>695.79998779297</ele>
        <time>2023-07-30T06:33:41.000Z</time>
      </trkpt>
      <trkpt lat="43.74485" lon="7.07956">
        <ele>695.79998779297</ele>
        <time>2023-07-30T06:33:42.000Z</time>
      </trkpt>
      <trkpt lat="43.74487" lon="7.07955">
        <ele>695.79998779297</ele>
        <time>2023-07-30T06:33:43.000Z</time>
      </trkpt>
      <trkpt lat="43.74489" lon="7.07954">
        <ele>695.79998779297</ele>
        <time>2023-07-30T06:33:44.000Z</time>
      </trkpt>
      <trkpt lat="43.74491" lon="7.07952">
        <ele>695.79998779297</ele>
        <time>2023-07-30T06:33:45.000Z</time>
      </trkpt>
      <trkpt lat="43.74492" lon="7.0795">
        <ele>695.79998779297</ele>
        <time>2023-07-30T06:33:46.000Z</time>
      </trkpt>
      <trkpt lat="43.74494" lon="7.07949">
        <ele>698</ele>
        <time>2023-07-30T06:33:47.000Z</time>
      </trkpt>
      <trkpt lat="43.74496" lon="7.07947">
        <ele>698</ele>
        <time>2023-07-30T06:33:48.000Z</time>
      </trkpt>
      <trkpt lat="43.74498" lon="7.07946">
        <ele>698.20001220703</ele>
        <time>2023-07-30T06:33:49.000Z</time>
      </trkpt>
      <trkpt lat="43.745" lon="7.07944">
        <ele>698.20001220703</ele>
        <time>2023-07-30T06:33:50.000Z</time>
      </trkpt>
      <trkpt lat="43.74502" lon="7.07942">
        <ele>698.20001220703</ele>
        <time>2023-07-30T06:33:51.000Z</time>
      </trkpt>
      <trkpt lat="43.74503" lon="7.07941">
        <ele>698.20001220703</ele>
        <time>2023-07-30T06:33:52.000Z</time>
      </trkpt>
      <trkpt lat="43.74505" lon="7.07939">
        <ele>698.40002441406</ele>
        <time>2023-07-30T06:33:53.000Z</time>
      </trkpt>
      <trkpt lat="43.74507" lon="7.07937">
        <ele>698.59997558594</ele>
        <time>2023-07-30T06:33:54.000Z</time>
      </trkpt>
      <trkpt lat="43.74508" lon="7.07935">
        <ele>698.59997558594</ele>
        <time>2023-07-30T06:33:55.000Z</time>
      </trkpt>
      <trkpt lat="43.7451" lon="7.07933">
        <ele>698.59997558594</ele>
        <time>2023-07-30T06:33:56.000Z</time>
      </trkpt>
      <trkpt lat="43.74512" lon="7.07932">
        <ele>698.59997558594</ele>
        <time>2023-07-30T06:33:57.000Z</time>
      </trkpt>
      <trkpt lat="43.74514" lon="7.0793">
        <ele>698.59997558594</ele>
        <time>2023-07-30T06:33:58.000Z</time>
      </trkpt>
      <trkpt lat="43.74516" lon="7.07928">
        <ele>698.79998779297</ele>
        <time>2023-07-30T06:33:59.000Z</time>
      </trkpt>
      <trkpt lat="43.74518" lon="7.07927">
        <ele>698.79998779297</ele>
        <time>2023-07-30T06:34:00.000Z</time>
      </trkpt>
      <trkpt lat="43.7452" lon="7.07924">
        <ele>699</ele>
        <time>2023-07-30T06:34:01.000Z</time>
      </trkpt>
      <trkpt lat="43.74522" lon="7.07922">
        <ele>699</ele>
        <time>2023-07-30T06:34:02.000Z</time>
      </trkpt>
      <trkpt lat="43.74524" lon="7.0792">
        <ele>699</ele>
        <time>2023-07-30T06:34:03.000Z</time>
      </trkpt>
      <trkpt lat="43.74525" lon="7.07917">
        <ele>699.20001220703</ele>
        <time>2023-07-30T06:34:04.000Z</time>
      </trkpt>
      <trkpt lat="43.74526" lon="7.07915">
        <ele>699.20001220703</ele>
        <time>2023-07-30T06:34:05.000Z</time>
      </trkpt>
      <trkpt lat="43.74527" lon="7.07912">
        <ele>699.20001220703</ele>
        <time>2023-07-30T06:34:06.000Z</time>
      </trkpt>
      <trkpt lat="43.74528" lon="7.0791">
        <ele>699</ele>
        <time>2023-07-30T06:34:07.000Z</time>
      </trkpt>
      <trkpt lat="43.7453" lon="7.07908">
        <ele>699</ele>
        <time>2023-07-30T06:34:08.000Z</time>
      </trkpt>
      <trkpt lat="43.74532" lon="7.07906">
        <ele>699</ele>
        <time>2023-07-30T06:34:09.000Z</time>
      </trkpt>
      <trkpt lat="43.74534" lon="7.07904">
        <ele>699</ele>
        <time>2023-07-30T06:34:10.000Z</time>
      </trkpt>
      <trkpt lat="43.74537" lon="7.07902">
        <ele>699</ele>
        <time>2023-07-30T06:34:11.000Z</time>
      </trkpt>
      <trkpt lat="43.74538" lon="7.079">
        <ele>699</ele>
        <time>2023-07-30T06:34:12.000Z</time>
      </trkpt>
      <trkpt lat="43.7454" lon="7.07897">
        <ele>698.79998779297</ele>
        <time>2023-07-30T06:34:13.000Z</time>
      </trkpt>
      <trkpt lat="43.74541" lon="7.07895">
        <ele>698.79998779297</ele>
        <time>2023-07-30T06:34:14.000Z</time>
      </trkpt>
      <trkpt lat="43.74543" lon="7.07894">
        <ele>698.79998779297</ele>
        <time>2023-07-30T06:34:15.000Z</time>
      </trkpt>
      <trkpt lat="43.74545" lon="7.07893">
        <ele>698.79998779297</ele>
        <time>2023-07-30T06:34:16.000Z</time>
      </trkpt>
      <trkpt lat="43.74547" lon="7.07893">
        <ele>698.79998779297</ele>
        <time>2023-07-30T06:34:17.000Z</time>
      </trkpt>
      <trkpt lat="43.74549" lon="7.07893">
        <ele>698.79998779297</ele>
        <time>2023-07-30T06:34:18.000Z</time>
      </trkpt>
      <trkpt lat="43.7455" lon="7.07893">
        <ele>698.79998779297</ele>
        <time>2023-07-30T06:34:19.000Z</time>
      </trkpt>
      <trkpt lat="43.74552" lon="7.07893">
        <ele>698.79998779297</ele>
        <time>2023-07-30T06:34:20.000Z</time>
      </trkpt>
      <trkpt lat="43.74554" lon="7.07892">
        <ele>698.79998779297</ele>
        <time>2023-07-30T06:34:21.000Z</time>
      </trkpt>
      <trkpt lat="43.74555" lon="7.07891">
        <ele>699</ele>
        <time>2023-07-30T06:34:22.000Z</time>
      </trkpt>
      <trkpt lat="43.74556" lon="7.0789">
        <ele>699</ele>
        <time>2023-07-30T06:34:23.000Z</time>
      </trkpt>
      <trkpt lat="43.74557" lon="7.07889">
        <ele>699</ele>
        <time>2023-07-30T06:34:24.000Z</time>
      </trkpt>
      <trkpt lat="43.74558" lon="7.07887">
        <ele>699.20001220703</ele>
        <time>2023-07-30T06:34:25.000Z</time>
      </trkpt>
      <trkpt lat="43.74559" lon="7.07885">
        <ele>699.20001220703</ele>
        <time>2023-07-30T06:34:26.000Z</time>
      </trkpt>
      <trkpt lat="43.7456" lon="7.07883">
        <ele>699.40002441406</ele>
        <time>2023-07-30T06:34:27.000Z</time>
      </trkpt>
      <trkpt lat="43.74562" lon="7.07882">
        <ele>699.40002441406</ele>
        <time>2023-07-30T06:34:28.000Z</time>
      </trkpt>
      <trkpt lat="43.74562" lon="7.07881">
        <ele>699.40002441406</ele>
        <time>2023-07-30T06:34:29.000Z</time>
      </trkpt>
      <trkpt lat="43.74564" lon="7.07879">
        <ele>699.59997558594</ele>
        <time>2023-07-30T06:34:30.000Z</time>
      </trkpt>
      <trkpt lat="43.74565" lon="7.07878">
        <ele>699.79998779297</ele>
        <time>2023-07-30T06:34:31.000Z</time>
      </trkpt>
      <trkpt lat="43.74567" lon="7.07877">
        <ele>699.79998779297</ele>
        <time>2023-07-30T06:34:32.000Z</time>
      </trkpt>
      <trkpt lat="43.74569" lon="7.07877">
        <ele>700</ele>
        <time>2023-07-30T06:34:33.000Z</time>
      </trkpt>
      <trkpt lat="43.7457" lon="7.07876">
        <ele>700.20001220703</ele>
        <time>2023-07-30T06:34:34.000Z</time>
      </trkpt>
      <trkpt lat="43.74572" lon="7.07876">
        <ele>700.20001220703</ele>
        <time>2023-07-30T06:34:35.000Z</time>
      </trkpt>
      <trkpt lat="43.74574" lon="7.07875">
        <ele>700.20001220703</ele>
        <time>2023-07-30T06:34:36.000Z</time>
      </trkpt>
      <trkpt lat="43.74575" lon="7.07874">
        <ele>700.20001220703</ele>
        <time>2023-07-30T06:34:37.000Z</time>
      </trkpt>
      <trkpt lat="43.74577" lon="7.07873">
        <ele>700.40002441406</ele>
        <time>2023-07-30T06:34:38.000Z</time>
      </trkpt>
      <trkpt lat="43.74579" lon="7.07872">
        <ele>700.40002441406</ele>
        <time>2023-07-30T06:34:39.000Z</time>
      </trkpt>
      <trkpt lat="43.7458" lon="7.0787">
        <ele>700.40002441406</ele>
        <time>2023-07-30T06:34:40.000Z</time>
      </trkpt>
      <trkpt lat="43.74582" lon="7.07868">
        <ele>700.59997558594</ele>
        <time>2023-07-30T06:34:41.000Z</time>
      </trkpt>
      <trkpt lat="43.74583" lon="7.07867">
        <ele>700.79998779297</ele>
        <time>2023-07-30T06:34:42.000Z</time>
      </trkpt>
      <trkpt lat="43.74585" lon="7.07866">
        <ele>701</ele>
        <time>2023-07-30T06:34:43.000Z</time>
      </trkpt>
      <trkpt lat="43.74586" lon="7.07866">
        <ele>701</ele>
        <time>2023-07-30T06:34:44.000Z</time>
      </trkpt>
      <trkpt lat="43.74586" lon="7.07865">
        <ele>701.20001220703</ele>
        <time>2023-07-30T06:34:45.000Z</time>
      </trkpt>
      <trkpt lat="43.74586" lon="7.07865">
        <ele>701.40002441406</ele>
        <time>2023-07-30T06:34:46.000Z</time>
      </trkpt>
      <trkpt lat="43.74586" lon="7.07865">
        <ele>701.40002441406</ele>
        <time>2023-07-30T06:34:47.000Z</time>
      </trkpt>
      <trkpt lat="43.74586" lon="7.07865">
        <ele>701.59997558594</ele>
        <time>2023-07-30T06:34:48.000Z</time>
      </trkpt>
      <trkpt lat="43.74586" lon="7.07865">
        <ele>701.59997558594</ele>
        <time>2023-07-30T06:34:49.000Z</time>
      </trkpt>
      <trkpt lat="43.74586" lon="7.07865">
        <ele>701.59997558594</ele>
        <time>2023-07-30T06:34:50.000Z</time>
      </trkpt>
      <trkpt lat="43.74586" lon="7.07865">
        <ele>701.59997558594</ele>
        <time>2023-07-30T06:34:51.000Z</time>
      </trkpt>
      <trkpt lat="43.74586" lon="7.07865">
        <ele>701.79998779297</ele>
        <time>2023-07-30T06:34:52.000Z</time>
      </trkpt>
      <trkpt lat="43.74586" lon="7.07865">
        <ele>701.79998779297</ele>
        <time>2023-07-30T06:34:53.000Z</time>
      </trkpt>
      <trkpt lat="43.74586" lon="7.07865">
        <ele>701.79998779297</ele>
        <time>2023-07-30T06:34:54.000Z</time>
      </trkpt>
      <trkpt lat="43.74586" lon="7.07865">
        <ele>701.79998779297</ele>
        <time>2023-07-30T06:34:55.000Z</time>
      </trkpt>
      <trkpt lat="43.74586" lon="7.07865">
        <ele>701.79998779297</ele>
        <time>2023-07-30T06:34:56.000Z</time>
      </trkpt>
      <trkpt lat="43.74586" lon="7.07865">
        <ele>701.79998779297</ele>
        <time>2023-07-30T06:34:57.000Z</time>
      </trkpt>
      <trkpt lat="43.74586" lon="7.07865">
        <ele>701.79998779297</ele>
        <time>2023-07-30T06:34:58.000Z</time>
      </trkpt>
      <trkpt lat="43.74586" lon="7.07865">
        <ele>701.79998779297</ele>
        <time>2023-07-30T06:34:59.000Z</time>
      </trkpt>
      <trkpt lat="43.74586" lon="7.07865">
        <ele>701.79998779297</ele>
        <time>2023-07-30T06:35:00.000Z</time>
      </trkpt>
      <trkpt lat="43.74586" lon="7.07865">
        <ele>701.79998779297</ele>
        <time>2023-07-30T06:35:01.000Z</time>
      </trkpt>
      <trkpt lat="43.74586" lon="7.07865">
        <ele>701.79998779297</ele>
        <time>2023-07-30T06:35:02.000Z</time>
      </trkpt>
      <trkpt lat="43.74586" lon="7.07865">
        <ele>701.79998779297</ele>
        <time>2023-07-30T06:35:03.000Z</time>
      </trkpt>
      <trkpt lat="43.74586" lon="7.07865">
        <ele>701.79998779297</ele>
        <time>2023-07-30T06:35:04.000Z</time>
      </trkpt>
      <trkpt lat="43.74586" lon="7.07865">
        <ele>701.79998779297</ele>
        <time>2023-07-30T06:35:05.000Z</time>
      </trkpt>
      <trkpt lat="43.74586" lon="7.07865">
        <ele>701.79998779297</ele>
        <time>2023-07-30T06:35:06.000Z</time>
      </trkpt>
      <trkpt lat="43.74586" lon="7.07865">
        <ele>701.79998779297</ele>
        <time>2023-07-30T06:35:07.000Z</time>
      </trkpt>
      <trkpt lat="43.74586" lon="7.07865">
        <ele>701.79998779297</ele>
        <time>2023-07-30T06:35:08.000Z</time>
      </trkpt>
      <trkpt lat="43.74586" lon="7.07865">
        <ele>701.79998779297</ele>
        <time>2023-07-30T06:35:09.000Z</time>
      </trkpt>
      <trkpt lat="43.74586" lon="7.07865">
        <ele>701.79998779297</ele>
        <time>2023-07-30T06:35:10.000Z</time>
      </trkpt>
      <trkpt lat="43.74586" lon="7.07865">
        <ele>701.79998779297</ele>
        <time>2023-07-30T06:35:11.000Z</time>
      </trkpt>
      <trkpt lat="43.74586" lon="7.07865">
        <ele>701.79998779297</ele>
        <time>2023-07-30T06:35:12.000Z</time>
      </trkpt>
      <trkpt lat="43.74586" lon="7.07865">
        <ele>701.79998779297</ele>
        <time>2023-07-30T06:35:13.000Z</time>
      </trkpt>
      <trkpt lat="43.74586" lon="7.07865">
        <ele>701.79998779297</ele>
        <time>2023-07-30T06:35:14.000Z</time>
      </trkpt>
      <trkpt lat="43.74586" lon="7.07865">
        <ele>701.79998779297</ele>
        <time>2023-07-30T06:35:15.000Z</time>
      </trkpt>
      <trkpt lat="43.74586" lon="7.07865">
        <ele>701.79998779297</ele>
        <time>2023-07-30T06:35:16.000Z</time>
      </trkpt>
      <trkpt lat="43.74586" lon="7.07865">
        <ele>701.79998779297</ele>
        <time>2023-07-30T06:35:17.000Z</time>
      </trkpt>
      <trkpt lat="43.74586" lon="7.07865">
        <ele>701.79998779297</ele>
        <time>2023-07-30T06:35:18.000Z</time>
      </trkpt>
      <trkpt lat="43.74586" lon="7.07865">
        <ele>701.79998779297</ele>
        <time>2023-07-30T06:35:19.000Z</time>
      </trkpt>
      <trkpt lat="43.74586" lon="7.07865">
        <ele>701.79998779297</ele>
        <time>2023-07-30T06:35:20.000Z</time>
      </trkpt>
      <trkpt lat="43.74586" lon="7.07865">
        <ele>701.79998779297</ele>
        <time>2023-07-30T06:35:21.000Z</time>
      </trkpt>
      <trkpt lat="43.74586" lon="7.07865">
        <ele>701.79998779297</ele>
        <time>2023-07-30T06:35:22.000Z</time>
      </trkpt>
      <trkpt lat="43.74586" lon="7.07865">
        <ele>702</ele>
        <time>2023-07-30T06:35:23.000Z</time>
      </trkpt>
      <trkpt lat="43.74586" lon="7.07865">
        <ele>702</ele>
        <time>2023-07-30T06:35:24.000Z</time>
      </trkpt>
      <trkpt lat="43.74586" lon="7.07865">
        <ele>702</ele>
        <time>2023-07-30T06:35:25.000Z</time>
      </trkpt>
      <trkpt lat="43.74586" lon="7.07865">
        <ele>702</ele>
        <time>2023-07-30T06:35:26.000Z</time>
      </trkpt>
      <trkpt lat="43.74586" lon="7.07865">
        <ele>702</ele>
        <time>2023-07-30T06:35:27.000Z</time>
      </trkpt>
      <trkpt lat="43.74586" lon="7.07865">
        <ele>702</ele>
        <time>2023-07-30T06:35:28.000Z</time>
      </trkpt>
      <trkpt lat="43.74586" lon="7.07865">
        <ele>702</ele>
        <time>2023-07-30T06:35:29.000Z</time>
      </trkpt>
      <trkpt lat="43.74586" lon="7.07865">
        <ele>702</ele>
        <time>2023-07-30T06:35:30.000Z</time>
      </trkpt>
      <trkpt lat="43.74586" lon="7.07865">
        <ele>702</ele>
        <time>2023-07-30T06:35:31.000Z</time>
      </trkpt>
      <trkpt lat="43.74586" lon="7.07865">
        <ele>702</ele>
        <time>2023-07-30T06:35:32.000Z</time>
      </trkpt>
      <trkpt lat="43.74586" lon="7.07865">
        <ele>702</ele>
        <time>2023-07-30T06:35:33.000Z</time>
      </trkpt>
      <trkpt lat="43.74586" lon="7.07865">
        <ele>702</ele>
        <time>2023-07-30T06:35:34.000Z</time>
      </trkpt>
      <trkpt lat="43.74586" lon="7.07865">
        <ele>702.20001220703</ele>
        <time>2023-07-30T06:35:35.000Z</time>
      </trkpt>
      <trkpt lat="43.74586" lon="7.07865">
        <ele>702.20001220703</ele>
        <time>2023-07-30T06:35:36.000Z</time>
      </trkpt>
      <trkpt lat="43.74586" lon="7.07865">
        <ele>702.20001220703</ele>
        <time>2023-07-30T06:35:37.000Z</time>
      </trkpt>
      <trkpt lat="43.74586" lon="7.07865">
        <ele>702.20001220703</ele>
        <time>2023-07-30T06:35:38.000Z</time>
      </trkpt>
      <trkpt lat="43.74586" lon="7.07865">
        <ele>702.20001220703</ele>
        <time>2023-07-30T06:35:39.000Z</time>
      </trkpt>
      <trkpt lat="43.74586" lon="7.07865">
        <ele>702.20001220703</ele>
        <time>2023-07-30T06:35:40.000Z</time>
      </trkpt>
      <trkpt lat="43.74586" lon="7.07865">
        <ele>702.20001220703</ele>
        <time>2023-07-30T06:35:41.000Z</time>
      </trkpt>
      <trkpt lat="43.74586" lon="7.07865">
        <ele>702.20001220703</ele>
        <time>2023-07-30T06:35:42.000Z</time>
      </trkpt>
      <trkpt lat="43.74587" lon="7.07865">
        <ele>702.40002441406</ele>
        <time>2023-07-30T06:35:43.000Z</time>
      </trkpt>
      <trkpt lat="43.74588" lon="7.07865">
        <ele>702.40002441406</ele>
        <time>2023-07-30T06:35:44.000Z</time>
      </trkpt>
      <trkpt lat="43.74589" lon="7.07865">
        <ele>702.40002441406</ele>
        <time>2023-07-30T06:35:45.000Z</time>
      </trkpt>
      <trkpt lat="43.7459" lon="7.07866">
        <ele>702.40002441406</ele>
        <time>2023-07-30T06:35:46.000Z</time>
      </trkpt>
      <trkpt lat="43.74592" lon="7.07867">
        <ele>702.40002441406</ele>
        <time>2023-07-30T06:35:47.000Z</time>
      </trkpt>
      <trkpt lat="43.74594" lon="7.07868">
        <ele>702.40002441406</ele>
        <time>2023-07-30T06:35:48.000Z</time>
      </trkpt>
      <trkpt lat="43.74596" lon="7.07869">
        <ele>702.59997558594</ele>
        <time>2023-07-30T06:35:49.000Z</time>
      </trkpt>
      <trkpt lat="43.74598" lon="7.07869">
        <ele>702.59997558594</ele>
        <time>2023-07-30T06:35:51.000Z</time>
      </trkpt>
      <trkpt lat="43.746" lon="7.07869">
        <ele>702.79998779297</ele>
        <time>2023-07-30T06:35:52.000Z</time>
      </trkpt>
      <trkpt lat="43.74602" lon="7.0787">
        <ele>703</ele>
        <time>2023-07-30T06:35:53.000Z</time>
      </trkpt>
      <trkpt lat="43.74604" lon="7.0787">
        <ele>703.20001220703</ele>
        <time>2023-07-30T06:35:54.000Z</time>
      </trkpt>
      <trkpt lat="43.74606" lon="7.0787">
        <ele>703.40002441406</ele>
        <time>2023-07-30T06:35:55.000Z</time>
      </trkpt>
      <trkpt lat="43.74608" lon="7.07869">
        <ele>703.59997558594</ele>
        <time>2023-07-30T06:35:56.000Z</time>
      </trkpt>
      <trkpt lat="43.7461" lon="7.07868">
        <ele>703.59997558594</ele>
        <time>2023-07-30T06:35:57.000Z</time>
      </trkpt>
      <trkpt lat="43.74611" lon="7.07867">
        <ele>703.79998779297</ele>
        <time>2023-07-30T06:35:58.000Z</time>
      </trkpt>
      <trkpt lat="43.74613" lon="7.07866">
        <ele>704.59997558594</ele>
        <time>2023-07-30T06:35:59.000Z</time>
      </trkpt>
      <trkpt lat="43.74615" lon="7.07865">
        <ele>704.79998779297</ele>
        <time>2023-07-30T06:36:00.000Z</time>
      </trkpt>
      <trkpt lat="43.74617" lon="7.07864">
        <ele>704.79998779297</ele>
        <time>2023-07-30T06:36:01.000Z</time>
      </trkpt>
      <trkpt lat="43.74619" lon="7.07864">
        <ele>705.20001220703</ele>
        <time>2023-07-30T06:36:02.000Z</time>
      </trkpt>
      <trkpt lat="43.74621" lon="7.07864">
        <ele>705.20001220703</ele>
        <time>2023-07-30T06:36:03.000Z</time>
      </trkpt>
      <trkpt lat="43.74622" lon="7.07864">
        <ele>705.40002441406</ele>
        <time>2023-07-30T06:36:04.000Z</time>
      </trkpt>
      <trkpt lat="43.74624" lon="7.07865">
        <ele>705.79998779297</ele>
        <time>2023-07-30T06:36:05.000Z</time>
      </trkpt>
      <trkpt lat="43.74626" lon="7.07864">
        <ele>706</ele>
        <time>2023-07-30T06:36:06.000Z</time>
      </trkpt>
      <trkpt lat="43.74627" lon="7.07864">
        <ele>706.20001220703</ele>
        <time>2023-07-30T06:36:07.000Z</time>
      </trkpt>
      <trkpt lat="43.74629" lon="7.07862">
        <ele>706.40002441406</ele>
        <time>2023-07-30T06:36:08.000Z</time>
      </trkpt>
      <trkpt lat="43.74631" lon="7.0786">
        <ele>706.79998779297</ele>
        <time>2023-07-30T06:36:09.000Z</time>
      </trkpt>
      <trkpt lat="43.74632" lon="7.07858">
        <ele>706.79998779297</ele>
        <time>2023-07-30T06:36:10.000Z</time>
      </trkpt>
      <trkpt lat="43.74634" lon="7.07856">
        <ele>706.79998779297</ele>
        <time>2023-07-30T06:36:11.000Z</time>
      </trkpt>
      <trkpt lat="43.74635" lon="7.07855">
        <ele>707</ele>
        <time>2023-07-30T06:36:12.000Z</time>
      </trkpt>
      <trkpt lat="43.74638" lon="7.07853">
        <ele>707.20001220703</ele>
        <time>2023-07-30T06:36:13.000Z</time>
      </trkpt>
      <trkpt lat="43.7464" lon="7.07853">
        <ele>707.20001220703</ele>
        <time>2023-07-30T06:36:14.000Z</time>
      </trkpt>
      <trkpt lat="43.74642" lon="7.07851">
        <ele>707.40002441406</ele>
        <time>2023-07-30T06:36:15.000Z</time>
      </trkpt>
      <trkpt lat="43.74644" lon="7.0785">
        <ele>707.59997558594</ele>
        <time>2023-07-30T06:36:16.000Z</time>
      </trkpt>
      <trkpt lat="43.74646" lon="7.07849">
        <ele>707.59997558594</ele>
        <time>2023-07-30T06:36:17.000Z</time>
      </trkpt>
      <trkpt lat="43.74648" lon="7.07848">
        <ele>707.59997558594</ele>
        <time>2023-07-30T06:36:18.000Z</time>
      </trkpt>
      <trkpt lat="43.74649" lon="7.07847">
        <ele>707.79998779297</ele>
        <time>2023-07-30T06:36:19.000Z</time>
      </trkpt>
      <trkpt lat="43.74651" lon="7.07845">
        <ele>708</ele>
        <time>2023-07-30T06:36:20.000Z</time>
      </trkpt>
      <trkpt lat="43.74653" lon="7.07843">
        <ele>708.20001220703</ele>
        <time>2023-07-30T06:36:21.000Z</time>
      </trkpt>
      <trkpt lat="43.74655" lon="7.07842">
        <ele>708.20001220703</ele>
        <time>2023-07-30T06:36:22.000Z</time>
      </trkpt>
      <trkpt lat="43.74657" lon="7.07841">
        <ele>708.40002441406</ele>
        <time>2023-07-30T06:36:23.000Z</time>
      </trkpt>
      <trkpt lat="43.74659" lon="7.07841">
        <ele>708.79998779297</ele>
        <time>2023-07-30T06:36:24.000Z</time>
      </trkpt>
      <trkpt lat="43.74661" lon="7.07841">
        <ele>708.79998779297</ele>
        <time>2023-07-30T06:36:25.000Z</time>
      </trkpt>
      <trkpt lat="43.74663" lon="7.07841">
        <ele>709</ele>
        <time>2023-07-30T06:36:26.000Z</time>
      </trkpt>
      <trkpt lat="43.74666" lon="7.07841">
        <ele>709</ele>
        <time>2023-07-30T06:36:27.000Z</time>
      </trkpt>
      <trkpt lat="43.74668" lon="7.07841">
        <ele>709.40002441406</ele>
        <time>2023-07-30T06:36:28.000Z</time>
      </trkpt>
      <trkpt lat="43.7467" lon="7.0784">
        <ele>709.79998779297</ele>
        <time>2023-07-30T06:36:29.000Z</time>
      </trkpt>
      <trkpt lat="43.74672" lon="7.07839">
        <ele>710</ele>
        <time>2023-07-30T06:36:30.000Z</time>
      </trkpt>
      <trkpt lat="43.74674" lon="7.07839">
        <ele>710.20001220703</ele>
        <time>2023-07-30T06:36:31.000Z</time>
      </trkpt>
      <trkpt lat="43.74675" lon="7.07839">
        <ele>710.40002441406</ele>
        <time>2023-07-30T06:36:32.000Z</time>
      </trkpt>
      <trkpt lat="43.74678" lon="7.07838">
        <ele>710.40002441406</ele>
        <time>2023-07-30T06:36:33.000Z</time>
      </trkpt>
      <trkpt lat="43.7468" lon="7.07838">
        <ele>710.40002441406</ele>
        <time>2023-07-30T06:36:34.000Z</time>
      </trkpt>
      <trkpt lat="43.74682" lon="7.07838">
        <ele>711</ele>
        <time>2023-07-30T06:36:35.000Z</time>
      </trkpt>
      <trkpt lat="43.74684" lon="7.07838">
        <ele>711.20001220703</ele>
        <time>2023-07-30T06:36:36.000Z</time>
      </trkpt>
      <trkpt lat="43.74686" lon="7.07837">
        <ele>711.40002441406</ele>
        <time>2023-07-30T06:36:37.000Z</time>
      </trkpt>
      <trkpt lat="43.74688" lon="7.07837">
        <ele>711.59997558594</ele>
        <time>2023-07-30T06:36:38.000Z</time>
      </trkpt>
      <trkpt lat="43.7469" lon="7.07837">
        <ele>711.79998779297</ele>
        <time>2023-07-30T06:36:39.000Z</time>
      </trkpt>
      <trkpt lat="43.74692" lon="7.07837">
        <ele>712.20001220703</ele>
        <time>2023-07-30T06:36:40.000Z</time>
      </trkpt>
      <trkpt lat="43.74695" lon="7.07837">
        <ele>712.20001220703</ele>
        <time>2023-07-30T06:36:41.000Z</time>
      </trkpt>
      <trkpt lat="43.74697" lon="7.07837">
        <ele>712.59997558594</ele>
        <time>2023-07-30T06:36:42.000Z</time>
      </trkpt>
      <trkpt lat="43.74699" lon="7.07837">
        <ele>712.79998779297</ele>
        <time>2023-07-30T06:36:43.000Z</time>
      </trkpt>
      <trkpt lat="43.747" lon="7.07838">
        <ele>713.20001220703</ele>
        <time>2023-07-30T06:36:44.000Z</time>
      </trkpt>
      <trkpt lat="43.74702" lon="7.07838">
        <ele>713.79998779297</ele>
        <time>2023-07-30T06:36:45.000Z</time>
      </trkpt>
      <trkpt lat="43.74704" lon="7.07838">
        <ele>714</ele>
        <time>2023-07-30T06:36:46.000Z</time>
      </trkpt>
      <trkpt lat="43.74706" lon="7.07838">
        <ele>714.40002441406</ele>
        <time>2023-07-30T06:36:47.000Z</time>
      </trkpt>
      <trkpt lat="43.74708" lon="7.07838">
        <ele>714.59997558594</ele>
        <time>2023-07-30T06:36:48.000Z</time>
      </trkpt>
      <trkpt lat="43.7471" lon="7.07838">
        <ele>715</ele>
        <time>2023-07-30T06:36:49.000Z</time>
      </trkpt>
      <trkpt lat="43.74711" lon="7.07838">
        <ele>715.40002441406</ele>
        <time>2023-07-30T06:36:50.000Z</time>
      </trkpt>
      <trkpt lat="43.74713" lon="7.07838">
        <ele>715.59997558594</ele>
        <time>2023-07-30T06:36:51.000Z</time>
      </trkpt>
      <trkpt lat="43.74715" lon="7.07838">
        <ele>715.79998779297</ele>
        <time>2023-07-30T06:36:52.000Z</time>
      </trkpt>
      <trkpt lat="43.74717" lon="7.07838">
        <ele>716</ele>
        <time>2023-07-30T06:36:53.000Z</time>
      </trkpt>
      <trkpt lat="43.74719" lon="7.07838">
        <ele>716.20001220703</ele>
        <time>2023-07-30T06:36:54.000Z</time>
      </trkpt>
      <trkpt lat="43.7472" lon="7.07838">
        <ele>716.20001220703</ele>
        <time>2023-07-30T06:36:55.000Z</time>
      </trkpt>
      <trkpt lat="43.7472" lon="7.07838">
        <ele>716.59997558594</ele>
        <time>2023-07-30T06:36:56.000Z</time>
      </trkpt>
      <trkpt lat="43.7472" lon="7.07838">
        <ele>716.59997558594</ele>
        <time>2023-07-30T06:36:57.000Z</time>
      </trkpt>
      <trkpt lat="43.7472" lon="7.07838">
        <ele>716.59997558594</ele>
        <time>2023-07-30T06:36:58.000Z</time>
      </trkpt>
      <trkpt lat="43.7472" lon="7.07838">
        <ele>716.59997558594</ele>
        <time>2023-07-30T06:36:59.000Z</time>
      </trkpt>
      <trkpt lat="43.7472" lon="7.07838">
        <ele>716.59997558594</ele>
        <time>2023-07-30T06:37:00.000Z</time>
      </trkpt>
      <trkpt lat="43.7472" lon="7.07838">
        <ele>716.59997558594</ele>
        <time>2023-07-30T06:37:01.000Z</time>
      </trkpt>
      <trkpt lat="43.7472" lon="7.07838">
        <ele>716.59997558594</ele>
        <time>2023-07-30T06:37:02.000Z</time>
      </trkpt>
      <trkpt lat="43.7472" lon="7.07838">
        <ele>716.40002441406</ele>
        <time>2023-07-30T06:37:03.000Z</time>
      </trkpt>
      <trkpt lat="43.7472" lon="7.07838">
        <ele>716.40002441406</ele>
        <time>2023-07-30T06:37:04.000Z</time>
      </trkpt>
      <trkpt lat="43.7472" lon="7.07838">
        <ele>716.40002441406</ele>
        <time>2023-07-30T06:37:05.000Z</time>
      </trkpt>
      <trkpt lat="43.7472" lon="7.07838">
        <ele>716.40002441406</ele>
        <time>2023-07-30T06:37:06.000Z</time>
      </trkpt>
      <trkpt lat="43.7472" lon="7.07838">
        <ele>716.40002441406</ele>
        <time>2023-07-30T06:37:07.000Z</time>
      </trkpt>
      <trkpt lat="43.7472" lon="7.07838">
        <ele>716.40002441406</ele>
        <time>2023-07-30T06:37:08.000Z</time>
      </trkpt>
      <trkpt lat="43.7472" lon="7.07838">
        <ele>716.40002441406</ele>
        <time>2023-07-30T06:37:09.000Z</time>
      </trkpt>
      <trkpt lat="43.7472" lon="7.07838">
        <ele>716.40002441406</ele>
        <time>2023-07-30T06:37:10.000Z</time>
      </trkpt>
      <trkpt lat="43.7472" lon="7.07838">
        <ele>716.40002441406</ele>
        <time>2023-07-30T06:37:11.000Z</time>
      </trkpt>
      <trkpt lat="43.7472" lon="7.07838">
        <ele>716.40002441406</ele>
        <time>2023-07-30T06:37:12.000Z</time>
      </trkpt>
      <trkpt lat="43.7472" lon="7.07838">
        <ele>716.40002441406</ele>
        <time>2023-07-30T06:37:13.000Z</time>
      </trkpt>
      <trkpt lat="43.7472" lon="7.07838">
        <ele>716.40002441406</ele>
        <time>2023-07-30T06:37:14.000Z</time>
      </trkpt>
      <trkpt lat="43.7472" lon="7.07838">
        <ele>716.40002441406</ele>
        <time>2023-07-30T06:37:15.000Z</time>
      </trkpt>
      <trkpt lat="43.7472" lon="7.07838">
        <ele>716.40002441406</ele>
        <time>2023-07-30T06:37:16.000Z</time>
      </trkpt>
      <trkpt lat="43.7472" lon="7.07838">
        <ele>716.40002441406</ele>
        <time>2023-07-30T06:37:17.000Z</time>
      </trkpt>
      <trkpt lat="43.7472" lon="7.07838">
        <ele>716.40002441406</ele>
        <time>2023-07-30T06:37:18.000Z</time>
      </trkpt>
      <trkpt lat="43.7472" lon="7.07838">
        <ele>716.40002441406</ele>
        <time>2023-07-30T06:37:19.000Z</time>
      </trkpt>
      <trkpt lat="43.7472" lon="7.07838">
        <ele>716.40002441406</ele>
        <time>2023-07-30T06:37:20.000Z</time>
      </trkpt>
      <trkpt lat="43.7472" lon="7.07838">
        <ele>716.40002441406</ele>
        <time>2023-07-30T06:37:21.000Z</time>
      </trkpt>
      <trkpt lat="43.7472" lon="7.07838">
        <ele>716.40002441406</ele>
        <time>2023-07-30T06:37:22.000Z</time>
      </trkpt>
      <trkpt lat="43.7472" lon="7.07838">
        <ele>716.40002441406</ele>
        <time>2023-07-30T06:37:23.000Z</time>
      </trkpt>
      <trkpt lat="43.7472" lon="7.07838">
        <ele>716.40002441406</ele>
        <time>2023-07-30T06:37:24.000Z</time>
      </trkpt>
      <trkpt lat="43.7472" lon="7.07838">
        <ele>716.40002441406</ele>
        <time>2023-07-30T06:37:25.000Z</time>
      </trkpt>
      <trkpt lat="43.7472" lon="7.07838">
        <ele>716.59997558594</ele>
        <time>2023-07-30T06:37:26.000Z</time>
      </trkpt>
      <trkpt lat="43.7472" lon="7.07838">
        <ele>716.59997558594</ele>
        <time>2023-07-30T06:37:27.000Z</time>
      </trkpt>
      <trkpt lat="43.7472" lon="7.07838">
        <ele>716.59997558594</ele>
        <time>2023-07-30T06:37:28.000Z</time>
      </trkpt>
      <trkpt lat="43.7472" lon="7.07838">
        <ele>716.59997558594</ele>
        <time>2023-07-30T06:37:29.000Z</time>
      </trkpt>
      <trkpt lat="43.7472" lon="7.07838">
        <ele>716.59997558594</ele>
        <time>2023-07-30T06:37:30.000Z</time>
      </trkpt>
      <trkpt lat="43.7472" lon="7.07838">
        <ele>716.40002441406</ele>
        <time>2023-07-30T06:37:31.000Z</time>
      </trkpt>
      <trkpt lat="43.7472" lon="7.07838">
        <ele>716.40002441406</ele>
        <time>2023-07-30T06:37:32.000Z</time>
      </trkpt>
      <trkpt lat="43.7472" lon="7.07838">
        <ele>716.40002441406</ele>
        <time>2023-07-30T06:37:33.000Z</time>
      </trkpt>
      <trkpt lat="43.7472" lon="7.07838">
        <ele>716.40002441406</ele>
        <time>2023-07-30T06:37:34.000Z</time>
      </trkpt>
      <trkpt lat="43.7472" lon="7.07838">
        <ele>716.59997558594</ele>
        <time>2023-07-30T06:37:35.000Z</time>
      </trkpt>
      <trkpt lat="43.7472" lon="7.07838">
        <ele>716.59997558594</ele>
        <time>2023-07-30T06:37:36.000Z</time>
      </trkpt>
      <trkpt lat="43.7472" lon="7.07838">
        <ele>716.59997558594</ele>
        <time>2023-07-30T06:37:37.000Z</time>
      </trkpt>
      <trkpt lat="43.7472" lon="7.07838">
        <ele>716.59997558594</ele>
        <time>2023-07-30T06:37:38.000Z</time>
      </trkpt>
      <trkpt lat="43.7472" lon="7.07838">
        <ele>716.59997558594</ele>
        <time>2023-07-30T06:37:39.000Z</time>
      </trkpt>
      <trkpt lat="43.7472" lon="7.07838">
        <ele>716.59997558594</ele>
        <time>2023-07-30T06:37:40.000Z</time>
      </trkpt>
      <trkpt lat="43.7472" lon="7.07838">
        <ele>716.59997558594</ele>
        <time>2023-07-30T06:37:41.000Z</time>
      </trkpt>
      <trkpt lat="43.7472" lon="7.07838">
        <ele>716.59997558594</ele>
        <time>2023-07-30T06:37:42.000Z</time>
      </trkpt>
      <trkpt lat="43.7472" lon="7.07838">
        <ele>716.59997558594</ele>
        <time>2023-07-30T06:37:43.000Z</time>
      </trkpt>
      <trkpt lat="43.7472" lon="7.07838">
        <ele>716.59997558594</ele>
        <time>2023-07-30T06:37:44.000Z</time>
      </trkpt>
      <trkpt lat="43.7472" lon="7.07838">
        <ele>716.59997558594</ele>
        <time>2023-07-30T06:37:45.000Z</time>
      </trkpt>
      <trkpt lat="43.7472" lon="7.07838">
        <ele>716.59997558594</ele>
        <time>2023-07-30T06:37:46.000Z</time>
      </trkpt>
      <trkpt lat="43.7472" lon="7.07838">
        <ele>716.59997558594</ele>
        <time>2023-07-30T06:37:47.000Z</time>
      </trkpt>
      <trkpt lat="43.7472" lon="7.07838">
        <ele>716.59997558594</ele>
        <time>2023-07-30T06:37:48.000Z</time>
      </trkpt>
      <trkpt lat="43.7472" lon="7.07838">
        <ele>716.59997558594</ele>
        <time>2023-07-30T06:37:49.000Z</time>
      </trkpt>
      <trkpt lat="43.7472" lon="7.07838">
        <ele>716.79998779297</ele>
        <time>2023-07-30T06:37:50.000Z</time>
      </trkpt>
      <trkpt lat="43.7472" lon="7.07838">
        <ele>716.59997558594</ele>
        <time>2023-07-30T06:37:51.000Z</time>
      </trkpt>
      <trkpt lat="43.7472" lon="7.07838">
        <ele>716.79998779297</ele>
        <time>2023-07-30T06:37:52.000Z</time>
      </trkpt>
      <trkpt lat="43.7472" lon="7.07838">
        <ele>716.79998779297</ele>
        <time>2023-07-30T06:37:53.000Z</time>
      </trkpt>
      <trkpt lat="43.7472" lon="7.07838">
        <ele>716.79998779297</ele>
        <time>2023-07-30T06:37:54.000Z</time>
      </trkpt>
      <trkpt lat="43.7472" lon="7.07838">
        <ele>716.79998779297</ele>
        <time>2023-07-30T06:37:55.000Z</time>
      </trkpt>
      <trkpt lat="43.7472" lon="7.07838">
        <ele>716.79998779297</ele>
        <time>2023-07-30T06:37:56.000Z</time>
      </trkpt>
      <trkpt lat="43.7472" lon="7.07838">
        <ele>716.79998779297</ele>
        <time>2023-07-30T06:37:57.000Z</time>
      </trkpt>
      <trkpt lat="43.7472" lon="7.07838">
        <ele>716.79998779297</ele>
        <time>2023-07-30T06:37:58.000Z</time>
      </trkpt>
      <trkpt lat="43.7472" lon="7.07838">
        <ele>716.79998779297</ele>
        <time>2023-07-30T06:37:59.000Z</time>
      </trkpt>
      <trkpt lat="43.7472" lon="7.07838">
        <ele>716.79998779297</ele>
        <time>2023-07-30T06:38:00.000Z</time>
      </trkpt>
      <trkpt lat="43.7472" lon="7.07838">
        <ele>716.79998779297</ele>
        <time>2023-07-30T06:38:01.000Z</time>
      </trkpt>
      <trkpt lat="43.7472" lon="7.07838">
        <ele>716.79998779297</ele>
        <time>2023-07-30T06:38:02.000Z</time>
      </trkpt>
      <trkpt lat="43.7472" lon="7.07838">
        <ele>716.79998779297</ele>
        <time>2023-07-30T06:38:03.000Z</time>
      </trkpt>
      <trkpt lat="43.7472" lon="7.07838">
        <ele>716.79998779297</ele>
        <time>2023-07-30T06:38:04.000Z</time>
      </trkpt>
      <trkpt lat="43.7472" lon="7.07838">
        <ele>716.79998779297</ele>
        <time>2023-07-30T06:38:05.000Z</time>
      </trkpt>
      <trkpt lat="43.7472" lon="7.07838">
        <ele>716.79998779297</ele>
        <time>2023-07-30T06:38:06.000Z</time>
      </trkpt>
      <trkpt lat="43.7472" lon="7.07838">
        <ele>716.79998779297</ele>
        <time>2023-07-30T06:38:07.000Z</time>
      </trkpt>
      <trkpt lat="43.7472" lon="7.07838">
        <ele>716.79998779297</ele>
        <time>2023-07-30T06:38:08.000Z</time>
      </trkpt>
      <trkpt lat="43.7472" lon="7.07838">
        <ele>716.79998779297</ele>
        <time>2023-07-30T06:38:09.000Z</time>
      </trkpt>
      <trkpt lat="43.7472" lon="7.07838">
        <ele>716.79998779297</ele>
        <time>2023-07-30T06:38:10.000Z</time>
      </trkpt>
      <trkpt lat="43.7472" lon="7.07838">
        <ele>716.79998779297</ele>
        <time>2023-07-30T06:38:11.000Z</time>
      </trkpt>
      <trkpt lat="43.7472" lon="7.07838">
        <ele>716.79998779297</ele>
        <time>2023-07-30T06:38:12.000Z</time>
      </trkpt>
      <trkpt lat="43.7472" lon="7.07838">
        <ele>716.79998779297</ele>
        <time>2023-07-30T06:38:13.000Z</time>
      </trkpt>
      <trkpt lat="43.7472" lon="7.07838">
        <ele>716.79998779297</ele>
        <time>2023-07-30T06:38:14.000Z</time>
      </trkpt>
      <trkpt lat="43.7472" lon="7.07838">
        <ele>716.79998779297</ele>
        <time>2023-07-30T06:38:15.000Z</time>
      </trkpt>
      <trkpt lat="43.7472" lon="7.07838">
        <ele>716.79998779297</ele>
        <time>2023-07-30T06:38:16.000Z</time>
      </trkpt>
      <trkpt lat="43.7472" lon="7.07838">
        <ele>716.79998779297</ele>
        <time>2023-07-30T06:38:17.000Z</time>
      </trkpt>
      <trkpt lat="43.7472" lon="7.07838">
        <ele>716.79998779297</ele>
        <time>2023-07-30T06:38:18.000Z</time>
      </trkpt>
      <trkpt lat="43.7472" lon="7.07838">
        <ele>716.79998779297</ele>
        <time>2023-07-30T06:38:19.000Z</time>
      </trkpt>
      <trkpt lat="43.7472" lon="7.07838">
        <ele>717</ele>
        <time>2023-07-30T06:38:20.000Z</time>
      </trkpt>
      <trkpt lat="43.7472" lon="7.07838">
        <ele>717</ele>
        <time>2023-07-30T06:38:21.000Z</time>
      </trkpt>
      <trkpt lat="43.7472" lon="7.07839">
        <ele>717</ele>
        <time>2023-07-30T06:38:22.000Z</time>
      </trkpt>
      <trkpt lat="43.7472" lon="7.07839">
        <ele>717</ele>
        <time>2023-07-30T06:38:23.000Z</time>
      </trkpt>
      <trkpt lat="43.7472" lon="7.07839">
        <ele>717</ele>
        <time>2023-07-30T06:38:24.000Z</time>
      </trkpt>
      <trkpt lat="43.7472" lon="7.07839">
        <ele>717</ele>
        <time>2023-07-30T06:38:25.000Z</time>
      </trkpt>
      <trkpt lat="43.7472" lon="7.07839">
        <ele>717</ele>
        <time>2023-07-30T06:38:26.000Z</time>
      </trkpt>
      <trkpt lat="43.7472" lon="7.07839">
        <ele>717</ele>
        <time>2023-07-30T06:38:27.000Z</time>
      </trkpt>
      <trkpt lat="43.7472" lon="7.07839">
        <ele>717</ele>
        <time>2023-07-30T06:38:28.000Z</time>
      </trkpt>
      <trkpt lat="43.7472" lon="7.07839">
        <ele>717</ele>
        <time>2023-07-30T06:38:29.000Z</time>
      </trkpt>
      <trkpt lat="43.7472" lon="7.07839">
        <ele>717</ele>
        <time>2023-07-30T06:38:30.000Z</time>
      </trkpt>
      <trkpt lat="43.7472" lon="7.07839">
        <ele>717</ele>
        <time>2023-07-30T06:38:31.000Z</time>
      </trkpt>
      <trkpt lat="43.7472" lon="7.07839">
        <ele>717</ele>
        <time>2023-07-30T06:38:32.000Z</time>
      </trkpt>
      <trkpt lat="43.7472" lon="7.07839">
        <ele>717.20001220703</ele>
        <time>2023-07-30T06:38:33.000Z</time>
      </trkpt>
      <trkpt lat="43.7472" lon="7.07838">
        <ele>717.20001220703</ele>
        <time>2023-07-30T06:38:34.000Z</time>
      </trkpt>
      <trkpt lat="43.7472" lon="7.07839">
        <ele>717.20001220703</ele>
        <time>2023-07-30T06:38:35.000Z</time>
      </trkpt>
      <trkpt lat="43.7472" lon="7.07839">
        <ele>717.20001220703</ele>
        <time>2023-07-30T06:38:36.000Z</time>
      </trkpt>
      <trkpt lat="43.7472" lon="7.07838">
        <ele>717.20001220703</ele>
        <time>2023-07-30T06:38:37.000Z</time>
      </trkpt>
      <trkpt lat="43.7472" lon="7.07838">
        <ele>717.20001220703</ele>
        <time>2023-07-30T06:38:38.000Z</time>
      </trkpt>
      <trkpt lat="43.7472" lon="7.07837">
        <ele>717.40002441406</ele>
        <time>2023-07-30T06:38:39.000Z</time>
      </trkpt>
      <trkpt lat="43.74721" lon="7.07837">
        <ele>717.40002441406</ele>
        <time>2023-07-30T06:38:40.000Z</time>
      </trkpt>
      <trkpt lat="43.74721" lon="7.07837">
        <ele>717.59997558594</ele>
        <time>2023-07-30T06:38:41.000Z</time>
      </trkpt>
      <trkpt lat="43.74721" lon="7.07837">
        <ele>717.59997558594</ele>
        <time>2023-07-30T06:38:42.000Z</time>
      </trkpt>
      <trkpt lat="43.74721" lon="7.07837">
        <ele>717.79998779297</ele>
        <time>2023-07-30T06:38:43.000Z</time>
      </trkpt>
      <trkpt lat="43.74721" lon="7.07837">
        <ele>717.79998779297</ele>
        <time>2023-07-30T06:38:44.000Z</time>
      </trkpt>
      <trkpt lat="43.74721" lon="7.07837">
        <ele>717.79998779297</ele>
        <time>2023-07-30T06:38:45.000Z</time>
      </trkpt>
      <trkpt lat="43.74721" lon="7.07837">
        <ele>717.79998779297</ele>
        <time>2023-07-30T06:38:46.000Z</time>
      </trkpt>
      <trkpt lat="43.74721" lon="7.07837">
        <ele>717.79998779297</ele>
        <time>2023-07-30T06:38:47.000Z</time>
      </trkpt>
      <trkpt lat="43.74721" lon="7.07837">
        <ele>717.79998779297</ele>
        <time>2023-07-30T06:38:48.000Z</time>
      </trkpt>
      <trkpt lat="43.74721" lon="7.07837">
        <ele>717.79998779297</ele>
        <time>2023-07-30T06:38:49.000Z</time>
      </trkpt>
      <trkpt lat="43.74721" lon="7.07837">
        <ele>717.79998779297</ele>
        <time>2023-07-30T06:38:50.000Z</time>
      </trkpt>
      <trkpt lat="43.74721" lon="7.07837">
        <ele>718</ele>
        <time>2023-07-30T06:38:51.000Z</time>
      </trkpt>
      <trkpt lat="43.74721" lon="7.07837">
        <ele>718</ele>
        <time>2023-07-30T06:38:52.000Z</time>
      </trkpt>
      <trkpt lat="43.74722" lon="7.07837">
        <ele>718</ele>
        <time>2023-07-30T06:38:53.000Z</time>
      </trkpt>
      <trkpt lat="43.74722" lon="7.07837">
        <ele>718</ele>
        <time>2023-07-30T06:38:54.000Z</time>
      </trkpt>
      <trkpt lat="43.74723" lon="7.07837">
        <ele>718</ele>
        <time>2023-07-30T06:38:55.000Z</time>
      </trkpt>
      <trkpt lat="43.74723" lon="7.07837">
        <ele>718</ele>
        <time>2023-07-30T06:38:56.000Z</time>
      </trkpt>
      <trkpt lat="43.74723" lon="7.07838">
        <ele>718</ele>
        <time>2023-07-30T06:38:57.000Z</time>
      </trkpt>
      <trkpt lat="43.74723" lon="7.07838">
        <ele>718</ele>
        <time>2023-07-30T06:38:58.000Z</time>
      </trkpt>
      <trkpt lat="43.74723" lon="7.07838">
        <ele>718</ele>
        <time>2023-07-30T06:38:59.000Z</time>
      </trkpt>
      <trkpt lat="43.74723" lon="7.07838">
        <ele>718</ele>
        <time>2023-07-30T06:39:00.000Z</time>
      </trkpt>
      <trkpt lat="43.74723" lon="7.07838">
        <ele>718.20001220703</ele>
        <time>2023-07-30T06:39:01.000Z</time>
      </trkpt>
      <trkpt lat="43.74723" lon="7.07837">
        <ele>718.20001220703</ele>
        <time>2023-07-30T06:39:02.000Z</time>
      </trkpt>
      <trkpt lat="43.74723" lon="7.07837">
        <ele>718.20001220703</ele>
        <time>2023-07-30T06:39:03.000Z</time>
      </trkpt>
      <trkpt lat="43.74723" lon="7.07837">
        <ele>718.20001220703</ele>
        <time>2023-07-30T06:39:04.000Z</time>
      </trkpt>
      <trkpt lat="43.74724" lon="7.07837">
        <ele>718.20001220703</ele>
        <time>2023-07-30T06:39:05.000Z</time>
      </trkpt>
      <trkpt lat="43.74724" lon="7.07837">
        <ele>718.20001220703</ele>
        <time>2023-07-30T06:39:06.000Z</time>
      </trkpt>
      <trkpt lat="43.74723" lon="7.07838">
        <ele>718.20001220703</ele>
        <time>2023-07-30T06:39:07.000Z</time>
      </trkpt>
      <trkpt lat="43.74724" lon="7.07837">
        <ele>718.20001220703</ele>
        <time>2023-07-30T06:39:08.000Z</time>
      </trkpt>
      <trkpt lat="43.74723" lon="7.07837">
        <ele>718.20001220703</ele>
        <time>2023-07-30T06:39:09.000Z</time>
      </trkpt>
      <trkpt lat="43.74723" lon="7.07838">
        <ele>718.20001220703</ele>
        <time>2023-07-30T06:39:10.000Z</time>
      </trkpt>
      <trkpt lat="43.74725" lon="7.07837">
        <ele>718.40002441406</ele>
        <time>2023-07-30T06:39:11.000Z</time>
      </trkpt>
      <trkpt lat="43.74727" lon="7.07837">
        <ele>718.40002441406</ele>
        <time>2023-07-30T06:39:12.000Z</time>
      </trkpt>
      <trkpt lat="43.74729" lon="7.07837">
        <ele>718.40002441406</ele>
        <time>2023-07-30T06:39:13.000Z</time>
      </trkpt>
      <trkpt lat="43.74731" lon="7.07837">
        <ele>718.40002441406</ele>
        <time>2023-07-30T06:39:14.000Z</time>
      </trkpt>
      <trkpt lat="43.74733" lon="7.07837">
        <ele>718.40002441406</ele>
        <time>2023-07-30T06:39:15.000Z</time>
      </trkpt>
      <trkpt lat="43.74735" lon="7.07837">
        <ele>718.40002441406</ele>
        <time>2023-07-30T06:39:16.000Z</time>
      </trkpt>
      <trkpt lat="43.74737" lon="7.07837">
        <ele>718.59997558594</ele>
        <time>2023-07-30T06:39:17.000Z</time>
      </trkpt>
      <trkpt lat="43.74739" lon="7.07838">
        <ele>718.59997558594</ele>
        <time>2023-07-30T06:39:18.000Z</time>
      </trkpt>
      <trkpt lat="43.74741" lon="7.07838">
        <ele>718.79998779297</ele>
        <time>2023-07-30T06:39:19.000Z</time>
      </trkpt>
      <trkpt lat="43.74744" lon="7.07839">
        <ele>719</ele>
        <time>2023-07-30T06:39:20.000Z</time>
      </trkpt>
      <trkpt lat="43.74746" lon="7.07839">
        <ele>719.20001220703</ele>
        <time>2023-07-30T06:39:21.000Z</time>
      </trkpt>
      <trkpt lat="43.74748" lon="7.07839">
        <ele>719.40002441406</ele>
        <time>2023-07-30T06:39:22.000Z</time>
      </trkpt>
      <trkpt lat="43.7475" lon="7.0784">
        <ele>719.59997558594</ele>
        <time>2023-07-30T06:39:23.000Z</time>
      </trkpt>
      <trkpt lat="43.74752" lon="7.0784">
        <ele>719.79998779297</ele>
        <time>2023-07-30T06:39:24.000Z</time>
      </trkpt>
      <trkpt lat="43.74754" lon="7.0784">
        <ele>719.79998779297</ele>
        <time>2023-07-30T06:39:25.000Z</time>
      </trkpt>
      <trkpt lat="43.74757" lon="7.07841">
        <ele>720.20001220703</ele>
        <time>2023-07-30T06:39:26.000Z</time>
      </trkpt>
      <trkpt lat="43.74759" lon="7.07841">
        <ele>720.20001220703</ele>
        <time>2023-07-30T06:39:27.000Z</time>
      </trkpt>
      <trkpt lat="43.74761" lon="7.07842">
        <ele>720.59997558594</ele>
        <time>2023-07-30T06:39:28.000Z</time>
      </trkpt>
      <trkpt lat="43.74763" lon="7.07842">
        <ele>720.59997558594</ele>
        <time>2023-07-30T06:39:29.000Z</time>
      </trkpt>
      <trkpt lat="43.74764" lon="7.07842">
        <ele>721</ele>
        <time>2023-07-30T06:39:30.000Z</time>
      </trkpt>
      <trkpt lat="43.74766" lon="7.07841">
        <ele>721.20001220703</ele>
        <time>2023-07-30T06:39:31.000Z</time>
      </trkpt>
      <trkpt lat="43.74769" lon="7.07841">
        <ele>721.20001220703</ele>
        <time>2023-07-30T06:39:32.000Z</time>
      </trkpt>
      <trkpt lat="43.74771" lon="7.07841">
        <ele>721.40002441406</ele>
        <time>2023-07-30T06:39:33.000Z</time>
      </trkpt>
      <trkpt lat="43.74773" lon="7.07842">
        <ele>721.40002441406</ele>
        <time>2023-07-30T06:39:34.000Z</time>
      </trkpt>
      <trkpt lat="43.74775" lon="7.07842">
        <ele>721.59997558594</ele>
        <time>2023-07-30T06:39:35.000Z</time>
      </trkpt>
      <trkpt lat="43.74777" lon="7.07843">
        <ele>721.79998779297</ele>
        <time>2023-07-30T06:39:36.000Z</time>
      </trkpt>
      <trkpt lat="43.74779" lon="7.07843">
        <ele>722.20001220703</ele>
        <time>2023-07-30T06:39:37.000Z</time>
      </trkpt>
      <trkpt lat="43.74782" lon="7.07843">
        <ele>722.20001220703</ele>
        <time>2023-07-30T06:39:38.000Z</time>
      </trkpt>
      <trkpt lat="43.74784" lon="7.07843">
        <ele>722.40002441406</ele>
        <time>2023-07-30T06:39:39.000Z</time>
      </trkpt>
      <trkpt lat="43.74787" lon="7.07843">
        <ele>722.40002441406</ele>
        <time>2023-07-30T06:39:40.000Z</time>
      </trkpt>
      <trkpt lat="43.74789" lon="7.07844">
        <ele>722.40002441406</ele>
        <time>2023-07-30T06:39:41.000Z</time>
      </trkpt>
      <trkpt lat="43.74792" lon="7.07844">
        <ele>722.59997558594</ele>
        <time>2023-07-30T06:39:42.000Z</time>
      </trkpt>
      <trkpt lat="43.74795" lon="7.07844">
        <ele>722.59997558594</ele>
        <time>2023-07-30T06:39:43.000Z</time>
      </trkpt>
      <trkpt lat="43.74797" lon="7.07844">
        <ele>723</ele>
        <time>2023-07-30T06:39:44.000Z</time>
      </trkpt>
      <trkpt lat="43.748" lon="7.07844">
        <ele>723.20001220703</ele>
        <time>2023-07-30T06:39:45.000Z</time>
      </trkpt>
      <trkpt lat="43.74802" lon="7.07845">
        <ele>723.40002441406</ele>
        <time>2023-07-30T06:39:46.000Z</time>
      </trkpt>
      <trkpt lat="43.74805" lon="7.07845">
        <ele>723.40002441406</ele>
        <time>2023-07-30T06:39:47.000Z</time>
      </trkpt>
      <trkpt lat="43.74807" lon="7.07846">
        <ele>723.40002441406</ele>
        <time>2023-07-30T06:39:48.000Z</time>
      </trkpt>
      <trkpt lat="43.7481" lon="7.07848">
        <ele>723.59997558594</ele>
        <time>2023-07-30T06:39:49.000Z</time>
      </trkpt>
      <trkpt lat="43.74812" lon="7.0785">
        <ele>723.79998779297</ele>
        <time>2023-07-30T06:39:50.000Z</time>
      </trkpt>
      <trkpt lat="43.74814" lon="7.07851">
        <ele>724</ele>
        <time>2023-07-30T06:39:51.000Z</time>
      </trkpt>
      <trkpt lat="43.74816" lon="7.07851">
        <ele>724.40002441406</ele>
        <time>2023-07-30T06:39:52.000Z</time>
      </trkpt>
      <trkpt lat="43.74818" lon="7.07851">
        <ele>724.79998779297</ele>
        <time>2023-07-30T06:39:53.000Z</time>
      </trkpt>
      <trkpt lat="43.7482" lon="7.0785">
        <ele>724.79998779297</ele>
        <time>2023-07-30T06:39:54.000Z</time>
      </trkpt>
      <trkpt lat="43.74823" lon="7.07849">
        <ele>725.40002441406</ele>
        <time>2023-07-30T06:39:55.000Z</time>
      </trkpt>
      <trkpt lat="43.74826" lon="7.07848">
        <ele>725.40002441406</ele>
        <time>2023-07-30T06:39:56.000Z</time>
      </trkpt>
      <trkpt lat="43.74828" lon="7.07847">
        <ele>725.79998779297</ele>
        <time>2023-07-30T06:39:57.000Z</time>
      </trkpt>
      <trkpt lat="43.7483" lon="7.07845">
        <ele>726.40002441406</ele>
        <time>2023-07-30T06:39:58.000Z</time>
      </trkpt>
      <trkpt lat="43.74832" lon="7.07844">
        <ele>726.59997558594</ele>
        <time>2023-07-30T06:39:59.000Z</time>
      </trkpt>
      <trkpt lat="43.74834" lon="7.07842">
        <ele>726.79998779297</ele>
        <time>2023-07-30T06:40:00.000Z</time>
      </trkpt>
      <trkpt lat="43.74836" lon="7.07839">
        <ele>727</ele>
        <time>2023-07-30T06:40:01.000Z</time>
      </trkpt>
      <trkpt lat="43.74839" lon="7.07837">
        <ele>727</ele>
        <time>2023-07-30T06:40:02.000Z</time>
      </trkpt>
      <trkpt lat="43.74841" lon="7.07835">
        <ele>727</ele>
        <time>2023-07-30T06:40:03.000Z</time>
      </trkpt>
      <trkpt lat="43.74843" lon="7.07834">
        <ele>727.20001220703</ele>
        <time>2023-07-30T06:40:04.000Z</time>
      </trkpt>
      <trkpt lat="43.74845" lon="7.07832">
        <ele>727.20001220703</ele>
        <time>2023-07-30T06:40:05.000Z</time>
      </trkpt>
      <trkpt lat="43.74847" lon="7.0783">
        <ele>727.59997558594</ele>
        <time>2023-07-30T06:40:06.000Z</time>
      </trkpt>
      <trkpt lat="43.74849" lon="7.07828">
        <ele>728</ele>
        <time>2023-07-30T06:40:07.000Z</time>
      </trkpt>
      <trkpt lat="43.74851" lon="7.07827">
        <ele>728.20001220703</ele>
        <time>2023-07-30T06:40:08.000Z</time>
      </trkpt>
      <trkpt lat="43.74854" lon="7.07825">
        <ele>728.40002441406</ele>
        <time>2023-07-30T06:40:09.000Z</time>
      </trkpt>
      <trkpt lat="43.74856" lon="7.07823">
        <ele>728.59997558594</ele>
        <time>2023-07-30T06:40:10.000Z</time>
      </trkpt>
      <trkpt lat="43.74858" lon="7.07822">
        <ele>728.79998779297</ele>
        <time>2023-07-30T06:40:11.000Z</time>
      </trkpt>
      <trkpt lat="43.7486" lon="7.07821">
        <ele>729.20001220703</ele>
        <time>2023-07-30T06:40:12.000Z</time>
      </trkpt>
      <trkpt lat="43.74862" lon="7.0782">
        <ele>729.20001220703</ele>
        <time>2023-07-30T06:40:13.000Z</time>
      </trkpt>
      <trkpt lat="43.74864" lon="7.07818">
        <ele>729.79998779297</ele>
        <time>2023-07-30T06:40:14.000Z</time>
      </trkpt>
      <trkpt lat="43.74867" lon="7.07817">
        <ele>730</ele>
        <time>2023-07-30T06:40:15.000Z</time>
      </trkpt>
      <trkpt lat="43.74869" lon="7.07817">
        <ele>730</ele>
        <time>2023-07-30T06:40:16.000Z</time>
      </trkpt>
      <trkpt lat="43.74871" lon="7.07815">
        <ele>730.20001220703</ele>
        <time>2023-07-30T06:40:17.000Z</time>
      </trkpt>
      <trkpt lat="43.74874" lon="7.07814">
        <ele>730.40002441406</ele>
        <time>2023-07-30T06:40:18.000Z</time>
      </trkpt>
      <trkpt lat="43.74876" lon="7.07813">
        <ele>730.40002441406</ele>
        <time>2023-07-30T06:40:19.000Z</time>
      </trkpt>
      <trkpt lat="43.74878" lon="7.07812">
        <ele>730.59997558594</ele>
        <time>2023-07-30T06:40:20.000Z</time>
      </trkpt>
      <trkpt lat="43.7488" lon="7.07811">
        <ele>730.79998779297</ele>
        <time>2023-07-30T06:40:21.000Z</time>
      </trkpt>
      <trkpt lat="43.74882" lon="7.0781">
        <ele>731</ele>
        <time>2023-07-30T06:40:22.000Z</time>
      </trkpt>
      <trkpt lat="43.74885" lon="7.07809">
        <ele>731.20001220703</ele>
        <time>2023-07-30T06:40:23.000Z</time>
      </trkpt>
      <trkpt lat="43.74887" lon="7.07807">
        <ele>731.40002441406</ele>
        <time>2023-07-30T06:40:24.000Z</time>
      </trkpt>
      <trkpt lat="43.7489" lon="7.07806">
        <ele>731.40002441406</ele>
        <time>2023-07-30T06:40:25.000Z</time>
      </trkpt>
      <trkpt lat="43.74892" lon="7.07804">
        <ele>731.40002441406</ele>
        <time>2023-07-30T06:40:26.000Z</time>
      </trkpt>
      <trkpt lat="43.74895" lon="7.07803">
        <ele>731.59997558594</ele>
        <time>2023-07-30T06:40:27.000Z</time>
      </trkpt>
      <trkpt lat="43.74898" lon="7.07802">
        <ele>731.59997558594</ele>
        <time>2023-07-30T06:40:28.000Z</time>
      </trkpt>
      <trkpt lat="43.749" lon="7.07801">
        <ele>731.59997558594</ele>
        <time>2023-07-30T06:40:29.000Z</time>
      </trkpt>
      <trkpt lat="43.74903" lon="7.07799">
        <ele>731.59997558594</ele>
        <time>2023-07-30T06:40:30.000Z</time>
      </trkpt>
      <trkpt lat="43.74905" lon="7.07798">
        <ele>731.79998779297</ele>
        <time>2023-07-30T06:40:31.000Z</time>
      </trkpt>
      <trkpt lat="43.74908" lon="7.07797">
        <ele>731.79998779297</ele>
        <time>2023-07-30T06:40:32.000Z</time>
      </trkpt>
      <trkpt lat="43.7491" lon="7.07795">
        <ele>732</ele>
        <time>2023-07-30T06:40:33.000Z</time>
      </trkpt>
      <trkpt lat="43.74912" lon="7.07794">
        <ele>732.20001220703</ele>
        <time>2023-07-30T06:40:34.000Z</time>
      </trkpt>
      <trkpt lat="43.74915" lon="7.07792">
        <ele>732.20001220703</ele>
        <time>2023-07-30T06:40:35.000Z</time>
      </trkpt>
      <trkpt lat="43.74917" lon="7.07791">
        <ele>732.59997558594</ele>
        <time>2023-07-30T06:40:36.000Z</time>
      </trkpt>
      <trkpt lat="43.7492" lon="7.0779">
        <ele>732.59997558594</ele>
        <time>2023-07-30T06:40:37.000Z</time>
      </trkpt>
      <trkpt lat="43.74922" lon="7.07789">
        <ele>732.79998779297</ele>
        <time>2023-07-30T06:40:38.000Z</time>
      </trkpt>
      <trkpt lat="43.74925" lon="7.07788">
        <ele>732.79998779297</ele>
        <time>2023-07-30T06:40:39.000Z</time>
      </trkpt>
      <trkpt lat="43.74928" lon="7.07786">
        <ele>732.79998779297</ele>
        <time>2023-07-30T06:40:40.000Z</time>
      </trkpt>
      <trkpt lat="43.7493" lon="7.07785">
        <ele>733.20001220703</ele>
        <time>2023-07-30T06:40:41.000Z</time>
      </trkpt>
      <trkpt lat="43.74932" lon="7.07784">
        <ele>733.40002441406</ele>
        <time>2023-07-30T06:40:42.000Z</time>
      </trkpt>
      <trkpt lat="43.74935" lon="7.07783">
        <ele>733.59997558594</ele>
        <time>2023-07-30T06:40:43.000Z</time>
      </trkpt>
      <trkpt lat="43.74938" lon="7.07781">
        <ele>733.79998779297</ele>
        <time>2023-07-30T06:40:44.000Z</time>
      </trkpt>
      <trkpt lat="43.7494" lon="7.07781">
        <ele>734</ele>
        <time>2023-07-30T06:40:45.000Z</time>
      </trkpt>
      <trkpt lat="43.74943" lon="7.07779">
        <ele>734.20001220703</ele>
        <time>2023-07-30T06:40:46.000Z</time>
      </trkpt>
      <trkpt lat="43.74945" lon="7.07778">
        <ele>734.40002441406</ele>
        <time>2023-07-30T06:40:47.000Z</time>
      </trkpt>
      <trkpt lat="43.74947" lon="7.07778">
        <ele>734.40002441406</ele>
        <time>2023-07-30T06:40:48.000Z</time>
      </trkpt>
      <trkpt lat="43.7495" lon="7.07778">
        <ele>734.59997558594</ele>
        <time>2023-07-30T06:40:49.000Z</time>
      </trkpt>
      <trkpt lat="43.74952" lon="7.07777">
        <ele>735</ele>
        <time>2023-07-30T06:40:50.000Z</time>
      </trkpt>
      <trkpt lat="43.74954" lon="7.07776">
        <ele>735.20001220703</ele>
        <time>2023-07-30T06:40:51.000Z</time>
      </trkpt>
      <trkpt lat="43.74957" lon="7.07775">
        <ele>735.40002441406</ele>
        <time>2023-07-30T06:40:52.000Z</time>
      </trkpt>
      <trkpt lat="43.74959" lon="7.07773">
        <ele>735.59997558594</ele>
        <time>2023-07-30T06:40:53.000Z</time>
      </trkpt>
      <trkpt lat="43.74962" lon="7.07772">
        <ele>735.79998779297</ele>
        <time>2023-07-30T06:40:54.000Z</time>
      </trkpt>
      <trkpt lat="43.74964" lon="7.07772">
        <ele>735.79998779297</ele>
        <time>2023-07-30T06:40:55.000Z</time>
      </trkpt>
      <trkpt lat="43.74967" lon="7.07771">
        <ele>736</ele>
        <time>2023-07-30T06:40:56.000Z</time>
      </trkpt>
      <trkpt lat="43.74969" lon="7.0777">
        <ele>736</ele>
        <time>2023-07-30T06:40:57.000Z</time>
      </trkpt>
      <trkpt lat="43.74972" lon="7.0777">
        <ele>736.59997558594</ele>
        <time>2023-07-30T06:40:58.000Z</time>
      </trkpt>
      <trkpt lat="43.74974" lon="7.07772">
        <ele>737</ele>
        <time>2023-07-30T06:40:59.000Z</time>
      </trkpt>
      <trkpt lat="43.74976" lon="7.07773">
        <ele>737</ele>
        <time>2023-07-30T06:41:00.000Z</time>
      </trkpt>
      <trkpt lat="43.74978" lon="7.07773">
        <ele>737</ele>
        <time>2023-07-30T06:41:01.000Z</time>
      </trkpt>
      <trkpt lat="43.7498" lon="7.07774">
        <ele>737.59997558594</ele>
        <time>2023-07-30T06:41:02.000Z</time>
      </trkpt>
      <trkpt lat="43.74982" lon="7.07774">
        <ele>737.79998779297</ele>
        <time>2023-07-30T06:41:03.000Z</time>
      </trkpt>
      <trkpt lat="43.74984" lon="7.07774">
        <ele>738.20001220703</ele>
        <time>2023-07-30T06:41:04.000Z</time>
      </trkpt>
      <trkpt lat="43.74985" lon="7.07775">
        <ele>738.59997558594</ele>
        <time>2023-07-30T06:41:05.000Z</time>
      </trkpt>
      <trkpt lat="43.74987" lon="7.07775">
        <ele>738.79998779297</ele>
        <time>2023-07-30T06:41:06.000Z</time>
      </trkpt>
      <trkpt lat="43.74989" lon="7.07776">
        <ele>739.20001220703</ele>
        <time>2023-07-30T06:41:07.000Z</time>
      </trkpt>
      <trkpt lat="43.74991" lon="7.07777">
        <ele>739.40002441406</ele>
        <time>2023-07-30T06:41:08.000Z</time>
      </trkpt>
      <trkpt lat="43.74993" lon="7.07778">
        <ele>739.79998779297</ele>
        <time>2023-07-30T06:41:09.000Z</time>
      </trkpt>
      <trkpt lat="43.74995" lon="7.07778">
        <ele>740</ele>
        <time>2023-07-30T06:41:10.000Z</time>
      </trkpt>
      <trkpt lat="43.74997" lon="7.07779">
        <ele>740.59997558594</ele>
        <time>2023-07-30T06:41:11.000Z</time>
      </trkpt>
      <trkpt lat="43.74999" lon="7.0778">
        <ele>741</ele>
        <time>2023-07-30T06:41:12.000Z</time>
      </trkpt>
      <trkpt lat="43.75001" lon="7.0778">
        <ele>741.40002441406</ele>
        <time>2023-07-30T06:41:13.000Z</time>
      </trkpt>
      <trkpt lat="43.75003" lon="7.0778">
        <ele>741.59997558594</ele>
        <time>2023-07-30T06:41:14.000Z</time>
      </trkpt>
      <trkpt lat="43.75005" lon="7.0778">
        <ele>742</ele>
        <time>2023-07-30T06:41:15.000Z</time>
      </trkpt>
      <trkpt lat="43.75006" lon="7.0778">
        <ele>742.40002441406</ele>
        <time>2023-07-30T06:41:16.000Z</time>
      </trkpt>
      <trkpt lat="43.75008" lon="7.0778">
        <ele>743</ele>
        <time>2023-07-30T06:41:17.000Z</time>
      </trkpt>
      <trkpt lat="43.7501" lon="7.07781">
        <ele>743.20001220703</ele>
        <time>2023-07-30T06:41:18.000Z</time>
      </trkpt>
      <trkpt lat="43.75012" lon="7.07781">
        <ele>743.20001220703</ele>
        <time>2023-07-30T06:41:19.000Z</time>
      </trkpt>
      <trkpt lat="43.75014" lon="7.07782">
        <ele>743.59997558594</ele>
        <time>2023-07-30T06:41:20.000Z</time>
      </trkpt>
      <trkpt lat="43.75016" lon="7.07783">
        <ele>743.59997558594</ele>
        <time>2023-07-30T06:41:21.000Z</time>
      </trkpt>
      <trkpt lat="43.75018" lon="7.07784">
        <ele>744</ele>
        <time>2023-07-30T06:41:22.000Z</time>
      </trkpt>
      <trkpt lat="43.75021" lon="7.07785">
        <ele>744.20001220703</ele>
        <time>2023-07-30T06:41:23.000Z</time>
      </trkpt>
      <trkpt lat="43.75023" lon="7.07785">
        <ele>744.20001220703</ele>
        <time>2023-07-30T06:41:24.000Z</time>
      </trkpt>
      <trkpt lat="43.75025" lon="7.07786">
        <ele>744.40002441406</ele>
        <time>2023-07-30T06:41:25.000Z</time>
      </trkpt>
      <trkpt lat="43.75027" lon="7.07787">
        <ele>744.40002441406</ele>
        <time>2023-07-30T06:41:26.000Z</time>
      </trkpt>
      <trkpt lat="43.75029" lon="7.07787">
        <ele>744.40002441406</ele>
        <time>2023-07-30T06:41:27.000Z</time>
      </trkpt>
      <trkpt lat="43.75031" lon="7.07788">
        <ele>745</ele>
        <time>2023-07-30T06:41:28.000Z</time>
      </trkpt>
      <trkpt lat="43.75033" lon="7.07789">
        <ele>745</ele>
        <time>2023-07-30T06:41:29.000Z</time>
      </trkpt>
      <trkpt lat="43.75034" lon="7.0779">
        <ele>745.20001220703</ele>
        <time>2023-07-30T06:41:30.000Z</time>
      </trkpt>
      <trkpt lat="43.75035" lon="7.0779">
        <ele>745.40002441406</ele>
        <time>2023-07-30T06:41:31.000Z</time>
      </trkpt>
      <trkpt lat="43.75034" lon="7.07789">
        <ele>745.40002441406</ele>
        <time>2023-07-30T06:41:32.000Z</time>
      </trkpt>
      <trkpt lat="43.75035" lon="7.07789">
        <ele>745.59997558594</ele>
        <time>2023-07-30T06:41:33.000Z</time>
      </trkpt>
      <trkpt lat="43.75035" lon="7.07789">
        <ele>745.79998779297</ele>
        <time>2023-07-30T06:41:34.000Z</time>
      </trkpt>
      <trkpt lat="43.75035" lon="7.07789">
        <ele>745.79998779297</ele>
        <time>2023-07-30T06:41:35.000Z</time>
      </trkpt>
      <trkpt lat="43.75035" lon="7.07789">
        <ele>745.79998779297</ele>
        <time>2023-07-30T06:41:36.000Z</time>
      </trkpt>
      <trkpt lat="43.75035" lon="7.07789">
        <ele>746</ele>
        <time>2023-07-30T06:41:37.000Z</time>
      </trkpt>
      <trkpt lat="43.75034" lon="7.07789">
        <ele>745.79998779297</ele>
        <time>2023-07-30T06:41:38.000Z</time>
      </trkpt>
      <trkpt lat="43.75033" lon="7.07789">
        <ele>745.79998779297</ele>
        <time>2023-07-30T06:41:39.000Z</time>
      </trkpt>
      <trkpt lat="43.75033" lon="7.07788">
        <ele>746</ele>
        <time>2023-07-30T06:41:40.000Z</time>
      </trkpt>
      <trkpt lat="43.75032" lon="7.07788">
        <ele>746</ele>
        <time>2023-07-30T06:41:41.000Z</time>
      </trkpt>
      <trkpt lat="43.75031" lon="7.07788">
        <ele>746</ele>
        <time>2023-07-30T06:41:42.000Z</time>
      </trkpt>
      <trkpt lat="43.75031" lon="7.07787">
        <ele>746</ele>
        <time>2023-07-30T06:41:43.000Z</time>
      </trkpt>
      <trkpt lat="43.7503" lon="7.07787">
        <ele>746</ele>
        <time>2023-07-30T06:41:44.000Z</time>
      </trkpt>
      <trkpt lat="43.7503" lon="7.07787">
        <ele>745.79998779297</ele>
        <time>2023-07-30T06:41:45.000Z</time>
      </trkpt>
      <trkpt lat="43.75028" lon="7.07787">
        <ele>745.79998779297</ele>
        <time>2023-07-30T06:41:46.000Z</time>
      </trkpt>
      <trkpt lat="43.75027" lon="7.07786">
        <ele>745.79998779297</ele>
        <time>2023-07-30T06:41:47.000Z</time>
      </trkpt>
      <trkpt lat="43.75025" lon="7.07786">
        <ele>745.79998779297</ele>
        <time>2023-07-30T06:41:48.000Z</time>
      </trkpt>
      <trkpt lat="43.75022" lon="7.07785">
        <ele>745.79998779297</ele>
        <time>2023-07-30T06:41:49.000Z</time>
      </trkpt>
      <trkpt lat="43.75019" lon="7.07784">
        <ele>745.79998779297</ele>
        <time>2023-07-30T06:41:50.000Z</time>
      </trkpt>
      <trkpt lat="43.75017" lon="7.07783">
        <ele>745.79998779297</ele>
        <time>2023-07-30T06:41:51.000Z</time>
      </trkpt>
      <trkpt lat="43.75015" lon="7.07782">
        <ele>745.59997558594</ele>
        <time>2023-07-30T06:41:52.000Z</time>
      </trkpt>
      <trkpt lat="43.75013" lon="7.07782">
        <ele>745</ele>
        <time>2023-07-30T06:41:53.000Z</time>
      </trkpt>
      <trkpt lat="43.75013" lon="7.07781">
        <ele>744.79998779297</ele>
        <time>2023-07-30T06:41:54.000Z</time>
      </trkpt>
      <trkpt lat="43.75012" lon="7.07782">
        <ele>744.79998779297</ele>
        <time>2023-07-30T06:41:55.000Z</time>
      </trkpt>
      <trkpt lat="43.75012" lon="7.07782">
        <ele>744.59997558594</ele>
        <time>2023-07-30T06:41:56.000Z</time>
      </trkpt>
      <trkpt lat="43.75012" lon="7.07782">
        <ele>744.59997558594</ele>
        <time>2023-07-30T06:41:57.000Z</time>
      </trkpt>
      <trkpt lat="43.75012" lon="7.07782">
        <ele>744.59997558594</ele>
        <time>2023-07-30T06:41:58.000Z</time>
      </trkpt>
      <trkpt lat="43.75012" lon="7.07782">
        <ele>744.59997558594</ele>
        <time>2023-07-30T06:41:59.000Z</time>
      </trkpt>
      <trkpt lat="43.75012" lon="7.07782">
        <ele>744.59997558594</ele>
        <time>2023-07-30T06:42:00.000Z</time>
      </trkpt>
      <trkpt lat="43.75012" lon="7.07782">
        <ele>744.59997558594</ele>
        <time>2023-07-30T06:42:01.000Z</time>
      </trkpt>
      <trkpt lat="43.75012" lon="7.07782">
        <ele>744.59997558594</ele>
        <time>2023-07-30T06:42:02.000Z</time>
      </trkpt>
      <trkpt lat="43.75012" lon="7.07782">
        <ele>744.59997558594</ele>
        <time>2023-07-30T06:42:03.000Z</time>
      </trkpt>
      <trkpt lat="43.75012" lon="7.07782">
        <ele>744.59997558594</ele>
        <time>2023-07-30T06:42:04.000Z</time>
      </trkpt>
      <trkpt lat="43.75012" lon="7.07782">
        <ele>744.59997558594</ele>
        <time>2023-07-30T06:42:05.000Z</time>
      </trkpt>
      <trkpt lat="43.75012" lon="7.07782">
        <ele>744.59997558594</ele>
        <time>2023-07-30T06:42:06.000Z</time>
      </trkpt>
      <trkpt lat="43.75012" lon="7.07782">
        <ele>744.59997558594</ele>
        <time>2023-07-30T06:42:07.000Z</time>
      </trkpt>
      <trkpt lat="43.75012" lon="7.07782">
        <ele>744.59997558594</ele>
        <time>2023-07-30T06:42:08.000Z</time>
      </trkpt>
      <trkpt lat="43.75012" lon="7.07782">
        <ele>744.59997558594</ele>
        <time>2023-07-30T06:42:09.000Z</time>
      </trkpt>
      <trkpt lat="43.75012" lon="7.07782">
        <ele>744.59997558594</ele>
        <time>2023-07-30T06:42:10.000Z</time>
      </trkpt>
      <trkpt lat="43.75012" lon="7.07782">
        <ele>744.59997558594</ele>
        <time>2023-07-30T06:42:11.000Z</time>
      </trkpt>
      <trkpt lat="43.75012" lon="7.07782">
        <ele>744.59997558594</ele>
        <time>2023-07-30T06:42:12.000Z</time>
      </trkpt>
      <trkpt lat="43.75012" lon="7.07782">
        <ele>744.59997558594</ele>
        <time>2023-07-30T06:42:13.000Z</time>
      </trkpt>
      <trkpt lat="43.75012" lon="7.07781">
        <ele>744.59997558594</ele>
        <time>2023-07-30T06:42:14.000Z</time>
      </trkpt>
      <trkpt lat="43.75013" lon="7.07782">
        <ele>744.40002441406</ele>
        <time>2023-07-30T06:42:15.000Z</time>
      </trkpt>
      <trkpt lat="43.75013" lon="7.07782">
        <ele>744.59997558594</ele>
        <time>2023-07-30T06:42:16.000Z</time>
      </trkpt>
      <trkpt lat="43.75014" lon="7.07782">
        <ele>744.59997558594</ele>
        <time>2023-07-30T06:42:17.000Z</time>
      </trkpt>
      <trkpt lat="43.75015" lon="7.07783">
        <ele>744.59997558594</ele>
        <time>2023-07-30T06:42:18.000Z</time>
      </trkpt>
      <trkpt lat="43.75015" lon="7.07783">
        <ele>744.79998779297</ele>
        <time>2023-07-30T06:42:19.000Z</time>
      </trkpt>
      <trkpt lat="43.75016" lon="7.07783">
        <ele>744.79998779297</ele>
        <time>2023-07-30T06:42:20.000Z</time>
      </trkpt>
      <trkpt lat="43.75016" lon="7.07783">
        <ele>744.79998779297</ele>
        <time>2023-07-30T06:42:21.000Z</time>
      </trkpt>
      <trkpt lat="43.75016" lon="7.07783">
        <ele>745</ele>
        <time>2023-07-30T06:42:22.000Z</time>
      </trkpt>
      <trkpt lat="43.75016" lon="7.07783">
        <ele>745</ele>
        <time>2023-07-30T06:42:23.000Z</time>
      </trkpt>
      <trkpt lat="43.75016" lon="7.07783">
        <ele>745</ele>
        <time>2023-07-30T06:42:24.000Z</time>
      </trkpt>
      <trkpt lat="43.75016" lon="7.07783">
        <ele>745</ele>
        <time>2023-07-30T06:42:25.000Z</time>
      </trkpt>
      <trkpt lat="43.75016" lon="7.07783">
        <ele>745</ele>
        <time>2023-07-30T06:42:26.000Z</time>
      </trkpt>
      <trkpt lat="43.75016" lon="7.07783">
        <ele>745</ele>
        <time>2023-07-30T06:42:27.000Z</time>
      </trkpt>
      <trkpt lat="43.75016" lon="7.07783">
        <ele>745</ele>
        <time>2023-07-30T06:42:28.000Z</time>
      </trkpt>
      <trkpt lat="43.75016" lon="7.07783">
        <ele>745</ele>
        <time>2023-07-30T06:42:29.000Z</time>
      </trkpt>
      <trkpt lat="43.75016" lon="7.07783">
        <ele>745</ele>
        <time>2023-07-30T06:42:30.000Z</time>
      </trkpt>
      <trkpt lat="43.75016" lon="7.07783">
        <ele>745</ele>
        <time>2023-07-30T06:42:31.000Z</time>
      </trkpt>
      <trkpt lat="43.75016" lon="7.07783">
        <ele>745</ele>
        <time>2023-07-30T06:42:32.000Z</time>
      </trkpt>
      <trkpt lat="43.75016" lon="7.07783">
        <ele>745</ele>
        <time>2023-07-30T06:42:33.000Z</time>
      </trkpt>
      <trkpt lat="43.75016" lon="7.07783">
        <ele>745.20001220703</ele>
        <time>2023-07-30T06:42:34.000Z</time>
      </trkpt>
      <trkpt lat="43.75016" lon="7.07783">
        <ele>745.20001220703</ele>
        <time>2023-07-30T06:42:35.000Z</time>
      </trkpt>
      <trkpt lat="43.75016" lon="7.07783">
        <ele>745.20001220703</ele>
        <time>2023-07-30T06:42:36.000Z</time>
      </trkpt>
      <trkpt lat="43.75016" lon="7.07783">
        <ele>745.20001220703</ele>
        <time>2023-07-30T06:42:37.000Z</time>
      </trkpt>
      <trkpt lat="43.75016" lon="7.07783">
        <ele>745.20001220703</ele>
        <time>2023-07-30T06:42:38.000Z</time>
      </trkpt>
      <trkpt lat="43.75016" lon="7.07783">
        <ele>745.40002441406</ele>
        <time>2023-07-30T06:42:39.000Z</time>
      </trkpt>
      <trkpt lat="43.75016" lon="7.07783">
        <ele>745.40002441406</ele>
        <time>2023-07-30T06:42:40.000Z</time>
      </trkpt>
      <trkpt lat="43.75016" lon="7.07783">
        <ele>745.40002441406</ele>
        <time>2023-07-30T06:42:41.000Z</time>
      </trkpt>
      <trkpt lat="43.75016" lon="7.07783">
        <ele>745.40002441406</ele>
        <time>2023-07-30T06:42:42.000Z</time>
      </trkpt>
      <trkpt lat="43.75016" lon="7.07783">
        <ele>745.40002441406</ele>
        <time>2023-07-30T06:42:43.000Z</time>
      </trkpt>
      <trkpt lat="43.75016" lon="7.07783">
        <ele>745.40002441406</ele>
        <time>2023-07-30T06:42:44.000Z</time>
      </trkpt>
      <trkpt lat="43.75016" lon="7.07783">
        <ele>745.40002441406</ele>
        <time>2023-07-30T06:42:45.000Z</time>
      </trkpt>
      <trkpt lat="43.75018" lon="7.07784">
        <ele>745.40002441406</ele>
        <time>2023-07-30T06:42:46.000Z</time>
      </trkpt>
      <trkpt lat="43.7502" lon="7.07784">
        <ele>745.59997558594</ele>
        <time>2023-07-30T06:42:47.000Z</time>
      </trkpt>
      <trkpt lat="43.75022" lon="7.07784">
        <ele>745.59997558594</ele>
        <time>2023-07-30T06:42:48.000Z</time>
      </trkpt>
      <trkpt lat="43.75023" lon="7.07785">
        <ele>745.59997558594</ele>
        <time>2023-07-30T06:42:49.000Z</time>
      </trkpt>
      <trkpt lat="43.75025" lon="7.07786">
        <ele>745.79998779297</ele>
        <time>2023-07-30T06:42:50.000Z</time>
      </trkpt>
      <trkpt lat="43.75027" lon="7.07787">
        <ele>745.79998779297</ele>
        <time>2023-07-30T06:42:51.000Z</time>
      </trkpt>
      <trkpt lat="43.75029" lon="7.07788">
        <ele>745.79998779297</ele>
        <time>2023-07-30T06:42:52.000Z</time>
      </trkpt>
      <trkpt lat="43.75031" lon="7.07789">
        <ele>745.79998779297</ele>
        <time>2023-07-30T06:42:53.000Z</time>
      </trkpt>
      <trkpt lat="43.75032" lon="7.07789">
        <ele>745.79998779297</ele>
        <time>2023-07-30T06:42:54.000Z</time>
      </trkpt>
      <trkpt lat="43.75035" lon="7.07789">
        <ele>746.40002441406</ele>
        <time>2023-07-30T06:42:55.000Z</time>
      </trkpt>
      <trkpt lat="43.75037" lon="7.07789">
        <ele>746.59997558594</ele>
        <time>2023-07-30T06:42:56.000Z</time>
      </trkpt>
      <trkpt lat="43.75038" lon="7.0779">
        <ele>746.59997558594</ele>
        <time>2023-07-30T06:42:57.000Z</time>
      </trkpt>
      <trkpt lat="43.7504" lon="7.07791">
        <ele>746.59997558594</ele>
        <time>2023-07-30T06:42:58.000Z</time>
      </trkpt>
      <trkpt lat="43.75042" lon="7.07791">
        <ele>746.59997558594</ele>
        <time>2023-07-30T06:42:59.000Z</time>
      </trkpt>
      <trkpt lat="43.75043" lon="7.07792">
        <ele>744.79998779297</ele>
        <time>2023-07-30T06:43:00.000Z</time>
      </trkpt>
      <trkpt lat="43.75045" lon="7.07792">
        <ele>744.40002441406</ele>
        <time>2023-07-30T06:43:01.000Z</time>
      </trkpt>
      <trkpt lat="43.75046" lon="7.07792">
        <ele>744.40002441406</ele>
        <time>2023-07-30T06:43:02.000Z</time>
      </trkpt>
      <trkpt lat="43.75047" lon="7.07792">
        <ele>744.40002441406</ele>
        <time>2023-07-30T06:43:03.000Z</time>
      </trkpt>
      <trkpt lat="43.75047" lon="7.07792">
        <ele>744.40002441406</ele>
        <time>2023-07-30T06:43:04.000Z</time>
      </trkpt>
      <trkpt lat="43.75047" lon="7.07793">
        <ele>747.59997558594</ele>
        <time>2023-07-30T06:43:05.000Z</time>
      </trkpt>
      <trkpt lat="43.75047" lon="7.07793">
        <ele>749</ele>
        <time>2023-07-30T06:43:06.000Z</time>
      </trkpt>
      <trkpt lat="43.75047" lon="7.07793">
        <ele>749</ele>
        <time>2023-07-30T06:43:07.000Z</time>
      </trkpt>
      <trkpt lat="43.75047" lon="7.07793">
        <ele>749</ele>
        <time>2023-07-30T06:43:08.000Z</time>
      </trkpt>
      <trkpt lat="43.75047" lon="7.07793">
        <ele>749</ele>
        <time>2023-07-30T06:43:09.000Z</time>
      </trkpt>
      <trkpt lat="43.75047" lon="7.07792">
        <ele>748.40002441406</ele>
        <time>2023-07-30T06:43:10.000Z</time>
      </trkpt>
      <trkpt lat="43.75048" lon="7.07792">
        <ele>748.20001220703</ele>
        <time>2023-07-30T06:43:11.000Z</time>
      </trkpt>
      <trkpt lat="43.75048" lon="7.07792">
        <ele>748.20001220703</ele>
        <time>2023-07-30T06:43:12.000Z</time>
      </trkpt>
      <trkpt lat="43.75048" lon="7.07792">
        <ele>747.40002441406</ele>
        <time>2023-07-30T06:43:13.000Z</time>
      </trkpt>
      <trkpt lat="43.75048" lon="7.07792">
        <ele>747.40002441406</ele>
        <time>2023-07-30T06:43:14.000Z</time>
      </trkpt>
      <trkpt lat="43.75048" lon="7.07792">
        <ele>747.40002441406</ele>
        <time>2023-07-30T06:43:15.000Z</time>
      </trkpt>
      <trkpt lat="43.75048" lon="7.07792">
        <ele>747.40002441406</ele>
        <time>2023-07-30T06:43:16.000Z</time>
      </trkpt>
      <trkpt lat="43.75048" lon="7.07792">
        <ele>747.40002441406</ele>
        <time>2023-07-30T06:43:17.000Z</time>
      </trkpt>
      <trkpt lat="43.75048" lon="7.07792">
        <ele>747.40002441406</ele>
        <time>2023-07-30T06:43:18.000Z</time>
      </trkpt>
      <trkpt lat="43.75048" lon="7.07792">
        <ele>747.40002441406</ele>
        <time>2023-07-30T06:43:19.000Z</time>
      </trkpt>
      <trkpt lat="43.75048" lon="7.07792">
        <ele>747.40002441406</ele>
        <time>2023-07-30T06:43:20.000Z</time>
      </trkpt>
      <trkpt lat="43.75048" lon="7.07792">
        <ele>747.40002441406</ele>
        <time>2023-07-30T06:43:21.000Z</time>
      </trkpt>
      <trkpt lat="43.75048" lon="7.07792">
        <ele>747.40002441406</ele>
        <time>2023-07-30T06:43:22.000Z</time>
      </trkpt>
      <trkpt lat="43.75047" lon="7.07792">
        <ele>747.40002441406</ele>
        <time>2023-07-30T06:43:23.000Z</time>
      </trkpt>
      <trkpt lat="43.75047" lon="7.07792">
        <ele>747.40002441406</ele>
        <time>2023-07-30T06:43:24.000Z</time>
      </trkpt>
      <trkpt lat="43.75047" lon="7.07792">
        <ele>747.40002441406</ele>
        <time>2023-07-30T06:43:25.000Z</time>
      </trkpt>
      <trkpt lat="43.75047" lon="7.07792">
        <ele>747.40002441406</ele>
        <time>2023-07-30T06:43:26.000Z</time>
      </trkpt>
      <trkpt lat="43.75048" lon="7.07792">
        <ele>747.40002441406</ele>
        <time>2023-07-30T06:43:27.000Z</time>
      </trkpt>
      <trkpt lat="43.75049" lon="7.07792">
        <ele>747.40002441406</ele>
        <time>2023-07-30T06:43:28.000Z</time>
      </trkpt>
      <trkpt lat="43.75051" lon="7.07792">
        <ele>747.40002441406</ele>
        <time>2023-07-30T06:43:29.000Z</time>
      </trkpt>
      <trkpt lat="43.75053" lon="7.07791">
        <ele>747.40002441406</ele>
        <time>2023-07-30T06:43:30.000Z</time>
      </trkpt>
      <trkpt lat="43.75054" lon="7.07791">
        <ele>747.59997558594</ele>
        <time>2023-07-30T06:43:31.000Z</time>
      </trkpt>
      <trkpt lat="43.75056" lon="7.0779">
        <ele>747.59997558594</ele>
        <time>2023-07-30T06:43:32.000Z</time>
      </trkpt>
      <trkpt lat="43.75058" lon="7.07789">
        <ele>747.79998779297</ele>
        <time>2023-07-30T06:43:33.000Z</time>
      </trkpt>
      <trkpt lat="43.75061" lon="7.07788">
        <ele>748</ele>
        <time>2023-07-30T06:43:34.000Z</time>
      </trkpt>
      <trkpt lat="43.75063" lon="7.07787">
        <ele>748</ele>
        <time>2023-07-30T06:43:35.000Z</time>
      </trkpt>
      <trkpt lat="43.75065" lon="7.07786">
        <ele>748.40002441406</ele>
        <time>2023-07-30T06:43:36.000Z</time>
      </trkpt>
      <trkpt lat="43.75067" lon="7.07784">
        <ele>748.40002441406</ele>
        <time>2023-07-30T06:43:37.000Z</time>
      </trkpt>
      <trkpt lat="43.75069" lon="7.07783">
        <ele>748.40002441406</ele>
        <time>2023-07-30T06:43:38.000Z</time>
      </trkpt>
      <trkpt lat="43.75071" lon="7.07782">
        <ele>748.40002441406</ele>
        <time>2023-07-30T06:43:39.000Z</time>
      </trkpt>
      <trkpt lat="43.75073" lon="7.07781">
        <ele>748.59997558594</ele>
        <time>2023-07-30T06:43:40.000Z</time>
      </trkpt>
      <trkpt lat="43.75076" lon="7.0778">
        <ele>748.59997558594</ele>
        <time>2023-07-30T06:43:41.000Z</time>
      </trkpt>
      <trkpt lat="43.75078" lon="7.0778">
        <ele>749.20001220703</ele>
        <time>2023-07-30T06:43:42.000Z</time>
      </trkpt>
      <trkpt lat="43.75081" lon="7.07779">
        <ele>749.20001220703</ele>
        <time>2023-07-30T06:43:43.000Z</time>
      </trkpt>
      <trkpt lat="43.75083" lon="7.07779">
        <ele>749.59997558594</ele>
        <time>2023-07-30T06:43:44.000Z</time>
      </trkpt>
      <trkpt lat="43.75085" lon="7.07779">
        <ele>749.59997558594</ele>
        <time>2023-07-30T06:43:45.000Z</time>
      </trkpt>
      <trkpt lat="43.75087" lon="7.07778">
        <ele>749.79998779297</ele>
        <time>2023-07-30T06:43:46.000Z</time>
      </trkpt>
      <trkpt lat="43.75089" lon="7.07779">
        <ele>750</ele>
        <time>2023-07-30T06:43:47.000Z</time>
      </trkpt>
      <trkpt lat="43.75091" lon="7.07779">
        <ele>750.40002441406</ele>
        <time>2023-07-30T06:43:48.000Z</time>
      </trkpt>
      <trkpt lat="43.75093" lon="7.0778">
        <ele>751.20001220703</ele>
        <time>2023-07-30T06:43:49.000Z</time>
      </trkpt>
      <trkpt lat="43.75095" lon="7.0778">
        <ele>751.20001220703</ele>
        <time>2023-07-30T06:43:50.000Z</time>
      </trkpt>
      <trkpt lat="43.75098" lon="7.07781">
        <ele>751.40002441406</ele>
        <time>2023-07-30T06:43:51.000Z</time>
      </trkpt>
      <trkpt lat="43.751" lon="7.07782">
        <ele>751.79998779297</ele>
        <time>2023-07-30T06:43:52.000Z</time>
      </trkpt>
      <trkpt lat="43.75102" lon="7.07783">
        <ele>752.20001220703</ele>
        <time>2023-07-30T06:43:53.000Z</time>
      </trkpt>
      <trkpt lat="43.75104" lon="7.07786">
        <ele>752.59997558594</ele>
        <time>2023-07-30T06:43:54.000Z</time>
      </trkpt>
      <trkpt lat="43.75105" lon="7.07787">
        <ele>753.20001220703</ele>
        <time>2023-07-30T06:43:55.000Z</time>
      </trkpt>
      <trkpt lat="43.75107" lon="7.07789">
        <ele>753.40002441406</ele>
        <time>2023-07-30T06:43:56.000Z</time>
      </trkpt>
      <trkpt lat="43.75109" lon="7.07791">
        <ele>753.79998779297</ele>
        <time>2023-07-30T06:43:57.000Z</time>
      </trkpt>
      <trkpt lat="43.75111" lon="7.07793">
        <ele>754.20001220703</ele>
        <time>2023-07-30T06:43:58.000Z</time>
      </trkpt>
      <trkpt lat="43.75112" lon="7.07795">
        <ele>754.59997558594</ele>
        <time>2023-07-30T06:43:59.000Z</time>
      </trkpt>
      <trkpt lat="43.75114" lon="7.07795">
        <ele>755</ele>
        <time>2023-07-30T06:44:00.000Z</time>
      </trkpt>
      <trkpt lat="43.75116" lon="7.07796">
        <ele>755.59997558594</ele>
        <time>2023-07-30T06:44:01.000Z</time>
      </trkpt>
      <trkpt lat="43.75118" lon="7.07797">
        <ele>755.59997558594</ele>
        <time>2023-07-30T06:44:02.000Z</time>
      </trkpt>
      <trkpt lat="43.75121" lon="7.07798">
        <ele>755.59997558594</ele>
        <time>2023-07-30T06:44:03.000Z</time>
      </trkpt>
      <trkpt lat="43.75123" lon="7.07798">
        <ele>756.59997558594</ele>
        <time>2023-07-30T06:44:04.000Z</time>
      </trkpt>
      <trkpt lat="43.75125" lon="7.078">
        <ele>756.79998779297</ele>
        <time>2023-07-30T06:44:05.000Z</time>
      </trkpt>
      <trkpt lat="43.75127" lon="7.078">
        <ele>757.40002441406</ele>
        <time>2023-07-30T06:44:06.000Z</time>
      </trkpt>
      <trkpt lat="43.75129" lon="7.07801">
        <ele>757.79998779297</ele>
        <time>2023-07-30T06:44:07.000Z</time>
      </trkpt>
      <trkpt lat="43.75131" lon="7.07801">
        <ele>758.20001220703</ele>
        <time>2023-07-30T06:44:08.000Z</time>
      </trkpt>
      <trkpt lat="43.75134" lon="7.07801">
        <ele>758.79998779297</ele>
        <time>2023-07-30T06:44:09.000Z</time>
      </trkpt>
      <trkpt lat="43.75136" lon="7.07802">
        <ele>759</ele>
        <time>2023-07-30T06:44:10.000Z</time>
      </trkpt>
      <trkpt lat="43.75137" lon="7.07802">
        <ele>759.20001220703</ele>
        <time>2023-07-30T06:44:11.000Z</time>
      </trkpt>
      <trkpt lat="43.75139" lon="7.07802">
        <ele>759.79998779297</ele>
        <time>2023-07-30T06:44:12.000Z</time>
      </trkpt>
      <trkpt lat="43.75141" lon="7.07803">
        <ele>760.40002441406</ele>
        <time>2023-07-30T06:44:13.000Z</time>
      </trkpt>
      <trkpt lat="43.75143" lon="7.07803">
        <ele>761</ele>
        <time>2023-07-30T06:44:14.000Z</time>
      </trkpt>
      <trkpt lat="43.75145" lon="7.07804">
        <ele>761.20001220703</ele>
        <time>2023-07-30T06:44:15.000Z</time>
      </trkpt>
      <trkpt lat="43.75147" lon="7.07804">
        <ele>761.59997558594</ele>
        <time>2023-07-30T06:44:16.000Z</time>
      </trkpt>
      <trkpt lat="43.75149" lon="7.07805">
        <ele>762</ele>
        <time>2023-07-30T06:44:17.000Z</time>
      </trkpt>
      <trkpt lat="43.75151" lon="7.07806">
        <ele>762.20001220703</ele>
        <time>2023-07-30T06:44:18.000Z</time>
      </trkpt>
      <trkpt lat="43.75153" lon="7.07807">
        <ele>762.40002441406</ele>
        <time>2023-07-30T06:44:19.000Z</time>
      </trkpt>
      <trkpt lat="43.75155" lon="7.07808">
        <ele>762.79998779297</ele>
        <time>2023-07-30T06:44:20.000Z</time>
      </trkpt>
      <trkpt lat="43.75157" lon="7.07809">
        <ele>763.20001220703</ele>
        <time>2023-07-30T06:44:21.000Z</time>
      </trkpt>
      <trkpt lat="43.75159" lon="7.07809">
        <ele>763.40002441406</ele>
        <time>2023-07-30T06:44:22.000Z</time>
      </trkpt>
      <trkpt lat="43.75162" lon="7.07809">
        <ele>763.59997558594</ele>
        <time>2023-07-30T06:44:23.000Z</time>
      </trkpt>
      <trkpt lat="43.75164" lon="7.0781">
        <ele>764</ele>
        <time>2023-07-30T06:44:24.000Z</time>
      </trkpt>
      <trkpt lat="43.75167" lon="7.07811">
        <ele>764</ele>
        <time>2023-07-30T06:44:25.000Z</time>
      </trkpt>
      <trkpt lat="43.75169" lon="7.07811">
        <ele>764.59997558594</ele>
        <time>2023-07-30T06:44:26.000Z</time>
      </trkpt>
      <trkpt lat="43.75171" lon="7.07812">
        <ele>764.79998779297</ele>
        <time>2023-07-30T06:44:27.000Z</time>
      </trkpt>
      <trkpt lat="43.75173" lon="7.07812">
        <ele>765</ele>
        <time>2023-07-30T06:44:28.000Z</time>
      </trkpt>
      <trkpt lat="43.75175" lon="7.07812">
        <ele>765.20001220703</ele>
        <time>2023-07-30T06:44:29.000Z</time>
      </trkpt>
      <trkpt lat="43.75177" lon="7.07813">
        <ele>765.40002441406</ele>
        <time>2023-07-30T06:44:30.000Z</time>
      </trkpt>
      <trkpt lat="43.75179" lon="7.07814">
        <ele>765.79998779297</ele>
        <time>2023-07-30T06:44:31.000Z</time>
      </trkpt>
      <trkpt lat="43.75181" lon="7.07815">
        <ele>766</ele>
        <time>2023-07-30T06:44:32.000Z</time>
      </trkpt>
      <trkpt lat="43.75183" lon="7.07815">
        <ele>766.59997558594</ele>
        <time>2023-07-30T06:44:33.000Z</time>
      </trkpt>
      <trkpt lat="43.75186" lon="7.07816">
        <ele>767</ele>
        <time>2023-07-30T06:44:34.000Z</time>
      </trkpt>
      <trkpt lat="43.75188" lon="7.07816">
        <ele>767.59997558594</ele>
        <time>2023-07-30T06:44:35.000Z</time>
      </trkpt>
      <trkpt lat="43.7519" lon="7.07817">
        <ele>768</ele>
        <time>2023-07-30T06:44:36.000Z</time>
      </trkpt>
      <trkpt lat="43.75192" lon="7.07817">
        <ele>768.59997558594</ele>
        <time>2023-07-30T06:44:37.000Z</time>
      </trkpt>
      <trkpt lat="43.75194" lon="7.07817">
        <ele>769</ele>
        <time>2023-07-30T06:44:38.000Z</time>
      </trkpt>
      <trkpt lat="43.75196" lon="7.07819">
        <ele>769.59997558594</ele>
        <time>2023-07-30T06:44:39.000Z</time>
      </trkpt>
      <trkpt lat="43.75198" lon="7.0782">
        <ele>769.79998779297</ele>
        <time>2023-07-30T06:44:40.000Z</time>
      </trkpt>
      <trkpt lat="43.752" lon="7.07822">
        <ele>770.20001220703</ele>
        <time>2023-07-30T06:44:41.000Z</time>
      </trkpt>
      <trkpt lat="43.75202" lon="7.07823">
        <ele>770.79998779297</ele>
        <time>2023-07-30T06:44:42.000Z</time>
      </trkpt>
      <trkpt lat="43.75204" lon="7.07824">
        <ele>770.79998779297</ele>
        <time>2023-07-30T06:44:43.000Z</time>
      </trkpt>
      <trkpt lat="43.75205" lon="7.07825">
        <ele>771.59997558594</ele>
        <time>2023-07-30T06:44:44.000Z</time>
      </trkpt>
      <trkpt lat="43.75207" lon="7.07826">
        <ele>771.59997558594</ele>
        <time>2023-07-30T06:44:45.000Z</time>
      </trkpt>
      <trkpt lat="43.7521" lon="7.07827">
        <ele>772</ele>
        <time>2023-07-30T06:44:46.000Z</time>
      </trkpt>
      <trkpt lat="43.75212" lon="7.07827">
        <ele>772.59997558594</ele>
        <time>2023-07-30T06:44:47.000Z</time>
      </trkpt>
      <trkpt lat="43.75213" lon="7.07829">
        <ele>772.59997558594</ele>
        <time>2023-07-30T06:44:48.000Z</time>
      </trkpt>
      <trkpt lat="43.75215" lon="7.0783">
        <ele>772.59997558594</ele>
        <time>2023-07-30T06:44:49.000Z</time>
      </trkpt>
      <trkpt lat="43.75217" lon="7.07831">
        <ele>772.79998779297</ele>
        <time>2023-07-30T06:44:50.000Z</time>
      </trkpt>
      <trkpt lat="43.75218" lon="7.07832">
        <ele>773.20001220703</ele>
        <time>2023-07-30T06:44:51.000Z</time>
      </trkpt>
      <trkpt lat="43.7522" lon="7.07833">
        <ele>773.59997558594</ele>
        <time>2023-07-30T06:44:52.000Z</time>
      </trkpt>
      <trkpt lat="43.75222" lon="7.07834">
        <ele>773.79998779297</ele>
        <time>2023-07-30T06:44:53.000Z</time>
      </trkpt>
      <trkpt lat="43.75224" lon="7.07835">
        <ele>774.20001220703</ele>
        <time>2023-07-30T06:44:54.000Z</time>
      </trkpt>
      <trkpt lat="43.75226" lon="7.07837">
        <ele>774.59997558594</ele>
        <time>2023-07-30T06:44:55.000Z</time>
      </trkpt>
      <trkpt lat="43.75228" lon="7.07837">
        <ele>775</ele>
        <time>2023-07-30T06:44:56.000Z</time>
      </trkpt>
      <trkpt lat="43.7523" lon="7.07838">
        <ele>775.40002441406</ele>
        <time>2023-07-30T06:44:57.000Z</time>
      </trkpt>
      <trkpt lat="43.75231" lon="7.0784">
        <ele>775.79998779297</ele>
        <time>2023-07-30T06:44:58.000Z</time>
      </trkpt>
      <trkpt lat="43.75234" lon="7.07841">
        <ele>776.20001220703</ele>
        <time>2023-07-30T06:44:59.000Z</time>
      </trkpt>
      <trkpt lat="43.75235" lon="7.07842">
        <ele>776.79998779297</ele>
        <time>2023-07-30T06:45:00.000Z</time>
      </trkpt>
      <trkpt lat="43.75237" lon="7.07843">
        <ele>776.79998779297</ele>
        <time>2023-07-30T06:45:01.000Z</time>
      </trkpt>
      <trkpt lat="43.75239" lon="7.07845">
        <ele>777.20001220703</ele>
        <time>2023-07-30T06:45:02.000Z</time>
      </trkpt>
      <trkpt lat="43.7524" lon="7.07846">
        <ele>777.59997558594</ele>
        <time>2023-07-30T06:45:03.000Z</time>
      </trkpt>
      <trkpt lat="43.75242" lon="7.07848">
        <ele>778</ele>
        <time>2023-07-30T06:45:04.000Z</time>
      </trkpt>
      <trkpt lat="43.75242" lon="7.0785">
        <ele>778.40002441406</ele>
        <time>2023-07-30T06:45:05.000Z</time>
      </trkpt>
      <trkpt lat="43.75242" lon="7.07852">
        <ele>778.79998779297</ele>
        <time>2023-07-30T06:45:06.000Z</time>
      </trkpt>
      <trkpt lat="43.75241" lon="7.07854">
        <ele>779</ele>
        <time>2023-07-30T06:45:07.000Z</time>
      </trkpt>
      <trkpt lat="43.75239" lon="7.07855">
        <ele>779.40002441406</ele>
        <time>2023-07-30T06:45:08.000Z</time>
      </trkpt>
      <trkpt lat="43.75237" lon="7.07857">
        <ele>780</ele>
        <time>2023-07-30T06:45:09.000Z</time>
      </trkpt>
      <trkpt lat="43.75235" lon="7.07857">
        <ele>780.20001220703</ele>
        <time>2023-07-30T06:45:10.000Z</time>
      </trkpt>
      <trkpt lat="43.75233" lon="7.07859">
        <ele>780.59997558594</ele>
        <time>2023-07-30T06:45:11.000Z</time>
      </trkpt>
      <trkpt lat="43.75232" lon="7.0786">
        <ele>780.59997558594</ele>
        <time>2023-07-30T06:45:12.000Z</time>
      </trkpt>
      <trkpt lat="43.75231" lon="7.07863">
        <ele>781</ele>
        <time>2023-07-30T06:45:13.000Z</time>
      </trkpt>
      <trkpt lat="43.75232" lon="7.07864">
        <ele>781</ele>
        <time>2023-07-30T06:45:14.000Z</time>
      </trkpt>
      <trkpt lat="43.75232" lon="7.07864">
        <ele>781.59997558594</ele>
        <time>2023-07-30T06:45:15.000Z</time>
      </trkpt>
      <trkpt lat="43.75232" lon="7.07864">
        <ele>781.79998779297</ele>
        <time>2023-07-30T06:45:16.000Z</time>
      </trkpt>
      <trkpt lat="43.75232" lon="7.07864">
        <ele>782.40002441406</ele>
        <time>2023-07-30T06:45:17.000Z</time>
      </trkpt>
      <trkpt lat="43.75232" lon="7.07864">
        <ele>782.79998779297</ele>
        <time>2023-07-30T06:45:18.000Z</time>
      </trkpt>
      <trkpt lat="43.75232" lon="7.07864">
        <ele>783</ele>
        <time>2023-07-30T06:45:19.000Z</time>
      </trkpt>
      <trkpt lat="43.75232" lon="7.07865">
        <ele>783</ele>
        <time>2023-07-30T06:45:20.000Z</time>
      </trkpt>
      <trkpt lat="43.75232" lon="7.07865">
        <ele>783.20001220703</ele>
        <time>2023-07-30T06:45:21.000Z</time>
      </trkpt>
      <trkpt lat="43.75232" lon="7.07865">
        <ele>783.20001220703</ele>
        <time>2023-07-30T06:45:22.000Z</time>
      </trkpt>
      <trkpt lat="43.75232" lon="7.07866">
        <ele>783.20001220703</ele>
        <time>2023-07-30T06:45:23.000Z</time>
      </trkpt>
      <trkpt lat="43.75232" lon="7.07866">
        <ele>783.20001220703</ele>
        <time>2023-07-30T06:45:24.000Z</time>
      </trkpt>
      <trkpt lat="43.75232" lon="7.07866">
        <ele>783.20001220703</ele>
        <time>2023-07-30T06:45:25.000Z</time>
      </trkpt>
      <trkpt lat="43.75232" lon="7.07866">
        <ele>783.20001220703</ele>
        <time>2023-07-30T06:45:26.000Z</time>
      </trkpt>
      <trkpt lat="43.75232" lon="7.07866">
        <ele>783.40002441406</ele>
        <time>2023-07-30T06:45:27.000Z</time>
      </trkpt>
      <trkpt lat="43.75232" lon="7.07866">
        <ele>783.40002441406</ele>
        <time>2023-07-30T06:45:28.000Z</time>
      </trkpt>
      <trkpt lat="43.75232" lon="7.07866">
        <ele>783.40002441406</ele>
        <time>2023-07-30T06:45:29.000Z</time>
      </trkpt>
      <trkpt lat="43.75232" lon="7.07866">
        <ele>783.40002441406</ele>
        <time>2023-07-30T06:45:30.000Z</time>
      </trkpt>
      <trkpt lat="43.75232" lon="7.07866">
        <ele>783.40002441406</ele>
        <time>2023-07-30T06:45:31.000Z</time>
      </trkpt>
      <trkpt lat="43.75232" lon="7.07866">
        <ele>783.40002441406</ele>
        <time>2023-07-30T06:45:32.000Z</time>
      </trkpt>
      <trkpt lat="43.75232" lon="7.07866">
        <ele>783.40002441406</ele>
        <time>2023-07-30T06:45:33.000Z</time>
      </trkpt>
      <trkpt lat="43.75232" lon="7.07866">
        <ele>783.40002441406</ele>
        <time>2023-07-30T06:45:34.000Z</time>
      </trkpt>
      <trkpt lat="43.75232" lon="7.07866">
        <ele>783.40002441406</ele>
        <time>2023-07-30T06:45:35.000Z</time>
      </trkpt>
      <trkpt lat="43.75232" lon="7.07866">
        <ele>783.40002441406</ele>
        <time>2023-07-30T06:45:36.000Z</time>
      </trkpt>
      <trkpt lat="43.75232" lon="7.07866">
        <ele>783.40002441406</ele>
        <time>2023-07-30T06:45:37.000Z</time>
      </trkpt>
      <trkpt lat="43.75233" lon="7.07866">
        <ele>783.40002441406</ele>
        <time>2023-07-30T06:45:38.000Z</time>
      </trkpt>
      <trkpt lat="43.75233" lon="7.07866">
        <ele>783.40002441406</ele>
        <time>2023-07-30T06:45:39.000Z</time>
      </trkpt>
      <trkpt lat="43.75233" lon="7.07866">
        <ele>783.40002441406</ele>
        <time>2023-07-30T06:45:40.000Z</time>
      </trkpt>
      <trkpt lat="43.75233" lon="7.07866">
        <ele>783.40002441406</ele>
        <time>2023-07-30T06:45:41.000Z</time>
      </trkpt>
      <trkpt lat="43.75233" lon="7.07866">
        <ele>783.40002441406</ele>
        <time>2023-07-30T06:45:42.000Z</time>
      </trkpt>
      <trkpt lat="43.75233" lon="7.07866">
        <ele>783.40002441406</ele>
        <time>2023-07-30T06:45:43.000Z</time>
      </trkpt>
      <trkpt lat="43.75233" lon="7.07866">
        <ele>783.40002441406</ele>
        <time>2023-07-30T06:45:44.000Z</time>
      </trkpt>
      <trkpt lat="43.75233" lon="7.07866">
        <ele>783.40002441406</ele>
        <time>2023-07-30T06:45:45.000Z</time>
      </trkpt>
      <trkpt lat="43.75233" lon="7.07866">
        <ele>783.40002441406</ele>
        <time>2023-07-30T06:45:46.000Z</time>
      </trkpt>
      <trkpt lat="43.75233" lon="7.07866">
        <ele>783.40002441406</ele>
        <time>2023-07-30T06:45:47.000Z</time>
      </trkpt>
      <trkpt lat="43.75233" lon="7.07866">
        <ele>783.40002441406</ele>
        <time>2023-07-30T06:45:48.000Z</time>
      </trkpt>
      <trkpt lat="43.75233" lon="7.07866">
        <ele>783.40002441406</ele>
        <time>2023-07-30T06:45:49.000Z</time>
      </trkpt>
      <trkpt lat="43.75233" lon="7.07866">
        <ele>783.40002441406</ele>
        <time>2023-07-30T06:45:50.000Z</time>
      </trkpt>
      <trkpt lat="43.75232" lon="7.07866">
        <ele>783.40002441406</ele>
        <time>2023-07-30T06:45:51.000Z</time>
      </trkpt>
      <trkpt lat="43.75232" lon="7.07866">
        <ele>783.40002441406</ele>
        <time>2023-07-30T06:45:52.000Z</time>
      </trkpt>
      <trkpt lat="43.75232" lon="7.07866">
        <ele>783.40002441406</ele>
        <time>2023-07-30T06:45:53.000Z</time>
      </trkpt>
      <trkpt lat="43.75232" lon="7.07865">
        <ele>783.40002441406</ele>
        <time>2023-07-30T06:45:54.000Z</time>
      </trkpt>
      <trkpt lat="43.75232" lon="7.07865">
        <ele>783.40002441406</ele>
        <time>2023-07-30T06:45:55.000Z</time>
      </trkpt>
      <trkpt lat="43.75232" lon="7.07865">
        <ele>783.40002441406</ele>
        <time>2023-07-30T06:45:56.000Z</time>
      </trkpt>
      <trkpt lat="43.75231" lon="7.07866">
        <ele>783.40002441406</ele>
        <time>2023-07-30T06:45:57.000Z</time>
      </trkpt>
      <trkpt lat="43.7523" lon="7.07866">
        <ele>783.40002441406</ele>
        <time>2023-07-30T06:45:58.000Z</time>
      </trkpt>
      <trkpt lat="43.7523" lon="7.07867">
        <ele>783.40002441406</ele>
        <time>2023-07-30T06:45:59.000Z</time>
      </trkpt>
      <trkpt lat="43.7523" lon="7.07867">
        <ele>783.40002441406</ele>
        <time>2023-07-30T06:46:00.000Z</time>
      </trkpt>
      <trkpt lat="43.7523" lon="7.07867">
        <ele>783.40002441406</ele>
        <time>2023-07-30T06:46:01.000Z</time>
      </trkpt>
      <trkpt lat="43.7523" lon="7.07867">
        <ele>783.40002441406</ele>
        <time>2023-07-30T06:46:02.000Z</time>
      </trkpt>
      <trkpt lat="43.7523" lon="7.07867">
        <ele>783.40002441406</ele>
        <time>2023-07-30T06:46:03.000Z</time>
      </trkpt>
      <trkpt lat="43.7523" lon="7.07867">
        <ele>783.40002441406</ele>
        <time>2023-07-30T06:46:04.000Z</time>
      </trkpt>
      <trkpt lat="43.7523" lon="7.07867">
        <ele>783.40002441406</ele>
        <time>2023-07-30T06:46:05.000Z</time>
      </trkpt>
      <trkpt lat="43.7523" lon="7.07867">
        <ele>783.40002441406</ele>
        <time>2023-07-30T06:46:06.000Z</time>
      </trkpt>
      <trkpt lat="43.7523" lon="7.07867">
        <ele>783.40002441406</ele>
        <time>2023-07-30T06:46:07.000Z</time>
      </trkpt>
      <trkpt lat="43.7523" lon="7.07867">
        <ele>783.40002441406</ele>
        <time>2023-07-30T06:46:08.000Z</time>
      </trkpt>
      <trkpt lat="43.7523" lon="7.07867">
        <ele>783.40002441406</ele>
        <time>2023-07-30T06:46:09.000Z</time>
      </trkpt>
      <trkpt lat="43.7523" lon="7.07867">
        <ele>783.59997558594</ele>
        <time>2023-07-30T06:46:10.000Z</time>
      </trkpt>
      <trkpt lat="43.7523" lon="7.07867">
        <ele>783.59997558594</ele>
        <time>2023-07-30T06:46:11.000Z</time>
      </trkpt>
      <trkpt lat="43.7523" lon="7.07867">
        <ele>783.59997558594</ele>
        <time>2023-07-30T06:46:12.000Z</time>
      </trkpt>
      <trkpt lat="43.7523" lon="7.07867">
        <ele>783.59997558594</ele>
        <time>2023-07-30T06:46:13.000Z</time>
      </trkpt>
      <trkpt lat="43.7523" lon="7.07867">
        <ele>783.59997558594</ele>
        <time>2023-07-30T06:46:14.000Z</time>
      </trkpt>
      <trkpt lat="43.7523" lon="7.07867">
        <ele>783.59997558594</ele>
        <time>2023-07-30T06:46:15.000Z</time>
      </trkpt>
      <trkpt lat="43.7523" lon="7.07867">
        <ele>783.40002441406</ele>
        <time>2023-07-30T06:46:16.000Z</time>
      </trkpt>
      <trkpt lat="43.7523" lon="7.07867">
        <ele>783.40002441406</ele>
        <time>2023-07-30T06:46:17.000Z</time>
      </trkpt>
      <trkpt lat="43.7523" lon="7.07867">
        <ele>783.40002441406</ele>
        <time>2023-07-30T06:46:18.000Z</time>
      </trkpt>
      <trkpt lat="43.7523" lon="7.07867">
        <ele>783.40002441406</ele>
        <time>2023-07-30T06:46:19.000Z</time>
      </trkpt>
      <trkpt lat="43.7523" lon="7.07867">
        <ele>783.40002441406</ele>
        <time>2023-07-30T06:46:20.000Z</time>
      </trkpt>
      <trkpt lat="43.7523" lon="7.07867">
        <ele>783.40002441406</ele>
        <time>2023-07-30T06:46:21.000Z</time>
      </trkpt>
      <trkpt lat="43.7523" lon="7.07867">
        <ele>783.40002441406</ele>
        <time>2023-07-30T06:46:22.000Z</time>
      </trkpt>
      <trkpt lat="43.7523" lon="7.07867">
        <ele>783.59997558594</ele>
        <time>2023-07-30T06:46:23.000Z</time>
      </trkpt>
      <trkpt lat="43.7523" lon="7.07867">
        <ele>783.59997558594</ele>
        <time>2023-07-30T06:46:24.000Z</time>
      </trkpt>
      <trkpt lat="43.7523" lon="7.07867">
        <ele>783.59997558594</ele>
        <time>2023-07-30T06:46:25.000Z</time>
      </trkpt>
      <trkpt lat="43.7523" lon="7.07867">
        <ele>783.59997558594</ele>
        <time>2023-07-30T06:46:26.000Z</time>
      </trkpt>
      <trkpt lat="43.7523" lon="7.07867">
        <ele>783.59997558594</ele>
        <time>2023-07-30T06:46:27.000Z</time>
      </trkpt>
      <trkpt lat="43.7523" lon="7.07867">
        <ele>783.59997558594</ele>
        <time>2023-07-30T06:46:28.000Z</time>
      </trkpt>
      <trkpt lat="43.7523" lon="7.07867">
        <ele>783.59997558594</ele>
        <time>2023-07-30T06:46:29.000Z</time>
      </trkpt>
      <trkpt lat="43.7523" lon="7.07867">
        <ele>783.59997558594</ele>
        <time>2023-07-30T06:46:30.000Z</time>
      </trkpt>
      <trkpt lat="43.7523" lon="7.07867">
        <ele>783.59997558594</ele>
        <time>2023-07-30T06:46:31.000Z</time>
      </trkpt>
      <trkpt lat="43.7523" lon="7.07867">
        <ele>783.59997558594</ele>
        <time>2023-07-30T06:46:32.000Z</time>
      </trkpt>
      <trkpt lat="43.7523" lon="7.07867">
        <ele>783.59997558594</ele>
        <time>2023-07-30T06:46:33.000Z</time>
      </trkpt>
      <trkpt lat="43.7523" lon="7.07867">
        <ele>783.59997558594</ele>
        <time>2023-07-30T06:46:34.000Z</time>
      </trkpt>
      <trkpt lat="43.7523" lon="7.07867">
        <ele>783.59997558594</ele>
        <time>2023-07-30T06:46:35.000Z</time>
      </trkpt>
      <trkpt lat="43.7523" lon="7.07867">
        <ele>783.59997558594</ele>
        <time>2023-07-30T06:46:36.000Z</time>
      </trkpt>
      <trkpt lat="43.7523" lon="7.07867">
        <ele>783.59997558594</ele>
        <time>2023-07-30T06:46:37.000Z</time>
      </trkpt>
      <trkpt lat="43.7523" lon="7.07867">
        <ele>783.59997558594</ele>
        <time>2023-07-30T06:46:38.000Z</time>
      </trkpt>
      <trkpt lat="43.7523" lon="7.07867">
        <ele>783.59997558594</ele>
        <time>2023-07-30T06:46:39.000Z</time>
      </trkpt>
      <trkpt lat="43.7523" lon="7.07867">
        <ele>783.59997558594</ele>
        <time>2023-07-30T06:46:40.000Z</time>
      </trkpt>
      <trkpt lat="43.7523" lon="7.07867">
        <ele>783.59997558594</ele>
        <time>2023-07-30T06:46:41.000Z</time>
      </trkpt>
      <trkpt lat="43.7523" lon="7.07867">
        <ele>783.59997558594</ele>
        <time>2023-07-30T06:46:42.000Z</time>
      </trkpt>
      <trkpt lat="43.7523" lon="7.07867">
        <ele>783.59997558594</ele>
        <time>2023-07-30T06:46:43.000Z</time>
      </trkpt>
      <trkpt lat="43.7523" lon="7.07867">
        <ele>783.59997558594</ele>
        <time>2023-07-30T06:46:44.000Z</time>
      </trkpt>
      <trkpt lat="43.7523" lon="7.07867">
        <ele>783.59997558594</ele>
        <time>2023-07-30T06:46:45.000Z</time>
      </trkpt>
      <trkpt lat="43.7523" lon="7.07867">
        <ele>783.59997558594</ele>
        <time>2023-07-30T06:46:46.000Z</time>
      </trkpt>
      <trkpt lat="43.7523" lon="7.07867">
        <ele>783.59997558594</ele>
        <time>2023-07-30T06:46:47.000Z</time>
      </trkpt>
      <trkpt lat="43.7523" lon="7.07867">
        <ele>783.59997558594</ele>
        <time>2023-07-30T06:46:48.000Z</time>
      </trkpt>
      <trkpt lat="43.7523" lon="7.07867">
        <ele>783.59997558594</ele>
        <time>2023-07-30T06:46:49.000Z</time>
      </trkpt>
      <trkpt lat="43.7523" lon="7.07867">
        <ele>783.59997558594</ele>
        <time>2023-07-30T06:46:50.000Z</time>
      </trkpt>
      <trkpt lat="43.7523" lon="7.07867">
        <ele>783.59997558594</ele>
        <time>2023-07-30T06:46:51.000Z</time>
      </trkpt>
      <trkpt lat="43.7523" lon="7.07867">
        <ele>783.59997558594</ele>
        <time>2023-07-30T06:46:52.000Z</time>
      </trkpt>
      <trkpt lat="43.7523" lon="7.07867">
        <ele>783.59997558594</ele>
        <time>2023-07-30T06:46:53.000Z</time>
      </trkpt>
      <trkpt lat="43.7523" lon="7.07867">
        <ele>783.59997558594</ele>
        <time>2023-07-30T06:46:54.000Z</time>
      </trkpt>
      <trkpt lat="43.7523" lon="7.07867">
        <ele>783.59997558594</ele>
        <time>2023-07-30T06:46:55.000Z</time>
      </trkpt>
      <trkpt lat="43.7523" lon="7.07867">
        <ele>783.59997558594</ele>
        <time>2023-07-30T06:46:56.000Z</time>
      </trkpt>
      <trkpt lat="43.7523" lon="7.07867">
        <ele>783.59997558594</ele>
        <time>2023-07-30T06:46:57.000Z</time>
      </trkpt>
      <trkpt lat="43.7523" lon="7.07867">
        <ele>783.59997558594</ele>
        <time>2023-07-30T06:46:58.000Z</time>
      </trkpt>
      <trkpt lat="43.7523" lon="7.07867">
        <ele>783.59997558594</ele>
        <time>2023-07-30T06:46:59.000Z</time>
      </trkpt>
      <trkpt lat="43.7523" lon="7.07867">
        <ele>783.59997558594</ele>
        <time>2023-07-30T06:47:00.000Z</time>
      </trkpt>
      <trkpt lat="43.7523" lon="7.07867">
        <ele>783.59997558594</ele>
        <time>2023-07-30T06:47:01.000Z</time>
      </trkpt>
      <trkpt lat="43.7523" lon="7.07867">
        <ele>783.59997558594</ele>
        <time>2023-07-30T06:47:02.000Z</time>
      </trkpt>
      <trkpt lat="43.7523" lon="7.07867">
        <ele>783.59997558594</ele>
        <time>2023-07-30T06:47:03.000Z</time>
      </trkpt>
      <trkpt lat="43.7523" lon="7.07867">
        <ele>783.59997558594</ele>
        <time>2023-07-30T06:47:04.000Z</time>
      </trkpt>
      <trkpt lat="43.7523" lon="7.07867">
        <ele>783.59997558594</ele>
        <time>2023-07-30T06:47:05.000Z</time>
      </trkpt>
      <trkpt lat="43.7523" lon="7.07867">
        <ele>783.59997558594</ele>
        <time>2023-07-30T06:47:06.000Z</time>
      </trkpt>
      <trkpt lat="43.7523" lon="7.07867">
        <ele>783.59997558594</ele>
        <time>2023-07-30T06:47:07.000Z</time>
      </trkpt>
      <trkpt lat="43.7523" lon="7.07867">
        <ele>783.59997558594</ele>
        <time>2023-07-30T06:47:08.000Z</time>
      </trkpt>
      <trkpt lat="43.7523" lon="7.07867">
        <ele>783.59997558594</ele>
        <time>2023-07-30T06:47:09.000Z</time>
      </trkpt>
      <trkpt lat="43.7523" lon="7.07867">
        <ele>783.59997558594</ele>
        <time>2023-07-30T06:47:10.000Z</time>
      </trkpt>
      <trkpt lat="43.7523" lon="7.07867">
        <ele>783.59997558594</ele>
        <time>2023-07-30T06:47:11.000Z</time>
      </trkpt>
      <trkpt lat="43.7523" lon="7.07867">
        <ele>783.59997558594</ele>
        <time>2023-07-30T06:47:12.000Z</time>
      </trkpt>
      <trkpt lat="43.7523" lon="7.07867">
        <ele>783.59997558594</ele>
        <time>2023-07-30T06:47:13.000Z</time>
      </trkpt>
      <trkpt lat="43.7523" lon="7.07867">
        <ele>783.59997558594</ele>
        <time>2023-07-30T06:47:14.000Z</time>
      </trkpt>
      <trkpt lat="43.7523" lon="7.07867">
        <ele>783.59997558594</ele>
        <time>2023-07-30T06:47:15.000Z</time>
      </trkpt>
      <trkpt lat="43.7523" lon="7.07867">
        <ele>783.59997558594</ele>
        <time>2023-07-30T06:47:16.000Z</time>
      </trkpt>
      <trkpt lat="43.7523" lon="7.07867">
        <ele>783.59997558594</ele>
        <time>2023-07-30T06:47:17.000Z</time>
      </trkpt>
      <trkpt lat="43.7523" lon="7.07867">
        <ele>783.59997558594</ele>
        <time>2023-07-30T06:47:18.000Z</time>
      </trkpt>
      <trkpt lat="43.7523" lon="7.07867">
        <ele>783.59997558594</ele>
        <time>2023-07-30T06:47:19.000Z</time>
      </trkpt>
      <trkpt lat="43.7523" lon="7.07867">
        <ele>783.59997558594</ele>
        <time>2023-07-30T06:47:20.000Z</time>
      </trkpt>
      <trkpt lat="43.7523" lon="7.07867">
        <ele>783.59997558594</ele>
        <time>2023-07-30T06:47:21.000Z</time>
      </trkpt>
      <trkpt lat="43.7523" lon="7.07867">
        <ele>783.59997558594</ele>
        <time>2023-07-30T06:47:22.000Z</time>
      </trkpt>
      <trkpt lat="43.7523" lon="7.07867">
        <ele>783.59997558594</ele>
        <time>2023-07-30T06:47:23.000Z</time>
      </trkpt>
      <trkpt lat="43.7523" lon="7.07867">
        <ele>783.59997558594</ele>
        <time>2023-07-30T06:47:24.000Z</time>
      </trkpt>
      <trkpt lat="43.7523" lon="7.07867">
        <ele>783.59997558594</ele>
        <time>2023-07-30T06:47:25.000Z</time>
      </trkpt>
      <trkpt lat="43.7523" lon="7.07867">
        <ele>783.59997558594</ele>
        <time>2023-07-30T06:47:26.000Z</time>
      </trkpt>
      <trkpt lat="43.7523" lon="7.07867">
        <ele>783.59997558594</ele>
        <time>2023-07-30T06:47:27.000Z</time>
      </trkpt>
      <trkpt lat="43.7523" lon="7.07867">
        <ele>783.59997558594</ele>
        <time>2023-07-30T06:47:28.000Z</time>
      </trkpt>
      <trkpt lat="43.7523" lon="7.07867">
        <ele>783.59997558594</ele>
        <time>2023-07-30T06:47:29.000Z</time>
      </trkpt>
      <trkpt lat="43.7523" lon="7.07867">
        <ele>783.59997558594</ele>
        <time>2023-07-30T06:47:30.000Z</time>
      </trkpt>
      <trkpt lat="43.7523" lon="7.07867">
        <ele>783.59997558594</ele>
        <time>2023-07-30T06:47:31.000Z</time>
      </trkpt>
      <trkpt lat="43.7523" lon="7.07867">
        <ele>783.59997558594</ele>
        <time>2023-07-30T06:47:32.000Z</time>
      </trkpt>
      <trkpt lat="43.7523" lon="7.07867">
        <ele>783.59997558594</ele>
        <time>2023-07-30T06:47:33.000Z</time>
      </trkpt>
      <trkpt lat="43.7523" lon="7.07867">
        <ele>783.59997558594</ele>
        <time>2023-07-30T06:47:34.000Z</time>
      </trkpt>
      <trkpt lat="43.7523" lon="7.07867">
        <ele>783.59997558594</ele>
        <time>2023-07-30T06:47:35.000Z</time>
      </trkpt>
      <trkpt lat="43.7523" lon="7.07867">
        <ele>783.59997558594</ele>
        <time>2023-07-30T06:47:36.000Z</time>
      </trkpt>
      <trkpt lat="43.7523" lon="7.07867">
        <ele>783.59997558594</ele>
        <time>2023-07-30T06:47:37.000Z</time>
      </trkpt>
      <trkpt lat="43.7523" lon="7.07867">
        <ele>783.59997558594</ele>
        <time>2023-07-30T06:47:38.000Z</time>
      </trkpt>
      <trkpt lat="43.7523" lon="7.07867">
        <ele>783.59997558594</ele>
        <time>2023-07-30T06:47:39.000Z</time>
      </trkpt>
      <trkpt lat="43.7523" lon="7.07867">
        <ele>783.59997558594</ele>
        <time>2023-07-30T06:47:40.000Z</time>
      </trkpt>
      <trkpt lat="43.7523" lon="7.07867">
        <ele>783.59997558594</ele>
        <time>2023-07-30T06:47:41.000Z</time>
      </trkpt>
      <trkpt lat="43.7523" lon="7.07867">
        <ele>783.59997558594</ele>
        <time>2023-07-30T06:47:42.000Z</time>
      </trkpt>
      <trkpt lat="43.7523" lon="7.07867">
        <ele>783.59997558594</ele>
        <time>2023-07-30T06:47:43.000Z</time>
      </trkpt>
      <trkpt lat="43.7523" lon="7.07867">
        <ele>783.59997558594</ele>
        <time>2023-07-30T06:47:44.000Z</time>
      </trkpt>
      <trkpt lat="43.7523" lon="7.07867">
        <ele>783.59997558594</ele>
        <time>2023-07-30T06:47:45.000Z</time>
      </trkpt>
      <trkpt lat="43.7523" lon="7.07867">
        <ele>783.59997558594</ele>
        <time>2023-07-30T06:47:46.000Z</time>
      </trkpt>
      <trkpt lat="43.7523" lon="7.07867">
        <ele>783.59997558594</ele>
        <time>2023-07-30T06:47:47.000Z</time>
      </trkpt>
      <trkpt lat="43.7523" lon="7.07867">
        <ele>783.59997558594</ele>
        <time>2023-07-30T06:47:48.000Z</time>
      </trkpt>
      <trkpt lat="43.7523" lon="7.07867">
        <ele>783.59997558594</ele>
        <time>2023-07-30T06:47:49.000Z</time>
      </trkpt>
      <trkpt lat="43.7523" lon="7.07867">
        <ele>783.59997558594</ele>
        <time>2023-07-30T06:47:50.000Z</time>
      </trkpt>
      <trkpt lat="43.7523" lon="7.07867">
        <ele>783.59997558594</ele>
        <time>2023-07-30T06:47:51.000Z</time>
      </trkpt>
      <trkpt lat="43.7523" lon="7.07867">
        <ele>783.59997558594</ele>
        <time>2023-07-30T06:47:52.000Z</time>
      </trkpt>
      <trkpt lat="43.7523" lon="7.07867">
        <ele>783.59997558594</ele>
        <time>2023-07-30T06:47:53.000Z</time>
      </trkpt>
      <trkpt lat="43.7523" lon="7.07867">
        <ele>783.59997558594</ele>
        <time>2023-07-30T06:47:54.000Z</time>
      </trkpt>
      <trkpt lat="43.7523" lon="7.07867">
        <ele>783.59997558594</ele>
        <time>2023-07-30T06:47:55.000Z</time>
      </trkpt>
      <trkpt lat="43.7523" lon="7.07867">
        <ele>783.59997558594</ele>
        <time>2023-07-30T06:47:56.000Z</time>
      </trkpt>
      <trkpt lat="43.7523" lon="7.07867">
        <ele>783.59997558594</ele>
        <time>2023-07-30T06:47:57.000Z</time>
      </trkpt>
      <trkpt lat="43.7523" lon="7.07867">
        <ele>783.59997558594</ele>
        <time>2023-07-30T06:47:58.000Z</time>
      </trkpt>
      <trkpt lat="43.7523" lon="7.07867">
        <ele>783.59997558594</ele>
        <time>2023-07-30T06:47:59.000Z</time>
      </trkpt>
      <trkpt lat="43.7523" lon="7.07867">
        <ele>783.59997558594</ele>
        <time>2023-07-30T06:48:00.000Z</time>
      </trkpt>
      <trkpt lat="43.7523" lon="7.07867">
        <ele>783.59997558594</ele>
        <time>2023-07-30T06:48:01.000Z</time>
      </trkpt>
      <trkpt lat="43.7523" lon="7.07867">
        <ele>783.59997558594</ele>
        <time>2023-07-30T06:48:02.000Z</time>
      </trkpt>
      <trkpt lat="43.7523" lon="7.07867">
        <ele>783.59997558594</ele>
        <time>2023-07-30T06:48:03.000Z</time>
      </trkpt>
      <trkpt lat="43.7523" lon="7.07867">
        <ele>783.59997558594</ele>
        <time>2023-07-30T06:48:04.000Z</time>
      </trkpt>
      <trkpt lat="43.7523" lon="7.07867">
        <ele>783.59997558594</ele>
        <time>2023-07-30T06:48:05.000Z</time>
      </trkpt>
      <trkpt lat="43.7523" lon="7.07867">
        <ele>783.59997558594</ele>
        <time>2023-07-30T06:48:06.000Z</time>
      </trkpt>
      <trkpt lat="43.7523" lon="7.07867">
        <ele>783.59997558594</ele>
        <time>2023-07-30T06:48:07.000Z</time>
      </trkpt>
      <trkpt lat="43.7523" lon="7.07867">
        <ele>783.59997558594</ele>
        <time>2023-07-30T06:48:08.000Z</time>
      </trkpt>
      <trkpt lat="43.7523" lon="7.07867">
        <ele>783.59997558594</ele>
        <time>2023-07-30T06:48:09.000Z</time>
      </trkpt>
      <trkpt lat="43.7523" lon="7.07867">
        <ele>783.59997558594</ele>
        <time>2023-07-30T06:48:10.000Z</time>
      </trkpt>
      <trkpt lat="43.7523" lon="7.07867">
        <ele>783.59997558594</ele>
        <time>2023-07-30T06:48:11.000Z</time>
      </trkpt>
      <trkpt lat="43.7523" lon="7.07867">
        <ele>783.59997558594</ele>
        <time>2023-07-30T06:48:12.000Z</time>
      </trkpt>
      <trkpt lat="43.7523" lon="7.07867">
        <ele>783.59997558594</ele>
        <time>2023-07-30T06:48:13.000Z</time>
      </trkpt>
      <trkpt lat="43.7523" lon="7.07867">
        <ele>783.59997558594</ele>
        <time>2023-07-30T06:48:14.000Z</time>
      </trkpt>
      <trkpt lat="43.7523" lon="7.07867">
        <ele>783.59997558594</ele>
        <time>2023-07-30T06:48:15.000Z</time>
      </trkpt>
      <trkpt lat="43.7523" lon="7.07867">
        <ele>783.59997558594</ele>
        <time>2023-07-30T06:48:16.000Z</time>
      </trkpt>
      <trkpt lat="43.7523" lon="7.07867">
        <ele>783.59997558594</ele>
        <time>2023-07-30T06:48:17.000Z</time>
      </trkpt>
      <trkpt lat="43.7523" lon="7.07867">
        <ele>783.59997558594</ele>
        <time>2023-07-30T06:48:18.000Z</time>
      </trkpt>
      <trkpt lat="43.7523" lon="7.07867">
        <ele>783.59997558594</ele>
        <time>2023-07-30T06:48:19.000Z</time>
      </trkpt>
      <trkpt lat="43.7523" lon="7.07867">
        <ele>783.59997558594</ele>
        <time>2023-07-30T06:48:20.000Z</time>
      </trkpt>
      <trkpt lat="43.7523" lon="7.07867">
        <ele>783.59997558594</ele>
        <time>2023-07-30T06:48:21.000Z</time>
      </trkpt>
      <trkpt lat="43.7523" lon="7.07867">
        <ele>783.59997558594</ele>
        <time>2023-07-30T06:48:22.000Z</time>
      </trkpt>
      <trkpt lat="43.7523" lon="7.07867">
        <ele>783.59997558594</ele>
        <time>2023-07-30T06:48:23.000Z</time>
      </trkpt>
      <trkpt lat="43.7523" lon="7.07867">
        <ele>783.59997558594</ele>
        <time>2023-07-30T06:48:24.000Z</time>
      </trkpt>
      <trkpt lat="43.7523" lon="7.07867">
        <ele>783.59997558594</ele>
        <time>2023-07-30T06:48:25.000Z</time>
      </trkpt>
      <trkpt lat="43.7523" lon="7.07867">
        <ele>783.59997558594</ele>
        <time>2023-07-30T06:48:26.000Z</time>
      </trkpt>
      <trkpt lat="43.7523" lon="7.07867">
        <ele>783.59997558594</ele>
        <time>2023-07-30T06:48:27.000Z</time>
      </trkpt>
      <trkpt lat="43.7523" lon="7.07867">
        <ele>783.59997558594</ele>
        <time>2023-07-30T06:48:28.000Z</time>
      </trkpt>
      <trkpt lat="43.7523" lon="7.07867">
        <ele>783.59997558594</ele>
        <time>2023-07-30T06:48:29.000Z</time>
      </trkpt>
      <trkpt lat="43.7523" lon="7.07867">
        <ele>783.59997558594</ele>
        <time>2023-07-30T06:48:30.000Z</time>
      </trkpt>
      <trkpt lat="43.7523" lon="7.07867">
        <ele>783.59997558594</ele>
        <time>2023-07-30T06:48:31.000Z</time>
      </trkpt>
      <trkpt lat="43.7523" lon="7.07867">
        <ele>783.59997558594</ele>
        <time>2023-07-30T06:48:32.000Z</time>
      </trkpt>
      <trkpt lat="43.7523" lon="7.07867">
        <ele>783.59997558594</ele>
        <time>2023-07-30T06:48:33.000Z</time>
      </trkpt>
      <trkpt lat="43.7523" lon="7.07867">
        <ele>783.59997558594</ele>
        <time>2023-07-30T06:48:34.000Z</time>
      </trkpt>
      <trkpt lat="43.7523" lon="7.07867">
        <ele>783.59997558594</ele>
        <time>2023-07-30T06:48:35.000Z</time>
      </trkpt>
      <trkpt lat="43.7523" lon="7.07867">
        <ele>783.59997558594</ele>
        <time>2023-07-30T06:48:36.000Z</time>
      </trkpt>
      <trkpt lat="43.7523" lon="7.07867">
        <ele>783.59997558594</ele>
        <time>2023-07-30T06:48:37.000Z</time>
      </trkpt>
      <trkpt lat="43.7523" lon="7.07867">
        <ele>783.59997558594</ele>
        <time>2023-07-30T06:48:38.000Z</time>
      </trkpt>
      <trkpt lat="43.7523" lon="7.07867">
        <ele>783.59997558594</ele>
        <time>2023-07-30T06:48:39.000Z</time>
      </trkpt>
      <trkpt lat="43.7523" lon="7.07867">
        <ele>783.59997558594</ele>
        <time>2023-07-30T06:48:40.000Z</time>
      </trkpt>
      <trkpt lat="43.7523" lon="7.07867">
        <ele>783.59997558594</ele>
        <time>2023-07-30T06:48:41.000Z</time>
      </trkpt>
      <trkpt lat="43.7523" lon="7.07867">
        <ele>783.59997558594</ele>
        <time>2023-07-30T06:48:42.000Z</time>
      </trkpt>
      <trkpt lat="43.7523" lon="7.07867">
        <ele>783.59997558594</ele>
        <time>2023-07-30T06:48:43.000Z</time>
      </trkpt>
      <trkpt lat="43.7523" lon="7.07867">
        <ele>783.59997558594</ele>
        <time>2023-07-30T06:48:44.000Z</time>
      </trkpt>
      <trkpt lat="43.7523" lon="7.07867">
        <ele>783.59997558594</ele>
        <time>2023-07-30T06:48:45.000Z</time>
      </trkpt>
      <trkpt lat="43.7523" lon="7.07867">
        <ele>783.59997558594</ele>
        <time>2023-07-30T06:48:46.000Z</time>
      </trkpt>
      <trkpt lat="43.7523" lon="7.07867">
        <ele>783.59997558594</ele>
        <time>2023-07-30T06:48:47.000Z</time>
      </trkpt>
      <trkpt lat="43.7523" lon="7.07867">
        <ele>783.59997558594</ele>
        <time>2023-07-30T06:48:48.000Z</time>
      </trkpt>
      <trkpt lat="43.7523" lon="7.07867">
        <ele>783.59997558594</ele>
        <time>2023-07-30T06:48:49.000Z</time>
      </trkpt>
      <trkpt lat="43.7523" lon="7.07867">
        <ele>783.59997558594</ele>
        <time>2023-07-30T06:48:50.000Z</time>
      </trkpt>
      <trkpt lat="43.7523" lon="7.07867">
        <ele>783.59997558594</ele>
        <time>2023-07-30T06:48:51.000Z</time>
      </trkpt>
      <trkpt lat="43.7523" lon="7.07867">
        <ele>783.59997558594</ele>
        <time>2023-07-30T06:48:52.000Z</time>
      </trkpt>
      <trkpt lat="43.7523" lon="7.07867">
        <ele>783.59997558594</ele>
        <time>2023-07-30T06:48:53.000Z</time>
      </trkpt>
      <trkpt lat="43.7523" lon="7.07867">
        <ele>783.59997558594</ele>
        <time>2023-07-30T06:48:54.000Z</time>
      </trkpt>
      <trkpt lat="43.7523" lon="7.07867">
        <ele>783.59997558594</ele>
        <time>2023-07-30T06:48:55.000Z</time>
      </trkpt>
      <trkpt lat="43.7523" lon="7.07867">
        <ele>783.59997558594</ele>
        <time>2023-07-30T06:48:56.000Z</time>
      </trkpt>
      <trkpt lat="43.7523" lon="7.07867">
        <ele>783.59997558594</ele>
        <time>2023-07-30T06:48:57.000Z</time>
      </trkpt>
      <trkpt lat="43.7523" lon="7.07867">
        <ele>783.59997558594</ele>
        <time>2023-07-30T06:48:58.000Z</time>
      </trkpt>
      <trkpt lat="43.7523" lon="7.07867">
        <ele>783.59997558594</ele>
        <time>2023-07-30T06:48:59.000Z</time>
      </trkpt>
      <trkpt lat="43.7523" lon="7.07867">
        <ele>783.59997558594</ele>
        <time>2023-07-30T06:49:00.000Z</time>
      </trkpt>
      <trkpt lat="43.7523" lon="7.07867">
        <ele>783.59997558594</ele>
        <time>2023-07-30T06:49:01.000Z</time>
      </trkpt>
      <trkpt lat="43.7523" lon="7.07867">
        <ele>783.59997558594</ele>
        <time>2023-07-30T06:49:02.000Z</time>
      </trkpt>
      <trkpt lat="43.7523" lon="7.07867">
        <ele>783.59997558594</ele>
        <time>2023-07-30T06:49:03.000Z</time>
      </trkpt>
      <trkpt lat="43.7523" lon="7.07867">
        <ele>783.59997558594</ele>
        <time>2023-07-30T06:49:04.000Z</time>
      </trkpt>
      <trkpt lat="43.7523" lon="7.07867">
        <ele>783.59997558594</ele>
        <time>2023-07-30T06:49:05.000Z</time>
      </trkpt>
      <trkpt lat="43.75229" lon="7.07867">
        <ele>783.59997558594</ele>
        <time>2023-07-30T06:49:06.000Z</time>
      </trkpt>
      <trkpt lat="43.75229" lon="7.07867">
        <ele>783.59997558594</ele>
        <time>2023-07-30T06:49:07.000Z</time>
      </trkpt>
      <trkpt lat="43.75229" lon="7.07867">
        <ele>783.59997558594</ele>
        <time>2023-07-30T06:49:08.000Z</time>
      </trkpt>
      <trkpt lat="43.75228" lon="7.07867">
        <ele>783.59997558594</ele>
        <time>2023-07-30T06:49:09.000Z</time>
      </trkpt>
      <trkpt lat="43.75229" lon="7.07867">
        <ele>783.59997558594</ele>
        <time>2023-07-30T06:49:10.000Z</time>
      </trkpt>
      <trkpt lat="43.75229" lon="7.07867">
        <ele>783.59997558594</ele>
        <time>2023-07-30T06:49:11.000Z</time>
      </trkpt>
      <trkpt lat="43.75229" lon="7.07867">
        <ele>783.59997558594</ele>
        <time>2023-07-30T06:49:12.000Z</time>
      </trkpt>
      <trkpt lat="43.75227" lon="7.07867">
        <ele>783.59997558594</ele>
        <time>2023-07-30T06:49:13.000Z</time>
      </trkpt>
      <trkpt lat="43.75226" lon="7.07868">
        <ele>783.59997558594</ele>
        <time>2023-07-30T06:49:14.000Z</time>
      </trkpt>
      <trkpt lat="43.75226" lon="7.07869">
        <ele>783.59997558594</ele>
        <time>2023-07-30T06:49:15.000Z</time>
      </trkpt>
      <trkpt lat="43.75226" lon="7.07871">
        <ele>783.59997558594</ele>
        <time>2023-07-30T06:49:16.000Z</time>
      </trkpt>
      <trkpt lat="43.75225" lon="7.07873">
        <ele>783.59997558594</ele>
        <time>2023-07-30T06:49:17.000Z</time>
      </trkpt>
      <trkpt lat="43.75224" lon="7.07875">
        <ele>783.59997558594</ele>
        <time>2023-07-30T06:49:18.000Z</time>
      </trkpt>
      <trkpt lat="43.75223" lon="7.07876">
        <ele>783.59997558594</ele>
        <time>2023-07-30T06:49:19.000Z</time>
      </trkpt>
      <trkpt lat="43.75223" lon="7.07878">
        <ele>783.59997558594</ele>
        <time>2023-07-30T06:49:20.000Z</time>
      </trkpt>
      <trkpt lat="43.75222" lon="7.0788">
        <ele>783.59997558594</ele>
        <time>2023-07-30T06:49:21.000Z</time>
      </trkpt>
      <trkpt lat="43.7522" lon="7.07883">
        <ele>783.59997558594</ele>
        <time>2023-07-30T06:49:22.000Z</time>
      </trkpt>
      <trkpt lat="43.75219" lon="7.07885">
        <ele>783.59997558594</ele>
        <time>2023-07-30T06:49:23.000Z</time>
      </trkpt>
      <trkpt lat="43.75219" lon="7.07888">
        <ele>783.59997558594</ele>
        <time>2023-07-30T06:49:24.000Z</time>
      </trkpt>
      <trkpt lat="43.75218" lon="7.0789">
        <ele>783.59997558594</ele>
        <time>2023-07-30T06:49:25.000Z</time>
      </trkpt>
      <trkpt lat="43.75217" lon="7.07892">
        <ele>783.59997558594</ele>
        <time>2023-07-30T06:49:26.000Z</time>
      </trkpt>
      <trkpt lat="43.75217" lon="7.07894">
        <ele>783.59997558594</ele>
        <time>2023-07-30T06:49:27.000Z</time>
      </trkpt>
      <trkpt lat="43.75215" lon="7.07897">
        <ele>783.59997558594</ele>
        <time>2023-07-30T06:49:28.000Z</time>
      </trkpt>
      <trkpt lat="43.75214" lon="7.07899">
        <ele>783.59997558594</ele>
        <time>2023-07-30T06:49:29.000Z</time>
      </trkpt>
      <trkpt lat="43.75213" lon="7.07901">
        <ele>785.59997558594</ele>
        <time>2023-07-30T06:49:30.000Z</time>
      </trkpt>
      <trkpt lat="43.75212" lon="7.07903">
        <ele>785.79998779297</ele>
        <time>2023-07-30T06:49:31.000Z</time>
      </trkpt>
      <trkpt lat="43.75212" lon="7.07904">
        <ele>785.79998779297</ele>
        <time>2023-07-30T06:49:32.000Z</time>
      </trkpt>
      <trkpt lat="43.75212" lon="7.07904">
        <ele>786</ele>
        <time>2023-07-30T06:49:33.000Z</time>
      </trkpt>
      <trkpt lat="43.75212" lon="7.07904">
        <ele>786.20001220703</ele>
        <time>2023-07-30T06:49:34.000Z</time>
      </trkpt>
      <trkpt lat="43.75212" lon="7.07904">
        <ele>786.40002441406</ele>
        <time>2023-07-30T06:49:35.000Z</time>
      </trkpt>
      <trkpt lat="43.75212" lon="7.07904">
        <ele>786.40002441406</ele>
        <time>2023-07-30T06:49:36.000Z</time>
      </trkpt>
      <trkpt lat="43.75212" lon="7.07904">
        <ele>786.40002441406</ele>
        <time>2023-07-30T06:49:37.000Z</time>
      </trkpt>
      <trkpt lat="43.75212" lon="7.07904">
        <ele>786.40002441406</ele>
        <time>2023-07-30T06:49:38.000Z</time>
      </trkpt>
      <trkpt lat="43.75212" lon="7.07904">
        <ele>786.40002441406</ele>
        <time>2023-07-30T06:49:39.000Z</time>
      </trkpt>
      <trkpt lat="43.75212" lon="7.07904">
        <ele>786.40002441406</ele>
        <time>2023-07-30T06:49:40.000Z</time>
      </trkpt>
      <trkpt lat="43.75212" lon="7.07904">
        <ele>786.40002441406</ele>
        <time>2023-07-30T06:49:41.000Z</time>
      </trkpt>
      <trkpt lat="43.75212" lon="7.07904">
        <ele>786.40002441406</ele>
        <time>2023-07-30T06:49:42.000Z</time>
      </trkpt>
      <trkpt lat="43.75212" lon="7.07904">
        <ele>786.40002441406</ele>
        <time>2023-07-30T06:49:43.000Z</time>
      </trkpt>
      <trkpt lat="43.75211" lon="7.07905">
        <ele>786.40002441406</ele>
        <time>2023-07-30T06:49:44.000Z</time>
      </trkpt>
      <trkpt lat="43.7521" lon="7.07907">
        <ele>786.40002441406</ele>
        <time>2023-07-30T06:49:45.000Z</time>
      </trkpt>
      <trkpt lat="43.75209" lon="7.07909">
        <ele>786.40002441406</ele>
        <time>2023-07-30T06:49:46.000Z</time>
      </trkpt>
      <trkpt lat="43.75208" lon="7.07912">
        <ele>786.40002441406</ele>
        <time>2023-07-30T06:49:47.000Z</time>
      </trkpt>
      <trkpt lat="43.75207" lon="7.07915">
        <ele>786.40002441406</ele>
        <time>2023-07-30T06:49:48.000Z</time>
      </trkpt>
      <trkpt lat="43.75206" lon="7.07918">
        <ele>786.59997558594</ele>
        <time>2023-07-30T06:49:49.000Z</time>
      </trkpt>
      <trkpt lat="43.75205" lon="7.0792">
        <ele>786.59997558594</ele>
        <time>2023-07-30T06:49:50.000Z</time>
      </trkpt>
      <trkpt lat="43.75203" lon="7.07922">
        <ele>786.79998779297</ele>
        <time>2023-07-30T06:49:51.000Z</time>
      </trkpt>
      <trkpt lat="43.75201" lon="7.07924">
        <ele>787</ele>
        <time>2023-07-30T06:49:52.000Z</time>
      </trkpt>
      <trkpt lat="43.75199" lon="7.07925">
        <ele>787.20001220703</ele>
        <time>2023-07-30T06:49:53.000Z</time>
      </trkpt>
      <trkpt lat="43.75197" lon="7.07927">
        <ele>787.40002441406</ele>
        <time>2023-07-30T06:49:54.000Z</time>
      </trkpt>
      <trkpt lat="43.75195" lon="7.07929">
        <ele>787.59997558594</ele>
        <time>2023-07-30T06:49:55.000Z</time>
      </trkpt>
      <trkpt lat="43.75193" lon="7.07931">
        <ele>787.79998779297</ele>
        <time>2023-07-30T06:49:56.000Z</time>
      </trkpt>
      <trkpt lat="43.75191" lon="7.07933">
        <ele>788.20001220703</ele>
        <time>2023-07-30T06:49:57.000Z</time>
      </trkpt>
      <trkpt lat="43.75189" lon="7.07936">
        <ele>788.20001220703</ele>
        <time>2023-07-30T06:49:58.000Z</time>
      </trkpt>
      <trkpt lat="43.75188" lon="7.07938">
        <ele>788.79998779297</ele>
        <time>2023-07-30T06:49:59.000Z</time>
      </trkpt>
      <trkpt lat="43.75187" lon="7.07941">
        <ele>788.79998779297</ele>
        <time>2023-07-30T06:50:00.000Z</time>
      </trkpt>
      <trkpt lat="43.75185" lon="7.07943">
        <ele>788.79998779297</ele>
        <time>2023-07-30T06:50:01.000Z</time>
      </trkpt>
      <trkpt lat="43.75185" lon="7.07946">
        <ele>788.79998779297</ele>
        <time>2023-07-30T06:50:02.000Z</time>
      </trkpt>
      <trkpt lat="43.75185" lon="7.07949">
        <ele>789</ele>
        <time>2023-07-30T06:50:03.000Z</time>
      </trkpt>
      <trkpt lat="43.75185" lon="7.07951">
        <ele>789.59997558594</ele>
        <time>2023-07-30T06:50:04.000Z</time>
      </trkpt>
      <trkpt lat="43.75185" lon="7.07953">
        <ele>789.59997558594</ele>
        <time>2023-07-30T06:50:05.000Z</time>
      </trkpt>
      <trkpt lat="43.75187" lon="7.07955">
        <ele>790</ele>
        <time>2023-07-30T06:50:06.000Z</time>
      </trkpt>
      <trkpt lat="43.75189" lon="7.07954">
        <ele>790.20001220703</ele>
        <time>2023-07-30T06:50:07.000Z</time>
      </trkpt>
      <trkpt lat="43.7519" lon="7.07954">
        <ele>790.59997558594</ele>
        <time>2023-07-30T06:50:08.000Z</time>
      </trkpt>
      <trkpt lat="43.75193" lon="7.07954">
        <ele>791</ele>
        <time>2023-07-30T06:50:09.000Z</time>
      </trkpt>
      <trkpt lat="43.75194" lon="7.07954">
        <ele>791.20001220703</ele>
        <time>2023-07-30T06:50:10.000Z</time>
      </trkpt>
      <trkpt lat="43.75196" lon="7.07953">
        <ele>791.20001220703</ele>
        <time>2023-07-30T06:50:11.000Z</time>
      </trkpt>
      <trkpt lat="43.75197" lon="7.07952">
        <ele>791.79998779297</ele>
        <time>2023-07-30T06:50:12.000Z</time>
      </trkpt>
      <trkpt lat="43.75199" lon="7.07952">
        <ele>791.79998779297</ele>
        <time>2023-07-30T06:50:13.000Z</time>
      </trkpt>
      <trkpt lat="43.75201" lon="7.07952">
        <ele>792.20001220703</ele>
        <time>2023-07-30T06:50:14.000Z</time>
      </trkpt>
      <trkpt lat="43.75203" lon="7.07951">
        <ele>792.79998779297</ele>
        <time>2023-07-30T06:50:15.000Z</time>
      </trkpt>
      <trkpt lat="43.75205" lon="7.07951">
        <ele>793.20001220703</ele>
        <time>2023-07-30T06:50:16.000Z</time>
      </trkpt>
      <trkpt lat="43.75206" lon="7.07951">
        <ele>793.20001220703</ele>
        <time>2023-07-30T06:50:17.000Z</time>
      </trkpt>
      <trkpt lat="43.75208" lon="7.07952">
        <ele>793.79998779297</ele>
        <time>2023-07-30T06:50:18.000Z</time>
      </trkpt>
      <trkpt lat="43.7521" lon="7.07952">
        <ele>794.20001220703</ele>
        <time>2023-07-30T06:50:19.000Z</time>
      </trkpt>
      <trkpt lat="43.75211" lon="7.07952">
        <ele>794.59997558594</ele>
        <time>2023-07-30T06:50:20.000Z</time>
      </trkpt>
      <trkpt lat="43.75213" lon="7.07952">
        <ele>795</ele>
        <time>2023-07-30T06:50:21.000Z</time>
      </trkpt>
      <trkpt lat="43.75215" lon="7.07953">
        <ele>795.20001220703</ele>
        <time>2023-07-30T06:50:22.000Z</time>
      </trkpt>
      <trkpt lat="43.75217" lon="7.07953">
        <ele>795.59997558594</ele>
        <time>2023-07-30T06:50:23.000Z</time>
      </trkpt>
      <trkpt lat="43.75219" lon="7.07953">
        <ele>795.79998779297</ele>
        <time>2023-07-30T06:50:24.000Z</time>
      </trkpt>
      <trkpt lat="43.75221" lon="7.07954">
        <ele>796.20001220703</ele>
        <time>2023-07-30T06:50:25.000Z</time>
      </trkpt>
      <trkpt lat="43.75223" lon="7.07955">
        <ele>796.59997558594</ele>
        <time>2023-07-30T06:50:26.000Z</time>
      </trkpt>
      <trkpt lat="43.75225" lon="7.07957">
        <ele>796.79998779297</ele>
        <time>2023-07-30T06:50:27.000Z</time>
      </trkpt>
      <trkpt lat="43.75226" lon="7.07959">
        <ele>797.20001220703</ele>
        <time>2023-07-30T06:50:28.000Z</time>
      </trkpt>
      <trkpt lat="43.75228" lon="7.07961">
        <ele>797.59997558594</ele>
        <time>2023-07-30T06:50:29.000Z</time>
      </trkpt>
      <trkpt lat="43.75229" lon="7.07962">
        <ele>798</ele>
        <time>2023-07-30T06:50:30.000Z</time>
      </trkpt>
      <trkpt lat="43.75231" lon="7.07963">
        <ele>798.40002441406</ele>
        <time>2023-07-30T06:50:31.000Z</time>
      </trkpt>
      <trkpt lat="43.75233" lon="7.07964">
        <ele>798.79998779297</ele>
        <time>2023-07-30T06:50:32.000Z</time>
      </trkpt>
      <trkpt lat="43.75234" lon="7.07965">
        <ele>799</ele>
        <time>2023-07-30T06:50:33.000Z</time>
      </trkpt>
      <trkpt lat="43.75236" lon="7.07967">
        <ele>799.40002441406</ele>
        <time>2023-07-30T06:50:34.000Z</time>
      </trkpt>
      <trkpt lat="43.75237" lon="7.07968">
        <ele>800</ele>
        <time>2023-07-30T06:50:35.000Z</time>
      </trkpt>
      <trkpt lat="43.75239" lon="7.0797">
        <ele>800.20001220703</ele>
        <time>2023-07-30T06:50:36.000Z</time>
      </trkpt>
      <trkpt lat="43.7524" lon="7.07971">
        <ele>800.20001220703</ele>
        <time>2023-07-30T06:50:37.000Z</time>
      </trkpt>
      <trkpt lat="43.75241" lon="7.07973">
        <ele>800.79998779297</ele>
        <time>2023-07-30T06:50:38.000Z</time>
      </trkpt>
      <trkpt lat="43.75242" lon="7.07975">
        <ele>801</ele>
        <time>2023-07-30T06:50:39.000Z</time>
      </trkpt>
      <trkpt lat="43.75244" lon="7.07977">
        <ele>801.59997558594</ele>
        <time>2023-07-30T06:50:40.000Z</time>
      </trkpt>
      <trkpt lat="43.75245" lon="7.07979">
        <ele>801.79998779297</ele>
        <time>2023-07-30T06:50:41.000Z</time>
      </trkpt>
      <trkpt lat="43.75247" lon="7.0798">
        <ele>802.20001220703</ele>
        <time>2023-07-30T06:50:42.000Z</time>
      </trkpt>
      <trkpt lat="43.75248" lon="7.07982">
        <ele>802.20001220703</ele>
        <time>2023-07-30T06:50:43.000Z</time>
      </trkpt>
      <trkpt lat="43.7525" lon="7.07984">
        <ele>802.59997558594</ele>
        <time>2023-07-30T06:50:44.000Z</time>
      </trkpt>
      <trkpt lat="43.75251" lon="7.07985">
        <ele>803</ele>
        <time>2023-07-30T06:50:45.000Z</time>
      </trkpt>
      <trkpt lat="43.75252" lon="7.07987">
        <ele>803.20001220703</ele>
        <time>2023-07-30T06:50:46.000Z</time>
      </trkpt>
      <trkpt lat="43.75254" lon="7.07989">
        <ele>803.59997558594</ele>
        <time>2023-07-30T06:50:47.000Z</time>
      </trkpt>
      <trkpt lat="43.75256" lon="7.07989">
        <ele>803.79998779297</ele>
        <time>2023-07-30T06:50:48.000Z</time>
      </trkpt>
      <trkpt lat="43.75257" lon="7.0799">
        <ele>804</ele>
        <time>2023-07-30T06:50:49.000Z</time>
      </trkpt>
      <trkpt lat="43.75259" lon="7.07991">
        <ele>804.20001220703</ele>
        <time>2023-07-30T06:50:50.000Z</time>
      </trkpt>
      <trkpt lat="43.75261" lon="7.07992">
        <ele>804.20001220703</ele>
        <time>2023-07-30T06:50:51.000Z</time>
      </trkpt>
      <trkpt lat="43.75263" lon="7.07993">
        <ele>804.59997558594</ele>
        <time>2023-07-30T06:50:52.000Z</time>
      </trkpt>
      <trkpt lat="43.75265" lon="7.07994">
        <ele>804.79998779297</ele>
        <time>2023-07-30T06:50:53.000Z</time>
      </trkpt>
      <trkpt lat="43.75266" lon="7.07996">
        <ele>804.79998779297</ele>
        <time>2023-07-30T06:50:54.000Z</time>
      </trkpt>
      <trkpt lat="43.75267" lon="7.07997">
        <ele>805</ele>
        <time>2023-07-30T06:50:55.000Z</time>
      </trkpt>
      <trkpt lat="43.75269" lon="7.07999">
        <ele>805</ele>
        <time>2023-07-30T06:50:56.000Z</time>
      </trkpt>
      <trkpt lat="43.75271" lon="7.08002">
        <ele>805.40002441406</ele>
        <time>2023-07-30T06:50:57.000Z</time>
      </trkpt>
      <trkpt lat="43.75272" lon="7.08004">
        <ele>805.40002441406</ele>
        <time>2023-07-30T06:50:58.000Z</time>
      </trkpt>
      <trkpt lat="43.75273" lon="7.08007">
        <ele>805.59997558594</ele>
        <time>2023-07-30T06:50:59.000Z</time>
      </trkpt>
      <trkpt lat="43.75274" lon="7.08009">
        <ele>806.20001220703</ele>
        <time>2023-07-30T06:51:00.000Z</time>
      </trkpt>
      <trkpt lat="43.75275" lon="7.08011">
        <ele>806.20001220703</ele>
        <time>2023-07-30T06:51:01.000Z</time>
      </trkpt>
      <trkpt lat="43.75275" lon="7.08015">
        <ele>806.59997558594</ele>
        <time>2023-07-30T06:51:02.000Z</time>
      </trkpt>
      <trkpt lat="43.75276" lon="7.08018">
        <ele>807</ele>
        <time>2023-07-30T06:51:03.000Z</time>
      </trkpt>
      <trkpt lat="43.75276" lon="7.08021">
        <ele>807.20001220703</ele>
        <time>2023-07-30T06:51:04.000Z</time>
      </trkpt>
      <trkpt lat="43.75275" lon="7.08023">
        <ele>807.40002441406</ele>
        <time>2023-07-30T06:51:05.000Z</time>
      </trkpt>
      <trkpt lat="43.75275" lon="7.08026">
        <ele>808</ele>
        <time>2023-07-30T06:51:06.000Z</time>
      </trkpt>
      <trkpt lat="43.75275" lon="7.08029">
        <ele>808.40002441406</ele>
        <time>2023-07-30T06:51:07.000Z</time>
      </trkpt>
      <trkpt lat="43.75274" lon="7.08032">
        <ele>808.59997558594</ele>
        <time>2023-07-30T06:51:08.000Z</time>
      </trkpt>
      <trkpt lat="43.75274" lon="7.08035">
        <ele>809</ele>
        <time>2023-07-30T06:51:09.000Z</time>
      </trkpt>
      <trkpt lat="43.75274" lon="7.08038">
        <ele>809.20001220703</ele>
        <time>2023-07-30T06:51:10.000Z</time>
      </trkpt>
      <trkpt lat="43.75273" lon="7.0804">
        <ele>809.59997558594</ele>
        <time>2023-07-30T06:51:11.000Z</time>
      </trkpt>
      <trkpt lat="43.75273" lon="7.08043">
        <ele>809.79998779297</ele>
        <time>2023-07-30T06:51:12.000Z</time>
      </trkpt>
      <trkpt lat="43.75272" lon="7.08046">
        <ele>810.20001220703</ele>
        <time>2023-07-30T06:51:13.000Z</time>
      </trkpt>
      <trkpt lat="43.75272" lon="7.08049">
        <ele>810.40002441406</ele>
        <time>2023-07-30T06:51:14.000Z</time>
      </trkpt>
      <trkpt lat="43.75272" lon="7.08051">
        <ele>810.59997558594</ele>
        <time>2023-07-30T06:51:15.000Z</time>
      </trkpt>
      <trkpt lat="43.75271" lon="7.08054">
        <ele>810.79998779297</ele>
        <time>2023-07-30T06:51:16.000Z</time>
      </trkpt>
      <trkpt lat="43.75271" lon="7.08056">
        <ele>811</ele>
        <time>2023-07-30T06:51:17.000Z</time>
      </trkpt>
      <trkpt lat="43.75271" lon="7.08059">
        <ele>811</ele>
        <time>2023-07-30T06:51:18.000Z</time>
      </trkpt>
      <trkpt lat="43.75271" lon="7.0806">
        <ele>811</ele>
        <time>2023-07-30T06:51:19.000Z</time>
      </trkpt>
      <trkpt lat="43.75271" lon="7.08062">
        <ele>811.20001220703</ele>
        <time>2023-07-30T06:51:20.000Z</time>
      </trkpt>
      <trkpt lat="43.75272" lon="7.08064">
        <ele>811.59997558594</ele>
        <time>2023-07-30T06:51:21.000Z</time>
      </trkpt>
      <trkpt lat="43.75272" lon="7.08065">
        <ele>811.59997558594</ele>
        <time>2023-07-30T06:51:22.000Z</time>
      </trkpt>
      <trkpt lat="43.75272" lon="7.08065">
        <ele>811.59997558594</ele>
        <time>2023-07-30T06:51:23.000Z</time>
      </trkpt>
      <trkpt lat="43.75272" lon="7.08065">
        <ele>811.59997558594</ele>
        <time>2023-07-30T06:51:24.000Z</time>
      </trkpt>
      <trkpt lat="43.75272" lon="7.08065">
        <ele>811.59997558594</ele>
        <time>2023-07-30T06:51:25.000Z</time>
      </trkpt>
      <trkpt lat="43.75272" lon="7.08065">
        <ele>811.59997558594</ele>
        <time>2023-07-30T06:51:26.000Z</time>
      </trkpt>
      <trkpt lat="43.75272" lon="7.08065">
        <ele>811.59997558594</ele>
        <time>2023-07-30T06:51:27.000Z</time>
      </trkpt>
      <trkpt lat="43.75272" lon="7.08065">
        <ele>811.59997558594</ele>
        <time>2023-07-30T06:51:28.000Z</time>
      </trkpt>
      <trkpt lat="43.75272" lon="7.08065">
        <ele>811.59997558594</ele>
        <time>2023-07-30T06:51:29.000Z</time>
      </trkpt>
      <trkpt lat="43.75272" lon="7.08065">
        <ele>811.40002441406</ele>
        <time>2023-07-30T06:51:30.000Z</time>
      </trkpt>
      <trkpt lat="43.75272" lon="7.08065">
        <ele>811.20001220703</ele>
        <time>2023-07-30T06:51:31.000Z</time>
      </trkpt>
      <trkpt lat="43.75272" lon="7.08065">
        <ele>811.20001220703</ele>
        <time>2023-07-30T06:51:32.000Z</time>
      </trkpt>
      <trkpt lat="43.75272" lon="7.08065">
        <ele>811.20001220703</ele>
        <time>2023-07-30T06:51:33.000Z</time>
      </trkpt>
      <trkpt lat="43.75272" lon="7.08065">
        <ele>811.20001220703</ele>
        <time>2023-07-30T06:51:34.000Z</time>
      </trkpt>
      <trkpt lat="43.75272" lon="7.08065">
        <ele>812.40002441406</ele>
        <time>2023-07-30T06:51:35.000Z</time>
      </trkpt>
      <trkpt lat="43.75272" lon="7.08065">
        <ele>812.40002441406</ele>
        <time>2023-07-30T06:51:36.000Z</time>
      </trkpt>
      <trkpt lat="43.75272" lon="7.08065">
        <ele>812.40002441406</ele>
        <time>2023-07-30T06:51:37.000Z</time>
      </trkpt>
      <trkpt lat="43.75273" lon="7.08065">
        <ele>812.40002441406</ele>
        <time>2023-07-30T06:51:38.000Z</time>
      </trkpt>
      <trkpt lat="43.75273" lon="7.08065">
        <ele>812.20001220703</ele>
        <time>2023-07-30T06:51:39.000Z</time>
      </trkpt>
      <trkpt lat="43.75273" lon="7.08065">
        <ele>812.20001220703</ele>
        <time>2023-07-30T06:51:40.000Z</time>
      </trkpt>
      <trkpt lat="43.75273" lon="7.08065">
        <ele>812.20001220703</ele>
        <time>2023-07-30T06:51:41.000Z</time>
      </trkpt>
      <trkpt lat="43.75273" lon="7.08065">
        <ele>812</ele>
        <time>2023-07-30T06:51:42.000Z</time>
      </trkpt>
      <trkpt lat="43.75273" lon="7.08065">
        <ele>811.79998779297</ele>
        <time>2023-07-30T06:51:43.000Z</time>
      </trkpt>
      <trkpt lat="43.75273" lon="7.08065">
        <ele>811.59997558594</ele>
        <time>2023-07-30T06:51:44.000Z</time>
      </trkpt>
      <trkpt lat="43.75273" lon="7.08065">
        <ele>811.40002441406</ele>
        <time>2023-07-30T06:51:45.000Z</time>
      </trkpt>
      <trkpt lat="43.75273" lon="7.08065">
        <ele>811.40002441406</ele>
        <time>2023-07-30T06:51:46.000Z</time>
      </trkpt>
      <trkpt lat="43.75273" lon="7.08065">
        <ele>811.40002441406</ele>
        <time>2023-07-30T06:51:47.000Z</time>
      </trkpt>
      <trkpt lat="43.75273" lon="7.08065">
        <ele>811.40002441406</ele>
        <time>2023-07-30T06:51:48.000Z</time>
      </trkpt>
      <trkpt lat="43.75273" lon="7.08065">
        <ele>811.40002441406</ele>
        <time>2023-07-30T06:51:49.000Z</time>
      </trkpt>
      <trkpt lat="43.75273" lon="7.08065">
        <ele>811.40002441406</ele>
        <time>2023-07-30T06:51:50.000Z</time>
      </trkpt>
      <trkpt lat="43.75273" lon="7.08065">
        <ele>811.40002441406</ele>
        <time>2023-07-30T06:51:51.000Z</time>
      </trkpt>
      <trkpt lat="43.75273" lon="7.08065">
        <ele>811.40002441406</ele>
        <time>2023-07-30T06:51:52.000Z</time>
      </trkpt>
      <trkpt lat="43.75273" lon="7.08065">
        <ele>811.59997558594</ele>
        <time>2023-07-30T06:51:53.000Z</time>
      </trkpt>
      <trkpt lat="43.75273" lon="7.08065">
        <ele>811.59997558594</ele>
        <time>2023-07-30T06:51:54.000Z</time>
      </trkpt>
      <trkpt lat="43.75273" lon="7.08065">
        <ele>811.59997558594</ele>
        <time>2023-07-30T06:51:55.000Z</time>
      </trkpt>
      <trkpt lat="43.75273" lon="7.08065">
        <ele>811.59997558594</ele>
        <time>2023-07-30T06:51:56.000Z</time>
      </trkpt>
      <trkpt lat="43.75273" lon="7.08065">
        <ele>811.59997558594</ele>
        <time>2023-07-30T06:51:57.000Z</time>
      </trkpt>
      <trkpt lat="43.75273" lon="7.08065">
        <ele>811.59997558594</ele>
        <time>2023-07-30T06:51:58.000Z</time>
      </trkpt>
      <trkpt lat="43.75273" lon="7.08065">
        <ele>811.59997558594</ele>
        <time>2023-07-30T06:51:59.000Z</time>
      </trkpt>
      <trkpt lat="43.75273" lon="7.08065">
        <ele>811.59997558594</ele>
        <time>2023-07-30T06:52:00.000Z</time>
      </trkpt>
      <trkpt lat="43.75273" lon="7.08065">
        <ele>811.59997558594</ele>
        <time>2023-07-30T06:52:01.000Z</time>
      </trkpt>
      <trkpt lat="43.75273" lon="7.08065">
        <ele>811.59997558594</ele>
        <time>2023-07-30T06:52:02.000Z</time>
      </trkpt>
      <trkpt lat="43.75273" lon="7.08065">
        <ele>811.59997558594</ele>
        <time>2023-07-30T06:52:03.000Z</time>
      </trkpt>
      <trkpt lat="43.75273" lon="7.08065">
        <ele>811.59997558594</ele>
        <time>2023-07-30T06:52:04.000Z</time>
      </trkpt>
      <trkpt lat="43.75273" lon="7.08065">
        <ele>811.59997558594</ele>
        <time>2023-07-30T06:52:05.000Z</time>
      </trkpt>
      <trkpt lat="43.75273" lon="7.08065">
        <ele>811.79998779297</ele>
        <time>2023-07-30T06:52:06.000Z</time>
      </trkpt>
      <trkpt lat="43.75273" lon="7.08065">
        <ele>811.79998779297</ele>
        <time>2023-07-30T06:52:07.000Z</time>
      </trkpt>
      <trkpt lat="43.75273" lon="7.08065">
        <ele>811.79998779297</ele>
        <time>2023-07-30T06:52:08.000Z</time>
      </trkpt>
      <trkpt lat="43.75273" lon="7.08065">
        <ele>811.79998779297</ele>
        <time>2023-07-30T06:52:09.000Z</time>
      </trkpt>
      <trkpt lat="43.75273" lon="7.08065">
        <ele>811.79998779297</ele>
        <time>2023-07-30T06:52:10.000Z</time>
      </trkpt>
      <trkpt lat="43.75273" lon="7.08065">
        <ele>811.79998779297</ele>
        <time>2023-07-30T06:52:11.000Z</time>
      </trkpt>
      <trkpt lat="43.75273" lon="7.08065">
        <ele>811.79998779297</ele>
        <time>2023-07-30T06:52:12.000Z</time>
      </trkpt>
      <trkpt lat="43.75273" lon="7.08065">
        <ele>811.79998779297</ele>
        <time>2023-07-30T06:52:13.000Z</time>
      </trkpt>
      <trkpt lat="43.75273" lon="7.08065">
        <ele>811.79998779297</ele>
        <time>2023-07-30T06:52:14.000Z</time>
      </trkpt>
      <trkpt lat="43.75273" lon="7.08065">
        <ele>811.79998779297</ele>
        <time>2023-07-30T06:52:15.000Z</time>
      </trkpt>
      <trkpt lat="43.75273" lon="7.08065">
        <ele>811.79998779297</ele>
        <time>2023-07-30T06:52:16.000Z</time>
      </trkpt>
      <trkpt lat="43.75273" lon="7.08065">
        <ele>811.79998779297</ele>
        <time>2023-07-30T06:52:17.000Z</time>
      </trkpt>
      <trkpt lat="43.75273" lon="7.08065">
        <ele>811.79998779297</ele>
        <time>2023-07-30T06:52:18.000Z</time>
      </trkpt>
      <trkpt lat="43.75273" lon="7.08065">
        <ele>811.79998779297</ele>
        <time>2023-07-30T06:52:19.000Z</time>
      </trkpt>
      <trkpt lat="43.75273" lon="7.08065">
        <ele>811.79998779297</ele>
        <time>2023-07-30T06:52:20.000Z</time>
      </trkpt>
      <trkpt lat="43.75273" lon="7.08065">
        <ele>811.79998779297</ele>
        <time>2023-07-30T06:52:21.000Z</time>
      </trkpt>
      <trkpt lat="43.75273" lon="7.08065">
        <ele>811.79998779297</ele>
        <time>2023-07-30T06:52:22.000Z</time>
      </trkpt>
      <trkpt lat="43.75273" lon="7.08065">
        <ele>811.79998779297</ele>
        <time>2023-07-30T06:52:23.000Z</time>
      </trkpt>
      <trkpt lat="43.75273" lon="7.08065">
        <ele>811.79998779297</ele>
        <time>2023-07-30T06:52:24.000Z</time>
      </trkpt>
      <trkpt lat="43.75273" lon="7.08065">
        <ele>812</ele>
        <time>2023-07-30T06:52:25.000Z</time>
      </trkpt>
      <trkpt lat="43.75273" lon="7.08065">
        <ele>812</ele>
        <time>2023-07-30T06:52:26.000Z</time>
      </trkpt>
      <trkpt lat="43.75273" lon="7.08065">
        <ele>812</ele>
        <time>2023-07-30T06:52:27.000Z</time>
      </trkpt>
      <trkpt lat="43.75273" lon="7.08065">
        <ele>812</ele>
        <time>2023-07-30T06:52:28.000Z</time>
      </trkpt>
      <trkpt lat="43.75273" lon="7.08065">
        <ele>812</ele>
        <time>2023-07-30T06:52:29.000Z</time>
      </trkpt>
      <trkpt lat="43.75273" lon="7.08065">
        <ele>812</ele>
        <time>2023-07-30T06:52:30.000Z</time>
      </trkpt>
      <trkpt lat="43.75273" lon="7.08065">
        <ele>812</ele>
        <time>2023-07-30T06:52:31.000Z</time>
      </trkpt>
      <trkpt lat="43.75273" lon="7.08065">
        <ele>812</ele>
        <time>2023-07-30T06:52:32.000Z</time>
      </trkpt>
      <trkpt lat="43.75273" lon="7.08065">
        <ele>812</ele>
        <time>2023-07-30T06:52:33.000Z</time>
      </trkpt>
      <trkpt lat="43.75273" lon="7.08065">
        <ele>812</ele>
        <time>2023-07-30T06:52:34.000Z</time>
      </trkpt>
      <trkpt lat="43.75273" lon="7.08065">
        <ele>812</ele>
        <time>2023-07-30T06:52:35.000Z</time>
      </trkpt>
      <trkpt lat="43.75273" lon="7.08065">
        <ele>812</ele>
        <time>2023-07-30T06:52:36.000Z</time>
      </trkpt>
      <trkpt lat="43.75273" lon="7.08065">
        <ele>812</ele>
        <time>2023-07-30T06:52:37.000Z</time>
      </trkpt>
      <trkpt lat="43.75273" lon="7.08065">
        <ele>812</ele>
        <time>2023-07-30T06:52:38.000Z</time>
      </trkpt>
      <trkpt lat="43.75273" lon="7.08065">
        <ele>812</ele>
        <time>2023-07-30T06:52:39.000Z</time>
      </trkpt>
      <trkpt lat="43.75273" lon="7.08065">
        <ele>812</ele>
        <time>2023-07-30T06:52:40.000Z</time>
      </trkpt>
      <trkpt lat="43.75273" lon="7.08065">
        <ele>812</ele>
        <time>2023-07-30T06:52:41.000Z</time>
      </trkpt>
      <trkpt lat="43.75273" lon="7.08065">
        <ele>812</ele>
        <time>2023-07-30T06:52:42.000Z</time>
      </trkpt>
      <trkpt lat="43.75273" lon="7.08065">
        <ele>812</ele>
        <time>2023-07-30T06:52:43.000Z</time>
      </trkpt>
      <trkpt lat="43.75273" lon="7.08065">
        <ele>812</ele>
        <time>2023-07-30T06:52:44.000Z</time>
      </trkpt>
      <trkpt lat="43.75273" lon="7.08065">
        <ele>812</ele>
        <time>2023-07-30T06:52:45.000Z</time>
      </trkpt>
      <trkpt lat="43.75273" lon="7.08065">
        <ele>812</ele>
        <time>2023-07-30T06:52:46.000Z</time>
      </trkpt>
      <trkpt lat="43.75273" lon="7.08065">
        <ele>812</ele>
        <time>2023-07-30T06:52:47.000Z</time>
      </trkpt>
      <trkpt lat="43.75273" lon="7.08065">
        <ele>812</ele>
        <time>2023-07-30T06:52:48.000Z</time>
      </trkpt>
      <trkpt lat="43.75273" lon="7.08065">
        <ele>812</ele>
        <time>2023-07-30T06:52:49.000Z</time>
      </trkpt>
      <trkpt lat="43.75273" lon="7.08065">
        <ele>812</ele>
        <time>2023-07-30T06:52:50.000Z</time>
      </trkpt>
      <trkpt lat="43.75273" lon="7.08065">
        <ele>812</ele>
        <time>2023-07-30T06:52:51.000Z</time>
      </trkpt>
      <trkpt lat="43.75273" lon="7.08065">
        <ele>812</ele>
        <time>2023-07-30T06:52:52.000Z</time>
      </trkpt>
      <trkpt lat="43.75273" lon="7.08065">
        <ele>812</ele>
        <time>2023-07-30T06:52:53.000Z</time>
      </trkpt>
      <trkpt lat="43.75273" lon="7.08065">
        <ele>812</ele>
        <time>2023-07-30T06:52:54.000Z</time>
      </trkpt>
      <trkpt lat="43.75273" lon="7.08065">
        <ele>812</ele>
        <time>2023-07-30T06:52:55.000Z</time>
      </trkpt>
      <trkpt lat="43.75273" lon="7.08065">
        <ele>812</ele>
        <time>2023-07-30T06:52:56.000Z</time>
      </trkpt>
      <trkpt lat="43.75273" lon="7.08065">
        <ele>812</ele>
        <time>2023-07-30T06:52:57.000Z</time>
      </trkpt>
      <trkpt lat="43.75273" lon="7.08065">
        <ele>812</ele>
        <time>2023-07-30T06:52:58.000Z</time>
      </trkpt>
      <trkpt lat="43.75273" lon="7.08065">
        <ele>812</ele>
        <time>2023-07-30T06:52:59.000Z</time>
      </trkpt>
      <trkpt lat="43.75273" lon="7.08065">
        <ele>812</ele>
        <time>2023-07-30T06:53:00.000Z</time>
      </trkpt>
      <trkpt lat="43.75273" lon="7.08065">
        <ele>812</ele>
        <time>2023-07-30T06:53:01.000Z</time>
      </trkpt>
      <trkpt lat="43.75273" lon="7.08065">
        <ele>812</ele>
        <time>2023-07-30T06:53:02.000Z</time>
      </trkpt>
      <trkpt lat="43.75273" lon="7.08065">
        <ele>812</ele>
        <time>2023-07-30T06:53:03.000Z</time>
      </trkpt>
      <trkpt lat="43.75273" lon="7.08065">
        <ele>812</ele>
        <time>2023-07-30T06:53:04.000Z</time>
      </trkpt>
      <trkpt lat="43.75273" lon="7.08065">
        <ele>812</ele>
        <time>2023-07-30T06:53:05.000Z</time>
      </trkpt>
      <trkpt lat="43.75273" lon="7.08065">
        <ele>812</ele>
        <time>2023-07-30T06:53:06.000Z</time>
      </trkpt>
      <trkpt lat="43.75273" lon="7.08065">
        <ele>812</ele>
        <time>2023-07-30T06:53:07.000Z</time>
      </trkpt>
      <trkpt lat="43.75273" lon="7.08065">
        <ele>812</ele>
        <time>2023-07-30T06:53:08.000Z</time>
      </trkpt>
      <trkpt lat="43.75273" lon="7.08065">
        <ele>812</ele>
        <time>2023-07-30T06:53:09.000Z</time>
      </trkpt>
      <trkpt lat="43.75273" lon="7.08065">
        <ele>812</ele>
        <time>2023-07-30T06:53:10.000Z</time>
      </trkpt>
      <trkpt lat="43.75273" lon="7.08065">
        <ele>812</ele>
        <time>2023-07-30T06:53:11.000Z</time>
      </trkpt>
      <trkpt lat="43.75273" lon="7.08065">
        <ele>812</ele>
        <time>2023-07-30T06:53:12.000Z</time>
      </trkpt>
      <trkpt lat="43.75273" lon="7.08065">
        <ele>812</ele>
        <time>2023-07-30T06:53:13.000Z</time>
      </trkpt>
      <trkpt lat="43.75273" lon="7.08065">
        <ele>812</ele>
        <time>2023-07-30T06:53:14.000Z</time>
      </trkpt>
      <trkpt lat="43.75273" lon="7.08065">
        <ele>812</ele>
        <time>2023-07-30T06:53:15.000Z</time>
      </trkpt>
      <trkpt lat="43.75273" lon="7.08065">
        <ele>812</ele>
        <time>2023-07-30T06:53:16.000Z</time>
      </trkpt>
      <trkpt lat="43.75273" lon="7.08065">
        <ele>812</ele>
        <time>2023-07-30T06:53:17.000Z</time>
      </trkpt>
      <trkpt lat="43.75273" lon="7.08065">
        <ele>812</ele>
        <time>2023-07-30T06:53:18.000Z</time>
      </trkpt>
      <trkpt lat="43.75273" lon="7.08065">
        <ele>812</ele>
        <time>2023-07-30T06:53:19.000Z</time>
      </trkpt>
      <trkpt lat="43.75273" lon="7.08065">
        <ele>812</ele>
        <time>2023-07-30T06:53:20.000Z</time>
      </trkpt>
      <trkpt lat="43.75273" lon="7.08065">
        <ele>812</ele>
        <time>2023-07-30T06:53:21.000Z</time>
      </trkpt>
      <trkpt lat="43.75273" lon="7.08065">
        <ele>812</ele>
        <time>2023-07-30T06:53:22.000Z</time>
      </trkpt>
      <trkpt lat="43.75273" lon="7.08065">
        <ele>812</ele>
        <time>2023-07-30T06:53:23.000Z</time>
      </trkpt>
      <trkpt lat="43.75273" lon="7.08065">
        <ele>812</ele>
        <time>2023-07-30T06:53:24.000Z</time>
      </trkpt>
      <trkpt lat="43.75273" lon="7.08065">
        <ele>812</ele>
        <time>2023-07-30T06:53:25.000Z</time>
      </trkpt>
      <trkpt lat="43.75273" lon="7.08065">
        <ele>812</ele>
        <time>2023-07-30T06:53:26.000Z</time>
      </trkpt>
      <trkpt lat="43.75273" lon="7.08065">
        <ele>812</ele>
        <time>2023-07-30T06:53:27.000Z</time>
      </trkpt>
      <trkpt lat="43.75273" lon="7.08065">
        <ele>812</ele>
        <time>2023-07-30T06:53:28.000Z</time>
      </trkpt>
      <trkpt lat="43.75273" lon="7.08065">
        <ele>812</ele>
        <time>2023-07-30T06:53:29.000Z</time>
      </trkpt>
      <trkpt lat="43.75273" lon="7.08065">
        <ele>812</ele>
        <time>2023-07-30T06:53:30.000Z</time>
      </trkpt>
      <trkpt lat="43.75273" lon="7.08065">
        <ele>812</ele>
        <time>2023-07-30T06:53:31.000Z</time>
      </trkpt>
      <trkpt lat="43.75273" lon="7.08065">
        <ele>812</ele>
        <time>2023-07-30T06:53:32.000Z</time>
      </trkpt>
      <trkpt lat="43.75273" lon="7.08065">
        <ele>812</ele>
        <time>2023-07-30T06:53:33.000Z</time>
      </trkpt>
      <trkpt lat="43.75273" lon="7.08065">
        <ele>812</ele>
        <time>2023-07-30T06:53:34.000Z</time>
      </trkpt>
      <trkpt lat="43.75273" lon="7.08065">
        <ele>812.20001220703</ele>
        <time>2023-07-30T06:53:35.000Z</time>
      </trkpt>
      <trkpt lat="43.75273" lon="7.08065">
        <ele>812.20001220703</ele>
        <time>2023-07-30T06:53:36.000Z</time>
      </trkpt>
      <trkpt lat="43.75273" lon="7.08065">
        <ele>812</ele>
        <time>2023-07-30T06:53:37.000Z</time>
      </trkpt>
      <trkpt lat="43.75272" lon="7.08065">
        <ele>812</ele>
        <time>2023-07-30T06:53:38.000Z</time>
      </trkpt>
      <trkpt lat="43.75272" lon="7.08066">
        <ele>812.20001220703</ele>
        <time>2023-07-30T06:53:39.000Z</time>
      </trkpt>
      <trkpt lat="43.75272" lon="7.08068">
        <ele>812.20001220703</ele>
        <time>2023-07-30T06:53:40.000Z</time>
      </trkpt>
      <trkpt lat="43.75272" lon="7.08069">
        <ele>812.20001220703</ele>
        <time>2023-07-30T06:53:41.000Z</time>
      </trkpt>
      <trkpt lat="43.75272" lon="7.08069">
        <ele>812.40002441406</ele>
        <time>2023-07-30T06:53:42.000Z</time>
      </trkpt>
      <trkpt lat="43.75272" lon="7.08069">
        <ele>812.40002441406</ele>
        <time>2023-07-30T06:53:43.000Z</time>
      </trkpt>
      <trkpt lat="43.75272" lon="7.08068">
        <ele>812.59997558594</ele>
        <time>2023-07-30T06:53:44.000Z</time>
      </trkpt>
      <trkpt lat="43.75272" lon="7.08068">
        <ele>812.59997558594</ele>
        <time>2023-07-30T06:53:45.000Z</time>
      </trkpt>
      <trkpt lat="43.75272" lon="7.08068">
        <ele>812.79998779297</ele>
        <time>2023-07-30T06:53:46.000Z</time>
      </trkpt>
      <trkpt lat="43.75272" lon="7.08068">
        <ele>812.79998779297</ele>
        <time>2023-07-30T06:53:47.000Z</time>
      </trkpt>
      <trkpt lat="43.75272" lon="7.08068">
        <ele>812.79998779297</ele>
        <time>2023-07-30T06:53:48.000Z</time>
      </trkpt>
      <trkpt lat="43.75272" lon="7.08068">
        <ele>812.79998779297</ele>
        <time>2023-07-30T06:53:49.000Z</time>
      </trkpt>
      <trkpt lat="43.75272" lon="7.08068">
        <ele>812.79998779297</ele>
        <time>2023-07-30T06:53:50.000Z</time>
      </trkpt>
      <trkpt lat="43.75272" lon="7.08068">
        <ele>812.79998779297</ele>
        <time>2023-07-30T06:53:51.000Z</time>
      </trkpt>
      <trkpt lat="43.75272" lon="7.08068">
        <ele>812.79998779297</ele>
        <time>2023-07-30T06:53:52.000Z</time>
      </trkpt>
      <trkpt lat="43.75272" lon="7.08068">
        <ele>812.79998779297</ele>
        <time>2023-07-30T06:53:53.000Z</time>
      </trkpt>
      <trkpt lat="43.75271" lon="7.0807">
        <ele>812.79998779297</ele>
        <time>2023-07-30T06:53:54.000Z</time>
      </trkpt>
      <trkpt lat="43.75271" lon="7.08072">
        <ele>812.79998779297</ele>
        <time>2023-07-30T06:53:55.000Z</time>
      </trkpt>
      <trkpt lat="43.75272" lon="7.08075">
        <ele>812.79998779297</ele>
        <time>2023-07-30T06:53:56.000Z</time>
      </trkpt>
      <trkpt lat="43.75272" lon="7.08078">
        <ele>812.79998779297</ele>
        <time>2023-07-30T06:53:57.000Z</time>
      </trkpt>
      <trkpt lat="43.75272" lon="7.0808">
        <ele>812.79998779297</ele>
        <time>2023-07-30T06:53:58.000Z</time>
      </trkpt>
      <trkpt lat="43.75272" lon="7.08082">
        <ele>813</ele>
        <time>2023-07-30T06:53:59.000Z</time>
      </trkpt>
      <trkpt lat="43.75272" lon="7.08085">
        <ele>813</ele>
        <time>2023-07-30T06:54:00.000Z</time>
      </trkpt>
      <trkpt lat="43.75272" lon="7.08088">
        <ele>813</ele>
        <time>2023-07-30T06:54:01.000Z</time>
      </trkpt>
      <trkpt lat="43.75271" lon="7.08091">
        <ele>813</ele>
        <time>2023-07-30T06:54:02.000Z</time>
      </trkpt>
      <trkpt lat="43.75271" lon="7.08093">
        <ele>813.20001220703</ele>
        <time>2023-07-30T06:54:03.000Z</time>
      </trkpt>
      <trkpt lat="43.75272" lon="7.08095">
        <ele>813.20001220703</ele>
        <time>2023-07-30T06:54:04.000Z</time>
      </trkpt>
      <trkpt lat="43.75271" lon="7.08097">
        <ele>813.20001220703</ele>
        <time>2023-07-30T06:54:05.000Z</time>
      </trkpt>
      <trkpt lat="43.75271" lon="7.081">
        <ele>813.20001220703</ele>
        <time>2023-07-30T06:54:06.000Z</time>
      </trkpt>
      <trkpt lat="43.75271" lon="7.08101">
        <ele>813.20001220703</ele>
        <time>2023-07-30T06:54:07.000Z</time>
      </trkpt>
      <trkpt lat="43.75271" lon="7.08104">
        <ele>813.20001220703</ele>
        <time>2023-07-30T06:54:08.000Z</time>
      </trkpt>
      <trkpt lat="43.75271" lon="7.08106">
        <ele>813.20001220703</ele>
        <time>2023-07-30T06:54:09.000Z</time>
      </trkpt>
      <trkpt lat="43.75271" lon="7.08108">
        <ele>813.20001220703</ele>
        <time>2023-07-30T06:54:10.000Z</time>
      </trkpt>
      <trkpt lat="43.75271" lon="7.0811">
        <ele>813</ele>
        <time>2023-07-30T06:54:11.000Z</time>
      </trkpt>
      <trkpt lat="43.75271" lon="7.08112">
        <ele>813</ele>
        <time>2023-07-30T06:54:12.000Z</time>
      </trkpt>
      <trkpt lat="43.75272" lon="7.08115">
        <ele>813.20001220703</ele>
        <time>2023-07-30T06:54:13.000Z</time>
      </trkpt>
      <trkpt lat="43.75272" lon="7.08116">
        <ele>813.40002441406</ele>
        <time>2023-07-30T06:54:14.000Z</time>
      </trkpt>
      <trkpt lat="43.75272" lon="7.08118">
        <ele>813.40002441406</ele>
        <time>2023-07-30T06:54:15.000Z</time>
      </trkpt>
      <trkpt lat="43.75272" lon="7.0812">
        <ele>813.40002441406</ele>
        <time>2023-07-30T06:54:16.000Z</time>
      </trkpt>
      <trkpt lat="43.75272" lon="7.08122">
        <ele>813.79998779297</ele>
        <time>2023-07-30T06:54:17.000Z</time>
      </trkpt>
      <trkpt lat="43.75273" lon="7.08124">
        <ele>813.79998779297</ele>
        <time>2023-07-30T06:54:18.000Z</time>
      </trkpt>
      <trkpt lat="43.75273" lon="7.08126">
        <ele>813.79998779297</ele>
        <time>2023-07-30T06:54:19.000Z</time>
      </trkpt>
      <trkpt lat="43.75273" lon="7.08129">
        <ele>813.79998779297</ele>
        <time>2023-07-30T06:54:20.000Z</time>
      </trkpt>
      <trkpt lat="43.75273" lon="7.08131">
        <ele>813.79998779297</ele>
        <time>2023-07-30T06:54:21.000Z</time>
      </trkpt>
      <trkpt lat="43.75273" lon="7.08134">
        <ele>813.79998779297</ele>
        <time>2023-07-30T06:54:22.000Z</time>
      </trkpt>
      <trkpt lat="43.75273" lon="7.08136">
        <ele>814</ele>
        <time>2023-07-30T06:54:23.000Z</time>
      </trkpt>
      <trkpt lat="43.75273" lon="7.08138">
        <ele>814</ele>
        <time>2023-07-30T06:54:24.000Z</time>
      </trkpt>
      <trkpt lat="43.75273" lon="7.08141">
        <ele>814</ele>
        <time>2023-07-30T06:54:25.000Z</time>
      </trkpt>
      <trkpt lat="43.75273" lon="7.08144">
        <ele>814.20001220703</ele>
        <time>2023-07-30T06:54:26.000Z</time>
      </trkpt>
      <trkpt lat="43.75274" lon="7.08147">
        <ele>814.20001220703</ele>
        <time>2023-07-30T06:54:27.000Z</time>
      </trkpt>
      <trkpt lat="43.75274" lon="7.08149">
        <ele>814.20001220703</ele>
        <time>2023-07-30T06:54:28.000Z</time>
      </trkpt>
      <trkpt lat="43.75276" lon="7.08152">
        <ele>814.20001220703</ele>
        <time>2023-07-30T06:54:29.000Z</time>
      </trkpt>
      <trkpt lat="43.75278" lon="7.08154">
        <ele>814.20001220703</ele>
        <time>2023-07-30T06:54:30.000Z</time>
      </trkpt>
      <trkpt lat="43.75279" lon="7.08157">
        <ele>814.20001220703</ele>
        <time>2023-07-30T06:54:31.000Z</time>
      </trkpt>
      <trkpt lat="43.75281" lon="7.08159">
        <ele>814.20001220703</ele>
        <time>2023-07-30T06:54:32.000Z</time>
      </trkpt>
      <trkpt lat="43.75282" lon="7.08161">
        <ele>814.20001220703</ele>
        <time>2023-07-30T06:54:33.000Z</time>
      </trkpt>
      <trkpt lat="43.75283" lon="7.08164">
        <ele>814.20001220703</ele>
        <time>2023-07-30T06:54:34.000Z</time>
      </trkpt>
      <trkpt lat="43.75284" lon="7.08167">
        <ele>814.20001220703</ele>
        <time>2023-07-30T06:54:35.000Z</time>
      </trkpt>
      <trkpt lat="43.75286" lon="7.08169">
        <ele>814.40002441406</ele>
        <time>2023-07-30T06:54:36.000Z</time>
      </trkpt>
      <trkpt lat="43.75287" lon="7.08171">
        <ele>814.40002441406</ele>
        <time>2023-07-30T06:54:37.000Z</time>
      </trkpt>
      <trkpt lat="43.75289" lon="7.08174">
        <ele>814.40002441406</ele>
        <time>2023-07-30T06:54:38.000Z</time>
      </trkpt>
      <trkpt lat="43.75291" lon="7.08177">
        <ele>814.40002441406</ele>
        <time>2023-07-30T06:54:39.000Z</time>
      </trkpt>
      <trkpt lat="43.75292" lon="7.0818">
        <ele>814.40002441406</ele>
        <time>2023-07-30T06:54:40.000Z</time>
      </trkpt>
      <trkpt lat="43.75293" lon="7.08184">
        <ele>814.40002441406</ele>
        <time>2023-07-30T06:54:41.000Z</time>
      </trkpt>
      <trkpt lat="43.75295" lon="7.08188">
        <ele>814.40002441406</ele>
        <time>2023-07-30T06:54:42.000Z</time>
      </trkpt>
      <trkpt lat="43.75297" lon="7.0819">
        <ele>814.59997558594</ele>
        <time>2023-07-30T06:54:43.000Z</time>
      </trkpt>
      <trkpt lat="43.75299" lon="7.08192">
        <ele>814.59997558594</ele>
        <time>2023-07-30T06:54:44.000Z</time>
      </trkpt>
      <trkpt lat="43.75301" lon="7.08195">
        <ele>814.59997558594</ele>
        <time>2023-07-30T06:54:45.000Z</time>
      </trkpt>
      <trkpt lat="43.75302" lon="7.08198">
        <ele>814.79998779297</ele>
        <time>2023-07-30T06:54:46.000Z</time>
      </trkpt>
      <trkpt lat="43.75304" lon="7.08201">
        <ele>815</ele>
        <time>2023-07-30T06:54:47.000Z</time>
      </trkpt>
      <trkpt lat="43.75305" lon="7.08204">
        <ele>815</ele>
        <time>2023-07-30T06:54:48.000Z</time>
      </trkpt>
      <trkpt lat="43.75307" lon="7.08206">
        <ele>815.20001220703</ele>
        <time>2023-07-30T06:54:49.000Z</time>
      </trkpt>
      <trkpt lat="43.75308" lon="7.08209">
        <ele>815.59997558594</ele>
        <time>2023-07-30T06:54:50.000Z</time>
      </trkpt>
      <trkpt lat="43.7531" lon="7.08212">
        <ele>815.59997558594</ele>
        <time>2023-07-30T06:54:51.000Z</time>
      </trkpt>
      <trkpt lat="43.75311" lon="7.08214">
        <ele>815.59997558594</ele>
        <time>2023-07-30T06:54:52.000Z</time>
      </trkpt>
      <trkpt lat="43.75313" lon="7.08216">
        <ele>815.79998779297</ele>
        <time>2023-07-30T06:54:53.000Z</time>
      </trkpt>
      <trkpt lat="43.75315" lon="7.08218">
        <ele>816.20001220703</ele>
        <time>2023-07-30T06:54:54.000Z</time>
      </trkpt>
      <trkpt lat="43.75317" lon="7.0822">
        <ele>816.40002441406</ele>
        <time>2023-07-30T06:54:55.000Z</time>
      </trkpt>
      <trkpt lat="43.75319" lon="7.08221">
        <ele>816.59997558594</ele>
        <time>2023-07-30T06:54:56.000Z</time>
      </trkpt>
      <trkpt lat="43.75321" lon="7.08222">
        <ele>816.59997558594</ele>
        <time>2023-07-30T06:54:57.000Z</time>
      </trkpt>
      <trkpt lat="43.75323" lon="7.08223">
        <ele>817</ele>
        <time>2023-07-30T06:54:58.000Z</time>
      </trkpt>
      <trkpt lat="43.75325" lon="7.08224">
        <ele>817</ele>
        <time>2023-07-30T06:54:59.000Z</time>
      </trkpt>
      <trkpt lat="43.75328" lon="7.08224">
        <ele>817.20001220703</ele>
        <time>2023-07-30T06:55:00.000Z</time>
      </trkpt>
      <trkpt lat="43.7533" lon="7.08225">
        <ele>817.20001220703</ele>
        <time>2023-07-30T06:55:01.000Z</time>
      </trkpt>
      <trkpt lat="43.75332" lon="7.08225">
        <ele>818</ele>
        <time>2023-07-30T06:55:02.000Z</time>
      </trkpt>
      <trkpt lat="43.75335" lon="7.08225">
        <ele>818.20001220703</ele>
        <time>2023-07-30T06:55:03.000Z</time>
      </trkpt>
      <trkpt lat="43.75337" lon="7.08224">
        <ele>818.20001220703</ele>
        <time>2023-07-30T06:55:04.000Z</time>
      </trkpt>
      <trkpt lat="43.75339" lon="7.08224">
        <ele>818.59997558594</ele>
        <time>2023-07-30T06:55:05.000Z</time>
      </trkpt>
      <trkpt lat="43.75341" lon="7.08225">
        <ele>818.79998779297</ele>
        <time>2023-07-30T06:55:06.000Z</time>
      </trkpt>
      <trkpt lat="43.75343" lon="7.08226">
        <ele>819.20001220703</ele>
        <time>2023-07-30T06:55:07.000Z</time>
      </trkpt>
      <trkpt lat="43.75344" lon="7.08228">
        <ele>819.40002441406</ele>
        <time>2023-07-30T06:55:08.000Z</time>
      </trkpt>
      <trkpt lat="43.75346" lon="7.0823">
        <ele>819.79998779297</ele>
        <time>2023-07-30T06:55:09.000Z</time>
      </trkpt>
      <trkpt lat="43.75348" lon="7.08231">
        <ele>820.20001220703</ele>
        <time>2023-07-30T06:55:10.000Z</time>
      </trkpt>
      <trkpt lat="43.7535" lon="7.08232">
        <ele>820.59997558594</ele>
        <time>2023-07-30T06:55:11.000Z</time>
      </trkpt>
      <trkpt lat="43.75352" lon="7.08233">
        <ele>820.79998779297</ele>
        <time>2023-07-30T06:55:12.000Z</time>
      </trkpt>
      <trkpt lat="43.75355" lon="7.08234">
        <ele>821</ele>
        <time>2023-07-30T06:55:13.000Z</time>
      </trkpt>
      <trkpt lat="43.75357" lon="7.08235">
        <ele>821.59997558594</ele>
        <time>2023-07-30T06:55:14.000Z</time>
      </trkpt>
      <trkpt lat="43.75359" lon="7.08236">
        <ele>821.59997558594</ele>
        <time>2023-07-30T06:55:15.000Z</time>
      </trkpt>
      <trkpt lat="43.75361" lon="7.08237">
        <ele>821.59997558594</ele>
        <time>2023-07-30T06:55:16.000Z</time>
      </trkpt>
      <trkpt lat="43.75363" lon="7.08239">
        <ele>822.40002441406</ele>
        <time>2023-07-30T06:55:17.000Z</time>
      </trkpt>
      <trkpt lat="43.75365" lon="7.08239">
        <ele>822.40002441406</ele>
        <time>2023-07-30T06:55:18.000Z</time>
      </trkpt>
      <trkpt lat="43.75367" lon="7.0824">
        <ele>823</ele>
        <time>2023-07-30T06:55:19.000Z</time>
      </trkpt>
      <trkpt lat="43.75369" lon="7.08241">
        <ele>823.20001220703</ele>
        <time>2023-07-30T06:55:20.000Z</time>
      </trkpt>
      <trkpt lat="43.75371" lon="7.08242">
        <ele>823.40002441406</ele>
        <time>2023-07-30T06:55:21.000Z</time>
      </trkpt>
      <trkpt lat="43.75373" lon="7.08244">
        <ele>823.79998779297</ele>
        <time>2023-07-30T06:55:22.000Z</time>
      </trkpt>
      <trkpt lat="43.75375" lon="7.08246">
        <ele>824</ele>
        <time>2023-07-30T06:55:23.000Z</time>
      </trkpt>
      <trkpt lat="43.75377" lon="7.08248">
        <ele>824.20001220703</ele>
        <time>2023-07-30T06:55:24.000Z</time>
      </trkpt>
      <trkpt lat="43.75378" lon="7.0825">
        <ele>824.59997558594</ele>
        <time>2023-07-30T06:55:25.000Z</time>
      </trkpt>
      <trkpt lat="43.7538" lon="7.08251">
        <ele>824.59997558594</ele>
        <time>2023-07-30T06:55:26.000Z</time>
      </trkpt>
      <trkpt lat="43.75382" lon="7.08253">
        <ele>824.59997558594</ele>
        <time>2023-07-30T06:55:27.000Z</time>
      </trkpt>
      <trkpt lat="43.75384" lon="7.08255">
        <ele>824.79998779297</ele>
        <time>2023-07-30T06:55:28.000Z</time>
      </trkpt>
      <trkpt lat="43.75386" lon="7.08256">
        <ele>824.79998779297</ele>
        <time>2023-07-30T06:55:29.000Z</time>
      </trkpt>
      <trkpt lat="43.75388" lon="7.08258">
        <ele>825.20001220703</ele>
        <time>2023-07-30T06:55:30.000Z</time>
      </trkpt>
      <trkpt lat="43.7539" lon="7.08259">
        <ele>825.40002441406</ele>
        <time>2023-07-30T06:55:31.000Z</time>
      </trkpt>
      <trkpt lat="43.75392" lon="7.08261">
        <ele>825.40002441406</ele>
        <time>2023-07-30T06:55:32.000Z</time>
      </trkpt>
      <trkpt lat="43.75394" lon="7.08262">
        <ele>825.59997558594</ele>
        <time>2023-07-30T06:55:33.000Z</time>
      </trkpt>
      <trkpt lat="43.75396" lon="7.08264">
        <ele>825.59997558594</ele>
        <time>2023-07-30T06:55:34.000Z</time>
      </trkpt>
      <trkpt lat="43.75398" lon="7.08266">
        <ele>825.79998779297</ele>
        <time>2023-07-30T06:55:35.000Z</time>
      </trkpt>
      <trkpt lat="43.75399" lon="7.08267">
        <ele>826</ele>
        <time>2023-07-30T06:55:36.000Z</time>
      </trkpt>
      <trkpt lat="43.75402" lon="7.08268">
        <ele>826</ele>
        <time>2023-07-30T06:55:37.000Z</time>
      </trkpt>
      <trkpt lat="43.75404" lon="7.0827">
        <ele>826</ele>
        <time>2023-07-30T06:55:38.000Z</time>
      </trkpt>
      <trkpt lat="43.75406" lon="7.08271">
        <ele>826.20001220703</ele>
        <time>2023-07-30T06:55:39.000Z</time>
      </trkpt>
      <trkpt lat="43.75407" lon="7.08274">
        <ele>826.20001220703</ele>
        <time>2023-07-30T06:55:40.000Z</time>
      </trkpt>
      <trkpt lat="43.75408" lon="7.08276">
        <ele>826.40002441406</ele>
        <time>2023-07-30T06:55:41.000Z</time>
      </trkpt>
      <trkpt lat="43.75409" lon="7.08278">
        <ele>826.40002441406</ele>
        <time>2023-07-30T06:55:42.000Z</time>
      </trkpt>
      <trkpt lat="43.75411" lon="7.0828">
        <ele>826.40002441406</ele>
        <time>2023-07-30T06:55:43.000Z</time>
      </trkpt>
      <trkpt lat="43.75412" lon="7.08282">
        <ele>826.59997558594</ele>
        <time>2023-07-30T06:55:44.000Z</time>
      </trkpt>
      <trkpt lat="43.75413" lon="7.08284">
        <ele>826.79998779297</ele>
        <time>2023-07-30T06:55:45.000Z</time>
      </trkpt>
      <trkpt lat="43.75415" lon="7.08286">
        <ele>826.79998779297</ele>
        <time>2023-07-30T06:55:46.000Z</time>
      </trkpt>
      <trkpt lat="43.75416" lon="7.08287">
        <ele>827</ele>
        <time>2023-07-30T06:55:47.000Z</time>
      </trkpt>
      <trkpt lat="43.75417" lon="7.08288">
        <ele>827</ele>
        <time>2023-07-30T06:55:48.000Z</time>
      </trkpt>
      <trkpt lat="43.75416" lon="7.08288">
        <ele>827</ele>
        <time>2023-07-30T06:55:49.000Z</time>
      </trkpt>
      <trkpt lat="43.75416" lon="7.08288">
        <ele>827.20001220703</ele>
        <time>2023-07-30T06:55:50.000Z</time>
      </trkpt>
      <trkpt lat="43.75416" lon="7.08288">
        <ele>827.20001220703</ele>
        <time>2023-07-30T06:55:51.000Z</time>
      </trkpt>
      <trkpt lat="43.75416" lon="7.08288">
        <ele>827.20001220703</ele>
        <time>2023-07-30T06:55:52.000Z</time>
      </trkpt>
      <trkpt lat="43.75416" lon="7.08288">
        <ele>827.20001220703</ele>
        <time>2023-07-30T06:55:53.000Z</time>
      </trkpt>
      <trkpt lat="43.75416" lon="7.08288">
        <ele>827.59997558594</ele>
        <time>2023-07-30T06:55:54.000Z</time>
      </trkpt>
      <trkpt lat="43.75416" lon="7.08288">
        <ele>827.59997558594</ele>
        <time>2023-07-30T06:55:55.000Z</time>
      </trkpt>
      <trkpt lat="43.75416" lon="7.08288">
        <ele>827.59997558594</ele>
        <time>2023-07-30T06:55:56.000Z</time>
      </trkpt>
      <trkpt lat="43.75416" lon="7.08288">
        <ele>827.59997558594</ele>
        <time>2023-07-30T06:55:57.000Z</time>
      </trkpt>
      <trkpt lat="43.75416" lon="7.08288">
        <ele>827.59997558594</ele>
        <time>2023-07-30T06:55:58.000Z</time>
      </trkpt>
      <trkpt lat="43.75416" lon="7.08288">
        <ele>827.59997558594</ele>
        <time>2023-07-30T06:55:59.000Z</time>
      </trkpt>
      <trkpt lat="43.75416" lon="7.08288">
        <ele>827.40002441406</ele>
        <time>2023-07-30T06:56:00.000Z</time>
      </trkpt>
      <trkpt lat="43.75416" lon="7.08288">
        <ele>827.40002441406</ele>
        <time>2023-07-30T06:56:01.000Z</time>
      </trkpt>
      <trkpt lat="43.75416" lon="7.08288">
        <ele>827.40002441406</ele>
        <time>2023-07-30T06:56:02.000Z</time>
      </trkpt>
      <trkpt lat="43.75416" lon="7.08288">
        <ele>827.40002441406</ele>
        <time>2023-07-30T06:56:03.000Z</time>
      </trkpt>
      <trkpt lat="43.75416" lon="7.08288">
        <ele>827.40002441406</ele>
        <time>2023-07-30T06:56:04.000Z</time>
      </trkpt>
      <trkpt lat="43.75416" lon="7.08288">
        <ele>827.40002441406</ele>
        <time>2023-07-30T06:56:05.000Z</time>
      </trkpt>
      <trkpt lat="43.75416" lon="7.08288">
        <ele>827.40002441406</ele>
        <time>2023-07-30T06:56:06.000Z</time>
      </trkpt>
      <trkpt lat="43.75416" lon="7.08288">
        <ele>827.59997558594</ele>
        <time>2023-07-30T06:56:07.000Z</time>
      </trkpt>
      <trkpt lat="43.75416" lon="7.08288">
        <ele>827.59997558594</ele>
        <time>2023-07-30T06:56:08.000Z</time>
      </trkpt>
      <trkpt lat="43.75416" lon="7.08288">
        <ele>827.59997558594</ele>
        <time>2023-07-30T06:56:09.000Z</time>
      </trkpt>
      <trkpt lat="43.75416" lon="7.08288">
        <ele>827.59997558594</ele>
        <time>2023-07-30T06:56:10.000Z</time>
      </trkpt>
      <trkpt lat="43.75416" lon="7.08288">
        <ele>827.59997558594</ele>
        <time>2023-07-30T06:56:11.000Z</time>
      </trkpt>
      <trkpt lat="43.75416" lon="7.08288">
        <ele>827.59997558594</ele>
        <time>2023-07-30T06:56:12.000Z</time>
      </trkpt>
      <trkpt lat="43.75416" lon="7.08288">
        <ele>827.59997558594</ele>
        <time>2023-07-30T06:56:13.000Z</time>
      </trkpt>
      <trkpt lat="43.75416" lon="7.08288">
        <ele>827.59997558594</ele>
        <time>2023-07-30T06:56:14.000Z</time>
      </trkpt>
      <trkpt lat="43.75416" lon="7.08288">
        <ele>827.59997558594</ele>
        <time>2023-07-30T06:56:15.000Z</time>
      </trkpt>
      <trkpt lat="43.75416" lon="7.08288">
        <ele>827.59997558594</ele>
        <time>2023-07-30T06:56:16.000Z</time>
      </trkpt>
      <trkpt lat="43.75416" lon="7.08288">
        <ele>827.59997558594</ele>
        <time>2023-07-30T06:56:17.000Z</time>
      </trkpt>
      <trkpt lat="43.75416" lon="7.08288">
        <ele>827.59997558594</ele>
        <time>2023-07-30T06:56:18.000Z</time>
      </trkpt>
      <trkpt lat="43.75416" lon="7.08288">
        <ele>827.59997558594</ele>
        <time>2023-07-30T06:56:19.000Z</time>
      </trkpt>
      <trkpt lat="43.75416" lon="7.08288">
        <ele>827.59997558594</ele>
        <time>2023-07-30T06:56:20.000Z</time>
      </trkpt>
      <trkpt lat="43.75416" lon="7.08288">
        <ele>827.59997558594</ele>
        <time>2023-07-30T06:56:21.000Z</time>
      </trkpt>
      <trkpt lat="43.75416" lon="7.08288">
        <ele>827.59997558594</ele>
        <time>2023-07-30T06:56:22.000Z</time>
      </trkpt>
      <trkpt lat="43.75416" lon="7.08288">
        <ele>827.59997558594</ele>
        <time>2023-07-30T06:56:23.000Z</time>
      </trkpt>
      <trkpt lat="43.75416" lon="7.08288">
        <ele>827.59997558594</ele>
        <time>2023-07-30T06:56:24.000Z</time>
      </trkpt>
      <trkpt lat="43.75416" lon="7.08288">
        <ele>827.59997558594</ele>
        <time>2023-07-30T06:56:25.000Z</time>
      </trkpt>
      <trkpt lat="43.75416" lon="7.08288">
        <ele>827.59997558594</ele>
        <time>2023-07-30T06:56:26.000Z</time>
      </trkpt>
      <trkpt lat="43.75417" lon="7.08288">
        <ele>827.59997558594</ele>
        <time>2023-07-30T06:56:27.000Z</time>
      </trkpt>
      <trkpt lat="43.75417" lon="7.08288">
        <ele>827.59997558594</ele>
        <time>2023-07-30T06:56:28.000Z</time>
      </trkpt>
      <trkpt lat="43.75417" lon="7.08288">
        <ele>827.59997558594</ele>
        <time>2023-07-30T06:56:29.000Z</time>
      </trkpt>
      <trkpt lat="43.75417" lon="7.08288">
        <ele>827.59997558594</ele>
        <time>2023-07-30T06:56:30.000Z</time>
      </trkpt>
      <trkpt lat="43.75417" lon="7.08288">
        <ele>827.59997558594</ele>
        <time>2023-07-30T06:56:31.000Z</time>
      </trkpt>
      <trkpt lat="43.75417" lon="7.08288">
        <ele>827.59997558594</ele>
        <time>2023-07-30T06:56:32.000Z</time>
      </trkpt>
      <trkpt lat="43.75417" lon="7.08288">
        <ele>827.59997558594</ele>
        <time>2023-07-30T06:56:33.000Z</time>
      </trkpt>
      <trkpt lat="43.75417" lon="7.08288">
        <ele>827.59997558594</ele>
        <time>2023-07-30T06:56:34.000Z</time>
      </trkpt>
      <trkpt lat="43.75417" lon="7.08288">
        <ele>827.59997558594</ele>
        <time>2023-07-30T06:56:35.000Z</time>
      </trkpt>
      <trkpt lat="43.75417" lon="7.08288">
        <ele>827.59997558594</ele>
        <time>2023-07-30T06:56:36.000Z</time>
      </trkpt>
      <trkpt lat="43.75417" lon="7.08288">
        <ele>827.59997558594</ele>
        <time>2023-07-30T06:56:37.000Z</time>
      </trkpt>
      <trkpt lat="43.75417" lon="7.08288">
        <ele>827.59997558594</ele>
        <time>2023-07-30T06:56:38.000Z</time>
      </trkpt>
      <trkpt lat="43.75417" lon="7.08288">
        <ele>827.59997558594</ele>
        <time>2023-07-30T06:56:39.000Z</time>
      </trkpt>
      <trkpt lat="43.75417" lon="7.08288">
        <ele>827.59997558594</ele>
        <time>2023-07-30T06:56:40.000Z</time>
      </trkpt>
      <trkpt lat="43.75417" lon="7.08288">
        <ele>827.59997558594</ele>
        <time>2023-07-30T06:56:41.000Z</time>
      </trkpt>
      <trkpt lat="43.75417" lon="7.08288">
        <ele>827.59997558594</ele>
        <time>2023-07-30T06:56:42.000Z</time>
      </trkpt>
      <trkpt lat="43.75417" lon="7.08288">
        <ele>827.59997558594</ele>
        <time>2023-07-30T06:56:43.000Z</time>
      </trkpt>
      <trkpt lat="43.75417" lon="7.08288">
        <ele>827.59997558594</ele>
        <time>2023-07-30T06:56:44.000Z</time>
      </trkpt>
      <trkpt lat="43.75417" lon="7.08288">
        <ele>827.59997558594</ele>
        <time>2023-07-30T06:56:45.000Z</time>
      </trkpt>
      <trkpt lat="43.75417" lon="7.08288">
        <ele>827.59997558594</ele>
        <time>2023-07-30T06:56:46.000Z</time>
      </trkpt>
      <trkpt lat="43.75417" lon="7.08288">
        <ele>827.59997558594</ele>
        <time>2023-07-30T06:56:47.000Z</time>
      </trkpt>
      <trkpt lat="43.75417" lon="7.08288">
        <ele>827.59997558594</ele>
        <time>2023-07-30T06:56:48.000Z</time>
      </trkpt>
      <trkpt lat="43.75417" lon="7.08288">
        <ele>827.59997558594</ele>
        <time>2023-07-30T06:56:49.000Z</time>
      </trkpt>
      <trkpt lat="43.75417" lon="7.08288">
        <ele>827.59997558594</ele>
        <time>2023-07-30T06:56:50.000Z</time>
      </trkpt>
      <trkpt lat="43.75417" lon="7.08288">
        <ele>827.59997558594</ele>
        <time>2023-07-30T06:56:51.000Z</time>
      </trkpt>
      <trkpt lat="43.75417" lon="7.08288">
        <ele>827.40002441406</ele>
        <time>2023-07-30T06:56:52.000Z</time>
      </trkpt>
      <trkpt lat="43.75417" lon="7.08288">
        <ele>827.40002441406</ele>
        <time>2023-07-30T06:56:53.000Z</time>
      </trkpt>
      <trkpt lat="43.75417" lon="7.08288">
        <ele>827.40002441406</ele>
        <time>2023-07-30T06:56:54.000Z</time>
      </trkpt>
      <trkpt lat="43.75417" lon="7.08288">
        <ele>827.40002441406</ele>
        <time>2023-07-30T06:56:55.000Z</time>
      </trkpt>
      <trkpt lat="43.75417" lon="7.08288">
        <ele>827.40002441406</ele>
        <time>2023-07-30T06:56:56.000Z</time>
      </trkpt>
      <trkpt lat="43.75417" lon="7.08288">
        <ele>827.40002441406</ele>
        <time>2023-07-30T06:56:57.000Z</time>
      </trkpt>
      <trkpt lat="43.75417" lon="7.08288">
        <ele>827.40002441406</ele>
        <time>2023-07-30T06:56:58.000Z</time>
      </trkpt>
      <trkpt lat="43.75417" lon="7.08288">
        <ele>827.40002441406</ele>
        <time>2023-07-30T06:56:59.000Z</time>
      </trkpt>
      <trkpt lat="43.75417" lon="7.08288">
        <ele>827.40002441406</ele>
        <time>2023-07-30T06:57:00.000Z</time>
      </trkpt>
      <trkpt lat="43.75417" lon="7.08288">
        <ele>827.40002441406</ele>
        <time>2023-07-30T06:57:01.000Z</time>
      </trkpt>
      <trkpt lat="43.75417" lon="7.08288">
        <ele>827.40002441406</ele>
        <time>2023-07-30T06:57:02.000Z</time>
      </trkpt>
      <trkpt lat="43.75417" lon="7.08288">
        <ele>827.40002441406</ele>
        <time>2023-07-30T06:57:03.000Z</time>
      </trkpt>
      <trkpt lat="43.75417" lon="7.08288">
        <ele>827.40002441406</ele>
        <time>2023-07-30T06:57:04.000Z</time>
      </trkpt>
      <trkpt lat="43.75417" lon="7.08288">
        <ele>827.40002441406</ele>
        <time>2023-07-30T06:57:05.000Z</time>
      </trkpt>
      <trkpt lat="43.75417" lon="7.08288">
        <ele>827.40002441406</ele>
        <time>2023-07-30T06:57:06.000Z</time>
      </trkpt>
      <trkpt lat="43.75417" lon="7.08288">
        <ele>827.40002441406</ele>
        <time>2023-07-30T06:57:07.000Z</time>
      </trkpt>
      <trkpt lat="43.75417" lon="7.08288">
        <ele>827.40002441406</ele>
        <time>2023-07-30T06:57:08.000Z</time>
      </trkpt>
      <trkpt lat="43.75417" lon="7.08288">
        <ele>827.40002441406</ele>
        <time>2023-07-30T06:57:09.000Z</time>
      </trkpt>
      <trkpt lat="43.75417" lon="7.08288">
        <ele>827.40002441406</ele>
        <time>2023-07-30T06:57:10.000Z</time>
      </trkpt>
      <trkpt lat="43.75417" lon="7.08288">
        <ele>827.40002441406</ele>
        <time>2023-07-30T06:57:11.000Z</time>
      </trkpt>
      <trkpt lat="43.75417" lon="7.08288">
        <ele>827.40002441406</ele>
        <time>2023-07-30T06:57:12.000Z</time>
      </trkpt>
      <trkpt lat="43.75417" lon="7.08288">
        <ele>827.40002441406</ele>
        <time>2023-07-30T06:57:13.000Z</time>
      </trkpt>
      <trkpt lat="43.75417" lon="7.08288">
        <ele>827.40002441406</ele>
        <time>2023-07-30T06:57:14.000Z</time>
      </trkpt>
      <trkpt lat="43.75417" lon="7.08288">
        <ele>827.40002441406</ele>
        <time>2023-07-30T06:57:15.000Z</time>
      </trkpt>
      <trkpt lat="43.75417" lon="7.08288">
        <ele>827.40002441406</ele>
        <time>2023-07-30T06:57:16.000Z</time>
      </trkpt>
      <trkpt lat="43.75417" lon="7.08288">
        <ele>827.40002441406</ele>
        <time>2023-07-30T06:57:17.000Z</time>
      </trkpt>
      <trkpt lat="43.75417" lon="7.08288">
        <ele>827.40002441406</ele>
        <time>2023-07-30T06:57:18.000Z</time>
      </trkpt>
      <trkpt lat="43.75417" lon="7.08288">
        <ele>827.40002441406</ele>
        <time>2023-07-30T06:57:19.000Z</time>
      </trkpt>
      <trkpt lat="43.75417" lon="7.08288">
        <ele>827.40002441406</ele>
        <time>2023-07-30T06:57:20.000Z</time>
      </trkpt>
      <trkpt lat="43.75417" lon="7.08288">
        <ele>827.40002441406</ele>
        <time>2023-07-30T06:57:21.000Z</time>
      </trkpt>
      <trkpt lat="43.75417" lon="7.08288">
        <ele>827.40002441406</ele>
        <time>2023-07-30T06:57:22.000Z</time>
      </trkpt>
      <trkpt lat="43.75417" lon="7.08288">
        <ele>827.40002441406</ele>
        <time>2023-07-30T06:57:23.000Z</time>
      </trkpt>
      <trkpt lat="43.75417" lon="7.08288">
        <ele>827.40002441406</ele>
        <time>2023-07-30T06:57:24.000Z</time>
      </trkpt>
      <trkpt lat="43.75417" lon="7.08288">
        <ele>827.40002441406</ele>
        <time>2023-07-30T06:57:25.000Z</time>
      </trkpt>
      <trkpt lat="43.75417" lon="7.08288">
        <ele>827.40002441406</ele>
        <time>2023-07-30T06:57:26.000Z</time>
      </trkpt>
      <trkpt lat="43.75417" lon="7.08288">
        <ele>827.40002441406</ele>
        <time>2023-07-30T06:57:27.000Z</time>
      </trkpt>
      <trkpt lat="43.75417" lon="7.08288">
        <ele>827.40002441406</ele>
        <time>2023-07-30T06:57:28.000Z</time>
      </trkpt>
      <trkpt lat="43.75417" lon="7.08288">
        <ele>827.40002441406</ele>
        <time>2023-07-30T06:57:29.000Z</time>
      </trkpt>
      <trkpt lat="43.75417" lon="7.08288">
        <ele>827.40002441406</ele>
        <time>2023-07-30T06:57:30.000Z</time>
      </trkpt>
      <trkpt lat="43.75417" lon="7.08288">
        <ele>827.40002441406</ele>
        <time>2023-07-30T06:57:31.000Z</time>
      </trkpt>
      <trkpt lat="43.75417" lon="7.08288">
        <ele>827.40002441406</ele>
        <time>2023-07-30T06:57:32.000Z</time>
      </trkpt>
      <trkpt lat="43.75417" lon="7.08288">
        <ele>827.40002441406</ele>
        <time>2023-07-30T06:57:33.000Z</time>
      </trkpt>
      <trkpt lat="43.75417" lon="7.08288">
        <ele>827.40002441406</ele>
        <time>2023-07-30T06:57:34.000Z</time>
      </trkpt>
      <trkpt lat="43.75417" lon="7.08288">
        <ele>827.40002441406</ele>
        <time>2023-07-30T06:57:35.000Z</time>
      </trkpt>
      <trkpt lat="43.75417" lon="7.08288">
        <ele>827.40002441406</ele>
        <time>2023-07-30T06:57:36.000Z</time>
      </trkpt>
      <trkpt lat="43.75417" lon="7.08288">
        <ele>827.40002441406</ele>
        <time>2023-07-30T06:57:37.000Z</time>
      </trkpt>
      <trkpt lat="43.75417" lon="7.08288">
        <ele>827.40002441406</ele>
        <time>2023-07-30T06:57:38.000Z</time>
      </trkpt>
      <trkpt lat="43.75417" lon="7.08288">
        <ele>827.40002441406</ele>
        <time>2023-07-30T06:57:39.000Z</time>
      </trkpt>
      <trkpt lat="43.75417" lon="7.08288">
        <ele>827.40002441406</ele>
        <time>2023-07-30T06:57:40.000Z</time>
      </trkpt>
      <trkpt lat="43.75417" lon="7.08288">
        <ele>827.40002441406</ele>
        <time>2023-07-30T06:57:41.000Z</time>
      </trkpt>
      <trkpt lat="43.75417" lon="7.08288">
        <ele>827.40002441406</ele>
        <time>2023-07-30T06:57:42.000Z</time>
      </trkpt>
      <trkpt lat="43.75417" lon="7.08288">
        <ele>827.40002441406</ele>
        <time>2023-07-30T06:57:43.000Z</time>
      </trkpt>
      <trkpt lat="43.75417" lon="7.08288">
        <ele>827.40002441406</ele>
        <time>2023-07-30T06:57:44.000Z</time>
      </trkpt>
      <trkpt lat="43.75417" lon="7.08288">
        <ele>827.40002441406</ele>
        <time>2023-07-30T06:57:45.000Z</time>
      </trkpt>
      <trkpt lat="43.75417" lon="7.08288">
        <ele>827.40002441406</ele>
        <time>2023-07-30T06:57:46.000Z</time>
      </trkpt>
      <trkpt lat="43.75417" lon="7.08288">
        <ele>827.40002441406</ele>
        <time>2023-07-30T06:57:47.000Z</time>
      </trkpt>
      <trkpt lat="43.75417" lon="7.08288">
        <ele>827.40002441406</ele>
        <time>2023-07-30T06:57:48.000Z</time>
      </trkpt>
      <trkpt lat="43.75417" lon="7.08288">
        <ele>827.40002441406</ele>
        <time>2023-07-30T06:57:49.000Z</time>
      </trkpt>
      <trkpt lat="43.75417" lon="7.08288">
        <ele>827.40002441406</ele>
        <time>2023-07-30T06:57:50.000Z</time>
      </trkpt>
      <trkpt lat="43.75417" lon="7.08288">
        <ele>827.40002441406</ele>
        <time>2023-07-30T06:57:51.000Z</time>
      </trkpt>
      <trkpt lat="43.75417" lon="7.08288">
        <ele>827.40002441406</ele>
        <time>2023-07-30T06:57:52.000Z</time>
      </trkpt>
      <trkpt lat="43.75417" lon="7.08288">
        <ele>827.40002441406</ele>
        <time>2023-07-30T06:57:53.000Z</time>
      </trkpt>
      <trkpt lat="43.75417" lon="7.08288">
        <ele>827.40002441406</ele>
        <time>2023-07-30T06:57:54.000Z</time>
      </trkpt>
      <trkpt lat="43.75417" lon="7.08288">
        <ele>827.40002441406</ele>
        <time>2023-07-30T06:57:55.000Z</time>
      </trkpt>
      <trkpt lat="43.75417" lon="7.08288">
        <ele>827.40002441406</ele>
        <time>2023-07-30T06:57:56.000Z</time>
      </trkpt>
      <trkpt lat="43.75417" lon="7.08288">
        <ele>827.40002441406</ele>
        <time>2023-07-30T06:57:57.000Z</time>
      </trkpt>
      <trkpt lat="43.75417" lon="7.08288">
        <ele>827.40002441406</ele>
        <time>2023-07-30T06:57:58.000Z</time>
      </trkpt>
      <trkpt lat="43.75417" lon="7.08288">
        <ele>827.40002441406</ele>
        <time>2023-07-30T06:57:59.000Z</time>
      </trkpt>
      <trkpt lat="43.75417" lon="7.08288">
        <ele>827.40002441406</ele>
        <time>2023-07-30T06:58:00.000Z</time>
      </trkpt>
      <trkpt lat="43.75417" lon="7.08288">
        <ele>827.40002441406</ele>
        <time>2023-07-30T06:58:01.000Z</time>
      </trkpt>
      <trkpt lat="43.75417" lon="7.08288">
        <ele>827.40002441406</ele>
        <time>2023-07-30T06:58:02.000Z</time>
      </trkpt>
      <trkpt lat="43.75417" lon="7.08288">
        <ele>827.40002441406</ele>
        <time>2023-07-30T06:58:03.000Z</time>
      </trkpt>
      <trkpt lat="43.75417" lon="7.08288">
        <ele>827.40002441406</ele>
        <time>2023-07-30T06:58:04.000Z</time>
      </trkpt>
      <trkpt lat="43.75417" lon="7.08288">
        <ele>827.40002441406</ele>
        <time>2023-07-30T06:58:05.000Z</time>
      </trkpt>
      <trkpt lat="43.75417" lon="7.08288">
        <ele>827.40002441406</ele>
        <time>2023-07-30T06:58:06.000Z</time>
      </trkpt>
      <trkpt lat="43.75417" lon="7.08288">
        <ele>827.40002441406</ele>
        <time>2023-07-30T06:58:07.000Z</time>
      </trkpt>
      <trkpt lat="43.75417" lon="7.08288">
        <ele>827.40002441406</ele>
        <time>2023-07-30T06:58:08.000Z</time>
      </trkpt>
      <trkpt lat="43.75417" lon="7.08288">
        <ele>827.40002441406</ele>
        <time>2023-07-30T06:58:09.000Z</time>
      </trkpt>
      <trkpt lat="43.75417" lon="7.08288">
        <ele>827.40002441406</ele>
        <time>2023-07-30T06:58:10.000Z</time>
      </trkpt>
      <trkpt lat="43.75417" lon="7.08288">
        <ele>827.40002441406</ele>
        <time>2023-07-30T06:58:11.000Z</time>
      </trkpt>
      <trkpt lat="43.75417" lon="7.08288">
        <ele>827.40002441406</ele>
        <time>2023-07-30T06:58:12.000Z</time>
      </trkpt>
      <trkpt lat="43.75417" lon="7.08288">
        <ele>827.40002441406</ele>
        <time>2023-07-30T06:58:13.000Z</time>
      </trkpt>
      <trkpt lat="43.75417" lon="7.08288">
        <ele>827.40002441406</ele>
        <time>2023-07-30T06:58:14.000Z</time>
      </trkpt>
      <trkpt lat="43.75417" lon="7.08288">
        <ele>827.40002441406</ele>
        <time>2023-07-30T06:58:15.000Z</time>
      </trkpt>
      <trkpt lat="43.75417" lon="7.08288">
        <ele>827.40002441406</ele>
        <time>2023-07-30T06:58:16.000Z</time>
      </trkpt>
      <trkpt lat="43.75417" lon="7.08288">
        <ele>827.40002441406</ele>
        <time>2023-07-30T06:58:17.000Z</time>
      </trkpt>
      <trkpt lat="43.75417" lon="7.08288">
        <ele>827.40002441406</ele>
        <time>2023-07-30T06:58:18.000Z</time>
      </trkpt>
      <trkpt lat="43.75417" lon="7.08288">
        <ele>827.40002441406</ele>
        <time>2023-07-30T06:58:19.000Z</time>
      </trkpt>
      <trkpt lat="43.75417" lon="7.08288">
        <ele>827.40002441406</ele>
        <time>2023-07-30T06:58:20.000Z</time>
      </trkpt>
      <trkpt lat="43.75417" lon="7.08288">
        <ele>827.40002441406</ele>
        <time>2023-07-30T06:58:21.000Z</time>
      </trkpt>
      <trkpt lat="43.75417" lon="7.08288">
        <ele>827.40002441406</ele>
        <time>2023-07-30T06:58:22.000Z</time>
      </trkpt>
      <trkpt lat="43.75417" lon="7.08288">
        <ele>827.40002441406</ele>
        <time>2023-07-30T06:58:23.000Z</time>
      </trkpt>
      <trkpt lat="43.75417" lon="7.08288">
        <ele>827.40002441406</ele>
        <time>2023-07-30T06:58:24.000Z</time>
      </trkpt>
      <trkpt lat="43.75417" lon="7.08288">
        <ele>827.40002441406</ele>
        <time>2023-07-30T06:58:25.000Z</time>
      </trkpt>
      <trkpt lat="43.75417" lon="7.08288">
        <ele>827.40002441406</ele>
        <time>2023-07-30T06:58:26.000Z</time>
      </trkpt>
      <trkpt lat="43.75417" lon="7.08288">
        <ele>827.40002441406</ele>
        <time>2023-07-30T06:58:27.000Z</time>
      </trkpt>
      <trkpt lat="43.75417" lon="7.08288">
        <ele>827.40002441406</ele>
        <time>2023-07-30T06:58:28.000Z</time>
      </trkpt>
      <trkpt lat="43.75417" lon="7.08287">
        <ele>827.40002441406</ele>
        <time>2023-07-30T06:58:29.000Z</time>
      </trkpt>
      <trkpt lat="43.75417" lon="7.08288">
        <ele>827.40002441406</ele>
        <time>2023-07-30T06:58:30.000Z</time>
      </trkpt>
      <trkpt lat="43.75417" lon="7.08288">
        <ele>827.40002441406</ele>
        <time>2023-07-30T06:58:31.000Z</time>
      </trkpt>
      <trkpt lat="43.75417" lon="7.08288">
        <ele>827.40002441406</ele>
        <time>2023-07-30T06:58:32.000Z</time>
      </trkpt>
      <trkpt lat="43.75417" lon="7.08288">
        <ele>827.40002441406</ele>
        <time>2023-07-30T06:58:33.000Z</time>
      </trkpt>
      <trkpt lat="43.75417" lon="7.08288">
        <ele>827.40002441406</ele>
        <time>2023-07-30T06:58:34.000Z</time>
      </trkpt>
      <trkpt lat="43.75417" lon="7.08288">
        <ele>827.40002441406</ele>
        <time>2023-07-30T06:58:35.000Z</time>
      </trkpt>
      <trkpt lat="43.75417" lon="7.08288">
        <ele>827.40002441406</ele>
        <time>2023-07-30T06:58:36.000Z</time>
      </trkpt>
      <trkpt lat="43.75417" lon="7.08288">
        <ele>827.40002441406</ele>
        <time>2023-07-30T06:58:37.000Z</time>
      </trkpt>
      <trkpt lat="43.75417" lon="7.08288">
        <ele>827.40002441406</ele>
        <time>2023-07-30T06:58:38.000Z</time>
      </trkpt>
      <trkpt lat="43.75417" lon="7.08288">
        <ele>827.40002441406</ele>
        <time>2023-07-30T06:58:39.000Z</time>
      </trkpt>
      <trkpt lat="43.75417" lon="7.08288">
        <ele>827.40002441406</ele>
        <time>2023-07-30T06:58:40.000Z</time>
      </trkpt>
      <trkpt lat="43.75417" lon="7.08288">
        <ele>827.40002441406</ele>
        <time>2023-07-30T06:58:41.000Z</time>
      </trkpt>
      <trkpt lat="43.75417" lon="7.08288">
        <ele>827.40002441406</ele>
        <time>2023-07-30T06:58:42.000Z</time>
      </trkpt>
      <trkpt lat="43.75417" lon="7.08288">
        <ele>827.40002441406</ele>
        <time>2023-07-30T06:58:43.000Z</time>
      </trkpt>
      <trkpt lat="43.75417" lon="7.08288">
        <ele>827.40002441406</ele>
        <time>2023-07-30T06:58:44.000Z</time>
      </trkpt>
      <trkpt lat="43.75417" lon="7.08288">
        <ele>827.40002441406</ele>
        <time>2023-07-30T06:58:45.000Z</time>
      </trkpt>
      <trkpt lat="43.75417" lon="7.08288">
        <ele>827.40002441406</ele>
        <time>2023-07-30T06:58:46.000Z</time>
      </trkpt>
      <trkpt lat="43.75417" lon="7.08288">
        <ele>827.40002441406</ele>
        <time>2023-07-30T06:58:47.000Z</time>
      </trkpt>
      <trkpt lat="43.75417" lon="7.08288">
        <ele>827.40002441406</ele>
        <time>2023-07-30T06:58:48.000Z</time>
      </trkpt>
      <trkpt lat="43.75417" lon="7.08288">
        <ele>827.40002441406</ele>
        <time>2023-07-30T06:58:49.000Z</time>
      </trkpt>
      <trkpt lat="43.75417" lon="7.08288">
        <ele>827.40002441406</ele>
        <time>2023-07-30T06:58:50.000Z</time>
      </trkpt>
      <trkpt lat="43.75417" lon="7.08288">
        <ele>827.40002441406</ele>
        <time>2023-07-30T06:58:51.000Z</time>
      </trkpt>
      <trkpt lat="43.75417" lon="7.08288">
        <ele>827.40002441406</ele>
        <time>2023-07-30T06:58:52.000Z</time>
      </trkpt>
      <trkpt lat="43.75417" lon="7.08288">
        <ele>827.40002441406</ele>
        <time>2023-07-30T06:58:53.000Z</time>
      </trkpt>
      <trkpt lat="43.75417" lon="7.08288">
        <ele>827.40002441406</ele>
        <time>2023-07-30T06:58:54.000Z</time>
      </trkpt>
      <trkpt lat="43.75417" lon="7.08288">
        <ele>827.40002441406</ele>
        <time>2023-07-30T06:58:55.000Z</time>
      </trkpt>
      <trkpt lat="43.75417" lon="7.08288">
        <ele>827.40002441406</ele>
        <time>2023-07-30T06:58:56.000Z</time>
      </trkpt>
      <trkpt lat="43.75417" lon="7.08288">
        <ele>827.40002441406</ele>
        <time>2023-07-30T06:58:57.000Z</time>
      </trkpt>
      <trkpt lat="43.75417" lon="7.08288">
        <ele>827.40002441406</ele>
        <time>2023-07-30T06:58:58.000Z</time>
      </trkpt>
      <trkpt lat="43.75417" lon="7.08288">
        <ele>827.40002441406</ele>
        <time>2023-07-30T06:58:59.000Z</time>
      </trkpt>
      <trkpt lat="43.75417" lon="7.08288">
        <ele>827.40002441406</ele>
        <time>2023-07-30T06:59:00.000Z</time>
      </trkpt>
      <trkpt lat="43.75417" lon="7.08288">
        <ele>827.40002441406</ele>
        <time>2023-07-30T06:59:01.000Z</time>
      </trkpt>
      <trkpt lat="43.75417" lon="7.08288">
        <ele>827.40002441406</ele>
        <time>2023-07-30T06:59:02.000Z</time>
      </trkpt>
      <trkpt lat="43.75417" lon="7.08288">
        <ele>827.40002441406</ele>
        <time>2023-07-30T06:59:03.000Z</time>
      </trkpt>
      <trkpt lat="43.75417" lon="7.08288">
        <ele>827.40002441406</ele>
        <time>2023-07-30T06:59:04.000Z</time>
      </trkpt>
      <trkpt lat="43.75417" lon="7.08288">
        <ele>827.40002441406</ele>
        <time>2023-07-30T06:59:05.000Z</time>
      </trkpt>
      <trkpt lat="43.75417" lon="7.08288">
        <ele>827.40002441406</ele>
        <time>2023-07-30T06:59:06.000Z</time>
      </trkpt>
      <trkpt lat="43.75417" lon="7.08288">
        <ele>827.40002441406</ele>
        <time>2023-07-30T06:59:07.000Z</time>
      </trkpt>
      <trkpt lat="43.75417" lon="7.08288">
        <ele>827.40002441406</ele>
        <time>2023-07-30T06:59:08.000Z</time>
      </trkpt>
      <trkpt lat="43.75417" lon="7.08288">
        <ele>827.40002441406</ele>
        <time>2023-07-30T06:59:09.000Z</time>
      </trkpt>
      <trkpt lat="43.75417" lon="7.08288">
        <ele>827.40002441406</ele>
        <time>2023-07-30T06:59:10.000Z</time>
      </trkpt>
      <trkpt lat="43.75417" lon="7.08288">
        <ele>827.40002441406</ele>
        <time>2023-07-30T06:59:11.000Z</time>
      </trkpt>
      <trkpt lat="43.75417" lon="7.08288">
        <ele>827.40002441406</ele>
        <time>2023-07-30T06:59:12.000Z</time>
      </trkpt>
      <trkpt lat="43.75417" lon="7.08288">
        <ele>827.40002441406</ele>
        <time>2023-07-30T06:59:13.000Z</time>
      </trkpt>
      <trkpt lat="43.75417" lon="7.08288">
        <ele>827.40002441406</ele>
        <time>2023-07-30T06:59:14.000Z</time>
      </trkpt>
      <trkpt lat="43.75417" lon="7.08288">
        <ele>827.40002441406</ele>
        <time>2023-07-30T06:59:15.000Z</time>
      </trkpt>
      <trkpt lat="43.75417" lon="7.08288">
        <ele>827.40002441406</ele>
        <time>2023-07-30T06:59:16.000Z</time>
      </trkpt>
      <trkpt lat="43.75417" lon="7.08288">
        <ele>827.40002441406</ele>
        <time>2023-07-30T06:59:17.000Z</time>
      </trkpt>
      <trkpt lat="43.75417" lon="7.08288">
        <ele>827.40002441406</ele>
        <time>2023-07-30T06:59:18.000Z</time>
      </trkpt>
      <trkpt lat="43.75417" lon="7.08288">
        <ele>827.40002441406</ele>
        <time>2023-07-30T06:59:19.000Z</time>
      </trkpt>
      <trkpt lat="43.75416" lon="7.08288">
        <ele>827.40002441406</ele>
        <time>2023-07-30T06:59:20.000Z</time>
      </trkpt>
      <trkpt lat="43.75417" lon="7.08288">
        <ele>827.40002441406</ele>
        <time>2023-07-30T06:59:21.000Z</time>
      </trkpt>
      <trkpt lat="43.75417" lon="7.08288">
        <ele>827.40002441406</ele>
        <time>2023-07-30T06:59:22.000Z</time>
      </trkpt>
      <trkpt lat="43.75417" lon="7.08288">
        <ele>827.40002441406</ele>
        <time>2023-07-30T06:59:23.000Z</time>
      </trkpt>
      <trkpt lat="43.75417" lon="7.08287">
        <ele>827.40002441406</ele>
        <time>2023-07-30T06:59:24.000Z</time>
      </trkpt>
      <trkpt lat="43.75417" lon="7.08287">
        <ele>827.40002441406</ele>
        <time>2023-07-30T06:59:25.000Z</time>
      </trkpt>
      <trkpt lat="43.75417" lon="7.08287">
        <ele>827.40002441406</ele>
        <time>2023-07-30T06:59:26.000Z</time>
      </trkpt>
      <trkpt lat="43.75417" lon="7.08287">
        <ele>827.40002441406</ele>
        <time>2023-07-30T06:59:27.000Z</time>
      </trkpt>
      <trkpt lat="43.75417" lon="7.08287">
        <ele>827.40002441406</ele>
        <time>2023-07-30T06:59:28.000Z</time>
      </trkpt>
      <trkpt lat="43.75417" lon="7.08287">
        <ele>827.40002441406</ele>
        <time>2023-07-30T06:59:29.000Z</time>
      </trkpt>
      <trkpt lat="43.75417" lon="7.08287">
        <ele>827.40002441406</ele>
        <time>2023-07-30T06:59:30.000Z</time>
      </trkpt>
      <trkpt lat="43.75417" lon="7.08287">
        <ele>827.40002441406</ele>
        <time>2023-07-30T06:59:31.000Z</time>
      </trkpt>
      <trkpt lat="43.75417" lon="7.08287">
        <ele>827.40002441406</ele>
        <time>2023-07-30T06:59:32.000Z</time>
      </trkpt>
      <trkpt lat="43.75417" lon="7.08287">
        <ele>827.40002441406</ele>
        <time>2023-07-30T06:59:33.000Z</time>
      </trkpt>
      <trkpt lat="43.75417" lon="7.08287">
        <ele>827.40002441406</ele>
        <time>2023-07-30T06:59:34.000Z</time>
      </trkpt>
      <trkpt lat="43.75417" lon="7.08287">
        <ele>827.40002441406</ele>
        <time>2023-07-30T06:59:35.000Z</time>
      </trkpt>
      <trkpt lat="43.75417" lon="7.08287">
        <ele>827.40002441406</ele>
        <time>2023-07-30T06:59:36.000Z</time>
      </trkpt>
      <trkpt lat="43.75417" lon="7.08287">
        <ele>827.40002441406</ele>
        <time>2023-07-30T06:59:37.000Z</time>
      </trkpt>
      <trkpt lat="43.75417" lon="7.08287">
        <ele>827.40002441406</ele>
        <time>2023-07-30T06:59:38.000Z</time>
      </trkpt>
      <trkpt lat="43.75417" lon="7.08287">
        <ele>827.40002441406</ele>
        <time>2023-07-30T06:59:39.000Z</time>
      </trkpt>
      <trkpt lat="43.75417" lon="7.08287">
        <ele>827.40002441406</ele>
        <time>2023-07-30T06:59:40.000Z</time>
      </trkpt>
      <trkpt lat="43.75417" lon="7.08287">
        <ele>827.40002441406</ele>
        <time>2023-07-30T06:59:41.000Z</time>
      </trkpt>
      <trkpt lat="43.75417" lon="7.08287">
        <ele>827.40002441406</ele>
        <time>2023-07-30T06:59:42.000Z</time>
      </trkpt>
      <trkpt lat="43.75417" lon="7.08287">
        <ele>827.40002441406</ele>
        <time>2023-07-30T06:59:43.000Z</time>
      </trkpt>
      <trkpt lat="43.75417" lon="7.08287">
        <ele>827.40002441406</ele>
        <time>2023-07-30T06:59:44.000Z</time>
      </trkpt>
      <trkpt lat="43.75417" lon="7.08287">
        <ele>827.40002441406</ele>
        <time>2023-07-30T06:59:45.000Z</time>
      </trkpt>
      <trkpt lat="43.75417" lon="7.08287">
        <ele>827.40002441406</ele>
        <time>2023-07-30T06:59:46.000Z</time>
      </trkpt>
      <trkpt lat="43.75417" lon="7.08287">
        <ele>827.40002441406</ele>
        <time>2023-07-30T06:59:47.000Z</time>
      </trkpt>
      <trkpt lat="43.75417" lon="7.08287">
        <ele>827.40002441406</ele>
        <time>2023-07-30T06:59:48.000Z</time>
      </trkpt>
      <trkpt lat="43.75417" lon="7.08287">
        <ele>827.40002441406</ele>
        <time>2023-07-30T06:59:49.000Z</time>
      </trkpt>
      <trkpt lat="43.75417" lon="7.08287">
        <ele>827.40002441406</ele>
        <time>2023-07-30T06:59:50.000Z</time>
      </trkpt>
      <trkpt lat="43.75417" lon="7.08287">
        <ele>827.40002441406</ele>
        <time>2023-07-30T06:59:51.000Z</time>
      </trkpt>
      <trkpt lat="43.75417" lon="7.08287">
        <ele>827.40002441406</ele>
        <time>2023-07-30T06:59:52.000Z</time>
      </trkpt>
      <trkpt lat="43.75417" lon="7.08287">
        <ele>827.40002441406</ele>
        <time>2023-07-30T06:59:53.000Z</time>
      </trkpt>
      <trkpt lat="43.75417" lon="7.08287">
        <ele>827.40002441406</ele>
        <time>2023-07-30T06:59:54.000Z</time>
      </trkpt>
      <trkpt lat="43.75417" lon="7.08287">
        <ele>827.40002441406</ele>
        <time>2023-07-30T06:59:55.000Z</time>
      </trkpt>
      <trkpt lat="43.75417" lon="7.08287">
        <ele>827.40002441406</ele>
        <time>2023-07-30T06:59:56.000Z</time>
      </trkpt>
      <trkpt lat="43.75417" lon="7.08287">
        <ele>827.40002441406</ele>
        <time>2023-07-30T06:59:57.000Z</time>
      </trkpt>
      <trkpt lat="43.75417" lon="7.08287">
        <ele>827.40002441406</ele>
        <time>2023-07-30T06:59:58.000Z</time>
      </trkpt>
      <trkpt lat="43.75417" lon="7.08287">
        <ele>827.40002441406</ele>
        <time>2023-07-30T06:59:59.000Z</time>
      </trkpt>
      <trkpt lat="43.75417" lon="7.08287">
        <ele>827.40002441406</ele>
        <time>2023-07-30T07:00:00.000Z</time>
      </trkpt>
      <trkpt lat="43.75417" lon="7.08287">
        <ele>827.40002441406</ele>
        <time>2023-07-30T07:00:01.000Z</time>
      </trkpt>
      <trkpt lat="43.75417" lon="7.08287">
        <ele>827.40002441406</ele>
        <time>2023-07-30T07:00:02.000Z</time>
      </trkpt>
      <trkpt lat="43.75417" lon="7.08287">
        <ele>827.40002441406</ele>
        <time>2023-07-30T07:00:03.000Z</time>
      </trkpt>
      <trkpt lat="43.75417" lon="7.08287">
        <ele>827.40002441406</ele>
        <time>2023-07-30T07:00:04.000Z</time>
      </trkpt>
      <trkpt lat="43.75417" lon="7.08287">
        <ele>827.40002441406</ele>
        <time>2023-07-30T07:00:05.000Z</time>
      </trkpt>
      <trkpt lat="43.75417" lon="7.08287">
        <ele>827.40002441406</ele>
        <time>2023-07-30T07:00:06.000Z</time>
      </trkpt>
      <trkpt lat="43.75417" lon="7.08287">
        <ele>827.40002441406</ele>
        <time>2023-07-30T07:00:07.000Z</time>
      </trkpt>
      <trkpt lat="43.75417" lon="7.08287">
        <ele>827.40002441406</ele>
        <time>2023-07-30T07:00:08.000Z</time>
      </trkpt>
      <trkpt lat="43.75417" lon="7.08287">
        <ele>827.40002441406</ele>
        <time>2023-07-30T07:00:09.000Z</time>
      </trkpt>
      <trkpt lat="43.75417" lon="7.08287">
        <ele>827.40002441406</ele>
        <time>2023-07-30T07:00:10.000Z</time>
      </trkpt>
      <trkpt lat="43.75417" lon="7.08287">
        <ele>827.40002441406</ele>
        <time>2023-07-30T07:00:11.000Z</time>
      </trkpt>
      <trkpt lat="43.75417" lon="7.08287">
        <ele>827.40002441406</ele>
        <time>2023-07-30T07:00:12.000Z</time>
      </trkpt>
      <trkpt lat="43.75417" lon="7.08287">
        <ele>827.40002441406</ele>
        <time>2023-07-30T07:00:13.000Z</time>
      </trkpt>
      <trkpt lat="43.75417" lon="7.08287">
        <ele>827.40002441406</ele>
        <time>2023-07-30T07:00:14.000Z</time>
      </trkpt>
      <trkpt lat="43.75417" lon="7.08287">
        <ele>827.40002441406</ele>
        <time>2023-07-30T07:00:15.000Z</time>
      </trkpt>
      <trkpt lat="43.75417" lon="7.08287">
        <ele>827.40002441406</ele>
        <time>2023-07-30T07:00:16.000Z</time>
      </trkpt>
      <trkpt lat="43.75417" lon="7.08287">
        <ele>827.40002441406</ele>
        <time>2023-07-30T07:00:17.000Z</time>
      </trkpt>
      <trkpt lat="43.75417" lon="7.08287">
        <ele>827.40002441406</ele>
        <time>2023-07-30T07:00:18.000Z</time>
      </trkpt>
      <trkpt lat="43.75417" lon="7.08287">
        <ele>827.40002441406</ele>
        <time>2023-07-30T07:00:19.000Z</time>
      </trkpt>
      <trkpt lat="43.75417" lon="7.08287">
        <ele>827.40002441406</ele>
        <time>2023-07-30T07:00:20.000Z</time>
      </trkpt>
      <trkpt lat="43.75417" lon="7.08287">
        <ele>827.40002441406</ele>
        <time>2023-07-30T07:00:21.000Z</time>
      </trkpt>
      <trkpt lat="43.75417" lon="7.08287">
        <ele>827.40002441406</ele>
        <time>2023-07-30T07:00:22.000Z</time>
      </trkpt>
      <trkpt lat="43.75417" lon="7.08287">
        <ele>827.40002441406</ele>
        <time>2023-07-30T07:00:23.000Z</time>
      </trkpt>
      <trkpt lat="43.75417" lon="7.08287">
        <ele>827.40002441406</ele>
        <time>2023-07-30T07:00:24.000Z</time>
      </trkpt>
      <trkpt lat="43.75417" lon="7.08287">
        <ele>827.40002441406</ele>
        <time>2023-07-30T07:00:25.000Z</time>
      </trkpt>
      <trkpt lat="43.75417" lon="7.08287">
        <ele>827.40002441406</ele>
        <time>2023-07-30T07:00:26.000Z</time>
      </trkpt>
      <trkpt lat="43.75417" lon="7.08287">
        <ele>827.40002441406</ele>
        <time>2023-07-30T07:00:27.000Z</time>
      </trkpt>
      <trkpt lat="43.75417" lon="7.08287">
        <ele>827.40002441406</ele>
        <time>2023-07-30T07:00:28.000Z</time>
      </trkpt>
      <trkpt lat="43.75417" lon="7.08287">
        <ele>827.40002441406</ele>
        <time>2023-07-30T07:00:29.000Z</time>
      </trkpt>
      <trkpt lat="43.75417" lon="7.08287">
        <ele>827.40002441406</ele>
        <time>2023-07-30T07:00:30.000Z</time>
      </trkpt>
      <trkpt lat="43.75417" lon="7.08287">
        <ele>827.40002441406</ele>
        <time>2023-07-30T07:00:31.000Z</time>
      </trkpt>
      <trkpt lat="43.75417" lon="7.08287">
        <ele>827.40002441406</ele>
        <time>2023-07-30T07:00:32.000Z</time>
      </trkpt>
      <trkpt lat="43.75417" lon="7.08287">
        <ele>827.40002441406</ele>
        <time>2023-07-30T07:00:33.000Z</time>
      </trkpt>
      <trkpt lat="43.75417" lon="7.08287">
        <ele>827.40002441406</ele>
        <time>2023-07-30T07:00:34.000Z</time>
      </trkpt>
      <trkpt lat="43.75417" lon="7.08287">
        <ele>827.40002441406</ele>
        <time>2023-07-30T07:00:35.000Z</time>
      </trkpt>
      <trkpt lat="43.75417" lon="7.08287">
        <ele>827.40002441406</ele>
        <time>2023-07-30T07:00:36.000Z</time>
      </trkpt>
      <trkpt lat="43.75417" lon="7.08287">
        <ele>827.40002441406</ele>
        <time>2023-07-30T07:00:37.000Z</time>
      </trkpt>
      <trkpt lat="43.75417" lon="7.08287">
        <ele>827.40002441406</ele>
        <time>2023-07-30T07:00:38.000Z</time>
      </trkpt>
      <trkpt lat="43.75417" lon="7.08287">
        <ele>827.40002441406</ele>
        <time>2023-07-30T07:00:39.000Z</time>
      </trkpt>
      <trkpt lat="43.75417" lon="7.08287">
        <ele>827.40002441406</ele>
        <time>2023-07-30T07:00:40.000Z</time>
      </trkpt>
      <trkpt lat="43.75417" lon="7.08287">
        <ele>827.40002441406</ele>
        <time>2023-07-30T07:00:41.000Z</time>
      </trkpt>
      <trkpt lat="43.75417" lon="7.08287">
        <ele>827.40002441406</ele>
        <time>2023-07-30T07:00:42.000Z</time>
      </trkpt>
      <trkpt lat="43.75417" lon="7.08287">
        <ele>827.40002441406</ele>
        <time>2023-07-30T07:00:43.000Z</time>
      </trkpt>
      <trkpt lat="43.75417" lon="7.08287">
        <ele>827.40002441406</ele>
        <time>2023-07-30T07:00:44.000Z</time>
      </trkpt>
      <trkpt lat="43.75417" lon="7.08287">
        <ele>827.40002441406</ele>
        <time>2023-07-30T07:00:45.000Z</time>
      </trkpt>
      <trkpt lat="43.75417" lon="7.08287">
        <ele>827.40002441406</ele>
        <time>2023-07-30T07:00:46.000Z</time>
      </trkpt>
      <trkpt lat="43.75417" lon="7.08287">
        <ele>827.40002441406</ele>
        <time>2023-07-30T07:00:47.000Z</time>
      </trkpt>
      <trkpt lat="43.75417" lon="7.08287">
        <ele>827.40002441406</ele>
        <time>2023-07-30T07:00:48.000Z</time>
      </trkpt>
      <trkpt lat="43.75417" lon="7.08287">
        <ele>827.40002441406</ele>
        <time>2023-07-30T07:00:49.000Z</time>
      </trkpt>
      <trkpt lat="43.75417" lon="7.08287">
        <ele>827.40002441406</ele>
        <time>2023-07-30T07:00:50.000Z</time>
      </trkpt>
      <trkpt lat="43.75417" lon="7.08287">
        <ele>827.40002441406</ele>
        <time>2023-07-30T07:00:51.000Z</time>
      </trkpt>
      <trkpt lat="43.75417" lon="7.08287">
        <ele>827.40002441406</ele>
        <time>2023-07-30T07:00:52.000Z</time>
      </trkpt>
      <trkpt lat="43.75417" lon="7.08287">
        <ele>827.40002441406</ele>
        <time>2023-07-30T07:00:53.000Z</time>
      </trkpt>
      <trkpt lat="43.75417" lon="7.08287">
        <ele>827.40002441406</ele>
        <time>2023-07-30T07:00:54.000Z</time>
      </trkpt>
      <trkpt lat="43.75417" lon="7.08287">
        <ele>827.40002441406</ele>
        <time>2023-07-30T07:00:55.000Z</time>
      </trkpt>
      <trkpt lat="43.75417" lon="7.08287">
        <ele>827.40002441406</ele>
        <time>2023-07-30T07:00:56.000Z</time>
      </trkpt>
      <trkpt lat="43.75417" lon="7.08287">
        <ele>827.40002441406</ele>
        <time>2023-07-30T07:00:57.000Z</time>
      </trkpt>
      <trkpt lat="43.75417" lon="7.08287">
        <ele>827.40002441406</ele>
        <time>2023-07-30T07:00:58.000Z</time>
      </trkpt>
      <trkpt lat="43.75417" lon="7.08287">
        <ele>827.40002441406</ele>
        <time>2023-07-30T07:00:59.000Z</time>
      </trkpt>
      <trkpt lat="43.75417" lon="7.08287">
        <ele>827.40002441406</ele>
        <time>2023-07-30T07:01:00.000Z</time>
      </trkpt>
      <trkpt lat="43.75417" lon="7.08287">
        <ele>827.40002441406</ele>
        <time>2023-07-30T07:01:01.000Z</time>
      </trkpt>
      <trkpt lat="43.75417" lon="7.08287">
        <ele>827.40002441406</ele>
        <time>2023-07-30T07:01:02.000Z</time>
      </trkpt>
      <trkpt lat="43.75417" lon="7.08287">
        <ele>827.40002441406</ele>
        <time>2023-07-30T07:01:03.000Z</time>
      </trkpt>
      <trkpt lat="43.75417" lon="7.08287">
        <ele>827.40002441406</ele>
        <time>2023-07-30T07:01:04.000Z</time>
      </trkpt>
      <trkpt lat="43.75417" lon="7.08287">
        <ele>827.40002441406</ele>
        <time>2023-07-30T07:01:05.000Z</time>
      </trkpt>
      <trkpt lat="43.75417" lon="7.08287">
        <ele>827.40002441406</ele>
        <time>2023-07-30T07:01:06.000Z</time>
      </trkpt>
      <trkpt lat="43.75417" lon="7.08287">
        <ele>827.40002441406</ele>
        <time>2023-07-30T07:01:07.000Z</time>
      </trkpt>
      <trkpt lat="43.75417" lon="7.08287">
        <ele>827.40002441406</ele>
        <time>2023-07-30T07:01:08.000Z</time>
      </trkpt>
      <trkpt lat="43.75417" lon="7.08287">
        <ele>827.40002441406</ele>
        <time>2023-07-30T07:01:09.000Z</time>
      </trkpt>
      <trkpt lat="43.75417" lon="7.08287">
        <ele>827.40002441406</ele>
        <time>2023-07-30T07:01:10.000Z</time>
      </trkpt>
      <trkpt lat="43.75416" lon="7.08288">
        <ele>827.40002441406</ele>
        <time>2023-07-30T07:01:11.000Z</time>
      </trkpt>
      <trkpt lat="43.75416" lon="7.08288">
        <ele>827.40002441406</ele>
        <time>2023-07-30T07:01:12.000Z</time>
      </trkpt>
      <trkpt lat="43.75417" lon="7.08288">
        <ele>827.40002441406</ele>
        <time>2023-07-30T07:01:13.000Z</time>
      </trkpt>
      <trkpt lat="43.75417" lon="7.08288">
        <ele>827.40002441406</ele>
        <time>2023-07-30T07:01:14.000Z</time>
      </trkpt>
      <trkpt lat="43.75417" lon="7.08288">
        <ele>827.40002441406</ele>
        <time>2023-07-30T07:01:15.000Z</time>
      </trkpt>
      <trkpt lat="43.75417" lon="7.08288">
        <ele>827.40002441406</ele>
        <time>2023-07-30T07:01:16.000Z</time>
      </trkpt>
      <trkpt lat="43.75417" lon="7.08288">
        <ele>827.40002441406</ele>
        <time>2023-07-30T07:01:17.000Z</time>
      </trkpt>
      <trkpt lat="43.75417" lon="7.08288">
        <ele>827.40002441406</ele>
        <time>2023-07-30T07:01:18.000Z</time>
      </trkpt>
      <trkpt lat="43.75417" lon="7.08288">
        <ele>827.40002441406</ele>
        <time>2023-07-30T07:01:19.000Z</time>
      </trkpt>
      <trkpt lat="43.75417" lon="7.08288">
        <ele>827.40002441406</ele>
        <time>2023-07-30T07:01:20.000Z</time>
      </trkpt>
      <trkpt lat="43.75417" lon="7.08288">
        <ele>827.40002441406</ele>
        <time>2023-07-30T07:01:21.000Z</time>
      </trkpt>
      <trkpt lat="43.75418" lon="7.08288">
        <ele>827.40002441406</ele>
        <time>2023-07-30T07:01:22.000Z</time>
      </trkpt>
      <trkpt lat="43.75418" lon="7.08286">
        <ele>827.40002441406</ele>
        <time>2023-07-30T07:01:23.000Z</time>
      </trkpt>
      <trkpt lat="43.75419" lon="7.08285">
        <ele>827.59997558594</ele>
        <time>2023-07-30T07:01:24.000Z</time>
      </trkpt>
      <trkpt lat="43.7542" lon="7.08283">
        <ele>827.59997558594</ele>
        <time>2023-07-30T07:01:25.000Z</time>
      </trkpt>
      <trkpt lat="43.75422" lon="7.08282">
        <ele>827.59997558594</ele>
        <time>2023-07-30T07:01:26.000Z</time>
      </trkpt>
      <trkpt lat="43.75423" lon="7.08279">
        <ele>827.59997558594</ele>
        <time>2023-07-30T07:01:27.000Z</time>
      </trkpt>
      <trkpt lat="43.75424" lon="7.08277">
        <ele>827.79998779297</ele>
        <time>2023-07-30T07:01:28.000Z</time>
      </trkpt>
      <trkpt lat="43.75424" lon="7.08275">
        <ele>828</ele>
        <time>2023-07-30T07:01:29.000Z</time>
      </trkpt>
      <trkpt lat="43.75425" lon="7.08272">
        <ele>828.20001220703</ele>
        <time>2023-07-30T07:01:30.000Z</time>
      </trkpt>
      <trkpt lat="43.75426" lon="7.08269">
        <ele>828.40002441406</ele>
        <time>2023-07-30T07:01:31.000Z</time>
      </trkpt>
      <trkpt lat="43.75427" lon="7.08266">
        <ele>828.79998779297</ele>
        <time>2023-07-30T07:01:32.000Z</time>
      </trkpt>
      <trkpt lat="43.75428" lon="7.08264">
        <ele>828.79998779297</ele>
        <time>2023-07-30T07:01:33.000Z</time>
      </trkpt>
      <trkpt lat="43.75428" lon="7.08261">
        <ele>829</ele>
        <time>2023-07-30T07:01:34.000Z</time>
      </trkpt>
      <trkpt lat="43.7543" lon="7.08258">
        <ele>829.20001220703</ele>
        <time>2023-07-30T07:01:35.000Z</time>
      </trkpt>
      <trkpt lat="43.75431" lon="7.08256">
        <ele>829.59997558594</ele>
        <time>2023-07-30T07:01:36.000Z</time>
      </trkpt>
      <trkpt lat="43.75431" lon="7.08252">
        <ele>829.59997558594</ele>
        <time>2023-07-30T07:01:37.000Z</time>
      </trkpt>
      <trkpt lat="43.75432" lon="7.08249">
        <ele>829.79998779297</ele>
        <time>2023-07-30T07:01:38.000Z</time>
      </trkpt>
      <trkpt lat="43.75434" lon="7.08246">
        <ele>830.40002441406</ele>
        <time>2023-07-30T07:01:39.000Z</time>
      </trkpt>
      <trkpt lat="43.75434" lon="7.08243">
        <ele>830.40002441406</ele>
        <time>2023-07-30T07:01:40.000Z</time>
      </trkpt>
      <trkpt lat="43.75435" lon="7.0824">
        <ele>830.79998779297</ele>
        <time>2023-07-30T07:01:41.000Z</time>
      </trkpt>
      <trkpt lat="43.75436" lon="7.08237">
        <ele>831.20001220703</ele>
        <time>2023-07-30T07:01:42.000Z</time>
      </trkpt>
      <trkpt lat="43.75437" lon="7.08235">
        <ele>831.40002441406</ele>
        <time>2023-07-30T07:01:43.000Z</time>
      </trkpt>
      <trkpt lat="43.75438" lon="7.08232">
        <ele>831.79998779297</ele>
        <time>2023-07-30T07:01:44.000Z</time>
      </trkpt>
      <trkpt lat="43.75439" lon="7.08229">
        <ele>832.40002441406</ele>
        <time>2023-07-30T07:01:45.000Z</time>
      </trkpt>
      <trkpt lat="43.75439" lon="7.08227">
        <ele>832.59997558594</ele>
        <time>2023-07-30T07:01:46.000Z</time>
      </trkpt>
      <trkpt lat="43.75439" lon="7.08225">
        <ele>833</ele>
        <time>2023-07-30T07:01:47.000Z</time>
      </trkpt>
      <trkpt lat="43.75439" lon="7.08223">
        <ele>833.20001220703</ele>
        <time>2023-07-30T07:01:48.000Z</time>
      </trkpt>
      <trkpt lat="43.75441" lon="7.08221">
        <ele>833.59997558594</ele>
        <time>2023-07-30T07:01:49.000Z</time>
      </trkpt>
      <trkpt lat="43.75442" lon="7.0822">
        <ele>833.79998779297</ele>
        <time>2023-07-30T07:01:50.000Z</time>
      </trkpt>
      <trkpt lat="43.75443" lon="7.08218">
        <ele>834</ele>
        <time>2023-07-30T07:01:51.000Z</time>
      </trkpt>
      <trkpt lat="43.75444" lon="7.08216">
        <ele>834.40002441406</ele>
        <time>2023-07-30T07:01:52.000Z</time>
      </trkpt>
      <trkpt lat="43.75446" lon="7.08213">
        <ele>834.59997558594</ele>
        <time>2023-07-30T07:01:53.000Z</time>
      </trkpt>
      <trkpt lat="43.75447" lon="7.08211">
        <ele>834.79998779297</ele>
        <time>2023-07-30T07:01:54.000Z</time>
      </trkpt>
      <trkpt lat="43.75448" lon="7.08209">
        <ele>835.20001220703</ele>
        <time>2023-07-30T07:01:55.000Z</time>
      </trkpt>
      <trkpt lat="43.75449" lon="7.08207">
        <ele>835.40002441406</ele>
        <time>2023-07-30T07:01:56.000Z</time>
      </trkpt>
      <trkpt lat="43.7545" lon="7.08205">
        <ele>835.79998779297</ele>
        <time>2023-07-30T07:01:57.000Z</time>
      </trkpt>
      <trkpt lat="43.75452" lon="7.08202">
        <ele>835.79998779297</ele>
        <time>2023-07-30T07:01:58.000Z</time>
      </trkpt>
      <trkpt lat="43.75453" lon="7.082">
        <ele>836.20001220703</ele>
        <time>2023-07-30T07:01:59.000Z</time>
      </trkpt>
      <trkpt lat="43.75454" lon="7.08198">
        <ele>836.79998779297</ele>
        <time>2023-07-30T07:02:00.000Z</time>
      </trkpt>
      <trkpt lat="43.75456" lon="7.08196">
        <ele>836.79998779297</ele>
        <time>2023-07-30T07:02:01.000Z</time>
      </trkpt>
      <trkpt lat="43.75457" lon="7.08195">
        <ele>837.20001220703</ele>
        <time>2023-07-30T07:02:02.000Z</time>
      </trkpt>
      <trkpt lat="43.75459" lon="7.08193">
        <ele>837.59997558594</ele>
        <time>2023-07-30T07:02:03.000Z</time>
      </trkpt>
      <trkpt lat="43.7546" lon="7.08191">
        <ele>837.79998779297</ele>
        <time>2023-07-30T07:02:04.000Z</time>
      </trkpt>
      <trkpt lat="43.75462" lon="7.08189">
        <ele>838.20001220703</ele>
        <time>2023-07-30T07:02:05.000Z</time>
      </trkpt>
      <trkpt lat="43.75463" lon="7.08187">
        <ele>838.40002441406</ele>
        <time>2023-07-30T07:02:06.000Z</time>
      </trkpt>
      <trkpt lat="43.75465" lon="7.08185">
        <ele>838.59997558594</ele>
        <time>2023-07-30T07:02:07.000Z</time>
      </trkpt>
      <trkpt lat="43.75467" lon="7.08184">
        <ele>839</ele>
        <time>2023-07-30T07:02:08.000Z</time>
      </trkpt>
      <trkpt lat="43.75469" lon="7.08183">
        <ele>839.20001220703</ele>
        <time>2023-07-30T07:02:09.000Z</time>
      </trkpt>
      <trkpt lat="43.75471" lon="7.08182">
        <ele>839.79998779297</ele>
        <time>2023-07-30T07:02:10.000Z</time>
      </trkpt>
      <trkpt lat="43.75473" lon="7.0818">
        <ele>839.79998779297</ele>
        <time>2023-07-30T07:02:11.000Z</time>
      </trkpt>
      <trkpt lat="43.75474" lon="7.08179">
        <ele>840.20001220703</ele>
        <time>2023-07-30T07:02:12.000Z</time>
      </trkpt>
      <trkpt lat="43.75476" lon="7.08179">
        <ele>840.40002441406</ele>
        <time>2023-07-30T07:02:13.000Z</time>
      </trkpt>
      <trkpt lat="43.75478" lon="7.08177">
        <ele>840.40002441406</ele>
        <time>2023-07-30T07:02:14.000Z</time>
      </trkpt>
      <trkpt lat="43.7548" lon="7.08176">
        <ele>841</ele>
        <time>2023-07-30T07:02:15.000Z</time>
      </trkpt>
      <trkpt lat="43.75482" lon="7.08175">
        <ele>841.20001220703</ele>
        <time>2023-07-30T07:02:16.000Z</time>
      </trkpt>
      <trkpt lat="43.75484" lon="7.08174">
        <ele>841.40002441406</ele>
        <time>2023-07-30T07:02:17.000Z</time>
      </trkpt>
      <trkpt lat="43.75486" lon="7.08173">
        <ele>841.59997558594</ele>
        <time>2023-07-30T07:02:18.000Z</time>
      </trkpt>
      <trkpt lat="43.75487" lon="7.08172">
        <ele>842</ele>
        <time>2023-07-30T07:02:19.000Z</time>
      </trkpt>
      <trkpt lat="43.75489" lon="7.08172">
        <ele>842.20001220703</ele>
        <time>2023-07-30T07:02:20.000Z</time>
      </trkpt>
      <trkpt lat="43.75492" lon="7.08171">
        <ele>842.40002441406</ele>
        <time>2023-07-30T07:02:21.000Z</time>
      </trkpt>
      <trkpt lat="43.75494" lon="7.08171">
        <ele>842.40002441406</ele>
        <time>2023-07-30T07:02:22.000Z</time>
      </trkpt>
      <trkpt lat="43.75496" lon="7.0817">
        <ele>842.79998779297</ele>
        <time>2023-07-30T07:02:23.000Z</time>
      </trkpt>
      <trkpt lat="43.75498" lon="7.0817">
        <ele>843</ele>
        <time>2023-07-30T07:02:24.000Z</time>
      </trkpt>
      <trkpt lat="43.75501" lon="7.0817">
        <ele>843.40002441406</ele>
        <time>2023-07-30T07:02:25.000Z</time>
      </trkpt>
      <trkpt lat="43.75503" lon="7.08171">
        <ele>843.40002441406</ele>
        <time>2023-07-30T07:02:26.000Z</time>
      </trkpt>
      <trkpt lat="43.75505" lon="7.08171">
        <ele>844</ele>
        <time>2023-07-30T07:02:27.000Z</time>
      </trkpt>
      <trkpt lat="43.75507" lon="7.08171">
        <ele>844</ele>
        <time>2023-07-30T07:02:28.000Z</time>
      </trkpt>
      <trkpt lat="43.75509" lon="7.08171">
        <ele>844.20001220703</ele>
        <time>2023-07-30T07:02:29.000Z</time>
      </trkpt>
      <trkpt lat="43.75511" lon="7.08171">
        <ele>844.79998779297</ele>
        <time>2023-07-30T07:02:30.000Z</time>
      </trkpt>
      <trkpt lat="43.75513" lon="7.08172">
        <ele>844.79998779297</ele>
        <time>2023-07-30T07:02:31.000Z</time>
      </trkpt>
      <trkpt lat="43.75515" lon="7.08173">
        <ele>845</ele>
        <time>2023-07-30T07:02:32.000Z</time>
      </trkpt>
      <trkpt lat="43.75516" lon="7.08173">
        <ele>845.59997558594</ele>
        <time>2023-07-30T07:02:33.000Z</time>
      </trkpt>
      <trkpt lat="43.75518" lon="7.08174">
        <ele>845.59997558594</ele>
        <time>2023-07-30T07:02:34.000Z</time>
      </trkpt>
      <trkpt lat="43.7552" lon="7.08174">
        <ele>845.79998779297</ele>
        <time>2023-07-30T07:02:35.000Z</time>
      </trkpt>
      <trkpt lat="43.75522" lon="7.08174">
        <ele>846</ele>
        <time>2023-07-30T07:02:36.000Z</time>
      </trkpt>
      <trkpt lat="43.75524" lon="7.08174">
        <ele>846.40002441406</ele>
        <time>2023-07-30T07:02:37.000Z</time>
      </trkpt>
      <trkpt lat="43.75527" lon="7.08174">
        <ele>846.59997558594</ele>
        <time>2023-07-30T07:02:38.000Z</time>
      </trkpt>
      <trkpt lat="43.75529" lon="7.08173">
        <ele>846.79998779297</ele>
        <time>2023-07-30T07:02:39.000Z</time>
      </trkpt>
      <trkpt lat="43.75531" lon="7.08173">
        <ele>846.79998779297</ele>
        <time>2023-07-30T07:02:40.000Z</time>
      </trkpt>
      <trkpt lat="43.75533" lon="7.08173">
        <ele>847.20001220703</ele>
        <time>2023-07-30T07:02:41.000Z</time>
      </trkpt>
      <trkpt lat="43.75535" lon="7.08172">
        <ele>847.40002441406</ele>
        <time>2023-07-30T07:02:42.000Z</time>
      </trkpt>
      <trkpt lat="43.75537" lon="7.08172">
        <ele>847.40002441406</ele>
        <time>2023-07-30T07:02:43.000Z</time>
      </trkpt>
      <trkpt lat="43.75539" lon="7.08171">
        <ele>847.59997558594</ele>
        <time>2023-07-30T07:02:44.000Z</time>
      </trkpt>
      <trkpt lat="43.75541" lon="7.0817">
        <ele>847.79998779297</ele>
        <time>2023-07-30T07:02:45.000Z</time>
      </trkpt>
      <trkpt lat="43.75543" lon="7.0817">
        <ele>848</ele>
        <time>2023-07-30T07:02:46.000Z</time>
      </trkpt>
      <trkpt lat="43.75545" lon="7.08169">
        <ele>848</ele>
        <time>2023-07-30T07:02:47.000Z</time>
      </trkpt>
      <trkpt lat="43.75547" lon="7.08169">
        <ele>848.59997558594</ele>
        <time>2023-07-30T07:02:48.000Z</time>
      </trkpt>
      <trkpt lat="43.7555" lon="7.08169">
        <ele>848.79998779297</ele>
        <time>2023-07-30T07:02:49.000Z</time>
      </trkpt>
      <trkpt lat="43.75551" lon="7.08169">
        <ele>849</ele>
        <time>2023-07-30T07:02:50.000Z</time>
      </trkpt>
      <trkpt lat="43.75553" lon="7.08169">
        <ele>849.20001220703</ele>
        <time>2023-07-30T07:02:51.000Z</time>
      </trkpt>
      <trkpt lat="43.75556" lon="7.08169">
        <ele>849.40002441406</ele>
        <time>2023-07-30T07:02:52.000Z</time>
      </trkpt>
      <trkpt lat="43.75557" lon="7.08169">
        <ele>849.79998779297</ele>
        <time>2023-07-30T07:02:53.000Z</time>
      </trkpt>
      <trkpt lat="43.75559" lon="7.08169">
        <ele>850</ele>
        <time>2023-07-30T07:02:54.000Z</time>
      </trkpt>
      <trkpt lat="43.75561" lon="7.08169">
        <ele>850.20001220703</ele>
        <time>2023-07-30T07:02:55.000Z</time>
      </trkpt>
      <trkpt lat="43.75563" lon="7.08169">
        <ele>850.59997558594</ele>
        <time>2023-07-30T07:02:56.000Z</time>
      </trkpt>
      <trkpt lat="43.75565" lon="7.08169">
        <ele>850.59997558594</ele>
        <time>2023-07-30T07:02:57.000Z</time>
      </trkpt>
      <trkpt lat="43.75567" lon="7.08169">
        <ele>850.79998779297</ele>
        <time>2023-07-30T07:02:58.000Z</time>
      </trkpt>
      <trkpt lat="43.75569" lon="7.08169">
        <ele>851.20001220703</ele>
        <time>2023-07-30T07:02:59.000Z</time>
      </trkpt>
      <trkpt lat="43.75571" lon="7.08169">
        <ele>851.20001220703</ele>
        <time>2023-07-30T07:03:00.000Z</time>
      </trkpt>
      <trkpt lat="43.75573" lon="7.08169">
        <ele>851.40002441406</ele>
        <time>2023-07-30T07:03:01.000Z</time>
      </trkpt>
      <trkpt lat="43.75575" lon="7.08169">
        <ele>851.59997558594</ele>
        <time>2023-07-30T07:03:02.000Z</time>
      </trkpt>
      <trkpt lat="43.75578" lon="7.08168">
        <ele>851.79998779297</ele>
        <time>2023-07-30T07:03:03.000Z</time>
      </trkpt>
      <trkpt lat="43.7558" lon="7.08168">
        <ele>852</ele>
        <time>2023-07-30T07:03:04.000Z</time>
      </trkpt>
      <trkpt lat="43.75581" lon="7.08167">
        <ele>852.40002441406</ele>
        <time>2023-07-30T07:03:05.000Z</time>
      </trkpt>
      <trkpt lat="43.75583" lon="7.08167">
        <ele>852.40002441406</ele>
        <time>2023-07-30T07:03:06.000Z</time>
      </trkpt>
      <trkpt lat="43.75586" lon="7.08167">
        <ele>852.79998779297</ele>
        <time>2023-07-30T07:03:07.000Z</time>
      </trkpt>
      <trkpt lat="43.75588" lon="7.08167">
        <ele>853</ele>
        <time>2023-07-30T07:03:08.000Z</time>
      </trkpt>
      <trkpt lat="43.75589" lon="7.08167">
        <ele>853.40002441406</ele>
        <time>2023-07-30T07:03:09.000Z</time>
      </trkpt>
      <trkpt lat="43.75591" lon="7.08167">
        <ele>853.59997558594</ele>
        <time>2023-07-30T07:03:10.000Z</time>
      </trkpt>
      <trkpt lat="43.75593" lon="7.08167">
        <ele>853.59997558594</ele>
        <time>2023-07-30T07:03:11.000Z</time>
      </trkpt>
      <trkpt lat="43.75595" lon="7.08167">
        <ele>854.20001220703</ele>
        <time>2023-07-30T07:03:12.000Z</time>
      </trkpt>
      <trkpt lat="43.75597" lon="7.08168">
        <ele>854.20001220703</ele>
        <time>2023-07-30T07:03:13.000Z</time>
      </trkpt>
      <trkpt lat="43.75598" lon="7.08167">
        <ele>854.59997558594</ele>
        <time>2023-07-30T07:03:14.000Z</time>
      </trkpt>
      <trkpt lat="43.756" lon="7.08166">
        <ele>854.79998779297</ele>
        <time>2023-07-30T07:03:15.000Z</time>
      </trkpt>
      <trkpt lat="43.75601" lon="7.08166">
        <ele>855</ele>
        <time>2023-07-30T07:03:16.000Z</time>
      </trkpt>
      <trkpt lat="43.75603" lon="7.08167">
        <ele>855.20001220703</ele>
        <time>2023-07-30T07:03:17.000Z</time>
      </trkpt>
      <trkpt lat="43.75604" lon="7.08168">
        <ele>855.59997558594</ele>
        <time>2023-07-30T07:03:18.000Z</time>
      </trkpt>
      <trkpt lat="43.75606" lon="7.08169">
        <ele>855.79998779297</ele>
        <time>2023-07-30T07:03:19.000Z</time>
      </trkpt>
      <trkpt lat="43.75608" lon="7.08169">
        <ele>856</ele>
        <time>2023-07-30T07:03:20.000Z</time>
      </trkpt>
      <trkpt lat="43.7561" lon="7.08168">
        <ele>856.20001220703</ele>
        <time>2023-07-30T07:03:21.000Z</time>
      </trkpt>
      <trkpt lat="43.75612" lon="7.08168">
        <ele>856.40002441406</ele>
        <time>2023-07-30T07:03:22.000Z</time>
      </trkpt>
      <trkpt lat="43.75614" lon="7.08168">
        <ele>856.59997558594</ele>
        <time>2023-07-30T07:03:23.000Z</time>
      </trkpt>
      <trkpt lat="43.75616" lon="7.08168">
        <ele>856.59997558594</ele>
        <time>2023-07-30T07:03:24.000Z</time>
      </trkpt>
      <trkpt lat="43.75618" lon="7.08168">
        <ele>856.79998779297</ele>
        <time>2023-07-30T07:03:25.000Z</time>
      </trkpt>
      <trkpt lat="43.7562" lon="7.08167">
        <ele>857</ele>
        <time>2023-07-30T07:03:26.000Z</time>
      </trkpt>
      <trkpt lat="43.75622" lon="7.08166">
        <ele>857.40002441406</ele>
        <time>2023-07-30T07:03:27.000Z</time>
      </trkpt>
      <trkpt lat="43.75624" lon="7.08167">
        <ele>857.59997558594</ele>
        <time>2023-07-30T07:03:28.000Z</time>
      </trkpt>
      <trkpt lat="43.75626" lon="7.08167">
        <ele>858</ele>
        <time>2023-07-30T07:03:29.000Z</time>
      </trkpt>
      <trkpt lat="43.75628" lon="7.08167">
        <ele>858.40002441406</ele>
        <time>2023-07-30T07:03:30.000Z</time>
      </trkpt>
      <trkpt lat="43.7563" lon="7.08167">
        <ele>858.59997558594</ele>
        <time>2023-07-30T07:03:31.000Z</time>
      </trkpt>
      <trkpt lat="43.75632" lon="7.08166">
        <ele>858.79998779297</ele>
        <time>2023-07-30T07:03:32.000Z</time>
      </trkpt>
      <trkpt lat="43.75633" lon="7.08166">
        <ele>858.79998779297</ele>
        <time>2023-07-30T07:03:33.000Z</time>
      </trkpt>
      <trkpt lat="43.75636" lon="7.08166">
        <ele>859.40002441406</ele>
        <time>2023-07-30T07:03:34.000Z</time>
      </trkpt>
      <trkpt lat="43.75638" lon="7.08167">
        <ele>859.59997558594</ele>
        <time>2023-07-30T07:03:35.000Z</time>
      </trkpt>
      <trkpt lat="43.7564" lon="7.08167">
        <ele>859.59997558594</ele>
        <time>2023-07-30T07:03:36.000Z</time>
      </trkpt>
      <trkpt lat="43.75641" lon="7.08168">
        <ele>859.59997558594</ele>
        <time>2023-07-30T07:03:37.000Z</time>
      </trkpt>
      <trkpt lat="43.75643" lon="7.08168">
        <ele>860</ele>
        <time>2023-07-30T07:03:38.000Z</time>
      </trkpt>
      <trkpt lat="43.75645" lon="7.08168">
        <ele>860</ele>
        <time>2023-07-30T07:03:39.000Z</time>
      </trkpt>
      <trkpt lat="43.75648" lon="7.08168">
        <ele>860.20001220703</ele>
        <time>2023-07-30T07:03:40.000Z</time>
      </trkpt>
      <trkpt lat="43.7565" lon="7.08169">
        <ele>860.40002441406</ele>
        <time>2023-07-30T07:03:41.000Z</time>
      </trkpt>
      <trkpt lat="43.75652" lon="7.08169">
        <ele>860.59997558594</ele>
        <time>2023-07-30T07:03:42.000Z</time>
      </trkpt>
      <trkpt lat="43.75654" lon="7.08169">
        <ele>861</ele>
        <time>2023-07-30T07:03:43.000Z</time>
      </trkpt>
      <trkpt lat="43.75656" lon="7.08169">
        <ele>861</ele>
        <time>2023-07-30T07:03:44.000Z</time>
      </trkpt>
      <trkpt lat="43.75658" lon="7.08169">
        <ele>861.40002441406</ele>
        <time>2023-07-30T07:03:45.000Z</time>
      </trkpt>
      <trkpt lat="43.75661" lon="7.08169">
        <ele>861.59997558594</ele>
        <time>2023-07-30T07:03:46.000Z</time>
      </trkpt>
      <trkpt lat="43.75663" lon="7.08169">
        <ele>861.79998779297</ele>
        <time>2023-07-30T07:03:47.000Z</time>
      </trkpt>
      <trkpt lat="43.75665" lon="7.0817">
        <ele>862</ele>
        <time>2023-07-30T07:03:48.000Z</time>
      </trkpt>
      <trkpt lat="43.75667" lon="7.0817">
        <ele>862</ele>
        <time>2023-07-30T07:03:49.000Z</time>
      </trkpt>
      <trkpt lat="43.75669" lon="7.08171">
        <ele>862.40002441406</ele>
        <time>2023-07-30T07:03:50.000Z</time>
      </trkpt>
      <trkpt lat="43.75671" lon="7.08171">
        <ele>862.40002441406</ele>
        <time>2023-07-30T07:03:51.000Z</time>
      </trkpt>
      <trkpt lat="43.75673" lon="7.08171">
        <ele>862.59997558594</ele>
        <time>2023-07-30T07:03:52.000Z</time>
      </trkpt>
      <trkpt lat="43.75675" lon="7.08171">
        <ele>863.20001220703</ele>
        <time>2023-07-30T07:03:53.000Z</time>
      </trkpt>
      <trkpt lat="43.75678" lon="7.08171">
        <ele>863.40002441406</ele>
        <time>2023-07-30T07:03:54.000Z</time>
      </trkpt>
      <trkpt lat="43.7568" lon="7.0817">
        <ele>863.79998779297</ele>
        <time>2023-07-30T07:03:55.000Z</time>
      </trkpt>
      <trkpt lat="43.75682" lon="7.08169">
        <ele>864</ele>
        <time>2023-07-30T07:03:56.000Z</time>
      </trkpt>
      <trkpt lat="43.75684" lon="7.08169">
        <ele>864</ele>
        <time>2023-07-30T07:03:57.000Z</time>
      </trkpt>
      <trkpt lat="43.75686" lon="7.08168">
        <ele>864.40002441406</ele>
        <time>2023-07-30T07:03:58.000Z</time>
      </trkpt>
      <trkpt lat="43.75688" lon="7.08168">
        <ele>864.79998779297</ele>
        <time>2023-07-30T07:03:59.000Z</time>
      </trkpt>
      <trkpt lat="43.7569" lon="7.08168">
        <ele>864.79998779297</ele>
        <time>2023-07-30T07:04:00.000Z</time>
      </trkpt>
      <trkpt lat="43.75692" lon="7.08167">
        <ele>864.79998779297</ele>
        <time>2023-07-30T07:04:01.000Z</time>
      </trkpt>
      <trkpt lat="43.75694" lon="7.08167">
        <ele>864.79998779297</ele>
        <time>2023-07-30T07:04:02.000Z</time>
      </trkpt>
      <trkpt lat="43.75696" lon="7.08166">
        <ele>865.40002441406</ele>
        <time>2023-07-30T07:04:03.000Z</time>
      </trkpt>
      <trkpt lat="43.75698" lon="7.08166">
        <ele>865.59997558594</ele>
        <time>2023-07-30T07:04:04.000Z</time>
      </trkpt>
      <trkpt lat="43.757" lon="7.08166">
        <ele>865.79998779297</ele>
        <time>2023-07-30T07:04:05.000Z</time>
      </trkpt>
      <trkpt lat="43.75702" lon="7.08165">
        <ele>866.20001220703</ele>
        <time>2023-07-30T07:04:06.000Z</time>
      </trkpt>
      <trkpt lat="43.75704" lon="7.08165">
        <ele>866.40002441406</ele>
        <time>2023-07-30T07:04:07.000Z</time>
      </trkpt>
      <trkpt lat="43.75706" lon="7.08165">
        <ele>866.59997558594</ele>
        <time>2023-07-30T07:04:08.000Z</time>
      </trkpt>
      <trkpt lat="43.75708" lon="7.08165">
        <ele>866.79998779297</ele>
        <time>2023-07-30T07:04:09.000Z</time>
      </trkpt>
      <trkpt lat="43.7571" lon="7.08165">
        <ele>867.20001220703</ele>
        <time>2023-07-30T07:04:10.000Z</time>
      </trkpt>
      <trkpt lat="43.75712" lon="7.08164">
        <ele>867.79998779297</ele>
        <time>2023-07-30T07:04:11.000Z</time>
      </trkpt>
      <trkpt lat="43.75714" lon="7.08164">
        <ele>867.79998779297</ele>
        <time>2023-07-30T07:04:12.000Z</time>
      </trkpt>
      <trkpt lat="43.75717" lon="7.08163">
        <ele>868.20001220703</ele>
        <time>2023-07-30T07:04:13.000Z</time>
      </trkpt>
      <trkpt lat="43.75719" lon="7.08163">
        <ele>868.40002441406</ele>
        <time>2023-07-30T07:04:14.000Z</time>
      </trkpt>
      <trkpt lat="43.75721" lon="7.08162">
        <ele>868.79998779297</ele>
        <time>2023-07-30T07:04:15.000Z</time>
      </trkpt>
      <trkpt lat="43.75723" lon="7.08162">
        <ele>869</ele>
        <time>2023-07-30T07:04:16.000Z</time>
      </trkpt>
      <trkpt lat="43.75725" lon="7.0816">
        <ele>869.20001220703</ele>
        <time>2023-07-30T07:04:17.000Z</time>
      </trkpt>
      <trkpt lat="43.75726" lon="7.08159">
        <ele>869.59997558594</ele>
        <time>2023-07-30T07:04:18.000Z</time>
      </trkpt>
      <trkpt lat="43.75728" lon="7.08156">
        <ele>869.79998779297</ele>
        <time>2023-07-30T07:04:19.000Z</time>
      </trkpt>
      <trkpt lat="43.75728" lon="7.08154">
        <ele>870</ele>
        <time>2023-07-30T07:04:20.000Z</time>
      </trkpt>
      <trkpt lat="43.75727" lon="7.08154">
        <ele>870.40002441406</ele>
        <time>2023-07-30T07:04:21.000Z</time>
      </trkpt>
      <trkpt lat="43.75726" lon="7.08152">
        <ele>870.79998779297</ele>
        <time>2023-07-30T07:04:22.000Z</time>
      </trkpt>
      <trkpt lat="43.75724" lon="7.0815">
        <ele>871</ele>
        <time>2023-07-30T07:04:23.000Z</time>
      </trkpt>
      <trkpt lat="43.75723" lon="7.08148">
        <ele>871.20001220703</ele>
        <time>2023-07-30T07:04:24.000Z</time>
      </trkpt>
      <trkpt lat="43.75722" lon="7.08146">
        <ele>871.20001220703</ele>
        <time>2023-07-30T07:04:25.000Z</time>
      </trkpt>
      <trkpt lat="43.7572" lon="7.08143">
        <ele>871.59997558594</ele>
        <time>2023-07-30T07:04:26.000Z</time>
      </trkpt>
      <trkpt lat="43.75719" lon="7.08141">
        <ele>871.79998779297</ele>
        <time>2023-07-30T07:04:27.000Z</time>
      </trkpt>
      <trkpt lat="43.75718" lon="7.08139">
        <ele>872</ele>
        <time>2023-07-30T07:04:28.000Z</time>
      </trkpt>
      <trkpt lat="43.75717" lon="7.08136">
        <ele>872.40002441406</ele>
        <time>2023-07-30T07:04:29.000Z</time>
      </trkpt>
      <trkpt lat="43.75716" lon="7.08134">
        <ele>872.40002441406</ele>
        <time>2023-07-30T07:04:30.000Z</time>
      </trkpt>
      <trkpt lat="43.75714" lon="7.08132">
        <ele>872.79998779297</ele>
        <time>2023-07-30T07:04:31.000Z</time>
      </trkpt>
      <trkpt lat="43.75713" lon="7.08131">
        <ele>873.20001220703</ele>
        <time>2023-07-30T07:04:32.000Z</time>
      </trkpt>
      <trkpt lat="43.75712" lon="7.08128">
        <ele>873.20001220703</ele>
        <time>2023-07-30T07:04:33.000Z</time>
      </trkpt>
      <trkpt lat="43.75711" lon="7.08126">
        <ele>873.59997558594</ele>
        <time>2023-07-30T07:04:34.000Z</time>
      </trkpt>
      <trkpt lat="43.7571" lon="7.08123">
        <ele>874</ele>
        <time>2023-07-30T07:04:35.000Z</time>
      </trkpt>
      <trkpt lat="43.75709" lon="7.08121">
        <ele>874.40002441406</ele>
        <time>2023-07-30T07:04:36.000Z</time>
      </trkpt>
      <trkpt lat="43.75708" lon="7.08119">
        <ele>874.59997558594</ele>
        <time>2023-07-30T07:04:37.000Z</time>
      </trkpt>
      <trkpt lat="43.75707" lon="7.08116">
        <ele>875</ele>
        <time>2023-07-30T07:04:38.000Z</time>
      </trkpt>
      <trkpt lat="43.75706" lon="7.08115">
        <ele>875</ele>
        <time>2023-07-30T07:04:39.000Z</time>
      </trkpt>
      <trkpt lat="43.75705" lon="7.08113">
        <ele>875.40002441406</ele>
        <time>2023-07-30T07:04:40.000Z</time>
      </trkpt>
      <trkpt lat="43.75704" lon="7.0811">
        <ele>875.79998779297</ele>
        <time>2023-07-30T07:04:41.000Z</time>
      </trkpt>
      <trkpt lat="43.75704" lon="7.08107">
        <ele>876</ele>
        <time>2023-07-30T07:04:42.000Z</time>
      </trkpt>
      <trkpt lat="43.75705" lon="7.08105">
        <ele>876.40002441406</ele>
        <time>2023-07-30T07:04:43.000Z</time>
      </trkpt>
      <trkpt lat="43.75707" lon="7.08105">
        <ele>876.59997558594</ele>
        <time>2023-07-30T07:04:44.000Z</time>
      </trkpt>
      <trkpt lat="43.75709" lon="7.08105">
        <ele>876.79998779297</ele>
        <time>2023-07-30T07:04:45.000Z</time>
      </trkpt>
      <trkpt lat="43.7571" lon="7.08105">
        <ele>877.40002441406</ele>
        <time>2023-07-30T07:04:46.000Z</time>
      </trkpt>
      <trkpt lat="43.75712" lon="7.08105">
        <ele>877.40002441406</ele>
        <time>2023-07-30T07:04:47.000Z</time>
      </trkpt>
      <trkpt lat="43.75715" lon="7.08104">
        <ele>877.79998779297</ele>
        <time>2023-07-30T07:04:48.000Z</time>
      </trkpt>
      <trkpt lat="43.75717" lon="7.08104">
        <ele>877.79998779297</ele>
        <time>2023-07-30T07:04:49.000Z</time>
      </trkpt>
      <trkpt lat="43.75719" lon="7.08103">
        <ele>877.79998779297</ele>
        <time>2023-07-30T07:04:50.000Z</time>
      </trkpt>
      <trkpt lat="43.75721" lon="7.08103">
        <ele>878</ele>
        <time>2023-07-30T07:04:51.000Z</time>
      </trkpt>
      <trkpt lat="43.75722" lon="7.08104">
        <ele>878.40002441406</ele>
        <time>2023-07-30T07:04:52.000Z</time>
      </trkpt>
      <trkpt lat="43.75724" lon="7.08105">
        <ele>878.59997558594</ele>
        <time>2023-07-30T07:04:53.000Z</time>
      </trkpt>
      <trkpt lat="43.75726" lon="7.08104">
        <ele>878.79998779297</ele>
        <time>2023-07-30T07:04:54.000Z</time>
      </trkpt>
      <trkpt lat="43.75728" lon="7.08104">
        <ele>879</ele>
        <time>2023-07-30T07:04:55.000Z</time>
      </trkpt>
      <trkpt lat="43.75731" lon="7.08104">
        <ele>879.20001220703</ele>
        <time>2023-07-30T07:04:56.000Z</time>
      </trkpt>
      <trkpt lat="43.75733" lon="7.08103">
        <ele>879.59997558594</ele>
        <time>2023-07-30T07:04:57.000Z</time>
      </trkpt>
      <trkpt lat="43.75735" lon="7.08102">
        <ele>879.59997558594</ele>
        <time>2023-07-30T07:04:58.000Z</time>
      </trkpt>
      <trkpt lat="43.75737" lon="7.08102">
        <ele>879.79998779297</ele>
        <time>2023-07-30T07:04:59.000Z</time>
      </trkpt>
      <trkpt lat="43.75739" lon="7.08102">
        <ele>880.20001220703</ele>
        <time>2023-07-30T07:05:00.000Z</time>
      </trkpt>
      <trkpt lat="43.75741" lon="7.08101">
        <ele>880.40002441406</ele>
        <time>2023-07-30T07:05:01.000Z</time>
      </trkpt>
      <trkpt lat="43.75743" lon="7.08099">
        <ele>880.59997558594</ele>
        <time>2023-07-30T07:05:02.000Z</time>
      </trkpt>
      <trkpt lat="43.75745" lon="7.08098">
        <ele>881</ele>
        <time>2023-07-30T07:05:03.000Z</time>
      </trkpt>
      <trkpt lat="43.75746" lon="7.08097">
        <ele>881.40002441406</ele>
        <time>2023-07-30T07:05:04.000Z</time>
      </trkpt>
      <trkpt lat="43.75748" lon="7.08095">
        <ele>881.59997558594</ele>
        <time>2023-07-30T07:05:05.000Z</time>
      </trkpt>
      <trkpt lat="43.75749" lon="7.08093">
        <ele>882</ele>
        <time>2023-07-30T07:05:06.000Z</time>
      </trkpt>
      <trkpt lat="43.75749" lon="7.08091">
        <ele>882.20001220703</ele>
        <time>2023-07-30T07:05:07.000Z</time>
      </trkpt>
      <trkpt lat="43.75749" lon="7.08089">
        <ele>882.59997558594</ele>
        <time>2023-07-30T07:05:08.000Z</time>
      </trkpt>
      <trkpt lat="43.7575" lon="7.08087">
        <ele>883</ele>
        <time>2023-07-30T07:05:09.000Z</time>
      </trkpt>
      <trkpt lat="43.75751" lon="7.08087">
        <ele>883.59997558594</ele>
        <time>2023-07-30T07:05:10.000Z</time>
      </trkpt>
      <trkpt lat="43.75751" lon="7.08086">
        <ele>883.79998779297</ele>
        <time>2023-07-30T07:05:11.000Z</time>
      </trkpt>
      <trkpt lat="43.75751" lon="7.08085">
        <ele>884.20001220703</ele>
        <time>2023-07-30T07:05:12.000Z</time>
      </trkpt>
      <trkpt lat="43.75751" lon="7.08086">
        <ele>884.59997558594</ele>
        <time>2023-07-30T07:05:13.000Z</time>
      </trkpt>
      <trkpt lat="43.75751" lon="7.08086">
        <ele>885</ele>
        <time>2023-07-30T07:05:14.000Z</time>
      </trkpt>
      <trkpt lat="43.75751" lon="7.08085">
        <ele>885</ele>
        <time>2023-07-30T07:05:15.000Z</time>
      </trkpt>
      <trkpt lat="43.75751" lon="7.08085">
        <ele>885.20001220703</ele>
        <time>2023-07-30T07:05:16.000Z</time>
      </trkpt>
      <trkpt lat="43.75751" lon="7.08085">
        <ele>885.20001220703</ele>
        <time>2023-07-30T07:05:17.000Z</time>
      </trkpt>
      <trkpt lat="43.75751" lon="7.08085">
        <ele>885.20001220703</ele>
        <time>2023-07-30T07:05:18.000Z</time>
      </trkpt>
      <trkpt lat="43.75751" lon="7.08085">
        <ele>885.20001220703</ele>
        <time>2023-07-30T07:05:19.000Z</time>
      </trkpt>
      <trkpt lat="43.75751" lon="7.08085">
        <ele>885.40002441406</ele>
        <time>2023-07-30T07:05:20.000Z</time>
      </trkpt>
      <trkpt lat="43.75752" lon="7.08085">
        <ele>885.40002441406</ele>
        <time>2023-07-30T07:05:21.000Z</time>
      </trkpt>
      <trkpt lat="43.75752" lon="7.08084">
        <ele>885.40002441406</ele>
        <time>2023-07-30T07:05:22.000Z</time>
      </trkpt>
      <trkpt lat="43.75753" lon="7.08084">
        <ele>885.40002441406</ele>
        <time>2023-07-30T07:05:23.000Z</time>
      </trkpt>
      <trkpt lat="43.75753" lon="7.08083">
        <ele>885.59997558594</ele>
        <time>2023-07-30T07:05:24.000Z</time>
      </trkpt>
      <trkpt lat="43.75754" lon="7.08083">
        <ele>885.59997558594</ele>
        <time>2023-07-30T07:05:25.000Z</time>
      </trkpt>
      <trkpt lat="43.75753" lon="7.08083">
        <ele>885.79998779297</ele>
        <time>2023-07-30T07:05:26.000Z</time>
      </trkpt>
      <trkpt lat="43.75753" lon="7.08083">
        <ele>886</ele>
        <time>2023-07-30T07:05:27.000Z</time>
      </trkpt>
      <trkpt lat="43.75753" lon="7.08083">
        <ele>886</ele>
        <time>2023-07-30T07:05:28.000Z</time>
      </trkpt>
      <trkpt lat="43.75753" lon="7.08083">
        <ele>886.20001220703</ele>
        <time>2023-07-30T07:05:29.000Z</time>
      </trkpt>
      <trkpt lat="43.75753" lon="7.08083">
        <ele>886.20001220703</ele>
        <time>2023-07-30T07:05:30.000Z</time>
      </trkpt>
      <trkpt lat="43.75753" lon="7.08083">
        <ele>886.20001220703</ele>
        <time>2023-07-30T07:05:31.000Z</time>
      </trkpt>
      <trkpt lat="43.75753" lon="7.08083">
        <ele>886.20001220703</ele>
        <time>2023-07-30T07:05:32.000Z</time>
      </trkpt>
      <trkpt lat="43.75753" lon="7.08083">
        <ele>886</ele>
        <time>2023-07-30T07:05:33.000Z</time>
      </trkpt>
      <trkpt lat="43.75753" lon="7.08083">
        <ele>886</ele>
        <time>2023-07-30T07:05:34.000Z</time>
      </trkpt>
      <trkpt lat="43.75753" lon="7.08083">
        <ele>886</ele>
        <time>2023-07-30T07:05:35.000Z</time>
      </trkpt>
      <trkpt lat="43.75753" lon="7.08083">
        <ele>886</ele>
        <time>2023-07-30T07:05:36.000Z</time>
      </trkpt>
      <trkpt lat="43.75754" lon="7.08083">
        <ele>886</ele>
        <time>2023-07-30T07:05:37.000Z</time>
      </trkpt>
      <trkpt lat="43.75754" lon="7.08083">
        <ele>886</ele>
        <time>2023-07-30T07:05:38.000Z</time>
      </trkpt>
      <trkpt lat="43.75754" lon="7.08083">
        <ele>886</ele>
        <time>2023-07-30T07:05:39.000Z</time>
      </trkpt>
      <trkpt lat="43.75754" lon="7.08083">
        <ele>886</ele>
        <time>2023-07-30T07:05:40.000Z</time>
      </trkpt>
      <trkpt lat="43.75754" lon="7.08083">
        <ele>886</ele>
        <time>2023-07-30T07:05:41.000Z</time>
      </trkpt>
      <trkpt lat="43.75754" lon="7.08083">
        <ele>886</ele>
        <time>2023-07-30T07:05:42.000Z</time>
      </trkpt>
      <trkpt lat="43.75754" lon="7.08083">
        <ele>886</ele>
        <time>2023-07-30T07:05:43.000Z</time>
      </trkpt>
      <trkpt lat="43.75754" lon="7.08083">
        <ele>886</ele>
        <time>2023-07-30T07:05:44.000Z</time>
      </trkpt>
      <trkpt lat="43.75754" lon="7.08083">
        <ele>886.20001220703</ele>
        <time>2023-07-30T07:05:45.000Z</time>
      </trkpt>
      <trkpt lat="43.75754" lon="7.08083">
        <ele>886.20001220703</ele>
        <time>2023-07-30T07:05:46.000Z</time>
      </trkpt>
      <trkpt lat="43.75754" lon="7.08083">
        <ele>886.20001220703</ele>
        <time>2023-07-30T07:05:47.000Z</time>
      </trkpt>
      <trkpt lat="43.75754" lon="7.08083">
        <ele>886.20001220703</ele>
        <time>2023-07-30T07:05:48.000Z</time>
      </trkpt>
      <trkpt lat="43.75754" lon="7.08083">
        <ele>886.20001220703</ele>
        <time>2023-07-30T07:05:49.000Z</time>
      </trkpt>
      <trkpt lat="43.75754" lon="7.08084">
        <ele>886.20001220703</ele>
        <time>2023-07-30T07:05:50.000Z</time>
      </trkpt>
      <trkpt lat="43.75754" lon="7.08084">
        <ele>886.20001220703</ele>
        <time>2023-07-30T07:05:51.000Z</time>
      </trkpt>
      <trkpt lat="43.75754" lon="7.08084">
        <ele>886.20001220703</ele>
        <time>2023-07-30T07:05:52.000Z</time>
      </trkpt>
      <trkpt lat="43.75754" lon="7.08085">
        <ele>886.20001220703</ele>
        <time>2023-07-30T07:05:53.000Z</time>
      </trkpt>
      <trkpt lat="43.75754" lon="7.08085">
        <ele>886.20001220703</ele>
        <time>2023-07-30T07:05:54.000Z</time>
      </trkpt>
      <trkpt lat="43.75754" lon="7.08085">
        <ele>886.20001220703</ele>
        <time>2023-07-30T07:05:55.000Z</time>
      </trkpt>
      <trkpt lat="43.75754" lon="7.08085">
        <ele>886.20001220703</ele>
        <time>2023-07-30T07:05:56.000Z</time>
      </trkpt>
      <trkpt lat="43.75754" lon="7.08085">
        <ele>886.20001220703</ele>
        <time>2023-07-30T07:05:57.000Z</time>
      </trkpt>
      <trkpt lat="43.75754" lon="7.08085">
        <ele>886.20001220703</ele>
        <time>2023-07-30T07:05:58.000Z</time>
      </trkpt>
      <trkpt lat="43.75754" lon="7.08085">
        <ele>886.20001220703</ele>
        <time>2023-07-30T07:05:59.000Z</time>
      </trkpt>
      <trkpt lat="43.75754" lon="7.08085">
        <ele>886.40002441406</ele>
        <time>2023-07-30T07:06:00.000Z</time>
      </trkpt>
      <trkpt lat="43.75754" lon="7.08085">
        <ele>886.40002441406</ele>
        <time>2023-07-30T07:06:01.000Z</time>
      </trkpt>
      <trkpt lat="43.75754" lon="7.08085">
        <ele>886.40002441406</ele>
        <time>2023-07-30T07:06:02.000Z</time>
      </trkpt>
      <trkpt lat="43.75754" lon="7.08085">
        <ele>886.20001220703</ele>
        <time>2023-07-30T07:06:03.000Z</time>
      </trkpt>
      <trkpt lat="43.75754" lon="7.08085">
        <ele>886.20001220703</ele>
        <time>2023-07-30T07:06:04.000Z</time>
      </trkpt>
      <trkpt lat="43.75754" lon="7.08085">
        <ele>886.20001220703</ele>
        <time>2023-07-30T07:06:05.000Z</time>
      </trkpt>
      <trkpt lat="43.75754" lon="7.08085">
        <ele>886.20001220703</ele>
        <time>2023-07-30T07:06:06.000Z</time>
      </trkpt>
      <trkpt lat="43.75754" lon="7.08085">
        <ele>886.20001220703</ele>
        <time>2023-07-30T07:06:07.000Z</time>
      </trkpt>
      <trkpt lat="43.75754" lon="7.08085">
        <ele>886.20001220703</ele>
        <time>2023-07-30T07:06:08.000Z</time>
      </trkpt>
      <trkpt lat="43.75754" lon="7.08085">
        <ele>886.20001220703</ele>
        <time>2023-07-30T07:06:09.000Z</time>
      </trkpt>
      <trkpt lat="43.75754" lon="7.08085">
        <ele>886.40002441406</ele>
        <time>2023-07-30T07:06:10.000Z</time>
      </trkpt>
      <trkpt lat="43.75754" lon="7.08085">
        <ele>886.40002441406</ele>
        <time>2023-07-30T07:06:11.000Z</time>
      </trkpt>
      <trkpt lat="43.75754" lon="7.08085">
        <ele>886.40002441406</ele>
        <time>2023-07-30T07:06:12.000Z</time>
      </trkpt>
      <trkpt lat="43.75754" lon="7.08085">
        <ele>886.40002441406</ele>
        <time>2023-07-30T07:06:13.000Z</time>
      </trkpt>
      <trkpt lat="43.75754" lon="7.08085">
        <ele>886.40002441406</ele>
        <time>2023-07-30T07:06:14.000Z</time>
      </trkpt>
      <trkpt lat="43.75754" lon="7.08085">
        <ele>886.20001220703</ele>
        <time>2023-07-30T07:06:15.000Z</time>
      </trkpt>
      <trkpt lat="43.75754" lon="7.08085">
        <ele>886.20001220703</ele>
        <time>2023-07-30T07:06:16.000Z</time>
      </trkpt>
      <trkpt lat="43.75754" lon="7.08085">
        <ele>886.20001220703</ele>
        <time>2023-07-30T07:06:17.000Z</time>
      </trkpt>
      <trkpt lat="43.75754" lon="7.08085">
        <ele>886.20001220703</ele>
        <time>2023-07-30T07:06:18.000Z</time>
      </trkpt>
      <trkpt lat="43.75754" lon="7.08085">
        <ele>886.40002441406</ele>
        <time>2023-07-30T07:06:19.000Z</time>
      </trkpt>
      <trkpt lat="43.75754" lon="7.08085">
        <ele>886.40002441406</ele>
        <time>2023-07-30T07:06:20.000Z</time>
      </trkpt>
      <trkpt lat="43.75754" lon="7.08085">
        <ele>886.40002441406</ele>
        <time>2023-07-30T07:06:21.000Z</time>
      </trkpt>
      <trkpt lat="43.75754" lon="7.08085">
        <ele>886.40002441406</ele>
        <time>2023-07-30T07:06:22.000Z</time>
      </trkpt>
      <trkpt lat="43.75754" lon="7.08085">
        <ele>886.40002441406</ele>
        <time>2023-07-30T07:06:23.000Z</time>
      </trkpt>
      <trkpt lat="43.75754" lon="7.08084">
        <ele>886.40002441406</ele>
        <time>2023-07-30T07:06:24.000Z</time>
      </trkpt>
      <trkpt lat="43.75754" lon="7.08084">
        <ele>886.40002441406</ele>
        <time>2023-07-30T07:06:25.000Z</time>
      </trkpt>
      <trkpt lat="43.75754" lon="7.08084">
        <ele>886.40002441406</ele>
        <time>2023-07-30T07:06:26.000Z</time>
      </trkpt>
      <trkpt lat="43.75754" lon="7.08084">
        <ele>886.40002441406</ele>
        <time>2023-07-30T07:06:27.000Z</time>
      </trkpt>
      <trkpt lat="43.75754" lon="7.08084">
        <ele>886.40002441406</ele>
        <time>2023-07-30T07:06:28.000Z</time>
      </trkpt>
      <trkpt lat="43.75754" lon="7.08084">
        <ele>886.40002441406</ele>
        <time>2023-07-30T07:06:29.000Z</time>
      </trkpt>
      <trkpt lat="43.75754" lon="7.08084">
        <ele>886.40002441406</ele>
        <time>2023-07-30T07:06:30.000Z</time>
      </trkpt>
      <trkpt lat="43.75754" lon="7.08084">
        <ele>886.40002441406</ele>
        <time>2023-07-30T07:06:31.000Z</time>
      </trkpt>
      <trkpt lat="43.75754" lon="7.08084">
        <ele>886.40002441406</ele>
        <time>2023-07-30T07:06:32.000Z</time>
      </trkpt>
      <trkpt lat="43.75754" lon="7.08084">
        <ele>886.40002441406</ele>
        <time>2023-07-30T07:06:33.000Z</time>
      </trkpt>
      <trkpt lat="43.75754" lon="7.08085">
        <ele>886.40002441406</ele>
        <time>2023-07-30T07:06:34.000Z</time>
      </trkpt>
      <trkpt lat="43.75754" lon="7.08085">
        <ele>886.40002441406</ele>
        <time>2023-07-30T07:06:35.000Z</time>
      </trkpt>
      <trkpt lat="43.75754" lon="7.08085">
        <ele>886.40002441406</ele>
        <time>2023-07-30T07:06:36.000Z</time>
      </trkpt>
      <trkpt lat="43.75754" lon="7.08085">
        <ele>886</ele>
        <time>2023-07-30T07:06:37.000Z</time>
      </trkpt>
      <trkpt lat="43.75754" lon="7.08085">
        <ele>885.79998779297</ele>
        <time>2023-07-30T07:06:38.000Z</time>
      </trkpt>
      <trkpt lat="43.75754" lon="7.08085">
        <ele>885.79998779297</ele>
        <time>2023-07-30T07:06:39.000Z</time>
      </trkpt>
      <trkpt lat="43.75754" lon="7.08085">
        <ele>885.79998779297</ele>
        <time>2023-07-30T07:06:40.000Z</time>
      </trkpt>
      <trkpt lat="43.75754" lon="7.08085">
        <ele>886</ele>
        <time>2023-07-30T07:06:41.000Z</time>
      </trkpt>
      <trkpt lat="43.75754" lon="7.08085">
        <ele>886</ele>
        <time>2023-07-30T07:06:42.000Z</time>
      </trkpt>
      <trkpt lat="43.75754" lon="7.08085">
        <ele>886</ele>
        <time>2023-07-30T07:06:43.000Z</time>
      </trkpt>
      <trkpt lat="43.75754" lon="7.08085">
        <ele>886</ele>
        <time>2023-07-30T07:06:44.000Z</time>
      </trkpt>
      <trkpt lat="43.75754" lon="7.08085">
        <ele>886.20001220703</ele>
        <time>2023-07-30T07:06:45.000Z</time>
      </trkpt>
      <trkpt lat="43.75754" lon="7.08085">
        <ele>886.40002441406</ele>
        <time>2023-07-30T07:06:46.000Z</time>
      </trkpt>
      <trkpt lat="43.75754" lon="7.08085">
        <ele>886.59997558594</ele>
        <time>2023-07-30T07:06:47.000Z</time>
      </trkpt>
      <trkpt lat="43.75754" lon="7.08085">
        <ele>887</ele>
        <time>2023-07-30T07:06:48.000Z</time>
      </trkpt>
      <trkpt lat="43.75754" lon="7.08085">
        <ele>887</ele>
        <time>2023-07-30T07:06:49.000Z</time>
      </trkpt>
      <trkpt lat="43.75754" lon="7.08085">
        <ele>887</ele>
        <time>2023-07-30T07:06:50.000Z</time>
      </trkpt>
      <trkpt lat="43.75754" lon="7.08085">
        <ele>887</ele>
        <time>2023-07-30T07:06:51.000Z</time>
      </trkpt>
      <trkpt lat="43.75754" lon="7.08085">
        <ele>886.79998779297</ele>
        <time>2023-07-30T07:06:52.000Z</time>
      </trkpt>
      <trkpt lat="43.75754" lon="7.08085">
        <ele>886.79998779297</ele>
        <time>2023-07-30T07:06:53.000Z</time>
      </trkpt>
      <trkpt lat="43.75754" lon="7.08085">
        <ele>886.79998779297</ele>
        <time>2023-07-30T07:06:54.000Z</time>
      </trkpt>
      <trkpt lat="43.75754" lon="7.08085">
        <ele>886.79998779297</ele>
        <time>2023-07-30T07:06:55.000Z</time>
      </trkpt>
      <trkpt lat="43.75754" lon="7.08085">
        <ele>886.79998779297</ele>
        <time>2023-07-30T07:06:56.000Z</time>
      </trkpt>
      <trkpt lat="43.75754" lon="7.08085">
        <ele>886.79998779297</ele>
        <time>2023-07-30T07:06:57.000Z</time>
      </trkpt>
      <trkpt lat="43.75754" lon="7.08085">
        <ele>886.59997558594</ele>
        <time>2023-07-30T07:06:58.000Z</time>
      </trkpt>
      <trkpt lat="43.75754" lon="7.08085">
        <ele>886.59997558594</ele>
        <time>2023-07-30T07:06:59.000Z</time>
      </trkpt>
      <trkpt lat="43.75754" lon="7.08085">
        <ele>886.79998779297</ele>
        <time>2023-07-30T07:07:00.000Z</time>
      </trkpt>
      <trkpt lat="43.75754" lon="7.08085">
        <ele>886.20001220703</ele>
        <time>2023-07-30T07:07:01.000Z</time>
      </trkpt>
      <trkpt lat="43.75754" lon="7.08085">
        <ele>886.20001220703</ele>
        <time>2023-07-30T07:07:02.000Z</time>
      </trkpt>
      <trkpt lat="43.75754" lon="7.08085">
        <ele>886.20001220703</ele>
        <time>2023-07-30T07:07:03.000Z</time>
      </trkpt>
      <trkpt lat="43.75754" lon="7.08085">
        <ele>886.20001220703</ele>
        <time>2023-07-30T07:07:04.000Z</time>
      </trkpt>
      <trkpt lat="43.75754" lon="7.08085">
        <ele>886</ele>
        <time>2023-07-30T07:07:05.000Z</time>
      </trkpt>
      <trkpt lat="43.75754" lon="7.08085">
        <ele>886.20001220703</ele>
        <time>2023-07-30T07:07:06.000Z</time>
      </trkpt>
      <trkpt lat="43.75754" lon="7.08085">
        <ele>886.20001220703</ele>
        <time>2023-07-30T07:07:07.000Z</time>
      </trkpt>
      <trkpt lat="43.75754" lon="7.08085">
        <ele>886.20001220703</ele>
        <time>2023-07-30T07:07:08.000Z</time>
      </trkpt>
      <trkpt lat="43.75754" lon="7.08085">
        <ele>886.20001220703</ele>
        <time>2023-07-30T07:07:09.000Z</time>
      </trkpt>
      <trkpt lat="43.75754" lon="7.08085">
        <ele>886.20001220703</ele>
        <time>2023-07-30T07:07:10.000Z</time>
      </trkpt>
      <trkpt lat="43.75754" lon="7.08085">
        <ele>886.20001220703</ele>
        <time>2023-07-30T07:07:11.000Z</time>
      </trkpt>
      <trkpt lat="43.75754" lon="7.08085">
        <ele>886.20001220703</ele>
        <time>2023-07-30T07:07:12.000Z</time>
      </trkpt>
      <trkpt lat="43.75754" lon="7.08085">
        <ele>887.20001220703</ele>
        <time>2023-07-30T07:07:13.000Z</time>
      </trkpt>
      <trkpt lat="43.75754" lon="7.08085">
        <ele>887.20001220703</ele>
        <time>2023-07-30T07:07:14.000Z</time>
      </trkpt>
      <trkpt lat="43.75754" lon="7.08085">
        <ele>887.20001220703</ele>
        <time>2023-07-30T07:07:15.000Z</time>
      </trkpt>
      <trkpt lat="43.75754" lon="7.08085">
        <ele>887.20001220703</ele>
        <time>2023-07-30T07:07:16.000Z</time>
      </trkpt>
      <trkpt lat="43.75754" lon="7.08085">
        <ele>887</ele>
        <time>2023-07-30T07:07:17.000Z</time>
      </trkpt>
      <trkpt lat="43.75754" lon="7.08085">
        <ele>886.79998779297</ele>
        <time>2023-07-30T07:07:18.000Z</time>
      </trkpt>
      <trkpt lat="43.75754" lon="7.08085">
        <ele>886.79998779297</ele>
        <time>2023-07-30T07:07:19.000Z</time>
      </trkpt>
      <trkpt lat="43.75754" lon="7.08085">
        <ele>886.79998779297</ele>
        <time>2023-07-30T07:07:20.000Z</time>
      </trkpt>
      <trkpt lat="43.75754" lon="7.08085">
        <ele>886.79998779297</ele>
        <time>2023-07-30T07:07:21.000Z</time>
      </trkpt>
      <trkpt lat="43.75754" lon="7.08085">
        <ele>886.59997558594</ele>
        <time>2023-07-30T07:07:22.000Z</time>
      </trkpt>
      <trkpt lat="43.75754" lon="7.08085">
        <ele>886.59997558594</ele>
        <time>2023-07-30T07:07:23.000Z</time>
      </trkpt>
      <trkpt lat="43.75754" lon="7.08085">
        <ele>886.59997558594</ele>
        <time>2023-07-30T07:07:24.000Z</time>
      </trkpt>
      <trkpt lat="43.75754" lon="7.08085">
        <ele>886.59997558594</ele>
        <time>2023-07-30T07:07:25.000Z</time>
      </trkpt>
      <trkpt lat="43.75754" lon="7.08085">
        <ele>886.79998779297</ele>
        <time>2023-07-30T07:07:26.000Z</time>
      </trkpt>
      <trkpt lat="43.75754" lon="7.08085">
        <ele>886.79998779297</ele>
        <time>2023-07-30T07:07:27.000Z</time>
      </trkpt>
      <trkpt lat="43.75754" lon="7.08085">
        <ele>886.79998779297</ele>
        <time>2023-07-30T07:07:28.000Z</time>
      </trkpt>
      <trkpt lat="43.75754" lon="7.08085">
        <ele>886.79998779297</ele>
        <time>2023-07-30T07:07:29.000Z</time>
      </trkpt>
      <trkpt lat="43.75754" lon="7.08085">
        <ele>886.79998779297</ele>
        <time>2023-07-30T07:07:30.000Z</time>
      </trkpt>
      <trkpt lat="43.75754" lon="7.08085">
        <ele>886.79998779297</ele>
        <time>2023-07-30T07:07:31.000Z</time>
      </trkpt>
      <trkpt lat="43.75754" lon="7.08085">
        <ele>886.79998779297</ele>
        <time>2023-07-30T07:07:32.000Z</time>
      </trkpt>
      <trkpt lat="43.75754" lon="7.08085">
        <ele>886.79998779297</ele>
        <time>2023-07-30T07:07:33.000Z</time>
      </trkpt>
      <trkpt lat="43.75754" lon="7.08085">
        <ele>886.79998779297</ele>
        <time>2023-07-30T07:07:34.000Z</time>
      </trkpt>
      <trkpt lat="43.75754" lon="7.08085">
        <ele>886.79998779297</ele>
        <time>2023-07-30T07:07:35.000Z</time>
      </trkpt>
      <trkpt lat="43.75754" lon="7.08085">
        <ele>886.79998779297</ele>
        <time>2023-07-30T07:07:36.000Z</time>
      </trkpt>
      <trkpt lat="43.75754" lon="7.08085">
        <ele>886.79998779297</ele>
        <time>2023-07-30T07:07:37.000Z</time>
      </trkpt>
      <trkpt lat="43.75754" lon="7.08085">
        <ele>886.79998779297</ele>
        <time>2023-07-30T07:07:38.000Z</time>
      </trkpt>
      <trkpt lat="43.75754" lon="7.08085">
        <ele>886.79998779297</ele>
        <time>2023-07-30T07:07:39.000Z</time>
      </trkpt>
      <trkpt lat="43.75754" lon="7.08085">
        <ele>886.79998779297</ele>
        <time>2023-07-30T07:07:40.000Z</time>
      </trkpt>
      <trkpt lat="43.75754" lon="7.08085">
        <ele>886.79998779297</ele>
        <time>2023-07-30T07:07:41.000Z</time>
      </trkpt>
      <trkpt lat="43.75754" lon="7.08085">
        <ele>886.79998779297</ele>
        <time>2023-07-30T07:07:42.000Z</time>
      </trkpt>
      <trkpt lat="43.75754" lon="7.08085">
        <ele>886.79998779297</ele>
        <time>2023-07-30T07:07:43.000Z</time>
      </trkpt>
      <trkpt lat="43.75754" lon="7.08085">
        <ele>886.79998779297</ele>
        <time>2023-07-30T07:07:44.000Z</time>
      </trkpt>
      <trkpt lat="43.75754" lon="7.08085">
        <ele>886.79998779297</ele>
        <time>2023-07-30T07:07:45.000Z</time>
      </trkpt>
      <trkpt lat="43.75754" lon="7.08085">
        <ele>886.79998779297</ele>
        <time>2023-07-30T07:07:46.000Z</time>
      </trkpt>
      <trkpt lat="43.75754" lon="7.08085">
        <ele>886.79998779297</ele>
        <time>2023-07-30T07:07:47.000Z</time>
      </trkpt>
      <trkpt lat="43.75754" lon="7.08085">
        <ele>886.79998779297</ele>
        <time>2023-07-30T07:07:48.000Z</time>
      </trkpt>
      <trkpt lat="43.75754" lon="7.08085">
        <ele>886.79998779297</ele>
        <time>2023-07-30T07:07:49.000Z</time>
      </trkpt>
      <trkpt lat="43.75754" lon="7.08085">
        <ele>886.79998779297</ele>
        <time>2023-07-30T07:07:50.000Z</time>
      </trkpt>
      <trkpt lat="43.75754" lon="7.08085">
        <ele>886.79998779297</ele>
        <time>2023-07-30T07:07:51.000Z</time>
      </trkpt>
      <trkpt lat="43.75754" lon="7.08085">
        <ele>886.79998779297</ele>
        <time>2023-07-30T07:07:52.000Z</time>
      </trkpt>
      <trkpt lat="43.75754" lon="7.08085">
        <ele>886.79998779297</ele>
        <time>2023-07-30T07:07:53.000Z</time>
      </trkpt>
      <trkpt lat="43.75754" lon="7.08085">
        <ele>886.79998779297</ele>
        <time>2023-07-30T07:07:54.000Z</time>
      </trkpt>
      <trkpt lat="43.75754" lon="7.08085">
        <ele>886.79998779297</ele>
        <time>2023-07-30T07:07:55.000Z</time>
      </trkpt>
      <trkpt lat="43.75754" lon="7.08085">
        <ele>886.79998779297</ele>
        <time>2023-07-30T07:07:56.000Z</time>
      </trkpt>
      <trkpt lat="43.75754" lon="7.08085">
        <ele>886.79998779297</ele>
        <time>2023-07-30T07:07:57.000Z</time>
      </trkpt>
      <trkpt lat="43.75754" lon="7.08085">
        <ele>886.79998779297</ele>
        <time>2023-07-30T07:07:58.000Z</time>
      </trkpt>
      <trkpt lat="43.75754" lon="7.08085">
        <ele>886.79998779297</ele>
        <time>2023-07-30T07:07:59.000Z</time>
      </trkpt>
      <trkpt lat="43.75754" lon="7.08085">
        <ele>886.79998779297</ele>
        <time>2023-07-30T07:08:00.000Z</time>
      </trkpt>
      <trkpt lat="43.75754" lon="7.08085">
        <ele>886.79998779297</ele>
        <time>2023-07-30T07:08:01.000Z</time>
      </trkpt>
      <trkpt lat="43.75754" lon="7.08085">
        <ele>886.79998779297</ele>
        <time>2023-07-30T07:08:02.000Z</time>
      </trkpt>
      <trkpt lat="43.75754" lon="7.08085">
        <ele>886.79998779297</ele>
        <time>2023-07-30T07:08:03.000Z</time>
      </trkpt>
      <trkpt lat="43.75754" lon="7.08085">
        <ele>886.79998779297</ele>
        <time>2023-07-30T07:08:04.000Z</time>
      </trkpt>
      <trkpt lat="43.75754" lon="7.08085">
        <ele>886.79998779297</ele>
        <time>2023-07-30T07:08:05.000Z</time>
      </trkpt>
      <trkpt lat="43.75754" lon="7.08085">
        <ele>886.79998779297</ele>
        <time>2023-07-30T07:08:06.000Z</time>
      </trkpt>
      <trkpt lat="43.75754" lon="7.08085">
        <ele>886.79998779297</ele>
        <time>2023-07-30T07:08:07.000Z</time>
      </trkpt>
      <trkpt lat="43.75754" lon="7.08085">
        <ele>886.79998779297</ele>
        <time>2023-07-30T07:08:08.000Z</time>
      </trkpt>
      <trkpt lat="43.75754" lon="7.08085">
        <ele>886.79998779297</ele>
        <time>2023-07-30T07:08:09.000Z</time>
      </trkpt>
      <trkpt lat="43.75754" lon="7.08085">
        <ele>886.79998779297</ele>
        <time>2023-07-30T07:08:10.000Z</time>
      </trkpt>
      <trkpt lat="43.75754" lon="7.08085">
        <ele>886.79998779297</ele>
        <time>2023-07-30T07:08:11.000Z</time>
      </trkpt>
      <trkpt lat="43.75754" lon="7.08085">
        <ele>886.79998779297</ele>
        <time>2023-07-30T07:08:12.000Z</time>
      </trkpt>
      <trkpt lat="43.75754" lon="7.08085">
        <ele>886.79998779297</ele>
        <time>2023-07-30T07:08:13.000Z</time>
      </trkpt>
      <trkpt lat="43.75754" lon="7.08085">
        <ele>886.79998779297</ele>
        <time>2023-07-30T07:08:14.000Z</time>
      </trkpt>
      <trkpt lat="43.75754" lon="7.08085">
        <ele>886.79998779297</ele>
        <time>2023-07-30T07:08:15.000Z</time>
      </trkpt>
      <trkpt lat="43.75754" lon="7.08085">
        <ele>886.79998779297</ele>
        <time>2023-07-30T07:08:16.000Z</time>
      </trkpt>
      <trkpt lat="43.75754" lon="7.08085">
        <ele>886.79998779297</ele>
        <time>2023-07-30T07:08:17.000Z</time>
      </trkpt>
      <trkpt lat="43.75754" lon="7.08085">
        <ele>886.79998779297</ele>
        <time>2023-07-30T07:08:18.000Z</time>
      </trkpt>
      <trkpt lat="43.75754" lon="7.08085">
        <ele>886.79998779297</ele>
        <time>2023-07-30T07:08:19.000Z</time>
      </trkpt>
      <trkpt lat="43.75754" lon="7.08085">
        <ele>886.79998779297</ele>
        <time>2023-07-30T07:08:20.000Z</time>
      </trkpt>
      <trkpt lat="43.75754" lon="7.08085">
        <ele>886.79998779297</ele>
        <time>2023-07-30T07:08:21.000Z</time>
      </trkpt>
      <trkpt lat="43.75754" lon="7.08085">
        <ele>886.79998779297</ele>
        <time>2023-07-30T07:08:22.000Z</time>
      </trkpt>
      <trkpt lat="43.75754" lon="7.08085">
        <ele>886.79998779297</ele>
        <time>2023-07-30T07:08:23.000Z</time>
      </trkpt>
      <trkpt lat="43.75754" lon="7.08085">
        <ele>886.79998779297</ele>
        <time>2023-07-30T07:08:24.000Z</time>
      </trkpt>
      <trkpt lat="43.75754" lon="7.08085">
        <ele>886.79998779297</ele>
        <time>2023-07-30T07:08:25.000Z</time>
      </trkpt>
      <trkpt lat="43.75754" lon="7.08085">
        <ele>886.79998779297</ele>
        <time>2023-07-30T07:08:26.000Z</time>
      </trkpt>
      <trkpt lat="43.75754" lon="7.08085">
        <ele>886.79998779297</ele>
        <time>2023-07-30T07:08:27.000Z</time>
      </trkpt>
      <trkpt lat="43.75754" lon="7.08085">
        <ele>886.79998779297</ele>
        <time>2023-07-30T07:08:28.000Z</time>
      </trkpt>
      <trkpt lat="43.75754" lon="7.08085">
        <ele>886.79998779297</ele>
        <time>2023-07-30T07:08:29.000Z</time>
      </trkpt>
      <trkpt lat="43.75754" lon="7.08085">
        <ele>886.79998779297</ele>
        <time>2023-07-30T07:08:30.000Z</time>
      </trkpt>
      <trkpt lat="43.75754" lon="7.08085">
        <ele>886.79998779297</ele>
        <time>2023-07-30T07:08:31.000Z</time>
      </trkpt>
      <trkpt lat="43.75754" lon="7.08085">
        <ele>886.79998779297</ele>
        <time>2023-07-30T07:08:32.000Z</time>
      </trkpt>
      <trkpt lat="43.75754" lon="7.08085">
        <ele>886.79998779297</ele>
        <time>2023-07-30T07:08:33.000Z</time>
      </trkpt>
      <trkpt lat="43.75754" lon="7.08085">
        <ele>886.79998779297</ele>
        <time>2023-07-30T07:08:34.000Z</time>
      </trkpt>
      <trkpt lat="43.75754" lon="7.08085">
        <ele>886.79998779297</ele>
        <time>2023-07-30T07:08:35.000Z</time>
      </trkpt>
      <trkpt lat="43.75754" lon="7.08085">
        <ele>886.79998779297</ele>
        <time>2023-07-30T07:08:36.000Z</time>
      </trkpt>
      <trkpt lat="43.75754" lon="7.08085">
        <ele>886.79998779297</ele>
        <time>2023-07-30T07:08:37.000Z</time>
      </trkpt>
      <trkpt lat="43.75754" lon="7.08085">
        <ele>886.79998779297</ele>
        <time>2023-07-30T07:08:38.000Z</time>
      </trkpt>
      <trkpt lat="43.75754" lon="7.08085">
        <ele>886.79998779297</ele>
        <time>2023-07-30T07:08:39.000Z</time>
      </trkpt>
      <trkpt lat="43.75754" lon="7.08085">
        <ele>886.79998779297</ele>
        <time>2023-07-30T07:08:40.000Z</time>
      </trkpt>
      <trkpt lat="43.75754" lon="7.08085">
        <ele>886.79998779297</ele>
        <time>2023-07-30T07:08:41.000Z</time>
      </trkpt>
      <trkpt lat="43.75754" lon="7.08085">
        <ele>886.79998779297</ele>
        <time>2023-07-30T07:08:42.000Z</time>
      </trkpt>
      <trkpt lat="43.75754" lon="7.08085">
        <ele>886.79998779297</ele>
        <time>2023-07-30T07:08:43.000Z</time>
      </trkpt>
      <trkpt lat="43.75754" lon="7.08085">
        <ele>886.79998779297</ele>
        <time>2023-07-30T07:08:44.000Z</time>
      </trkpt>
      <trkpt lat="43.75754" lon="7.08085">
        <ele>886.79998779297</ele>
        <time>2023-07-30T07:08:45.000Z</time>
      </trkpt>
      <trkpt lat="43.75754" lon="7.08085">
        <ele>886.79998779297</ele>
        <time>2023-07-30T07:08:46.000Z</time>
      </trkpt>
      <trkpt lat="43.75754" lon="7.08085">
        <ele>886.79998779297</ele>
        <time>2023-07-30T07:08:47.000Z</time>
      </trkpt>
      <trkpt lat="43.75754" lon="7.08085">
        <ele>886.79998779297</ele>
        <time>2023-07-30T07:08:48.000Z</time>
      </trkpt>
      <trkpt lat="43.75754" lon="7.08085">
        <ele>886.79998779297</ele>
        <time>2023-07-30T07:08:49.000Z</time>
      </trkpt>
      <trkpt lat="43.75754" lon="7.08085">
        <ele>886.79998779297</ele>
        <time>2023-07-30T07:08:50.000Z</time>
      </trkpt>
      <trkpt lat="43.75754" lon="7.08085">
        <ele>886.79998779297</ele>
        <time>2023-07-30T07:08:51.000Z</time>
      </trkpt>
      <trkpt lat="43.75754" lon="7.08085">
        <ele>886.79998779297</ele>
        <time>2023-07-30T07:08:52.000Z</time>
      </trkpt>
      <trkpt lat="43.75754" lon="7.08085">
        <ele>886.79998779297</ele>
        <time>2023-07-30T07:08:53.000Z</time>
      </trkpt>
      <trkpt lat="43.75754" lon="7.08085">
        <ele>886.79998779297</ele>
        <time>2023-07-30T07:08:54.000Z</time>
      </trkpt>
      <trkpt lat="43.75754" lon="7.08085">
        <ele>886.79998779297</ele>
        <time>2023-07-30T07:08:55.000Z</time>
      </trkpt>
      <trkpt lat="43.75754" lon="7.08085">
        <ele>886.79998779297</ele>
        <time>2023-07-30T07:08:56.000Z</time>
      </trkpt>
      <trkpt lat="43.75754" lon="7.08085">
        <ele>886.79998779297</ele>
        <time>2023-07-30T07:08:57.000Z</time>
      </trkpt>
      <trkpt lat="43.75754" lon="7.08085">
        <ele>886.79998779297</ele>
        <time>2023-07-30T07:08:58.000Z</time>
      </trkpt>
      <trkpt lat="43.75754" lon="7.08085">
        <ele>886.79998779297</ele>
        <time>2023-07-30T07:08:59.000Z</time>
      </trkpt>
      <trkpt lat="43.75754" lon="7.08085">
        <ele>886.79998779297</ele>
        <time>2023-07-30T07:09:00.000Z</time>
      </trkpt>
      <trkpt lat="43.75754" lon="7.08085">
        <ele>886.79998779297</ele>
        <time>2023-07-30T07:09:01.000Z</time>
      </trkpt>
      <trkpt lat="43.75754" lon="7.08085">
        <ele>886.79998779297</ele>
        <time>2023-07-30T07:09:02.000Z</time>
      </trkpt>
      <trkpt lat="43.75754" lon="7.08085">
        <ele>886.79998779297</ele>
        <time>2023-07-30T07:09:03.000Z</time>
      </trkpt>
      <trkpt lat="43.75754" lon="7.08085">
        <ele>886.79998779297</ele>
        <time>2023-07-30T07:09:04.000Z</time>
      </trkpt>
      <trkpt lat="43.75754" lon="7.08085">
        <ele>886.79998779297</ele>
        <time>2023-07-30T07:09:05.000Z</time>
      </trkpt>
      <trkpt lat="43.75754" lon="7.08085">
        <ele>886.79998779297</ele>
        <time>2023-07-30T07:09:06.000Z</time>
      </trkpt>
      <trkpt lat="43.75754" lon="7.08085">
        <ele>886.79998779297</ele>
        <time>2023-07-30T07:09:07.000Z</time>
      </trkpt>
      <trkpt lat="43.75754" lon="7.08085">
        <ele>886.79998779297</ele>
        <time>2023-07-30T07:09:08.000Z</time>
      </trkpt>
      <trkpt lat="43.75754" lon="7.08085">
        <ele>886.79998779297</ele>
        <time>2023-07-30T07:09:09.000Z</time>
      </trkpt>
      <trkpt lat="43.75754" lon="7.08085">
        <ele>886.79998779297</ele>
        <time>2023-07-30T07:09:10.000Z</time>
      </trkpt>
      <trkpt lat="43.75754" lon="7.08085">
        <ele>886.79998779297</ele>
        <time>2023-07-30T07:09:11.000Z</time>
      </trkpt>
      <trkpt lat="43.75754" lon="7.08085">
        <ele>886.79998779297</ele>
        <time>2023-07-30T07:09:12.000Z</time>
      </trkpt>
      <trkpt lat="43.75754" lon="7.08085">
        <ele>886.79998779297</ele>
        <time>2023-07-30T07:09:13.000Z</time>
      </trkpt>
      <trkpt lat="43.75754" lon="7.08085">
        <ele>886.79998779297</ele>
        <time>2023-07-30T07:09:14.000Z</time>
      </trkpt>
      <trkpt lat="43.75754" lon="7.08085">
        <ele>886.79998779297</ele>
        <time>2023-07-30T07:09:15.000Z</time>
      </trkpt>
      <trkpt lat="43.75754" lon="7.08085">
        <ele>886.79998779297</ele>
        <time>2023-07-30T07:09:16.000Z</time>
      </trkpt>
      <trkpt lat="43.75754" lon="7.08085">
        <ele>886.79998779297</ele>
        <time>2023-07-30T07:09:17.000Z</time>
      </trkpt>
      <trkpt lat="43.75753" lon="7.08086">
        <ele>886.79998779297</ele>
        <time>2023-07-30T07:09:18.000Z</time>
      </trkpt>
      <trkpt lat="43.75753" lon="7.08086">
        <ele>886.79998779297</ele>
        <time>2023-07-30T07:09:19.000Z</time>
      </trkpt>
      <trkpt lat="43.75753" lon="7.08086">
        <ele>886.79998779297</ele>
        <time>2023-07-30T07:09:20.000Z</time>
      </trkpt>
      <trkpt lat="43.75753" lon="7.08086">
        <ele>886.79998779297</ele>
        <time>2023-07-30T07:09:21.000Z</time>
      </trkpt>
      <trkpt lat="43.75753" lon="7.08086">
        <ele>886.79998779297</ele>
        <time>2023-07-30T07:09:22.000Z</time>
      </trkpt>
      <trkpt lat="43.75753" lon="7.08086">
        <ele>886.79998779297</ele>
        <time>2023-07-30T07:09:23.000Z</time>
      </trkpt>
      <trkpt lat="43.75753" lon="7.08086">
        <ele>886.79998779297</ele>
        <time>2023-07-30T07:09:24.000Z</time>
      </trkpt>
      <trkpt lat="43.75753" lon="7.08086">
        <ele>886.79998779297</ele>
        <time>2023-07-30T07:09:25.000Z</time>
      </trkpt>
      <trkpt lat="43.75753" lon="7.08085">
        <ele>886.79998779297</ele>
        <time>2023-07-30T07:09:26.000Z</time>
      </trkpt>
      <trkpt lat="43.75753" lon="7.08084">
        <ele>886.79998779297</ele>
        <time>2023-07-30T07:09:27.000Z</time>
      </trkpt>
      <trkpt lat="43.75753" lon="7.08084">
        <ele>886.79998779297</ele>
        <time>2023-07-30T07:09:28.000Z</time>
      </trkpt>
      <trkpt lat="43.75753" lon="7.08085">
        <ele>886.79998779297</ele>
        <time>2023-07-30T07:09:29.000Z</time>
      </trkpt>
      <trkpt lat="43.75753" lon="7.08084">
        <ele>886.79998779297</ele>
        <time>2023-07-30T07:09:30.000Z</time>
      </trkpt>
      <trkpt lat="43.75752" lon="7.08084">
        <ele>886.79998779297</ele>
        <time>2023-07-30T07:09:31.000Z</time>
      </trkpt>
      <trkpt lat="43.75752" lon="7.08084">
        <ele>886.79998779297</ele>
        <time>2023-07-30T07:09:32.000Z</time>
      </trkpt>
      <trkpt lat="43.75752" lon="7.08084">
        <ele>886.79998779297</ele>
        <time>2023-07-30T07:09:33.000Z</time>
      </trkpt>
      <trkpt lat="43.75752" lon="7.08084">
        <ele>886.79998779297</ele>
        <time>2023-07-30T07:09:34.000Z</time>
      </trkpt>
      <trkpt lat="43.75752" lon="7.08084">
        <ele>886.79998779297</ele>
        <time>2023-07-30T07:09:35.000Z</time>
      </trkpt>
      <trkpt lat="43.75752" lon="7.08084">
        <ele>886.79998779297</ele>
        <time>2023-07-30T07:09:36.000Z</time>
      </trkpt>
      <trkpt lat="43.75752" lon="7.08084">
        <ele>886.79998779297</ele>
        <time>2023-07-30T07:09:37.000Z</time>
      </trkpt>
      <trkpt lat="43.75752" lon="7.08084">
        <ele>886.79998779297</ele>
        <time>2023-07-30T07:09:38.000Z</time>
      </trkpt>
      <trkpt lat="43.75752" lon="7.08084">
        <ele>886.79998779297</ele>
        <time>2023-07-30T07:09:39.000Z</time>
      </trkpt>
      <trkpt lat="43.75752" lon="7.08084">
        <ele>886.79998779297</ele>
        <time>2023-07-30T07:09:40.000Z</time>
      </trkpt>
      <trkpt lat="43.75752" lon="7.08084">
        <ele>886.79998779297</ele>
        <time>2023-07-30T07:09:41.000Z</time>
      </trkpt>
      <trkpt lat="43.75752" lon="7.08084">
        <ele>886.79998779297</ele>
        <time>2023-07-30T07:09:42.000Z</time>
      </trkpt>
      <trkpt lat="43.75752" lon="7.08084">
        <ele>886.79998779297</ele>
        <time>2023-07-30T07:09:43.000Z</time>
      </trkpt>
      <trkpt lat="43.75752" lon="7.08084">
        <ele>886.79998779297</ele>
        <time>2023-07-30T07:09:44.000Z</time>
      </trkpt>
      <trkpt lat="43.75752" lon="7.08084">
        <ele>886.79998779297</ele>
        <time>2023-07-30T07:09:45.000Z</time>
      </trkpt>
      <trkpt lat="43.75752" lon="7.08084">
        <ele>886.79998779297</ele>
        <time>2023-07-30T07:09:46.000Z</time>
      </trkpt>
      <trkpt lat="43.75752" lon="7.08084">
        <ele>886.79998779297</ele>
        <time>2023-07-30T07:09:47.000Z</time>
      </trkpt>
      <trkpt lat="43.75752" lon="7.08084">
        <ele>886.79998779297</ele>
        <time>2023-07-30T07:09:48.000Z</time>
      </trkpt>
      <trkpt lat="43.75752" lon="7.08084">
        <ele>886.79998779297</ele>
        <time>2023-07-30T07:09:49.000Z</time>
      </trkpt>
      <trkpt lat="43.75752" lon="7.08084">
        <ele>886.79998779297</ele>
        <time>2023-07-30T07:09:50.000Z</time>
      </trkpt>
      <trkpt lat="43.75753" lon="7.08084">
        <ele>886.79998779297</ele>
        <time>2023-07-30T07:09:51.000Z</time>
      </trkpt>
      <trkpt lat="43.75753" lon="7.08084">
        <ele>886.79998779297</ele>
        <time>2023-07-30T07:09:52.000Z</time>
      </trkpt>
      <trkpt lat="43.75753" lon="7.08084">
        <ele>886.79998779297</ele>
        <time>2023-07-30T07:09:53.000Z</time>
      </trkpt>
      <trkpt lat="43.75753" lon="7.08084">
        <ele>886.79998779297</ele>
        <time>2023-07-30T07:09:54.000Z</time>
      </trkpt>
      <trkpt lat="43.75753" lon="7.08084">
        <ele>886.79998779297</ele>
        <time>2023-07-30T07:09:55.000Z</time>
      </trkpt>
      <trkpt lat="43.75753" lon="7.08084">
        <ele>886.79998779297</ele>
        <time>2023-07-30T07:09:56.000Z</time>
      </trkpt>
      <trkpt lat="43.75753" lon="7.08084">
        <ele>886.79998779297</ele>
        <time>2023-07-30T07:09:57.000Z</time>
      </trkpt>
      <trkpt lat="43.75753" lon="7.08084">
        <ele>886.79998779297</ele>
        <time>2023-07-30T07:09:58.000Z</time>
      </trkpt>
      <trkpt lat="43.75753" lon="7.08084">
        <ele>886.79998779297</ele>
        <time>2023-07-30T07:09:59.000Z</time>
      </trkpt>
      <trkpt lat="43.75753" lon="7.08084">
        <ele>886.79998779297</ele>
        <time>2023-07-30T07:10:00.000Z</time>
      </trkpt>
      <trkpt lat="43.75753" lon="7.08084">
        <ele>886.79998779297</ele>
        <time>2023-07-30T07:10:01.000Z</time>
      </trkpt>
      <trkpt lat="43.75753" lon="7.08084">
        <ele>886.79998779297</ele>
        <time>2023-07-30T07:10:02.000Z</time>
      </trkpt>
      <trkpt lat="43.75753" lon="7.08084">
        <ele>886.79998779297</ele>
        <time>2023-07-30T07:10:03.000Z</time>
      </trkpt>
      <trkpt lat="43.75753" lon="7.08084">
        <ele>886.79998779297</ele>
        <time>2023-07-30T07:10:04.000Z</time>
      </trkpt>
      <trkpt lat="43.75753" lon="7.08084">
        <ele>886.79998779297</ele>
        <time>2023-07-30T07:10:05.000Z</time>
      </trkpt>
      <trkpt lat="43.75753" lon="7.08084">
        <ele>886.79998779297</ele>
        <time>2023-07-30T07:10:06.000Z</time>
      </trkpt>
      <trkpt lat="43.75755" lon="7.08082">
        <ele>886.79998779297</ele>
        <time>2023-07-30T07:10:07.000Z</time>
      </trkpt>
      <trkpt lat="43.75756" lon="7.08081">
        <ele>886.79998779297</ele>
        <time>2023-07-30T07:10:08.000Z</time>
      </trkpt>
      <trkpt lat="43.75756" lon="7.08079">
        <ele>886.79998779297</ele>
        <time>2023-07-30T07:10:09.000Z</time>
      </trkpt>
      <trkpt lat="43.75755" lon="7.08077">
        <ele>886.79998779297</ele>
        <time>2023-07-30T07:10:10.000Z</time>
      </trkpt>
      <trkpt lat="43.75754" lon="7.08075">
        <ele>886.79998779297</ele>
        <time>2023-07-30T07:10:11.000Z</time>
      </trkpt>
      <trkpt lat="43.75753" lon="7.08074">
        <ele>886.79998779297</ele>
        <time>2023-07-30T07:10:12.000Z</time>
      </trkpt>
      <trkpt lat="43.75751" lon="7.08072">
        <ele>886.79998779297</ele>
        <time>2023-07-30T07:10:13.000Z</time>
      </trkpt>
      <trkpt lat="43.7575" lon="7.08071">
        <ele>886.79998779297</ele>
        <time>2023-07-30T07:10:14.000Z</time>
      </trkpt>
      <trkpt lat="43.75749" lon="7.08069">
        <ele>886.79998779297</ele>
        <time>2023-07-30T07:10:15.000Z</time>
      </trkpt>
      <trkpt lat="43.75747" lon="7.08068">
        <ele>886.79998779297</ele>
        <time>2023-07-30T07:10:16.000Z</time>
      </trkpt>
      <trkpt lat="43.75745" lon="7.08066">
        <ele>886.79998779297</ele>
        <time>2023-07-30T07:10:17.000Z</time>
      </trkpt>
      <trkpt lat="43.75744" lon="7.08064">
        <ele>886.79998779297</ele>
        <time>2023-07-30T07:10:18.000Z</time>
      </trkpt>
      <trkpt lat="43.75742" lon="7.08063">
        <ele>886.20001220703</ele>
        <time>2023-07-30T07:10:19.000Z</time>
      </trkpt>
      <trkpt lat="43.7574" lon="7.08062">
        <ele>886.40002441406</ele>
        <time>2023-07-30T07:10:20.000Z</time>
      </trkpt>
      <trkpt lat="43.75739" lon="7.08061">
        <ele>886.59997558594</ele>
        <time>2023-07-30T07:10:21.000Z</time>
      </trkpt>
      <trkpt lat="43.75737" lon="7.0806">
        <ele>886.79998779297</ele>
        <time>2023-07-30T07:10:22.000Z</time>
      </trkpt>
      <trkpt lat="43.75736" lon="7.08059">
        <ele>887</ele>
        <time>2023-07-30T07:10:23.000Z</time>
      </trkpt>
      <trkpt lat="43.75735" lon="7.08059">
        <ele>887</ele>
        <time>2023-07-30T07:10:24.000Z</time>
      </trkpt>
      <trkpt lat="43.75733" lon="7.08058">
        <ele>887.20001220703</ele>
        <time>2023-07-30T07:10:25.000Z</time>
      </trkpt>
      <trkpt lat="43.75732" lon="7.08058">
        <ele>887.20001220703</ele>
        <time>2023-07-30T07:10:26.000Z</time>
      </trkpt>
      <trkpt lat="43.75731" lon="7.08057">
        <ele>887.40002441406</ele>
        <time>2023-07-30T07:10:27.000Z</time>
      </trkpt>
      <trkpt lat="43.7573" lon="7.08055">
        <ele>887.40002441406</ele>
        <time>2023-07-30T07:10:28.000Z</time>
      </trkpt>
      <trkpt lat="43.75729" lon="7.08054">
        <ele>887.40002441406</ele>
        <time>2023-07-30T07:10:29.000Z</time>
      </trkpt>
      <trkpt lat="43.75727" lon="7.08053">
        <ele>887.40002441406</ele>
        <time>2023-07-30T07:10:30.000Z</time>
      </trkpt>
      <trkpt lat="43.75726" lon="7.08052">
        <ele>888.79998779297</ele>
        <time>2023-07-30T07:10:31.000Z</time>
      </trkpt>
      <trkpt lat="43.75725" lon="7.0805">
        <ele>889</ele>
        <time>2023-07-30T07:10:32.000Z</time>
      </trkpt>
      <trkpt lat="43.75724" lon="7.08048">
        <ele>889</ele>
        <time>2023-07-30T07:10:33.000Z</time>
      </trkpt>
      <trkpt lat="43.75722" lon="7.08047">
        <ele>889</ele>
        <time>2023-07-30T07:10:34.000Z</time>
      </trkpt>
      <trkpt lat="43.75721" lon="7.08046">
        <ele>889</ele>
        <time>2023-07-30T07:10:35.000Z</time>
      </trkpt>
      <trkpt lat="43.75719" lon="7.08045">
        <ele>889</ele>
        <time>2023-07-30T07:10:36.000Z</time>
      </trkpt>
      <trkpt lat="43.75717" lon="7.08043">
        <ele>889.20001220703</ele>
        <time>2023-07-30T07:10:37.000Z</time>
      </trkpt>
      <trkpt lat="43.75716" lon="7.08042">
        <ele>889.20001220703</ele>
        <time>2023-07-30T07:10:38.000Z</time>
      </trkpt>
      <trkpt lat="43.75714" lon="7.08041">
        <ele>889.20001220703</ele>
        <time>2023-07-30T07:10:39.000Z</time>
      </trkpt>
      <trkpt lat="43.75713" lon="7.08039">
        <ele>889.20001220703</ele>
        <time>2023-07-30T07:10:40.000Z</time>
      </trkpt>
      <trkpt lat="43.75711" lon="7.08038">
        <ele>889.40002441406</ele>
        <time>2023-07-30T07:10:41.000Z</time>
      </trkpt>
      <trkpt lat="43.7571" lon="7.08037">
        <ele>889.59997558594</ele>
        <time>2023-07-30T07:10:42.000Z</time>
      </trkpt>
      <trkpt lat="43.75709" lon="7.08035">
        <ele>889.79998779297</ele>
        <time>2023-07-30T07:10:43.000Z</time>
      </trkpt>
      <trkpt lat="43.75707" lon="7.08034">
        <ele>889.79998779297</ele>
        <time>2023-07-30T07:10:44.000Z</time>
      </trkpt>
      <trkpt lat="43.75704" lon="7.08033">
        <ele>890</ele>
        <time>2023-07-30T07:10:45.000Z</time>
      </trkpt>
      <trkpt lat="43.75703" lon="7.0803">
        <ele>890.20001220703</ele>
        <time>2023-07-30T07:10:46.000Z</time>
      </trkpt>
      <trkpt lat="43.75701" lon="7.08029">
        <ele>890.40002441406</ele>
        <time>2023-07-30T07:10:47.000Z</time>
      </trkpt>
      <trkpt lat="43.75699" lon="7.08027">
        <ele>890.40002441406</ele>
        <time>2023-07-30T07:10:48.000Z</time>
      </trkpt>
      <trkpt lat="43.75697" lon="7.08024">
        <ele>890.59997558594</ele>
        <time>2023-07-30T07:10:49.000Z</time>
      </trkpt>
      <trkpt lat="43.75695" lon="7.08022">
        <ele>891</ele>
        <time>2023-07-30T07:10:50.000Z</time>
      </trkpt>
      <trkpt lat="43.75693" lon="7.08019">
        <ele>891</ele>
        <time>2023-07-30T07:10:51.000Z</time>
      </trkpt>
      <trkpt lat="43.75691" lon="7.08017">
        <ele>891.40002441406</ele>
        <time>2023-07-30T07:10:52.000Z</time>
      </trkpt>
      <trkpt lat="43.7569" lon="7.08015">
        <ele>891.59997558594</ele>
        <time>2023-07-30T07:10:53.000Z</time>
      </trkpt>
      <trkpt lat="43.75689" lon="7.08012">
        <ele>891.59997558594</ele>
        <time>2023-07-30T07:10:54.000Z</time>
      </trkpt>
      <trkpt lat="43.75687" lon="7.0801">
        <ele>891.79998779297</ele>
        <time>2023-07-30T07:10:55.000Z</time>
      </trkpt>
      <trkpt lat="43.75686" lon="7.08007">
        <ele>892</ele>
        <time>2023-07-30T07:10:56.000Z</time>
      </trkpt>
      <trkpt lat="43.75685" lon="7.08004">
        <ele>892.20001220703</ele>
        <time>2023-07-30T07:10:57.000Z</time>
      </trkpt>
      <trkpt lat="43.75684" lon="7.08002">
        <ele>892.40002441406</ele>
        <time>2023-07-30T07:10:58.000Z</time>
      </trkpt>
      <trkpt lat="43.75683" lon="7.07998">
        <ele>892.59997558594</ele>
        <time>2023-07-30T07:10:59.000Z</time>
      </trkpt>
      <trkpt lat="43.75683" lon="7.07995">
        <ele>892.79998779297</ele>
        <time>2023-07-30T07:11:00.000Z</time>
      </trkpt>
      <trkpt lat="43.75683" lon="7.07991">
        <ele>893</ele>
        <time>2023-07-30T07:11:01.000Z</time>
      </trkpt>
      <trkpt lat="43.75682" lon="7.07988">
        <ele>893.20001220703</ele>
        <time>2023-07-30T07:11:02.000Z</time>
      </trkpt>
      <trkpt lat="43.75682" lon="7.07984">
        <ele>893.40002441406</ele>
        <time>2023-07-30T07:11:03.000Z</time>
      </trkpt>
      <trkpt lat="43.75682" lon="7.0798">
        <ele>893.40002441406</ele>
        <time>2023-07-30T07:11:04.000Z</time>
      </trkpt>
      <trkpt lat="43.75681" lon="7.07976">
        <ele>893.59997558594</ele>
        <time>2023-07-30T07:11:05.000Z</time>
      </trkpt>
      <trkpt lat="43.75681" lon="7.07971">
        <ele>894</ele>
        <time>2023-07-30T07:11:06.000Z</time>
      </trkpt>
      <trkpt lat="43.75681" lon="7.07967">
        <ele>894.20001220703</ele>
        <time>2023-07-30T07:11:07.000Z</time>
      </trkpt>
      <trkpt lat="43.75681" lon="7.07963">
        <ele>894.40002441406</ele>
        <time>2023-07-30T07:11:08.000Z</time>
      </trkpt>
      <trkpt lat="43.7568" lon="7.07959">
        <ele>894.59997558594</ele>
        <time>2023-07-30T07:11:09.000Z</time>
      </trkpt>
      <trkpt lat="43.7568" lon="7.07955">
        <ele>895</ele>
        <time>2023-07-30T07:11:10.000Z</time>
      </trkpt>
      <trkpt lat="43.75679" lon="7.07951">
        <ele>895.20001220703</ele>
        <time>2023-07-30T07:11:11.000Z</time>
      </trkpt>
      <trkpt lat="43.75679" lon="7.07947">
        <ele>895.20001220703</ele>
        <time>2023-07-30T07:11:12.000Z</time>
      </trkpt>
      <trkpt lat="43.75679" lon="7.07944">
        <ele>895.59997558594</ele>
        <time>2023-07-30T07:11:13.000Z</time>
      </trkpt>
      <trkpt lat="43.75678" lon="7.0794">
        <ele>895.79998779297</ele>
        <time>2023-07-30T07:11:14.000Z</time>
      </trkpt>
      <trkpt lat="43.75678" lon="7.07936">
        <ele>896</ele>
        <time>2023-07-30T07:11:15.000Z</time>
      </trkpt>
      <trkpt lat="43.75678" lon="7.07933">
        <ele>896.20001220703</ele>
        <time>2023-07-30T07:11:16.000Z</time>
      </trkpt>
      <trkpt lat="43.75677" lon="7.0793">
        <ele>896.40002441406</ele>
        <time>2023-07-30T07:11:17.000Z</time>
      </trkpt>
      <trkpt lat="43.75677" lon="7.07926">
        <ele>896.79998779297</ele>
        <time>2023-07-30T07:11:18.000Z</time>
      </trkpt>
      <trkpt lat="43.75677" lon="7.07922">
        <ele>897</ele>
        <time>2023-07-30T07:11:19.000Z</time>
      </trkpt>
      <trkpt lat="43.75676" lon="7.07918">
        <ele>897.20001220703</ele>
        <time>2023-07-30T07:11:20.000Z</time>
      </trkpt>
      <trkpt lat="43.75676" lon="7.07915">
        <ele>897.20001220703</ele>
        <time>2023-07-30T07:11:21.000Z</time>
      </trkpt>
      <trkpt lat="43.75676" lon="7.07911">
        <ele>897.59997558594</ele>
        <time>2023-07-30T07:11:22.000Z</time>
      </trkpt>
      <trkpt lat="43.75676" lon="7.07908">
        <ele>897.79998779297</ele>
        <time>2023-07-30T07:11:23.000Z</time>
      </trkpt>
      <trkpt lat="43.75675" lon="7.07904">
        <ele>897.79998779297</ele>
        <time>2023-07-30T07:11:24.000Z</time>
      </trkpt>
      <trkpt lat="43.75674" lon="7.079">
        <ele>898</ele>
        <time>2023-07-30T07:11:25.000Z</time>
      </trkpt>
      <trkpt lat="43.75674" lon="7.07897">
        <ele>898.20001220703</ele>
        <time>2023-07-30T07:11:26.000Z</time>
      </trkpt>
      <trkpt lat="43.75674" lon="7.07893">
        <ele>898.59997558594</ele>
        <time>2023-07-30T07:11:27.000Z</time>
      </trkpt>
      <trkpt lat="43.75673" lon="7.07889">
        <ele>898.79998779297</ele>
        <time>2023-07-30T07:11:28.000Z</time>
      </trkpt>
      <trkpt lat="43.75673" lon="7.07886">
        <ele>899</ele>
        <time>2023-07-30T07:11:29.000Z</time>
      </trkpt>
      <trkpt lat="43.75672" lon="7.07882">
        <ele>899</ele>
        <time>2023-07-30T07:11:30.000Z</time>
      </trkpt>
      <trkpt lat="43.75672" lon="7.07878">
        <ele>899.20001220703</ele>
        <time>2023-07-30T07:11:31.000Z</time>
      </trkpt>
      <trkpt lat="43.75671" lon="7.07874">
        <ele>899.40002441406</ele>
        <time>2023-07-30T07:11:32.000Z</time>
      </trkpt>
      <trkpt lat="43.75671" lon="7.0787">
        <ele>899.59997558594</ele>
        <time>2023-07-30T07:11:33.000Z</time>
      </trkpt>
      <trkpt lat="43.75671" lon="7.07866">
        <ele>899.79998779297</ele>
        <time>2023-07-30T07:11:34.000Z</time>
      </trkpt>
      <trkpt lat="43.75671" lon="7.07862">
        <ele>900.20001220703</ele>
        <time>2023-07-30T07:11:35.000Z</time>
      </trkpt>
      <trkpt lat="43.7567" lon="7.07859">
        <ele>900.40002441406</ele>
        <time>2023-07-30T07:11:36.000Z</time>
      </trkpt>
      <trkpt lat="43.7567" lon="7.07855">
        <ele>900.79998779297</ele>
        <time>2023-07-30T07:11:37.000Z</time>
      </trkpt>
      <trkpt lat="43.7567" lon="7.07851">
        <ele>901</ele>
        <time>2023-07-30T07:11:38.000Z</time>
      </trkpt>
      <trkpt lat="43.7567" lon="7.07847">
        <ele>901.20001220703</ele>
        <time>2023-07-30T07:11:39.000Z</time>
      </trkpt>
      <trkpt lat="43.7567" lon="7.07843">
        <ele>901.40002441406</ele>
        <time>2023-07-30T07:11:40.000Z</time>
      </trkpt>
      <trkpt lat="43.7567" lon="7.07839">
        <ele>901.40002441406</ele>
        <time>2023-07-30T07:11:41.000Z</time>
      </trkpt>
      <trkpt lat="43.7567" lon="7.07835">
        <ele>901.59997558594</ele>
        <time>2023-07-30T07:11:42.000Z</time>
      </trkpt>
      <trkpt lat="43.7567" lon="7.07832">
        <ele>902</ele>
        <time>2023-07-30T07:11:43.000Z</time>
      </trkpt>
      <trkpt lat="43.7567" lon="7.07827">
        <ele>902</ele>
        <time>2023-07-30T07:11:44.000Z</time>
      </trkpt>
      <trkpt lat="43.7567" lon="7.07824">
        <ele>902.79998779297</ele>
        <time>2023-07-30T07:11:45.000Z</time>
      </trkpt>
      <trkpt lat="43.7567" lon="7.0782">
        <ele>902.79998779297</ele>
        <time>2023-07-30T07:11:46.000Z</time>
      </trkpt>
      <trkpt lat="43.75669" lon="7.07815">
        <ele>903</ele>
        <time>2023-07-30T07:11:47.000Z</time>
      </trkpt>
      <trkpt lat="43.75669" lon="7.07811">
        <ele>903</ele>
        <time>2023-07-30T07:11:48.000Z</time>
      </trkpt>
      <trkpt lat="43.75669" lon="7.07807">
        <ele>903.20001220703</ele>
        <time>2023-07-30T07:11:49.000Z</time>
      </trkpt>
      <trkpt lat="43.75668" lon="7.07803">
        <ele>903.40002441406</ele>
        <time>2023-07-30T07:11:50.000Z</time>
      </trkpt>
      <trkpt lat="43.75668" lon="7.07799">
        <ele>903.59997558594</ele>
        <time>2023-07-30T07:11:51.000Z</time>
      </trkpt>
      <trkpt lat="43.75668" lon="7.07796">
        <ele>903.79998779297</ele>
        <time>2023-07-30T07:11:52.000Z</time>
      </trkpt>
      <trkpt lat="43.75668" lon="7.07792">
        <ele>904</ele>
        <time>2023-07-30T07:11:53.000Z</time>
      </trkpt>
      <trkpt lat="43.75668" lon="7.07788">
        <ele>904.20001220703</ele>
        <time>2023-07-30T07:11:54.000Z</time>
      </trkpt>
      <trkpt lat="43.75668" lon="7.07784">
        <ele>904.20001220703</ele>
        <time>2023-07-30T07:11:55.000Z</time>
      </trkpt>
      <trkpt lat="43.75669" lon="7.0778">
        <ele>904.59997558594</ele>
        <time>2023-07-30T07:11:56.000Z</time>
      </trkpt>
      <trkpt lat="43.75669" lon="7.07776">
        <ele>904.79998779297</ele>
        <time>2023-07-30T07:11:57.000Z</time>
      </trkpt>
      <trkpt lat="43.7567" lon="7.07772">
        <ele>905</ele>
        <time>2023-07-30T07:11:58.000Z</time>
      </trkpt>
      <trkpt lat="43.7567" lon="7.07767">
        <ele>905.20001220703</ele>
        <time>2023-07-30T07:11:59.000Z</time>
      </trkpt>
      <trkpt lat="43.7567" lon="7.07764">
        <ele>905.59997558594</ele>
        <time>2023-07-30T07:12:00.000Z</time>
      </trkpt>
      <trkpt lat="43.75671" lon="7.07759">
        <ele>905.79998779297</ele>
        <time>2023-07-30T07:12:01.000Z</time>
      </trkpt>
      <trkpt lat="43.75671" lon="7.07756">
        <ele>906</ele>
        <time>2023-07-30T07:12:02.000Z</time>
      </trkpt>
      <trkpt lat="43.75672" lon="7.07752">
        <ele>906.20001220703</ele>
        <time>2023-07-30T07:12:03.000Z</time>
      </trkpt>
      <trkpt lat="43.75672" lon="7.07748">
        <ele>906.40002441406</ele>
        <time>2023-07-30T07:12:04.000Z</time>
      </trkpt>
      <trkpt lat="43.75673" lon="7.07744">
        <ele>906.59997558594</ele>
        <time>2023-07-30T07:12:05.000Z</time>
      </trkpt>
      <trkpt lat="43.75674" lon="7.07741">
        <ele>907</ele>
        <time>2023-07-30T07:12:06.000Z</time>
      </trkpt>
      <trkpt lat="43.75675" lon="7.07737">
        <ele>907.20001220703</ele>
        <time>2023-07-30T07:12:07.000Z</time>
      </trkpt>
      <trkpt lat="43.75676" lon="7.07733">
        <ele>907.20001220703</ele>
        <time>2023-07-30T07:12:08.000Z</time>
      </trkpt>
      <trkpt lat="43.75677" lon="7.07729">
        <ele>907.59997558594</ele>
        <time>2023-07-30T07:12:09.000Z</time>
      </trkpt>
      <trkpt lat="43.75678" lon="7.07725">
        <ele>907.79998779297</ele>
        <time>2023-07-30T07:12:10.000Z</time>
      </trkpt>
      <trkpt lat="43.75678" lon="7.07721">
        <ele>908</ele>
        <time>2023-07-30T07:12:11.000Z</time>
      </trkpt>
      <trkpt lat="43.75679" lon="7.07717">
        <ele>908.40002441406</ele>
        <time>2023-07-30T07:12:12.000Z</time>
      </trkpt>
      <trkpt lat="43.7568" lon="7.07714">
        <ele>908.40002441406</ele>
        <time>2023-07-30T07:12:13.000Z</time>
      </trkpt>
      <trkpt lat="43.75682" lon="7.0771">
        <ele>908.59997558594</ele>
        <time>2023-07-30T07:12:14.000Z</time>
      </trkpt>
      <trkpt lat="43.75683" lon="7.07707">
        <ele>909</ele>
        <time>2023-07-30T07:12:15.000Z</time>
      </trkpt>
      <trkpt lat="43.75684" lon="7.07704">
        <ele>909.20001220703</ele>
        <time>2023-07-30T07:12:16.000Z</time>
      </trkpt>
      <trkpt lat="43.75686" lon="7.077">
        <ele>909.20001220703</ele>
        <time>2023-07-30T07:12:17.000Z</time>
      </trkpt>
      <trkpt lat="43.75687" lon="7.07696">
        <ele>909.40002441406</ele>
        <time>2023-07-30T07:12:18.000Z</time>
      </trkpt>
      <trkpt lat="43.75688" lon="7.07693">
        <ele>909.59997558594</ele>
        <time>2023-07-30T07:12:19.000Z</time>
      </trkpt>
      <trkpt lat="43.7569" lon="7.07689">
        <ele>909.59997558594</ele>
        <time>2023-07-30T07:12:20.000Z</time>
      </trkpt>
      <trkpt lat="43.75691" lon="7.07686">
        <ele>910</ele>
        <time>2023-07-30T07:12:21.000Z</time>
      </trkpt>
      <trkpt lat="43.75692" lon="7.07682">
        <ele>910.20001220703</ele>
        <time>2023-07-30T07:12:22.000Z</time>
      </trkpt>
      <trkpt lat="43.75694" lon="7.07678">
        <ele>910.20001220703</ele>
        <time>2023-07-30T07:12:23.000Z</time>
      </trkpt>
      <trkpt lat="43.75695" lon="7.07674">
        <ele>910.59997558594</ele>
        <time>2023-07-30T07:12:24.000Z</time>
      </trkpt>
      <trkpt lat="43.75697" lon="7.0767">
        <ele>910.79998779297</ele>
        <time>2023-07-30T07:12:25.000Z</time>
      </trkpt>
      <trkpt lat="43.75698" lon="7.07665">
        <ele>911</ele>
        <time>2023-07-30T07:12:26.000Z</time>
      </trkpt>
      <trkpt lat="43.75699" lon="7.07661">
        <ele>911.20001220703</ele>
        <time>2023-07-30T07:12:27.000Z</time>
      </trkpt>
      <trkpt lat="43.75701" lon="7.07657">
        <ele>911.40002441406</ele>
        <time>2023-07-30T07:12:28.000Z</time>
      </trkpt>
      <trkpt lat="43.75702" lon="7.07653">
        <ele>911.79998779297</ele>
        <time>2023-07-30T07:12:29.000Z</time>
      </trkpt>
      <trkpt lat="43.75703" lon="7.07649">
        <ele>912</ele>
        <time>2023-07-30T07:12:30.000Z</time>
      </trkpt>
      <trkpt lat="43.75704" lon="7.07645">
        <ele>912.20001220703</ele>
        <time>2023-07-30T07:12:31.000Z</time>
      </trkpt>
      <trkpt lat="43.75705" lon="7.07641">
        <ele>912.40002441406</ele>
        <time>2023-07-30T07:12:32.000Z</time>
      </trkpt>
      <trkpt lat="43.75706" lon="7.07637">
        <ele>912.79998779297</ele>
        <time>2023-07-30T07:12:33.000Z</time>
      </trkpt>
      <trkpt lat="43.75708" lon="7.07634">
        <ele>913</ele>
        <time>2023-07-30T07:12:34.000Z</time>
      </trkpt>
      <trkpt lat="43.75709" lon="7.0763">
        <ele>913.20001220703</ele>
        <time>2023-07-30T07:12:35.000Z</time>
      </trkpt>
      <trkpt lat="43.7571" lon="7.07626">
        <ele>913.40002441406</ele>
        <time>2023-07-30T07:12:36.000Z</time>
      </trkpt>
      <trkpt lat="43.75711" lon="7.07623">
        <ele>913.59997558594</ele>
        <time>2023-07-30T07:12:37.000Z</time>
      </trkpt>
      <trkpt lat="43.75712" lon="7.07619">
        <ele>913.59997558594</ele>
        <time>2023-07-30T07:12:38.000Z</time>
      </trkpt>
      <trkpt lat="43.75713" lon="7.07616">
        <ele>913.79998779297</ele>
        <time>2023-07-30T07:12:39.000Z</time>
      </trkpt>
      <trkpt lat="43.75714" lon="7.07612">
        <ele>914</ele>
        <time>2023-07-30T07:12:40.000Z</time>
      </trkpt>
      <trkpt lat="43.75715" lon="7.07608">
        <ele>914.40002441406</ele>
        <time>2023-07-30T07:12:41.000Z</time>
      </trkpt>
      <trkpt lat="43.75716" lon="7.07604">
        <ele>914.59997558594</ele>
        <time>2023-07-30T07:12:42.000Z</time>
      </trkpt>
      <trkpt lat="43.75716" lon="7.076">
        <ele>914.79998779297</ele>
        <time>2023-07-30T07:12:43.000Z</time>
      </trkpt>
      <trkpt lat="43.75717" lon="7.07596">
        <ele>915</ele>
        <time>2023-07-30T07:12:44.000Z</time>
      </trkpt>
      <trkpt lat="43.75717" lon="7.07592">
        <ele>915</ele>
        <time>2023-07-30T07:12:45.000Z</time>
      </trkpt>
      <trkpt lat="43.75717" lon="7.07588">
        <ele>915.20001220703</ele>
        <time>2023-07-30T07:12:46.000Z</time>
      </trkpt>
      <trkpt lat="43.75717" lon="7.07584">
        <ele>915.59997558594</ele>
        <time>2023-07-30T07:12:47.000Z</time>
      </trkpt>
      <trkpt lat="43.75717" lon="7.0758">
        <ele>915.79998779297</ele>
        <time>2023-07-30T07:12:48.000Z</time>
      </trkpt>
      <trkpt lat="43.75718" lon="7.07576">
        <ele>916</ele>
        <time>2023-07-30T07:12:49.000Z</time>
      </trkpt>
      <trkpt lat="43.75718" lon="7.07571">
        <ele>916</ele>
        <time>2023-07-30T07:12:50.000Z</time>
      </trkpt>
      <trkpt lat="43.75719" lon="7.07567">
        <ele>916.20001220703</ele>
        <time>2023-07-30T07:12:51.000Z</time>
      </trkpt>
      <trkpt lat="43.75719" lon="7.07563">
        <ele>916.40002441406</ele>
        <time>2023-07-30T07:12:52.000Z</time>
      </trkpt>
      <trkpt lat="43.7572" lon="7.07559">
        <ele>916.59997558594</ele>
        <time>2023-07-30T07:12:53.000Z</time>
      </trkpt>
      <trkpt lat="43.7572" lon="7.07555">
        <ele>917</ele>
        <time>2023-07-30T07:12:54.000Z</time>
      </trkpt>
      <trkpt lat="43.7572" lon="7.07551">
        <ele>917.20001220703</ele>
        <time>2023-07-30T07:12:55.000Z</time>
      </trkpt>
      <trkpt lat="43.7572" lon="7.07547">
        <ele>917.40002441406</ele>
        <time>2023-07-30T07:12:56.000Z</time>
      </trkpt>
      <trkpt lat="43.75721" lon="7.07543">
        <ele>917.59997558594</ele>
        <time>2023-07-30T07:12:57.000Z</time>
      </trkpt>
      <trkpt lat="43.75721" lon="7.07539">
        <ele>918</ele>
        <time>2023-07-30T07:12:58.000Z</time>
      </trkpt>
      <trkpt lat="43.75721" lon="7.07535">
        <ele>918.20001220703</ele>
        <time>2023-07-30T07:12:59.000Z</time>
      </trkpt>
      <trkpt lat="43.75721" lon="7.07531">
        <ele>918.40002441406</ele>
        <time>2023-07-30T07:13:00.000Z</time>
      </trkpt>
      <trkpt lat="43.75721" lon="7.07527">
        <ele>918.59997558594</ele>
        <time>2023-07-30T07:13:01.000Z</time>
      </trkpt>
      <trkpt lat="43.7572" lon="7.07522">
        <ele>918.79998779297</ele>
        <time>2023-07-30T07:13:02.000Z</time>
      </trkpt>
      <trkpt lat="43.75719" lon="7.07518">
        <ele>919</ele>
        <time>2023-07-30T07:13:03.000Z</time>
      </trkpt>
      <trkpt lat="43.75718" lon="7.07514">
        <ele>919.20001220703</ele>
        <time>2023-07-30T07:13:04.000Z</time>
      </trkpt>
      <trkpt lat="43.75718" lon="7.0751">
        <ele>919.20001220703</ele>
        <time>2023-07-30T07:13:05.000Z</time>
      </trkpt>
      <trkpt lat="43.75717" lon="7.07506">
        <ele>919.40002441406</ele>
        <time>2023-07-30T07:13:06.000Z</time>
      </trkpt>
      <trkpt lat="43.75717" lon="7.07502">
        <ele>919.79998779297</ele>
        <time>2023-07-30T07:13:07.000Z</time>
      </trkpt>
      <trkpt lat="43.75716" lon="7.07498">
        <ele>920</ele>
        <time>2023-07-30T07:13:08.000Z</time>
      </trkpt>
      <trkpt lat="43.75715" lon="7.07494">
        <ele>920</ele>
        <time>2023-07-30T07:13:09.000Z</time>
      </trkpt>
      <trkpt lat="43.75715" lon="7.0749">
        <ele>920</ele>
        <time>2023-07-30T07:13:10.000Z</time>
      </trkpt>
      <trkpt lat="43.75714" lon="7.07487">
        <ele>920</ele>
        <time>2023-07-30T07:13:11.000Z</time>
      </trkpt>
      <trkpt lat="43.75714" lon="7.07483">
        <ele>920.20001220703</ele>
        <time>2023-07-30T07:13:12.000Z</time>
      </trkpt>
      <trkpt lat="43.75713" lon="7.0748">
        <ele>920.59997558594</ele>
        <time>2023-07-30T07:13:13.000Z</time>
      </trkpt>
      <trkpt lat="43.75713" lon="7.07475">
        <ele>920.79998779297</ele>
        <time>2023-07-30T07:13:14.000Z</time>
      </trkpt>
      <trkpt lat="43.75712" lon="7.07472">
        <ele>921</ele>
        <time>2023-07-30T07:13:15.000Z</time>
      </trkpt>
      <trkpt lat="43.75712" lon="7.07468">
        <ele>921.20001220703</ele>
        <time>2023-07-30T07:13:16.000Z</time>
      </trkpt>
      <trkpt lat="43.75712" lon="7.07463">
        <ele>921.59997558594</ele>
        <time>2023-07-30T07:13:17.000Z</time>
      </trkpt>
      <trkpt lat="43.75714" lon="7.0746">
        <ele>921.79998779297</ele>
        <time>2023-07-30T07:13:18.000Z</time>
      </trkpt>
      <trkpt lat="43.75715" lon="7.07457">
        <ele>922</ele>
        <time>2023-07-30T07:13:19.000Z</time>
      </trkpt>
      <trkpt lat="43.75717" lon="7.07454">
        <ele>922.20001220703</ele>
        <time>2023-07-30T07:13:20.000Z</time>
      </trkpt>
      <trkpt lat="43.75719" lon="7.07453">
        <ele>922.40002441406</ele>
        <time>2023-07-30T07:13:21.000Z</time>
      </trkpt>
      <trkpt lat="43.75721" lon="7.07453">
        <ele>922.59997558594</ele>
        <time>2023-07-30T07:13:22.000Z</time>
      </trkpt>
      <trkpt lat="43.75723" lon="7.07452">
        <ele>922.79998779297</ele>
        <time>2023-07-30T07:13:23.000Z</time>
      </trkpt>
      <trkpt lat="43.75725" lon="7.07452">
        <ele>922.79998779297</ele>
        <time>2023-07-30T07:13:24.000Z</time>
      </trkpt>
      <trkpt lat="43.75727" lon="7.07451">
        <ele>923</ele>
        <time>2023-07-30T07:13:25.000Z</time>
      </trkpt>
      <trkpt lat="43.75729" lon="7.07449">
        <ele>923</ele>
        <time>2023-07-30T07:13:26.000Z</time>
      </trkpt>
      <trkpt lat="43.7573" lon="7.07446">
        <ele>923</ele>
        <time>2023-07-30T07:13:27.000Z</time>
      </trkpt>
      <trkpt lat="43.7573" lon="7.07443">
        <ele>923.20001220703</ele>
        <time>2023-07-30T07:13:28.000Z</time>
      </trkpt>
      <trkpt lat="43.75729" lon="7.07439">
        <ele>923.40002441406</ele>
        <time>2023-07-30T07:13:29.000Z</time>
      </trkpt>
      <trkpt lat="43.75728" lon="7.07437">
        <ele>923.59997558594</ele>
        <time>2023-07-30T07:13:30.000Z</time>
      </trkpt>
      <trkpt lat="43.75726" lon="7.07435">
        <ele>923.79998779297</ele>
        <time>2023-07-30T07:13:31.000Z</time>
      </trkpt>
      <trkpt lat="43.75724" lon="7.07434">
        <ele>923.79998779297</ele>
        <time>2023-07-30T07:13:32.000Z</time>
      </trkpt>
      <trkpt lat="43.75723" lon="7.07432">
        <ele>923.79998779297</ele>
        <time>2023-07-30T07:13:33.000Z</time>
      </trkpt>
      <trkpt lat="43.75721" lon="7.07431">
        <ele>923.79998779297</ele>
        <time>2023-07-30T07:13:34.000Z</time>
      </trkpt>
      <trkpt lat="43.75721" lon="7.0743">
        <ele>924</ele>
        <time>2023-07-30T07:13:35.000Z</time>
      </trkpt>
      <trkpt lat="43.7572" lon="7.0743">
        <ele>924.40002441406</ele>
        <time>2023-07-30T07:13:36.000Z</time>
      </trkpt>
      <trkpt lat="43.75721" lon="7.0743">
        <ele>924.40002441406</ele>
        <time>2023-07-30T07:13:37.000Z</time>
      </trkpt>
      <trkpt lat="43.7572" lon="7.0743">
        <ele>924.59997558594</ele>
        <time>2023-07-30T07:13:38.000Z</time>
      </trkpt>
      <trkpt lat="43.75719" lon="7.0743">
        <ele>924.79998779297</ele>
        <time>2023-07-30T07:13:39.000Z</time>
      </trkpt>
      <trkpt lat="43.75719" lon="7.07431">
        <ele>924.79998779297</ele>
        <time>2023-07-30T07:13:40.000Z</time>
      </trkpt>
      <trkpt lat="43.75719" lon="7.07431">
        <ele>924.79998779297</ele>
        <time>2023-07-30T07:13:41.000Z</time>
      </trkpt>
      <trkpt lat="43.75719" lon="7.07431">
        <ele>924.79998779297</ele>
        <time>2023-07-30T07:13:42.000Z</time>
      </trkpt>
      <trkpt lat="43.75718" lon="7.07431">
        <ele>924.79998779297</ele>
        <time>2023-07-30T07:13:43.000Z</time>
      </trkpt>
      <trkpt lat="43.75718" lon="7.07431">
        <ele>924.79998779297</ele>
        <time>2023-07-30T07:13:44.000Z</time>
      </trkpt>
      <trkpt lat="43.75718" lon="7.07432">
        <ele>924.79998779297</ele>
        <time>2023-07-30T07:13:45.000Z</time>
      </trkpt>
      <trkpt lat="43.75717" lon="7.07432">
        <ele>925</ele>
        <time>2023-07-30T07:13:46.000Z</time>
      </trkpt>
      <trkpt lat="43.75715" lon="7.07432">
        <ele>925</ele>
        <time>2023-07-30T07:13:47.000Z</time>
      </trkpt>
      <trkpt lat="43.75714" lon="7.07431">
        <ele>925</ele>
        <time>2023-07-30T07:13:48.000Z</time>
      </trkpt>
      <trkpt lat="43.75714" lon="7.07429">
        <ele>925</ele>
        <time>2023-07-30T07:13:49.000Z</time>
      </trkpt>
      <trkpt lat="43.75714" lon="7.07428">
        <ele>925</ele>
        <time>2023-07-30T07:13:50.000Z</time>
      </trkpt>
      <trkpt lat="43.75714" lon="7.07426">
        <ele>924.79998779297</ele>
        <time>2023-07-30T07:13:51.000Z</time>
      </trkpt>
      <trkpt lat="43.75715" lon="7.07425">
        <ele>924.79998779297</ele>
        <time>2023-07-30T07:13:52.000Z</time>
      </trkpt>
      <trkpt lat="43.75714" lon="7.07425">
        <ele>924.79998779297</ele>
        <time>2023-07-30T07:13:53.000Z</time>
      </trkpt>
      <trkpt lat="43.75714" lon="7.07425">
        <ele>924.79998779297</ele>
        <time>2023-07-30T07:13:54.000Z</time>
      </trkpt>
      <trkpt lat="43.75714" lon="7.07425">
        <ele>924.79998779297</ele>
        <time>2023-07-30T07:13:55.000Z</time>
      </trkpt>
      <trkpt lat="43.75714" lon="7.07425">
        <ele>924.79998779297</ele>
        <time>2023-07-30T07:13:56.000Z</time>
      </trkpt>
      <trkpt lat="43.75714" lon="7.07425">
        <ele>924.79998779297</ele>
        <time>2023-07-30T07:13:57.000Z</time>
      </trkpt>
      <trkpt lat="43.75714" lon="7.07425">
        <ele>924.79998779297</ele>
        <time>2023-07-30T07:13:58.000Z</time>
      </trkpt>
      <trkpt lat="43.75714" lon="7.07425">
        <ele>924.79998779297</ele>
        <time>2023-07-30T07:13:59.000Z</time>
      </trkpt>
      <trkpt lat="43.75714" lon="7.07425">
        <ele>924.79998779297</ele>
        <time>2023-07-30T07:14:00.000Z</time>
      </trkpt>
      <trkpt lat="43.75714" lon="7.07425">
        <ele>924.79998779297</ele>
        <time>2023-07-30T07:14:01.000Z</time>
      </trkpt>
      <trkpt lat="43.75714" lon="7.07425">
        <ele>924.59997558594</ele>
        <time>2023-07-30T07:14:02.000Z</time>
      </trkpt>
      <trkpt lat="43.75714" lon="7.07425">
        <ele>924.79998779297</ele>
        <time>2023-07-30T07:14:03.000Z</time>
      </trkpt>
      <trkpt lat="43.75714" lon="7.07425">
        <ele>924.79998779297</ele>
        <time>2023-07-30T07:14:04.000Z</time>
      </trkpt>
      <trkpt lat="43.75714" lon="7.07423">
        <ele>924.79998779297</ele>
        <time>2023-07-30T07:14:05.000Z</time>
      </trkpt>
      <trkpt lat="43.75714" lon="7.07421">
        <ele>925</ele>
        <time>2023-07-30T07:14:06.000Z</time>
      </trkpt>
      <trkpt lat="43.75714" lon="7.07418">
        <ele>925</ele>
        <time>2023-07-30T07:14:07.000Z</time>
      </trkpt>
      <trkpt lat="43.75713" lon="7.07414">
        <ele>925.20001220703</ele>
        <time>2023-07-30T07:14:08.000Z</time>
      </trkpt>
      <trkpt lat="43.75713" lon="7.0741">
        <ele>925.20001220703</ele>
        <time>2023-07-30T07:14:09.000Z</time>
      </trkpt>
      <trkpt lat="43.75713" lon="7.07407">
        <ele>925.20001220703</ele>
        <time>2023-07-30T07:14:10.000Z</time>
      </trkpt>
      <trkpt lat="43.75713" lon="7.07404">
        <ele>925.20001220703</ele>
        <time>2023-07-30T07:14:11.000Z</time>
      </trkpt>
      <trkpt lat="43.75713" lon="7.07401">
        <ele>925.20001220703</ele>
        <time>2023-07-30T07:14:12.000Z</time>
      </trkpt>
      <trkpt lat="43.75713" lon="7.07397">
        <ele>925.20001220703</ele>
        <time>2023-07-30T07:14:13.000Z</time>
      </trkpt>
      <trkpt lat="43.75713" lon="7.07394">
        <ele>925.40002441406</ele>
        <time>2023-07-30T07:14:14.000Z</time>
      </trkpt>
      <trkpt lat="43.75712" lon="7.07391">
        <ele>925.79998779297</ele>
        <time>2023-07-30T07:14:15.000Z</time>
      </trkpt>
      <trkpt lat="43.75712" lon="7.07387">
        <ele>926.20001220703</ele>
        <time>2023-07-30T07:14:16.000Z</time>
      </trkpt>
      <trkpt lat="43.75711" lon="7.07384">
        <ele>926.40002441406</ele>
        <time>2023-07-30T07:14:17.000Z</time>
      </trkpt>
      <trkpt lat="43.75711" lon="7.07382">
        <ele>926.40002441406</ele>
        <time>2023-07-30T07:14:18.000Z</time>
      </trkpt>
      <trkpt lat="43.75711" lon="7.07379">
        <ele>926.59997558594</ele>
        <time>2023-07-30T07:14:19.000Z</time>
      </trkpt>
      <trkpt lat="43.7571" lon="7.07376">
        <ele>926.79998779297</ele>
        <time>2023-07-30T07:14:20.000Z</time>
      </trkpt>
      <trkpt lat="43.7571" lon="7.07374">
        <ele>926.79998779297</ele>
        <time>2023-07-30T07:14:21.000Z</time>
      </trkpt>
      <trkpt lat="43.7571" lon="7.07371">
        <ele>926.79998779297</ele>
        <time>2023-07-30T07:14:22.000Z</time>
      </trkpt>
      <trkpt lat="43.7571" lon="7.07367">
        <ele>927</ele>
        <time>2023-07-30T07:14:23.000Z</time>
      </trkpt>
      <trkpt lat="43.75711" lon="7.07363">
        <ele>927</ele>
        <time>2023-07-30T07:14:24.000Z</time>
      </trkpt>
      <trkpt lat="43.75711" lon="7.0736">
        <ele>927.20001220703</ele>
        <time>2023-07-30T07:14:25.000Z</time>
      </trkpt>
      <trkpt lat="43.75712" lon="7.07356">
        <ele>927.40002441406</ele>
        <time>2023-07-30T07:14:26.000Z</time>
      </trkpt>
      <trkpt lat="43.75712" lon="7.07353">
        <ele>927.59997558594</ele>
        <time>2023-07-30T07:14:27.000Z</time>
      </trkpt>
      <trkpt lat="43.75712" lon="7.07349">
        <ele>927.59997558594</ele>
        <time>2023-07-30T07:14:28.000Z</time>
      </trkpt>
      <trkpt lat="43.75713" lon="7.07346">
        <ele>927.59997558594</ele>
        <time>2023-07-30T07:14:29.000Z</time>
      </trkpt>
      <trkpt lat="43.75715" lon="7.07343">
        <ele>927.79998779297</ele>
        <time>2023-07-30T07:14:30.000Z</time>
      </trkpt>
      <trkpt lat="43.75716" lon="7.07339">
        <ele>928</ele>
        <time>2023-07-30T07:14:31.000Z</time>
      </trkpt>
      <trkpt lat="43.75717" lon="7.07337">
        <ele>928</ele>
        <time>2023-07-30T07:14:32.000Z</time>
      </trkpt>
      <trkpt lat="43.75716" lon="7.07333">
        <ele>928.40002441406</ele>
        <time>2023-07-30T07:14:33.000Z</time>
      </trkpt>
      <trkpt lat="43.75716" lon="7.0733">
        <ele>928.40002441406</ele>
        <time>2023-07-30T07:14:34.000Z</time>
      </trkpt>
      <trkpt lat="43.75715" lon="7.07328">
        <ele>929</ele>
        <time>2023-07-30T07:14:35.000Z</time>
      </trkpt>
      <trkpt lat="43.75715" lon="7.07326">
        <ele>929</ele>
        <time>2023-07-30T07:14:36.000Z</time>
      </trkpt>
      <trkpt lat="43.75714" lon="7.07323">
        <ele>929.40002441406</ele>
        <time>2023-07-30T07:14:37.000Z</time>
      </trkpt>
      <trkpt lat="43.75713" lon="7.0732">
        <ele>929.59997558594</ele>
        <time>2023-07-30T07:14:38.000Z</time>
      </trkpt>
      <trkpt lat="43.75713" lon="7.07316">
        <ele>930</ele>
        <time>2023-07-30T07:14:39.000Z</time>
      </trkpt>
      <trkpt lat="43.75713" lon="7.07313">
        <ele>930.20001220703</ele>
        <time>2023-07-30T07:14:40.000Z</time>
      </trkpt>
      <trkpt lat="43.75713" lon="7.0731">
        <ele>930.20001220703</ele>
        <time>2023-07-30T07:14:41.000Z</time>
      </trkpt>
      <trkpt lat="43.75713" lon="7.07307">
        <ele>930.59997558594</ele>
        <time>2023-07-30T07:14:42.000Z</time>
      </trkpt>
      <trkpt lat="43.75713" lon="7.07304">
        <ele>930.79998779297</ele>
        <time>2023-07-30T07:14:43.000Z</time>
      </trkpt>
      <trkpt lat="43.75713" lon="7.07301">
        <ele>931</ele>
        <time>2023-07-30T07:14:44.000Z</time>
      </trkpt>
      <trkpt lat="43.75714" lon="7.07298">
        <ele>931</ele>
        <time>2023-07-30T07:14:45.000Z</time>
      </trkpt>
      <trkpt lat="43.75715" lon="7.07296">
        <ele>931.20001220703</ele>
        <time>2023-07-30T07:14:46.000Z</time>
      </trkpt>
      <trkpt lat="43.75715" lon="7.07293">
        <ele>931.59997558594</ele>
        <time>2023-07-30T07:14:47.000Z</time>
      </trkpt>
      <trkpt lat="43.75716" lon="7.0729">
        <ele>931.79998779297</ele>
        <time>2023-07-30T07:14:48.000Z</time>
      </trkpt>
      <trkpt lat="43.75716" lon="7.07287">
        <ele>931.79998779297</ele>
        <time>2023-07-30T07:14:49.000Z</time>
      </trkpt>
      <trkpt lat="43.75717" lon="7.07284">
        <ele>931.79998779297</ele>
        <time>2023-07-30T07:14:50.000Z</time>
      </trkpt>
      <trkpt lat="43.75718" lon="7.07281">
        <ele>932</ele>
        <time>2023-07-30T07:14:51.000Z</time>
      </trkpt>
      <trkpt lat="43.75719" lon="7.07278">
        <ele>932.40002441406</ele>
        <time>2023-07-30T07:14:52.000Z</time>
      </trkpt>
      <trkpt lat="43.7572" lon="7.07275">
        <ele>932.40002441406</ele>
        <time>2023-07-30T07:14:53.000Z</time>
      </trkpt>
      <trkpt lat="43.75721" lon="7.07273">
        <ele>932.40002441406</ele>
        <time>2023-07-30T07:14:54.000Z</time>
      </trkpt>
      <trkpt lat="43.75722" lon="7.0727">
        <ele>932.59997558594</ele>
        <time>2023-07-30T07:14:55.000Z</time>
      </trkpt>
      <trkpt lat="43.75723" lon="7.07267">
        <ele>933</ele>
        <time>2023-07-30T07:14:56.000Z</time>
      </trkpt>
      <trkpt lat="43.75724" lon="7.07265">
        <ele>933.20001220703</ele>
        <time>2023-07-30T07:14:57.000Z</time>
      </trkpt>
      <trkpt lat="43.75724" lon="7.07262">
        <ele>933.40002441406</ele>
        <time>2023-07-30T07:14:58.000Z</time>
      </trkpt>
      <trkpt lat="43.75725" lon="7.07259">
        <ele>933.40002441406</ele>
        <time>2023-07-30T07:14:59.000Z</time>
      </trkpt>
      <trkpt lat="43.75726" lon="7.07256">
        <ele>933.59997558594</ele>
        <time>2023-07-30T07:15:00.000Z</time>
      </trkpt>
      <trkpt lat="43.75727" lon="7.07254">
        <ele>934</ele>
        <time>2023-07-30T07:15:01.000Z</time>
      </trkpt>
      <trkpt lat="43.75728" lon="7.07251">
        <ele>934.20001220703</ele>
        <time>2023-07-30T07:15:02.000Z</time>
      </trkpt>
      <trkpt lat="43.75729" lon="7.07248">
        <ele>934.59997558594</ele>
        <time>2023-07-30T07:15:03.000Z</time>
      </trkpt>
      <trkpt lat="43.75729" lon="7.07245">
        <ele>935</ele>
        <time>2023-07-30T07:15:04.000Z</time>
      </trkpt>
      <trkpt lat="43.75729" lon="7.07242">
        <ele>935.20001220703</ele>
        <time>2023-07-30T07:15:05.000Z</time>
      </trkpt>
      <trkpt lat="43.75729" lon="7.07239">
        <ele>935.59997558594</ele>
        <time>2023-07-30T07:15:06.000Z</time>
      </trkpt>
      <trkpt lat="43.7573" lon="7.07236">
        <ele>935.59997558594</ele>
        <time>2023-07-30T07:15:07.000Z</time>
      </trkpt>
      <trkpt lat="43.7573" lon="7.07233">
        <ele>935.79998779297</ele>
        <time>2023-07-30T07:15:08.000Z</time>
      </trkpt>
      <trkpt lat="43.7573" lon="7.0723">
        <ele>936</ele>
        <time>2023-07-30T07:15:09.000Z</time>
      </trkpt>
      <trkpt lat="43.7573" lon="7.07227">
        <ele>936.20001220703</ele>
        <time>2023-07-30T07:15:10.000Z</time>
      </trkpt>
      <trkpt lat="43.75731" lon="7.07224">
        <ele>936.40002441406</ele>
        <time>2023-07-30T07:15:11.000Z</time>
      </trkpt>
      <trkpt lat="43.75731" lon="7.0722">
        <ele>936.59997558594</ele>
        <time>2023-07-30T07:15:12.000Z</time>
      </trkpt>
      <trkpt lat="43.75732" lon="7.07217">
        <ele>936.79998779297</ele>
        <time>2023-07-30T07:15:13.000Z</time>
      </trkpt>
      <trkpt lat="43.75733" lon="7.07214">
        <ele>936.79998779297</ele>
        <time>2023-07-30T07:15:14.000Z</time>
      </trkpt>
      <trkpt lat="43.75734" lon="7.07211">
        <ele>936.79998779297</ele>
        <time>2023-07-30T07:15:15.000Z</time>
      </trkpt>
      <trkpt lat="43.75735" lon="7.07208">
        <ele>937</ele>
        <time>2023-07-30T07:15:16.000Z</time>
      </trkpt>
      <trkpt lat="43.75736" lon="7.07204">
        <ele>937</ele>
        <time>2023-07-30T07:15:17.000Z</time>
      </trkpt>
      <trkpt lat="43.75735" lon="7.07201">
        <ele>937</ele>
        <time>2023-07-30T07:15:18.000Z</time>
      </trkpt>
      <trkpt lat="43.75735" lon="7.07198">
        <ele>937</ele>
        <time>2023-07-30T07:15:19.000Z</time>
      </trkpt>
      <trkpt lat="43.75734" lon="7.07195">
        <ele>937.20001220703</ele>
        <time>2023-07-30T07:15:20.000Z</time>
      </trkpt>
      <trkpt lat="43.75732" lon="7.07193">
        <ele>937.20001220703</ele>
        <time>2023-07-30T07:15:21.000Z</time>
      </trkpt>
      <trkpt lat="43.75731" lon="7.07192">
        <ele>937.40002441406</ele>
        <time>2023-07-30T07:15:22.000Z</time>
      </trkpt>
      <trkpt lat="43.75729" lon="7.0719">
        <ele>937.59997558594</ele>
        <time>2023-07-30T07:15:23.000Z</time>
      </trkpt>
      <trkpt lat="43.75727" lon="7.0719">
        <ele>938</ele>
        <time>2023-07-30T07:15:24.000Z</time>
      </trkpt>
      <trkpt lat="43.75725" lon="7.07189">
        <ele>938.20001220703</ele>
        <time>2023-07-30T07:15:25.000Z</time>
      </trkpt>
      <trkpt lat="43.75722" lon="7.07189">
        <ele>938.40002441406</ele>
        <time>2023-07-30T07:15:26.000Z</time>
      </trkpt>
      <trkpt lat="43.7572" lon="7.07189">
        <ele>938.79998779297</ele>
        <time>2023-07-30T07:15:27.000Z</time>
      </trkpt>
      <trkpt lat="43.75717" lon="7.07188">
        <ele>939</ele>
        <time>2023-07-30T07:15:28.000Z</time>
      </trkpt>
      <trkpt lat="43.75714" lon="7.07189">
        <ele>939</ele>
        <time>2023-07-30T07:15:29.000Z</time>
      </trkpt>
      <trkpt lat="43.75712" lon="7.07189">
        <ele>939.20001220703</ele>
        <time>2023-07-30T07:15:30.000Z</time>
      </trkpt>
      <trkpt lat="43.75709" lon="7.0719">
        <ele>939.20001220703</ele>
        <time>2023-07-30T07:15:31.000Z</time>
      </trkpt>
      <trkpt lat="43.75706" lon="7.0719">
        <ele>939.40002441406</ele>
        <time>2023-07-30T07:15:32.000Z</time>
      </trkpt>
      <trkpt lat="43.75704" lon="7.0719">
        <ele>939.59997558594</ele>
        <time>2023-07-30T07:15:33.000Z</time>
      </trkpt>
      <trkpt lat="43.75701" lon="7.07191">
        <ele>939.59997558594</ele>
        <time>2023-07-30T07:15:34.000Z</time>
      </trkpt>
      <trkpt lat="43.75699" lon="7.07191">
        <ele>939.59997558594</ele>
        <time>2023-07-30T07:15:35.000Z</time>
      </trkpt>
      <trkpt lat="43.75696" lon="7.07191">
        <ele>939.59997558594</ele>
        <time>2023-07-30T07:15:36.000Z</time>
      </trkpt>
      <trkpt lat="43.75694" lon="7.07191">
        <ele>939.59997558594</ele>
        <time>2023-07-30T07:15:37.000Z</time>
      </trkpt>
      <trkpt lat="43.75691" lon="7.07192">
        <ele>939.79998779297</ele>
        <time>2023-07-30T07:15:38.000Z</time>
      </trkpt>
      <trkpt lat="43.75689" lon="7.07192">
        <ele>939.79998779297</ele>
        <time>2023-07-30T07:15:39.000Z</time>
      </trkpt>
      <trkpt lat="43.75686" lon="7.07192">
        <ele>940</ele>
        <time>2023-07-30T07:15:40.000Z</time>
      </trkpt>
      <trkpt lat="43.75684" lon="7.07192">
        <ele>940.20001220703</ele>
        <time>2023-07-30T07:15:41.000Z</time>
      </trkpt>
      <trkpt lat="43.75681" lon="7.07192">
        <ele>940.20001220703</ele>
        <time>2023-07-30T07:15:42.000Z</time>
      </trkpt>
      <trkpt lat="43.75679" lon="7.07192">
        <ele>940.20001220703</ele>
        <time>2023-07-30T07:15:43.000Z</time>
      </trkpt>
      <trkpt lat="43.75677" lon="7.07192">
        <ele>940.20001220703</ele>
        <time>2023-07-30T07:15:44.000Z</time>
      </trkpt>
      <trkpt lat="43.75674" lon="7.07191">
        <ele>940.40002441406</ele>
        <time>2023-07-30T07:15:45.000Z</time>
      </trkpt>
      <trkpt lat="43.75672" lon="7.0719">
        <ele>940.59997558594</ele>
        <time>2023-07-30T07:15:46.000Z</time>
      </trkpt>
      <trkpt lat="43.7567" lon="7.07189">
        <ele>940.59997558594</ele>
        <time>2023-07-30T07:15:47.000Z</time>
      </trkpt>
      <trkpt lat="43.75667" lon="7.07188">
        <ele>941</ele>
        <time>2023-07-30T07:15:48.000Z</time>
      </trkpt>
      <trkpt lat="43.75665" lon="7.07186">
        <ele>941</ele>
        <time>2023-07-30T07:15:49.000Z</time>
      </trkpt>
      <trkpt lat="43.75663" lon="7.07184">
        <ele>941.20001220703</ele>
        <time>2023-07-30T07:15:50.000Z</time>
      </trkpt>
      <trkpt lat="43.75661" lon="7.07182">
        <ele>941.20001220703</ele>
        <time>2023-07-30T07:15:51.000Z</time>
      </trkpt>
      <trkpt lat="43.75659" lon="7.0718">
        <ele>941.59997558594</ele>
        <time>2023-07-30T07:15:52.000Z</time>
      </trkpt>
      <trkpt lat="43.75657" lon="7.07177">
        <ele>941.59997558594</ele>
        <time>2023-07-30T07:15:53.000Z</time>
      </trkpt>
      <trkpt lat="43.75655" lon="7.07174">
        <ele>941.79998779297</ele>
        <time>2023-07-30T07:15:54.000Z</time>
      </trkpt>
      <trkpt lat="43.75653" lon="7.07171">
        <ele>941.79998779297</ele>
        <time>2023-07-30T07:15:55.000Z</time>
      </trkpt>
      <trkpt lat="43.75651" lon="7.07167">
        <ele>941.79998779297</ele>
        <time>2023-07-30T07:15:56.000Z</time>
      </trkpt>
      <trkpt lat="43.7565" lon="7.07164">
        <ele>941.79998779297</ele>
        <time>2023-07-30T07:15:57.000Z</time>
      </trkpt>
      <trkpt lat="43.75649" lon="7.0716">
        <ele>942</ele>
        <time>2023-07-30T07:15:58.000Z</time>
      </trkpt>
      <trkpt lat="43.75648" lon="7.07156">
        <ele>942</ele>
        <time>2023-07-30T07:15:59.000Z</time>
      </trkpt>
      <trkpt lat="43.75647" lon="7.07153">
        <ele>942</ele>
        <time>2023-07-30T07:16:00.000Z</time>
      </trkpt>
      <trkpt lat="43.75646" lon="7.0715">
        <ele>942</ele>
        <time>2023-07-30T07:16:01.000Z</time>
      </trkpt>
      <trkpt lat="43.75646" lon="7.07146">
        <ele>942.40002441406</ele>
        <time>2023-07-30T07:16:02.000Z</time>
      </trkpt>
      <trkpt lat="43.75645" lon="7.07143">
        <ele>942.79998779297</ele>
        <time>2023-07-30T07:16:03.000Z</time>
      </trkpt>
      <trkpt lat="43.75645" lon="7.07139">
        <ele>942.79998779297</ele>
        <time>2023-07-30T07:16:04.000Z</time>
      </trkpt>
      <trkpt lat="43.75645" lon="7.07135">
        <ele>943</ele>
        <time>2023-07-30T07:16:05.000Z</time>
      </trkpt>
      <trkpt lat="43.75645" lon="7.07132">
        <ele>943.20001220703</ele>
        <time>2023-07-30T07:16:06.000Z</time>
      </trkpt>
      <trkpt lat="43.75645" lon="7.07128">
        <ele>943.40002441406</ele>
        <time>2023-07-30T07:16:07.000Z</time>
      </trkpt>
      <trkpt lat="43.75644" lon="7.07125">
        <ele>943.79998779297</ele>
        <time>2023-07-30T07:16:08.000Z</time>
      </trkpt>
      <trkpt lat="43.75644" lon="7.07121">
        <ele>944.20001220703</ele>
        <time>2023-07-30T07:16:09.000Z</time>
      </trkpt>
      <trkpt lat="43.75643" lon="7.07118">
        <ele>944.20001220703</ele>
        <time>2023-07-30T07:16:10.000Z</time>
      </trkpt>
      <trkpt lat="43.75643" lon="7.07114">
        <ele>944.40002441406</ele>
        <time>2023-07-30T07:16:11.000Z</time>
      </trkpt>
      <trkpt lat="43.75642" lon="7.07111">
        <ele>944.59997558594</ele>
        <time>2023-07-30T07:16:12.000Z</time>
      </trkpt>
      <trkpt lat="43.7564" lon="7.07108">
        <ele>944.79998779297</ele>
        <time>2023-07-30T07:16:13.000Z</time>
      </trkpt>
      <trkpt lat="43.75639" lon="7.07105">
        <ele>945</ele>
        <time>2023-07-30T07:16:14.000Z</time>
      </trkpt>
      <trkpt lat="43.75638" lon="7.07102">
        <ele>945.40002441406</ele>
        <time>2023-07-30T07:16:15.000Z</time>
      </trkpt>
      <trkpt lat="43.75638" lon="7.07099">
        <ele>945.40002441406</ele>
        <time>2023-07-30T07:16:16.000Z</time>
      </trkpt>
      <trkpt lat="43.75636" lon="7.07096">
        <ele>945.40002441406</ele>
        <time>2023-07-30T07:16:17.000Z</time>
      </trkpt>
      <trkpt lat="43.75634" lon="7.07092">
        <ele>946</ele>
        <time>2023-07-30T07:16:18.000Z</time>
      </trkpt>
      <trkpt lat="43.75632" lon="7.07089">
        <ele>946</ele>
        <time>2023-07-30T07:16:19.000Z</time>
      </trkpt>
      <trkpt lat="43.7563" lon="7.07085">
        <ele>946.20001220703</ele>
        <time>2023-07-30T07:16:20.000Z</time>
      </trkpt>
      <trkpt lat="43.75628" lon="7.07081">
        <ele>946.20001220703</ele>
        <time>2023-07-30T07:16:21.000Z</time>
      </trkpt>
      <trkpt lat="43.75626" lon="7.07078">
        <ele>946.20001220703</ele>
        <time>2023-07-30T07:16:22.000Z</time>
      </trkpt>
      <trkpt lat="43.75625" lon="7.07075">
        <ele>946.20001220703</ele>
        <time>2023-07-30T07:16:23.000Z</time>
      </trkpt>
      <trkpt lat="43.75623" lon="7.07072">
        <ele>946.40002441406</ele>
        <time>2023-07-30T07:16:24.000Z</time>
      </trkpt>
      <trkpt lat="43.75622" lon="7.07071">
        <ele>946.40002441406</ele>
        <time>2023-07-30T07:16:25.000Z</time>
      </trkpt>
      <trkpt lat="43.7562" lon="7.0707">
        <ele>946.40002441406</ele>
        <time>2023-07-30T07:16:26.000Z</time>
      </trkpt>
      <trkpt lat="43.7562" lon="7.07068">
        <ele>947</ele>
        <time>2023-07-30T07:16:27.000Z</time>
      </trkpt>
      <trkpt lat="43.75619" lon="7.07065">
        <ele>947</ele>
        <time>2023-07-30T07:16:28.000Z</time>
      </trkpt>
      <trkpt lat="43.75618" lon="7.07062">
        <ele>947</ele>
        <time>2023-07-30T07:16:29.000Z</time>
      </trkpt>
      <trkpt lat="43.75617" lon="7.0706">
        <ele>947</ele>
        <time>2023-07-30T07:16:30.000Z</time>
      </trkpt>
      <trkpt lat="43.75615" lon="7.07058">
        <ele>947</ele>
        <time>2023-07-30T07:16:31.000Z</time>
      </trkpt>
      <trkpt lat="43.75614" lon="7.07055">
        <ele>947.20001220703</ele>
        <time>2023-07-30T07:16:32.000Z</time>
      </trkpt>
      <trkpt lat="43.75613" lon="7.07052">
        <ele>947.40002441406</ele>
        <time>2023-07-30T07:16:33.000Z</time>
      </trkpt>
      <trkpt lat="43.75612" lon="7.07049">
        <ele>947.59997558594</ele>
        <time>2023-07-30T07:16:34.000Z</time>
      </trkpt>
      <trkpt lat="43.75611" lon="7.07046">
        <ele>947.59997558594</ele>
        <time>2023-07-30T07:16:35.000Z</time>
      </trkpt>
      <trkpt lat="43.7561" lon="7.07044">
        <ele>947.79998779297</ele>
        <time>2023-07-30T07:16:36.000Z</time>
      </trkpt>
      <trkpt lat="43.75609" lon="7.0704">
        <ele>947.79998779297</ele>
        <time>2023-07-30T07:16:37.000Z</time>
      </trkpt>
      <trkpt lat="43.75608" lon="7.07036">
        <ele>947.79998779297</ele>
        <time>2023-07-30T07:16:38.000Z</time>
      </trkpt>
      <trkpt lat="43.75607" lon="7.07032">
        <ele>948</ele>
        <time>2023-07-30T07:16:39.000Z</time>
      </trkpt>
      <trkpt lat="43.75606" lon="7.07028">
        <ele>948</ele>
        <time>2023-07-30T07:16:40.000Z</time>
      </trkpt>
      <trkpt lat="43.75605" lon="7.07025">
        <ele>948</ele>
        <time>2023-07-30T07:16:41.000Z</time>
      </trkpt>
      <trkpt lat="43.75604" lon="7.07021">
        <ele>948</ele>
        <time>2023-07-30T07:16:42.000Z</time>
      </trkpt>
      <trkpt lat="43.75603" lon="7.07017">
        <ele>948</ele>
        <time>2023-07-30T07:16:43.000Z</time>
      </trkpt>
      <trkpt lat="43.75601" lon="7.07014">
        <ele>948</ele>
        <time>2023-07-30T07:16:44.000Z</time>
      </trkpt>
      <trkpt lat="43.756" lon="7.07011">
        <ele>948</ele>
        <time>2023-07-30T07:16:45.000Z</time>
      </trkpt>
      <trkpt lat="43.75598" lon="7.07008">
        <ele>948</ele>
        <time>2023-07-30T07:16:46.000Z</time>
      </trkpt>
      <trkpt lat="43.75596" lon="7.07004">
        <ele>947.79998779297</ele>
        <time>2023-07-30T07:16:47.000Z</time>
      </trkpt>
      <trkpt lat="43.75594" lon="7.07001">
        <ele>947.79998779297</ele>
        <time>2023-07-30T07:16:48.000Z</time>
      </trkpt>
      <trkpt lat="43.75592" lon="7.06999">
        <ele>947.59997558594</ele>
        <time>2023-07-30T07:16:49.000Z</time>
      </trkpt>
      <trkpt lat="43.7559" lon="7.06995">
        <ele>947.59997558594</ele>
        <time>2023-07-30T07:16:50.000Z</time>
      </trkpt>
      <trkpt lat="43.75588" lon="7.06992">
        <ele>947.59997558594</ele>
        <time>2023-07-30T07:16:51.000Z</time>
      </trkpt>
      <trkpt lat="43.75587" lon="7.06989">
        <ele>947.59997558594</ele>
        <time>2023-07-30T07:16:52.000Z</time>
      </trkpt>
      <trkpt lat="43.75585" lon="7.06987">
        <ele>947.59997558594</ele>
        <time>2023-07-30T07:16:53.000Z</time>
      </trkpt>
      <trkpt lat="43.75584" lon="7.06983">
        <ele>947.59997558594</ele>
        <time>2023-07-30T07:16:54.000Z</time>
      </trkpt>
      <trkpt lat="43.75582" lon="7.0698">
        <ele>947.59997558594</ele>
        <time>2023-07-30T07:16:55.000Z</time>
      </trkpt>
      <trkpt lat="43.75581" lon="7.06978">
        <ele>947.59997558594</ele>
        <time>2023-07-30T07:16:56.000Z</time>
      </trkpt>
      <trkpt lat="43.75578" lon="7.06975">
        <ele>947.59997558594</ele>
        <time>2023-07-30T07:16:57.000Z</time>
      </trkpt>
      <trkpt lat="43.75576" lon="7.06972">
        <ele>947.59997558594</ele>
        <time>2023-07-30T07:16:58.000Z</time>
      </trkpt>
      <trkpt lat="43.75574" lon="7.06969">
        <ele>947.59997558594</ele>
        <time>2023-07-30T07:16:59.000Z</time>
      </trkpt>
      <trkpt lat="43.75572" lon="7.06966">
        <ele>947.79998779297</ele>
        <time>2023-07-30T07:17:00.000Z</time>
      </trkpt>
      <trkpt lat="43.7557" lon="7.06963">
        <ele>947.79998779297</ele>
        <time>2023-07-30T07:17:01.000Z</time>
      </trkpt>
      <trkpt lat="43.75569" lon="7.06961">
        <ele>947.79998779297</ele>
        <time>2023-07-30T07:17:02.000Z</time>
      </trkpt>
      <trkpt lat="43.75568" lon="7.06959">
        <ele>948</ele>
        <time>2023-07-30T07:17:03.000Z</time>
      </trkpt>
      <trkpt lat="43.75566" lon="7.06956">
        <ele>948.20001220703</ele>
        <time>2023-07-30T07:17:04.000Z</time>
      </trkpt>
      <trkpt lat="43.75565" lon="7.06954">
        <ele>948.20001220703</ele>
        <time>2023-07-30T07:17:05.000Z</time>
      </trkpt>
      <trkpt lat="43.75564" lon="7.06951">
        <ele>948.20001220703</ele>
        <time>2023-07-30T07:17:06.000Z</time>
      </trkpt>
      <trkpt lat="43.75563" lon="7.06948">
        <ele>948.40002441406</ele>
        <time>2023-07-30T07:17:07.000Z</time>
      </trkpt>
      <trkpt lat="43.75562" lon="7.06946">
        <ele>948.59997558594</ele>
        <time>2023-07-30T07:17:08.000Z</time>
      </trkpt>
      <trkpt lat="43.75561" lon="7.06944">
        <ele>948.79998779297</ele>
        <time>2023-07-30T07:17:09.000Z</time>
      </trkpt>
      <trkpt lat="43.7556" lon="7.06941">
        <ele>949.20001220703</ele>
        <time>2023-07-30T07:17:10.000Z</time>
      </trkpt>
      <trkpt lat="43.75558" lon="7.06939">
        <ele>949.20001220703</ele>
        <time>2023-07-30T07:17:11.000Z</time>
      </trkpt>
      <trkpt lat="43.75557" lon="7.06937">
        <ele>949.20001220703</ele>
        <time>2023-07-30T07:17:12.000Z</time>
      </trkpt>
      <trkpt lat="43.75556" lon="7.06934">
        <ele>949.20001220703</ele>
        <time>2023-07-30T07:17:13.000Z</time>
      </trkpt>
      <trkpt lat="43.75555" lon="7.06932">
        <ele>949.20001220703</ele>
        <time>2023-07-30T07:17:14.000Z</time>
      </trkpt>
      <trkpt lat="43.75554" lon="7.06929">
        <ele>949.20001220703</ele>
        <time>2023-07-30T07:17:15.000Z</time>
      </trkpt>
      <trkpt lat="43.75553" lon="7.06926">
        <ele>949.20001220703</ele>
        <time>2023-07-30T07:17:16.000Z</time>
      </trkpt>
      <trkpt lat="43.75552" lon="7.06923">
        <ele>949</ele>
        <time>2023-07-30T07:17:17.000Z</time>
      </trkpt>
      <trkpt lat="43.75551" lon="7.06919">
        <ele>949</ele>
        <time>2023-07-30T07:17:18.000Z</time>
      </trkpt>
      <trkpt lat="43.7555" lon="7.06915">
        <ele>949</ele>
        <time>2023-07-30T07:17:19.000Z</time>
      </trkpt>
      <trkpt lat="43.75549" lon="7.06911">
        <ele>948.79998779297</ele>
        <time>2023-07-30T07:17:20.000Z</time>
      </trkpt>
      <trkpt lat="43.75548" lon="7.06907">
        <ele>948.59997558594</ele>
        <time>2023-07-30T07:17:21.000Z</time>
      </trkpt>
      <trkpt lat="43.75548" lon="7.06903">
        <ele>948.59997558594</ele>
        <time>2023-07-30T07:17:22.000Z</time>
      </trkpt>
      <trkpt lat="43.75547" lon="7.06899">
        <ele>948.59997558594</ele>
        <time>2023-07-30T07:17:23.000Z</time>
      </trkpt>
      <trkpt lat="43.75547" lon="7.06895">
        <ele>948.59997558594</ele>
        <time>2023-07-30T07:17:24.000Z</time>
      </trkpt>
      <trkpt lat="43.75546" lon="7.0689">
        <ele>948.40002441406</ele>
        <time>2023-07-30T07:17:25.000Z</time>
      </trkpt>
      <trkpt lat="43.75546" lon="7.06885">
        <ele>948</ele>
        <time>2023-07-30T07:17:26.000Z</time>
      </trkpt>
      <trkpt lat="43.75545" lon="7.06881">
        <ele>947.79998779297</ele>
        <time>2023-07-30T07:17:27.000Z</time>
      </trkpt>
      <trkpt lat="43.75545" lon="7.06876">
        <ele>947.40002441406</ele>
        <time>2023-07-30T07:17:28.000Z</time>
      </trkpt>
      <trkpt lat="43.75544" lon="7.06871">
        <ele>947.40002441406</ele>
        <time>2023-07-30T07:17:29.000Z</time>
      </trkpt>
      <trkpt lat="43.75544" lon="7.06866">
        <ele>947.20001220703</ele>
        <time>2023-07-30T07:17:30.000Z</time>
      </trkpt>
      <trkpt lat="43.75543" lon="7.06862">
        <ele>947.20001220703</ele>
        <time>2023-07-30T07:17:31.000Z</time>
      </trkpt>
      <trkpt lat="43.75543" lon="7.06858">
        <ele>947</ele>
        <time>2023-07-30T07:17:32.000Z</time>
      </trkpt>
      <trkpt lat="43.75543" lon="7.06854">
        <ele>946.79998779297</ele>
        <time>2023-07-30T07:17:33.000Z</time>
      </trkpt>
      <trkpt lat="43.75543" lon="7.06851">
        <ele>946.79998779297</ele>
        <time>2023-07-30T07:17:34.000Z</time>
      </trkpt>
      <trkpt lat="43.75543" lon="7.06848">
        <ele>946.79998779297</ele>
        <time>2023-07-30T07:17:35.000Z</time>
      </trkpt>
      <trkpt lat="43.75543" lon="7.06846">
        <ele>946.79998779297</ele>
        <time>2023-07-30T07:17:36.000Z</time>
      </trkpt>
      <trkpt lat="43.75543" lon="7.06845">
        <ele>946.59997558594</ele>
        <time>2023-07-30T07:17:37.000Z</time>
      </trkpt>
      <trkpt lat="43.75543" lon="7.06843">
        <ele>946.59997558594</ele>
        <time>2023-07-30T07:17:38.000Z</time>
      </trkpt>
      <trkpt lat="43.75543" lon="7.06842">
        <ele>946.59997558594</ele>
        <time>2023-07-30T07:17:39.000Z</time>
      </trkpt>
      <trkpt lat="43.75542" lon="7.06842">
        <ele>946.40002441406</ele>
        <time>2023-07-30T07:17:40.000Z</time>
      </trkpt>
      <trkpt lat="43.75542" lon="7.06841">
        <ele>946.40002441406</ele>
        <time>2023-07-30T07:17:41.000Z</time>
      </trkpt>
      <trkpt lat="43.75542" lon="7.06841">
        <ele>946.40002441406</ele>
        <time>2023-07-30T07:17:42.000Z</time>
      </trkpt>
      <trkpt lat="43.75542" lon="7.06841">
        <ele>946.40002441406</ele>
        <time>2023-07-30T07:17:43.000Z</time>
      </trkpt>
      <trkpt lat="43.75542" lon="7.06841">
        <ele>946.40002441406</ele>
        <time>2023-07-30T07:17:44.000Z</time>
      </trkpt>
      <trkpt lat="43.75542" lon="7.06843">
        <ele>946.40002441406</ele>
        <time>2023-07-30T07:17:45.000Z</time>
      </trkpt>
      <trkpt lat="43.75542" lon="7.06843">
        <ele>946.20001220703</ele>
        <time>2023-07-30T07:17:46.000Z</time>
      </trkpt>
      <trkpt lat="43.75542" lon="7.06843">
        <ele>946.20001220703</ele>
        <time>2023-07-30T07:17:47.000Z</time>
      </trkpt>
      <trkpt lat="43.75542" lon="7.06843">
        <ele>946.20001220703</ele>
        <time>2023-07-30T07:17:48.000Z</time>
      </trkpt>
      <trkpt lat="43.75542" lon="7.06843">
        <ele>946.20001220703</ele>
        <time>2023-07-30T07:17:49.000Z</time>
      </trkpt>
      <trkpt lat="43.75542" lon="7.06844">
        <ele>946.20001220703</ele>
        <time>2023-07-30T07:17:50.000Z</time>
      </trkpt>
      <trkpt lat="43.75542" lon="7.06845">
        <ele>946</ele>
        <time>2023-07-30T07:17:51.000Z</time>
      </trkpt>
      <trkpt lat="43.75542" lon="7.06846">
        <ele>946.20001220703</ele>
        <time>2023-07-30T07:17:52.000Z</time>
      </trkpt>
      <trkpt lat="43.75542" lon="7.06847">
        <ele>946</ele>
        <time>2023-07-30T07:17:53.000Z</time>
      </trkpt>
      <trkpt lat="43.75542" lon="7.06848">
        <ele>946</ele>
        <time>2023-07-30T07:17:54.000Z</time>
      </trkpt>
      <trkpt lat="43.75542" lon="7.06849">
        <ele>946</ele>
        <time>2023-07-30T07:17:55.000Z</time>
      </trkpt>
      <trkpt lat="43.75542" lon="7.0685">
        <ele>946</ele>
        <time>2023-07-30T07:17:56.000Z</time>
      </trkpt>
      <trkpt lat="43.75542" lon="7.0685">
        <ele>946</ele>
        <time>2023-07-30T07:17:57.000Z</time>
      </trkpt>
      <trkpt lat="43.75542" lon="7.06851">
        <ele>946</ele>
        <time>2023-07-30T07:17:58.000Z</time>
      </trkpt>
      <trkpt lat="43.75542" lon="7.06852">
        <ele>946</ele>
        <time>2023-07-30T07:17:59.000Z</time>
      </trkpt>
      <trkpt lat="43.75542" lon="7.06854">
        <ele>946.20001220703</ele>
        <time>2023-07-30T07:18:00.000Z</time>
      </trkpt>
      <trkpt lat="43.75542" lon="7.06855">
        <ele>946.20001220703</ele>
        <time>2023-07-30T07:18:01.000Z</time>
      </trkpt>
      <trkpt lat="43.75542" lon="7.06857">
        <ele>946.20001220703</ele>
        <time>2023-07-30T07:18:02.000Z</time>
      </trkpt>
      <trkpt lat="43.75542" lon="7.06859">
        <ele>946.20001220703</ele>
        <time>2023-07-30T07:18:03.000Z</time>
      </trkpt>
      <trkpt lat="43.75543" lon="7.06862">
        <ele>946.20001220703</ele>
        <time>2023-07-30T07:18:04.000Z</time>
      </trkpt>
      <trkpt lat="43.75544" lon="7.06865">
        <ele>946.20001220703</ele>
        <time>2023-07-30T07:18:05.000Z</time>
      </trkpt>
      <trkpt lat="43.75544" lon="7.06869">
        <ele>946.20001220703</ele>
        <time>2023-07-30T07:18:06.000Z</time>
      </trkpt>
      <trkpt lat="43.75545" lon="7.06872">
        <ele>946.20001220703</ele>
        <time>2023-07-30T07:18:07.000Z</time>
      </trkpt>
      <trkpt lat="43.75545" lon="7.06875">
        <ele>946.20001220703</ele>
        <time>2023-07-30T07:18:08.000Z</time>
      </trkpt>
      <trkpt lat="43.75545" lon="7.06879">
        <ele>946.20001220703</ele>
        <time>2023-07-30T07:18:09.000Z</time>
      </trkpt>
      <trkpt lat="43.75545" lon="7.06882">
        <ele>946.40002441406</ele>
        <time>2023-07-30T07:18:10.000Z</time>
      </trkpt>
      <trkpt lat="43.75545" lon="7.06885">
        <ele>946.40002441406</ele>
        <time>2023-07-30T07:18:11.000Z</time>
      </trkpt>
      <trkpt lat="43.75546" lon="7.06888">
        <ele>946.40002441406</ele>
        <time>2023-07-30T07:18:12.000Z</time>
      </trkpt>
      <trkpt lat="43.75546" lon="7.06892">
        <ele>946.40002441406</ele>
        <time>2023-07-30T07:18:13.000Z</time>
      </trkpt>
      <trkpt lat="43.75546" lon="7.06895">
        <ele>946.40002441406</ele>
        <time>2023-07-30T07:18:14.000Z</time>
      </trkpt>
      <trkpt lat="43.75546" lon="7.06898">
        <ele>946.59997558594</ele>
        <time>2023-07-30T07:18:15.000Z</time>
      </trkpt>
      <trkpt lat="43.75547" lon="7.06901">
        <ele>946.79998779297</ele>
        <time>2023-07-30T07:18:16.000Z</time>
      </trkpt>
      <trkpt lat="43.75547" lon="7.06905">
        <ele>946.79998779297</ele>
        <time>2023-07-30T07:18:17.000Z</time>
      </trkpt>
      <trkpt lat="43.75548" lon="7.06908">
        <ele>947.20001220703</ele>
        <time>2023-07-30T07:18:18.000Z</time>
      </trkpt>
      <trkpt lat="43.75548" lon="7.06912">
        <ele>947.20001220703</ele>
        <time>2023-07-30T07:18:19.000Z</time>
      </trkpt>
      <trkpt lat="43.75549" lon="7.06915">
        <ele>947.59997558594</ele>
        <time>2023-07-30T07:18:20.000Z</time>
      </trkpt>
      <trkpt lat="43.7555" lon="7.06918">
        <ele>947.59997558594</ele>
        <time>2023-07-30T07:18:21.000Z</time>
      </trkpt>
      <trkpt lat="43.75551" lon="7.0692">
        <ele>947.79998779297</ele>
        <time>2023-07-30T07:18:22.000Z</time>
      </trkpt>
      <trkpt lat="43.75553" lon="7.06923">
        <ele>948.20001220703</ele>
        <time>2023-07-30T07:18:23.000Z</time>
      </trkpt>
      <trkpt lat="43.75554" lon="7.06927">
        <ele>948.40002441406</ele>
        <time>2023-07-30T07:18:24.000Z</time>
      </trkpt>
      <trkpt lat="43.75556" lon="7.0693">
        <ele>948.59997558594</ele>
        <time>2023-07-30T07:18:25.000Z</time>
      </trkpt>
      <trkpt lat="43.75557" lon="7.06933">
        <ele>948.79998779297</ele>
        <time>2023-07-30T07:18:26.000Z</time>
      </trkpt>
      <trkpt lat="43.75559" lon="7.06936">
        <ele>949</ele>
        <time>2023-07-30T07:18:27.000Z</time>
      </trkpt>
      <trkpt lat="43.7556" lon="7.06938">
        <ele>949.40002441406</ele>
        <time>2023-07-30T07:18:28.000Z</time>
      </trkpt>
      <trkpt lat="43.75561" lon="7.06942">
        <ele>949.40002441406</ele>
        <time>2023-07-30T07:18:29.000Z</time>
      </trkpt>
      <trkpt lat="43.75563" lon="7.06945">
        <ele>949.79998779297</ele>
        <time>2023-07-30T07:18:30.000Z</time>
      </trkpt>
      <trkpt lat="43.75564" lon="7.06948">
        <ele>950</ele>
        <time>2023-07-30T07:18:31.000Z</time>
      </trkpt>
      <trkpt lat="43.75566" lon="7.06952">
        <ele>950.20001220703</ele>
        <time>2023-07-30T07:18:32.000Z</time>
      </trkpt>
      <trkpt lat="43.75568" lon="7.06956">
        <ele>950.20001220703</ele>
        <time>2023-07-30T07:18:33.000Z</time>
      </trkpt>
      <trkpt lat="43.75571" lon="7.06961">
        <ele>950.20001220703</ele>
        <time>2023-07-30T07:18:34.000Z</time>
      </trkpt>
      <trkpt lat="43.75574" lon="7.06965">
        <ele>950.20001220703</ele>
        <time>2023-07-30T07:18:35.000Z</time>
      </trkpt>
      <trkpt lat="43.75577" lon="7.06971">
        <ele>950.20001220703</ele>
        <time>2023-07-30T07:18:36.000Z</time>
      </trkpt>
      <trkpt lat="43.75581" lon="7.06975">
        <ele>949.79998779297</ele>
        <time>2023-07-30T07:18:37.000Z</time>
      </trkpt>
      <trkpt lat="43.75584" lon="7.0698">
        <ele>949.59997558594</ele>
        <time>2023-07-30T07:18:38.000Z</time>
      </trkpt>
      <trkpt lat="43.75586" lon="7.06985">
        <ele>949.40002441406</ele>
        <time>2023-07-30T07:18:39.000Z</time>
      </trkpt>
      <trkpt lat="43.75589" lon="7.0699">
        <ele>949.40002441406</ele>
        <time>2023-07-30T07:18:40.000Z</time>
      </trkpt>
      <trkpt lat="43.75591" lon="7.06995">
        <ele>949.40002441406</ele>
        <time>2023-07-30T07:18:41.000Z</time>
      </trkpt>
      <trkpt lat="43.75594" lon="7.06999">
        <ele>949.40002441406</ele>
        <time>2023-07-30T07:18:42.000Z</time>
      </trkpt>
      <trkpt lat="43.75597" lon="7.07003">
        <ele>949.40002441406</ele>
        <time>2023-07-30T07:18:43.000Z</time>
      </trkpt>
      <trkpt lat="43.756" lon="7.07008">
        <ele>949.40002441406</ele>
        <time>2023-07-30T07:18:44.000Z</time>
      </trkpt>
      <trkpt lat="43.75603" lon="7.07012">
        <ele>949</ele>
        <time>2023-07-30T07:18:45.000Z</time>
      </trkpt>
      <trkpt lat="43.75605" lon="7.07018">
        <ele>949</ele>
        <time>2023-07-30T07:18:46.000Z</time>
      </trkpt>
      <trkpt lat="43.75606" lon="7.07023">
        <ele>949</ele>
        <time>2023-07-30T07:18:47.000Z</time>
      </trkpt>
      <trkpt lat="43.75608" lon="7.07028">
        <ele>949</ele>
        <time>2023-07-30T07:18:48.000Z</time>
      </trkpt>
      <trkpt lat="43.75609" lon="7.07033">
        <ele>949.20001220703</ele>
        <time>2023-07-30T07:18:49.000Z</time>
      </trkpt>
      <trkpt lat="43.75611" lon="7.07039">
        <ele>949</ele>
        <time>2023-07-30T07:18:50.000Z</time>
      </trkpt>
      <trkpt lat="43.75613" lon="7.07044">
        <ele>949.20001220703</ele>
        <time>2023-07-30T07:18:51.000Z</time>
      </trkpt>
      <trkpt lat="43.75614" lon="7.07049">
        <ele>949.20001220703</ele>
        <time>2023-07-30T07:18:52.000Z</time>
      </trkpt>
      <trkpt lat="43.75616" lon="7.07054">
        <ele>949.40002441406</ele>
        <time>2023-07-30T07:18:53.000Z</time>
      </trkpt>
      <trkpt lat="43.75618" lon="7.07059">
        <ele>949.40002441406</ele>
        <time>2023-07-30T07:18:54.000Z</time>
      </trkpt>
      <trkpt lat="43.75621" lon="7.07065">
        <ele>949.40002441406</ele>
        <time>2023-07-30T07:18:55.000Z</time>
      </trkpt>
      <trkpt lat="43.75623" lon="7.07072">
        <ele>949.40002441406</ele>
        <time>2023-07-30T07:18:56.000Z</time>
      </trkpt>
      <trkpt lat="43.75627" lon="7.07078">
        <ele>949.40002441406</ele>
        <time>2023-07-30T07:18:57.000Z</time>
      </trkpt>
      <trkpt lat="43.7563" lon="7.07084">
        <ele>949</ele>
        <time>2023-07-30T07:18:58.000Z</time>
      </trkpt>
      <trkpt lat="43.75633" lon="7.07091">
        <ele>949</ele>
        <time>2023-07-30T07:18:59.000Z</time>
      </trkpt>
      <trkpt lat="43.75636" lon="7.07098">
        <ele>948.79998779297</ele>
        <time>2023-07-30T07:19:00.000Z</time>
      </trkpt>
      <trkpt lat="43.75639" lon="7.07104">
        <ele>948.79998779297</ele>
        <time>2023-07-30T07:19:01.000Z</time>
      </trkpt>
      <trkpt lat="43.75641" lon="7.07112">
        <ele>948.20001220703</ele>
        <time>2023-07-30T07:19:02.000Z</time>
      </trkpt>
      <trkpt lat="43.75643" lon="7.0712">
        <ele>948.20001220703</ele>
        <time>2023-07-30T07:19:03.000Z</time>
      </trkpt>
      <trkpt lat="43.75643" lon="7.07129">
        <ele>947.59997558594</ele>
        <time>2023-07-30T07:19:04.000Z</time>
      </trkpt>
      <trkpt lat="43.75644" lon="7.07137">
        <ele>947.20001220703</ele>
        <time>2023-07-30T07:19:05.000Z</time>
      </trkpt>
      <trkpt lat="43.75646" lon="7.07145">
        <ele>947</ele>
        <time>2023-07-30T07:19:06.000Z</time>
      </trkpt>
      <trkpt lat="43.75647" lon="7.07153">
        <ele>947</ele>
        <time>2023-07-30T07:19:07.000Z</time>
      </trkpt>
      <trkpt lat="43.75649" lon="7.07161">
        <ele>946.40002441406</ele>
        <time>2023-07-30T07:19:08.000Z</time>
      </trkpt>
      <trkpt lat="43.75652" lon="7.0717">
        <ele>946</ele>
        <time>2023-07-30T07:19:09.000Z</time>
      </trkpt>
      <trkpt lat="43.75657" lon="7.07177">
        <ele>945.59997558594</ele>
        <time>2023-07-30T07:19:10.000Z</time>
      </trkpt>
      <trkpt lat="43.75662" lon="7.07182">
        <ele>945.20001220703</ele>
        <time>2023-07-30T07:19:11.000Z</time>
      </trkpt>
      <trkpt lat="43.75667" lon="7.07187">
        <ele>945.20001220703</ele>
        <time>2023-07-30T07:19:12.000Z</time>
      </trkpt>
      <trkpt lat="43.75673" lon="7.0719">
        <ele>945</ele>
        <time>2023-07-30T07:19:13.000Z</time>
      </trkpt>
      <trkpt lat="43.75679" lon="7.07192">
        <ele>944.59997558594</ele>
        <time>2023-07-30T07:19:14.000Z</time>
      </trkpt>
      <trkpt lat="43.75686" lon="7.07191">
        <ele>944.20001220703</ele>
        <time>2023-07-30T07:19:15.000Z</time>
      </trkpt>
      <trkpt lat="43.75692" lon="7.07191">
        <ele>944.20001220703</ele>
        <time>2023-07-30T07:19:16.000Z</time>
      </trkpt>
      <trkpt lat="43.75699" lon="7.0719">
        <ele>944.20001220703</ele>
        <time>2023-07-30T07:19:17.000Z</time>
      </trkpt>
      <trkpt lat="43.75705" lon="7.07189">
        <ele>943.79998779297</ele>
        <time>2023-07-30T07:19:18.000Z</time>
      </trkpt>
      <trkpt lat="43.75712" lon="7.07189">
        <ele>943.59997558594</ele>
        <time>2023-07-30T07:19:19.000Z</time>
      </trkpt>
      <trkpt lat="43.75718" lon="7.07188">
        <ele>943</ele>
        <time>2023-07-30T07:19:20.000Z</time>
      </trkpt>
      <trkpt lat="43.75724" lon="7.0719">
        <ele>942.59997558594</ele>
        <time>2023-07-30T07:19:21.000Z</time>
      </trkpt>
      <trkpt lat="43.75729" lon="7.07191">
        <ele>942.59997558594</ele>
        <time>2023-07-30T07:19:22.000Z</time>
      </trkpt>
      <trkpt lat="43.75732" lon="7.07195">
        <ele>942.40002441406</ele>
        <time>2023-07-30T07:19:23.000Z</time>
      </trkpt>
      <trkpt lat="43.75734" lon="7.07199">
        <ele>942.40002441406</ele>
        <time>2023-07-30T07:19:24.000Z</time>
      </trkpt>
      <trkpt lat="43.75735" lon="7.07205">
        <ele>942.40002441406</ele>
        <time>2023-07-30T07:19:25.000Z</time>
      </trkpt>
      <trkpt lat="43.75734" lon="7.07212">
        <ele>942.40002441406</ele>
        <time>2023-07-30T07:19:26.000Z</time>
      </trkpt>
      <trkpt lat="43.75733" lon="7.07217">
        <ele>941.20001220703</ele>
        <time>2023-07-30T07:19:27.000Z</time>
      </trkpt>
      <trkpt lat="43.75731" lon="7.07223">
        <ele>941</ele>
        <time>2023-07-30T07:19:28.000Z</time>
      </trkpt>
      <trkpt lat="43.7573" lon="7.07229">
        <ele>940.20001220703</ele>
        <time>2023-07-30T07:19:29.000Z</time>
      </trkpt>
      <trkpt lat="43.7573" lon="7.07236">
        <ele>940.20001220703</ele>
        <time>2023-07-30T07:19:30.000Z</time>
      </trkpt>
      <trkpt lat="43.75729" lon="7.07242">
        <ele>940</ele>
        <time>2023-07-30T07:19:31.000Z</time>
      </trkpt>
      <trkpt lat="43.75728" lon="7.07249">
        <ele>940</ele>
        <time>2023-07-30T07:19:32.000Z</time>
      </trkpt>
      <trkpt lat="43.75727" lon="7.07256">
        <ele>940</ele>
        <time>2023-07-30T07:19:33.000Z</time>
      </trkpt>
      <trkpt lat="43.75725" lon="7.07265">
        <ele>939.79998779297</ele>
        <time>2023-07-30T07:19:34.000Z</time>
      </trkpt>
      <trkpt lat="43.75722" lon="7.07273">
        <ele>939.79998779297</ele>
        <time>2023-07-30T07:19:35.000Z</time>
      </trkpt>
      <trkpt lat="43.75718" lon="7.07282">
        <ele>938.79998779297</ele>
        <time>2023-07-30T07:19:36.000Z</time>
      </trkpt>
      <trkpt lat="43.75715" lon="7.07291">
        <ele>938.59997558594</ele>
        <time>2023-07-30T07:19:37.000Z</time>
      </trkpt>
      <trkpt lat="43.75714" lon="7.07299">
        <ele>938.40002441406</ele>
        <time>2023-07-30T07:19:38.000Z</time>
      </trkpt>
      <trkpt lat="43.75713" lon="7.07307">
        <ele>936.59997558594</ele>
        <time>2023-07-30T07:19:39.000Z</time>
      </trkpt>
      <trkpt lat="43.75714" lon="7.07316">
        <ele>936.20001220703</ele>
        <time>2023-07-30T07:19:40.000Z</time>
      </trkpt>
      <trkpt lat="43.75714" lon="7.07324">
        <ele>935.79998779297</ele>
        <time>2023-07-30T07:19:41.000Z</time>
      </trkpt>
      <trkpt lat="43.75715" lon="7.07332">
        <ele>935</ele>
        <time>2023-07-30T07:19:42.000Z</time>
      </trkpt>
      <trkpt lat="43.75715" lon="7.0734">
        <ele>934.79998779297</ele>
        <time>2023-07-30T07:19:43.000Z</time>
      </trkpt>
      <trkpt lat="43.75714" lon="7.07348">
        <ele>934.40002441406</ele>
        <time>2023-07-30T07:19:44.000Z</time>
      </trkpt>
      <trkpt lat="43.75713" lon="7.07357">
        <ele>933.20001220703</ele>
        <time>2023-07-30T07:19:45.000Z</time>
      </trkpt>
      <trkpt lat="43.75712" lon="7.07367">
        <ele>933</ele>
        <time>2023-07-30T07:19:46.000Z</time>
      </trkpt>
      <trkpt lat="43.75712" lon="7.07376">
        <ele>932.40002441406</ele>
        <time>2023-07-30T07:19:47.000Z</time>
      </trkpt>
      <trkpt lat="43.75712" lon="7.07384">
        <ele>932</ele>
        <time>2023-07-30T07:19:48.000Z</time>
      </trkpt>
      <trkpt lat="43.75713" lon="7.07394">
        <ele>932</ele>
        <time>2023-07-30T07:19:49.000Z</time>
      </trkpt>
      <trkpt lat="43.75713" lon="7.07402">
        <ele>931.20001220703</ele>
        <time>2023-07-30T07:19:50.000Z</time>
      </trkpt>
      <trkpt lat="43.75713" lon="7.07411">
        <ele>930.59997558594</ele>
        <time>2023-07-30T07:19:51.000Z</time>
      </trkpt>
      <trkpt lat="43.75713" lon="7.07419">
        <ele>930.40002441406</ele>
        <time>2023-07-30T07:19:52.000Z</time>
      </trkpt>
      <trkpt lat="43.75714" lon="7.07425">
        <ele>930</ele>
        <time>2023-07-30T07:19:53.000Z</time>
      </trkpt>
      <trkpt lat="43.75714" lon="7.07429">
        <ele>929.59997558594</ele>
        <time>2023-07-30T07:19:54.000Z</time>
      </trkpt>
      <trkpt lat="43.75715" lon="7.07432">
        <ele>928.59997558594</ele>
        <time>2023-07-30T07:19:55.000Z</time>
      </trkpt>
      <trkpt lat="43.75716" lon="7.07432">
        <ele>928.59997558594</ele>
        <time>2023-07-30T07:19:56.000Z</time>
      </trkpt>
      <trkpt lat="43.75717" lon="7.07432">
        <ele>928.20001220703</ele>
        <time>2023-07-30T07:19:57.000Z</time>
      </trkpt>
      <trkpt lat="43.75718" lon="7.07432">
        <ele>928</ele>
        <time>2023-07-30T07:19:58.000Z</time>
      </trkpt>
      <trkpt lat="43.75719" lon="7.07432">
        <ele>928</ele>
        <time>2023-07-30T07:19:59.000Z</time>
      </trkpt>
      <trkpt lat="43.75719" lon="7.07432">
        <ele>928</ele>
        <time>2023-07-30T07:20:00.000Z</time>
      </trkpt>
      <trkpt lat="43.7572" lon="7.07432">
        <ele>928.20001220703</ele>
        <time>2023-07-30T07:20:01.000Z</time>
      </trkpt>
      <trkpt lat="43.75721" lon="7.07431">
        <ele>928.20001220703</ele>
        <time>2023-07-30T07:20:02.000Z</time>
      </trkpt>
      <trkpt lat="43.75721" lon="7.07431">
        <ele>928.20001220703</ele>
        <time>2023-07-30T07:20:03.000Z</time>
      </trkpt>
      <trkpt lat="43.75721" lon="7.07431">
        <ele>928.20001220703</ele>
        <time>2023-07-30T07:20:04.000Z</time>
      </trkpt>
      <trkpt lat="43.75721" lon="7.07431">
        <ele>928.20001220703</ele>
        <time>2023-07-30T07:20:05.000Z</time>
      </trkpt>
      <trkpt lat="43.75721" lon="7.07431">
        <ele>928.20001220703</ele>
        <time>2023-07-30T07:20:06.000Z</time>
      </trkpt>
      <trkpt lat="43.75721" lon="7.07431">
        <ele>928.20001220703</ele>
        <time>2023-07-30T07:20:07.000Z</time>
      </trkpt>
      <trkpt lat="43.75721" lon="7.07431">
        <ele>928.20001220703</ele>
        <time>2023-07-30T07:20:08.000Z</time>
      </trkpt>
      <trkpt lat="43.75721" lon="7.07431">
        <ele>927.79998779297</ele>
        <time>2023-07-30T07:20:09.000Z</time>
      </trkpt>
      <trkpt lat="43.75721" lon="7.07431">
        <ele>927.79998779297</ele>
        <time>2023-07-30T07:20:10.000Z</time>
      </trkpt>
      <trkpt lat="43.75721" lon="7.07431">
        <ele>927.79998779297</ele>
        <time>2023-07-30T07:20:11.000Z</time>
      </trkpt>
      <trkpt lat="43.75721" lon="7.07431">
        <ele>927.79998779297</ele>
        <time>2023-07-30T07:20:12.000Z</time>
      </trkpt>
      <trkpt lat="43.75721" lon="7.07431">
        <ele>927.79998779297</ele>
        <time>2023-07-30T07:20:13.000Z</time>
      </trkpt>
      <trkpt lat="43.75721" lon="7.07431">
        <ele>927.79998779297</ele>
        <time>2023-07-30T07:20:14.000Z</time>
      </trkpt>
      <trkpt lat="43.75721" lon="7.07431">
        <ele>928.20001220703</ele>
        <time>2023-07-30T07:20:15.000Z</time>
      </trkpt>
      <trkpt lat="43.75721" lon="7.07431">
        <ele>928.20001220703</ele>
        <time>2023-07-30T07:20:16.000Z</time>
      </trkpt>
      <trkpt lat="43.75721" lon="7.07431">
        <ele>928.20001220703</ele>
        <time>2023-07-30T07:20:17.000Z</time>
      </trkpt>
      <trkpt lat="43.75721" lon="7.07431">
        <ele>928.20001220703</ele>
        <time>2023-07-30T07:20:18.000Z</time>
      </trkpt>
      <trkpt lat="43.75721" lon="7.07431">
        <ele>928</ele>
        <time>2023-07-30T07:20:19.000Z</time>
      </trkpt>
      <trkpt lat="43.75721" lon="7.07431">
        <ele>928</ele>
        <time>2023-07-30T07:20:20.000Z</time>
      </trkpt>
      <trkpt lat="43.75721" lon="7.07431">
        <ele>928</ele>
        <time>2023-07-30T07:20:21.000Z</time>
      </trkpt>
      <trkpt lat="43.75721" lon="7.07431">
        <ele>928</ele>
        <time>2023-07-30T07:20:22.000Z</time>
      </trkpt>
      <trkpt lat="43.75721" lon="7.07431">
        <ele>928</ele>
        <time>2023-07-30T07:20:23.000Z</time>
      </trkpt>
      <trkpt lat="43.75721" lon="7.07431">
        <ele>928</ele>
        <time>2023-07-30T07:20:24.000Z</time>
      </trkpt>
      <trkpt lat="43.75721" lon="7.07431">
        <ele>928</ele>
        <time>2023-07-30T07:20:25.000Z</time>
      </trkpt>
      <trkpt lat="43.75721" lon="7.07431">
        <ele>927.79998779297</ele>
        <time>2023-07-30T07:20:26.000Z</time>
      </trkpt>
      <trkpt lat="43.75721" lon="7.07431">
        <ele>927.79998779297</ele>
        <time>2023-07-30T07:20:27.000Z</time>
      </trkpt>
      <trkpt lat="43.75721" lon="7.07431">
        <ele>927.79998779297</ele>
        <time>2023-07-30T07:20:28.000Z</time>
      </trkpt>
      <trkpt lat="43.75721" lon="7.07431">
        <ele>927.79998779297</ele>
        <time>2023-07-30T07:20:29.000Z</time>
      </trkpt>
      <trkpt lat="43.75721" lon="7.07431">
        <ele>927.79998779297</ele>
        <time>2023-07-30T07:20:30.000Z</time>
      </trkpt>
      <trkpt lat="43.75721" lon="7.07431">
        <ele>927.79998779297</ele>
        <time>2023-07-30T07:20:31.000Z</time>
      </trkpt>
      <trkpt lat="43.75721" lon="7.07431">
        <ele>927.79998779297</ele>
        <time>2023-07-30T07:20:32.000Z</time>
      </trkpt>
      <trkpt lat="43.75721" lon="7.07431">
        <ele>927.59997558594</ele>
        <time>2023-07-30T07:20:33.000Z</time>
      </trkpt>
      <trkpt lat="43.75721" lon="7.07431">
        <ele>927.59997558594</ele>
        <time>2023-07-30T07:20:34.000Z</time>
      </trkpt>
      <trkpt lat="43.75721" lon="7.07431">
        <ele>927.59997558594</ele>
        <time>2023-07-30T07:20:35.000Z</time>
      </trkpt>
      <trkpt lat="43.75721" lon="7.07431">
        <ele>927.59997558594</ele>
        <time>2023-07-30T07:20:36.000Z</time>
      </trkpt>
      <trkpt lat="43.75721" lon="7.07431">
        <ele>927.59997558594</ele>
        <time>2023-07-30T07:20:37.000Z</time>
      </trkpt>
      <trkpt lat="43.75721" lon="7.07431">
        <ele>927.59997558594</ele>
        <time>2023-07-30T07:20:38.000Z</time>
      </trkpt>
      <trkpt lat="43.75721" lon="7.07431">
        <ele>927.59997558594</ele>
        <time>2023-07-30T07:20:39.000Z</time>
      </trkpt>
      <trkpt lat="43.75721" lon="7.07431">
        <ele>927.59997558594</ele>
        <time>2023-07-30T07:20:40.000Z</time>
      </trkpt>
      <trkpt lat="43.75721" lon="7.07431">
        <ele>927.59997558594</ele>
        <time>2023-07-30T07:20:41.000Z</time>
      </trkpt>
      <trkpt lat="43.75721" lon="7.07431">
        <ele>927.59997558594</ele>
        <time>2023-07-30T07:20:42.000Z</time>
      </trkpt>
      <trkpt lat="43.75721" lon="7.07431">
        <ele>927.20001220703</ele>
        <time>2023-07-30T07:20:43.000Z</time>
      </trkpt>
      <trkpt lat="43.75721" lon="7.07431">
        <ele>927.20001220703</ele>
        <time>2023-07-30T07:20:44.000Z</time>
      </trkpt>
      <trkpt lat="43.75721" lon="7.07431">
        <ele>927.20001220703</ele>
        <time>2023-07-30T07:20:45.000Z</time>
      </trkpt>
      <trkpt lat="43.75721" lon="7.07431">
        <ele>927.59997558594</ele>
        <time>2023-07-30T07:20:46.000Z</time>
      </trkpt>
      <trkpt lat="43.75721" lon="7.07431">
        <ele>927.59997558594</ele>
        <time>2023-07-30T07:20:47.000Z</time>
      </trkpt>
      <trkpt lat="43.75721" lon="7.07431">
        <ele>927.20001220703</ele>
        <time>2023-07-30T07:20:48.000Z</time>
      </trkpt>
      <trkpt lat="43.75721" lon="7.07431">
        <ele>927.59997558594</ele>
        <time>2023-07-30T07:20:49.000Z</time>
      </trkpt>
      <trkpt lat="43.75721" lon="7.07431">
        <ele>927.79998779297</ele>
        <time>2023-07-30T07:20:50.000Z</time>
      </trkpt>
      <trkpt lat="43.75721" lon="7.07431">
        <ele>927.59997558594</ele>
        <time>2023-07-30T07:20:51.000Z</time>
      </trkpt>
      <trkpt lat="43.75721" lon="7.07431">
        <ele>927.40002441406</ele>
        <time>2023-07-30T07:20:52.000Z</time>
      </trkpt>
      <trkpt lat="43.75721" lon="7.07431">
        <ele>927.40002441406</ele>
        <time>2023-07-30T07:20:53.000Z</time>
      </trkpt>
      <trkpt lat="43.75721" lon="7.07431">
        <ele>927.59997558594</ele>
        <time>2023-07-30T07:20:54.000Z</time>
      </trkpt>
      <trkpt lat="43.75721" lon="7.07431">
        <ele>927.79998779297</ele>
        <time>2023-07-30T07:20:55.000Z</time>
      </trkpt>
      <trkpt lat="43.75721" lon="7.07431">
        <ele>927.79998779297</ele>
        <time>2023-07-30T07:20:56.000Z</time>
      </trkpt>
      <trkpt lat="43.75721" lon="7.07431">
        <ele>927.79998779297</ele>
        <time>2023-07-30T07:20:57.000Z</time>
      </trkpt>
      <trkpt lat="43.75721" lon="7.07431">
        <ele>927.79998779297</ele>
        <time>2023-07-30T07:20:58.000Z</time>
      </trkpt>
      <trkpt lat="43.75721" lon="7.07431">
        <ele>927.79998779297</ele>
        <time>2023-07-30T07:20:59.000Z</time>
      </trkpt>
      <trkpt lat="43.75721" lon="7.07431">
        <ele>927.79998779297</ele>
        <time>2023-07-30T07:21:00.000Z</time>
      </trkpt>
      <trkpt lat="43.75721" lon="7.07431">
        <ele>927.79998779297</ele>
        <time>2023-07-30T07:21:01.000Z</time>
      </trkpt>
      <trkpt lat="43.75721" lon="7.07431">
        <ele>927.79998779297</ele>
        <time>2023-07-30T07:21:02.000Z</time>
      </trkpt>
      <trkpt lat="43.75721" lon="7.07431">
        <ele>927.59997558594</ele>
        <time>2023-07-30T07:21:03.000Z</time>
      </trkpt>
      <trkpt lat="43.75721" lon="7.07431">
        <ele>927.59997558594</ele>
        <time>2023-07-30T07:21:04.000Z</time>
      </trkpt>
      <trkpt lat="43.75721" lon="7.07431">
        <ele>927.59997558594</ele>
        <time>2023-07-30T07:21:05.000Z</time>
      </trkpt>
      <trkpt lat="43.75721" lon="7.07431">
        <ele>927.59997558594</ele>
        <time>2023-07-30T07:21:06.000Z</time>
      </trkpt>
      <trkpt lat="43.75721" lon="7.07431">
        <ele>927.59997558594</ele>
        <time>2023-07-30T07:21:07.000Z</time>
      </trkpt>
      <trkpt lat="43.75721" lon="7.07431">
        <ele>927.59997558594</ele>
        <time>2023-07-30T07:21:08.000Z</time>
      </trkpt>
      <trkpt lat="43.75721" lon="7.07431">
        <ele>927.79998779297</ele>
        <time>2023-07-30T07:21:09.000Z</time>
      </trkpt>
      <trkpt lat="43.75721" lon="7.07431">
        <ele>928</ele>
        <time>2023-07-30T07:21:10.000Z</time>
      </trkpt>
      <trkpt lat="43.75721" lon="7.07431">
        <ele>928</ele>
        <time>2023-07-30T07:21:11.000Z</time>
      </trkpt>
      <trkpt lat="43.75721" lon="7.07431">
        <ele>928</ele>
        <time>2023-07-30T07:21:12.000Z</time>
      </trkpt>
      <trkpt lat="43.75721" lon="7.07431">
        <ele>928.20001220703</ele>
        <time>2023-07-30T07:21:13.000Z</time>
      </trkpt>
      <trkpt lat="43.75721" lon="7.07431">
        <ele>928</ele>
        <time>2023-07-30T07:21:14.000Z</time>
      </trkpt>
      <trkpt lat="43.75721" lon="7.07431">
        <ele>928</ele>
        <time>2023-07-30T07:21:15.000Z</time>
      </trkpt>
      <trkpt lat="43.75721" lon="7.07431">
        <ele>928.20001220703</ele>
        <time>2023-07-30T07:21:16.000Z</time>
      </trkpt>
      <trkpt lat="43.75721" lon="7.07431">
        <ele>928</ele>
        <time>2023-07-30T07:21:17.000Z</time>
      </trkpt>
      <trkpt lat="43.75721" lon="7.07431">
        <ele>928</ele>
        <time>2023-07-30T07:21:18.000Z</time>
      </trkpt>
      <trkpt lat="43.75721" lon="7.07431">
        <ele>928</ele>
        <time>2023-07-30T07:21:19.000Z</time>
      </trkpt>
      <trkpt lat="43.75721" lon="7.07431">
        <ele>928</ele>
        <time>2023-07-30T07:21:20.000Z</time>
      </trkpt>
      <trkpt lat="43.75721" lon="7.07431">
        <ele>928</ele>
        <time>2023-07-30T07:21:21.000Z</time>
      </trkpt>
      <trkpt lat="43.75721" lon="7.07431">
        <ele>927.79998779297</ele>
        <time>2023-07-30T07:21:22.000Z</time>
      </trkpt>
      <trkpt lat="43.75721" lon="7.07431">
        <ele>927.79998779297</ele>
        <time>2023-07-30T07:21:23.000Z</time>
      </trkpt>
      <trkpt lat="43.75721" lon="7.07431">
        <ele>927.79998779297</ele>
        <time>2023-07-30T07:21:24.000Z</time>
      </trkpt>
      <trkpt lat="43.75721" lon="7.07431">
        <ele>927.79998779297</ele>
        <time>2023-07-30T07:21:25.000Z</time>
      </trkpt>
      <trkpt lat="43.75721" lon="7.07431">
        <ele>927.79998779297</ele>
        <time>2023-07-30T07:21:26.000Z</time>
      </trkpt>
      <trkpt lat="43.75721" lon="7.07431">
        <ele>927.59997558594</ele>
        <time>2023-07-30T07:21:27.000Z</time>
      </trkpt>
      <trkpt lat="43.75721" lon="7.07431">
        <ele>927.59997558594</ele>
        <time>2023-07-30T07:21:28.000Z</time>
      </trkpt>
      <trkpt lat="43.75721" lon="7.07431">
        <ele>927.20001220703</ele>
        <time>2023-07-30T07:21:29.000Z</time>
      </trkpt>
      <trkpt lat="43.75721" lon="7.07431">
        <ele>927.20001220703</ele>
        <time>2023-07-30T07:21:30.000Z</time>
      </trkpt>
      <trkpt lat="43.75721" lon="7.07431">
        <ele>927.20001220703</ele>
        <time>2023-07-30T07:21:31.000Z</time>
      </trkpt>
      <trkpt lat="43.75721" lon="7.07431">
        <ele>927.20001220703</ele>
        <time>2023-07-30T07:21:32.000Z</time>
      </trkpt>
      <trkpt lat="43.75721" lon="7.07431">
        <ele>927</ele>
        <time>2023-07-30T07:21:33.000Z</time>
      </trkpt>
      <trkpt lat="43.75721" lon="7.07431">
        <ele>927</ele>
        <time>2023-07-30T07:21:34.000Z</time>
      </trkpt>
      <trkpt lat="43.75721" lon="7.07431">
        <ele>927</ele>
        <time>2023-07-30T07:21:35.000Z</time>
      </trkpt>
      <trkpt lat="43.75721" lon="7.07431">
        <ele>927.40002441406</ele>
        <time>2023-07-30T07:21:36.000Z</time>
      </trkpt>
      <trkpt lat="43.75721" lon="7.07431">
        <ele>927.79998779297</ele>
        <time>2023-07-30T07:21:37.000Z</time>
      </trkpt>
      <trkpt lat="43.75721" lon="7.07431">
        <ele>927.79998779297</ele>
        <time>2023-07-30T07:21:38.000Z</time>
      </trkpt>
      <trkpt lat="43.75721" lon="7.07431">
        <ele>927.40002441406</ele>
        <time>2023-07-30T07:21:39.000Z</time>
      </trkpt>
      <trkpt lat="43.75721" lon="7.07431">
        <ele>927.59997558594</ele>
        <time>2023-07-30T07:21:40.000Z</time>
      </trkpt>
      <trkpt lat="43.75721" lon="7.07431">
        <ele>927.59997558594</ele>
        <time>2023-07-30T07:21:41.000Z</time>
      </trkpt>
      <trkpt lat="43.75721" lon="7.07431">
        <ele>927.79998779297</ele>
        <time>2023-07-30T07:21:42.000Z</time>
      </trkpt>
      <trkpt lat="43.75721" lon="7.07431">
        <ele>928</ele>
        <time>2023-07-30T07:21:43.000Z</time>
      </trkpt>
      <trkpt lat="43.75721" lon="7.07431">
        <ele>927.79998779297</ele>
        <time>2023-07-30T07:21:44.000Z</time>
      </trkpt>
      <trkpt lat="43.75721" lon="7.07431">
        <ele>927.79998779297</ele>
        <time>2023-07-30T07:21:45.000Z</time>
      </trkpt>
      <trkpt lat="43.75721" lon="7.07431">
        <ele>928.20001220703</ele>
        <time>2023-07-30T07:21:46.000Z</time>
      </trkpt>
      <trkpt lat="43.75721" lon="7.07431">
        <ele>928.20001220703</ele>
        <time>2023-07-30T07:21:47.000Z</time>
      </trkpt>
      <trkpt lat="43.75721" lon="7.07431">
        <ele>928.40002441406</ele>
        <time>2023-07-30T07:21:48.000Z</time>
      </trkpt>
      <trkpt lat="43.75721" lon="7.07431">
        <ele>928.20001220703</ele>
        <time>2023-07-30T07:21:49.000Z</time>
      </trkpt>
      <trkpt lat="43.75721" lon="7.07431">
        <ele>927.79998779297</ele>
        <time>2023-07-30T07:21:50.000Z</time>
      </trkpt>
      <trkpt lat="43.75721" lon="7.07431">
        <ele>927.79998779297</ele>
        <time>2023-07-30T07:21:51.000Z</time>
      </trkpt>
      <trkpt lat="43.75721" lon="7.07431">
        <ele>927.79998779297</ele>
        <time>2023-07-30T07:21:52.000Z</time>
      </trkpt>
      <trkpt lat="43.75721" lon="7.07431">
        <ele>927.79998779297</ele>
        <time>2023-07-30T07:21:53.000Z</time>
      </trkpt>
      <trkpt lat="43.75721" lon="7.07431">
        <ele>928.40002441406</ele>
        <time>2023-07-30T07:21:54.000Z</time>
      </trkpt>
      <trkpt lat="43.75721" lon="7.07431">
        <ele>928</ele>
        <time>2023-07-30T07:21:55.000Z</time>
      </trkpt>
      <trkpt lat="43.75721" lon="7.07431">
        <ele>928</ele>
        <time>2023-07-30T07:21:56.000Z</time>
      </trkpt>
      <trkpt lat="43.75721" lon="7.07431">
        <ele>928.20001220703</ele>
        <time>2023-07-30T07:21:57.000Z</time>
      </trkpt>
      <trkpt lat="43.75721" lon="7.07431">
        <ele>928.40002441406</ele>
        <time>2023-07-30T07:21:58.000Z</time>
      </trkpt>
      <trkpt lat="43.75721" lon="7.07431">
        <ele>928.40002441406</ele>
        <time>2023-07-30T07:21:59.000Z</time>
      </trkpt>
      <trkpt lat="43.75721" lon="7.07431">
        <ele>928.20001220703</ele>
        <time>2023-07-30T07:22:00.000Z</time>
      </trkpt>
      <trkpt lat="43.75721" lon="7.07431">
        <ele>928</ele>
        <time>2023-07-30T07:22:01.000Z</time>
      </trkpt>
      <trkpt lat="43.75721" lon="7.07431">
        <ele>928</ele>
        <time>2023-07-30T07:22:02.000Z</time>
      </trkpt>
      <trkpt lat="43.75721" lon="7.07431">
        <ele>928.20001220703</ele>
        <time>2023-07-30T07:22:03.000Z</time>
      </trkpt>
      <trkpt lat="43.75721" lon="7.07431">
        <ele>928.40002441406</ele>
        <time>2023-07-30T07:22:04.000Z</time>
      </trkpt>
      <trkpt lat="43.75721" lon="7.07431">
        <ele>928.40002441406</ele>
        <time>2023-07-30T07:22:05.000Z</time>
      </trkpt>
      <trkpt lat="43.75721" lon="7.07431">
        <ele>928.40002441406</ele>
        <time>2023-07-30T07:22:06.000Z</time>
      </trkpt>
      <trkpt lat="43.75721" lon="7.07431">
        <ele>928.59997558594</ele>
        <time>2023-07-30T07:22:07.000Z</time>
      </trkpt>
      <trkpt lat="43.75721" lon="7.07431">
        <ele>928.59997558594</ele>
        <time>2023-07-30T07:22:08.000Z</time>
      </trkpt>
      <trkpt lat="43.75721" lon="7.07431">
        <ele>928.59997558594</ele>
        <time>2023-07-30T07:22:09.000Z</time>
      </trkpt>
      <trkpt lat="43.75721" lon="7.07431">
        <ele>928.59997558594</ele>
        <time>2023-07-30T07:22:10.000Z</time>
      </trkpt>
      <trkpt lat="43.75721" lon="7.07431">
        <ele>928.59997558594</ele>
        <time>2023-07-30T07:22:11.000Z</time>
      </trkpt>
      <trkpt lat="43.75721" lon="7.07431">
        <ele>928.59997558594</ele>
        <time>2023-07-30T07:22:12.000Z</time>
      </trkpt>
      <trkpt lat="43.75721" lon="7.07431">
        <ele>928</ele>
        <time>2023-07-30T07:22:13.000Z</time>
      </trkpt>
      <trkpt lat="43.75721" lon="7.07431">
        <ele>928</ele>
        <time>2023-07-30T07:22:14.000Z</time>
      </trkpt>
      <trkpt lat="43.75721" lon="7.07431">
        <ele>928</ele>
        <time>2023-07-30T07:22:15.000Z</time>
      </trkpt>
      <trkpt lat="43.75721" lon="7.07431">
        <ele>928</ele>
        <time>2023-07-30T07:22:16.000Z</time>
      </trkpt>
      <trkpt lat="43.75721" lon="7.07431">
        <ele>928</ele>
        <time>2023-07-30T07:22:17.000Z</time>
      </trkpt>
      <trkpt lat="43.75721" lon="7.07431">
        <ele>928.20001220703</ele>
        <time>2023-07-30T07:22:18.000Z</time>
      </trkpt>
      <trkpt lat="43.75721" lon="7.07431">
        <ele>928.20001220703</ele>
        <time>2023-07-30T07:22:19.000Z</time>
      </trkpt>
      <trkpt lat="43.75721" lon="7.07431">
        <ele>928.20001220703</ele>
        <time>2023-07-30T07:22:20.000Z</time>
      </trkpt>
      <trkpt lat="43.75721" lon="7.07431">
        <ele>928.20001220703</ele>
        <time>2023-07-30T07:22:21.000Z</time>
      </trkpt>
      <trkpt lat="43.75721" lon="7.07431">
        <ele>928.20001220703</ele>
        <time>2023-07-30T07:22:22.000Z</time>
      </trkpt>
      <trkpt lat="43.75721" lon="7.07431">
        <ele>928.20001220703</ele>
        <time>2023-07-30T07:22:23.000Z</time>
      </trkpt>
      <trkpt lat="43.75721" lon="7.07431">
        <ele>928.20001220703</ele>
        <time>2023-07-30T07:22:24.000Z</time>
      </trkpt>
      <trkpt lat="43.7572" lon="7.07431">
        <ele>928.20001220703</ele>
        <time>2023-07-30T07:22:25.000Z</time>
      </trkpt>
      <trkpt lat="43.7572" lon="7.07431">
        <ele>928</ele>
        <time>2023-07-30T07:22:26.000Z</time>
      </trkpt>
      <trkpt lat="43.7572" lon="7.07431">
        <ele>928</ele>
        <time>2023-07-30T07:22:27.000Z</time>
      </trkpt>
      <trkpt lat="43.7572" lon="7.07431">
        <ele>928</ele>
        <time>2023-07-30T07:22:28.000Z</time>
      </trkpt>
      <trkpt lat="43.7572" lon="7.07431">
        <ele>928</ele>
        <time>2023-07-30T07:22:29.000Z</time>
      </trkpt>
      <trkpt lat="43.7572" lon="7.07431">
        <ele>928.79998779297</ele>
        <time>2023-07-30T07:22:30.000Z</time>
      </trkpt>
      <trkpt lat="43.7572" lon="7.07431">
        <ele>928.79998779297</ele>
        <time>2023-07-30T07:22:31.000Z</time>
      </trkpt>
      <trkpt lat="43.7572" lon="7.07431">
        <ele>929</ele>
        <time>2023-07-30T07:22:32.000Z</time>
      </trkpt>
      <trkpt lat="43.75721" lon="7.07431">
        <ele>929.20001220703</ele>
        <time>2023-07-30T07:22:33.000Z</time>
      </trkpt>
      <trkpt lat="43.75722" lon="7.07432">
        <ele>929.20001220703</ele>
        <time>2023-07-30T07:22:34.000Z</time>
      </trkpt>
      <trkpt lat="43.75724" lon="7.07434">
        <ele>929</ele>
        <time>2023-07-30T07:22:35.000Z</time>
      </trkpt>
      <trkpt lat="43.75726" lon="7.07437">
        <ele>929</ele>
        <time>2023-07-30T07:22:36.000Z</time>
      </trkpt>
      <trkpt lat="43.75728" lon="7.07441">
        <ele>928.79998779297</ele>
        <time>2023-07-30T07:22:37.000Z</time>
      </trkpt>
      <trkpt lat="43.7573" lon="7.07445">
        <ele>928.59997558594</ele>
        <time>2023-07-30T07:22:38.000Z</time>
      </trkpt>
      <trkpt lat="43.75732" lon="7.0745">
        <ele>928.40002441406</ele>
        <time>2023-07-30T07:22:39.000Z</time>
      </trkpt>
      <trkpt lat="43.75733" lon="7.07455">
        <ele>928.40002441406</ele>
        <time>2023-07-30T07:22:40.000Z</time>
      </trkpt>
      <trkpt lat="43.75735" lon="7.07459">
        <ele>928</ele>
        <time>2023-07-30T07:22:41.000Z</time>
      </trkpt>
      <trkpt lat="43.75737" lon="7.07463">
        <ele>928.20001220703</ele>
        <time>2023-07-30T07:22:42.000Z</time>
      </trkpt>
      <trkpt lat="43.75739" lon="7.07468">
        <ele>928.20001220703</ele>
        <time>2023-07-30T07:22:43.000Z</time>
      </trkpt>
      <trkpt lat="43.75741" lon="7.07472">
        <ele>928.20001220703</ele>
        <time>2023-07-30T07:22:44.000Z</time>
      </trkpt>
      <trkpt lat="43.75743" lon="7.07475">
        <ele>928.20001220703</ele>
        <time>2023-07-30T07:22:45.000Z</time>
      </trkpt>
      <trkpt lat="43.75745" lon="7.0748">
        <ele>928.20001220703</ele>
        <time>2023-07-30T07:22:46.000Z</time>
      </trkpt>
      <trkpt lat="43.75747" lon="7.07484">
        <ele>928.20001220703</ele>
        <time>2023-07-30T07:22:47.000Z</time>
      </trkpt>
      <trkpt lat="43.75748" lon="7.07488">
        <ele>928.59997558594</ele>
        <time>2023-07-30T07:22:48.000Z</time>
      </trkpt>
      <trkpt lat="43.7575" lon="7.07492">
        <ele>928.79998779297</ele>
        <time>2023-07-30T07:22:49.000Z</time>
      </trkpt>
      <trkpt lat="43.75752" lon="7.07497">
        <ele>929.20001220703</ele>
        <time>2023-07-30T07:22:50.000Z</time>
      </trkpt>
      <trkpt lat="43.75753" lon="7.07502">
        <ele>929.40002441406</ele>
        <time>2023-07-30T07:22:51.000Z</time>
      </trkpt>
      <trkpt lat="43.75754" lon="7.07506">
        <ele>929.79998779297</ele>
        <time>2023-07-30T07:22:52.000Z</time>
      </trkpt>
      <trkpt lat="43.75755" lon="7.0751">
        <ele>929.79998779297</ele>
        <time>2023-07-30T07:22:53.000Z</time>
      </trkpt>
      <trkpt lat="43.75757" lon="7.07514">
        <ele>930.20001220703</ele>
        <time>2023-07-30T07:22:54.000Z</time>
      </trkpt>
      <trkpt lat="43.75758" lon="7.07519">
        <ele>930.59997558594</ele>
        <time>2023-07-30T07:22:55.000Z</time>
      </trkpt>
      <trkpt lat="43.75758" lon="7.07524">
        <ele>930.59997558594</ele>
        <time>2023-07-30T07:22:56.000Z</time>
      </trkpt>
      <trkpt lat="43.75759" lon="7.07528">
        <ele>930.79998779297</ele>
        <time>2023-07-30T07:22:57.000Z</time>
      </trkpt>
      <trkpt lat="43.7576" lon="7.07533">
        <ele>931.20001220703</ele>
        <time>2023-07-30T07:22:58.000Z</time>
      </trkpt>
      <trkpt lat="43.75762" lon="7.07537">
        <ele>931.40002441406</ele>
        <time>2023-07-30T07:22:59.000Z</time>
      </trkpt>
      <trkpt lat="43.75762" lon="7.07542">
        <ele>931.59997558594</ele>
        <time>2023-07-30T07:23:00.000Z</time>
      </trkpt>
      <trkpt lat="43.75763" lon="7.07546">
        <ele>932</ele>
        <time>2023-07-30T07:23:01.000Z</time>
      </trkpt>
      <trkpt lat="43.75764" lon="7.0755">
        <ele>932</ele>
        <time>2023-07-30T07:23:02.000Z</time>
      </trkpt>
      <trkpt lat="43.75765" lon="7.07555">
        <ele>932.40002441406</ele>
        <time>2023-07-30T07:23:03.000Z</time>
      </trkpt>
      <trkpt lat="43.75766" lon="7.07559">
        <ele>932.59997558594</ele>
        <time>2023-07-30T07:23:04.000Z</time>
      </trkpt>
      <trkpt lat="43.75767" lon="7.07563">
        <ele>932.79998779297</ele>
        <time>2023-07-30T07:23:05.000Z</time>
      </trkpt>
      <trkpt lat="43.75768" lon="7.07567">
        <ele>933</ele>
        <time>2023-07-30T07:23:06.000Z</time>
      </trkpt>
      <trkpt lat="43.75769" lon="7.07572">
        <ele>933.40002441406</ele>
        <time>2023-07-30T07:23:07.000Z</time>
      </trkpt>
      <trkpt lat="43.7577" lon="7.07576">
        <ele>933.59997558594</ele>
        <time>2023-07-30T07:23:08.000Z</time>
      </trkpt>
      <trkpt lat="43.75771" lon="7.07581">
        <ele>933.79998779297</ele>
        <time>2023-07-30T07:23:09.000Z</time>
      </trkpt>
      <trkpt lat="43.75771" lon="7.07585">
        <ele>934</ele>
        <time>2023-07-30T07:23:10.000Z</time>
      </trkpt>
      <trkpt lat="43.75773" lon="7.07589">
        <ele>934.40002441406</ele>
        <time>2023-07-30T07:23:11.000Z</time>
      </trkpt>
      <trkpt lat="43.75774" lon="7.07593">
        <ele>934.40002441406</ele>
        <time>2023-07-30T07:23:12.000Z</time>
      </trkpt>
      <trkpt lat="43.75775" lon="7.07597">
        <ele>934.40002441406</ele>
        <time>2023-07-30T07:23:13.000Z</time>
      </trkpt>
      <trkpt lat="43.75776" lon="7.07601">
        <ele>934.79998779297</ele>
        <time>2023-07-30T07:23:14.000Z</time>
      </trkpt>
      <trkpt lat="43.75776" lon="7.07605">
        <ele>935</ele>
        <time>2023-07-30T07:23:15.000Z</time>
      </trkpt>
      <trkpt lat="43.75777" lon="7.07609">
        <ele>935.20001220703</ele>
        <time>2023-07-30T07:23:16.000Z</time>
      </trkpt>
      <trkpt lat="43.75778" lon="7.07613">
        <ele>935.40002441406</ele>
        <time>2023-07-30T07:23:17.000Z</time>
      </trkpt>
      <trkpt lat="43.75778" lon="7.07618">
        <ele>935.59997558594</ele>
        <time>2023-07-30T07:23:18.000Z</time>
      </trkpt>
      <trkpt lat="43.75779" lon="7.07621">
        <ele>935.79998779297</ele>
        <time>2023-07-30T07:23:19.000Z</time>
      </trkpt>
      <trkpt lat="43.7578" lon="7.07625">
        <ele>936.20001220703</ele>
        <time>2023-07-30T07:23:20.000Z</time>
      </trkpt>
      <trkpt lat="43.75781" lon="7.0763">
        <ele>936.20001220703</ele>
        <time>2023-07-30T07:23:21.000Z</time>
      </trkpt>
      <trkpt lat="43.75781" lon="7.07634">
        <ele>936.59997558594</ele>
        <time>2023-07-30T07:23:22.000Z</time>
      </trkpt>
      <trkpt lat="43.75782" lon="7.07638">
        <ele>936.79998779297</ele>
        <time>2023-07-30T07:23:23.000Z</time>
      </trkpt>
      <trkpt lat="43.75783" lon="7.07642">
        <ele>937.20001220703</ele>
        <time>2023-07-30T07:23:24.000Z</time>
      </trkpt>
      <trkpt lat="43.75784" lon="7.07646">
        <ele>937.40002441406</ele>
        <time>2023-07-30T07:23:25.000Z</time>
      </trkpt>
      <trkpt lat="43.75785" lon="7.0765">
        <ele>937.40002441406</ele>
        <time>2023-07-30T07:23:26.000Z</time>
      </trkpt>
      <trkpt lat="43.75786" lon="7.07653">
        <ele>937.79998779297</ele>
        <time>2023-07-30T07:23:27.000Z</time>
      </trkpt>
      <trkpt lat="43.75788" lon="7.07657">
        <ele>938</ele>
        <time>2023-07-30T07:23:28.000Z</time>
      </trkpt>
      <trkpt lat="43.7579" lon="7.07661">
        <ele>938.20001220703</ele>
        <time>2023-07-30T07:23:29.000Z</time>
      </trkpt>
      <trkpt lat="43.75791" lon="7.07665">
        <ele>938.59997558594</ele>
        <time>2023-07-30T07:23:30.000Z</time>
      </trkpt>
      <trkpt lat="43.75794" lon="7.07668">
        <ele>938.79998779297</ele>
        <time>2023-07-30T07:23:31.000Z</time>
      </trkpt>
      <trkpt lat="43.75796" lon="7.07672">
        <ele>939</ele>
        <time>2023-07-30T07:23:32.000Z</time>
      </trkpt>
      <trkpt lat="43.75798" lon="7.07675">
        <ele>939.20001220703</ele>
        <time>2023-07-30T07:23:33.000Z</time>
      </trkpt>
      <trkpt lat="43.75801" lon="7.07678">
        <ele>939.40002441406</ele>
        <time>2023-07-30T07:23:34.000Z</time>
      </trkpt>
      <trkpt lat="43.75803" lon="7.0768">
        <ele>939.79998779297</ele>
        <time>2023-07-30T07:23:35.000Z</time>
      </trkpt>
      <trkpt lat="43.75806" lon="7.07683">
        <ele>939.79998779297</ele>
        <time>2023-07-30T07:23:36.000Z</time>
      </trkpt>
      <trkpt lat="43.75809" lon="7.07685">
        <ele>940.20001220703</ele>
        <time>2023-07-30T07:23:37.000Z</time>
      </trkpt>
      <trkpt lat="43.75812" lon="7.07686">
        <ele>940.40002441406</ele>
        <time>2023-07-30T07:23:38.000Z</time>
      </trkpt>
      <trkpt lat="43.75814" lon="7.07688">
        <ele>940.40002441406</ele>
        <time>2023-07-30T07:23:39.000Z</time>
      </trkpt>
      <trkpt lat="43.75817" lon="7.0769">
        <ele>940.59997558594</ele>
        <time>2023-07-30T07:23:40.000Z</time>
      </trkpt>
      <trkpt lat="43.7582" lon="7.07691">
        <ele>940.79998779297</ele>
        <time>2023-07-30T07:23:41.000Z</time>
      </trkpt>
      <trkpt lat="43.75823" lon="7.07693">
        <ele>941</ele>
        <time>2023-07-30T07:23:42.000Z</time>
      </trkpt>
      <trkpt lat="43.75826" lon="7.07694">
        <ele>941.20001220703</ele>
        <time>2023-07-30T07:23:43.000Z</time>
      </trkpt>
      <trkpt lat="43.75829" lon="7.07695">
        <ele>941.40002441406</ele>
        <time>2023-07-30T07:23:44.000Z</time>
      </trkpt>
      <trkpt lat="43.75832" lon="7.07696">
        <ele>941.59997558594</ele>
        <time>2023-07-30T07:23:45.000Z</time>
      </trkpt>
      <trkpt lat="43.75835" lon="7.07697">
        <ele>942</ele>
        <time>2023-07-30T07:23:46.000Z</time>
      </trkpt>
      <trkpt lat="43.75838" lon="7.07698">
        <ele>942.20001220703</ele>
        <time>2023-07-30T07:23:47.000Z</time>
      </trkpt>
      <trkpt lat="43.75841" lon="7.07698">
        <ele>942.40002441406</ele>
        <time>2023-07-30T07:23:48.000Z</time>
      </trkpt>
      <trkpt lat="43.75844" lon="7.07699">
        <ele>942.59997558594</ele>
        <time>2023-07-30T07:23:49.000Z</time>
      </trkpt>
      <trkpt lat="43.75847" lon="7.077">
        <ele>942.79998779297</ele>
        <time>2023-07-30T07:23:50.000Z</time>
      </trkpt>
      <trkpt lat="43.7585" lon="7.077">
        <ele>943.20001220703</ele>
        <time>2023-07-30T07:23:51.000Z</time>
      </trkpt>
      <trkpt lat="43.75854" lon="7.077">
        <ele>943.40002441406</ele>
        <time>2023-07-30T07:23:52.000Z</time>
      </trkpt>
      <trkpt lat="43.75857" lon="7.077">
        <ele>943.59997558594</ele>
        <time>2023-07-30T07:23:53.000Z</time>
      </trkpt>
      <trkpt lat="43.7586" lon="7.077">
        <ele>944</ele>
        <time>2023-07-30T07:23:54.000Z</time>
      </trkpt>
      <trkpt lat="43.75864" lon="7.077">
        <ele>944.20001220703</ele>
        <time>2023-07-30T07:23:55.000Z</time>
      </trkpt>
      <trkpt lat="43.75866" lon="7.077">
        <ele>944.40002441406</ele>
        <time>2023-07-30T07:23:56.000Z</time>
      </trkpt>
      <trkpt lat="43.75869" lon="7.07698">
        <ele>944.79998779297</ele>
        <time>2023-07-30T07:23:57.000Z</time>
      </trkpt>
      <trkpt lat="43.75872" lon="7.07697">
        <ele>945</ele>
        <time>2023-07-30T07:23:58.000Z</time>
      </trkpt>
      <trkpt lat="43.75876" lon="7.07696">
        <ele>945.20001220703</ele>
        <time>2023-07-30T07:23:59.000Z</time>
      </trkpt>
      <trkpt lat="43.75878" lon="7.07694">
        <ele>945.59997558594</ele>
        <time>2023-07-30T07:24:00.000Z</time>
      </trkpt>
      <trkpt lat="43.75881" lon="7.07692">
        <ele>945.79998779297</ele>
        <time>2023-07-30T07:24:01.000Z</time>
      </trkpt>
      <trkpt lat="43.75884" lon="7.0769">
        <ele>945.79998779297</ele>
        <time>2023-07-30T07:24:02.000Z</time>
      </trkpt>
      <trkpt lat="43.75887" lon="7.07687">
        <ele>946</ele>
        <time>2023-07-30T07:24:03.000Z</time>
      </trkpt>
      <trkpt lat="43.75889" lon="7.07684">
        <ele>946.40002441406</ele>
        <time>2023-07-30T07:24:04.000Z</time>
      </trkpt>
      <trkpt lat="43.75891" lon="7.07681">
        <ele>946.40002441406</ele>
        <time>2023-07-30T07:24:05.000Z</time>
      </trkpt>
      <trkpt lat="43.75894" lon="7.07677">
        <ele>946.59997558594</ele>
        <time>2023-07-30T07:24:06.000Z</time>
      </trkpt>
      <trkpt lat="43.75896" lon="7.07675">
        <ele>946.79998779297</ele>
        <time>2023-07-30T07:24:07.000Z</time>
      </trkpt>
      <trkpt lat="43.75898" lon="7.07671">
        <ele>947</ele>
        <time>2023-07-30T07:24:08.000Z</time>
      </trkpt>
      <trkpt lat="43.759" lon="7.07668">
        <ele>947.20001220703</ele>
        <time>2023-07-30T07:24:09.000Z</time>
      </trkpt>
      <trkpt lat="43.75902" lon="7.07664">
        <ele>947.40002441406</ele>
        <time>2023-07-30T07:24:10.000Z</time>
      </trkpt>
      <trkpt lat="43.75904" lon="7.07661">
        <ele>947.59997558594</ele>
        <time>2023-07-30T07:24:11.000Z</time>
      </trkpt>
      <trkpt lat="43.75906" lon="7.07657">
        <ele>948</ele>
        <time>2023-07-30T07:24:12.000Z</time>
      </trkpt>
      <trkpt lat="43.75908" lon="7.07654">
        <ele>948</ele>
        <time>2023-07-30T07:24:13.000Z</time>
      </trkpt>
      <trkpt lat="43.7591" lon="7.07651">
        <ele>948.20001220703</ele>
        <time>2023-07-30T07:24:14.000Z</time>
      </trkpt>
      <trkpt lat="43.75912" lon="7.07647">
        <ele>948.59997558594</ele>
        <time>2023-07-30T07:24:15.000Z</time>
      </trkpt>
      <trkpt lat="43.75915" lon="7.07644">
        <ele>948.79998779297</ele>
        <time>2023-07-30T07:24:16.000Z</time>
      </trkpt>
      <trkpt lat="43.75917" lon="7.07641">
        <ele>949</ele>
        <time>2023-07-30T07:24:17.000Z</time>
      </trkpt>
      <trkpt lat="43.75918" lon="7.07638">
        <ele>949.20001220703</ele>
        <time>2023-07-30T07:24:18.000Z</time>
      </trkpt>
      <trkpt lat="43.7592" lon="7.07635">
        <ele>949.40002441406</ele>
        <time>2023-07-30T07:24:19.000Z</time>
      </trkpt>
      <trkpt lat="43.75922" lon="7.07632">
        <ele>949.59997558594</ele>
        <time>2023-07-30T07:24:20.000Z</time>
      </trkpt>
      <trkpt lat="43.75924" lon="7.07629">
        <ele>949.79998779297</ele>
        <time>2023-07-30T07:24:21.000Z</time>
      </trkpt>
      <trkpt lat="43.75926" lon="7.07626">
        <ele>950.20001220703</ele>
        <time>2023-07-30T07:24:22.000Z</time>
      </trkpt>
      <trkpt lat="43.75928" lon="7.07623">
        <ele>950.40002441406</ele>
        <time>2023-07-30T07:24:23.000Z</time>
      </trkpt>
      <trkpt lat="43.7593" lon="7.0762">
        <ele>950.59997558594</ele>
        <time>2023-07-30T07:24:24.000Z</time>
      </trkpt>
      <trkpt lat="43.75932" lon="7.07616">
        <ele>950.79998779297</ele>
        <time>2023-07-30T07:24:25.000Z</time>
      </trkpt>
      <trkpt lat="43.75934" lon="7.07613">
        <ele>951</ele>
        <time>2023-07-30T07:24:26.000Z</time>
      </trkpt>
      <trkpt lat="43.75936" lon="7.0761">
        <ele>951.20001220703</ele>
        <time>2023-07-30T07:24:27.000Z</time>
      </trkpt>
      <trkpt lat="43.75939" lon="7.07607">
        <ele>951.59997558594</ele>
        <time>2023-07-30T07:24:28.000Z</time>
      </trkpt>
      <trkpt lat="43.75941" lon="7.07604">
        <ele>951.79998779297</ele>
        <time>2023-07-30T07:24:29.000Z</time>
      </trkpt>
      <trkpt lat="43.75943" lon="7.07601">
        <ele>952</ele>
        <time>2023-07-30T07:24:30.000Z</time>
      </trkpt>
      <trkpt lat="43.75945" lon="7.07597">
        <ele>952</ele>
        <time>2023-07-30T07:24:31.000Z</time>
      </trkpt>
      <trkpt lat="43.75948" lon="7.07594">
        <ele>952.20001220703</ele>
        <time>2023-07-30T07:24:32.000Z</time>
      </trkpt>
      <trkpt lat="43.7595" lon="7.07591">
        <ele>952.40002441406</ele>
        <time>2023-07-30T07:24:33.000Z</time>
      </trkpt>
      <trkpt lat="43.75952" lon="7.07589">
        <ele>952.59997558594</ele>
        <time>2023-07-30T07:24:34.000Z</time>
      </trkpt>
      <trkpt lat="43.75954" lon="7.07586">
        <ele>952.59997558594</ele>
        <time>2023-07-30T07:24:35.000Z</time>
      </trkpt>
      <trkpt lat="43.75956" lon="7.07582">
        <ele>953</ele>
        <time>2023-07-30T07:24:36.000Z</time>
      </trkpt>
      <trkpt lat="43.75958" lon="7.0758">
        <ele>953.20001220703</ele>
        <time>2023-07-30T07:24:37.000Z</time>
      </trkpt>
      <trkpt lat="43.7596" lon="7.07577">
        <ele>953.20001220703</ele>
        <time>2023-07-30T07:24:38.000Z</time>
      </trkpt>
      <trkpt lat="43.75963" lon="7.07574">
        <ele>953.59997558594</ele>
        <time>2023-07-30T07:24:39.000Z</time>
      </trkpt>
      <trkpt lat="43.75966" lon="7.07571">
        <ele>954</ele>
        <time>2023-07-30T07:24:40.000Z</time>
      </trkpt>
      <trkpt lat="43.75968" lon="7.07568">
        <ele>954</ele>
        <time>2023-07-30T07:24:41.000Z</time>
      </trkpt>
      <trkpt lat="43.7597" lon="7.07565">
        <ele>954.20001220703</ele>
        <time>2023-07-30T07:24:42.000Z</time>
      </trkpt>
      <trkpt lat="43.75973" lon="7.07563">
        <ele>954.59997558594</ele>
        <time>2023-07-30T07:24:43.000Z</time>
      </trkpt>
      <trkpt lat="43.75976" lon="7.07561">
        <ele>954.79998779297</ele>
        <time>2023-07-30T07:24:44.000Z</time>
      </trkpt>
      <trkpt lat="43.75979" lon="7.07559">
        <ele>955</ele>
        <time>2023-07-30T07:24:45.000Z</time>
      </trkpt>
      <trkpt lat="43.75982" lon="7.07558">
        <ele>955.20001220703</ele>
        <time>2023-07-30T07:24:46.000Z</time>
      </trkpt>
      <trkpt lat="43.75985" lon="7.07556">
        <ele>955.59997558594</ele>
        <time>2023-07-30T07:24:47.000Z</time>
      </trkpt>
      <trkpt lat="43.75988" lon="7.07555">
        <ele>956</ele>
        <time>2023-07-30T07:24:48.000Z</time>
      </trkpt>
      <trkpt lat="43.75991" lon="7.07554">
        <ele>956.20001220703</ele>
        <time>2023-07-30T07:24:49.000Z</time>
      </trkpt>
      <trkpt lat="43.75994" lon="7.07553">
        <ele>956.59997558594</ele>
        <time>2023-07-30T07:24:50.000Z</time>
      </trkpt>
      <trkpt lat="43.75997" lon="7.07552">
        <ele>956.79998779297</ele>
        <time>2023-07-30T07:24:51.000Z</time>
      </trkpt>
      <trkpt lat="43.76" lon="7.07551">
        <ele>957</ele>
        <time>2023-07-30T07:24:52.000Z</time>
      </trkpt>
      <trkpt lat="43.76003" lon="7.0755">
        <ele>957.20001220703</ele>
        <time>2023-07-30T07:24:53.000Z</time>
      </trkpt>
      <trkpt lat="43.76006" lon="7.07548">
        <ele>957.59997558594</ele>
        <time>2023-07-30T07:24:54.000Z</time>
      </trkpt>
      <trkpt lat="43.76009" lon="7.07547">
        <ele>957.79998779297</ele>
        <time>2023-07-30T07:24:55.000Z</time>
      </trkpt>
      <trkpt lat="43.76012" lon="7.07546">
        <ele>958.20001220703</ele>
        <time>2023-07-30T07:24:56.000Z</time>
      </trkpt>
      <trkpt lat="43.76015" lon="7.07544">
        <ele>958.20001220703</ele>
        <time>2023-07-30T07:24:57.000Z</time>
      </trkpt>
      <trkpt lat="43.76018" lon="7.07543">
        <ele>958.40002441406</ele>
        <time>2023-07-30T07:24:58.000Z</time>
      </trkpt>
      <trkpt lat="43.76021" lon="7.07542">
        <ele>958.59997558594</ele>
        <time>2023-07-30T07:24:59.000Z</time>
      </trkpt>
      <trkpt lat="43.76024" lon="7.0754">
        <ele>959</ele>
        <time>2023-07-30T07:25:00.000Z</time>
      </trkpt>
      <trkpt lat="43.76026" lon="7.07538">
        <ele>959.40002441406</ele>
        <time>2023-07-30T07:25:01.000Z</time>
      </trkpt>
      <trkpt lat="43.76028" lon="7.07537">
        <ele>959.40002441406</ele>
        <time>2023-07-30T07:25:02.000Z</time>
      </trkpt>
      <trkpt lat="43.76031" lon="7.07536">
        <ele>959.59997558594</ele>
        <time>2023-07-30T07:25:03.000Z</time>
      </trkpt>
      <trkpt lat="43.76033" lon="7.07534">
        <ele>959.79998779297</ele>
        <time>2023-07-30T07:25:04.000Z</time>
      </trkpt>
      <trkpt lat="43.76036" lon="7.07533">
        <ele>960.20001220703</ele>
        <time>2023-07-30T07:25:05.000Z</time>
      </trkpt>
      <trkpt lat="43.76038" lon="7.07532">
        <ele>960.40002441406</ele>
        <time>2023-07-30T07:25:06.000Z</time>
      </trkpt>
      <trkpt lat="43.7604" lon="7.0753">
        <ele>960.59997558594</ele>
        <time>2023-07-30T07:25:07.000Z</time>
      </trkpt>
      <trkpt lat="43.76042" lon="7.07529">
        <ele>960.79998779297</ele>
        <time>2023-07-30T07:25:08.000Z</time>
      </trkpt>
      <trkpt lat="43.76044" lon="7.07527">
        <ele>961</ele>
        <time>2023-07-30T07:25:09.000Z</time>
      </trkpt>
      <trkpt lat="43.76046" lon="7.07526">
        <ele>961.20001220703</ele>
        <time>2023-07-30T07:25:10.000Z</time>
      </trkpt>
      <trkpt lat="43.76048" lon="7.07525">
        <ele>961.40002441406</ele>
        <time>2023-07-30T07:25:11.000Z</time>
      </trkpt>
      <trkpt lat="43.7605" lon="7.07523">
        <ele>961.59997558594</ele>
        <time>2023-07-30T07:25:12.000Z</time>
      </trkpt>
      <trkpt lat="43.76052" lon="7.07521">
        <ele>961.79998779297</ele>
        <time>2023-07-30T07:25:13.000Z</time>
      </trkpt>
      <trkpt lat="43.76054" lon="7.07519">
        <ele>962</ele>
        <time>2023-07-30T07:25:14.000Z</time>
      </trkpt>
      <trkpt lat="43.76056" lon="7.07518">
        <ele>962</ele>
        <time>2023-07-30T07:25:15.000Z</time>
      </trkpt>
      <trkpt lat="43.76058" lon="7.07516">
        <ele>962.20001220703</ele>
        <time>2023-07-30T07:25:16.000Z</time>
      </trkpt>
      <trkpt lat="43.7606" lon="7.07513">
        <ele>962.40002441406</ele>
        <time>2023-07-30T07:25:17.000Z</time>
      </trkpt>
      <trkpt lat="43.76061" lon="7.07511">
        <ele>962.40002441406</ele>
        <time>2023-07-30T07:25:18.000Z</time>
      </trkpt>
      <trkpt lat="43.76063" lon="7.07509">
        <ele>962.59997558594</ele>
        <time>2023-07-30T07:25:19.000Z</time>
      </trkpt>
      <trkpt lat="43.76065" lon="7.07507">
        <ele>962.79998779297</ele>
        <time>2023-07-30T07:25:20.000Z</time>
      </trkpt>
      <trkpt lat="43.76066" lon="7.07505">
        <ele>963</ele>
        <time>2023-07-30T07:25:21.000Z</time>
      </trkpt>
      <trkpt lat="43.76067" lon="7.07502">
        <ele>963</ele>
        <time>2023-07-30T07:25:22.000Z</time>
      </trkpt>
      <trkpt lat="43.76068" lon="7.07499">
        <ele>963</ele>
        <time>2023-07-30T07:25:23.000Z</time>
      </trkpt>
      <trkpt lat="43.76069" lon="7.07497">
        <ele>963</ele>
        <time>2023-07-30T07:25:24.000Z</time>
      </trkpt>
      <trkpt lat="43.76069" lon="7.07495">
        <ele>963.20001220703</ele>
        <time>2023-07-30T07:25:25.000Z</time>
      </trkpt>
      <trkpt lat="43.76069" lon="7.07493">
        <ele>963.20001220703</ele>
        <time>2023-07-30T07:25:26.000Z</time>
      </trkpt>
      <trkpt lat="43.76068" lon="7.07492">
        <ele>963.20001220703</ele>
        <time>2023-07-30T07:25:27.000Z</time>
      </trkpt>
      <trkpt lat="43.76067" lon="7.0749">
        <ele>963.20001220703</ele>
        <time>2023-07-30T07:25:28.000Z</time>
      </trkpt>
      <trkpt lat="43.76066" lon="7.07488">
        <ele>963.20001220703</ele>
        <time>2023-07-30T07:25:29.000Z</time>
      </trkpt>
      <trkpt lat="43.76065" lon="7.07487">
        <ele>963.40002441406</ele>
        <time>2023-07-30T07:25:30.000Z</time>
      </trkpt>
      <trkpt lat="43.76064" lon="7.07485">
        <ele>963.40002441406</ele>
        <time>2023-07-30T07:25:31.000Z</time>
      </trkpt>
      <trkpt lat="43.76063" lon="7.07483">
        <ele>963.40002441406</ele>
        <time>2023-07-30T07:25:32.000Z</time>
      </trkpt>
      <trkpt lat="43.76063" lon="7.07482">
        <ele>963.40002441406</ele>
        <time>2023-07-30T07:25:33.000Z</time>
      </trkpt>
      <trkpt lat="43.76063" lon="7.07482">
        <ele>963.40002441406</ele>
        <time>2023-07-30T07:25:34.000Z</time>
      </trkpt>
      <trkpt lat="43.76063" lon="7.07482">
        <ele>963.40002441406</ele>
        <time>2023-07-30T07:25:35.000Z</time>
      </trkpt>
      <trkpt lat="43.76063" lon="7.07482">
        <ele>963.59997558594</ele>
        <time>2023-07-30T07:25:36.000Z</time>
      </trkpt>
      <trkpt lat="43.76063" lon="7.07482">
        <ele>963.59997558594</ele>
        <time>2023-07-30T07:25:37.000Z</time>
      </trkpt>
      <trkpt lat="43.76063" lon="7.07482">
        <ele>963.59997558594</ele>
        <time>2023-07-30T07:25:38.000Z</time>
      </trkpt>
      <trkpt lat="43.76063" lon="7.07482">
        <ele>963.59997558594</ele>
        <time>2023-07-30T07:25:39.000Z</time>
      </trkpt>
      <trkpt lat="43.76063" lon="7.07482">
        <ele>963.59997558594</ele>
        <time>2023-07-30T07:25:40.000Z</time>
      </trkpt>
      <trkpt lat="43.76063" lon="7.07482">
        <ele>963.59997558594</ele>
        <time>2023-07-30T07:25:41.000Z</time>
      </trkpt>
      <trkpt lat="43.76063" lon="7.07482">
        <ele>963.40002441406</ele>
        <time>2023-07-30T07:25:42.000Z</time>
      </trkpt>
      <trkpt lat="43.76063" lon="7.07482">
        <ele>963.40002441406</ele>
        <time>2023-07-30T07:25:43.000Z</time>
      </trkpt>
      <trkpt lat="43.76063" lon="7.07482">
        <ele>963</ele>
        <time>2023-07-30T07:25:44.000Z</time>
      </trkpt>
      <trkpt lat="43.76063" lon="7.07482">
        <ele>963.40002441406</ele>
        <time>2023-07-30T07:25:45.000Z</time>
      </trkpt>
      <trkpt lat="43.76063" lon="7.07482">
        <ele>963.40002441406</ele>
        <time>2023-07-30T07:25:46.000Z</time>
      </trkpt>
      <trkpt lat="43.76063" lon="7.07482">
        <ele>963.40002441406</ele>
        <time>2023-07-30T07:25:47.000Z</time>
      </trkpt>
      <trkpt lat="43.76063" lon="7.07482">
        <ele>963.40002441406</ele>
        <time>2023-07-30T07:25:48.000Z</time>
      </trkpt>
      <trkpt lat="43.76063" lon="7.07482">
        <ele>963.40002441406</ele>
        <time>2023-07-30T07:25:49.000Z</time>
      </trkpt>
      <trkpt lat="43.76063" lon="7.07482">
        <ele>963.40002441406</ele>
        <time>2023-07-30T07:25:50.000Z</time>
      </trkpt>
      <trkpt lat="43.76063" lon="7.07482">
        <ele>963.59997558594</ele>
        <time>2023-07-30T07:25:51.000Z</time>
      </trkpt>
      <trkpt lat="43.76063" lon="7.07482">
        <ele>963.59997558594</ele>
        <time>2023-07-30T07:25:52.000Z</time>
      </trkpt>
      <trkpt lat="43.76063" lon="7.07482">
        <ele>963.79998779297</ele>
        <time>2023-07-30T07:25:53.000Z</time>
      </trkpt>
      <trkpt lat="43.76063" lon="7.07482">
        <ele>963.79998779297</ele>
        <time>2023-07-30T07:25:54.000Z</time>
      </trkpt>
      <trkpt lat="43.76063" lon="7.07482">
        <ele>963.79998779297</ele>
        <time>2023-07-30T07:25:55.000Z</time>
      </trkpt>
      <trkpt lat="43.76063" lon="7.07482">
        <ele>963.79998779297</ele>
        <time>2023-07-30T07:25:56.000Z</time>
      </trkpt>
      <trkpt lat="43.76063" lon="7.07482">
        <ele>963.79998779297</ele>
        <time>2023-07-30T07:25:57.000Z</time>
      </trkpt>
      <trkpt lat="43.76063" lon="7.07482">
        <ele>963.79998779297</ele>
        <time>2023-07-30T07:25:58.000Z</time>
      </trkpt>
      <trkpt lat="43.76063" lon="7.07482">
        <ele>963.59997558594</ele>
        <time>2023-07-30T07:25:59.000Z</time>
      </trkpt>
      <trkpt lat="43.76063" lon="7.07482">
        <ele>963.59997558594</ele>
        <time>2023-07-30T07:26:00.000Z</time>
      </trkpt>
      <trkpt lat="43.76063" lon="7.07482">
        <ele>963.59997558594</ele>
        <time>2023-07-30T07:26:01.000Z</time>
      </trkpt>
      <trkpt lat="43.76063" lon="7.07482">
        <ele>963.59997558594</ele>
        <time>2023-07-30T07:26:02.000Z</time>
      </trkpt>
      <trkpt lat="43.76063" lon="7.07482">
        <ele>963.59997558594</ele>
        <time>2023-07-30T07:26:03.000Z</time>
      </trkpt>
      <trkpt lat="43.76063" lon="7.07482">
        <ele>963.59997558594</ele>
        <time>2023-07-30T07:26:04.000Z</time>
      </trkpt>
      <trkpt lat="43.76063" lon="7.07482">
        <ele>963.59997558594</ele>
        <time>2023-07-30T07:26:05.000Z</time>
      </trkpt>
      <trkpt lat="43.76063" lon="7.07482">
        <ele>963.59997558594</ele>
        <time>2023-07-30T07:26:06.000Z</time>
      </trkpt>
      <trkpt lat="43.76063" lon="7.07482">
        <ele>963.40002441406</ele>
        <time>2023-07-30T07:26:07.000Z</time>
      </trkpt>
      <trkpt lat="43.76063" lon="7.07482">
        <ele>963.40002441406</ele>
        <time>2023-07-30T07:26:08.000Z</time>
      </trkpt>
      <trkpt lat="43.76063" lon="7.07482">
        <ele>963.40002441406</ele>
        <time>2023-07-30T07:26:09.000Z</time>
      </trkpt>
      <trkpt lat="43.76063" lon="7.07482">
        <ele>963.40002441406</ele>
        <time>2023-07-30T07:26:10.000Z</time>
      </trkpt>
      <trkpt lat="43.76063" lon="7.07482">
        <ele>963.40002441406</ele>
        <time>2023-07-30T07:26:11.000Z</time>
      </trkpt>
      <trkpt lat="43.76063" lon="7.07482">
        <ele>963.40002441406</ele>
        <time>2023-07-30T07:26:12.000Z</time>
      </trkpt>
      <trkpt lat="43.76063" lon="7.07482">
        <ele>963.40002441406</ele>
        <time>2023-07-30T07:26:13.000Z</time>
      </trkpt>
      <trkpt lat="43.76063" lon="7.07482">
        <ele>963.40002441406</ele>
        <time>2023-07-30T07:26:14.000Z</time>
      </trkpt>
      <trkpt lat="43.76063" lon="7.07482">
        <ele>963.40002441406</ele>
        <time>2023-07-30T07:26:15.000Z</time>
      </trkpt>
      <trkpt lat="43.76063" lon="7.07482">
        <ele>963.40002441406</ele>
        <time>2023-07-30T07:26:16.000Z</time>
      </trkpt>
      <trkpt lat="43.76063" lon="7.07482">
        <ele>963.40002441406</ele>
        <time>2023-07-30T07:26:17.000Z</time>
      </trkpt>
      <trkpt lat="43.76063" lon="7.07482">
        <ele>963.40002441406</ele>
        <time>2023-07-30T07:26:18.000Z</time>
      </trkpt>
      <trkpt lat="43.76063" lon="7.07482">
        <ele>963.40002441406</ele>
        <time>2023-07-30T07:26:19.000Z</time>
      </trkpt>
      <trkpt lat="43.76063" lon="7.07482">
        <ele>963.40002441406</ele>
        <time>2023-07-30T07:26:20.000Z</time>
      </trkpt>
      <trkpt lat="43.76063" lon="7.07482">
        <ele>963.40002441406</ele>
        <time>2023-07-30T07:26:21.000Z</time>
      </trkpt>
      <trkpt lat="43.76063" lon="7.07482">
        <ele>963.20001220703</ele>
        <time>2023-07-30T07:26:22.000Z</time>
      </trkpt>
      <trkpt lat="43.76063" lon="7.07482">
        <ele>963.40002441406</ele>
        <time>2023-07-30T07:26:23.000Z</time>
      </trkpt>
      <trkpt lat="43.76063" lon="7.07482">
        <ele>963.40002441406</ele>
        <time>2023-07-30T07:26:24.000Z</time>
      </trkpt>
      <trkpt lat="43.76063" lon="7.07482">
        <ele>963.20001220703</ele>
        <time>2023-07-30T07:26:25.000Z</time>
      </trkpt>
      <trkpt lat="43.76063" lon="7.07482">
        <ele>963.40002441406</ele>
        <time>2023-07-30T07:26:26.000Z</time>
      </trkpt>
      <trkpt lat="43.76063" lon="7.07482">
        <ele>963.59997558594</ele>
        <time>2023-07-30T07:26:27.000Z</time>
      </trkpt>
      <trkpt lat="43.76063" lon="7.07482">
        <ele>963.59997558594</ele>
        <time>2023-07-30T07:26:28.000Z</time>
      </trkpt>
      <trkpt lat="43.76063" lon="7.07482">
        <ele>963.79998779297</ele>
        <time>2023-07-30T07:26:29.000Z</time>
      </trkpt>
      <trkpt lat="43.76063" lon="7.07482">
        <ele>963.79998779297</ele>
        <time>2023-07-30T07:26:30.000Z</time>
      </trkpt>
      <trkpt lat="43.76063" lon="7.07482">
        <ele>963.79998779297</ele>
        <time>2023-07-30T07:26:31.000Z</time>
      </trkpt>
      <trkpt lat="43.76063" lon="7.07482">
        <ele>963.79998779297</ele>
        <time>2023-07-30T07:26:32.000Z</time>
      </trkpt>
      <trkpt lat="43.76063" lon="7.07482">
        <ele>963.79998779297</ele>
        <time>2023-07-30T07:26:33.000Z</time>
      </trkpt>
      <trkpt lat="43.76063" lon="7.07482">
        <ele>963.79998779297</ele>
        <time>2023-07-30T07:26:34.000Z</time>
      </trkpt>
      <trkpt lat="43.76063" lon="7.07482">
        <ele>963.59997558594</ele>
        <time>2023-07-30T07:26:35.000Z</time>
      </trkpt>
      <trkpt lat="43.76063" lon="7.07482">
        <ele>963.59997558594</ele>
        <time>2023-07-30T07:26:36.000Z</time>
      </trkpt>
      <trkpt lat="43.76063" lon="7.07482">
        <ele>963.59997558594</ele>
        <time>2023-07-30T07:26:37.000Z</time>
      </trkpt>
      <trkpt lat="43.76063" lon="7.07482">
        <ele>963.59997558594</ele>
        <time>2023-07-30T07:26:38.000Z</time>
      </trkpt>
      <trkpt lat="43.76063" lon="7.07482">
        <ele>963.59997558594</ele>
        <time>2023-07-30T07:26:39.000Z</time>
      </trkpt>
      <trkpt lat="43.76063" lon="7.07482">
        <ele>963.59997558594</ele>
        <time>2023-07-30T07:26:40.000Z</time>
      </trkpt>
      <trkpt lat="43.76063" lon="7.07482">
        <ele>963.59997558594</ele>
        <time>2023-07-30T07:26:41.000Z</time>
      </trkpt>
      <trkpt lat="43.76063" lon="7.07482">
        <ele>963.40002441406</ele>
        <time>2023-07-30T07:26:42.000Z</time>
      </trkpt>
      <trkpt lat="43.76063" lon="7.07482">
        <ele>963.40002441406</ele>
        <time>2023-07-30T07:26:43.000Z</time>
      </trkpt>
      <trkpt lat="43.76063" lon="7.07482">
        <ele>963.40002441406</ele>
        <time>2023-07-30T07:26:44.000Z</time>
      </trkpt>
      <trkpt lat="43.76063" lon="7.07482">
        <ele>963.40002441406</ele>
        <time>2023-07-30T07:26:45.000Z</time>
      </trkpt>
      <trkpt lat="43.76063" lon="7.07482">
        <ele>964.20001220703</ele>
        <time>2023-07-30T07:26:46.000Z</time>
      </trkpt>
      <trkpt lat="43.76063" lon="7.07482">
        <ele>964.20001220703</ele>
        <time>2023-07-30T07:26:47.000Z</time>
      </trkpt>
      <trkpt lat="43.76063" lon="7.07482">
        <ele>963.79998779297</ele>
        <time>2023-07-30T07:26:48.000Z</time>
      </trkpt>
      <trkpt lat="43.76063" lon="7.07482">
        <ele>963.79998779297</ele>
        <time>2023-07-30T07:26:49.000Z</time>
      </trkpt>
      <trkpt lat="43.76063" lon="7.07482">
        <ele>963.79998779297</ele>
        <time>2023-07-30T07:26:50.000Z</time>
      </trkpt>
      <trkpt lat="43.76063" lon="7.07482">
        <ele>963.79998779297</ele>
        <time>2023-07-30T07:26:51.000Z</time>
      </trkpt>
      <trkpt lat="43.76063" lon="7.07482">
        <ele>963.59997558594</ele>
        <time>2023-07-30T07:26:52.000Z</time>
      </trkpt>
      <trkpt lat="43.76063" lon="7.07482">
        <ele>963.79998779297</ele>
        <time>2023-07-30T07:26:53.000Z</time>
      </trkpt>
      <trkpt lat="43.76063" lon="7.07482">
        <ele>963.59997558594</ele>
        <time>2023-07-30T07:26:54.000Z</time>
      </trkpt>
      <trkpt lat="43.76063" lon="7.07482">
        <ele>963.40002441406</ele>
        <time>2023-07-30T07:26:55.000Z</time>
      </trkpt>
      <trkpt lat="43.76063" lon="7.07482">
        <ele>963.40002441406</ele>
        <time>2023-07-30T07:26:56.000Z</time>
      </trkpt>
      <trkpt lat="43.76063" lon="7.07482">
        <ele>963.79998779297</ele>
        <time>2023-07-30T07:26:57.000Z</time>
      </trkpt>
      <trkpt lat="43.76063" lon="7.07482">
        <ele>963.79998779297</ele>
        <time>2023-07-30T07:26:58.000Z</time>
      </trkpt>
      <trkpt lat="43.76063" lon="7.07482">
        <ele>963.79998779297</ele>
        <time>2023-07-30T07:26:59.000Z</time>
      </trkpt>
      <trkpt lat="43.76063" lon="7.07482">
        <ele>963.79998779297</ele>
        <time>2023-07-30T07:27:00.000Z</time>
      </trkpt>
      <trkpt lat="43.76063" lon="7.07482">
        <ele>963.79998779297</ele>
        <time>2023-07-30T07:27:01.000Z</time>
      </trkpt>
      <trkpt lat="43.76063" lon="7.07482">
        <ele>963.79998779297</ele>
        <time>2023-07-30T07:27:02.000Z</time>
      </trkpt>
      <trkpt lat="43.76063" lon="7.07482">
        <ele>963.79998779297</ele>
        <time>2023-07-30T07:27:03.000Z</time>
      </trkpt>
      <trkpt lat="43.76063" lon="7.07482">
        <ele>963.79998779297</ele>
        <time>2023-07-30T07:27:04.000Z</time>
      </trkpt>
      <trkpt lat="43.76063" lon="7.07482">
        <ele>963.79998779297</ele>
        <time>2023-07-30T07:27:05.000Z</time>
      </trkpt>
      <trkpt lat="43.76063" lon="7.07482">
        <ele>963.79998779297</ele>
        <time>2023-07-30T07:27:06.000Z</time>
      </trkpt>
      <trkpt lat="43.76063" lon="7.07482">
        <ele>963.20001220703</ele>
        <time>2023-07-30T07:27:07.000Z</time>
      </trkpt>
      <trkpt lat="43.76063" lon="7.07482">
        <ele>963.79998779297</ele>
        <time>2023-07-30T07:27:08.000Z</time>
      </trkpt>
      <trkpt lat="43.76063" lon="7.07482">
        <ele>963.79998779297</ele>
        <time>2023-07-30T07:27:09.000Z</time>
      </trkpt>
      <trkpt lat="43.76063" lon="7.07482">
        <ele>964</ele>
        <time>2023-07-30T07:27:10.000Z</time>
      </trkpt>
      <trkpt lat="43.76063" lon="7.07482">
        <ele>963.79998779297</ele>
        <time>2023-07-30T07:27:11.000Z</time>
      </trkpt>
      <trkpt lat="43.76063" lon="7.07482">
        <ele>964</ele>
        <time>2023-07-30T07:27:12.000Z</time>
      </trkpt>
      <trkpt lat="43.76063" lon="7.07482">
        <ele>964</ele>
        <time>2023-07-30T07:27:13.000Z</time>
      </trkpt>
      <trkpt lat="43.76063" lon="7.07482">
        <ele>964</ele>
        <time>2023-07-30T07:27:14.000Z</time>
      </trkpt>
      <trkpt lat="43.76063" lon="7.07482">
        <ele>964</ele>
        <time>2023-07-30T07:27:15.000Z</time>
      </trkpt>
      <trkpt lat="43.76063" lon="7.07482">
        <ele>964</ele>
        <time>2023-07-30T07:27:16.000Z</time>
      </trkpt>
      <trkpt lat="43.76063" lon="7.07482">
        <ele>963.79998779297</ele>
        <time>2023-07-30T07:27:17.000Z</time>
      </trkpt>
      <trkpt lat="43.76063" lon="7.07482">
        <ele>964</ele>
        <time>2023-07-30T07:27:18.000Z</time>
      </trkpt>
      <trkpt lat="43.76063" lon="7.07482">
        <ele>963.79998779297</ele>
        <time>2023-07-30T07:27:19.000Z</time>
      </trkpt>
      <trkpt lat="43.76063" lon="7.07482">
        <ele>963.79998779297</ele>
        <time>2023-07-30T07:27:20.000Z</time>
      </trkpt>
      <trkpt lat="43.76063" lon="7.07482">
        <ele>963.79998779297</ele>
        <time>2023-07-30T07:27:21.000Z</time>
      </trkpt>
      <trkpt lat="43.76063" lon="7.07482">
        <ele>963.79998779297</ele>
        <time>2023-07-30T07:27:22.000Z</time>
      </trkpt>
      <trkpt lat="43.76063" lon="7.07482">
        <ele>964</ele>
        <time>2023-07-30T07:27:23.000Z</time>
      </trkpt>
      <trkpt lat="43.76063" lon="7.07482">
        <ele>964</ele>
        <time>2023-07-30T07:27:24.000Z</time>
      </trkpt>
      <trkpt lat="43.76063" lon="7.07482">
        <ele>964</ele>
        <time>2023-07-30T07:27:25.000Z</time>
      </trkpt>
      <trkpt lat="43.76062" lon="7.07481">
        <ele>964.40002441406</ele>
        <time>2023-07-30T07:27:26.000Z</time>
      </trkpt>
      <trkpt lat="43.76062" lon="7.0748">
        <ele>964.40002441406</ele>
        <time>2023-07-30T07:27:27.000Z</time>
      </trkpt>
      <trkpt lat="43.76061" lon="7.07479">
        <ele>964.40002441406</ele>
        <time>2023-07-30T07:27:28.000Z</time>
      </trkpt>
      <trkpt lat="43.76061" lon="7.07478">
        <ele>964.40002441406</ele>
        <time>2023-07-30T07:27:29.000Z</time>
      </trkpt>
      <trkpt lat="43.7606" lon="7.07475">
        <ele>964.40002441406</ele>
        <time>2023-07-30T07:27:30.000Z</time>
      </trkpt>
      <trkpt lat="43.76059" lon="7.07473">
        <ele>964.40002441406</ele>
        <time>2023-07-30T07:27:31.000Z</time>
      </trkpt>
      <trkpt lat="43.76059" lon="7.07471">
        <ele>964.40002441406</ele>
        <time>2023-07-30T07:27:32.000Z</time>
      </trkpt>
      <trkpt lat="43.76058" lon="7.07468">
        <ele>964.40002441406</ele>
        <time>2023-07-30T07:27:33.000Z</time>
      </trkpt>
      <trkpt lat="43.76057" lon="7.07464">
        <ele>964.59997558594</ele>
        <time>2023-07-30T07:27:34.000Z</time>
      </trkpt>
      <trkpt lat="43.76055" lon="7.07461">
        <ele>964.59997558594</ele>
        <time>2023-07-30T07:27:35.000Z</time>
      </trkpt>
      <trkpt lat="43.76055" lon="7.07457">
        <ele>964.79998779297</ele>
        <time>2023-07-30T07:27:36.000Z</time>
      </trkpt>
      <trkpt lat="43.76054" lon="7.07452">
        <ele>964.79998779297</ele>
        <time>2023-07-30T07:27:37.000Z</time>
      </trkpt>
      <trkpt lat="43.76053" lon="7.07449">
        <ele>964.79998779297</ele>
        <time>2023-07-30T07:27:38.000Z</time>
      </trkpt>
      <trkpt lat="43.76051" lon="7.07446">
        <ele>965</ele>
        <time>2023-07-30T07:27:39.000Z</time>
      </trkpt>
      <trkpt lat="43.7605" lon="7.07444">
        <ele>965.20001220703</ele>
        <time>2023-07-30T07:27:40.000Z</time>
      </trkpt>
      <trkpt lat="43.76048" lon="7.07442">
        <ele>965.20001220703</ele>
        <time>2023-07-30T07:27:41.000Z</time>
      </trkpt>
      <trkpt lat="43.76047" lon="7.07439">
        <ele>965.59997558594</ele>
        <time>2023-07-30T07:27:42.000Z</time>
      </trkpt>
      <trkpt lat="43.76046" lon="7.07435">
        <ele>966</ele>
        <time>2023-07-30T07:27:43.000Z</time>
      </trkpt>
      <trkpt lat="43.76046" lon="7.07432">
        <ele>966</ele>
        <time>2023-07-30T07:27:44.000Z</time>
      </trkpt>
      <trkpt lat="43.76045" lon="7.07429">
        <ele>966.20001220703</ele>
        <time>2023-07-30T07:27:45.000Z</time>
      </trkpt>
      <trkpt lat="43.76044" lon="7.07425">
        <ele>966.20001220703</ele>
        <time>2023-07-30T07:27:46.000Z</time>
      </trkpt>
      <trkpt lat="43.76043" lon="7.07422">
        <ele>966.20001220703</ele>
        <time>2023-07-30T07:27:47.000Z</time>
      </trkpt>
      <trkpt lat="43.76041" lon="7.07419">
        <ele>966.20001220703</ele>
        <time>2023-07-30T07:27:48.000Z</time>
      </trkpt>
      <trkpt lat="43.76039" lon="7.07418">
        <ele>966.20001220703</ele>
        <time>2023-07-30T07:27:49.000Z</time>
      </trkpt>
      <trkpt lat="43.76037" lon="7.07417">
        <ele>966.20001220703</ele>
        <time>2023-07-30T07:27:50.000Z</time>
      </trkpt>
      <trkpt lat="43.76035" lon="7.07416">
        <ele>966</ele>
        <time>2023-07-30T07:27:51.000Z</time>
      </trkpt>
      <trkpt lat="43.76034" lon="7.07415">
        <ele>966</ele>
        <time>2023-07-30T07:27:52.000Z</time>
      </trkpt>
      <trkpt lat="43.76033" lon="7.07413">
        <ele>966</ele>
        <time>2023-07-30T07:27:53.000Z</time>
      </trkpt>
      <trkpt lat="43.76032" lon="7.07411">
        <ele>965.79998779297</ele>
        <time>2023-07-30T07:27:54.000Z</time>
      </trkpt>
      <trkpt lat="43.76032" lon="7.07409">
        <ele>966</ele>
        <time>2023-07-30T07:27:55.000Z</time>
      </trkpt>
      <trkpt lat="43.76031" lon="7.07407">
        <ele>966</ele>
        <time>2023-07-30T07:27:56.000Z</time>
      </trkpt>
      <trkpt lat="43.7603" lon="7.07406">
        <ele>965.79998779297</ele>
        <time>2023-07-30T07:27:57.000Z</time>
      </trkpt>
      <trkpt lat="43.76029" lon="7.07404">
        <ele>965.79998779297</ele>
        <time>2023-07-30T07:27:58.000Z</time>
      </trkpt>
      <trkpt lat="43.76028" lon="7.07403">
        <ele>966</ele>
        <time>2023-07-30T07:27:59.000Z</time>
      </trkpt>
      <trkpt lat="43.76028" lon="7.07401">
        <ele>965.79998779297</ele>
        <time>2023-07-30T07:28:00.000Z</time>
      </trkpt>
      <trkpt lat="43.76027" lon="7.074">
        <ele>965.79998779297</ele>
        <time>2023-07-30T07:28:01.000Z</time>
      </trkpt>
      <trkpt lat="43.76027" lon="7.07399">
        <ele>965.79998779297</ele>
        <time>2023-07-30T07:28:02.000Z</time>
      </trkpt>
      <trkpt lat="43.76027" lon="7.07397">
        <ele>965.79998779297</ele>
        <time>2023-07-30T07:28:03.000Z</time>
      </trkpt>
      <trkpt lat="43.76027" lon="7.07395">
        <ele>966</ele>
        <time>2023-07-30T07:28:04.000Z</time>
      </trkpt>
      <trkpt lat="43.76026" lon="7.07393">
        <ele>966</ele>
        <time>2023-07-30T07:28:05.000Z</time>
      </trkpt>
      <trkpt lat="43.76025" lon="7.07391">
        <ele>966</ele>
        <time>2023-07-30T07:28:06.000Z</time>
      </trkpt>
      <trkpt lat="43.76024" lon="7.07389">
        <ele>966</ele>
        <time>2023-07-30T07:28:07.000Z</time>
      </trkpt>
      <trkpt lat="43.76022" lon="7.07387">
        <ele>966</ele>
        <time>2023-07-30T07:28:08.000Z</time>
      </trkpt>
      <trkpt lat="43.76022" lon="7.07385">
        <ele>966</ele>
        <time>2023-07-30T07:28:09.000Z</time>
      </trkpt>
      <trkpt lat="43.76021" lon="7.07382">
        <ele>966.20001220703</ele>
        <time>2023-07-30T07:28:10.000Z</time>
      </trkpt>
      <trkpt lat="43.7602" lon="7.0738">
        <ele>966.20001220703</ele>
        <time>2023-07-30T07:28:11.000Z</time>
      </trkpt>
      <trkpt lat="43.76019" lon="7.07379">
        <ele>966.20001220703</ele>
        <time>2023-07-30T07:28:12.000Z</time>
      </trkpt>
      <trkpt lat="43.76018" lon="7.07378">
        <ele>966.40002441406</ele>
        <time>2023-07-30T07:28:13.000Z</time>
      </trkpt>
      <trkpt lat="43.76017" lon="7.07377">
        <ele>966.79998779297</ele>
        <time>2023-07-30T07:28:14.000Z</time>
      </trkpt>
      <trkpt lat="43.76016" lon="7.07376">
        <ele>966.79998779297</ele>
        <time>2023-07-30T07:28:15.000Z</time>
      </trkpt>
      <trkpt lat="43.76016" lon="7.07376">
        <ele>966.79998779297</ele>
        <time>2023-07-30T07:28:16.000Z</time>
      </trkpt>
      <trkpt lat="43.76016" lon="7.07376">
        <ele>966.79998779297</ele>
        <time>2023-07-30T07:28:17.000Z</time>
      </trkpt>
      <trkpt lat="43.76016" lon="7.07376">
        <ele>966.79998779297</ele>
        <time>2023-07-30T07:28:18.000Z</time>
      </trkpt>
      <trkpt lat="43.76016" lon="7.07376">
        <ele>967</ele>
        <time>2023-07-30T07:28:19.000Z</time>
      </trkpt>
      <trkpt lat="43.76016" lon="7.07376">
        <ele>967</ele>
        <time>2023-07-30T07:28:20.000Z</time>
      </trkpt>
      <trkpt lat="43.76016" lon="7.07376">
        <ele>966.79998779297</ele>
        <time>2023-07-30T07:28:21.000Z</time>
      </trkpt>
      <trkpt lat="43.76016" lon="7.07376">
        <ele>966.79998779297</ele>
        <time>2023-07-30T07:28:22.000Z</time>
      </trkpt>
      <trkpt lat="43.76016" lon="7.07376">
        <ele>966.59997558594</ele>
        <time>2023-07-30T07:28:23.000Z</time>
      </trkpt>
      <trkpt lat="43.76016" lon="7.07376">
        <ele>966.59997558594</ele>
        <time>2023-07-30T07:28:24.000Z</time>
      </trkpt>
      <trkpt lat="43.76016" lon="7.07376">
        <ele>966.79998779297</ele>
        <time>2023-07-30T07:28:25.000Z</time>
      </trkpt>
      <trkpt lat="43.76016" lon="7.07376">
        <ele>966.79998779297</ele>
        <time>2023-07-30T07:28:26.000Z</time>
      </trkpt>
      <trkpt lat="43.76016" lon="7.07376">
        <ele>966.79998779297</ele>
        <time>2023-07-30T07:28:27.000Z</time>
      </trkpt>
      <trkpt lat="43.76016" lon="7.07376">
        <ele>966.79998779297</ele>
        <time>2023-07-30T07:28:28.000Z</time>
      </trkpt>
      <trkpt lat="43.76016" lon="7.07376">
        <ele>966.79998779297</ele>
        <time>2023-07-30T07:28:29.000Z</time>
      </trkpt>
      <trkpt lat="43.76016" lon="7.07376">
        <ele>966.79998779297</ele>
        <time>2023-07-30T07:28:30.000Z</time>
      </trkpt>
      <trkpt lat="43.76016" lon="7.07376">
        <ele>966.79998779297</ele>
        <time>2023-07-30T07:28:31.000Z</time>
      </trkpt>
      <trkpt lat="43.76016" lon="7.07376">
        <ele>967</ele>
        <time>2023-07-30T07:28:32.000Z</time>
      </trkpt>
      <trkpt lat="43.76016" lon="7.07376">
        <ele>967</ele>
        <time>2023-07-30T07:28:33.000Z</time>
      </trkpt>
      <trkpt lat="43.76016" lon="7.07376">
        <ele>967</ele>
        <time>2023-07-30T07:28:34.000Z</time>
      </trkpt>
      <trkpt lat="43.76016" lon="7.07376">
        <ele>967</ele>
        <time>2023-07-30T07:28:35.000Z</time>
      </trkpt>
      <trkpt lat="43.76016" lon="7.07376">
        <ele>967.40002441406</ele>
        <time>2023-07-30T07:28:36.000Z</time>
      </trkpt>
      <trkpt lat="43.76016" lon="7.07376">
        <ele>967.40002441406</ele>
        <time>2023-07-30T07:28:37.000Z</time>
      </trkpt>
      <trkpt lat="43.76016" lon="7.07376">
        <ele>967.40002441406</ele>
        <time>2023-07-30T07:28:38.000Z</time>
      </trkpt>
      <trkpt lat="43.76016" lon="7.07376">
        <ele>966.79998779297</ele>
        <time>2023-07-30T07:28:39.000Z</time>
      </trkpt>
      <trkpt lat="43.76016" lon="7.07376">
        <ele>966.79998779297</ele>
        <time>2023-07-30T07:28:40.000Z</time>
      </trkpt>
      <trkpt lat="43.76016" lon="7.07376">
        <ele>966.79998779297</ele>
        <time>2023-07-30T07:28:41.000Z</time>
      </trkpt>
      <trkpt lat="43.76016" lon="7.07376">
        <ele>966.79998779297</ele>
        <time>2023-07-30T07:28:42.000Z</time>
      </trkpt>
      <trkpt lat="43.76016" lon="7.07376">
        <ele>966.79998779297</ele>
        <time>2023-07-30T07:28:43.000Z</time>
      </trkpt>
      <trkpt lat="43.76016" lon="7.07374">
        <ele>967.20001220703</ele>
        <time>2023-07-30T07:28:44.000Z</time>
      </trkpt>
      <trkpt lat="43.76015" lon="7.07373">
        <ele>967.40002441406</ele>
        <time>2023-07-30T07:28:45.000Z</time>
      </trkpt>
      <trkpt lat="43.76013" lon="7.07372">
        <ele>967.40002441406</ele>
        <time>2023-07-30T07:28:46.000Z</time>
      </trkpt>
      <trkpt lat="43.76011" lon="7.07372">
        <ele>967.40002441406</ele>
        <time>2023-07-30T07:28:47.000Z</time>
      </trkpt>
      <trkpt lat="43.76009" lon="7.07372">
        <ele>967.40002441406</ele>
        <time>2023-07-30T07:28:48.000Z</time>
      </trkpt>
      <trkpt lat="43.76007" lon="7.07372">
        <ele>967.59997558594</ele>
        <time>2023-07-30T07:28:49.000Z</time>
      </trkpt>
      <trkpt lat="43.76005" lon="7.07371">
        <ele>967.59997558594</ele>
        <time>2023-07-30T07:28:50.000Z</time>
      </trkpt>
      <trkpt lat="43.76003" lon="7.07371">
        <ele>967.59997558594</ele>
        <time>2023-07-30T07:28:51.000Z</time>
      </trkpt>
      <trkpt lat="43.76" lon="7.07371">
        <ele>967.59997558594</ele>
        <time>2023-07-30T07:28:52.000Z</time>
      </trkpt>
      <trkpt lat="43.75998" lon="7.0737">
        <ele>967.79998779297</ele>
        <time>2023-07-30T07:28:53.000Z</time>
      </trkpt>
      <trkpt lat="43.75996" lon="7.0737">
        <ele>967.79998779297</ele>
        <time>2023-07-30T07:28:54.000Z</time>
      </trkpt>
      <trkpt lat="43.75994" lon="7.07369">
        <ele>967.79998779297</ele>
        <time>2023-07-30T07:28:55.000Z</time>
      </trkpt>
      <trkpt lat="43.75992" lon="7.07367">
        <ele>968</ele>
        <time>2023-07-30T07:28:56.000Z</time>
      </trkpt>
      <trkpt lat="43.75991" lon="7.07365">
        <ele>968</ele>
        <time>2023-07-30T07:28:57.000Z</time>
      </trkpt>
      <trkpt lat="43.7599" lon="7.07363">
        <ele>968.40002441406</ele>
        <time>2023-07-30T07:28:58.000Z</time>
      </trkpt>
      <trkpt lat="43.75989" lon="7.07362">
        <ele>968.59997558594</ele>
        <time>2023-07-30T07:28:59.000Z</time>
      </trkpt>
      <trkpt lat="43.75988" lon="7.07362">
        <ele>968.59997558594</ele>
        <time>2023-07-30T07:29:00.000Z</time>
      </trkpt>
      <trkpt lat="43.75987" lon="7.07362">
        <ele>968.79998779297</ele>
        <time>2023-07-30T07:29:01.000Z</time>
      </trkpt>
      <trkpt lat="43.75987" lon="7.07362">
        <ele>969</ele>
        <time>2023-07-30T07:29:02.000Z</time>
      </trkpt>
      <trkpt lat="43.75987" lon="7.07362">
        <ele>969.20001220703</ele>
        <time>2023-07-30T07:29:03.000Z</time>
      </trkpt>
      <trkpt lat="43.75987" lon="7.07362">
        <ele>969.20001220703</ele>
        <time>2023-07-30T07:29:04.000Z</time>
      </trkpt>
      <trkpt lat="43.75987" lon="7.07362">
        <ele>969.20001220703</ele>
        <time>2023-07-30T07:29:05.000Z</time>
      </trkpt>
      <trkpt lat="43.75987" lon="7.07362">
        <ele>969.20001220703</ele>
        <time>2023-07-30T07:29:06.000Z</time>
      </trkpt>
      <trkpt lat="43.75988" lon="7.07362">
        <ele>969.20001220703</ele>
        <time>2023-07-30T07:29:07.000Z</time>
      </trkpt>
      <trkpt lat="43.75988" lon="7.07362">
        <ele>969.20001220703</ele>
        <time>2023-07-30T07:29:08.000Z</time>
      </trkpt>
      <trkpt lat="43.75988" lon="7.07362">
        <ele>969.20001220703</ele>
        <time>2023-07-30T07:29:09.000Z</time>
      </trkpt>
      <trkpt lat="43.7599" lon="7.07362">
        <ele>969.20001220703</ele>
        <time>2023-07-30T07:29:10.000Z</time>
      </trkpt>
      <trkpt lat="43.75991" lon="7.07363">
        <ele>969.20001220703</ele>
        <time>2023-07-30T07:29:11.000Z</time>
      </trkpt>
      <trkpt lat="43.75991" lon="7.07365">
        <ele>969.20001220703</ele>
        <time>2023-07-30T07:29:12.000Z</time>
      </trkpt>
      <trkpt lat="43.75993" lon="7.07368">
        <ele>969.20001220703</ele>
        <time>2023-07-30T07:29:13.000Z</time>
      </trkpt>
      <trkpt lat="43.75994" lon="7.07369">
        <ele>969.20001220703</ele>
        <time>2023-07-30T07:29:14.000Z</time>
      </trkpt>
      <trkpt lat="43.75995" lon="7.0737">
        <ele>969.20001220703</ele>
        <time>2023-07-30T07:29:15.000Z</time>
      </trkpt>
      <trkpt lat="43.75998" lon="7.07371">
        <ele>969.20001220703</ele>
        <time>2023-07-30T07:29:16.000Z</time>
      </trkpt>
      <trkpt lat="43.76" lon="7.07371">
        <ele>969.20001220703</ele>
        <time>2023-07-30T07:29:17.000Z</time>
      </trkpt>
      <trkpt lat="43.76002" lon="7.07372">
        <ele>969</ele>
        <time>2023-07-30T07:29:18.000Z</time>
      </trkpt>
      <trkpt lat="43.76004" lon="7.07372">
        <ele>969</ele>
        <time>2023-07-30T07:29:19.000Z</time>
      </trkpt>
      <trkpt lat="43.76006" lon="7.07372">
        <ele>968.59997558594</ele>
        <time>2023-07-30T07:29:20.000Z</time>
      </trkpt>
      <trkpt lat="43.76009" lon="7.07372">
        <ele>968.40002441406</ele>
        <time>2023-07-30T07:29:21.000Z</time>
      </trkpt>
      <trkpt lat="43.7601" lon="7.07373">
        <ele>968.40002441406</ele>
        <time>2023-07-30T07:29:22.000Z</time>
      </trkpt>
      <trkpt lat="43.76012" lon="7.07373">
        <ele>968.20001220703</ele>
        <time>2023-07-30T07:29:23.000Z</time>
      </trkpt>
      <trkpt lat="43.76014" lon="7.07373">
        <ele>968</ele>
        <time>2023-07-30T07:29:24.000Z</time>
      </trkpt>
      <trkpt lat="43.76016" lon="7.07374">
        <ele>967.79998779297</ele>
        <time>2023-07-30T07:29:25.000Z</time>
      </trkpt>
      <trkpt lat="43.76017" lon="7.07375">
        <ele>967.59997558594</ele>
        <time>2023-07-30T07:29:26.000Z</time>
      </trkpt>
      <trkpt lat="43.76019" lon="7.07377">
        <ele>967.59997558594</ele>
        <time>2023-07-30T07:29:27.000Z</time>
      </trkpt>
      <trkpt lat="43.76019" lon="7.07379">
        <ele>967.40002441406</ele>
        <time>2023-07-30T07:29:28.000Z</time>
      </trkpt>
      <trkpt lat="43.7602" lon="7.07383">
        <ele>967.20001220703</ele>
        <time>2023-07-30T07:29:29.000Z</time>
      </trkpt>
      <trkpt lat="43.76022" lon="7.07387">
        <ele>967</ele>
        <time>2023-07-30T07:29:30.000Z</time>
      </trkpt>
      <trkpt lat="43.76024" lon="7.07389">
        <ele>967</ele>
        <time>2023-07-30T07:29:31.000Z</time>
      </trkpt>
      <trkpt lat="43.76027" lon="7.0739">
        <ele>967</ele>
        <time>2023-07-30T07:29:32.000Z</time>
      </trkpt>
      <trkpt lat="43.76029" lon="7.0739">
        <ele>966.79998779297</ele>
        <time>2023-07-30T07:29:33.000Z</time>
      </trkpt>
      <trkpt lat="43.76033" lon="7.0739">
        <ele>966.40002441406</ele>
        <time>2023-07-30T07:29:34.000Z</time>
      </trkpt>
      <trkpt lat="43.76037" lon="7.0739">
        <ele>966.40002441406</ele>
        <time>2023-07-30T07:29:35.000Z</time>
      </trkpt>
      <trkpt lat="43.76041" lon="7.07391">
        <ele>966.20001220703</ele>
        <time>2023-07-30T07:29:36.000Z</time>
      </trkpt>
      <trkpt lat="43.76045" lon="7.07392">
        <ele>966.20001220703</ele>
        <time>2023-07-30T07:29:37.000Z</time>
      </trkpt>
      <trkpt lat="43.76049" lon="7.07392">
        <ele>966</ele>
        <time>2023-07-30T07:29:38.000Z</time>
      </trkpt>
      <trkpt lat="43.76052" lon="7.07391">
        <ele>966</ele>
        <time>2023-07-30T07:29:39.000Z</time>
      </trkpt>
      <trkpt lat="43.76056" lon="7.07389">
        <ele>965.40002441406</ele>
        <time>2023-07-30T07:29:40.000Z</time>
      </trkpt>
      <trkpt lat="43.76058" lon="7.07385">
        <ele>965.20001220703</ele>
        <time>2023-07-30T07:29:41.000Z</time>
      </trkpt>
      <trkpt lat="43.7606" lon="7.07382">
        <ele>965.20001220703</ele>
        <time>2023-07-30T07:29:42.000Z</time>
      </trkpt>
      <trkpt lat="43.76061" lon="7.07379">
        <ele>964.59997558594</ele>
        <time>2023-07-30T07:29:43.000Z</time>
      </trkpt>
      <trkpt lat="43.76062" lon="7.07378">
        <ele>964.59997558594</ele>
        <time>2023-07-30T07:29:44.000Z</time>
      </trkpt>
      <trkpt lat="43.76062" lon="7.07378">
        <ele>964.40002441406</ele>
        <time>2023-07-30T07:29:45.000Z</time>
      </trkpt>
      <trkpt lat="43.76062" lon="7.07378">
        <ele>964.40002441406</ele>
        <time>2023-07-30T07:29:46.000Z</time>
      </trkpt>
      <trkpt lat="43.76062" lon="7.07378">
        <ele>964.20001220703</ele>
        <time>2023-07-30T07:29:47.000Z</time>
      </trkpt>
      <trkpt lat="43.76062" lon="7.07378">
        <ele>964.20001220703</ele>
        <time>2023-07-30T07:29:48.000Z</time>
      </trkpt>
      <trkpt lat="43.76062" lon="7.07378">
        <ele>964.20001220703</ele>
        <time>2023-07-30T07:29:49.000Z</time>
      </trkpt>
      <trkpt lat="43.76062" lon="7.07378">
        <ele>964</ele>
        <time>2023-07-30T07:29:50.000Z</time>
      </trkpt>
      <trkpt lat="43.76062" lon="7.07378">
        <ele>964</ele>
        <time>2023-07-30T07:29:51.000Z</time>
      </trkpt>
      <trkpt lat="43.76062" lon="7.07378">
        <ele>964</ele>
        <time>2023-07-30T07:29:52.000Z</time>
      </trkpt>
      <trkpt lat="43.76062" lon="7.07378">
        <ele>964</ele>
        <time>2023-07-30T07:29:53.000Z</time>
      </trkpt>
      <trkpt lat="43.76062" lon="7.07378">
        <ele>963.59997558594</ele>
        <time>2023-07-30T07:29:54.000Z</time>
      </trkpt>
      <trkpt lat="43.76062" lon="7.07378">
        <ele>963.20001220703</ele>
        <time>2023-07-30T07:29:55.000Z</time>
      </trkpt>
      <trkpt lat="43.76062" lon="7.07378">
        <ele>963.20001220703</ele>
        <time>2023-07-30T07:29:56.000Z</time>
      </trkpt>
      <trkpt lat="43.76062" lon="7.07378">
        <ele>963.20001220703</ele>
        <time>2023-07-30T07:29:57.000Z</time>
      </trkpt>
      <trkpt lat="43.76062" lon="7.07378">
        <ele>963.20001220703</ele>
        <time>2023-07-30T07:29:58.000Z</time>
      </trkpt>
      <trkpt lat="43.76062" lon="7.07378">
        <ele>963.79998779297</ele>
        <time>2023-07-30T07:29:59.000Z</time>
      </trkpt>
      <trkpt lat="43.76062" lon="7.07378">
        <ele>964.40002441406</ele>
        <time>2023-07-30T07:30:00.000Z</time>
      </trkpt>
      <trkpt lat="43.76062" lon="7.07378">
        <ele>964.40002441406</ele>
        <time>2023-07-30T07:30:01.000Z</time>
      </trkpt>
      <trkpt lat="43.76062" lon="7.07378">
        <ele>964.40002441406</ele>
        <time>2023-07-30T07:30:02.000Z</time>
      </trkpt>
      <trkpt lat="43.76062" lon="7.07378">
        <ele>964.40002441406</ele>
        <time>2023-07-30T07:30:03.000Z</time>
      </trkpt>
      <trkpt lat="43.76062" lon="7.07378">
        <ele>964.40002441406</ele>
        <time>2023-07-30T07:30:04.000Z</time>
      </trkpt>
      <trkpt lat="43.76062" lon="7.07378">
        <ele>964.40002441406</ele>
        <time>2023-07-30T07:30:05.000Z</time>
      </trkpt>
      <trkpt lat="43.76062" lon="7.07378">
        <ele>964.40002441406</ele>
        <time>2023-07-30T07:30:06.000Z</time>
      </trkpt>
      <trkpt lat="43.76062" lon="7.07378">
        <ele>964.40002441406</ele>
        <time>2023-07-30T07:30:07.000Z</time>
      </trkpt>
      <trkpt lat="43.76062" lon="7.07378">
        <ele>964.20001220703</ele>
        <time>2023-07-30T07:30:08.000Z</time>
      </trkpt>
      <trkpt lat="43.76062" lon="7.07378">
        <ele>964.20001220703</ele>
        <time>2023-07-30T07:30:09.000Z</time>
      </trkpt>
      <trkpt lat="43.76062" lon="7.07378">
        <ele>964.20001220703</ele>
        <time>2023-07-30T07:30:10.000Z</time>
      </trkpt>
      <trkpt lat="43.76062" lon="7.07378">
        <ele>964.20001220703</ele>
        <time>2023-07-30T07:30:11.000Z</time>
      </trkpt>
      <trkpt lat="43.76062" lon="7.07378">
        <ele>964.20001220703</ele>
        <time>2023-07-30T07:30:12.000Z</time>
      </trkpt>
      <trkpt lat="43.76062" lon="7.07378">
        <ele>964.20001220703</ele>
        <time>2023-07-30T07:30:13.000Z</time>
      </trkpt>
      <trkpt lat="43.76062" lon="7.07378">
        <ele>964.40002441406</ele>
        <time>2023-07-30T07:30:14.000Z</time>
      </trkpt>
      <trkpt lat="43.7606" lon="7.07378">
        <ele>964.40002441406</ele>
        <time>2023-07-30T07:30:15.000Z</time>
      </trkpt>
      <trkpt lat="43.76059" lon="7.07378">
        <ele>964.40002441406</ele>
        <time>2023-07-30T07:30:16.000Z</time>
      </trkpt>
      <trkpt lat="43.76059" lon="7.0738">
        <ele>964.40002441406</ele>
        <time>2023-07-30T07:30:17.000Z</time>
      </trkpt>
      <trkpt lat="43.76058" lon="7.07382">
        <ele>964.40002441406</ele>
        <time>2023-07-30T07:30:18.000Z</time>
      </trkpt>
      <trkpt lat="43.76057" lon="7.07384">
        <ele>964.40002441406</ele>
        <time>2023-07-30T07:30:19.000Z</time>
      </trkpt>
      <trkpt lat="43.76056" lon="7.07387">
        <ele>964.40002441406</ele>
        <time>2023-07-30T07:30:20.000Z</time>
      </trkpt>
      <trkpt lat="43.76056" lon="7.07391">
        <ele>964.40002441406</ele>
        <time>2023-07-30T07:30:21.000Z</time>
      </trkpt>
      <trkpt lat="43.76057" lon="7.07394">
        <ele>964.59997558594</ele>
        <time>2023-07-30T07:30:22.000Z</time>
      </trkpt>
      <trkpt lat="43.76059" lon="7.07396">
        <ele>964.79998779297</ele>
        <time>2023-07-30T07:30:23.000Z</time>
      </trkpt>
      <trkpt lat="43.76061" lon="7.07398">
        <ele>964.79998779297</ele>
        <time>2023-07-30T07:30:24.000Z</time>
      </trkpt>
      <trkpt lat="43.76062" lon="7.07399">
        <ele>965.20001220703</ele>
        <time>2023-07-30T07:30:25.000Z</time>
      </trkpt>
      <trkpt lat="43.76064" lon="7.074">
        <ele>965.20001220703</ele>
        <time>2023-07-30T07:30:26.000Z</time>
      </trkpt>
      <trkpt lat="43.76066" lon="7.07402">
        <ele>965.59997558594</ele>
        <time>2023-07-30T07:30:27.000Z</time>
      </trkpt>
      <trkpt lat="43.76068" lon="7.07403">
        <ele>965.59997558594</ele>
        <time>2023-07-30T07:30:28.000Z</time>
      </trkpt>
      <trkpt lat="43.76071" lon="7.07403">
        <ele>965.59997558594</ele>
        <time>2023-07-30T07:30:29.000Z</time>
      </trkpt>
      <trkpt lat="43.76074" lon="7.07404">
        <ele>965.59997558594</ele>
        <time>2023-07-30T07:30:30.000Z</time>
      </trkpt>
      <trkpt lat="43.76077" lon="7.07403">
        <ele>965.79998779297</ele>
        <time>2023-07-30T07:30:31.000Z</time>
      </trkpt>
      <trkpt lat="43.7608" lon="7.07404">
        <ele>965.79998779297</ele>
        <time>2023-07-30T07:30:32.000Z</time>
      </trkpt>
      <trkpt lat="43.76084" lon="7.07404">
        <ele>965.79998779297</ele>
        <time>2023-07-30T07:30:33.000Z</time>
      </trkpt>
      <trkpt lat="43.76087" lon="7.07404">
        <ele>965.79998779297</ele>
        <time>2023-07-30T07:30:34.000Z</time>
      </trkpt>
      <trkpt lat="43.7609" lon="7.07405">
        <ele>965.79998779297</ele>
        <time>2023-07-30T07:30:35.000Z</time>
      </trkpt>
      <trkpt lat="43.76093" lon="7.07405">
        <ele>965.59997558594</ele>
        <time>2023-07-30T07:30:36.000Z</time>
      </trkpt>
      <trkpt lat="43.76096" lon="7.07407">
        <ele>965.59997558594</ele>
        <time>2023-07-30T07:30:37.000Z</time>
      </trkpt>
      <trkpt lat="43.76098" lon="7.07409">
        <ele>965.40002441406</ele>
        <time>2023-07-30T07:30:38.000Z</time>
      </trkpt>
      <trkpt lat="43.76101" lon="7.0741">
        <ele>965.59997558594</ele>
        <time>2023-07-30T07:30:39.000Z</time>
      </trkpt>
      <trkpt lat="43.76103" lon="7.07409">
        <ele>965.59997558594</ele>
        <time>2023-07-30T07:30:40.000Z</time>
      </trkpt>
      <trkpt lat="43.76105" lon="7.07409">
        <ele>965.59997558594</ele>
        <time>2023-07-30T07:30:41.000Z</time>
      </trkpt>
      <trkpt lat="43.76107" lon="7.07407">
        <ele>965.59997558594</ele>
        <time>2023-07-30T07:30:42.000Z</time>
      </trkpt>
      <trkpt lat="43.76109" lon="7.07405">
        <ele>965.40002441406</ele>
        <time>2023-07-30T07:30:43.000Z</time>
      </trkpt>
      <trkpt lat="43.7611" lon="7.07402">
        <ele>965.40002441406</ele>
        <time>2023-07-30T07:30:44.000Z</time>
      </trkpt>
      <trkpt lat="43.76112" lon="7.07398">
        <ele>965.40002441406</ele>
        <time>2023-07-30T07:30:45.000Z</time>
      </trkpt>
      <trkpt lat="43.76112" lon="7.07393">
        <ele>965.20001220703</ele>
        <time>2023-07-30T07:30:46.000Z</time>
      </trkpt>
      <trkpt lat="43.76112" lon="7.07389">
        <ele>965.20001220703</ele>
        <time>2023-07-30T07:30:47.000Z</time>
      </trkpt>
      <trkpt lat="43.76114" lon="7.07385">
        <ele>964.79998779297</ele>
        <time>2023-07-30T07:30:48.000Z</time>
      </trkpt>
      <trkpt lat="43.76117" lon="7.07381">
        <ele>964.59997558594</ele>
        <time>2023-07-30T07:30:49.000Z</time>
      </trkpt>
      <trkpt lat="43.76121" lon="7.07378">
        <ele>964.20001220703</ele>
        <time>2023-07-30T07:30:50.000Z</time>
      </trkpt>
      <trkpt lat="43.76125" lon="7.07374">
        <ele>963.79998779297</ele>
        <time>2023-07-30T07:30:51.000Z</time>
      </trkpt>
      <trkpt lat="43.76127" lon="7.07369">
        <ele>963.59997558594</ele>
        <time>2023-07-30T07:30:52.000Z</time>
      </trkpt>
      <trkpt lat="43.76128" lon="7.07364">
        <ele>963.40002441406</ele>
        <time>2023-07-30T07:30:53.000Z</time>
      </trkpt>
      <trkpt lat="43.76128" lon="7.07358">
        <ele>963.40002441406</ele>
        <time>2023-07-30T07:30:54.000Z</time>
      </trkpt>
      <trkpt lat="43.76128" lon="7.07352">
        <ele>963.40002441406</ele>
        <time>2023-07-30T07:30:55.000Z</time>
      </trkpt>
      <trkpt lat="43.76127" lon="7.07347">
        <ele>963.20001220703</ele>
        <time>2023-07-30T07:30:56.000Z</time>
      </trkpt>
      <trkpt lat="43.76127" lon="7.07342">
        <ele>963</ele>
        <time>2023-07-30T07:30:57.000Z</time>
      </trkpt>
      <trkpt lat="43.76127" lon="7.07337">
        <ele>962.79998779297</ele>
        <time>2023-07-30T07:30:58.000Z</time>
      </trkpt>
      <trkpt lat="43.76128" lon="7.07332">
        <ele>962.59997558594</ele>
        <time>2023-07-30T07:30:59.000Z</time>
      </trkpt>
      <trkpt lat="43.76128" lon="7.07326">
        <ele>962.40002441406</ele>
        <time>2023-07-30T07:31:00.000Z</time>
      </trkpt>
      <trkpt lat="43.76128" lon="7.07322">
        <ele>962</ele>
        <time>2023-07-30T07:31:01.000Z</time>
      </trkpt>
      <trkpt lat="43.76128" lon="7.07317">
        <ele>962</ele>
        <time>2023-07-30T07:31:02.000Z</time>
      </trkpt>
      <trkpt lat="43.76128" lon="7.07313">
        <ele>961.40002441406</ele>
        <time>2023-07-30T07:31:03.000Z</time>
      </trkpt>
      <trkpt lat="43.76128" lon="7.07309">
        <ele>961</ele>
        <time>2023-07-30T07:31:04.000Z</time>
      </trkpt>
      <trkpt lat="43.76129" lon="7.07306">
        <ele>961</ele>
        <time>2023-07-30T07:31:05.000Z</time>
      </trkpt>
      <trkpt lat="43.76131" lon="7.07302">
        <ele>961</ele>
        <time>2023-07-30T07:31:06.000Z</time>
      </trkpt>
      <trkpt lat="43.76131" lon="7.07298">
        <ele>961</ele>
        <time>2023-07-30T07:31:07.000Z</time>
      </trkpt>
      <trkpt lat="43.76132" lon="7.07293">
        <ele>960</ele>
        <time>2023-07-30T07:31:08.000Z</time>
      </trkpt>
      <trkpt lat="43.76132" lon="7.07287">
        <ele>960</ele>
        <time>2023-07-30T07:31:09.000Z</time>
      </trkpt>
      <trkpt lat="43.76131" lon="7.07281">
        <ele>959.79998779297</ele>
        <time>2023-07-30T07:31:10.000Z</time>
      </trkpt>
      <trkpt lat="43.7613" lon="7.07273">
        <ele>959.20001220703</ele>
        <time>2023-07-30T07:31:11.000Z</time>
      </trkpt>
      <trkpt lat="43.76129" lon="7.07268">
        <ele>958.79998779297</ele>
        <time>2023-07-30T07:31:12.000Z</time>
      </trkpt>
      <trkpt lat="43.76127" lon="7.07262">
        <ele>958.59997558594</ele>
        <time>2023-07-30T07:31:13.000Z</time>
      </trkpt>
      <trkpt lat="43.76124" lon="7.07258">
        <ele>958.20001220703</ele>
        <time>2023-07-30T07:31:14.000Z</time>
      </trkpt>
      <trkpt lat="43.76121" lon="7.07256">
        <ele>958.20001220703</ele>
        <time>2023-07-30T07:31:15.000Z</time>
      </trkpt>
      <trkpt lat="43.76119" lon="7.07255">
        <ele>958</ele>
        <time>2023-07-30T07:31:16.000Z</time>
      </trkpt>
      <trkpt lat="43.76116" lon="7.07253">
        <ele>958</ele>
        <time>2023-07-30T07:31:17.000Z</time>
      </trkpt>
      <trkpt lat="43.76114" lon="7.07251">
        <ele>958.20001220703</ele>
        <time>2023-07-30T07:31:18.000Z</time>
      </trkpt>
      <trkpt lat="43.76112" lon="7.07248">
        <ele>958.20001220703</ele>
        <time>2023-07-30T07:31:19.000Z</time>
      </trkpt>
      <trkpt lat="43.7611" lon="7.07247">
        <ele>958.20001220703</ele>
        <time>2023-07-30T07:31:20.000Z</time>
      </trkpt>
      <trkpt lat="43.76108" lon="7.07247">
        <ele>958.20001220703</ele>
        <time>2023-07-30T07:31:21.000Z</time>
      </trkpt>
      <trkpt lat="43.76106" lon="7.07246">
        <ele>958.79998779297</ele>
        <time>2023-07-30T07:31:22.000Z</time>
      </trkpt>
      <trkpt lat="43.76103" lon="7.07246">
        <ele>958.79998779297</ele>
        <time>2023-07-30T07:31:23.000Z</time>
      </trkpt>
      <trkpt lat="43.76101" lon="7.07246">
        <ele>959.40002441406</ele>
        <time>2023-07-30T07:31:24.000Z</time>
      </trkpt>
      <trkpt lat="43.76099" lon="7.07246">
        <ele>960</ele>
        <time>2023-07-30T07:31:25.000Z</time>
      </trkpt>
      <trkpt lat="43.76097" lon="7.07245">
        <ele>960</ele>
        <time>2023-07-30T07:31:26.000Z</time>
      </trkpt>
      <trkpt lat="43.76095" lon="7.07244">
        <ele>960.20001220703</ele>
        <time>2023-07-30T07:31:27.000Z</time>
      </trkpt>
      <trkpt lat="43.76093" lon="7.07242">
        <ele>960.59997558594</ele>
        <time>2023-07-30T07:31:28.000Z</time>
      </trkpt>
      <trkpt lat="43.76091" lon="7.0724">
        <ele>960.79998779297</ele>
        <time>2023-07-30T07:31:29.000Z</time>
      </trkpt>
      <trkpt lat="43.76089" lon="7.07238">
        <ele>961</ele>
        <time>2023-07-30T07:31:30.000Z</time>
      </trkpt>
      <trkpt lat="43.76087" lon="7.07236">
        <ele>961.20001220703</ele>
        <time>2023-07-30T07:31:31.000Z</time>
      </trkpt>
      <trkpt lat="43.76084" lon="7.07235">
        <ele>961.40002441406</ele>
        <time>2023-07-30T07:31:32.000Z</time>
      </trkpt>
      <trkpt lat="43.76082" lon="7.07233">
        <ele>961.40002441406</ele>
        <time>2023-07-30T07:31:33.000Z</time>
      </trkpt>
      <trkpt lat="43.76079" lon="7.07232">
        <ele>961.59997558594</ele>
        <time>2023-07-30T07:31:34.000Z</time>
      </trkpt>
      <trkpt lat="43.76077" lon="7.07231">
        <ele>961.59997558594</ele>
        <time>2023-07-30T07:31:35.000Z</time>
      </trkpt>
      <trkpt lat="43.76074" lon="7.07231">
        <ele>961.59997558594</ele>
        <time>2023-07-30T07:31:36.000Z</time>
      </trkpt>
      <trkpt lat="43.76072" lon="7.07231">
        <ele>961.79998779297</ele>
        <time>2023-07-30T07:31:37.000Z</time>
      </trkpt>
      <trkpt lat="43.7607" lon="7.07231">
        <ele>962</ele>
        <time>2023-07-30T07:31:38.000Z</time>
      </trkpt>
      <trkpt lat="43.76068" lon="7.07231">
        <ele>962</ele>
        <time>2023-07-30T07:31:39.000Z</time>
      </trkpt>
      <trkpt lat="43.76065" lon="7.07231">
        <ele>962.20001220703</ele>
        <time>2023-07-30T07:31:40.000Z</time>
      </trkpt>
      <trkpt lat="43.76063" lon="7.07231">
        <ele>962.40002441406</ele>
        <time>2023-07-30T07:31:41.000Z</time>
      </trkpt>
      <trkpt lat="43.76061" lon="7.07231">
        <ele>962.40002441406</ele>
        <time>2023-07-30T07:31:42.000Z</time>
      </trkpt>
      <trkpt lat="43.76059" lon="7.07231">
        <ele>962.59997558594</ele>
        <time>2023-07-30T07:31:43.000Z</time>
      </trkpt>
      <trkpt lat="43.76057" lon="7.07229">
        <ele>962.79998779297</ele>
        <time>2023-07-30T07:31:44.000Z</time>
      </trkpt>
      <trkpt lat="43.76054" lon="7.07228">
        <ele>962.79998779297</ele>
        <time>2023-07-30T07:31:45.000Z</time>
      </trkpt>
      <trkpt lat="43.76052" lon="7.07228">
        <ele>963</ele>
        <time>2023-07-30T07:31:46.000Z</time>
      </trkpt>
      <trkpt lat="43.7605" lon="7.0723">
        <ele>963</ele>
        <time>2023-07-30T07:31:47.000Z</time>
      </trkpt>
      <trkpt lat="43.76048" lon="7.07231">
        <ele>963.20001220703</ele>
        <time>2023-07-30T07:31:48.000Z</time>
      </trkpt>
      <trkpt lat="43.76046" lon="7.07233">
        <ele>963.40002441406</ele>
        <time>2023-07-30T07:31:49.000Z</time>
      </trkpt>
      <trkpt lat="43.76044" lon="7.07234">
        <ele>963.40002441406</ele>
        <time>2023-07-30T07:31:50.000Z</time>
      </trkpt>
      <trkpt lat="43.76042" lon="7.07235">
        <ele>963.59997558594</ele>
        <time>2023-07-30T07:31:51.000Z</time>
      </trkpt>
      <trkpt lat="43.7604" lon="7.07235">
        <ele>963.79998779297</ele>
        <time>2023-07-30T07:31:52.000Z</time>
      </trkpt>
      <trkpt lat="43.76037" lon="7.07236">
        <ele>964</ele>
        <time>2023-07-30T07:31:53.000Z</time>
      </trkpt>
      <trkpt lat="43.76036" lon="7.07236">
        <ele>964</ele>
        <time>2023-07-30T07:31:54.000Z</time>
      </trkpt>
      <trkpt lat="43.76034" lon="7.07237">
        <ele>964.20001220703</ele>
        <time>2023-07-30T07:31:55.000Z</time>
      </trkpt>
      <trkpt lat="43.76032" lon="7.07237">
        <ele>964.40002441406</ele>
        <time>2023-07-30T07:31:56.000Z</time>
      </trkpt>
      <trkpt lat="43.7603" lon="7.07238">
        <ele>964.59997558594</ele>
        <time>2023-07-30T07:31:57.000Z</time>
      </trkpt>
      <trkpt lat="43.76027" lon="7.07238">
        <ele>964.79998779297</ele>
        <time>2023-07-30T07:31:58.000Z</time>
      </trkpt>
      <trkpt lat="43.76025" lon="7.07239">
        <ele>965</ele>
        <time>2023-07-30T07:31:59.000Z</time>
      </trkpt>
      <trkpt lat="43.76023" lon="7.0724">
        <ele>965.20001220703</ele>
        <time>2023-07-30T07:32:00.000Z</time>
      </trkpt>
      <trkpt lat="43.76021" lon="7.0724">
        <ele>965.20001220703</ele>
        <time>2023-07-30T07:32:01.000Z</time>
      </trkpt>
      <trkpt lat="43.76019" lon="7.0724">
        <ele>965.20001220703</ele>
        <time>2023-07-30T07:32:02.000Z</time>
      </trkpt>
      <trkpt lat="43.76017" lon="7.0724">
        <ele>965.59997558594</ele>
        <time>2023-07-30T07:32:03.000Z</time>
      </trkpt>
      <trkpt lat="43.76016" lon="7.0724">
        <ele>965.79998779297</ele>
        <time>2023-07-30T07:32:04.000Z</time>
      </trkpt>
      <trkpt lat="43.76014" lon="7.07238">
        <ele>965.79998779297</ele>
        <time>2023-07-30T07:32:05.000Z</time>
      </trkpt>
      <trkpt lat="43.76012" lon="7.07236">
        <ele>966</ele>
        <time>2023-07-30T07:32:06.000Z</time>
      </trkpt>
      <trkpt lat="43.76011" lon="7.07234">
        <ele>966.40002441406</ele>
        <time>2023-07-30T07:32:07.000Z</time>
      </trkpt>
      <trkpt lat="43.76009" lon="7.07232">
        <ele>966.40002441406</ele>
        <time>2023-07-30T07:32:08.000Z</time>
      </trkpt>
      <trkpt lat="43.76009" lon="7.0723">
        <ele>966.59997558594</ele>
        <time>2023-07-30T07:32:09.000Z</time>
      </trkpt>
      <trkpt lat="43.76008" lon="7.07227">
        <ele>966.59997558594</ele>
        <time>2023-07-30T07:32:10.000Z</time>
      </trkpt>
      <trkpt lat="43.76008" lon="7.07223">
        <ele>966.59997558594</ele>
        <time>2023-07-30T07:32:11.000Z</time>
      </trkpt>
      <trkpt lat="43.76009" lon="7.0722">
        <ele>966.59997558594</ele>
        <time>2023-07-30T07:32:12.000Z</time>
      </trkpt>
      <trkpt lat="43.76009" lon="7.07217">
        <ele>966.59997558594</ele>
        <time>2023-07-30T07:32:13.000Z</time>
      </trkpt>
      <trkpt lat="43.7601" lon="7.07214">
        <ele>966.59997558594</ele>
        <time>2023-07-30T07:32:14.000Z</time>
      </trkpt>
      <trkpt lat="43.7601" lon="7.07211">
        <ele>966.59997558594</ele>
        <time>2023-07-30T07:32:15.000Z</time>
      </trkpt>
      <trkpt lat="43.7601" lon="7.07208">
        <ele>966.59997558594</ele>
        <time>2023-07-30T07:32:16.000Z</time>
      </trkpt>
      <trkpt lat="43.7601" lon="7.07205">
        <ele>966.40002441406</ele>
        <time>2023-07-30T07:32:17.000Z</time>
      </trkpt>
      <trkpt lat="43.7601" lon="7.07202">
        <ele>966.40002441406</ele>
        <time>2023-07-30T07:32:18.000Z</time>
      </trkpt>
      <trkpt lat="43.7601" lon="7.07199">
        <ele>966.40002441406</ele>
        <time>2023-07-30T07:32:19.000Z</time>
      </trkpt>
      <trkpt lat="43.7601" lon="7.07196">
        <ele>966.40002441406</ele>
        <time>2023-07-30T07:32:20.000Z</time>
      </trkpt>
      <trkpt lat="43.76009" lon="7.07194">
        <ele>966.40002441406</ele>
        <time>2023-07-30T07:32:21.000Z</time>
      </trkpt>
      <trkpt lat="43.76007" lon="7.07192">
        <ele>966.40002441406</ele>
        <time>2023-07-30T07:32:22.000Z</time>
      </trkpt>
      <trkpt lat="43.76005" lon="7.0719">
        <ele>966.40002441406</ele>
        <time>2023-07-30T07:32:23.000Z</time>
      </trkpt>
      <trkpt lat="43.76004" lon="7.07189">
        <ele>966.40002441406</ele>
        <time>2023-07-30T07:32:24.000Z</time>
      </trkpt>
      <trkpt lat="43.76002" lon="7.07186">
        <ele>966.40002441406</ele>
        <time>2023-07-30T07:32:25.000Z</time>
      </trkpt>
      <trkpt lat="43.76001" lon="7.07185">
        <ele>966.59997558594</ele>
        <time>2023-07-30T07:32:26.000Z</time>
      </trkpt>
      <trkpt lat="43.75999" lon="7.07184">
        <ele>966.59997558594</ele>
        <time>2023-07-30T07:32:27.000Z</time>
      </trkpt>
      <trkpt lat="43.75997" lon="7.07182">
        <ele>966.79998779297</ele>
        <time>2023-07-30T07:32:28.000Z</time>
      </trkpt>
      <trkpt lat="43.75996" lon="7.07181">
        <ele>966.79998779297</ele>
        <time>2023-07-30T07:32:29.000Z</time>
      </trkpt>
      <trkpt lat="43.75994" lon="7.07179">
        <ele>967</ele>
        <time>2023-07-30T07:32:30.000Z</time>
      </trkpt>
      <trkpt lat="43.75992" lon="7.07178">
        <ele>967.20001220703</ele>
        <time>2023-07-30T07:32:31.000Z</time>
      </trkpt>
      <trkpt lat="43.75989" lon="7.07177">
        <ele>967.20001220703</ele>
        <time>2023-07-30T07:32:32.000Z</time>
      </trkpt>
      <trkpt lat="43.75988" lon="7.07176">
        <ele>967.40002441406</ele>
        <time>2023-07-30T07:32:33.000Z</time>
      </trkpt>
      <trkpt lat="43.75985" lon="7.07174">
        <ele>967.40002441406</ele>
        <time>2023-07-30T07:32:34.000Z</time>
      </trkpt>
      <trkpt lat="43.75984" lon="7.07173">
        <ele>967.40002441406</ele>
        <time>2023-07-30T07:32:35.000Z</time>
      </trkpt>
      <trkpt lat="43.75981" lon="7.07171">
        <ele>967.59997558594</ele>
        <time>2023-07-30T07:32:36.000Z</time>
      </trkpt>
      <trkpt lat="43.75979" lon="7.0717">
        <ele>967.79998779297</ele>
        <time>2023-07-30T07:32:37.000Z</time>
      </trkpt>
      <trkpt lat="43.75977" lon="7.07168">
        <ele>968</ele>
        <time>2023-07-30T07:32:38.000Z</time>
      </trkpt>
      <trkpt lat="43.75975" lon="7.07167">
        <ele>968</ele>
        <time>2023-07-30T07:32:39.000Z</time>
      </trkpt>
      <trkpt lat="43.75973" lon="7.07167">
        <ele>968.20001220703</ele>
        <time>2023-07-30T07:32:40.000Z</time>
      </trkpt>
      <trkpt lat="43.7597" lon="7.07166">
        <ele>968.20001220703</ele>
        <time>2023-07-30T07:32:41.000Z</time>
      </trkpt>
      <trkpt lat="43.75968" lon="7.07165">
        <ele>968.40002441406</ele>
        <time>2023-07-30T07:32:42.000Z</time>
      </trkpt>
      <trkpt lat="43.75966" lon="7.07164">
        <ele>968.40002441406</ele>
        <time>2023-07-30T07:32:43.000Z</time>
      </trkpt>
      <trkpt lat="43.75963" lon="7.07163">
        <ele>968.59997558594</ele>
        <time>2023-07-30T07:32:44.000Z</time>
      </trkpt>
      <trkpt lat="43.75962" lon="7.07161">
        <ele>968.59997558594</ele>
        <time>2023-07-30T07:32:45.000Z</time>
      </trkpt>
      <trkpt lat="43.7596" lon="7.07159">
        <ele>969</ele>
        <time>2023-07-30T07:32:46.000Z</time>
      </trkpt>
      <trkpt lat="43.75959" lon="7.07156">
        <ele>969</ele>
        <time>2023-07-30T07:32:47.000Z</time>
      </trkpt>
      <trkpt lat="43.75958" lon="7.07153">
        <ele>969</ele>
        <time>2023-07-30T07:32:48.000Z</time>
      </trkpt>
      <trkpt lat="43.75957" lon="7.0715">
        <ele>969</ele>
        <time>2023-07-30T07:32:49.000Z</time>
      </trkpt>
      <trkpt lat="43.75955" lon="7.07146">
        <ele>969</ele>
        <time>2023-07-30T07:32:50.000Z</time>
      </trkpt>
      <trkpt lat="43.75953" lon="7.07143">
        <ele>969</ele>
        <time>2023-07-30T07:32:51.000Z</time>
      </trkpt>
      <trkpt lat="43.75951" lon="7.0714">
        <ele>969</ele>
        <time>2023-07-30T07:32:52.000Z</time>
      </trkpt>
      <trkpt lat="43.75949" lon="7.07136">
        <ele>969</ele>
        <time>2023-07-30T07:32:53.000Z</time>
      </trkpt>
      <trkpt lat="43.75947" lon="7.07133">
        <ele>968.79998779297</ele>
        <time>2023-07-30T07:32:54.000Z</time>
      </trkpt>
      <trkpt lat="43.75946" lon="7.0713">
        <ele>968.79998779297</ele>
        <time>2023-07-30T07:32:55.000Z</time>
      </trkpt>
      <trkpt lat="43.75945" lon="7.07126">
        <ele>968.79998779297</ele>
        <time>2023-07-30T07:32:56.000Z</time>
      </trkpt>
      <trkpt lat="43.75944" lon="7.07123">
        <ele>968.79998779297</ele>
        <time>2023-07-30T07:32:57.000Z</time>
      </trkpt>
      <trkpt lat="43.75943" lon="7.07119">
        <ele>968.79998779297</ele>
        <time>2023-07-30T07:32:58.000Z</time>
      </trkpt>
      <trkpt lat="43.75941" lon="7.07115">
        <ele>968.79998779297</ele>
        <time>2023-07-30T07:32:59.000Z</time>
      </trkpt>
      <trkpt lat="43.7594" lon="7.07111">
        <ele>968.79998779297</ele>
        <time>2023-07-30T07:33:00.000Z</time>
      </trkpt>
      <trkpt lat="43.75939" lon="7.07108">
        <ele>968.79998779297</ele>
        <time>2023-07-30T07:33:01.000Z</time>
      </trkpt>
      <trkpt lat="43.75938" lon="7.07104">
        <ele>968.59997558594</ele>
        <time>2023-07-30T07:33:02.000Z</time>
      </trkpt>
      <trkpt lat="43.75936" lon="7.07101">
        <ele>968.59997558594</ele>
        <time>2023-07-30T07:33:03.000Z</time>
      </trkpt>
      <trkpt lat="43.75934" lon="7.07097">
        <ele>968.59997558594</ele>
        <time>2023-07-30T07:33:04.000Z</time>
      </trkpt>
      <trkpt lat="43.75933" lon="7.07094">
        <ele>968.59997558594</ele>
        <time>2023-07-30T07:33:05.000Z</time>
      </trkpt>
      <trkpt lat="43.75932" lon="7.0709">
        <ele>968.59997558594</ele>
        <time>2023-07-30T07:33:06.000Z</time>
      </trkpt>
      <trkpt lat="43.7593" lon="7.07087">
        <ele>968.59997558594</ele>
        <time>2023-07-30T07:33:07.000Z</time>
      </trkpt>
      <trkpt lat="43.75928" lon="7.07083">
        <ele>968.59997558594</ele>
        <time>2023-07-30T07:33:08.000Z</time>
      </trkpt>
      <trkpt lat="43.75927" lon="7.0708">
        <ele>968.79998779297</ele>
        <time>2023-07-30T07:33:09.000Z</time>
      </trkpt>
      <trkpt lat="43.75926" lon="7.07077">
        <ele>968.79998779297</ele>
        <time>2023-07-30T07:33:10.000Z</time>
      </trkpt>
      <trkpt lat="43.75924" lon="7.07075">
        <ele>968.79998779297</ele>
        <time>2023-07-30T07:33:11.000Z</time>
      </trkpt>
      <trkpt lat="43.75924" lon="7.07072">
        <ele>968.79998779297</ele>
        <time>2023-07-30T07:33:12.000Z</time>
      </trkpt>
      <trkpt lat="43.75923" lon="7.07069">
        <ele>968.79998779297</ele>
        <time>2023-07-30T07:33:13.000Z</time>
      </trkpt>
      <trkpt lat="43.75923" lon="7.07065">
        <ele>968.79998779297</ele>
        <time>2023-07-30T07:33:14.000Z</time>
      </trkpt>
      <trkpt lat="43.75923" lon="7.07061">
        <ele>968.40002441406</ele>
        <time>2023-07-30T07:33:15.000Z</time>
      </trkpt>
      <trkpt lat="43.75924" lon="7.07057">
        <ele>968.40002441406</ele>
        <time>2023-07-30T07:33:16.000Z</time>
      </trkpt>
      <trkpt lat="43.75925" lon="7.07053">
        <ele>968.40002441406</ele>
        <time>2023-07-30T07:33:17.000Z</time>
      </trkpt>
      <trkpt lat="43.75925" lon="7.07049">
        <ele>968.40002441406</ele>
        <time>2023-07-30T07:33:18.000Z</time>
      </trkpt>
      <trkpt lat="43.75926" lon="7.07044">
        <ele>967.20001220703</ele>
        <time>2023-07-30T07:33:19.000Z</time>
      </trkpt>
      <trkpt lat="43.75928" lon="7.0704">
        <ele>967.20001220703</ele>
        <time>2023-07-30T07:33:20.000Z</time>
      </trkpt>
      <trkpt lat="43.75931" lon="7.07038">
        <ele>967</ele>
        <time>2023-07-30T07:33:21.000Z</time>
      </trkpt>
      <trkpt lat="43.75934" lon="7.07036">
        <ele>966.59997558594</ele>
        <time>2023-07-30T07:33:22.000Z</time>
      </trkpt>
      <trkpt lat="43.75936" lon="7.07034">
        <ele>966.59997558594</ele>
        <time>2023-07-30T07:33:23.000Z</time>
      </trkpt>
      <trkpt lat="43.75939" lon="7.07031">
        <ele>966.59997558594</ele>
        <time>2023-07-30T07:33:24.000Z</time>
      </trkpt>
      <trkpt lat="43.75939" lon="7.07029">
        <ele>966.59997558594</ele>
        <time>2023-07-30T07:33:25.000Z</time>
      </trkpt>
      <trkpt lat="43.75939" lon="7.07026">
        <ele>966.59997558594</ele>
        <time>2023-07-30T07:33:26.000Z</time>
      </trkpt>
      <trkpt lat="43.75937" lon="7.07025">
        <ele>966.59997558594</ele>
        <time>2023-07-30T07:33:27.000Z</time>
      </trkpt>
      <trkpt lat="43.75938" lon="7.07024">
        <ele>966.59997558594</ele>
        <time>2023-07-30T07:33:28.000Z</time>
      </trkpt>
      <trkpt lat="43.75938" lon="7.07024">
        <ele>966.59997558594</ele>
        <time>2023-07-30T07:33:29.000Z</time>
      </trkpt>
      <trkpt lat="43.75938" lon="7.07024">
        <ele>966.79998779297</ele>
        <time>2023-07-30T07:33:30.000Z</time>
      </trkpt>
      <trkpt lat="43.75938" lon="7.07024">
        <ele>967.20001220703</ele>
        <time>2023-07-30T07:33:31.000Z</time>
      </trkpt>
      <trkpt lat="43.75937" lon="7.07024">
        <ele>967.40002441406</ele>
        <time>2023-07-30T07:33:32.000Z</time>
      </trkpt>
      <trkpt lat="43.75936" lon="7.07025">
        <ele>967.59997558594</ele>
        <time>2023-07-30T07:33:33.000Z</time>
      </trkpt>
      <trkpt lat="43.75936" lon="7.07024">
        <ele>967.59997558594</ele>
        <time>2023-07-30T07:33:34.000Z</time>
      </trkpt>
      <trkpt lat="43.75935" lon="7.07024">
        <ele>967.59997558594</ele>
        <time>2023-07-30T07:33:35.000Z</time>
      </trkpt>
      <trkpt lat="43.75935" lon="7.07024">
        <ele>967.59997558594</ele>
        <time>2023-07-30T07:33:36.000Z</time>
      </trkpt>
      <trkpt lat="43.75934" lon="7.07023">
        <ele>967.79998779297</ele>
        <time>2023-07-30T07:33:37.000Z</time>
      </trkpt>
      <trkpt lat="43.75934" lon="7.07023">
        <ele>968</ele>
        <time>2023-07-30T07:33:38.000Z</time>
      </trkpt>
      <trkpt lat="43.75933" lon="7.07023">
        <ele>968.20001220703</ele>
        <time>2023-07-30T07:33:39.000Z</time>
      </trkpt>
      <trkpt lat="43.75933" lon="7.07023">
        <ele>968.20001220703</ele>
        <time>2023-07-30T07:33:40.000Z</time>
      </trkpt>
      <trkpt lat="43.75932" lon="7.07022">
        <ele>968.40002441406</ele>
        <time>2023-07-30T07:33:41.000Z</time>
      </trkpt>
      <trkpt lat="43.75931" lon="7.07021">
        <ele>968.59997558594</ele>
        <time>2023-07-30T07:33:42.000Z</time>
      </trkpt>
      <trkpt lat="43.75931" lon="7.0702">
        <ele>968.79998779297</ele>
        <time>2023-07-30T07:33:43.000Z</time>
      </trkpt>
      <trkpt lat="43.7593" lon="7.0702">
        <ele>968.79998779297</ele>
        <time>2023-07-30T07:33:44.000Z</time>
      </trkpt>
      <trkpt lat="43.7593" lon="7.07019">
        <ele>969</ele>
        <time>2023-07-30T07:33:45.000Z</time>
      </trkpt>
      <trkpt lat="43.75929" lon="7.07019">
        <ele>969</ele>
        <time>2023-07-30T07:33:46.000Z</time>
      </trkpt>
      <trkpt lat="43.75928" lon="7.07019">
        <ele>969.20001220703</ele>
        <time>2023-07-30T07:33:47.000Z</time>
      </trkpt>
      <trkpt lat="43.75928" lon="7.07019">
        <ele>969.40002441406</ele>
        <time>2023-07-30T07:33:48.000Z</time>
      </trkpt>
      <trkpt lat="43.75927" lon="7.07018">
        <ele>969.40002441406</ele>
        <time>2023-07-30T07:33:49.000Z</time>
      </trkpt>
      <trkpt lat="43.75927" lon="7.07018">
        <ele>969.40002441406</ele>
        <time>2023-07-30T07:33:50.000Z</time>
      </trkpt>
      <trkpt lat="43.75926" lon="7.07018">
        <ele>969.59997558594</ele>
        <time>2023-07-30T07:33:51.000Z</time>
      </trkpt>
      <trkpt lat="43.75925" lon="7.07018">
        <ele>969.59997558594</ele>
        <time>2023-07-30T07:33:52.000Z</time>
      </trkpt>
      <trkpt lat="43.75925" lon="7.07017">
        <ele>969.79998779297</ele>
        <time>2023-07-30T07:33:53.000Z</time>
      </trkpt>
      <trkpt lat="43.75924" lon="7.07017">
        <ele>969.79998779297</ele>
        <time>2023-07-30T07:33:54.000Z</time>
      </trkpt>
      <trkpt lat="43.75924" lon="7.07017">
        <ele>970</ele>
        <time>2023-07-30T07:33:55.000Z</time>
      </trkpt>
      <trkpt lat="43.75923" lon="7.07016">
        <ele>970</ele>
        <time>2023-07-30T07:33:56.000Z</time>
      </trkpt>
      <trkpt lat="43.75922" lon="7.07016">
        <ele>970.20001220703</ele>
        <time>2023-07-30T07:33:57.000Z</time>
      </trkpt>
      <trkpt lat="43.75922" lon="7.07016">
        <ele>970.20001220703</ele>
        <time>2023-07-30T07:33:58.000Z</time>
      </trkpt>
      <trkpt lat="43.75921" lon="7.07015">
        <ele>970.40002441406</ele>
        <time>2023-07-30T07:33:59.000Z</time>
      </trkpt>
      <trkpt lat="43.75921" lon="7.07015">
        <ele>970.40002441406</ele>
        <time>2023-07-30T07:34:00.000Z</time>
      </trkpt>
      <trkpt lat="43.7592" lon="7.07015">
        <ele>970.40002441406</ele>
        <time>2023-07-30T07:34:01.000Z</time>
      </trkpt>
      <trkpt lat="43.7592" lon="7.07014">
        <ele>970.40002441406</ele>
        <time>2023-07-30T07:34:02.000Z</time>
      </trkpt>
      <trkpt lat="43.7592" lon="7.07015">
        <ele>970.59997558594</ele>
        <time>2023-07-30T07:34:03.000Z</time>
      </trkpt>
      <trkpt lat="43.7592" lon="7.07014">
        <ele>970.59997558594</ele>
        <time>2023-07-30T07:34:04.000Z</time>
      </trkpt>
      <trkpt lat="43.7592" lon="7.07015">
        <ele>970.59997558594</ele>
        <time>2023-07-30T07:34:05.000Z</time>
      </trkpt>
      <trkpt lat="43.7592" lon="7.07014">
        <ele>970.59997558594</ele>
        <time>2023-07-30T07:34:06.000Z</time>
      </trkpt>
      <trkpt lat="43.7592" lon="7.07015">
        <ele>970.79998779297</ele>
        <time>2023-07-30T07:34:07.000Z</time>
      </trkpt>
      <trkpt lat="43.75918" lon="7.07014">
        <ele>970.79998779297</ele>
        <time>2023-07-30T07:34:08.000Z</time>
      </trkpt>
      <trkpt lat="43.75917" lon="7.07014">
        <ele>970.79998779297</ele>
        <time>2023-07-30T07:34:09.000Z</time>
      </trkpt>
      <trkpt lat="43.75915" lon="7.07013">
        <ele>970.79998779297</ele>
        <time>2023-07-30T07:34:10.000Z</time>
      </trkpt>
      <trkpt lat="43.75914" lon="7.07012">
        <ele>970.79998779297</ele>
        <time>2023-07-30T07:34:11.000Z</time>
      </trkpt>
      <trkpt lat="43.75913" lon="7.07009">
        <ele>970.79998779297</ele>
        <time>2023-07-30T07:34:12.000Z</time>
      </trkpt>
      <trkpt lat="43.75913" lon="7.07007">
        <ele>971</ele>
        <time>2023-07-30T07:34:13.000Z</time>
      </trkpt>
      <trkpt lat="43.75913" lon="7.07005">
        <ele>971</ele>
        <time>2023-07-30T07:34:14.000Z</time>
      </trkpt>
      <trkpt lat="43.75913" lon="7.07005">
        <ele>971</ele>
        <time>2023-07-30T07:34:15.000Z</time>
      </trkpt>
      <trkpt lat="43.75913" lon="7.07005">
        <ele>971.20001220703</ele>
        <time>2023-07-30T07:34:16.000Z</time>
      </trkpt>
      <trkpt lat="43.75913" lon="7.07006">
        <ele>971.20001220703</ele>
        <time>2023-07-30T07:34:17.000Z</time>
      </trkpt>
      <trkpt lat="43.75913" lon="7.07006">
        <ele>971.20001220703</ele>
        <time>2023-07-30T07:34:18.000Z</time>
      </trkpt>
      <trkpt lat="43.75913" lon="7.07006">
        <ele>971.20001220703</ele>
        <time>2023-07-30T07:34:19.000Z</time>
      </trkpt>
      <trkpt lat="43.75913" lon="7.07006">
        <ele>971.20001220703</ele>
        <time>2023-07-30T07:34:20.000Z</time>
      </trkpt>
      <trkpt lat="43.75913" lon="7.07006">
        <ele>971.20001220703</ele>
        <time>2023-07-30T07:34:21.000Z</time>
      </trkpt>
      <trkpt lat="43.75913" lon="7.07006">
        <ele>971.20001220703</ele>
        <time>2023-07-30T07:34:22.000Z</time>
      </trkpt>
      <trkpt lat="43.75913" lon="7.07006">
        <ele>971.20001220703</ele>
        <time>2023-07-30T07:34:23.000Z</time>
      </trkpt>
      <trkpt lat="43.75913" lon="7.07006">
        <ele>971.40002441406</ele>
        <time>2023-07-30T07:34:24.000Z</time>
      </trkpt>
      <trkpt lat="43.75913" lon="7.07006">
        <ele>971.40002441406</ele>
        <time>2023-07-30T07:34:25.000Z</time>
      </trkpt>
      <trkpt lat="43.75913" lon="7.07006">
        <ele>971.40002441406</ele>
        <time>2023-07-30T07:34:26.000Z</time>
      </trkpt>
      <trkpt lat="43.75913" lon="7.07006">
        <ele>971.40002441406</ele>
        <time>2023-07-30T07:34:27.000Z</time>
      </trkpt>
      <trkpt lat="43.75913" lon="7.07006">
        <ele>971.40002441406</ele>
        <time>2023-07-30T07:34:28.000Z</time>
      </trkpt>
      <trkpt lat="43.75913" lon="7.07006">
        <ele>971.40002441406</ele>
        <time>2023-07-30T07:34:29.000Z</time>
      </trkpt>
      <trkpt lat="43.75912" lon="7.07006">
        <ele>971.40002441406</ele>
        <time>2023-07-30T07:34:30.000Z</time>
      </trkpt>
      <trkpt lat="43.75913" lon="7.07006">
        <ele>971.40002441406</ele>
        <time>2023-07-30T07:34:31.000Z</time>
      </trkpt>
      <trkpt lat="43.75913" lon="7.07006">
        <ele>971.40002441406</ele>
        <time>2023-07-30T07:34:32.000Z</time>
      </trkpt>
      <trkpt lat="43.75913" lon="7.07006">
        <ele>971.40002441406</ele>
        <time>2023-07-30T07:34:33.000Z</time>
      </trkpt>
      <trkpt lat="43.75913" lon="7.07006">
        <ele>971.40002441406</ele>
        <time>2023-07-30T07:34:34.000Z</time>
      </trkpt>
      <trkpt lat="43.75913" lon="7.07006">
        <ele>971.40002441406</ele>
        <time>2023-07-30T07:34:35.000Z</time>
      </trkpt>
      <trkpt lat="43.75913" lon="7.07006">
        <ele>971.40002441406</ele>
        <time>2023-07-30T07:34:36.000Z</time>
      </trkpt>
      <trkpt lat="43.75913" lon="7.07006">
        <ele>971.40002441406</ele>
        <time>2023-07-30T07:34:37.000Z</time>
      </trkpt>
      <trkpt lat="43.75913" lon="7.07006">
        <ele>971.40002441406</ele>
        <time>2023-07-30T07:34:38.000Z</time>
      </trkpt>
      <trkpt lat="43.75913" lon="7.07005">
        <ele>971.40002441406</ele>
        <time>2023-07-30T07:34:39.000Z</time>
      </trkpt>
      <trkpt lat="43.75913" lon="7.07006">
        <ele>971.40002441406</ele>
        <time>2023-07-30T07:34:40.000Z</time>
      </trkpt>
      <trkpt lat="43.75913" lon="7.07005">
        <ele>971.40002441406</ele>
        <time>2023-07-30T07:34:41.000Z</time>
      </trkpt>
      <trkpt lat="43.75913" lon="7.07005">
        <ele>971.40002441406</ele>
        <time>2023-07-30T07:34:42.000Z</time>
      </trkpt>
      <trkpt lat="43.75913" lon="7.07005">
        <ele>971.40002441406</ele>
        <time>2023-07-30T07:34:43.000Z</time>
      </trkpt>
      <trkpt lat="43.75913" lon="7.07006">
        <ele>971.20001220703</ele>
        <time>2023-07-30T07:34:44.000Z</time>
      </trkpt>
      <trkpt lat="43.75912" lon="7.07006">
        <ele>971.20001220703</ele>
        <time>2023-07-30T07:34:45.000Z</time>
      </trkpt>
      <trkpt lat="43.75912" lon="7.07006">
        <ele>971</ele>
        <time>2023-07-30T07:34:46.000Z</time>
      </trkpt>
      <trkpt lat="43.75912" lon="7.07006">
        <ele>971</ele>
        <time>2023-07-30T07:34:47.000Z</time>
      </trkpt>
      <trkpt lat="43.75912" lon="7.07006">
        <ele>971</ele>
        <time>2023-07-30T07:34:48.000Z</time>
      </trkpt>
      <trkpt lat="43.75912" lon="7.07006">
        <ele>970.79998779297</ele>
        <time>2023-07-30T07:34:49.000Z</time>
      </trkpt>
      <trkpt lat="43.75912" lon="7.07006">
        <ele>971</ele>
        <time>2023-07-30T07:34:50.000Z</time>
      </trkpt>
      <trkpt lat="43.75912" lon="7.07006">
        <ele>971</ele>
        <time>2023-07-30T07:34:51.000Z</time>
      </trkpt>
      <trkpt lat="43.75912" lon="7.07006">
        <ele>971.40002441406</ele>
        <time>2023-07-30T07:34:52.000Z</time>
      </trkpt>
      <trkpt lat="43.75912" lon="7.07006">
        <ele>971.40002441406</ele>
        <time>2023-07-30T07:34:53.000Z</time>
      </trkpt>
      <trkpt lat="43.75912" lon="7.07006">
        <ele>971.40002441406</ele>
        <time>2023-07-30T07:34:54.000Z</time>
      </trkpt>
      <trkpt lat="43.75912" lon="7.07006">
        <ele>971.40002441406</ele>
        <time>2023-07-30T07:34:55.000Z</time>
      </trkpt>
      <trkpt lat="43.75912" lon="7.07006">
        <ele>971.40002441406</ele>
        <time>2023-07-30T07:34:56.000Z</time>
      </trkpt>
      <trkpt lat="43.75912" lon="7.07006">
        <ele>971.40002441406</ele>
        <time>2023-07-30T07:34:57.000Z</time>
      </trkpt>
      <trkpt lat="43.75912" lon="7.07006">
        <ele>971.40002441406</ele>
        <time>2023-07-30T07:34:58.000Z</time>
      </trkpt>
      <trkpt lat="43.75913" lon="7.07005">
        <ele>971.40002441406</ele>
        <time>2023-07-30T07:34:59.000Z</time>
      </trkpt>
      <trkpt lat="43.75913" lon="7.07002">
        <ele>971.40002441406</ele>
        <time>2023-07-30T07:35:00.000Z</time>
      </trkpt>
      <trkpt lat="43.75914" lon="7.07001">
        <ele>971.40002441406</ele>
        <time>2023-07-30T07:35:01.000Z</time>
      </trkpt>
      <trkpt lat="43.75916" lon="7.07">
        <ele>971.59997558594</ele>
        <time>2023-07-30T07:35:02.000Z</time>
      </trkpt>
      <trkpt lat="43.75918" lon="7.06999">
        <ele>971.59997558594</ele>
        <time>2023-07-30T07:35:03.000Z</time>
      </trkpt>
      <trkpt lat="43.7592" lon="7.06997">
        <ele>971.59997558594</ele>
        <time>2023-07-30T07:35:04.000Z</time>
      </trkpt>
      <trkpt lat="43.75921" lon="7.06994">
        <ele>971.59997558594</ele>
        <time>2023-07-30T07:35:05.000Z</time>
      </trkpt>
      <trkpt lat="43.75922" lon="7.06991">
        <ele>971.40002441406</ele>
        <time>2023-07-30T07:35:06.000Z</time>
      </trkpt>
      <trkpt lat="43.75923" lon="7.06988">
        <ele>971.40002441406</ele>
        <time>2023-07-30T07:35:07.000Z</time>
      </trkpt>
      <trkpt lat="43.75923" lon="7.06984">
        <ele>971.40002441406</ele>
        <time>2023-07-30T07:35:08.000Z</time>
      </trkpt>
      <trkpt lat="43.75923" lon="7.06981">
        <ele>971.40002441406</ele>
        <time>2023-07-30T07:35:09.000Z</time>
      </trkpt>
      <trkpt lat="43.75924" lon="7.06976">
        <ele>971.20001220703</ele>
        <time>2023-07-30T07:35:10.000Z</time>
      </trkpt>
      <trkpt lat="43.75924" lon="7.06973">
        <ele>971</ele>
        <time>2023-07-30T07:35:11.000Z</time>
      </trkpt>
      <trkpt lat="43.75925" lon="7.0697">
        <ele>970.79998779297</ele>
        <time>2023-07-30T07:35:12.000Z</time>
      </trkpt>
      <trkpt lat="43.75925" lon="7.06966">
        <ele>970.79998779297</ele>
        <time>2023-07-30T07:35:13.000Z</time>
      </trkpt>
      <trkpt lat="43.75923" lon="7.06962">
        <ele>970.40002441406</ele>
        <time>2023-07-30T07:35:14.000Z</time>
      </trkpt>
      <trkpt lat="43.75922" lon="7.06959">
        <ele>970</ele>
        <time>2023-07-30T07:35:15.000Z</time>
      </trkpt>
      <trkpt lat="43.75921" lon="7.06956">
        <ele>969.59997558594</ele>
        <time>2023-07-30T07:35:16.000Z</time>
      </trkpt>
      <trkpt lat="43.7592" lon="7.06951">
        <ele>969.59997558594</ele>
        <time>2023-07-30T07:35:17.000Z</time>
      </trkpt>
      <trkpt lat="43.7592" lon="7.06947">
        <ele>969.59997558594</ele>
        <time>2023-07-30T07:35:18.000Z</time>
      </trkpt>
      <trkpt lat="43.7592" lon="7.06942">
        <ele>969.59997558594</ele>
        <time>2023-07-30T07:35:19.000Z</time>
      </trkpt>
      <trkpt lat="43.75918" lon="7.06937">
        <ele>969.40002441406</ele>
        <time>2023-07-30T07:35:20.000Z</time>
      </trkpt>
      <trkpt lat="43.75916" lon="7.06934">
        <ele>969.40002441406</ele>
        <time>2023-07-30T07:35:21.000Z</time>
      </trkpt>
      <trkpt lat="43.75912" lon="7.06933">
        <ele>969.20001220703</ele>
        <time>2023-07-30T07:35:22.000Z</time>
      </trkpt>
      <trkpt lat="43.7591" lon="7.06932">
        <ele>969.20001220703</ele>
        <time>2023-07-30T07:35:23.000Z</time>
      </trkpt>
      <trkpt lat="43.75907" lon="7.06932">
        <ele>969</ele>
        <time>2023-07-30T07:35:24.000Z</time>
      </trkpt>
      <trkpt lat="43.75905" lon="7.06933">
        <ele>969</ele>
        <time>2023-07-30T07:35:25.000Z</time>
      </trkpt>
      <trkpt lat="43.75902" lon="7.06934">
        <ele>969</ele>
        <time>2023-07-30T07:35:26.000Z</time>
      </trkpt>
      <trkpt lat="43.759" lon="7.06933">
        <ele>969</ele>
        <time>2023-07-30T07:35:27.000Z</time>
      </trkpt>
      <trkpt lat="43.75898" lon="7.06932">
        <ele>969</ele>
        <time>2023-07-30T07:35:28.000Z</time>
      </trkpt>
      <trkpt lat="43.75896" lon="7.06931">
        <ele>969.20001220703</ele>
        <time>2023-07-30T07:35:29.000Z</time>
      </trkpt>
      <trkpt lat="43.75894" lon="7.06929">
        <ele>969.20001220703</ele>
        <time>2023-07-30T07:35:30.000Z</time>
      </trkpt>
      <trkpt lat="43.75891" lon="7.06928">
        <ele>969.40002441406</ele>
        <time>2023-07-30T07:35:31.000Z</time>
      </trkpt>
      <trkpt lat="43.75888" lon="7.06927">
        <ele>969.40002441406</ele>
        <time>2023-07-30T07:35:32.000Z</time>
      </trkpt>
      <trkpt lat="43.75886" lon="7.06927">
        <ele>969.59997558594</ele>
        <time>2023-07-30T07:35:33.000Z</time>
      </trkpt>
      <trkpt lat="43.75883" lon="7.06926">
        <ele>969.40002441406</ele>
        <time>2023-07-30T07:35:34.000Z</time>
      </trkpt>
      <trkpt lat="43.75881" lon="7.06925">
        <ele>969.40002441406</ele>
        <time>2023-07-30T07:35:35.000Z</time>
      </trkpt>
      <trkpt lat="43.75879" lon="7.06924">
        <ele>969.40002441406</ele>
        <time>2023-07-30T07:35:36.000Z</time>
      </trkpt>
      <trkpt lat="43.75877" lon="7.06923">
        <ele>969.40002441406</ele>
        <time>2023-07-30T07:35:37.000Z</time>
      </trkpt>
      <trkpt lat="43.75874" lon="7.06921">
        <ele>969.40002441406</ele>
        <time>2023-07-30T07:35:38.000Z</time>
      </trkpt>
      <trkpt lat="43.75872" lon="7.06919">
        <ele>969.20001220703</ele>
        <time>2023-07-30T07:35:39.000Z</time>
      </trkpt>
      <trkpt lat="43.75869" lon="7.06919">
        <ele>969.20001220703</ele>
        <time>2023-07-30T07:35:40.000Z</time>
      </trkpt>
      <trkpt lat="43.75867" lon="7.06918">
        <ele>969.20001220703</ele>
        <time>2023-07-30T07:35:41.000Z</time>
      </trkpt>
      <trkpt lat="43.75865" lon="7.06918">
        <ele>969.20001220703</ele>
        <time>2023-07-30T07:35:42.000Z</time>
      </trkpt>
      <trkpt lat="43.75862" lon="7.06918">
        <ele>969</ele>
        <time>2023-07-30T07:35:43.000Z</time>
      </trkpt>
      <trkpt lat="43.7586" lon="7.06918">
        <ele>969</ele>
        <time>2023-07-30T07:35:44.000Z</time>
      </trkpt>
      <trkpt lat="43.75858" lon="7.06918">
        <ele>969</ele>
        <time>2023-07-30T07:35:45.000Z</time>
      </trkpt>
      <trkpt lat="43.75855" lon="7.06919">
        <ele>969.20001220703</ele>
        <time>2023-07-30T07:35:46.000Z</time>
      </trkpt>
      <trkpt lat="43.75854" lon="7.06921">
        <ele>969</ele>
        <time>2023-07-30T07:35:47.000Z</time>
      </trkpt>
      <trkpt lat="43.75852" lon="7.06922">
        <ele>969.20001220703</ele>
        <time>2023-07-30T07:35:48.000Z</time>
      </trkpt>
      <trkpt lat="43.7585" lon="7.06922">
        <ele>969.20001220703</ele>
        <time>2023-07-30T07:35:49.000Z</time>
      </trkpt>
      <trkpt lat="43.75848" lon="7.06923">
        <ele>969.20001220703</ele>
        <time>2023-07-30T07:35:50.000Z</time>
      </trkpt>
      <trkpt lat="43.75847" lon="7.06923">
        <ele>969.20001220703</ele>
        <time>2023-07-30T07:35:51.000Z</time>
      </trkpt>
      <trkpt lat="43.75844" lon="7.06923">
        <ele>969.20001220703</ele>
        <time>2023-07-30T07:35:52.000Z</time>
      </trkpt>
      <trkpt lat="43.75842" lon="7.06921">
        <ele>969.20001220703</ele>
        <time>2023-07-30T07:35:53.000Z</time>
      </trkpt>
      <trkpt lat="43.75841" lon="7.06919">
        <ele>969.20001220703</ele>
        <time>2023-07-30T07:35:54.000Z</time>
      </trkpt>
      <trkpt lat="43.75839" lon="7.06918">
        <ele>969.20001220703</ele>
        <time>2023-07-30T07:35:55.000Z</time>
      </trkpt>
      <trkpt lat="43.75838" lon="7.06915">
        <ele>969.20001220703</ele>
        <time>2023-07-30T07:35:56.000Z</time>
      </trkpt>
      <trkpt lat="43.75836" lon="7.06913">
        <ele>969.20001220703</ele>
        <time>2023-07-30T07:35:57.000Z</time>
      </trkpt>
      <trkpt lat="43.75835" lon="7.0691">
        <ele>969.20001220703</ele>
        <time>2023-07-30T07:35:58.000Z</time>
      </trkpt>
      <trkpt lat="43.75834" lon="7.06907">
        <ele>969.20001220703</ele>
        <time>2023-07-30T07:35:59.000Z</time>
      </trkpt>
      <trkpt lat="43.75832" lon="7.06905">
        <ele>969.20001220703</ele>
        <time>2023-07-30T07:36:00.000Z</time>
      </trkpt>
      <trkpt lat="43.75831" lon="7.06903">
        <ele>969.20001220703</ele>
        <time>2023-07-30T07:36:01.000Z</time>
      </trkpt>
      <trkpt lat="43.7583" lon="7.069">
        <ele>969</ele>
        <time>2023-07-30T07:36:02.000Z</time>
      </trkpt>
      <trkpt lat="43.75829" lon="7.06898">
        <ele>969</ele>
        <time>2023-07-30T07:36:03.000Z</time>
      </trkpt>
      <trkpt lat="43.75827" lon="7.06896">
        <ele>969</ele>
        <time>2023-07-30T07:36:04.000Z</time>
      </trkpt>
      <trkpt lat="43.75825" lon="7.06893">
        <ele>969</ele>
        <time>2023-07-30T07:36:05.000Z</time>
      </trkpt>
      <trkpt lat="43.75823" lon="7.06891">
        <ele>969</ele>
        <time>2023-07-30T07:36:06.000Z</time>
      </trkpt>
      <trkpt lat="43.7582" lon="7.06888">
        <ele>969</ele>
        <time>2023-07-30T07:36:07.000Z</time>
      </trkpt>
      <trkpt lat="43.75817" lon="7.06886">
        <ele>969</ele>
        <time>2023-07-30T07:36:08.000Z</time>
      </trkpt>
      <trkpt lat="43.75813" lon="7.06882">
        <ele>968.59997558594</ele>
        <time>2023-07-30T07:36:09.000Z</time>
      </trkpt>
      <trkpt lat="43.7581" lon="7.06877">
        <ele>968.59997558594</ele>
        <time>2023-07-30T07:36:10.000Z</time>
      </trkpt>
      <trkpt lat="43.75807" lon="7.06873">
        <ele>968.40002441406</ele>
        <time>2023-07-30T07:36:11.000Z</time>
      </trkpt>
      <trkpt lat="43.75804" lon="7.06871">
        <ele>968.20001220703</ele>
        <time>2023-07-30T07:36:12.000Z</time>
      </trkpt>
      <trkpt lat="43.75801" lon="7.06869">
        <ele>968.20001220703</ele>
        <time>2023-07-30T07:36:13.000Z</time>
      </trkpt>
      <trkpt lat="43.75799" lon="7.06868">
        <ele>968.20001220703</ele>
        <time>2023-07-30T07:36:14.000Z</time>
      </trkpt>
      <trkpt lat="43.75796" lon="7.06867">
        <ele>968.20001220703</ele>
        <time>2023-07-30T07:36:15.000Z</time>
      </trkpt>
      <trkpt lat="43.75794" lon="7.06865">
        <ele>968.20001220703</ele>
        <time>2023-07-30T07:36:16.000Z</time>
      </trkpt>
      <trkpt lat="43.75792" lon="7.06865">
        <ele>968.20001220703</ele>
        <time>2023-07-30T07:36:17.000Z</time>
      </trkpt>
      <trkpt lat="43.7579" lon="7.06864">
        <ele>968.40002441406</ele>
        <time>2023-07-30T07:36:18.000Z</time>
      </trkpt>
      <trkpt lat="43.75789" lon="7.06864">
        <ele>968.79998779297</ele>
        <time>2023-07-30T07:36:19.000Z</time>
      </trkpt>
      <trkpt lat="43.75786" lon="7.06863">
        <ele>968.79998779297</ele>
        <time>2023-07-30T07:36:20.000Z</time>
      </trkpt>
      <trkpt lat="43.75784" lon="7.06864">
        <ele>968.79998779297</ele>
        <time>2023-07-30T07:36:21.000Z</time>
      </trkpt>
      <trkpt lat="43.75782" lon="7.06865">
        <ele>969</ele>
        <time>2023-07-30T07:36:22.000Z</time>
      </trkpt>
      <trkpt lat="43.7578" lon="7.06865">
        <ele>969</ele>
        <time>2023-07-30T07:36:23.000Z</time>
      </trkpt>
      <trkpt lat="43.75777" lon="7.06863">
        <ele>969.20001220703</ele>
        <time>2023-07-30T07:36:24.000Z</time>
      </trkpt>
      <trkpt lat="43.75774" lon="7.06862">
        <ele>969.20001220703</ele>
        <time>2023-07-30T07:36:25.000Z</time>
      </trkpt>
      <trkpt lat="43.75772" lon="7.06861">
        <ele>969.20001220703</ele>
        <time>2023-07-30T07:36:26.000Z</time>
      </trkpt>
      <trkpt lat="43.7577" lon="7.0686">
        <ele>969.40002441406</ele>
        <time>2023-07-30T07:36:27.000Z</time>
      </trkpt>
      <trkpt lat="43.75768" lon="7.06858">
        <ele>969.40002441406</ele>
        <time>2023-07-30T07:36:28.000Z</time>
      </trkpt>
      <trkpt lat="43.75766" lon="7.06857">
        <ele>969.59997558594</ele>
        <time>2023-07-30T07:36:29.000Z</time>
      </trkpt>
      <trkpt lat="43.75763" lon="7.06855">
        <ele>969.59997558594</ele>
        <time>2023-07-30T07:36:30.000Z</time>
      </trkpt>
      <trkpt lat="43.75761" lon="7.06854">
        <ele>969.59997558594</ele>
        <time>2023-07-30T07:36:31.000Z</time>
      </trkpt>
      <trkpt lat="43.75759" lon="7.06853">
        <ele>969.59997558594</ele>
        <time>2023-07-30T07:36:32.000Z</time>
      </trkpt>
      <trkpt lat="43.75757" lon="7.06852">
        <ele>969.59997558594</ele>
        <time>2023-07-30T07:36:33.000Z</time>
      </trkpt>
      <trkpt lat="43.75754" lon="7.06852">
        <ele>969.59997558594</ele>
        <time>2023-07-30T07:36:34.000Z</time>
      </trkpt>
      <trkpt lat="43.75752" lon="7.06851">
        <ele>969.40002441406</ele>
        <time>2023-07-30T07:36:35.000Z</time>
      </trkpt>
      <trkpt lat="43.7575" lon="7.0685">
        <ele>969.40002441406</ele>
        <time>2023-07-30T07:36:36.000Z</time>
      </trkpt>
      <trkpt lat="43.75747" lon="7.0685">
        <ele>969.40002441406</ele>
        <time>2023-07-30T07:36:37.000Z</time>
      </trkpt>
      <trkpt lat="43.75746" lon="7.06849">
        <ele>969.40002441406</ele>
        <time>2023-07-30T07:36:38.000Z</time>
      </trkpt>
      <trkpt lat="43.75744" lon="7.06849">
        <ele>969.40002441406</ele>
        <time>2023-07-30T07:36:39.000Z</time>
      </trkpt>
      <trkpt lat="43.75742" lon="7.06849">
        <ele>969.40002441406</ele>
        <time>2023-07-30T07:36:40.000Z</time>
      </trkpt>
      <trkpt lat="43.75741" lon="7.06849">
        <ele>969.40002441406</ele>
        <time>2023-07-30T07:36:41.000Z</time>
      </trkpt>
      <trkpt lat="43.75739" lon="7.06848">
        <ele>969.20001220703</ele>
        <time>2023-07-30T07:36:42.000Z</time>
      </trkpt>
      <trkpt lat="43.75738" lon="7.06847">
        <ele>969.20001220703</ele>
        <time>2023-07-30T07:36:43.000Z</time>
      </trkpt>
      <trkpt lat="43.75736" lon="7.06846">
        <ele>969.20001220703</ele>
        <time>2023-07-30T07:36:44.000Z</time>
      </trkpt>
      <trkpt lat="43.75734" lon="7.06845">
        <ele>969.20001220703</ele>
        <time>2023-07-30T07:36:45.000Z</time>
      </trkpt>
      <trkpt lat="43.75732" lon="7.06844">
        <ele>969.20001220703</ele>
        <time>2023-07-30T07:36:46.000Z</time>
      </trkpt>
      <trkpt lat="43.75731" lon="7.06843">
        <ele>969</ele>
        <time>2023-07-30T07:36:47.000Z</time>
      </trkpt>
      <trkpt lat="43.7573" lon="7.0684">
        <ele>969</ele>
        <time>2023-07-30T07:36:48.000Z</time>
      </trkpt>
      <trkpt lat="43.75729" lon="7.06838">
        <ele>968.79998779297</ele>
        <time>2023-07-30T07:36:49.000Z</time>
      </trkpt>
      <trkpt lat="43.75727" lon="7.06834">
        <ele>968.79998779297</ele>
        <time>2023-07-30T07:36:50.000Z</time>
      </trkpt>
      <trkpt lat="43.75725" lon="7.0683">
        <ele>968.40002441406</ele>
        <time>2023-07-30T07:36:51.000Z</time>
      </trkpt>
      <trkpt lat="43.75723" lon="7.06827">
        <ele>968.20001220703</ele>
        <time>2023-07-30T07:36:52.000Z</time>
      </trkpt>
      <trkpt lat="43.75722" lon="7.06823">
        <ele>967.79998779297</ele>
        <time>2023-07-30T07:36:53.000Z</time>
      </trkpt>
      <trkpt lat="43.7572" lon="7.0682">
        <ele>967.59997558594</ele>
        <time>2023-07-30T07:36:54.000Z</time>
      </trkpt>
      <trkpt lat="43.75718" lon="7.06818">
        <ele>966.79998779297</ele>
        <time>2023-07-30T07:36:55.000Z</time>
      </trkpt>
      <trkpt lat="43.75716" lon="7.06815">
        <ele>966.79998779297</ele>
        <time>2023-07-30T07:36:56.000Z</time>
      </trkpt>
      <trkpt lat="43.75714" lon="7.06812">
        <ele>966.59997558594</ele>
        <time>2023-07-30T07:36:57.000Z</time>
      </trkpt>
      <trkpt lat="43.75711" lon="7.06808">
        <ele>966</ele>
        <time>2023-07-30T07:36:58.000Z</time>
      </trkpt>
      <trkpt lat="43.75709" lon="7.06806">
        <ele>966</ele>
        <time>2023-07-30T07:36:59.000Z</time>
      </trkpt>
      <trkpt lat="43.75707" lon="7.06802">
        <ele>965.59997558594</ele>
        <time>2023-07-30T07:37:00.000Z</time>
      </trkpt>
      <trkpt lat="43.75704" lon="7.06799">
        <ele>965.20001220703</ele>
        <time>2023-07-30T07:37:01.000Z</time>
      </trkpt>
      <trkpt lat="43.75701" lon="7.06795">
        <ele>964.59997558594</ele>
        <time>2023-07-30T07:37:02.000Z</time>
      </trkpt>
      <trkpt lat="43.75698" lon="7.0679">
        <ele>964</ele>
        <time>2023-07-30T07:37:03.000Z</time>
      </trkpt>
      <trkpt lat="43.75695" lon="7.06788">
        <ele>963.40002441406</ele>
        <time>2023-07-30T07:37:04.000Z</time>
      </trkpt>
      <trkpt lat="43.75694" lon="7.06785">
        <ele>963.40002441406</ele>
        <time>2023-07-30T07:37:05.000Z</time>
      </trkpt>
      <trkpt lat="43.75692" lon="7.06783">
        <ele>963</ele>
        <time>2023-07-30T07:37:06.000Z</time>
      </trkpt>
      <trkpt lat="43.75691" lon="7.0678">
        <ele>962.59997558594</ele>
        <time>2023-07-30T07:37:07.000Z</time>
      </trkpt>
      <trkpt lat="43.75689" lon="7.06777">
        <ele>962.59997558594</ele>
        <time>2023-07-30T07:37:08.000Z</time>
      </trkpt>
      <trkpt lat="43.75688" lon="7.06773">
        <ele>962.59997558594</ele>
        <time>2023-07-30T07:37:09.000Z</time>
      </trkpt>
      <trkpt lat="43.75686" lon="7.06769">
        <ele>962.59997558594</ele>
        <time>2023-07-30T07:37:10.000Z</time>
      </trkpt>
      <trkpt lat="43.75684" lon="7.06766">
        <ele>962.59997558594</ele>
        <time>2023-07-30T07:37:11.000Z</time>
      </trkpt>
      <trkpt lat="43.75683" lon="7.06762">
        <ele>962.59997558594</ele>
        <time>2023-07-30T07:37:12.000Z</time>
      </trkpt>
      <trkpt lat="43.75681" lon="7.0676">
        <ele>962.40002441406</ele>
        <time>2023-07-30T07:37:13.000Z</time>
      </trkpt>
      <trkpt lat="43.75679" lon="7.06756">
        <ele>962</ele>
        <time>2023-07-30T07:37:14.000Z</time>
      </trkpt>
      <trkpt lat="43.75676" lon="7.06753">
        <ele>961.79998779297</ele>
        <time>2023-07-30T07:37:15.000Z</time>
      </trkpt>
      <trkpt lat="43.75673" lon="7.0675">
        <ele>961.59997558594</ele>
        <time>2023-07-30T07:37:16.000Z</time>
      </trkpt>
      <trkpt lat="43.75671" lon="7.06746">
        <ele>961.40002441406</ele>
        <time>2023-07-30T07:37:17.000Z</time>
      </trkpt>
      <trkpt lat="43.75668" lon="7.06741">
        <ele>961.20001220703</ele>
        <time>2023-07-30T07:37:18.000Z</time>
      </trkpt>
      <trkpt lat="43.75666" lon="7.06737">
        <ele>961.20001220703</ele>
        <time>2023-07-30T07:37:19.000Z</time>
      </trkpt>
      <trkpt lat="43.75663" lon="7.06733">
        <ele>961.20001220703</ele>
        <time>2023-07-30T07:37:20.000Z</time>
      </trkpt>
      <trkpt lat="43.75663" lon="7.06729">
        <ele>961.20001220703</ele>
        <time>2023-07-30T07:37:21.000Z</time>
      </trkpt>
      <trkpt lat="43.75663" lon="7.06726">
        <ele>960.79998779297</ele>
        <time>2023-07-30T07:37:22.000Z</time>
      </trkpt>
      <trkpt lat="43.75663" lon="7.06723">
        <ele>960</ele>
        <time>2023-07-30T07:37:23.000Z</time>
      </trkpt>
      <trkpt lat="43.75663" lon="7.06719">
        <ele>959.79998779297</ele>
        <time>2023-07-30T07:37:24.000Z</time>
      </trkpt>
      <trkpt lat="43.75661" lon="7.06715">
        <ele>959.79998779297</ele>
        <time>2023-07-30T07:37:25.000Z</time>
      </trkpt>
      <trkpt lat="43.75659" lon="7.06711">
        <ele>959.40002441406</ele>
        <time>2023-07-30T07:37:26.000Z</time>
      </trkpt>
      <trkpt lat="43.75657" lon="7.06707">
        <ele>959.20001220703</ele>
        <time>2023-07-30T07:37:27.000Z</time>
      </trkpt>
      <trkpt lat="43.75655" lon="7.06704">
        <ele>959.20001220703</ele>
        <time>2023-07-30T07:37:28.000Z</time>
      </trkpt>
      <trkpt lat="43.75652" lon="7.067">
        <ele>959</ele>
        <time>2023-07-30T07:37:29.000Z</time>
      </trkpt>
      <trkpt lat="43.7565" lon="7.06697">
        <ele>958.79998779297</ele>
        <time>2023-07-30T07:37:30.000Z</time>
      </trkpt>
      <trkpt lat="43.75648" lon="7.06693">
        <ele>958.79998779297</ele>
        <time>2023-07-30T07:37:31.000Z</time>
      </trkpt>
      <trkpt lat="43.75646" lon="7.0669">
        <ele>958.79998779297</ele>
        <time>2023-07-30T07:37:32.000Z</time>
      </trkpt>
      <trkpt lat="43.75644" lon="7.06686">
        <ele>958.59997558594</ele>
        <time>2023-07-30T07:37:33.000Z</time>
      </trkpt>
      <trkpt lat="43.75642" lon="7.06682">
        <ele>958.59997558594</ele>
        <time>2023-07-30T07:37:34.000Z</time>
      </trkpt>
      <trkpt lat="43.75641" lon="7.06678">
        <ele>958.59997558594</ele>
        <time>2023-07-30T07:37:35.000Z</time>
      </trkpt>
      <trkpt lat="43.75639" lon="7.06675">
        <ele>958.59997558594</ele>
        <time>2023-07-30T07:37:36.000Z</time>
      </trkpt>
      <trkpt lat="43.75637" lon="7.06671">
        <ele>958.59997558594</ele>
        <time>2023-07-30T07:37:37.000Z</time>
      </trkpt>
      <trkpt lat="43.75636" lon="7.06668">
        <ele>958.59997558594</ele>
        <time>2023-07-30T07:37:38.000Z</time>
      </trkpt>
      <trkpt lat="43.75634" lon="7.06664">
        <ele>958.59997558594</ele>
        <time>2023-07-30T07:37:39.000Z</time>
      </trkpt>
      <trkpt lat="43.75633" lon="7.06661">
        <ele>958.59997558594</ele>
        <time>2023-07-30T07:37:40.000Z</time>
      </trkpt>
      <trkpt lat="43.75631" lon="7.06658">
        <ele>958.59997558594</ele>
        <time>2023-07-30T07:37:41.000Z</time>
      </trkpt>
      <trkpt lat="43.75629" lon="7.06655">
        <ele>958.59997558594</ele>
        <time>2023-07-30T07:37:42.000Z</time>
      </trkpt>
      <trkpt lat="43.75627" lon="7.06653">
        <ele>958.79998779297</ele>
        <time>2023-07-30T07:37:43.000Z</time>
      </trkpt>
      <trkpt lat="43.75625" lon="7.06651">
        <ele>958.79998779297</ele>
        <time>2023-07-30T07:37:44.000Z</time>
      </trkpt>
      <trkpt lat="43.75623" lon="7.06649">
        <ele>959.20001220703</ele>
        <time>2023-07-30T07:37:45.000Z</time>
      </trkpt>
      <trkpt lat="43.75621" lon="7.06646">
        <ele>959.20001220703</ele>
        <time>2023-07-30T07:37:46.000Z</time>
      </trkpt>
      <trkpt lat="43.75619" lon="7.06643">
        <ele>959.59997558594</ele>
        <time>2023-07-30T07:37:47.000Z</time>
      </trkpt>
      <trkpt lat="43.75616" lon="7.0664">
        <ele>959.59997558594</ele>
        <time>2023-07-30T07:37:48.000Z</time>
      </trkpt>
      <trkpt lat="43.75614" lon="7.06638">
        <ele>959.79998779297</ele>
        <time>2023-07-30T07:37:49.000Z</time>
      </trkpt>
      <trkpt lat="43.75611" lon="7.06635">
        <ele>959.79998779297</ele>
        <time>2023-07-30T07:37:50.000Z</time>
      </trkpt>
      <trkpt lat="43.75609" lon="7.06633">
        <ele>959.79998779297</ele>
        <time>2023-07-30T07:37:51.000Z</time>
      </trkpt>
      <trkpt lat="43.75607" lon="7.0663">
        <ele>959.79998779297</ele>
        <time>2023-07-30T07:37:52.000Z</time>
      </trkpt>
      <trkpt lat="43.75605" lon="7.06626">
        <ele>959.79998779297</ele>
        <time>2023-07-30T07:37:53.000Z</time>
      </trkpt>
      <trkpt lat="43.75602" lon="7.06623">
        <ele>960</ele>
        <time>2023-07-30T07:37:54.000Z</time>
      </trkpt>
      <trkpt lat="43.756" lon="7.0662">
        <ele>960.40002441406</ele>
        <time>2023-07-30T07:37:55.000Z</time>
      </trkpt>
      <trkpt lat="43.75597" lon="7.06619">
        <ele>960.59997558594</ele>
        <time>2023-07-30T07:37:56.000Z</time>
      </trkpt>
      <trkpt lat="43.75595" lon="7.06616">
        <ele>960.79998779297</ele>
        <time>2023-07-30T07:37:57.000Z</time>
      </trkpt>
      <trkpt lat="43.75593" lon="7.06614">
        <ele>960.79998779297</ele>
        <time>2023-07-30T07:37:58.000Z</time>
      </trkpt>
      <trkpt lat="43.75591" lon="7.06611">
        <ele>961</ele>
        <time>2023-07-30T07:37:59.000Z</time>
      </trkpt>
      <trkpt lat="43.7559" lon="7.06607">
        <ele>961</ele>
        <time>2023-07-30T07:38:00.000Z</time>
      </trkpt>
      <trkpt lat="43.75588" lon="7.06605">
        <ele>961.20001220703</ele>
        <time>2023-07-30T07:38:01.000Z</time>
      </trkpt>
      <trkpt lat="43.75585" lon="7.06602">
        <ele>962</ele>
        <time>2023-07-30T07:38:02.000Z</time>
      </trkpt>
      <trkpt lat="43.75583" lon="7.06601">
        <ele>962</ele>
        <time>2023-07-30T07:38:03.000Z</time>
      </trkpt>
      <trkpt lat="43.75581" lon="7.06599">
        <ele>962.20001220703</ele>
        <time>2023-07-30T07:38:04.000Z</time>
      </trkpt>
      <trkpt lat="43.75578" lon="7.06596">
        <ele>962.79998779297</ele>
        <time>2023-07-30T07:38:05.000Z</time>
      </trkpt>
      <trkpt lat="43.75577" lon="7.06593">
        <ele>963</ele>
        <time>2023-07-30T07:38:06.000Z</time>
      </trkpt>
      <trkpt lat="43.75574" lon="7.0659">
        <ele>963.79998779297</ele>
        <time>2023-07-30T07:38:07.000Z</time>
      </trkpt>
      <trkpt lat="43.75572" lon="7.06588">
        <ele>963.79998779297</ele>
        <time>2023-07-30T07:38:08.000Z</time>
      </trkpt>
      <trkpt lat="43.7557" lon="7.06585">
        <ele>963.79998779297</ele>
        <time>2023-07-30T07:38:09.000Z</time>
      </trkpt>
      <trkpt lat="43.75568" lon="7.06582">
        <ele>963.79998779297</ele>
        <time>2023-07-30T07:38:10.000Z</time>
      </trkpt>
      <trkpt lat="43.75566" lon="7.06579">
        <ele>963.79998779297</ele>
        <time>2023-07-30T07:38:11.000Z</time>
      </trkpt>
      <trkpt lat="43.75564" lon="7.06576">
        <ele>964.40002441406</ele>
        <time>2023-07-30T07:38:12.000Z</time>
      </trkpt>
      <trkpt lat="43.75562" lon="7.06573">
        <ele>965.20001220703</ele>
        <time>2023-07-30T07:38:13.000Z</time>
      </trkpt>
      <trkpt lat="43.7556" lon="7.0657">
        <ele>965.40002441406</ele>
        <time>2023-07-30T07:38:14.000Z</time>
      </trkpt>
      <trkpt lat="43.75559" lon="7.06567">
        <ele>965.59997558594</ele>
        <time>2023-07-30T07:38:15.000Z</time>
      </trkpt>
      <trkpt lat="43.75557" lon="7.06564">
        <ele>965.79998779297</ele>
        <time>2023-07-30T07:38:16.000Z</time>
      </trkpt>
      <trkpt lat="43.75555" lon="7.06561">
        <ele>966</ele>
        <time>2023-07-30T07:38:17.000Z</time>
      </trkpt>
      <trkpt lat="43.75553" lon="7.06558">
        <ele>966.40002441406</ele>
        <time>2023-07-30T07:38:18.000Z</time>
      </trkpt>
      <trkpt lat="43.75552" lon="7.06556">
        <ele>966.40002441406</ele>
        <time>2023-07-30T07:38:19.000Z</time>
      </trkpt>
      <trkpt lat="43.7555" lon="7.06553">
        <ele>966.59997558594</ele>
        <time>2023-07-30T07:38:20.000Z</time>
      </trkpt>
      <trkpt lat="43.75548" lon="7.0655">
        <ele>967</ele>
        <time>2023-07-30T07:38:21.000Z</time>
      </trkpt>
      <trkpt lat="43.75546" lon="7.06547">
        <ele>967</ele>
        <time>2023-07-30T07:38:22.000Z</time>
      </trkpt>
      <trkpt lat="43.75544" lon="7.06544">
        <ele>967</ele>
        <time>2023-07-30T07:38:23.000Z</time>
      </trkpt>
      <trkpt lat="43.75542" lon="7.06541">
        <ele>967</ele>
        <time>2023-07-30T07:38:24.000Z</time>
      </trkpt>
      <trkpt lat="43.7554" lon="7.06538">
        <ele>967</ele>
        <time>2023-07-30T07:38:25.000Z</time>
      </trkpt>
      <trkpt lat="43.75539" lon="7.06533">
        <ele>967</ele>
        <time>2023-07-30T07:38:26.000Z</time>
      </trkpt>
      <trkpt lat="43.75538" lon="7.06527">
        <ele>967</ele>
        <time>2023-07-30T07:38:27.000Z</time>
      </trkpt>
      <trkpt lat="43.75536" lon="7.06521">
        <ele>967</ele>
        <time>2023-07-30T07:38:28.000Z</time>
      </trkpt>
      <trkpt lat="43.75533" lon="7.06514">
        <ele>966.59997558594</ele>
        <time>2023-07-30T07:38:29.000Z</time>
      </trkpt>
      <trkpt lat="43.75531" lon="7.06508">
        <ele>966.40002441406</ele>
        <time>2023-07-30T07:38:30.000Z</time>
      </trkpt>
      <trkpt lat="43.75528" lon="7.06502">
        <ele>966.40002441406</ele>
        <time>2023-07-30T07:38:31.000Z</time>
      </trkpt>
      <trkpt lat="43.75525" lon="7.06497">
        <ele>965.79998779297</ele>
        <time>2023-07-30T07:38:32.000Z</time>
      </trkpt>
      <trkpt lat="43.75521" lon="7.06493">
        <ele>965</ele>
        <time>2023-07-30T07:38:33.000Z</time>
      </trkpt>
      <trkpt lat="43.75517" lon="7.06489">
        <ele>965</ele>
        <time>2023-07-30T07:38:34.000Z</time>
      </trkpt>
      <trkpt lat="43.75513" lon="7.06486">
        <ele>965</ele>
        <time>2023-07-30T07:38:35.000Z</time>
      </trkpt>
      <trkpt lat="43.75511" lon="7.06483">
        <ele>964.79998779297</ele>
        <time>2023-07-30T07:38:36.000Z</time>
      </trkpt>
      <trkpt lat="43.75509" lon="7.06481">
        <ele>964.79998779297</ele>
        <time>2023-07-30T07:38:37.000Z</time>
      </trkpt>
      <trkpt lat="43.75507" lon="7.06479">
        <ele>964.79998779297</ele>
        <time>2023-07-30T07:38:38.000Z</time>
      </trkpt>
      <trkpt lat="43.75506" lon="7.06476">
        <ele>964.79998779297</ele>
        <time>2023-07-30T07:38:39.000Z</time>
      </trkpt>
      <trkpt lat="43.75504" lon="7.06474">
        <ele>964.79998779297</ele>
        <time>2023-07-30T07:38:40.000Z</time>
      </trkpt>
      <trkpt lat="43.75502" lon="7.06472">
        <ele>964.79998779297</ele>
        <time>2023-07-30T07:38:41.000Z</time>
      </trkpt>
      <trkpt lat="43.75499" lon="7.06469">
        <ele>964.79998779297</ele>
        <time>2023-07-30T07:38:42.000Z</time>
      </trkpt>
      <trkpt lat="43.75496" lon="7.06467">
        <ele>965</ele>
        <time>2023-07-30T07:38:43.000Z</time>
      </trkpt>
      <trkpt lat="43.75494" lon="7.06465">
        <ele>964.79998779297</ele>
        <time>2023-07-30T07:38:44.000Z</time>
      </trkpt>
      <trkpt lat="43.75492" lon="7.06462">
        <ele>964.79998779297</ele>
        <time>2023-07-30T07:38:45.000Z</time>
      </trkpt>
      <trkpt lat="43.7549" lon="7.06459">
        <ele>964.79998779297</ele>
        <time>2023-07-30T07:38:46.000Z</time>
      </trkpt>
      <trkpt lat="43.75488" lon="7.06455">
        <ele>964.79998779297</ele>
        <time>2023-07-30T07:38:47.000Z</time>
      </trkpt>
      <trkpt lat="43.75486" lon="7.06453">
        <ele>964.79998779297</ele>
        <time>2023-07-30T07:38:48.000Z</time>
      </trkpt>
      <trkpt lat="43.75484" lon="7.0645">
        <ele>965</ele>
        <time>2023-07-30T07:38:49.000Z</time>
      </trkpt>
      <trkpt lat="43.75482" lon="7.06447">
        <ele>965.40002441406</ele>
        <time>2023-07-30T07:38:50.000Z</time>
      </trkpt>
      <trkpt lat="43.75479" lon="7.06445">
        <ele>965.59997558594</ele>
        <time>2023-07-30T07:38:51.000Z</time>
      </trkpt>
      <trkpt lat="43.75477" lon="7.06444">
        <ele>965.79998779297</ele>
        <time>2023-07-30T07:38:52.000Z</time>
      </trkpt>
      <trkpt lat="43.75475" lon="7.06442">
        <ele>965.79998779297</ele>
        <time>2023-07-30T07:38:53.000Z</time>
      </trkpt>
      <trkpt lat="43.75472" lon="7.0644">
        <ele>966</ele>
        <time>2023-07-30T07:38:54.000Z</time>
      </trkpt>
      <trkpt lat="43.7547" lon="7.06439">
        <ele>966</ele>
        <time>2023-07-30T07:38:55.000Z</time>
      </trkpt>
      <trkpt lat="43.75467" lon="7.06438">
        <ele>966.40002441406</ele>
        <time>2023-07-30T07:38:56.000Z</time>
      </trkpt>
      <trkpt lat="43.75464" lon="7.06437">
        <ele>966.40002441406</ele>
        <time>2023-07-30T07:38:57.000Z</time>
      </trkpt>
      <trkpt lat="43.75462" lon="7.06436">
        <ele>967</ele>
        <time>2023-07-30T07:38:58.000Z</time>
      </trkpt>
      <trkpt lat="43.75459" lon="7.06435">
        <ele>967</ele>
        <time>2023-07-30T07:38:59.000Z</time>
      </trkpt>
      <trkpt lat="43.75457" lon="7.06435">
        <ele>967.20001220703</ele>
        <time>2023-07-30T07:39:00.000Z</time>
      </trkpt>
      <trkpt lat="43.75454" lon="7.06435">
        <ele>967.59997558594</ele>
        <time>2023-07-30T07:39:01.000Z</time>
      </trkpt>
      <trkpt lat="43.75451" lon="7.06435">
        <ele>967.59997558594</ele>
        <time>2023-07-30T07:39:02.000Z</time>
      </trkpt>
      <trkpt lat="43.75449" lon="7.06435">
        <ele>967.79998779297</ele>
        <time>2023-07-30T07:39:03.000Z</time>
      </trkpt>
      <trkpt lat="43.75446" lon="7.06435">
        <ele>968</ele>
        <time>2023-07-30T07:39:04.000Z</time>
      </trkpt>
      <trkpt lat="43.75444" lon="7.06435">
        <ele>968.20001220703</ele>
        <time>2023-07-30T07:39:05.000Z</time>
      </trkpt>
      <trkpt lat="43.75441" lon="7.06434">
        <ele>968.20001220703</ele>
        <time>2023-07-30T07:39:06.000Z</time>
      </trkpt>
      <trkpt lat="43.75439" lon="7.06434">
        <ele>968.40002441406</ele>
        <time>2023-07-30T07:39:07.000Z</time>
      </trkpt>
      <trkpt lat="43.75436" lon="7.06434">
        <ele>968.40002441406</ele>
        <time>2023-07-30T07:39:08.000Z</time>
      </trkpt>
      <trkpt lat="43.75434" lon="7.06434">
        <ele>968.59997558594</ele>
        <time>2023-07-30T07:39:09.000Z</time>
      </trkpt>
      <trkpt lat="43.75431" lon="7.06434">
        <ele>968.79998779297</ele>
        <time>2023-07-30T07:39:10.000Z</time>
      </trkpt>
      <trkpt lat="43.75429" lon="7.06435">
        <ele>968.79998779297</ele>
        <time>2023-07-30T07:39:11.000Z</time>
      </trkpt>
      <trkpt lat="43.75427" lon="7.06436">
        <ele>968.79998779297</ele>
        <time>2023-07-30T07:39:12.000Z</time>
      </trkpt>
      <trkpt lat="43.75425" lon="7.06436">
        <ele>968.79998779297</ele>
        <time>2023-07-30T07:39:13.000Z</time>
      </trkpt>
      <trkpt lat="43.75424" lon="7.06436">
        <ele>968.79998779297</ele>
        <time>2023-07-30T07:39:14.000Z</time>
      </trkpt>
      <trkpt lat="43.75421" lon="7.06438">
        <ele>968.79998779297</ele>
        <time>2023-07-30T07:39:15.000Z</time>
      </trkpt>
      <trkpt lat="43.75419" lon="7.0644">
        <ele>968.79998779297</ele>
        <time>2023-07-30T07:39:16.000Z</time>
      </trkpt>
      <trkpt lat="43.75417" lon="7.06442">
        <ele>968.79998779297</ele>
        <time>2023-07-30T07:39:17.000Z</time>
      </trkpt>
      <trkpt lat="43.75415" lon="7.06445">
        <ele>968.59997558594</ele>
        <time>2023-07-30T07:39:18.000Z</time>
      </trkpt>
      <trkpt lat="43.75413" lon="7.06445">
        <ele>968.20001220703</ele>
        <time>2023-07-30T07:39:19.000Z</time>
      </trkpt>
      <trkpt lat="43.7541" lon="7.06445">
        <ele>968</ele>
        <time>2023-07-30T07:39:20.000Z</time>
      </trkpt>
      <trkpt lat="43.75408" lon="7.06445">
        <ele>968</ele>
        <time>2023-07-30T07:39:21.000Z</time>
      </trkpt>
      <trkpt lat="43.75406" lon="7.06444">
        <ele>968</ele>
        <time>2023-07-30T07:39:22.000Z</time>
      </trkpt>
      <trkpt lat="43.75404" lon="7.06444">
        <ele>968</ele>
        <time>2023-07-30T07:39:23.000Z</time>
      </trkpt>
      <trkpt lat="43.75401" lon="7.06442">
        <ele>968</ele>
        <time>2023-07-30T07:39:24.000Z</time>
      </trkpt>
      <trkpt lat="43.754" lon="7.06439">
        <ele>968</ele>
        <time>2023-07-30T07:39:25.000Z</time>
      </trkpt>
      <trkpt lat="43.75398" lon="7.06437">
        <ele>968</ele>
        <time>2023-07-30T07:39:26.000Z</time>
      </trkpt>
      <trkpt lat="43.75395" lon="7.06435">
        <ele>967.79998779297</ele>
        <time>2023-07-30T07:39:27.000Z</time>
      </trkpt>
      <trkpt lat="43.75393" lon="7.06435">
        <ele>967.79998779297</ele>
        <time>2023-07-30T07:39:28.000Z</time>
      </trkpt>
      <trkpt lat="43.75391" lon="7.06435">
        <ele>967.79998779297</ele>
        <time>2023-07-30T07:39:29.000Z</time>
      </trkpt>
      <trkpt lat="43.75389" lon="7.06435">
        <ele>967.79998779297</ele>
        <time>2023-07-30T07:39:30.000Z</time>
      </trkpt>
      <trkpt lat="43.75387" lon="7.06435">
        <ele>967.79998779297</ele>
        <time>2023-07-30T07:39:31.000Z</time>
      </trkpt>
      <trkpt lat="43.75385" lon="7.06435">
        <ele>967.79998779297</ele>
        <time>2023-07-30T07:39:32.000Z</time>
      </trkpt>
      <trkpt lat="43.75383" lon="7.06435">
        <ele>967.79998779297</ele>
        <time>2023-07-30T07:39:33.000Z</time>
      </trkpt>
      <trkpt lat="43.75379" lon="7.06435">
        <ele>967.79998779297</ele>
        <time>2023-07-30T07:39:34.000Z</time>
      </trkpt>
      <trkpt lat="43.75377" lon="7.06434">
        <ele>967.79998779297</ele>
        <time>2023-07-30T07:39:35.000Z</time>
      </trkpt>
      <trkpt lat="43.75374" lon="7.06434">
        <ele>967.79998779297</ele>
        <time>2023-07-30T07:39:36.000Z</time>
      </trkpt>
      <trkpt lat="43.75372" lon="7.06433">
        <ele>968.20001220703</ele>
        <time>2023-07-30T07:39:37.000Z</time>
      </trkpt>
      <trkpt lat="43.75369" lon="7.06432">
        <ele>968.20001220703</ele>
        <time>2023-07-30T07:39:38.000Z</time>
      </trkpt>
      <trkpt lat="43.75367" lon="7.0643">
        <ele>968.40002441406</ele>
        <time>2023-07-30T07:39:39.000Z</time>
      </trkpt>
      <trkpt lat="43.75367" lon="7.06428">
        <ele>968.79998779297</ele>
        <time>2023-07-30T07:39:40.000Z</time>
      </trkpt>
      <trkpt lat="43.75365" lon="7.06425">
        <ele>969.40002441406</ele>
        <time>2023-07-30T07:39:41.000Z</time>
      </trkpt>
      <trkpt lat="43.75364" lon="7.06422">
        <ele>969.79998779297</ele>
        <time>2023-07-30T07:39:42.000Z</time>
      </trkpt>
      <trkpt lat="43.75363" lon="7.06419">
        <ele>970</ele>
        <time>2023-07-30T07:39:43.000Z</time>
      </trkpt>
      <trkpt lat="43.75363" lon="7.06415">
        <ele>970.59997558594</ele>
        <time>2023-07-30T07:39:44.000Z</time>
      </trkpt>
      <trkpt lat="43.75362" lon="7.06412">
        <ele>970.59997558594</ele>
        <time>2023-07-30T07:39:45.000Z</time>
      </trkpt>
      <trkpt lat="43.75361" lon="7.0641">
        <ele>971</ele>
        <time>2023-07-30T07:39:46.000Z</time>
      </trkpt>
      <trkpt lat="43.75359" lon="7.06408">
        <ele>971.40002441406</ele>
        <time>2023-07-30T07:39:47.000Z</time>
      </trkpt>
      <trkpt lat="43.75357" lon="7.06405">
        <ele>971.79998779297</ele>
        <time>2023-07-30T07:39:48.000Z</time>
      </trkpt>
      <trkpt lat="43.75356" lon="7.06403">
        <ele>972</ele>
        <time>2023-07-30T07:39:49.000Z</time>
      </trkpt>
      <trkpt lat="43.75354" lon="7.06401">
        <ele>972.20001220703</ele>
        <time>2023-07-30T07:39:50.000Z</time>
      </trkpt>
      <trkpt lat="43.75353" lon="7.06398">
        <ele>972.40002441406</ele>
        <time>2023-07-30T07:39:51.000Z</time>
      </trkpt>
      <trkpt lat="43.7535" lon="7.06397">
        <ele>972.79998779297</ele>
        <time>2023-07-30T07:39:52.000Z</time>
      </trkpt>
      <trkpt lat="43.75348" lon="7.06396">
        <ele>972.79998779297</ele>
        <time>2023-07-30T07:39:53.000Z</time>
      </trkpt>
      <trkpt lat="43.75345" lon="7.06397">
        <ele>973.20001220703</ele>
        <time>2023-07-30T07:39:54.000Z</time>
      </trkpt>
      <trkpt lat="43.75343" lon="7.06397">
        <ele>973.20001220703</ele>
        <time>2023-07-30T07:39:55.000Z</time>
      </trkpt>
      <trkpt lat="43.75341" lon="7.06397">
        <ele>973.20001220703</ele>
        <time>2023-07-30T07:39:56.000Z</time>
      </trkpt>
      <trkpt lat="43.75339" lon="7.06397">
        <ele>973.20001220703</ele>
        <time>2023-07-30T07:39:57.000Z</time>
      </trkpt>
      <trkpt lat="43.75336" lon="7.06397">
        <ele>973.59997558594</ele>
        <time>2023-07-30T07:39:58.000Z</time>
      </trkpt>
      <trkpt lat="43.75334" lon="7.06398">
        <ele>973.79998779297</ele>
        <time>2023-07-30T07:39:59.000Z</time>
      </trkpt>
      <trkpt lat="43.75332" lon="7.06399">
        <ele>973.79998779297</ele>
        <time>2023-07-30T07:40:00.000Z</time>
      </trkpt>
      <trkpt lat="43.75329" lon="7.064">
        <ele>974</ele>
        <time>2023-07-30T07:40:01.000Z</time>
      </trkpt>
      <trkpt lat="43.75326" lon="7.064">
        <ele>974.20001220703</ele>
        <time>2023-07-30T07:40:02.000Z</time>
      </trkpt>
      <trkpt lat="43.75323" lon="7.064">
        <ele>974.20001220703</ele>
        <time>2023-07-30T07:40:03.000Z</time>
      </trkpt>
      <trkpt lat="43.7532" lon="7.06399">
        <ele>974.40002441406</ele>
        <time>2023-07-30T07:40:04.000Z</time>
      </trkpt>
      <trkpt lat="43.75318" lon="7.06398">
        <ele>974.40002441406</ele>
        <time>2023-07-30T07:40:05.000Z</time>
      </trkpt>
      <trkpt lat="43.75315" lon="7.06398">
        <ele>974.40002441406</ele>
        <time>2023-07-30T07:40:06.000Z</time>
      </trkpt>
      <trkpt lat="43.75313" lon="7.06397">
        <ele>974.40002441406</ele>
        <time>2023-07-30T07:40:07.000Z</time>
      </trkpt>
      <trkpt lat="43.75311" lon="7.06396">
        <ele>974.40002441406</ele>
        <time>2023-07-30T07:40:08.000Z</time>
      </trkpt>
      <trkpt lat="43.75308" lon="7.06394">
        <ele>974.40002441406</ele>
        <time>2023-07-30T07:40:09.000Z</time>
      </trkpt>
      <trkpt lat="43.75306" lon="7.06393">
        <ele>974.59997558594</ele>
        <time>2023-07-30T07:40:10.000Z</time>
      </trkpt>
      <trkpt lat="43.75303" lon="7.06393">
        <ele>974.59997558594</ele>
        <time>2023-07-30T07:40:11.000Z</time>
      </trkpt>
      <trkpt lat="43.75301" lon="7.06393">
        <ele>974.59997558594</ele>
        <time>2023-07-30T07:40:12.000Z</time>
      </trkpt>
      <trkpt lat="43.75299" lon="7.06392">
        <ele>974.59997558594</ele>
        <time>2023-07-30T07:40:13.000Z</time>
      </trkpt>
      <trkpt lat="43.75296" lon="7.06392">
        <ele>974.79998779297</ele>
        <time>2023-07-30T07:40:14.000Z</time>
      </trkpt>
      <trkpt lat="43.75293" lon="7.06392">
        <ele>975</ele>
        <time>2023-07-30T07:40:15.000Z</time>
      </trkpt>
      <trkpt lat="43.7529" lon="7.06391">
        <ele>975.20001220703</ele>
        <time>2023-07-30T07:40:16.000Z</time>
      </trkpt>
      <trkpt lat="43.75288" lon="7.0639">
        <ele>975.40002441406</ele>
        <time>2023-07-30T07:40:17.000Z</time>
      </trkpt>
      <trkpt lat="43.75286" lon="7.06388">
        <ele>975.40002441406</ele>
        <time>2023-07-30T07:40:18.000Z</time>
      </trkpt>
      <trkpt lat="43.75285" lon="7.06386">
        <ele>975.79998779297</ele>
        <time>2023-07-30T07:40:19.000Z</time>
      </trkpt>
      <trkpt lat="43.75283" lon="7.06384">
        <ele>976.20001220703</ele>
        <time>2023-07-30T07:40:20.000Z</time>
      </trkpt>
      <trkpt lat="43.75281" lon="7.06382">
        <ele>976.40002441406</ele>
        <time>2023-07-30T07:40:21.000Z</time>
      </trkpt>
      <trkpt lat="43.75279" lon="7.0638">
        <ele>976.59997558594</ele>
        <time>2023-07-30T07:40:22.000Z</time>
      </trkpt>
      <trkpt lat="43.75277" lon="7.06379">
        <ele>976.59997558594</ele>
        <time>2023-07-30T07:40:23.000Z</time>
      </trkpt>
      <trkpt lat="43.75276" lon="7.06378">
        <ele>976.79998779297</ele>
        <time>2023-07-30T07:40:24.000Z</time>
      </trkpt>
      <trkpt lat="43.75276" lon="7.06379">
        <ele>977</ele>
        <time>2023-07-30T07:40:25.000Z</time>
      </trkpt>
      <trkpt lat="43.75275" lon="7.06379">
        <ele>977</ele>
        <time>2023-07-30T07:40:26.000Z</time>
      </trkpt>
      <trkpt lat="43.75275" lon="7.06379">
        <ele>977</ele>
        <time>2023-07-30T07:40:27.000Z</time>
      </trkpt>
      <trkpt lat="43.75275" lon="7.06379">
        <ele>977</ele>
        <time>2023-07-30T07:40:28.000Z</time>
      </trkpt>
      <trkpt lat="43.75275" lon="7.06379">
        <ele>977.20001220703</ele>
        <time>2023-07-30T07:40:29.000Z</time>
      </trkpt>
      <trkpt lat="43.75275" lon="7.06379">
        <ele>977.20001220703</ele>
        <time>2023-07-30T07:40:30.000Z</time>
      </trkpt>
      <trkpt lat="43.75275" lon="7.06379">
        <ele>977.20001220703</ele>
        <time>2023-07-30T07:40:31.000Z</time>
      </trkpt>
      <trkpt lat="43.75275" lon="7.06379">
        <ele>977.20001220703</ele>
        <time>2023-07-30T07:40:32.000Z</time>
      </trkpt>
      <trkpt lat="43.75275" lon="7.06379">
        <ele>977.20001220703</ele>
        <time>2023-07-30T07:40:33.000Z</time>
      </trkpt>
      <trkpt lat="43.75275" lon="7.06379">
        <ele>977.20001220703</ele>
        <time>2023-07-30T07:40:34.000Z</time>
      </trkpt>
      <trkpt lat="43.75275" lon="7.06379">
        <ele>977.20001220703</ele>
        <time>2023-07-30T07:40:35.000Z</time>
      </trkpt>
      <trkpt lat="43.75275" lon="7.06379">
        <ele>977.20001220703</ele>
        <time>2023-07-30T07:40:36.000Z</time>
      </trkpt>
      <trkpt lat="43.75275" lon="7.06379">
        <ele>977.20001220703</ele>
        <time>2023-07-30T07:40:37.000Z</time>
      </trkpt>
      <trkpt lat="43.75275" lon="7.06379">
        <ele>977.20001220703</ele>
        <time>2023-07-30T07:40:38.000Z</time>
      </trkpt>
      <trkpt lat="43.75275" lon="7.06379">
        <ele>977.20001220703</ele>
        <time>2023-07-30T07:40:39.000Z</time>
      </trkpt>
      <trkpt lat="43.75275" lon="7.06379">
        <ele>977.20001220703</ele>
        <time>2023-07-30T07:40:40.000Z</time>
      </trkpt>
      <trkpt lat="43.75275" lon="7.06379">
        <ele>977.20001220703</ele>
        <time>2023-07-30T07:40:41.000Z</time>
      </trkpt>
      <trkpt lat="43.75275" lon="7.06379">
        <ele>977.20001220703</ele>
        <time>2023-07-30T07:40:42.000Z</time>
      </trkpt>
      <trkpt lat="43.75275" lon="7.06379">
        <ele>977.20001220703</ele>
        <time>2023-07-30T07:40:43.000Z</time>
      </trkpt>
      <trkpt lat="43.75275" lon="7.06379">
        <ele>977.20001220703</ele>
        <time>2023-07-30T07:40:44.000Z</time>
      </trkpt>
      <trkpt lat="43.75275" lon="7.06379">
        <ele>977.20001220703</ele>
        <time>2023-07-30T07:40:45.000Z</time>
      </trkpt>
      <trkpt lat="43.75275" lon="7.06379">
        <ele>977.20001220703</ele>
        <time>2023-07-30T07:40:46.000Z</time>
      </trkpt>
      <trkpt lat="43.75275" lon="7.06379">
        <ele>977.20001220703</ele>
        <time>2023-07-30T07:40:47.000Z</time>
      </trkpt>
      <trkpt lat="43.75275" lon="7.06379">
        <ele>977.20001220703</ele>
        <time>2023-07-30T07:40:48.000Z</time>
      </trkpt>
      <trkpt lat="43.75275" lon="7.06379">
        <ele>977.20001220703</ele>
        <time>2023-07-30T07:40:49.000Z</time>
      </trkpt>
      <trkpt lat="43.75275" lon="7.06379">
        <ele>977.20001220703</ele>
        <time>2023-07-30T07:40:50.000Z</time>
      </trkpt>
      <trkpt lat="43.75275" lon="7.06379">
        <ele>977.20001220703</ele>
        <time>2023-07-30T07:40:51.000Z</time>
      </trkpt>
      <trkpt lat="43.75275" lon="7.06379">
        <ele>977.20001220703</ele>
        <time>2023-07-30T07:40:52.000Z</time>
      </trkpt>
      <trkpt lat="43.75275" lon="7.06379">
        <ele>977.20001220703</ele>
        <time>2023-07-30T07:40:53.000Z</time>
      </trkpt>
      <trkpt lat="43.75275" lon="7.06379">
        <ele>977.20001220703</ele>
        <time>2023-07-30T07:40:54.000Z</time>
      </trkpt>
      <trkpt lat="43.75275" lon="7.06379">
        <ele>977.20001220703</ele>
        <time>2023-07-30T07:40:55.000Z</time>
      </trkpt>
      <trkpt lat="43.75275" lon="7.06379">
        <ele>977.20001220703</ele>
        <time>2023-07-30T07:40:56.000Z</time>
      </trkpt>
      <trkpt lat="43.75275" lon="7.06379">
        <ele>977.20001220703</ele>
        <time>2023-07-30T07:40:57.000Z</time>
      </trkpt>
      <trkpt lat="43.75275" lon="7.06379">
        <ele>977.20001220703</ele>
        <time>2023-07-30T07:40:58.000Z</time>
      </trkpt>
      <trkpt lat="43.75275" lon="7.06379">
        <ele>977.20001220703</ele>
        <time>2023-07-30T07:40:59.000Z</time>
      </trkpt>
      <trkpt lat="43.75275" lon="7.06379">
        <ele>977.20001220703</ele>
        <time>2023-07-30T07:41:00.000Z</time>
      </trkpt>
      <trkpt lat="43.75275" lon="7.06379">
        <ele>977.20001220703</ele>
        <time>2023-07-30T07:41:01.000Z</time>
      </trkpt>
      <trkpt lat="43.75275" lon="7.06379">
        <ele>977.20001220703</ele>
        <time>2023-07-30T07:41:02.000Z</time>
      </trkpt>
      <trkpt lat="43.75275" lon="7.06379">
        <ele>977.20001220703</ele>
        <time>2023-07-30T07:41:03.000Z</time>
      </trkpt>
      <trkpt lat="43.75275" lon="7.06379">
        <ele>977</ele>
        <time>2023-07-30T07:41:04.000Z</time>
      </trkpt>
      <trkpt lat="43.75275" lon="7.06379">
        <ele>977</ele>
        <time>2023-07-30T07:41:05.000Z</time>
      </trkpt>
      <trkpt lat="43.75275" lon="7.06379">
        <ele>977</ele>
        <time>2023-07-30T07:41:06.000Z</time>
      </trkpt>
      <trkpt lat="43.75275" lon="7.06379">
        <ele>977</ele>
        <time>2023-07-30T07:41:07.000Z</time>
      </trkpt>
      <trkpt lat="43.75275" lon="7.06379">
        <ele>977</ele>
        <time>2023-07-30T07:41:08.000Z</time>
      </trkpt>
      <trkpt lat="43.75275" lon="7.06379">
        <ele>977</ele>
        <time>2023-07-30T07:41:09.000Z</time>
      </trkpt>
      <trkpt lat="43.75275" lon="7.06379">
        <ele>977</ele>
        <time>2023-07-30T07:41:10.000Z</time>
      </trkpt>
      <trkpt lat="43.75275" lon="7.06379">
        <ele>976.79998779297</ele>
        <time>2023-07-30T07:41:11.000Z</time>
      </trkpt>
      <trkpt lat="43.75275" lon="7.06379">
        <ele>976.79998779297</ele>
        <time>2023-07-30T07:41:12.000Z</time>
      </trkpt>
      <trkpt lat="43.75275" lon="7.06379">
        <ele>976.79998779297</ele>
        <time>2023-07-30T07:41:13.000Z</time>
      </trkpt>
      <trkpt lat="43.75275" lon="7.06379">
        <ele>976.79998779297</ele>
        <time>2023-07-30T07:41:14.000Z</time>
      </trkpt>
      <trkpt lat="43.75276" lon="7.06379">
        <ele>976.79998779297</ele>
        <time>2023-07-30T07:41:15.000Z</time>
      </trkpt>
      <trkpt lat="43.75276" lon="7.06379">
        <ele>977</ele>
        <time>2023-07-30T07:41:16.000Z</time>
      </trkpt>
      <trkpt lat="43.75276" lon="7.06379">
        <ele>977</ele>
        <time>2023-07-30T07:41:17.000Z</time>
      </trkpt>
      <trkpt lat="43.75276" lon="7.06379">
        <ele>977</ele>
        <time>2023-07-30T07:41:18.000Z</time>
      </trkpt>
      <trkpt lat="43.75276" lon="7.06379">
        <ele>977</ele>
        <time>2023-07-30T07:41:19.000Z</time>
      </trkpt>
      <trkpt lat="43.75276" lon="7.06379">
        <ele>977</ele>
        <time>2023-07-30T07:41:20.000Z</time>
      </trkpt>
      <trkpt lat="43.75276" lon="7.06379">
        <ele>977</ele>
        <time>2023-07-30T07:41:21.000Z</time>
      </trkpt>
      <trkpt lat="43.75276" lon="7.06379">
        <ele>977</ele>
        <time>2023-07-30T07:41:22.000Z</time>
      </trkpt>
      <trkpt lat="43.75276" lon="7.06379">
        <ele>977</ele>
        <time>2023-07-30T07:41:23.000Z</time>
      </trkpt>
      <trkpt lat="43.75276" lon="7.06379">
        <ele>977</ele>
        <time>2023-07-30T07:41:24.000Z</time>
      </trkpt>
      <trkpt lat="43.75276" lon="7.06378">
        <ele>977</ele>
        <time>2023-07-30T07:41:25.000Z</time>
      </trkpt>
      <trkpt lat="43.75275" lon="7.06378">
        <ele>977</ele>
        <time>2023-07-30T07:41:26.000Z</time>
      </trkpt>
      <trkpt lat="43.75273" lon="7.06378">
        <ele>977</ele>
        <time>2023-07-30T07:41:27.000Z</time>
      </trkpt>
      <trkpt lat="43.75272" lon="7.06377">
        <ele>977</ele>
        <time>2023-07-30T07:41:28.000Z</time>
      </trkpt>
      <trkpt lat="43.7527" lon="7.06376">
        <ele>977</ele>
        <time>2023-07-30T07:41:29.000Z</time>
      </trkpt>
      <trkpt lat="43.75268" lon="7.06374">
        <ele>976.79998779297</ele>
        <time>2023-07-30T07:41:30.000Z</time>
      </trkpt>
      <trkpt lat="43.75265" lon="7.06371">
        <ele>976.79998779297</ele>
        <time>2023-07-30T07:41:31.000Z</time>
      </trkpt>
      <trkpt lat="43.75263" lon="7.06368">
        <ele>976.79998779297</ele>
        <time>2023-07-30T07:41:32.000Z</time>
      </trkpt>
      <trkpt lat="43.7526" lon="7.06364">
        <ele>976.59997558594</ele>
        <time>2023-07-30T07:41:33.000Z</time>
      </trkpt>
      <trkpt lat="43.75257" lon="7.06361">
        <ele>976.40002441406</ele>
        <time>2023-07-30T07:41:34.000Z</time>
      </trkpt>
      <trkpt lat="43.75254" lon="7.06358">
        <ele>976.40002441406</ele>
        <time>2023-07-30T07:41:35.000Z</time>
      </trkpt>
      <trkpt lat="43.75251" lon="7.06355">
        <ele>976.20001220703</ele>
        <time>2023-07-30T07:41:36.000Z</time>
      </trkpt>
      <trkpt lat="43.75249" lon="7.0635">
        <ele>975.59997558594</ele>
        <time>2023-07-30T07:41:37.000Z</time>
      </trkpt>
      <trkpt lat="43.75247" lon="7.06345">
        <ele>975.40002441406</ele>
        <time>2023-07-30T07:41:38.000Z</time>
      </trkpt>
      <trkpt lat="43.75245" lon="7.0634">
        <ele>975.40002441406</ele>
        <time>2023-07-30T07:41:39.000Z</time>
      </trkpt>
      <trkpt lat="43.75243" lon="7.06335">
        <ele>975.40002441406</ele>
        <time>2023-07-30T07:41:40.000Z</time>
      </trkpt>
      <trkpt lat="43.75241" lon="7.06331">
        <ele>975.20001220703</ele>
        <time>2023-07-30T07:41:41.000Z</time>
      </trkpt>
      <trkpt lat="43.75239" lon="7.06326">
        <ele>975</ele>
        <time>2023-07-30T07:41:42.000Z</time>
      </trkpt>
      <trkpt lat="43.75237" lon="7.0632">
        <ele>975</ele>
        <time>2023-07-30T07:41:43.000Z</time>
      </trkpt>
      <trkpt lat="43.75234" lon="7.06314">
        <ele>974.79998779297</ele>
        <time>2023-07-30T07:41:44.000Z</time>
      </trkpt>
      <trkpt lat="43.75232" lon="7.06309">
        <ele>974.79998779297</ele>
        <time>2023-07-30T07:41:45.000Z</time>
      </trkpt>
      <trkpt lat="43.75229" lon="7.06303">
        <ele>974.79998779297</ele>
        <time>2023-07-30T07:41:46.000Z</time>
      </trkpt>
      <trkpt lat="43.75227" lon="7.06298">
        <ele>974.40002441406</ele>
        <time>2023-07-30T07:41:47.000Z</time>
      </trkpt>
      <trkpt lat="43.75225" lon="7.06295">
        <ele>973.79998779297</ele>
        <time>2023-07-30T07:41:48.000Z</time>
      </trkpt>
      <trkpt lat="43.75224" lon="7.06292">
        <ele>973.59997558594</ele>
        <time>2023-07-30T07:41:49.000Z</time>
      </trkpt>
      <trkpt lat="43.75224" lon="7.06289">
        <ele>973.40002441406</ele>
        <time>2023-07-30T07:41:50.000Z</time>
      </trkpt>
      <trkpt lat="43.75225" lon="7.06286">
        <ele>973.40002441406</ele>
        <time>2023-07-30T07:41:51.000Z</time>
      </trkpt>
      <trkpt lat="43.75226" lon="7.06283">
        <ele>973.40002441406</ele>
        <time>2023-07-30T07:41:52.000Z</time>
      </trkpt>
      <trkpt lat="43.75227" lon="7.0628">
        <ele>973.40002441406</ele>
        <time>2023-07-30T07:41:53.000Z</time>
      </trkpt>
      <trkpt lat="43.75228" lon="7.06277">
        <ele>973.59997558594</ele>
        <time>2023-07-30T07:41:54.000Z</time>
      </trkpt>
      <trkpt lat="43.75228" lon="7.06275">
        <ele>974</ele>
        <time>2023-07-30T07:41:55.000Z</time>
      </trkpt>
      <trkpt lat="43.75227" lon="7.06272">
        <ele>974.20001220703</ele>
        <time>2023-07-30T07:41:56.000Z</time>
      </trkpt>
      <trkpt lat="43.75227" lon="7.06269">
        <ele>974.59997558594</ele>
        <time>2023-07-30T07:41:57.000Z</time>
      </trkpt>
      <trkpt lat="43.75227" lon="7.06265">
        <ele>974.79998779297</ele>
        <time>2023-07-30T07:41:58.000Z</time>
      </trkpt>
      <trkpt lat="43.75227" lon="7.06262">
        <ele>975</ele>
        <time>2023-07-30T07:41:59.000Z</time>
      </trkpt>
      <trkpt lat="43.75225" lon="7.06258">
        <ele>975</ele>
        <time>2023-07-30T07:42:00.000Z</time>
      </trkpt>
      <trkpt lat="43.75225" lon="7.06255">
        <ele>975.20001220703</ele>
        <time>2023-07-30T07:42:01.000Z</time>
      </trkpt>
      <trkpt lat="43.75225" lon="7.06251">
        <ele>975.20001220703</ele>
        <time>2023-07-30T07:42:02.000Z</time>
      </trkpt>
      <trkpt lat="43.75226" lon="7.06248">
        <ele>975.20001220703</ele>
        <time>2023-07-30T07:42:03.000Z</time>
      </trkpt>
      <trkpt lat="43.75226" lon="7.06245">
        <ele>975.40002441406</ele>
        <time>2023-07-30T07:42:04.000Z</time>
      </trkpt>
      <trkpt lat="43.75225" lon="7.06242">
        <ele>975.40002441406</ele>
        <time>2023-07-30T07:42:05.000Z</time>
      </trkpt>
      <trkpt lat="43.75225" lon="7.06239">
        <ele>975.79998779297</ele>
        <time>2023-07-30T07:42:06.000Z</time>
      </trkpt>
      <trkpt lat="43.75224" lon="7.06236">
        <ele>976</ele>
        <time>2023-07-30T07:42:07.000Z</time>
      </trkpt>
      <trkpt lat="43.75223" lon="7.06233">
        <ele>976</ele>
        <time>2023-07-30T07:42:08.000Z</time>
      </trkpt>
      <trkpt lat="43.75223" lon="7.0623">
        <ele>976</ele>
        <time>2023-07-30T07:42:09.000Z</time>
      </trkpt>
      <trkpt lat="43.75223" lon="7.06227">
        <ele>976</ele>
        <time>2023-07-30T07:42:10.000Z</time>
      </trkpt>
      <trkpt lat="43.75223" lon="7.06225">
        <ele>976</ele>
        <time>2023-07-30T07:42:11.000Z</time>
      </trkpt>
      <trkpt lat="43.75222" lon="7.06222">
        <ele>976</ele>
        <time>2023-07-30T07:42:12.000Z</time>
      </trkpt>
      <trkpt lat="43.75221" lon="7.06219">
        <ele>976</ele>
        <time>2023-07-30T07:42:13.000Z</time>
      </trkpt>
      <trkpt lat="43.75219" lon="7.06217">
        <ele>976</ele>
        <time>2023-07-30T07:42:14.000Z</time>
      </trkpt>
      <trkpt lat="43.75217" lon="7.06216">
        <ele>976</ele>
        <time>2023-07-30T07:42:15.000Z</time>
      </trkpt>
      <trkpt lat="43.75215" lon="7.06213">
        <ele>976</ele>
        <time>2023-07-30T07:42:16.000Z</time>
      </trkpt>
      <trkpt lat="43.75213" lon="7.06211">
        <ele>975.59997558594</ele>
        <time>2023-07-30T07:42:17.000Z</time>
      </trkpt>
      <trkpt lat="43.75213" lon="7.0621">
        <ele>975.40002441406</ele>
        <time>2023-07-30T07:42:18.000Z</time>
      </trkpt>
      <trkpt lat="43.75212" lon="7.06209">
        <ele>975.40002441406</ele>
        <time>2023-07-30T07:42:19.000Z</time>
      </trkpt>
      <trkpt lat="43.75212" lon="7.06209">
        <ele>974.79998779297</ele>
        <time>2023-07-30T07:42:20.000Z</time>
      </trkpt>
      <trkpt lat="43.75212" lon="7.06209">
        <ele>974.40002441406</ele>
        <time>2023-07-30T07:42:21.000Z</time>
      </trkpt>
      <trkpt lat="43.75212" lon="7.06209">
        <ele>974.40002441406</ele>
        <time>2023-07-30T07:42:22.000Z</time>
      </trkpt>
      <trkpt lat="43.75212" lon="7.06209">
        <ele>974.20001220703</ele>
        <time>2023-07-30T07:42:23.000Z</time>
      </trkpt>
      <trkpt lat="43.75212" lon="7.06209">
        <ele>974</ele>
        <time>2023-07-30T07:42:24.000Z</time>
      </trkpt>
      <trkpt lat="43.75212" lon="7.06209">
        <ele>974</ele>
        <time>2023-07-30T07:42:25.000Z</time>
      </trkpt>
      <trkpt lat="43.75212" lon="7.06209">
        <ele>974</ele>
        <time>2023-07-30T07:42:26.000Z</time>
      </trkpt>
      <trkpt lat="43.75212" lon="7.06209">
        <ele>973.79998779297</ele>
        <time>2023-07-30T07:42:27.000Z</time>
      </trkpt>
      <trkpt lat="43.75212" lon="7.06209">
        <ele>973.79998779297</ele>
        <time>2023-07-30T07:42:28.000Z</time>
      </trkpt>
      <trkpt lat="43.75212" lon="7.06209">
        <ele>973.79998779297</ele>
        <time>2023-07-30T07:42:29.000Z</time>
      </trkpt>
      <trkpt lat="43.75212" lon="7.06209">
        <ele>973.79998779297</ele>
        <time>2023-07-30T07:42:30.000Z</time>
      </trkpt>
      <trkpt lat="43.75212" lon="7.06209">
        <ele>973.79998779297</ele>
        <time>2023-07-30T07:42:31.000Z</time>
      </trkpt>
      <trkpt lat="43.75212" lon="7.06209">
        <ele>973.79998779297</ele>
        <time>2023-07-30T07:42:32.000Z</time>
      </trkpt>
      <trkpt lat="43.75212" lon="7.06209">
        <ele>973.79998779297</ele>
        <time>2023-07-30T07:42:33.000Z</time>
      </trkpt>
      <trkpt lat="43.75212" lon="7.06209">
        <ele>973.79998779297</ele>
        <time>2023-07-30T07:42:34.000Z</time>
      </trkpt>
      <trkpt lat="43.75212" lon="7.06209">
        <ele>973.79998779297</ele>
        <time>2023-07-30T07:42:35.000Z</time>
      </trkpt>
      <trkpt lat="43.75212" lon="7.06209">
        <ele>973.79998779297</ele>
        <time>2023-07-30T07:42:36.000Z</time>
      </trkpt>
      <trkpt lat="43.75212" lon="7.06209">
        <ele>973.79998779297</ele>
        <time>2023-07-30T07:42:37.000Z</time>
      </trkpt>
      <trkpt lat="43.75212" lon="7.06209">
        <ele>973.59997558594</ele>
        <time>2023-07-30T07:42:38.000Z</time>
      </trkpt>
      <trkpt lat="43.75212" lon="7.06209">
        <ele>973.59997558594</ele>
        <time>2023-07-30T07:42:39.000Z</time>
      </trkpt>
      <trkpt lat="43.75212" lon="7.06209">
        <ele>973.59997558594</ele>
        <time>2023-07-30T07:42:40.000Z</time>
      </trkpt>
      <trkpt lat="43.75212" lon="7.06209">
        <ele>973.59997558594</ele>
        <time>2023-07-30T07:42:41.000Z</time>
      </trkpt>
      <trkpt lat="43.75212" lon="7.06209">
        <ele>973.59997558594</ele>
        <time>2023-07-30T07:42:42.000Z</time>
      </trkpt>
      <trkpt lat="43.75212" lon="7.06209">
        <ele>973.59997558594</ele>
        <time>2023-07-30T07:42:43.000Z</time>
      </trkpt>
      <trkpt lat="43.75212" lon="7.06209">
        <ele>973.40002441406</ele>
        <time>2023-07-30T07:42:44.000Z</time>
      </trkpt>
      <trkpt lat="43.75212" lon="7.06209">
        <ele>973.40002441406</ele>
        <time>2023-07-30T07:42:45.000Z</time>
      </trkpt>
      <trkpt lat="43.75212" lon="7.06209">
        <ele>973.40002441406</ele>
        <time>2023-07-30T07:42:46.000Z</time>
      </trkpt>
      <trkpt lat="43.75212" lon="7.06209">
        <ele>973.40002441406</ele>
        <time>2023-07-30T07:42:47.000Z</time>
      </trkpt>
      <trkpt lat="43.75212" lon="7.06209">
        <ele>973.40002441406</ele>
        <time>2023-07-30T07:42:48.000Z</time>
      </trkpt>
      <trkpt lat="43.75212" lon="7.06209">
        <ele>973.40002441406</ele>
        <time>2023-07-30T07:42:49.000Z</time>
      </trkpt>
      <trkpt lat="43.75212" lon="7.06209">
        <ele>973.40002441406</ele>
        <time>2023-07-30T07:42:50.000Z</time>
      </trkpt>
      <trkpt lat="43.75212" lon="7.06209">
        <ele>973.40002441406</ele>
        <time>2023-07-30T07:42:51.000Z</time>
      </trkpt>
      <trkpt lat="43.75212" lon="7.06209">
        <ele>973.40002441406</ele>
        <time>2023-07-30T07:42:52.000Z</time>
      </trkpt>
      <trkpt lat="43.75212" lon="7.06209">
        <ele>973.40002441406</ele>
        <time>2023-07-30T07:42:53.000Z</time>
      </trkpt>
      <trkpt lat="43.75212" lon="7.06209">
        <ele>973.40002441406</ele>
        <time>2023-07-30T07:42:54.000Z</time>
      </trkpt>
      <trkpt lat="43.75212" lon="7.06209">
        <ele>973.40002441406</ele>
        <time>2023-07-30T07:42:55.000Z</time>
      </trkpt>
      <trkpt lat="43.75212" lon="7.06209">
        <ele>973.40002441406</ele>
        <time>2023-07-30T07:42:56.000Z</time>
      </trkpt>
      <trkpt lat="43.75212" lon="7.06209">
        <ele>973.20001220703</ele>
        <time>2023-07-30T07:42:57.000Z</time>
      </trkpt>
      <trkpt lat="43.75212" lon="7.06209">
        <ele>973.20001220703</ele>
        <time>2023-07-30T07:42:58.000Z</time>
      </trkpt>
      <trkpt lat="43.75212" lon="7.06209">
        <ele>973</ele>
        <time>2023-07-30T07:42:59.000Z</time>
      </trkpt>
      <trkpt lat="43.75212" lon="7.06209">
        <ele>973</ele>
        <time>2023-07-30T07:43:00.000Z</time>
      </trkpt>
      <trkpt lat="43.75212" lon="7.06209">
        <ele>973</ele>
        <time>2023-07-30T07:43:01.000Z</time>
      </trkpt>
      <trkpt lat="43.75212" lon="7.06209">
        <ele>973</ele>
        <time>2023-07-30T07:43:02.000Z</time>
      </trkpt>
      <trkpt lat="43.75212" lon="7.06209">
        <ele>973</ele>
        <time>2023-07-30T07:43:03.000Z</time>
      </trkpt>
      <trkpt lat="43.75212" lon="7.06209">
        <ele>973</ele>
        <time>2023-07-30T07:43:04.000Z</time>
      </trkpt>
      <trkpt lat="43.75212" lon="7.06209">
        <ele>973</ele>
        <time>2023-07-30T07:43:05.000Z</time>
      </trkpt>
      <trkpt lat="43.75212" lon="7.06209">
        <ele>973</ele>
        <time>2023-07-30T07:43:06.000Z</time>
      </trkpt>
      <trkpt lat="43.75212" lon="7.06209">
        <ele>973</ele>
        <time>2023-07-30T07:43:07.000Z</time>
      </trkpt>
      <trkpt lat="43.75212" lon="7.06209">
        <ele>973</ele>
        <time>2023-07-30T07:43:08.000Z</time>
      </trkpt>
      <trkpt lat="43.75212" lon="7.06209">
        <ele>973</ele>
        <time>2023-07-30T07:43:09.000Z</time>
      </trkpt>
      <trkpt lat="43.75212" lon="7.06209">
        <ele>973.20001220703</ele>
        <time>2023-07-30T07:43:10.000Z</time>
      </trkpt>
      <trkpt lat="43.75212" lon="7.06209">
        <ele>973.20001220703</ele>
        <time>2023-07-30T07:43:11.000Z</time>
      </trkpt>
      <trkpt lat="43.75212" lon="7.06209">
        <ele>973.20001220703</ele>
        <time>2023-07-30T07:43:12.000Z</time>
      </trkpt>
      <trkpt lat="43.75212" lon="7.06209">
        <ele>973.20001220703</ele>
        <time>2023-07-30T07:43:13.000Z</time>
      </trkpt>
      <trkpt lat="43.75212" lon="7.06209">
        <ele>973.20001220703</ele>
        <time>2023-07-30T07:43:14.000Z</time>
      </trkpt>
      <trkpt lat="43.75212" lon="7.06209">
        <ele>973.20001220703</ele>
        <time>2023-07-30T07:43:15.000Z</time>
      </trkpt>
      <trkpt lat="43.75212" lon="7.06209">
        <ele>973.20001220703</ele>
        <time>2023-07-30T07:43:16.000Z</time>
      </trkpt>
      <trkpt lat="43.75212" lon="7.06209">
        <ele>973.40002441406</ele>
        <time>2023-07-30T07:43:17.000Z</time>
      </trkpt>
      <trkpt lat="43.75212" lon="7.06209">
        <ele>973.40002441406</ele>
        <time>2023-07-30T07:43:18.000Z</time>
      </trkpt>
      <trkpt lat="43.75212" lon="7.06209">
        <ele>973.40002441406</ele>
        <time>2023-07-30T07:43:19.000Z</time>
      </trkpt>
      <trkpt lat="43.75212" lon="7.06209">
        <ele>973.40002441406</ele>
        <time>2023-07-30T07:43:20.000Z</time>
      </trkpt>
      <trkpt lat="43.75212" lon="7.06209">
        <ele>973.40002441406</ele>
        <time>2023-07-30T07:43:21.000Z</time>
      </trkpt>
      <trkpt lat="43.75212" lon="7.06209">
        <ele>973.40002441406</ele>
        <time>2023-07-30T07:43:22.000Z</time>
      </trkpt>
      <trkpt lat="43.75212" lon="7.06209">
        <ele>973.40002441406</ele>
        <time>2023-07-30T07:43:23.000Z</time>
      </trkpt>
      <trkpt lat="43.75212" lon="7.06209">
        <ele>973.40002441406</ele>
        <time>2023-07-30T07:43:24.000Z</time>
      </trkpt>
      <trkpt lat="43.75212" lon="7.06209">
        <ele>973.40002441406</ele>
        <time>2023-07-30T07:43:25.000Z</time>
      </trkpt>
      <trkpt lat="43.75212" lon="7.06209">
        <ele>973.20001220703</ele>
        <time>2023-07-30T07:43:26.000Z</time>
      </trkpt>
      <trkpt lat="43.75212" lon="7.06209">
        <ele>973.20001220703</ele>
        <time>2023-07-30T07:43:27.000Z</time>
      </trkpt>
      <trkpt lat="43.75212" lon="7.06209">
        <ele>973.20001220703</ele>
        <time>2023-07-30T07:43:28.000Z</time>
      </trkpt>
      <trkpt lat="43.75212" lon="7.06209">
        <ele>973.20001220703</ele>
        <time>2023-07-30T07:43:29.000Z</time>
      </trkpt>
      <trkpt lat="43.75212" lon="7.06209">
        <ele>973.20001220703</ele>
        <time>2023-07-30T07:43:30.000Z</time>
      </trkpt>
      <trkpt lat="43.75212" lon="7.06209">
        <ele>973.20001220703</ele>
        <time>2023-07-30T07:43:31.000Z</time>
      </trkpt>
      <trkpt lat="43.75212" lon="7.06209">
        <ele>973.20001220703</ele>
        <time>2023-07-30T07:43:32.000Z</time>
      </trkpt>
      <trkpt lat="43.75212" lon="7.06209">
        <ele>973.20001220703</ele>
        <time>2023-07-30T07:43:33.000Z</time>
      </trkpt>
      <trkpt lat="43.75212" lon="7.06209">
        <ele>973.20001220703</ele>
        <time>2023-07-30T07:43:34.000Z</time>
      </trkpt>
      <trkpt lat="43.75212" lon="7.06209">
        <ele>973.20001220703</ele>
        <time>2023-07-30T07:43:35.000Z</time>
      </trkpt>
      <trkpt lat="43.75212" lon="7.06209">
        <ele>973.40002441406</ele>
        <time>2023-07-30T07:43:36.000Z</time>
      </trkpt>
      <trkpt lat="43.75212" lon="7.06209">
        <ele>973.40002441406</ele>
        <time>2023-07-30T07:43:37.000Z</time>
      </trkpt>
      <trkpt lat="43.75212" lon="7.06209">
        <ele>973.40002441406</ele>
        <time>2023-07-30T07:43:38.000Z</time>
      </trkpt>
      <trkpt lat="43.75212" lon="7.06209">
        <ele>973.40002441406</ele>
        <time>2023-07-30T07:43:39.000Z</time>
      </trkpt>
      <trkpt lat="43.75212" lon="7.06209">
        <ele>973.40002441406</ele>
        <time>2023-07-30T07:43:40.000Z</time>
      </trkpt>
      <trkpt lat="43.75212" lon="7.06209">
        <ele>973.40002441406</ele>
        <time>2023-07-30T07:43:41.000Z</time>
      </trkpt>
      <trkpt lat="43.75212" lon="7.0621">
        <ele>973.40002441406</ele>
        <time>2023-07-30T07:43:42.000Z</time>
      </trkpt>
      <trkpt lat="43.75212" lon="7.06209">
        <ele>973.40002441406</ele>
        <time>2023-07-30T07:43:43.000Z</time>
      </trkpt>
      <trkpt lat="43.75211" lon="7.06209">
        <ele>973.40002441406</ele>
        <time>2023-07-30T07:43:44.000Z</time>
      </trkpt>
      <trkpt lat="43.7521" lon="7.06207">
        <ele>973.40002441406</ele>
        <time>2023-07-30T07:43:45.000Z</time>
      </trkpt>
      <trkpt lat="43.75209" lon="7.06205">
        <ele>973.40002441406</ele>
        <time>2023-07-30T07:43:46.000Z</time>
      </trkpt>
      <trkpt lat="43.75207" lon="7.06203">
        <ele>973.40002441406</ele>
        <time>2023-07-30T07:43:47.000Z</time>
      </trkpt>
      <trkpt lat="43.75206" lon="7.062">
        <ele>973.40002441406</ele>
        <time>2023-07-30T07:43:48.000Z</time>
      </trkpt>
      <trkpt lat="43.75204" lon="7.06196">
        <ele>973.40002441406</ele>
        <time>2023-07-30T07:43:49.000Z</time>
      </trkpt>
      <trkpt lat="43.75202" lon="7.06193">
        <ele>973.40002441406</ele>
        <time>2023-07-30T07:43:50.000Z</time>
      </trkpt>
      <trkpt lat="43.752" lon="7.06189">
        <ele>973.20001220703</ele>
        <time>2023-07-30T07:43:51.000Z</time>
      </trkpt>
      <trkpt lat="43.75198" lon="7.06185">
        <ele>972.20001220703</ele>
        <time>2023-07-30T07:43:52.000Z</time>
      </trkpt>
      <trkpt lat="43.75196" lon="7.0618">
        <ele>971.79998779297</ele>
        <time>2023-07-30T07:43:53.000Z</time>
      </trkpt>
      <trkpt lat="43.75192" lon="7.06177">
        <ele>971.79998779297</ele>
        <time>2023-07-30T07:43:54.000Z</time>
      </trkpt>
      <trkpt lat="43.75189" lon="7.06174">
        <ele>971.59997558594</ele>
        <time>2023-07-30T07:43:55.000Z</time>
      </trkpt>
      <trkpt lat="43.75186" lon="7.06171">
        <ele>971</ele>
        <time>2023-07-30T07:43:56.000Z</time>
      </trkpt>
      <trkpt lat="43.75183" lon="7.06167">
        <ele>970.79998779297</ele>
        <time>2023-07-30T07:43:57.000Z</time>
      </trkpt>
      <trkpt lat="43.75181" lon="7.06163">
        <ele>970.59997558594</ele>
        <time>2023-07-30T07:43:58.000Z</time>
      </trkpt>
      <trkpt lat="43.75179" lon="7.06159">
        <ele>970.40002441406</ele>
        <time>2023-07-30T07:43:59.000Z</time>
      </trkpt>
      <trkpt lat="43.75177" lon="7.06155">
        <ele>970.40002441406</ele>
        <time>2023-07-30T07:44:00.000Z</time>
      </trkpt>
      <trkpt lat="43.75175" lon="7.06151">
        <ele>970.20001220703</ele>
        <time>2023-07-30T07:44:01.000Z</time>
      </trkpt>
      <trkpt lat="43.75173" lon="7.06148">
        <ele>970</ele>
        <time>2023-07-30T07:44:02.000Z</time>
      </trkpt>
      <trkpt lat="43.75169" lon="7.06146">
        <ele>969.79998779297</ele>
        <time>2023-07-30T07:44:03.000Z</time>
      </trkpt>
      <trkpt lat="43.75166" lon="7.06143">
        <ele>969</ele>
        <time>2023-07-30T07:44:04.000Z</time>
      </trkpt>
      <trkpt lat="43.75163" lon="7.06139">
        <ele>969</ele>
        <time>2023-07-30T07:44:05.000Z</time>
      </trkpt>
      <trkpt lat="43.7516" lon="7.06134">
        <ele>968.59997558594</ele>
        <time>2023-07-30T07:44:06.000Z</time>
      </trkpt>
      <trkpt lat="43.75158" lon="7.0613">
        <ele>967.79998779297</ele>
        <time>2023-07-30T07:44:07.000Z</time>
      </trkpt>
      <trkpt lat="43.75155" lon="7.06125">
        <ele>967.59997558594</ele>
        <time>2023-07-30T07:44:08.000Z</time>
      </trkpt>
      <trkpt lat="43.75153" lon="7.06121">
        <ele>967.20001220703</ele>
        <time>2023-07-30T07:44:09.000Z</time>
      </trkpt>
      <trkpt lat="43.7515" lon="7.06118">
        <ele>967.20001220703</ele>
        <time>2023-07-30T07:44:10.000Z</time>
      </trkpt>
      <trkpt lat="43.75147" lon="7.06115">
        <ele>967</ele>
        <time>2023-07-30T07:44:11.000Z</time>
      </trkpt>
      <trkpt lat="43.75145" lon="7.06112">
        <ele>967</ele>
        <time>2023-07-30T07:44:12.000Z</time>
      </trkpt>
      <trkpt lat="43.75142" lon="7.06109">
        <ele>967</ele>
        <time>2023-07-30T07:44:13.000Z</time>
      </trkpt>
      <trkpt lat="43.75139" lon="7.06107">
        <ele>967</ele>
        <time>2023-07-30T07:44:14.000Z</time>
      </trkpt>
      <trkpt lat="43.75136" lon="7.06105">
        <ele>966.79998779297</ele>
        <time>2023-07-30T07:44:15.000Z</time>
      </trkpt>
      <trkpt lat="43.75134" lon="7.06103">
        <ele>966.79998779297</ele>
        <time>2023-07-30T07:44:16.000Z</time>
      </trkpt>
      <trkpt lat="43.75132" lon="7.06101">
        <ele>966.79998779297</ele>
        <time>2023-07-30T07:44:17.000Z</time>
      </trkpt>
      <trkpt lat="43.7513" lon="7.06099">
        <ele>966.79998779297</ele>
        <time>2023-07-30T07:44:18.000Z</time>
      </trkpt>
      <trkpt lat="43.75127" lon="7.06097">
        <ele>966.79998779297</ele>
        <time>2023-07-30T07:44:19.000Z</time>
      </trkpt>
      <trkpt lat="43.75125" lon="7.06094">
        <ele>966.79998779297</ele>
        <time>2023-07-30T07:44:20.000Z</time>
      </trkpt>
      <trkpt lat="43.75123" lon="7.06091">
        <ele>967</ele>
        <time>2023-07-30T07:44:21.000Z</time>
      </trkpt>
      <trkpt lat="43.75122" lon="7.06088">
        <ele>967</ele>
        <time>2023-07-30T07:44:22.000Z</time>
      </trkpt>
      <trkpt lat="43.7512" lon="7.06085">
        <ele>967</ele>
        <time>2023-07-30T07:44:23.000Z</time>
      </trkpt>
      <trkpt lat="43.75118" lon="7.06083">
        <ele>967.20001220703</ele>
        <time>2023-07-30T07:44:24.000Z</time>
      </trkpt>
      <trkpt lat="43.75116" lon="7.06082">
        <ele>967.20001220703</ele>
        <time>2023-07-30T07:44:25.000Z</time>
      </trkpt>
      <trkpt lat="43.75116" lon="7.06082">
        <ele>967.20001220703</ele>
        <time>2023-07-30T07:44:26.000Z</time>
      </trkpt>
      <trkpt lat="43.75116" lon="7.06082">
        <ele>967.20001220703</ele>
        <time>2023-07-30T07:44:27.000Z</time>
      </trkpt>
      <trkpt lat="43.75116" lon="7.06082">
        <ele>967.20001220703</ele>
        <time>2023-07-30T07:44:28.000Z</time>
      </trkpt>
      <trkpt lat="43.75116" lon="7.06082">
        <ele>967</ele>
        <time>2023-07-30T07:44:29.000Z</time>
      </trkpt>
      <trkpt lat="43.75116" lon="7.06082">
        <ele>967</ele>
        <time>2023-07-30T07:44:30.000Z</time>
      </trkpt>
      <trkpt lat="43.75116" lon="7.06082">
        <ele>967</ele>
        <time>2023-07-30T07:44:31.000Z</time>
      </trkpt>
      <trkpt lat="43.75116" lon="7.06082">
        <ele>967</ele>
        <time>2023-07-30T07:44:32.000Z</time>
      </trkpt>
      <trkpt lat="43.75116" lon="7.06082">
        <ele>967</ele>
        <time>2023-07-30T07:44:33.000Z</time>
      </trkpt>
      <trkpt lat="43.75116" lon="7.06081">
        <ele>967</ele>
        <time>2023-07-30T07:44:34.000Z</time>
      </trkpt>
      <trkpt lat="43.75114" lon="7.06079">
        <ele>967</ele>
        <time>2023-07-30T07:44:35.000Z</time>
      </trkpt>
      <trkpt lat="43.75112" lon="7.06078">
        <ele>967</ele>
        <time>2023-07-30T07:44:36.000Z</time>
      </trkpt>
      <trkpt lat="43.7511" lon="7.06077">
        <ele>967</ele>
        <time>2023-07-30T07:44:37.000Z</time>
      </trkpt>
      <trkpt lat="43.75108" lon="7.06075">
        <ele>967</ele>
        <time>2023-07-30T07:44:38.000Z</time>
      </trkpt>
      <trkpt lat="43.75107" lon="7.06074">
        <ele>966.59997558594</ele>
        <time>2023-07-30T07:44:39.000Z</time>
      </trkpt>
      <trkpt lat="43.75105" lon="7.06073">
        <ele>966.40002441406</ele>
        <time>2023-07-30T07:44:40.000Z</time>
      </trkpt>
      <trkpt lat="43.75103" lon="7.06071">
        <ele>966.40002441406</ele>
        <time>2023-07-30T07:44:41.000Z</time>
      </trkpt>
      <trkpt lat="43.75101" lon="7.06071">
        <ele>966.20001220703</ele>
        <time>2023-07-30T07:44:42.000Z</time>
      </trkpt>
      <trkpt lat="43.751" lon="7.06072">
        <ele>966</ele>
        <time>2023-07-30T07:44:43.000Z</time>
      </trkpt>
      <trkpt lat="43.75098" lon="7.06073">
        <ele>965.59997558594</ele>
        <time>2023-07-30T07:44:44.000Z</time>
      </trkpt>
      <trkpt lat="43.75097" lon="7.06072">
        <ele>965.59997558594</ele>
        <time>2023-07-30T07:44:45.000Z</time>
      </trkpt>
      <trkpt lat="43.75096" lon="7.0607">
        <ele>965.20001220703</ele>
        <time>2023-07-30T07:44:46.000Z</time>
      </trkpt>
      <trkpt lat="43.75095" lon="7.06067">
        <ele>965.20001220703</ele>
        <time>2023-07-30T07:44:47.000Z</time>
      </trkpt>
      <trkpt lat="43.75093" lon="7.06065">
        <ele>964.79998779297</ele>
        <time>2023-07-30T07:44:48.000Z</time>
      </trkpt>
      <trkpt lat="43.75091" lon="7.06064">
        <ele>964.59997558594</ele>
        <time>2023-07-30T07:44:49.000Z</time>
      </trkpt>
      <trkpt lat="43.75088" lon="7.06063">
        <ele>964.20001220703</ele>
        <time>2023-07-30T07:44:50.000Z</time>
      </trkpt>
      <trkpt lat="43.75086" lon="7.06065">
        <ele>963.79998779297</ele>
        <time>2023-07-30T07:44:51.000Z</time>
      </trkpt>
      <trkpt lat="43.75083" lon="7.06067">
        <ele>963.59997558594</ele>
        <time>2023-07-30T07:44:52.000Z</time>
      </trkpt>
      <trkpt lat="43.7508" lon="7.06068">
        <ele>963.20001220703</ele>
        <time>2023-07-30T07:44:53.000Z</time>
      </trkpt>
      <trkpt lat="43.75076" lon="7.06066">
        <ele>963</ele>
        <time>2023-07-30T07:44:54.000Z</time>
      </trkpt>
      <trkpt lat="43.75075" lon="7.06062">
        <ele>962.79998779297</ele>
        <time>2023-07-30T07:44:55.000Z</time>
      </trkpt>
      <trkpt lat="43.75073" lon="7.06057">
        <ele>962.20001220703</ele>
        <time>2023-07-30T07:44:56.000Z</time>
      </trkpt>
      <trkpt lat="43.75071" lon="7.06053">
        <ele>962.20001220703</ele>
        <time>2023-07-30T07:44:57.000Z</time>
      </trkpt>
      <trkpt lat="43.75069" lon="7.06051">
        <ele>962.20001220703</ele>
        <time>2023-07-30T07:44:58.000Z</time>
      </trkpt>
      <trkpt lat="43.75068" lon="7.06049">
        <ele>962.20001220703</ele>
        <time>2023-07-30T07:44:59.000Z</time>
      </trkpt>
      <trkpt lat="43.75066" lon="7.06046">
        <ele>962.20001220703</ele>
        <time>2023-07-30T07:45:00.000Z</time>
      </trkpt>
      <trkpt lat="43.75064" lon="7.06044">
        <ele>962.20001220703</ele>
        <time>2023-07-30T07:45:01.000Z</time>
      </trkpt>
      <trkpt lat="43.75061" lon="7.06044">
        <ele>962.59997558594</ele>
        <time>2023-07-30T07:45:02.000Z</time>
      </trkpt>
      <trkpt lat="43.75059" lon="7.06042">
        <ele>963.20001220703</ele>
        <time>2023-07-30T07:45:03.000Z</time>
      </trkpt>
      <trkpt lat="43.75057" lon="7.0604">
        <ele>963.20001220703</ele>
        <time>2023-07-30T07:45:04.000Z</time>
      </trkpt>
      <trkpt lat="43.75055" lon="7.06038">
        <ele>963.40002441406</ele>
        <time>2023-07-30T07:45:05.000Z</time>
      </trkpt>
      <trkpt lat="43.75053" lon="7.06036">
        <ele>963.40002441406</ele>
        <time>2023-07-30T07:45:06.000Z</time>
      </trkpt>
      <trkpt lat="43.75052" lon="7.06034">
        <ele>963.40002441406</ele>
        <time>2023-07-30T07:45:07.000Z</time>
      </trkpt>
      <trkpt lat="43.7505" lon="7.06033">
        <ele>963.40002441406</ele>
        <time>2023-07-30T07:45:08.000Z</time>
      </trkpt>
      <trkpt lat="43.75048" lon="7.06031">
        <ele>963.40002441406</ele>
        <time>2023-07-30T07:45:09.000Z</time>
      </trkpt>
      <trkpt lat="43.75047" lon="7.06029">
        <ele>963.59997558594</ele>
        <time>2023-07-30T07:45:10.000Z</time>
      </trkpt>
      <trkpt lat="43.75044" lon="7.06027">
        <ele>963.59997558594</ele>
        <time>2023-07-30T07:45:11.000Z</time>
      </trkpt>
      <trkpt lat="43.75042" lon="7.06026">
        <ele>963.40002441406</ele>
        <time>2023-07-30T07:45:12.000Z</time>
      </trkpt>
      <trkpt lat="43.75039" lon="7.06025">
        <ele>963.40002441406</ele>
        <time>2023-07-30T07:45:13.000Z</time>
      </trkpt>
      <trkpt lat="43.75037" lon="7.06024">
        <ele>963.40002441406</ele>
        <time>2023-07-30T07:45:14.000Z</time>
      </trkpt>
      <trkpt lat="43.75034" lon="7.06022">
        <ele>963.20001220703</ele>
        <time>2023-07-30T07:45:15.000Z</time>
      </trkpt>
      <trkpt lat="43.75032" lon="7.06019">
        <ele>963.20001220703</ele>
        <time>2023-07-30T07:45:16.000Z</time>
      </trkpt>
      <trkpt lat="43.75031" lon="7.06015">
        <ele>963.20001220703</ele>
        <time>2023-07-30T07:45:17.000Z</time>
      </trkpt>
      <trkpt lat="43.7503" lon="7.06011">
        <ele>963.20001220703</ele>
        <time>2023-07-30T07:45:18.000Z</time>
      </trkpt>
      <trkpt lat="43.7503" lon="7.06008">
        <ele>963.20001220703</ele>
        <time>2023-07-30T07:45:19.000Z</time>
      </trkpt>
      <trkpt lat="43.75029" lon="7.06005">
        <ele>963.20001220703</ele>
        <time>2023-07-30T07:45:20.000Z</time>
      </trkpt>
      <trkpt lat="43.75028" lon="7.06001">
        <ele>963.20001220703</ele>
        <time>2023-07-30T07:45:21.000Z</time>
      </trkpt>
      <trkpt lat="43.75028" lon="7.05997">
        <ele>963.40002441406</ele>
        <time>2023-07-30T07:45:22.000Z</time>
      </trkpt>
      <trkpt lat="43.75028" lon="7.05994">
        <ele>963.40002441406</ele>
        <time>2023-07-30T07:45:23.000Z</time>
      </trkpt>
      <trkpt lat="43.75028" lon="7.0599">
        <ele>963.59997558594</ele>
        <time>2023-07-30T07:45:24.000Z</time>
      </trkpt>
      <trkpt lat="43.75028" lon="7.05987">
        <ele>963.59997558594</ele>
        <time>2023-07-30T07:45:25.000Z</time>
      </trkpt>
      <trkpt lat="43.75028" lon="7.05984">
        <ele>963.59997558594</ele>
        <time>2023-07-30T07:45:26.000Z</time>
      </trkpt>
      <trkpt lat="43.75027" lon="7.0598">
        <ele>963.59997558594</ele>
        <time>2023-07-30T07:45:27.000Z</time>
      </trkpt>
      <trkpt lat="43.75027" lon="7.05976">
        <ele>963.79998779297</ele>
        <time>2023-07-30T07:45:28.000Z</time>
      </trkpt>
      <trkpt lat="43.75026" lon="7.05972">
        <ele>963.79998779297</ele>
        <time>2023-07-30T07:45:29.000Z</time>
      </trkpt>
      <trkpt lat="43.75025" lon="7.05968">
        <ele>964</ele>
        <time>2023-07-30T07:45:30.000Z</time>
      </trkpt>
      <trkpt lat="43.75024" lon="7.05963">
        <ele>964</ele>
        <time>2023-07-30T07:45:31.000Z</time>
      </trkpt>
      <trkpt lat="43.75024" lon="7.05958">
        <ele>963.79998779297</ele>
        <time>2023-07-30T07:45:32.000Z</time>
      </trkpt>
      <trkpt lat="43.75024" lon="7.05953">
        <ele>963.59997558594</ele>
        <time>2023-07-30T07:45:33.000Z</time>
      </trkpt>
      <trkpt lat="43.75024" lon="7.05948">
        <ele>963.59997558594</ele>
        <time>2023-07-30T07:45:34.000Z</time>
      </trkpt>
      <trkpt lat="43.75023" lon="7.05943">
        <ele>963.40002441406</ele>
        <time>2023-07-30T07:45:35.000Z</time>
      </trkpt>
      <trkpt lat="43.75021" lon="7.0594">
        <ele>963.40002441406</ele>
        <time>2023-07-30T07:45:36.000Z</time>
      </trkpt>
      <trkpt lat="43.75019" lon="7.05936">
        <ele>963.40002441406</ele>
        <time>2023-07-30T07:45:37.000Z</time>
      </trkpt>
      <trkpt lat="43.75017" lon="7.05933">
        <ele>963.20001220703</ele>
        <time>2023-07-30T07:45:38.000Z</time>
      </trkpt>
      <trkpt lat="43.75015" lon="7.0593">
        <ele>963.20001220703</ele>
        <time>2023-07-30T07:45:39.000Z</time>
      </trkpt>
      <trkpt lat="43.75014" lon="7.05926">
        <ele>963.20001220703</ele>
        <time>2023-07-30T07:45:40.000Z</time>
      </trkpt>
      <trkpt lat="43.75013" lon="7.05923">
        <ele>962.79998779297</ele>
        <time>2023-07-30T07:45:41.000Z</time>
      </trkpt>
      <trkpt lat="43.75012" lon="7.05919">
        <ele>962.79998779297</ele>
        <time>2023-07-30T07:45:42.000Z</time>
      </trkpt>
      <trkpt lat="43.7501" lon="7.05917">
        <ele>962.79998779297</ele>
        <time>2023-07-30T07:45:43.000Z</time>
      </trkpt>
      <trkpt lat="43.75009" lon="7.05914">
        <ele>962.79998779297</ele>
        <time>2023-07-30T07:45:44.000Z</time>
      </trkpt>
      <trkpt lat="43.75008" lon="7.05911">
        <ele>963.59997558594</ele>
        <time>2023-07-30T07:45:45.000Z</time>
      </trkpt>
      <trkpt lat="43.75007" lon="7.05908">
        <ele>963.79998779297</ele>
        <time>2023-07-30T07:45:46.000Z</time>
      </trkpt>
      <trkpt lat="43.75006" lon="7.05905">
        <ele>963.79998779297</ele>
        <time>2023-07-30T07:45:47.000Z</time>
      </trkpt>
      <trkpt lat="43.75006" lon="7.05902">
        <ele>964.40002441406</ele>
        <time>2023-07-30T07:45:48.000Z</time>
      </trkpt>
      <trkpt lat="43.75005" lon="7.05898">
        <ele>964.40002441406</ele>
        <time>2023-07-30T07:45:49.000Z</time>
      </trkpt>
      <trkpt lat="43.75004" lon="7.05895">
        <ele>965</ele>
        <time>2023-07-30T07:45:50.000Z</time>
      </trkpt>
      <trkpt lat="43.75004" lon="7.05892">
        <ele>965.40002441406</ele>
        <time>2023-07-30T07:45:51.000Z</time>
      </trkpt>
      <trkpt lat="43.75003" lon="7.05888">
        <ele>965.59997558594</ele>
        <time>2023-07-30T07:45:52.000Z</time>
      </trkpt>
      <trkpt lat="43.75003" lon="7.05885">
        <ele>965.79998779297</ele>
        <time>2023-07-30T07:45:53.000Z</time>
      </trkpt>
      <trkpt lat="43.75003" lon="7.05882">
        <ele>965.79998779297</ele>
        <time>2023-07-30T07:45:54.000Z</time>
      </trkpt>
      <trkpt lat="43.75003" lon="7.05879">
        <ele>966</ele>
        <time>2023-07-30T07:45:55.000Z</time>
      </trkpt>
      <trkpt lat="43.75003" lon="7.05876">
        <ele>966.40002441406</ele>
        <time>2023-07-30T07:45:56.000Z</time>
      </trkpt>
      <trkpt lat="43.75003" lon="7.05873">
        <ele>966.59997558594</ele>
        <time>2023-07-30T07:45:57.000Z</time>
      </trkpt>
      <trkpt lat="43.75003" lon="7.0587">
        <ele>966.79998779297</ele>
        <time>2023-07-30T07:45:58.000Z</time>
      </trkpt>
      <trkpt lat="43.75003" lon="7.05867">
        <ele>967</ele>
        <time>2023-07-30T07:45:59.000Z</time>
      </trkpt>
      <trkpt lat="43.75003" lon="7.05864">
        <ele>967.20001220703</ele>
        <time>2023-07-30T07:46:00.000Z</time>
      </trkpt>
      <trkpt lat="43.75003" lon="7.05861">
        <ele>967.59997558594</ele>
        <time>2023-07-30T07:46:01.000Z</time>
      </trkpt>
      <trkpt lat="43.75002" lon="7.05859">
        <ele>967.59997558594</ele>
        <time>2023-07-30T07:46:02.000Z</time>
      </trkpt>
      <trkpt lat="43.75001" lon="7.05856">
        <ele>967.59997558594</ele>
        <time>2023-07-30T07:46:03.000Z</time>
      </trkpt>
      <trkpt lat="43.75" lon="7.05852">
        <ele>967.79998779297</ele>
        <time>2023-07-30T07:46:04.000Z</time>
      </trkpt>
      <trkpt lat="43.74999" lon="7.05849">
        <ele>967.79998779297</ele>
        <time>2023-07-30T07:46:05.000Z</time>
      </trkpt>
      <trkpt lat="43.74997" lon="7.05846">
        <ele>967.79998779297</ele>
        <time>2023-07-30T07:46:06.000Z</time>
      </trkpt>
      <trkpt lat="43.74995" lon="7.05843">
        <ele>967.59997558594</ele>
        <time>2023-07-30T07:46:07.000Z</time>
      </trkpt>
      <trkpt lat="43.74994" lon="7.0584">
        <ele>967.59997558594</ele>
        <time>2023-07-30T07:46:08.000Z</time>
      </trkpt>
      <trkpt lat="43.74993" lon="7.05836">
        <ele>967.40002441406</ele>
        <time>2023-07-30T07:46:09.000Z</time>
      </trkpt>
      <trkpt lat="43.74992" lon="7.05832">
        <ele>967.40002441406</ele>
        <time>2023-07-30T07:46:10.000Z</time>
      </trkpt>
      <trkpt lat="43.74991" lon="7.05829">
        <ele>967.40002441406</ele>
        <time>2023-07-30T07:46:11.000Z</time>
      </trkpt>
      <trkpt lat="43.74991" lon="7.05826">
        <ele>967.40002441406</ele>
        <time>2023-07-30T07:46:12.000Z</time>
      </trkpt>
      <trkpt lat="43.7499" lon="7.05822">
        <ele>967.40002441406</ele>
        <time>2023-07-30T07:46:13.000Z</time>
      </trkpt>
      <trkpt lat="43.7499" lon="7.05819">
        <ele>967.40002441406</ele>
        <time>2023-07-30T07:46:14.000Z</time>
      </trkpt>
      <trkpt lat="43.74989" lon="7.05816">
        <ele>967.40002441406</ele>
        <time>2023-07-30T07:46:15.000Z</time>
      </trkpt>
      <trkpt lat="43.74989" lon="7.05812">
        <ele>967.59997558594</ele>
        <time>2023-07-30T07:46:16.000Z</time>
      </trkpt>
      <trkpt lat="43.74988" lon="7.05809">
        <ele>967.59997558594</ele>
        <time>2023-07-30T07:46:17.000Z</time>
      </trkpt>
      <trkpt lat="43.74987" lon="7.05807">
        <ele>967.79998779297</ele>
        <time>2023-07-30T07:46:18.000Z</time>
      </trkpt>
      <trkpt lat="43.74985" lon="7.05805">
        <ele>967.79998779297</ele>
        <time>2023-07-30T07:46:19.000Z</time>
      </trkpt>
      <trkpt lat="43.74983" lon="7.05803">
        <ele>968</ele>
        <time>2023-07-30T07:46:20.000Z</time>
      </trkpt>
      <trkpt lat="43.74981" lon="7.058">
        <ele>968.20001220703</ele>
        <time>2023-07-30T07:46:21.000Z</time>
      </trkpt>
      <trkpt lat="43.74979" lon="7.05798">
        <ele>968.20001220703</ele>
        <time>2023-07-30T07:46:22.000Z</time>
      </trkpt>
      <trkpt lat="43.74978" lon="7.05796">
        <ele>968.20001220703</ele>
        <time>2023-07-30T07:46:23.000Z</time>
      </trkpt>
      <trkpt lat="43.74976" lon="7.05795">
        <ele>968.20001220703</ele>
        <time>2023-07-30T07:46:24.000Z</time>
      </trkpt>
      <trkpt lat="43.74975" lon="7.05794">
        <ele>968.20001220703</ele>
        <time>2023-07-30T07:46:25.000Z</time>
      </trkpt>
      <trkpt lat="43.74973" lon="7.05792">
        <ele>968.20001220703</ele>
        <time>2023-07-30T07:46:26.000Z</time>
      </trkpt>
      <trkpt lat="43.74971" lon="7.05791">
        <ele>968.20001220703</ele>
        <time>2023-07-30T07:46:27.000Z</time>
      </trkpt>
      <trkpt lat="43.74969" lon="7.05789">
        <ele>968.20001220703</ele>
        <time>2023-07-30T07:46:28.000Z</time>
      </trkpt>
      <trkpt lat="43.74967" lon="7.05787">
        <ele>968.20001220703</ele>
        <time>2023-07-30T07:46:29.000Z</time>
      </trkpt>
      <trkpt lat="43.74965" lon="7.05785">
        <ele>968.20001220703</ele>
        <time>2023-07-30T07:46:30.000Z</time>
      </trkpt>
      <trkpt lat="43.74964" lon="7.05783">
        <ele>968.20001220703</ele>
        <time>2023-07-30T07:46:31.000Z</time>
      </trkpt>
      <trkpt lat="43.74963" lon="7.0578">
        <ele>968</ele>
        <time>2023-07-30T07:46:32.000Z</time>
      </trkpt>
      <trkpt lat="43.74962" lon="7.05778">
        <ele>968</ele>
        <time>2023-07-30T07:46:33.000Z</time>
      </trkpt>
      <trkpt lat="43.7496" lon="7.05776">
        <ele>968</ele>
        <time>2023-07-30T07:46:34.000Z</time>
      </trkpt>
      <trkpt lat="43.74959" lon="7.05773">
        <ele>968</ele>
        <time>2023-07-30T07:46:35.000Z</time>
      </trkpt>
      <trkpt lat="43.74959" lon="7.0577">
        <ele>967.79998779297</ele>
        <time>2023-07-30T07:46:36.000Z</time>
      </trkpt>
      <trkpt lat="43.74958" lon="7.05767">
        <ele>967.79998779297</ele>
        <time>2023-07-30T07:46:37.000Z</time>
      </trkpt>
      <trkpt lat="43.74957" lon="7.05764">
        <ele>967.79998779297</ele>
        <time>2023-07-30T07:46:38.000Z</time>
      </trkpt>
      <trkpt lat="43.74957" lon="7.05762">
        <ele>967.59997558594</ele>
        <time>2023-07-30T07:46:39.000Z</time>
      </trkpt>
      <trkpt lat="43.74956" lon="7.05759">
        <ele>967.59997558594</ele>
        <time>2023-07-30T07:46:40.000Z</time>
      </trkpt>
      <trkpt lat="43.74956" lon="7.05756">
        <ele>967.59997558594</ele>
        <time>2023-07-30T07:46:41.000Z</time>
      </trkpt>
      <trkpt lat="43.74956" lon="7.05753">
        <ele>967.59997558594</ele>
        <time>2023-07-30T07:46:42.000Z</time>
      </trkpt>
      <trkpt lat="43.74956" lon="7.0575">
        <ele>967.59997558594</ele>
        <time>2023-07-30T07:46:43.000Z</time>
      </trkpt>
      <trkpt lat="43.74957" lon="7.05747">
        <ele>967.40002441406</ele>
        <time>2023-07-30T07:46:44.000Z</time>
      </trkpt>
      <trkpt lat="43.74957" lon="7.05745">
        <ele>967.40002441406</ele>
        <time>2023-07-30T07:46:45.000Z</time>
      </trkpt>
      <trkpt lat="43.74958" lon="7.05744">
        <ele>967.40002441406</ele>
        <time>2023-07-30T07:46:46.000Z</time>
      </trkpt>
      <trkpt lat="43.74958" lon="7.05743">
        <ele>967.40002441406</ele>
        <time>2023-07-30T07:46:47.000Z</time>
      </trkpt>
      <trkpt lat="43.74958" lon="7.05743">
        <ele>967.40002441406</ele>
        <time>2023-07-30T07:46:48.000Z</time>
      </trkpt>
      <trkpt lat="43.74958" lon="7.05743">
        <ele>967.40002441406</ele>
        <time>2023-07-30T07:46:49.000Z</time>
      </trkpt>
      <trkpt lat="43.74958" lon="7.05743">
        <ele>967.40002441406</ele>
        <time>2023-07-30T07:46:50.000Z</time>
      </trkpt>
      <trkpt lat="43.74958" lon="7.05743">
        <ele>967.40002441406</ele>
        <time>2023-07-30T07:46:51.000Z</time>
      </trkpt>
      <trkpt lat="43.74958" lon="7.05743">
        <ele>967.40002441406</ele>
        <time>2023-07-30T07:46:52.000Z</time>
      </trkpt>
      <trkpt lat="43.74958" lon="7.05744">
        <ele>967.40002441406</ele>
        <time>2023-07-30T07:46:53.000Z</time>
      </trkpt>
      <trkpt lat="43.74958" lon="7.05744">
        <ele>967.40002441406</ele>
        <time>2023-07-30T07:46:54.000Z</time>
      </trkpt>
      <trkpt lat="43.74958" lon="7.05744">
        <ele>967.40002441406</ele>
        <time>2023-07-30T07:46:55.000Z</time>
      </trkpt>
      <trkpt lat="43.74958" lon="7.05744">
        <ele>967.40002441406</ele>
        <time>2023-07-30T07:46:56.000Z</time>
      </trkpt>
      <trkpt lat="43.74958" lon="7.05744">
        <ele>967.40002441406</ele>
        <time>2023-07-30T07:46:57.000Z</time>
      </trkpt>
      <trkpt lat="43.74958" lon="7.05744">
        <ele>967.40002441406</ele>
        <time>2023-07-30T07:46:58.000Z</time>
      </trkpt>
      <trkpt lat="43.74958" lon="7.05744">
        <ele>967.40002441406</ele>
        <time>2023-07-30T07:46:59.000Z</time>
      </trkpt>
      <trkpt lat="43.74958" lon="7.05744">
        <ele>967.40002441406</ele>
        <time>2023-07-30T07:47:00.000Z</time>
      </trkpt>
      <trkpt lat="43.74958" lon="7.05744">
        <ele>967.40002441406</ele>
        <time>2023-07-30T07:47:01.000Z</time>
      </trkpt>
      <trkpt lat="43.74958" lon="7.05744">
        <ele>967.40002441406</ele>
        <time>2023-07-30T07:47:02.000Z</time>
      </trkpt>
      <trkpt lat="43.74958" lon="7.05744">
        <ele>967.40002441406</ele>
        <time>2023-07-30T07:47:03.000Z</time>
      </trkpt>
      <trkpt lat="43.74958" lon="7.05744">
        <ele>967.40002441406</ele>
        <time>2023-07-30T07:47:04.000Z</time>
      </trkpt>
      <trkpt lat="43.74958" lon="7.05744">
        <ele>967.40002441406</ele>
        <time>2023-07-30T07:47:05.000Z</time>
      </trkpt>
      <trkpt lat="43.74958" lon="7.05744">
        <ele>967.40002441406</ele>
        <time>2023-07-30T07:47:06.000Z</time>
      </trkpt>
      <trkpt lat="43.74958" lon="7.05744">
        <ele>967.40002441406</ele>
        <time>2023-07-30T07:47:07.000Z</time>
      </trkpt>
      <trkpt lat="43.74958" lon="7.05744">
        <ele>967.40002441406</ele>
        <time>2023-07-30T07:47:08.000Z</time>
      </trkpt>
      <trkpt lat="43.74958" lon="7.05744">
        <ele>967.40002441406</ele>
        <time>2023-07-30T07:47:09.000Z</time>
      </trkpt>
      <trkpt lat="43.74958" lon="7.05744">
        <ele>967.40002441406</ele>
        <time>2023-07-30T07:47:10.000Z</time>
      </trkpt>
      <trkpt lat="43.74958" lon="7.05744">
        <ele>967.40002441406</ele>
        <time>2023-07-30T07:47:11.000Z</time>
      </trkpt>
      <trkpt lat="43.74958" lon="7.05744">
        <ele>967.40002441406</ele>
        <time>2023-07-30T07:47:12.000Z</time>
      </trkpt>
      <trkpt lat="43.74958" lon="7.05744">
        <ele>967.40002441406</ele>
        <time>2023-07-30T07:47:13.000Z</time>
      </trkpt>
      <trkpt lat="43.74958" lon="7.05744">
        <ele>967.40002441406</ele>
        <time>2023-07-30T07:47:14.000Z</time>
      </trkpt>
      <trkpt lat="43.74958" lon="7.05744">
        <ele>967.40002441406</ele>
        <time>2023-07-30T07:47:15.000Z</time>
      </trkpt>
      <trkpt lat="43.74958" lon="7.05744">
        <ele>967.40002441406</ele>
        <time>2023-07-30T07:47:16.000Z</time>
      </trkpt>
      <trkpt lat="43.74958" lon="7.05744">
        <ele>967.20001220703</ele>
        <time>2023-07-30T07:47:17.000Z</time>
      </trkpt>
      <trkpt lat="43.74958" lon="7.05744">
        <ele>967.20001220703</ele>
        <time>2023-07-30T07:47:18.000Z</time>
      </trkpt>
      <trkpt lat="43.74958" lon="7.05744">
        <ele>967.40002441406</ele>
        <time>2023-07-30T07:47:19.000Z</time>
      </trkpt>
      <trkpt lat="43.74958" lon="7.05744">
        <ele>967.40002441406</ele>
        <time>2023-07-30T07:47:20.000Z</time>
      </trkpt>
      <trkpt lat="43.74958" lon="7.05744">
        <ele>967.40002441406</ele>
        <time>2023-07-30T07:47:21.000Z</time>
      </trkpt>
      <trkpt lat="43.74958" lon="7.05744">
        <ele>967.40002441406</ele>
        <time>2023-07-30T07:47:22.000Z</time>
      </trkpt>
      <trkpt lat="43.74958" lon="7.05744">
        <ele>967.59997558594</ele>
        <time>2023-07-30T07:47:23.000Z</time>
      </trkpt>
      <trkpt lat="43.74958" lon="7.05744">
        <ele>967.59997558594</ele>
        <time>2023-07-30T07:47:24.000Z</time>
      </trkpt>
      <trkpt lat="43.74958" lon="7.05744">
        <ele>967.59997558594</ele>
        <time>2023-07-30T07:47:25.000Z</time>
      </trkpt>
      <trkpt lat="43.74958" lon="7.05744">
        <ele>967.59997558594</ele>
        <time>2023-07-30T07:47:26.000Z</time>
      </trkpt>
      <trkpt lat="43.74958" lon="7.05744">
        <ele>967.59997558594</ele>
        <time>2023-07-30T07:47:27.000Z</time>
      </trkpt>
      <trkpt lat="43.74958" lon="7.05744">
        <ele>967.40002441406</ele>
        <time>2023-07-30T07:47:28.000Z</time>
      </trkpt>
      <trkpt lat="43.74958" lon="7.05744">
        <ele>967.40002441406</ele>
        <time>2023-07-30T07:47:29.000Z</time>
      </trkpt>
      <trkpt lat="43.74958" lon="7.05744">
        <ele>967.20001220703</ele>
        <time>2023-07-30T07:47:30.000Z</time>
      </trkpt>
      <trkpt lat="43.74958" lon="7.05744">
        <ele>967.20001220703</ele>
        <time>2023-07-30T07:47:31.000Z</time>
      </trkpt>
      <trkpt lat="43.74958" lon="7.05744">
        <ele>967.20001220703</ele>
        <time>2023-07-30T07:47:32.000Z</time>
      </trkpt>
      <trkpt lat="43.74958" lon="7.05744">
        <ele>967.20001220703</ele>
        <time>2023-07-30T07:47:33.000Z</time>
      </trkpt>
      <trkpt lat="43.74958" lon="7.05744">
        <ele>967.20001220703</ele>
        <time>2023-07-30T07:47:34.000Z</time>
      </trkpt>
      <trkpt lat="43.74958" lon="7.05744">
        <ele>967.20001220703</ele>
        <time>2023-07-30T07:47:35.000Z</time>
      </trkpt>
      <trkpt lat="43.74958" lon="7.05744">
        <ele>967.20001220703</ele>
        <time>2023-07-30T07:47:36.000Z</time>
      </trkpt>
      <trkpt lat="43.74958" lon="7.05744">
        <ele>967.20001220703</ele>
        <time>2023-07-30T07:47:37.000Z</time>
      </trkpt>
      <trkpt lat="43.74958" lon="7.05744">
        <ele>967.40002441406</ele>
        <time>2023-07-30T07:47:38.000Z</time>
      </trkpt>
      <trkpt lat="43.74958" lon="7.05744">
        <ele>967.40002441406</ele>
        <time>2023-07-30T07:47:39.000Z</time>
      </trkpt>
      <trkpt lat="43.74958" lon="7.05744">
        <ele>967.40002441406</ele>
        <time>2023-07-30T07:47:40.000Z</time>
      </trkpt>
      <trkpt lat="43.74958" lon="7.05744">
        <ele>967.40002441406</ele>
        <time>2023-07-30T07:47:41.000Z</time>
      </trkpt>
      <trkpt lat="43.74958" lon="7.05744">
        <ele>967.40002441406</ele>
        <time>2023-07-30T07:47:42.000Z</time>
      </trkpt>
      <trkpt lat="43.74958" lon="7.05744">
        <ele>967.40002441406</ele>
        <time>2023-07-30T07:47:43.000Z</time>
      </trkpt>
      <trkpt lat="43.74958" lon="7.05744">
        <ele>967.40002441406</ele>
        <time>2023-07-30T07:47:44.000Z</time>
      </trkpt>
      <trkpt lat="43.74958" lon="7.05744">
        <ele>967.40002441406</ele>
        <time>2023-07-30T07:47:45.000Z</time>
      </trkpt>
      <trkpt lat="43.74958" lon="7.05744">
        <ele>967.40002441406</ele>
        <time>2023-07-30T07:47:46.000Z</time>
      </trkpt>
      <trkpt lat="43.74958" lon="7.05744">
        <ele>967.59997558594</ele>
        <time>2023-07-30T07:47:47.000Z</time>
      </trkpt>
      <trkpt lat="43.74958" lon="7.05744">
        <ele>967.59997558594</ele>
        <time>2023-07-30T07:47:48.000Z</time>
      </trkpt>
      <trkpt lat="43.74958" lon="7.05744">
        <ele>967.59997558594</ele>
        <time>2023-07-30T07:47:49.000Z</time>
      </trkpt>
      <trkpt lat="43.74958" lon="7.05744">
        <ele>967.59997558594</ele>
        <time>2023-07-30T07:47:50.000Z</time>
      </trkpt>
      <trkpt lat="43.74958" lon="7.05744">
        <ele>967.59997558594</ele>
        <time>2023-07-30T07:47:51.000Z</time>
      </trkpt>
      <trkpt lat="43.74958" lon="7.05744">
        <ele>967.59997558594</ele>
        <time>2023-07-30T07:47:52.000Z</time>
      </trkpt>
      <trkpt lat="43.74958" lon="7.05744">
        <ele>967.40002441406</ele>
        <time>2023-07-30T07:47:53.000Z</time>
      </trkpt>
      <trkpt lat="43.74958" lon="7.05744">
        <ele>967.40002441406</ele>
        <time>2023-07-30T07:47:54.000Z</time>
      </trkpt>
      <trkpt lat="43.74958" lon="7.05744">
        <ele>967.40002441406</ele>
        <time>2023-07-30T07:47:55.000Z</time>
      </trkpt>
      <trkpt lat="43.74958" lon="7.05744">
        <ele>967.40002441406</ele>
        <time>2023-07-30T07:47:56.000Z</time>
      </trkpt>
      <trkpt lat="43.74958" lon="7.05744">
        <ele>967.40002441406</ele>
        <time>2023-07-30T07:47:57.000Z</time>
      </trkpt>
      <trkpt lat="43.74958" lon="7.05744">
        <ele>967.40002441406</ele>
        <time>2023-07-30T07:47:58.000Z</time>
      </trkpt>
      <trkpt lat="43.74958" lon="7.05744">
        <ele>967.40002441406</ele>
        <time>2023-07-30T07:47:59.000Z</time>
      </trkpt>
      <trkpt lat="43.74958" lon="7.05744">
        <ele>967.40002441406</ele>
        <time>2023-07-30T07:48:00.000Z</time>
      </trkpt>
      <trkpt lat="43.74958" lon="7.05744">
        <ele>967.40002441406</ele>
        <time>2023-07-30T07:48:01.000Z</time>
      </trkpt>
      <trkpt lat="43.74958" lon="7.05744">
        <ele>967.20001220703</ele>
        <time>2023-07-30T07:48:02.000Z</time>
      </trkpt>
      <trkpt lat="43.74958" lon="7.05744">
        <ele>967.20001220703</ele>
        <time>2023-07-30T07:48:03.000Z</time>
      </trkpt>
      <trkpt lat="43.74958" lon="7.05744">
        <ele>967.20001220703</ele>
        <time>2023-07-30T07:48:04.000Z</time>
      </trkpt>
      <trkpt lat="43.74958" lon="7.05744">
        <ele>967.20001220703</ele>
        <time>2023-07-30T07:48:05.000Z</time>
      </trkpt>
      <trkpt lat="43.74958" lon="7.05744">
        <ele>967.40002441406</ele>
        <time>2023-07-30T07:48:06.000Z</time>
      </trkpt>
      <trkpt lat="43.74958" lon="7.05744">
        <ele>967.40002441406</ele>
        <time>2023-07-30T07:48:07.000Z</time>
      </trkpt>
      <trkpt lat="43.74958" lon="7.05744">
        <ele>967.40002441406</ele>
        <time>2023-07-30T07:48:08.000Z</time>
      </trkpt>
      <trkpt lat="43.74958" lon="7.05744">
        <ele>967.40002441406</ele>
        <time>2023-07-30T07:48:09.000Z</time>
      </trkpt>
      <trkpt lat="43.74958" lon="7.05744">
        <ele>967.40002441406</ele>
        <time>2023-07-30T07:48:10.000Z</time>
      </trkpt>
      <trkpt lat="43.74958" lon="7.05744">
        <ele>967.40002441406</ele>
        <time>2023-07-30T07:48:11.000Z</time>
      </trkpt>
      <trkpt lat="43.74958" lon="7.05744">
        <ele>967.40002441406</ele>
        <time>2023-07-30T07:48:12.000Z</time>
      </trkpt>
      <trkpt lat="43.74958" lon="7.05744">
        <ele>967.40002441406</ele>
        <time>2023-07-30T07:48:13.000Z</time>
      </trkpt>
      <trkpt lat="43.74958" lon="7.05744">
        <ele>967.40002441406</ele>
        <time>2023-07-30T07:48:14.000Z</time>
      </trkpt>
      <trkpt lat="43.74958" lon="7.05744">
        <ele>967.40002441406</ele>
        <time>2023-07-30T07:48:15.000Z</time>
      </trkpt>
      <trkpt lat="43.74958" lon="7.05744">
        <ele>967.40002441406</ele>
        <time>2023-07-30T07:48:16.000Z</time>
      </trkpt>
      <trkpt lat="43.74958" lon="7.05744">
        <ele>967.40002441406</ele>
        <time>2023-07-30T07:48:17.000Z</time>
      </trkpt>
      <trkpt lat="43.74958" lon="7.05744">
        <ele>967.40002441406</ele>
        <time>2023-07-30T07:48:18.000Z</time>
      </trkpt>
      <trkpt lat="43.74958" lon="7.05744">
        <ele>967.40002441406</ele>
        <time>2023-07-30T07:48:19.000Z</time>
      </trkpt>
      <trkpt lat="43.74959" lon="7.05743">
        <ele>967.40002441406</ele>
        <time>2023-07-30T07:48:20.000Z</time>
      </trkpt>
      <trkpt lat="43.7496" lon="7.05741">
        <ele>967.40002441406</ele>
        <time>2023-07-30T07:48:21.000Z</time>
      </trkpt>
      <trkpt lat="43.74961" lon="7.05739">
        <ele>967.40002441406</ele>
        <time>2023-07-30T07:48:22.000Z</time>
      </trkpt>
      <trkpt lat="43.74962" lon="7.05737">
        <ele>967.40002441406</ele>
        <time>2023-07-30T07:48:23.000Z</time>
      </trkpt>
      <trkpt lat="43.74963" lon="7.05734">
        <ele>967.59997558594</ele>
        <time>2023-07-30T07:48:24.000Z</time>
      </trkpt>
      <trkpt lat="43.74964" lon="7.05732">
        <ele>967.79998779297</ele>
        <time>2023-07-30T07:48:25.000Z</time>
      </trkpt>
      <trkpt lat="43.74965" lon="7.05729">
        <ele>967.79998779297</ele>
        <time>2023-07-30T07:48:26.000Z</time>
      </trkpt>
      <trkpt lat="43.74966" lon="7.05726">
        <ele>968.20001220703</ele>
        <time>2023-07-30T07:48:27.000Z</time>
      </trkpt>
      <trkpt lat="43.74967" lon="7.05724">
        <ele>968.40002441406</ele>
        <time>2023-07-30T07:48:28.000Z</time>
      </trkpt>
      <trkpt lat="43.74968" lon="7.05721">
        <ele>968.59997558594</ele>
        <time>2023-07-30T07:48:29.000Z</time>
      </trkpt>
      <trkpt lat="43.74969" lon="7.05719">
        <ele>968.79998779297</ele>
        <time>2023-07-30T07:48:30.000Z</time>
      </trkpt>
      <trkpt lat="43.7497" lon="7.05717">
        <ele>969</ele>
        <time>2023-07-30T07:48:31.000Z</time>
      </trkpt>
      <trkpt lat="43.74971" lon="7.05715">
        <ele>969.40002441406</ele>
        <time>2023-07-30T07:48:32.000Z</time>
      </trkpt>
      <trkpt lat="43.74973" lon="7.05712">
        <ele>969.59997558594</ele>
        <time>2023-07-30T07:48:33.000Z</time>
      </trkpt>
      <trkpt lat="43.74974" lon="7.05709">
        <ele>969.79998779297</ele>
        <time>2023-07-30T07:48:34.000Z</time>
      </trkpt>
      <trkpt lat="43.74975" lon="7.05707">
        <ele>970</ele>
        <time>2023-07-30T07:48:35.000Z</time>
      </trkpt>
      <trkpt lat="43.74977" lon="7.05704">
        <ele>970.40002441406</ele>
        <time>2023-07-30T07:48:36.000Z</time>
      </trkpt>
      <trkpt lat="43.74978" lon="7.05702">
        <ele>970.40002441406</ele>
        <time>2023-07-30T07:48:37.000Z</time>
      </trkpt>
      <trkpt lat="43.7498" lon="7.057">
        <ele>970.79998779297</ele>
        <time>2023-07-30T07:48:38.000Z</time>
      </trkpt>
      <trkpt lat="43.74981" lon="7.05697">
        <ele>970.79998779297</ele>
        <time>2023-07-30T07:48:39.000Z</time>
      </trkpt>
      <trkpt lat="43.74982" lon="7.05695">
        <ele>970.79998779297</ele>
        <time>2023-07-30T07:48:40.000Z</time>
      </trkpt>
      <trkpt lat="43.74984" lon="7.05692">
        <ele>970.79998779297</ele>
        <time>2023-07-30T07:48:41.000Z</time>
      </trkpt>
      <trkpt lat="43.74985" lon="7.05689">
        <ele>970.79998779297</ele>
        <time>2023-07-30T07:48:42.000Z</time>
      </trkpt>
      <trkpt lat="43.74987" lon="7.05687">
        <ele>971</ele>
        <time>2023-07-30T07:48:43.000Z</time>
      </trkpt>
      <trkpt lat="43.74988" lon="7.05685">
        <ele>971.20001220703</ele>
        <time>2023-07-30T07:48:44.000Z</time>
      </trkpt>
      <trkpt lat="43.74989" lon="7.05682">
        <ele>971.40002441406</ele>
        <time>2023-07-30T07:48:45.000Z</time>
      </trkpt>
      <trkpt lat="43.74992" lon="7.0568">
        <ele>971.40002441406</ele>
        <time>2023-07-30T07:48:46.000Z</time>
      </trkpt>
      <trkpt lat="43.74994" lon="7.05679">
        <ele>971.59997558594</ele>
        <time>2023-07-30T07:48:47.000Z</time>
      </trkpt>
      <trkpt lat="43.74997" lon="7.05678">
        <ele>971.79998779297</ele>
        <time>2023-07-30T07:48:48.000Z</time>
      </trkpt>
      <trkpt lat="43.75" lon="7.05679">
        <ele>972</ele>
        <time>2023-07-30T07:48:49.000Z</time>
      </trkpt>
      <trkpt lat="43.75003" lon="7.0568">
        <ele>972</ele>
        <time>2023-07-30T07:48:50.000Z</time>
      </trkpt>
      <trkpt lat="43.75006" lon="7.0568">
        <ele>972</ele>
        <time>2023-07-30T07:48:51.000Z</time>
      </trkpt>
      <trkpt lat="43.75009" lon="7.05679">
        <ele>972.20001220703</ele>
        <time>2023-07-30T07:48:52.000Z</time>
      </trkpt>
      <trkpt lat="43.75011" lon="7.05678">
        <ele>972.20001220703</ele>
        <time>2023-07-30T07:48:53.000Z</time>
      </trkpt>
      <trkpt lat="43.75014" lon="7.05677">
        <ele>972.20001220703</ele>
        <time>2023-07-30T07:48:54.000Z</time>
      </trkpt>
      <trkpt lat="43.75016" lon="7.05675">
        <ele>972.20001220703</ele>
        <time>2023-07-30T07:48:55.000Z</time>
      </trkpt>
      <trkpt lat="43.75018" lon="7.05673">
        <ele>972.40002441406</ele>
        <time>2023-07-30T07:48:56.000Z</time>
      </trkpt>
      <trkpt lat="43.7502" lon="7.05671">
        <ele>972.59997558594</ele>
        <time>2023-07-30T07:48:57.000Z</time>
      </trkpt>
      <trkpt lat="43.75022" lon="7.0567">
        <ele>973</ele>
        <time>2023-07-30T07:48:58.000Z</time>
      </trkpt>
      <trkpt lat="43.75024" lon="7.05668">
        <ele>973.40002441406</ele>
        <time>2023-07-30T07:48:59.000Z</time>
      </trkpt>
      <trkpt lat="43.75026" lon="7.05666">
        <ele>973.79998779297</ele>
        <time>2023-07-30T07:49:00.000Z</time>
      </trkpt>
      <trkpt lat="43.75029" lon="7.05663">
        <ele>974</ele>
        <time>2023-07-30T07:49:01.000Z</time>
      </trkpt>
      <trkpt lat="43.75031" lon="7.05661">
        <ele>974.40002441406</ele>
        <time>2023-07-30T07:49:02.000Z</time>
      </trkpt>
      <trkpt lat="43.75033" lon="7.05659">
        <ele>974.59997558594</ele>
        <time>2023-07-30T07:49:03.000Z</time>
      </trkpt>
      <trkpt lat="43.75035" lon="7.05657">
        <ele>974.59997558594</ele>
        <time>2023-07-30T07:49:04.000Z</time>
      </trkpt>
      <trkpt lat="43.75037" lon="7.05654">
        <ele>974.59997558594</ele>
        <time>2023-07-30T07:49:05.000Z</time>
      </trkpt>
      <trkpt lat="43.75039" lon="7.05651">
        <ele>975</ele>
        <time>2023-07-30T07:49:06.000Z</time>
      </trkpt>
      <trkpt lat="43.7504" lon="7.05649">
        <ele>975</ele>
        <time>2023-07-30T07:49:07.000Z</time>
      </trkpt>
      <trkpt lat="43.75041" lon="7.05646">
        <ele>975</ele>
        <time>2023-07-30T07:49:08.000Z</time>
      </trkpt>
      <trkpt lat="43.75042" lon="7.05642">
        <ele>975.20001220703</ele>
        <time>2023-07-30T07:49:09.000Z</time>
      </trkpt>
      <trkpt lat="43.75043" lon="7.05639">
        <ele>975.40002441406</ele>
        <time>2023-07-30T07:49:10.000Z</time>
      </trkpt>
      <trkpt lat="43.75044" lon="7.05636">
        <ele>975.40002441406</ele>
        <time>2023-07-30T07:49:11.000Z</time>
      </trkpt>
      <trkpt lat="43.75045" lon="7.05632">
        <ele>975.59997558594</ele>
        <time>2023-07-30T07:49:12.000Z</time>
      </trkpt>
      <trkpt lat="43.75046" lon="7.0563">
        <ele>975.59997558594</ele>
        <time>2023-07-30T07:49:13.000Z</time>
      </trkpt>
      <trkpt lat="43.75048" lon="7.05626">
        <ele>975.59997558594</ele>
        <time>2023-07-30T07:49:14.000Z</time>
      </trkpt>
      <trkpt lat="43.7505" lon="7.05623">
        <ele>975.79998779297</ele>
        <time>2023-07-30T07:49:15.000Z</time>
      </trkpt>
      <trkpt lat="43.75052" lon="7.05621">
        <ele>975.79998779297</ele>
        <time>2023-07-30T07:49:16.000Z</time>
      </trkpt>
      <trkpt lat="43.75054" lon="7.05619">
        <ele>975.79998779297</ele>
        <time>2023-07-30T07:49:17.000Z</time>
      </trkpt>
      <trkpt lat="43.75056" lon="7.05617">
        <ele>975.79998779297</ele>
        <time>2023-07-30T07:49:18.000Z</time>
      </trkpt>
      <trkpt lat="43.75059" lon="7.05614">
        <ele>975.59997558594</ele>
        <time>2023-07-30T07:49:19.000Z</time>
      </trkpt>
      <trkpt lat="43.75061" lon="7.05613">
        <ele>975.59997558594</ele>
        <time>2023-07-30T07:49:20.000Z</time>
      </trkpt>
      <trkpt lat="43.75063" lon="7.0561">
        <ele>975.40002441406</ele>
        <time>2023-07-30T07:49:21.000Z</time>
      </trkpt>
      <trkpt lat="43.75065" lon="7.05608">
        <ele>975.40002441406</ele>
        <time>2023-07-30T07:49:22.000Z</time>
      </trkpt>
      <trkpt lat="43.75067" lon="7.05605">
        <ele>975.20001220703</ele>
        <time>2023-07-30T07:49:23.000Z</time>
      </trkpt>
      <trkpt lat="43.7507" lon="7.05602">
        <ele>975</ele>
        <time>2023-07-30T07:49:24.000Z</time>
      </trkpt>
      <trkpt lat="43.75072" lon="7.056">
        <ele>975</ele>
        <time>2023-07-30T07:49:25.000Z</time>
      </trkpt>
      <trkpt lat="43.75075" lon="7.05596">
        <ele>975</ele>
        <time>2023-07-30T07:49:26.000Z</time>
      </trkpt>
      <trkpt lat="43.75078" lon="7.05594">
        <ele>974.79998779297</ele>
        <time>2023-07-30T07:49:27.000Z</time>
      </trkpt>
      <trkpt lat="43.7508" lon="7.05591">
        <ele>974.40002441406</ele>
        <time>2023-07-30T07:49:28.000Z</time>
      </trkpt>
      <trkpt lat="43.75084" lon="7.05587">
        <ele>974.20001220703</ele>
        <time>2023-07-30T07:49:29.000Z</time>
      </trkpt>
      <trkpt lat="43.75087" lon="7.05584">
        <ele>973.79998779297</ele>
        <time>2023-07-30T07:49:30.000Z</time>
      </trkpt>
      <trkpt lat="43.75091" lon="7.0558">
        <ele>973.79998779297</ele>
        <time>2023-07-30T07:49:31.000Z</time>
      </trkpt>
      <trkpt lat="43.75095" lon="7.05577">
        <ele>973.79998779297</ele>
        <time>2023-07-30T07:49:32.000Z</time>
      </trkpt>
      <trkpt lat="43.75099" lon="7.05573">
        <ele>973.79998779297</ele>
        <time>2023-07-30T07:49:33.000Z</time>
      </trkpt>
      <trkpt lat="43.75104" lon="7.05568">
        <ele>973.79998779297</ele>
        <time>2023-07-30T07:49:34.000Z</time>
      </trkpt>
      <trkpt lat="43.75108" lon="7.05564">
        <ele>973.20001220703</ele>
        <time>2023-07-30T07:49:35.000Z</time>
      </trkpt>
      <trkpt lat="43.75114" lon="7.05561">
        <ele>972.40002441406</ele>
        <time>2023-07-30T07:49:36.000Z</time>
      </trkpt>
      <trkpt lat="43.75119" lon="7.05557">
        <ele>972</ele>
        <time>2023-07-30T07:49:37.000Z</time>
      </trkpt>
      <trkpt lat="43.75124" lon="7.05555">
        <ele>971.59997558594</ele>
        <time>2023-07-30T07:49:38.000Z</time>
      </trkpt>
      <trkpt lat="43.75129" lon="7.05553">
        <ele>971.40002441406</ele>
        <time>2023-07-30T07:49:39.000Z</time>
      </trkpt>
      <trkpt lat="43.75134" lon="7.0555">
        <ele>971</ele>
        <time>2023-07-30T07:49:40.000Z</time>
      </trkpt>
      <trkpt lat="43.75139" lon="7.05547">
        <ele>970.79998779297</ele>
        <time>2023-07-30T07:49:41.000Z</time>
      </trkpt>
      <trkpt lat="43.75143" lon="7.05543">
        <ele>970.59997558594</ele>
        <time>2023-07-30T07:49:42.000Z</time>
      </trkpt>
      <trkpt lat="43.75146" lon="7.05537">
        <ele>970.40002441406</ele>
        <time>2023-07-30T07:49:43.000Z</time>
      </trkpt>
      <trkpt lat="43.7515" lon="7.05532">
        <ele>970.20001220703</ele>
        <time>2023-07-30T07:49:44.000Z</time>
      </trkpt>
      <trkpt lat="43.75153" lon="7.05527">
        <ele>969.40002441406</ele>
        <time>2023-07-30T07:49:45.000Z</time>
      </trkpt>
      <trkpt lat="43.75157" lon="7.05522">
        <ele>969.20001220703</ele>
        <time>2023-07-30T07:49:46.000Z</time>
      </trkpt>
      <trkpt lat="43.7516" lon="7.05516">
        <ele>969</ele>
        <time>2023-07-30T07:49:47.000Z</time>
      </trkpt>
      <trkpt lat="43.75163" lon="7.05512">
        <ele>968.79998779297</ele>
        <time>2023-07-30T07:49:48.000Z</time>
      </trkpt>
      <trkpt lat="43.75167" lon="7.05507">
        <ele>968.59997558594</ele>
        <time>2023-07-30T07:49:49.000Z</time>
      </trkpt>
      <trkpt lat="43.7517" lon="7.05502">
        <ele>967.59997558594</ele>
        <time>2023-07-30T07:49:50.000Z</time>
      </trkpt>
      <trkpt lat="43.75174" lon="7.05496">
        <ele>967.40002441406</ele>
        <time>2023-07-30T07:49:51.000Z</time>
      </trkpt>
      <trkpt lat="43.75178" lon="7.05491">
        <ele>967.40002441406</ele>
        <time>2023-07-30T07:49:52.000Z</time>
      </trkpt>
      <trkpt lat="43.75181" lon="7.05487">
        <ele>967.40002441406</ele>
        <time>2023-07-30T07:49:53.000Z</time>
      </trkpt>
      <trkpt lat="43.75184" lon="7.05483">
        <ele>967</ele>
        <time>2023-07-30T07:49:54.000Z</time>
      </trkpt>
      <trkpt lat="43.75188" lon="7.0548">
        <ele>967</ele>
        <time>2023-07-30T07:49:55.000Z</time>
      </trkpt>
      <trkpt lat="43.75191" lon="7.05476">
        <ele>966.79998779297</ele>
        <time>2023-07-30T07:49:56.000Z</time>
      </trkpt>
      <trkpt lat="43.75195" lon="7.05474">
        <ele>966.79998779297</ele>
        <time>2023-07-30T07:49:57.000Z</time>
      </trkpt>
      <trkpt lat="43.75198" lon="7.05472">
        <ele>966.79998779297</ele>
        <time>2023-07-30T07:49:58.000Z</time>
      </trkpt>
      <trkpt lat="43.75201" lon="7.0547">
        <ele>966.79998779297</ele>
        <time>2023-07-30T07:49:59.000Z</time>
      </trkpt>
      <trkpt lat="43.75205" lon="7.05468">
        <ele>966.79998779297</ele>
        <time>2023-07-30T07:50:00.000Z</time>
      </trkpt>
      <trkpt lat="43.75208" lon="7.05465">
        <ele>966.79998779297</ele>
        <time>2023-07-30T07:50:01.000Z</time>
      </trkpt>
      <trkpt lat="43.75211" lon="7.05463">
        <ele>966.79998779297</ele>
        <time>2023-07-30T07:50:02.000Z</time>
      </trkpt>
      <trkpt lat="43.75214" lon="7.05461">
        <ele>966.79998779297</ele>
        <time>2023-07-30T07:50:03.000Z</time>
      </trkpt>
      <trkpt lat="43.75216" lon="7.05459">
        <ele>966.79998779297</ele>
        <time>2023-07-30T07:50:04.000Z</time>
      </trkpt>
      <trkpt lat="43.75219" lon="7.05458">
        <ele>966.79998779297</ele>
        <time>2023-07-30T07:50:05.000Z</time>
      </trkpt>
      <trkpt lat="43.75221" lon="7.05456">
        <ele>967</ele>
        <time>2023-07-30T07:50:06.000Z</time>
      </trkpt>
      <trkpt lat="43.75224" lon="7.05454">
        <ele>967.59997558594</ele>
        <time>2023-07-30T07:50:07.000Z</time>
      </trkpt>
      <trkpt lat="43.75226" lon="7.05452">
        <ele>967.59997558594</ele>
        <time>2023-07-30T07:50:08.000Z</time>
      </trkpt>
      <trkpt lat="43.75228" lon="7.05451">
        <ele>967.59997558594</ele>
        <time>2023-07-30T07:50:09.000Z</time>
      </trkpt>
      <trkpt lat="43.7523" lon="7.05448">
        <ele>967.59997558594</ele>
        <time>2023-07-30T07:50:10.000Z</time>
      </trkpt>
      <trkpt lat="43.75233" lon="7.05445">
        <ele>967.59997558594</ele>
        <time>2023-07-30T07:50:11.000Z</time>
      </trkpt>
      <trkpt lat="43.75235" lon="7.05443">
        <ele>967.59997558594</ele>
        <time>2023-07-30T07:50:12.000Z</time>
      </trkpt>
      <trkpt lat="43.75237" lon="7.0544">
        <ele>967.79998779297</ele>
        <time>2023-07-30T07:50:13.000Z</time>
      </trkpt>
      <trkpt lat="43.75239" lon="7.05437">
        <ele>968</ele>
        <time>2023-07-30T07:50:14.000Z</time>
      </trkpt>
      <trkpt lat="43.75242" lon="7.05434">
        <ele>968.20001220703</ele>
        <time>2023-07-30T07:50:15.000Z</time>
      </trkpt>
      <trkpt lat="43.75244" lon="7.05431">
        <ele>968.20001220703</ele>
        <time>2023-07-30T07:50:16.000Z</time>
      </trkpt>
      <trkpt lat="43.75246" lon="7.05428">
        <ele>968.20001220703</ele>
        <time>2023-07-30T07:50:17.000Z</time>
      </trkpt>
      <trkpt lat="43.75248" lon="7.05425">
        <ele>968.40002441406</ele>
        <time>2023-07-30T07:50:18.000Z</time>
      </trkpt>
      <trkpt lat="43.7525" lon="7.05423">
        <ele>969</ele>
        <time>2023-07-30T07:50:19.000Z</time>
      </trkpt>
      <trkpt lat="43.75252" lon="7.0542">
        <ele>969</ele>
        <time>2023-07-30T07:50:20.000Z</time>
      </trkpt>
      <trkpt lat="43.75255" lon="7.05419">
        <ele>969.20001220703</ele>
        <time>2023-07-30T07:50:21.000Z</time>
      </trkpt>
      <trkpt lat="43.75257" lon="7.05417">
        <ele>969.40002441406</ele>
        <time>2023-07-30T07:50:22.000Z</time>
      </trkpt>
      <trkpt lat="43.7526" lon="7.05414">
        <ele>969.40002441406</ele>
        <time>2023-07-30T07:50:23.000Z</time>
      </trkpt>
      <trkpt lat="43.75262" lon="7.05411">
        <ele>969.79998779297</ele>
        <time>2023-07-30T07:50:24.000Z</time>
      </trkpt>
      <trkpt lat="43.75264" lon="7.05407">
        <ele>969.79998779297</ele>
        <time>2023-07-30T07:50:25.000Z</time>
      </trkpt>
      <trkpt lat="43.75264" lon="7.05403">
        <ele>970.20001220703</ele>
        <time>2023-07-30T07:50:26.000Z</time>
      </trkpt>
      <trkpt lat="43.75265" lon="7.05399">
        <ele>970.40002441406</ele>
        <time>2023-07-30T07:50:27.000Z</time>
      </trkpt>
      <trkpt lat="43.75266" lon="7.05395">
        <ele>970.40002441406</ele>
        <time>2023-07-30T07:50:28.000Z</time>
      </trkpt>
      <trkpt lat="43.75268" lon="7.05391">
        <ele>970.59997558594</ele>
        <time>2023-07-30T07:50:29.000Z</time>
      </trkpt>
      <trkpt lat="43.75269" lon="7.05387">
        <ele>970.59997558594</ele>
        <time>2023-07-30T07:50:30.000Z</time>
      </trkpt>
      <trkpt lat="43.7527" lon="7.05383">
        <ele>970.79998779297</ele>
        <time>2023-07-30T07:50:31.000Z</time>
      </trkpt>
      <trkpt lat="43.75271" lon="7.05378">
        <ele>970.79998779297</ele>
        <time>2023-07-30T07:50:32.000Z</time>
      </trkpt>
      <trkpt lat="43.75272" lon="7.05375">
        <ele>971</ele>
        <time>2023-07-30T07:50:33.000Z</time>
      </trkpt>
      <trkpt lat="43.75274" lon="7.05372">
        <ele>971.20001220703</ele>
        <time>2023-07-30T07:50:34.000Z</time>
      </trkpt>
      <trkpt lat="43.75274" lon="7.05368">
        <ele>971.20001220703</ele>
        <time>2023-07-30T07:50:35.000Z</time>
      </trkpt>
      <trkpt lat="43.75275" lon="7.05365">
        <ele>971.59997558594</ele>
        <time>2023-07-30T07:50:36.000Z</time>
      </trkpt>
      <trkpt lat="43.75277" lon="7.05361">
        <ele>971.59997558594</ele>
        <time>2023-07-30T07:50:37.000Z</time>
      </trkpt>
      <trkpt lat="43.75279" lon="7.05358">
        <ele>971.79998779297</ele>
        <time>2023-07-30T07:50:38.000Z</time>
      </trkpt>
      <trkpt lat="43.7528" lon="7.05355">
        <ele>972</ele>
        <time>2023-07-30T07:50:39.000Z</time>
      </trkpt>
      <trkpt lat="43.75282" lon="7.05352">
        <ele>972.40002441406</ele>
        <time>2023-07-30T07:50:40.000Z</time>
      </trkpt>
      <trkpt lat="43.75284" lon="7.05349">
        <ele>972.59997558594</ele>
        <time>2023-07-30T07:50:41.000Z</time>
      </trkpt>
      <trkpt lat="43.75285" lon="7.05345">
        <ele>972.59997558594</ele>
        <time>2023-07-30T07:50:42.000Z</time>
      </trkpt>
      <trkpt lat="43.75286" lon="7.05342">
        <ele>972.79998779297</ele>
        <time>2023-07-30T07:50:43.000Z</time>
      </trkpt>
      <trkpt lat="43.75287" lon="7.05337">
        <ele>973</ele>
        <time>2023-07-30T07:50:44.000Z</time>
      </trkpt>
      <trkpt lat="43.75288" lon="7.05333">
        <ele>973.20001220703</ele>
        <time>2023-07-30T07:50:45.000Z</time>
      </trkpt>
      <trkpt lat="43.75289" lon="7.05329">
        <ele>973.20001220703</ele>
        <time>2023-07-30T07:50:46.000Z</time>
      </trkpt>
      <trkpt lat="43.7529" lon="7.05325">
        <ele>973.20001220703</ele>
        <time>2023-07-30T07:50:47.000Z</time>
      </trkpt>
      <trkpt lat="43.7529" lon="7.05321">
        <ele>973.40002441406</ele>
        <time>2023-07-30T07:50:48.000Z</time>
      </trkpt>
      <trkpt lat="43.75291" lon="7.05317">
        <ele>973.40002441406</ele>
        <time>2023-07-30T07:50:49.000Z</time>
      </trkpt>
      <trkpt lat="43.75292" lon="7.05313">
        <ele>973.40002441406</ele>
        <time>2023-07-30T07:50:50.000Z</time>
      </trkpt>
      <trkpt lat="43.75292" lon="7.05309">
        <ele>973.40002441406</ele>
        <time>2023-07-30T07:50:51.000Z</time>
      </trkpt>
      <trkpt lat="43.75294" lon="7.05306">
        <ele>973.40002441406</ele>
        <time>2023-07-30T07:50:52.000Z</time>
      </trkpt>
      <trkpt lat="43.75295" lon="7.05303">
        <ele>973.40002441406</ele>
        <time>2023-07-30T07:50:53.000Z</time>
      </trkpt>
      <trkpt lat="43.75297" lon="7.053">
        <ele>973.40002441406</ele>
        <time>2023-07-30T07:50:54.000Z</time>
      </trkpt>
      <trkpt lat="43.75299" lon="7.05296">
        <ele>973.20001220703</ele>
        <time>2023-07-30T07:50:55.000Z</time>
      </trkpt>
      <trkpt lat="43.75301" lon="7.05293">
        <ele>973</ele>
        <time>2023-07-30T07:50:56.000Z</time>
      </trkpt>
      <trkpt lat="43.75303" lon="7.0529">
        <ele>973</ele>
        <time>2023-07-30T07:50:57.000Z</time>
      </trkpt>
      <trkpt lat="43.75305" lon="7.05286">
        <ele>973</ele>
        <time>2023-07-30T07:50:58.000Z</time>
      </trkpt>
      <trkpt lat="43.75308" lon="7.05282">
        <ele>973</ele>
        <time>2023-07-30T07:50:59.000Z</time>
      </trkpt>
      <trkpt lat="43.7531" lon="7.05278">
        <ele>973</ele>
        <time>2023-07-30T07:51:00.000Z</time>
      </trkpt>
      <trkpt lat="43.75312" lon="7.05274">
        <ele>972.79998779297</ele>
        <time>2023-07-30T07:51:01.000Z</time>
      </trkpt>
      <trkpt lat="43.75315" lon="7.05271">
        <ele>972.79998779297</ele>
        <time>2023-07-30T07:51:02.000Z</time>
      </trkpt>
      <trkpt lat="43.75317" lon="7.05268">
        <ele>972.79998779297</ele>
        <time>2023-07-30T07:51:03.000Z</time>
      </trkpt>
      <trkpt lat="43.75319" lon="7.05265">
        <ele>972.79998779297</ele>
        <time>2023-07-30T07:51:04.000Z</time>
      </trkpt>
      <trkpt lat="43.75321" lon="7.05263">
        <ele>972.79998779297</ele>
        <time>2023-07-30T07:51:05.000Z</time>
      </trkpt>
      <trkpt lat="43.75323" lon="7.0526">
        <ele>972.79998779297</ele>
        <time>2023-07-30T07:51:06.000Z</time>
      </trkpt>
      <trkpt lat="43.75325" lon="7.05256">
        <ele>973</ele>
        <time>2023-07-30T07:51:07.000Z</time>
      </trkpt>
      <trkpt lat="43.75327" lon="7.05254">
        <ele>973</ele>
        <time>2023-07-30T07:51:08.000Z</time>
      </trkpt>
      <trkpt lat="43.75329" lon="7.05251">
        <ele>973.20001220703</ele>
        <time>2023-07-30T07:51:09.000Z</time>
      </trkpt>
      <trkpt lat="43.75332" lon="7.05247">
        <ele>973.20001220703</ele>
        <time>2023-07-30T07:51:10.000Z</time>
      </trkpt>
      <trkpt lat="43.75334" lon="7.05244">
        <ele>973.20001220703</ele>
        <time>2023-07-30T07:51:11.000Z</time>
      </trkpt>
      <trkpt lat="43.75336" lon="7.05241">
        <ele>973.20001220703</ele>
        <time>2023-07-30T07:51:12.000Z</time>
      </trkpt>
      <trkpt lat="43.75339" lon="7.05238">
        <ele>973</ele>
        <time>2023-07-30T07:51:13.000Z</time>
      </trkpt>
      <trkpt lat="43.75341" lon="7.05235">
        <ele>973.20001220703</ele>
        <time>2023-07-30T07:51:14.000Z</time>
      </trkpt>
      <trkpt lat="43.75343" lon="7.05232">
        <ele>973.20001220703</ele>
        <time>2023-07-30T07:51:15.000Z</time>
      </trkpt>
      <trkpt lat="43.75345" lon="7.05229">
        <ele>973.20001220703</ele>
        <time>2023-07-30T07:51:16.000Z</time>
      </trkpt>
      <trkpt lat="43.75347" lon="7.05226">
        <ele>973.20001220703</ele>
        <time>2023-07-30T07:51:17.000Z</time>
      </trkpt>
      <trkpt lat="43.75348" lon="7.05223">
        <ele>973.40002441406</ele>
        <time>2023-07-30T07:51:18.000Z</time>
      </trkpt>
      <trkpt lat="43.7535" lon="7.05219">
        <ele>973.59997558594</ele>
        <time>2023-07-30T07:51:19.000Z</time>
      </trkpt>
      <trkpt lat="43.75352" lon="7.05216">
        <ele>973.79998779297</ele>
        <time>2023-07-30T07:51:20.000Z</time>
      </trkpt>
      <trkpt lat="43.75355" lon="7.05213">
        <ele>973.79998779297</ele>
        <time>2023-07-30T07:51:21.000Z</time>
      </trkpt>
      <trkpt lat="43.75357" lon="7.0521">
        <ele>973.79998779297</ele>
        <time>2023-07-30T07:51:22.000Z</time>
      </trkpt>
      <trkpt lat="43.75358" lon="7.05206">
        <ele>974.20001220703</ele>
        <time>2023-07-30T07:51:23.000Z</time>
      </trkpt>
      <trkpt lat="43.7536" lon="7.05203">
        <ele>974.20001220703</ele>
        <time>2023-07-30T07:51:24.000Z</time>
      </trkpt>
      <trkpt lat="43.75362" lon="7.052">
        <ele>974.20001220703</ele>
        <time>2023-07-30T07:51:25.000Z</time>
      </trkpt>
      <trkpt lat="43.75364" lon="7.05197">
        <ele>974.59997558594</ele>
        <time>2023-07-30T07:51:26.000Z</time>
      </trkpt>
      <trkpt lat="43.75366" lon="7.05193">
        <ele>974.59997558594</ele>
        <time>2023-07-30T07:51:27.000Z</time>
      </trkpt>
      <trkpt lat="43.75368" lon="7.0519">
        <ele>974.79998779297</ele>
        <time>2023-07-30T07:51:28.000Z</time>
      </trkpt>
      <trkpt lat="43.75369" lon="7.05187">
        <ele>974.79998779297</ele>
        <time>2023-07-30T07:51:29.000Z</time>
      </trkpt>
      <trkpt lat="43.75371" lon="7.05183">
        <ele>975.20001220703</ele>
        <time>2023-07-30T07:51:30.000Z</time>
      </trkpt>
      <trkpt lat="43.75373" lon="7.05179">
        <ele>975.20001220703</ele>
        <time>2023-07-30T07:51:31.000Z</time>
      </trkpt>
      <trkpt lat="43.75375" lon="7.05175">
        <ele>975.20001220703</ele>
        <time>2023-07-30T07:51:32.000Z</time>
      </trkpt>
      <trkpt lat="43.75378" lon="7.05171">
        <ele>975.20001220703</ele>
        <time>2023-07-30T07:51:33.000Z</time>
      </trkpt>
      <trkpt lat="43.7538" lon="7.05166">
        <ele>975.20001220703</ele>
        <time>2023-07-30T07:51:34.000Z</time>
      </trkpt>
      <trkpt lat="43.75383" lon="7.0516">
        <ele>975</ele>
        <time>2023-07-30T07:51:35.000Z</time>
      </trkpt>
      <trkpt lat="43.75387" lon="7.05155">
        <ele>974.79998779297</ele>
        <time>2023-07-30T07:51:36.000Z</time>
      </trkpt>
      <trkpt lat="43.7539" lon="7.05149">
        <ele>974.40002441406</ele>
        <time>2023-07-30T07:51:37.000Z</time>
      </trkpt>
      <trkpt lat="43.75394" lon="7.05145">
        <ele>973.79998779297</ele>
        <time>2023-07-30T07:51:38.000Z</time>
      </trkpt>
      <trkpt lat="43.75399" lon="7.05142">
        <ele>973</ele>
        <time>2023-07-30T07:51:39.000Z</time>
      </trkpt>
      <trkpt lat="43.75403" lon="7.0514">
        <ele>973</ele>
        <time>2023-07-30T07:51:40.000Z</time>
      </trkpt>
      <trkpt lat="43.75407" lon="7.05139">
        <ele>973</ele>
        <time>2023-07-30T07:51:41.000Z</time>
      </trkpt>
      <trkpt lat="43.75411" lon="7.05138">
        <ele>973</ele>
        <time>2023-07-30T07:51:42.000Z</time>
      </trkpt>
      <trkpt lat="43.75415" lon="7.05137">
        <ele>973</ele>
        <time>2023-07-30T07:51:43.000Z</time>
      </trkpt>
      <trkpt lat="43.75418" lon="7.05136">
        <ele>973</ele>
        <time>2023-07-30T07:51:44.000Z</time>
      </trkpt>
      <trkpt lat="43.75421" lon="7.05134">
        <ele>973</ele>
        <time>2023-07-30T07:51:45.000Z</time>
      </trkpt>
      <trkpt lat="43.75423" lon="7.05132">
        <ele>973.20001220703</ele>
        <time>2023-07-30T07:51:46.000Z</time>
      </trkpt>
      <trkpt lat="43.75425" lon="7.05129">
        <ele>973.59997558594</ele>
        <time>2023-07-30T07:51:47.000Z</time>
      </trkpt>
      <trkpt lat="43.75428" lon="7.05127">
        <ele>973.59997558594</ele>
        <time>2023-07-30T07:51:48.000Z</time>
      </trkpt>
      <trkpt lat="43.7543" lon="7.05125">
        <ele>973.79998779297</ele>
        <time>2023-07-30T07:51:49.000Z</time>
      </trkpt>
      <trkpt lat="43.75432" lon="7.05121">
        <ele>974</ele>
        <time>2023-07-30T07:51:50.000Z</time>
      </trkpt>
      <trkpt lat="43.75434" lon="7.05118">
        <ele>974</ele>
        <time>2023-07-30T07:51:51.000Z</time>
      </trkpt>
      <trkpt lat="43.75435" lon="7.05114">
        <ele>974.40002441406</ele>
        <time>2023-07-30T07:51:52.000Z</time>
      </trkpt>
      <trkpt lat="43.75436" lon="7.0511">
        <ele>974.40002441406</ele>
        <time>2023-07-30T07:51:53.000Z</time>
      </trkpt>
      <trkpt lat="43.75438" lon="7.05106">
        <ele>974.40002441406</ele>
        <time>2023-07-30T07:51:54.000Z</time>
      </trkpt>
      <trkpt lat="43.7544" lon="7.05103">
        <ele>974.40002441406</ele>
        <time>2023-07-30T07:51:55.000Z</time>
      </trkpt>
      <trkpt lat="43.75442" lon="7.051">
        <ele>974.40002441406</ele>
        <time>2023-07-30T07:51:56.000Z</time>
      </trkpt>
      <trkpt lat="43.75443" lon="7.05096">
        <ele>974.59997558594</ele>
        <time>2023-07-30T07:51:57.000Z</time>
      </trkpt>
      <trkpt lat="43.75446" lon="7.05091">
        <ele>974.59997558594</ele>
        <time>2023-07-30T07:51:58.000Z</time>
      </trkpt>
      <trkpt lat="43.75447" lon="7.05087">
        <ele>974.59997558594</ele>
        <time>2023-07-30T07:51:59.000Z</time>
      </trkpt>
      <trkpt lat="43.75448" lon="7.05082">
        <ele>974.59997558594</ele>
        <time>2023-07-30T07:52:00.000Z</time>
      </trkpt>
      <trkpt lat="43.75449" lon="7.05077">
        <ele>974.59997558594</ele>
        <time>2023-07-30T07:52:01.000Z</time>
      </trkpt>
      <trkpt lat="43.7545" lon="7.05072">
        <ele>974.79998779297</ele>
        <time>2023-07-30T07:52:02.000Z</time>
      </trkpt>
      <trkpt lat="43.7545" lon="7.05068">
        <ele>974.59997558594</ele>
        <time>2023-07-30T07:52:03.000Z</time>
      </trkpt>
      <trkpt lat="43.75451" lon="7.05063">
        <ele>974.40002441406</ele>
        <time>2023-07-30T07:52:04.000Z</time>
      </trkpt>
      <trkpt lat="43.75452" lon="7.05058">
        <ele>974.40002441406</ele>
        <time>2023-07-30T07:52:05.000Z</time>
      </trkpt>
      <trkpt lat="43.75452" lon="7.05053">
        <ele>974.40002441406</ele>
        <time>2023-07-30T07:52:06.000Z</time>
      </trkpt>
      <trkpt lat="43.75453" lon="7.05048">
        <ele>974.20001220703</ele>
        <time>2023-07-30T07:52:07.000Z</time>
      </trkpt>
      <trkpt lat="43.75453" lon="7.05044">
        <ele>974.20001220703</ele>
        <time>2023-07-30T07:52:08.000Z</time>
      </trkpt>
      <trkpt lat="43.75454" lon="7.05039">
        <ele>974.20001220703</ele>
        <time>2023-07-30T07:52:09.000Z</time>
      </trkpt>
      <trkpt lat="43.75454" lon="7.05036">
        <ele>974.20001220703</ele>
        <time>2023-07-30T07:52:10.000Z</time>
      </trkpt>
      <trkpt lat="43.75455" lon="7.05031">
        <ele>974</ele>
        <time>2023-07-30T07:52:11.000Z</time>
      </trkpt>
      <trkpt lat="43.75456" lon="7.05027">
        <ele>974</ele>
        <time>2023-07-30T07:52:12.000Z</time>
      </trkpt>
      <trkpt lat="43.75457" lon="7.05023">
        <ele>973.79998779297</ele>
        <time>2023-07-30T07:52:13.000Z</time>
      </trkpt>
      <trkpt lat="43.75457" lon="7.05018">
        <ele>973.79998779297</ele>
        <time>2023-07-30T07:52:14.000Z</time>
      </trkpt>
      <trkpt lat="43.75458" lon="7.05013">
        <ele>973.79998779297</ele>
        <time>2023-07-30T07:52:15.000Z</time>
      </trkpt>
      <trkpt lat="43.75458" lon="7.05008">
        <ele>973.59997558594</ele>
        <time>2023-07-30T07:52:16.000Z</time>
      </trkpt>
      <trkpt lat="43.75458" lon="7.05003">
        <ele>973.79998779297</ele>
        <time>2023-07-30T07:52:17.000Z</time>
      </trkpt>
      <trkpt lat="43.75459" lon="7.04999">
        <ele>973.79998779297</ele>
        <time>2023-07-30T07:52:18.000Z</time>
      </trkpt>
      <trkpt lat="43.7546" lon="7.04995">
        <ele>973.79998779297</ele>
        <time>2023-07-30T07:52:19.000Z</time>
      </trkpt>
      <trkpt lat="43.75461" lon="7.04991">
        <ele>973.79998779297</ele>
        <time>2023-07-30T07:52:20.000Z</time>
      </trkpt>
      <trkpt lat="43.75463" lon="7.04987">
        <ele>973.79998779297</ele>
        <time>2023-07-30T07:52:21.000Z</time>
      </trkpt>
      <trkpt lat="43.75465" lon="7.04983">
        <ele>974.20001220703</ele>
        <time>2023-07-30T07:52:22.000Z</time>
      </trkpt>
      <trkpt lat="43.75468" lon="7.0498">
        <ele>974.20001220703</ele>
        <time>2023-07-30T07:52:23.000Z</time>
      </trkpt>
      <trkpt lat="43.75471" lon="7.04978">
        <ele>974.20001220703</ele>
        <time>2023-07-30T07:52:24.000Z</time>
      </trkpt>
      <trkpt lat="43.75473" lon="7.04975">
        <ele>974.40002441406</ele>
        <time>2023-07-30T07:52:25.000Z</time>
      </trkpt>
      <trkpt lat="43.75475" lon="7.04973">
        <ele>974.40002441406</ele>
        <time>2023-07-30T07:52:26.000Z</time>
      </trkpt>
      <trkpt lat="43.75477" lon="7.0497">
        <ele>974.79998779297</ele>
        <time>2023-07-30T07:52:27.000Z</time>
      </trkpt>
      <trkpt lat="43.7548" lon="7.04967">
        <ele>975.20001220703</ele>
        <time>2023-07-30T07:52:28.000Z</time>
      </trkpt>
      <trkpt lat="43.75483" lon="7.04965">
        <ele>976</ele>
        <time>2023-07-30T07:52:29.000Z</time>
      </trkpt>
      <trkpt lat="43.75485" lon="7.04963">
        <ele>976</ele>
        <time>2023-07-30T07:52:30.000Z</time>
      </trkpt>
      <trkpt lat="43.75487" lon="7.04961">
        <ele>976.59997558594</ele>
        <time>2023-07-30T07:52:31.000Z</time>
      </trkpt>
      <trkpt lat="43.75489" lon="7.0496">
        <ele>976.79998779297</ele>
        <time>2023-07-30T07:52:32.000Z</time>
      </trkpt>
      <trkpt lat="43.75492" lon="7.04958">
        <ele>977</ele>
        <time>2023-07-30T07:52:33.000Z</time>
      </trkpt>
      <trkpt lat="43.75493" lon="7.04955">
        <ele>977</ele>
        <time>2023-07-30T07:52:34.000Z</time>
      </trkpt>
      <trkpt lat="43.75495" lon="7.04952">
        <ele>977.20001220703</ele>
        <time>2023-07-30T07:52:35.000Z</time>
      </trkpt>
      <trkpt lat="43.75497" lon="7.04948">
        <ele>977.20001220703</ele>
        <time>2023-07-30T07:52:36.000Z</time>
      </trkpt>
      <trkpt lat="43.75498" lon="7.04944">
        <ele>977.20001220703</ele>
        <time>2023-07-30T07:52:37.000Z</time>
      </trkpt>
      <trkpt lat="43.75499" lon="7.04939">
        <ele>977</ele>
        <time>2023-07-30T07:52:38.000Z</time>
      </trkpt>
      <trkpt lat="43.755" lon="7.04934">
        <ele>976.79998779297</ele>
        <time>2023-07-30T07:52:39.000Z</time>
      </trkpt>
      <trkpt lat="43.75501" lon="7.04928">
        <ele>976.79998779297</ele>
        <time>2023-07-30T07:52:40.000Z</time>
      </trkpt>
      <trkpt lat="43.75502" lon="7.04922">
        <ele>976.59997558594</ele>
        <time>2023-07-30T07:52:41.000Z</time>
      </trkpt>
      <trkpt lat="43.75503" lon="7.04915">
        <ele>976.20001220703</ele>
        <time>2023-07-30T07:52:42.000Z</time>
      </trkpt>
      <trkpt lat="43.75504" lon="7.04907">
        <ele>975.59997558594</ele>
        <time>2023-07-30T07:52:43.000Z</time>
      </trkpt>
      <trkpt lat="43.75505" lon="7.04897">
        <ele>975.40002441406</ele>
        <time>2023-07-30T07:52:44.000Z</time>
      </trkpt>
      <trkpt lat="43.75505" lon="7.04888">
        <ele>975.20001220703</ele>
        <time>2023-07-30T07:52:45.000Z</time>
      </trkpt>
      <trkpt lat="43.75506" lon="7.04879">
        <ele>975</ele>
        <time>2023-07-30T07:52:46.000Z</time>
      </trkpt>
      <trkpt lat="43.75508" lon="7.04869">
        <ele>974.20001220703</ele>
        <time>2023-07-30T07:52:47.000Z</time>
      </trkpt>
      <trkpt lat="43.7551" lon="7.0486">
        <ele>973.40002441406</ele>
        <time>2023-07-30T07:52:48.000Z</time>
      </trkpt>
      <trkpt lat="43.75513" lon="7.04854">
        <ele>972.59997558594</ele>
        <time>2023-07-30T07:52:49.000Z</time>
      </trkpt>
      <trkpt lat="43.75515" lon="7.04848">
        <ele>972.40002441406</ele>
        <time>2023-07-30T07:52:50.000Z</time>
      </trkpt>
      <trkpt lat="43.75517" lon="7.04843">
        <ele>971.40002441406</ele>
        <time>2023-07-30T07:52:51.000Z</time>
      </trkpt>
      <trkpt lat="43.75519" lon="7.04838">
        <ele>971.20001220703</ele>
        <time>2023-07-30T07:52:52.000Z</time>
      </trkpt>
      <trkpt lat="43.7552" lon="7.04834">
        <ele>970.79998779297</ele>
        <time>2023-07-30T07:52:53.000Z</time>
      </trkpt>
      <trkpt lat="43.75522" lon="7.0483">
        <ele>970.79998779297</ele>
        <time>2023-07-30T07:52:54.000Z</time>
      </trkpt>
      <trkpt lat="43.75524" lon="7.04826">
        <ele>970.40002441406</ele>
        <time>2023-07-30T07:52:55.000Z</time>
      </trkpt>
      <trkpt lat="43.75525" lon="7.04822">
        <ele>970.40002441406</ele>
        <time>2023-07-30T07:52:56.000Z</time>
      </trkpt>
      <trkpt lat="43.75526" lon="7.04817">
        <ele>970.20001220703</ele>
        <time>2023-07-30T07:52:57.000Z</time>
      </trkpt>
      <trkpt lat="43.75528" lon="7.04813">
        <ele>970</ele>
        <time>2023-07-30T07:52:58.000Z</time>
      </trkpt>
      <trkpt lat="43.75529" lon="7.0481">
        <ele>970</ele>
        <time>2023-07-30T07:52:59.000Z</time>
      </trkpt>
      <trkpt lat="43.75529" lon="7.04807">
        <ele>969.59997558594</ele>
        <time>2023-07-30T07:53:00.000Z</time>
      </trkpt>
      <trkpt lat="43.7553" lon="7.04803">
        <ele>969.59997558594</ele>
        <time>2023-07-30T07:53:01.000Z</time>
      </trkpt>
      <trkpt lat="43.75531" lon="7.04801">
        <ele>969.40002441406</ele>
        <time>2023-07-30T07:53:02.000Z</time>
      </trkpt>
      <trkpt lat="43.75533" lon="7.04798">
        <ele>969.40002441406</ele>
        <time>2023-07-30T07:53:03.000Z</time>
      </trkpt>
      <trkpt lat="43.75534" lon="7.04795">
        <ele>969.20001220703</ele>
        <time>2023-07-30T07:53:04.000Z</time>
      </trkpt>
      <trkpt lat="43.75535" lon="7.04793">
        <ele>969.20001220703</ele>
        <time>2023-07-30T07:53:05.000Z</time>
      </trkpt>
      <trkpt lat="43.75536" lon="7.0479">
        <ele>968.79998779297</ele>
        <time>2023-07-30T07:53:06.000Z</time>
      </trkpt>
      <trkpt lat="43.75536" lon="7.04788">
        <ele>968.79998779297</ele>
        <time>2023-07-30T07:53:07.000Z</time>
      </trkpt>
      <trkpt lat="43.75538" lon="7.04785">
        <ele>968.79998779297</ele>
        <time>2023-07-30T07:53:08.000Z</time>
      </trkpt>
      <trkpt lat="43.75539" lon="7.04782">
        <ele>968.59997558594</ele>
        <time>2023-07-30T07:53:09.000Z</time>
      </trkpt>
      <trkpt lat="43.7554" lon="7.04779">
        <ele>968.59997558594</ele>
        <time>2023-07-30T07:53:10.000Z</time>
      </trkpt>
      <trkpt lat="43.75542" lon="7.04775">
        <ele>968.40002441406</ele>
        <time>2023-07-30T07:53:11.000Z</time>
      </trkpt>
      <trkpt lat="43.75543" lon="7.04771">
        <ele>968.40002441406</ele>
        <time>2023-07-30T07:53:12.000Z</time>
      </trkpt>
      <trkpt lat="43.75545" lon="7.04768">
        <ele>968.20001220703</ele>
        <time>2023-07-30T07:53:13.000Z</time>
      </trkpt>
      <trkpt lat="43.75547" lon="7.04764">
        <ele>968.20001220703</ele>
        <time>2023-07-30T07:53:14.000Z</time>
      </trkpt>
      <trkpt lat="43.75549" lon="7.0476">
        <ele>967.79998779297</ele>
        <time>2023-07-30T07:53:15.000Z</time>
      </trkpt>
      <trkpt lat="43.75551" lon="7.04756">
        <ele>967.79998779297</ele>
        <time>2023-07-30T07:53:16.000Z</time>
      </trkpt>
      <trkpt lat="43.75553" lon="7.04752">
        <ele>967.79998779297</ele>
        <time>2023-07-30T07:53:17.000Z</time>
      </trkpt>
      <trkpt lat="43.75555" lon="7.04749">
        <ele>967.59997558594</ele>
        <time>2023-07-30T07:53:18.000Z</time>
      </trkpt>
      <trkpt lat="43.75557" lon="7.04745">
        <ele>967.40002441406</ele>
        <time>2023-07-30T07:53:19.000Z</time>
      </trkpt>
      <trkpt lat="43.75559" lon="7.04742">
        <ele>967.40002441406</ele>
        <time>2023-07-30T07:53:20.000Z</time>
      </trkpt>
      <trkpt lat="43.75562" lon="7.0474">
        <ele>967.40002441406</ele>
        <time>2023-07-30T07:53:21.000Z</time>
      </trkpt>
      <trkpt lat="43.75564" lon="7.04737">
        <ele>967.40002441406</ele>
        <time>2023-07-30T07:53:22.000Z</time>
      </trkpt>
      <trkpt lat="43.75567" lon="7.04734">
        <ele>967.40002441406</ele>
        <time>2023-07-30T07:53:23.000Z</time>
      </trkpt>
      <trkpt lat="43.7557" lon="7.04731">
        <ele>967.40002441406</ele>
        <time>2023-07-30T07:53:24.000Z</time>
      </trkpt>
      <trkpt lat="43.75572" lon="7.04728">
        <ele>967.59997558594</ele>
        <time>2023-07-30T07:53:25.000Z</time>
      </trkpt>
      <trkpt lat="43.75574" lon="7.04725">
        <ele>967.79998779297</ele>
        <time>2023-07-30T07:53:26.000Z</time>
      </trkpt>
      <trkpt lat="43.75576" lon="7.04722">
        <ele>968.20001220703</ele>
        <time>2023-07-30T07:53:27.000Z</time>
      </trkpt>
      <trkpt lat="43.75578" lon="7.04719">
        <ele>968.20001220703</ele>
        <time>2023-07-30T07:53:28.000Z</time>
      </trkpt>
      <trkpt lat="43.7558" lon="7.04716">
        <ele>968.40002441406</ele>
        <time>2023-07-30T07:53:29.000Z</time>
      </trkpt>
      <trkpt lat="43.75582" lon="7.04713">
        <ele>968.59997558594</ele>
        <time>2023-07-30T07:53:30.000Z</time>
      </trkpt>
      <trkpt lat="43.75584" lon="7.0471">
        <ele>968.59997558594</ele>
        <time>2023-07-30T07:53:31.000Z</time>
      </trkpt>
      <trkpt lat="43.75587" lon="7.04708">
        <ele>968.59997558594</ele>
        <time>2023-07-30T07:53:32.000Z</time>
      </trkpt>
      <trkpt lat="43.75589" lon="7.04704">
        <ele>968.59997558594</ele>
        <time>2023-07-30T07:53:33.000Z</time>
      </trkpt>
      <trkpt lat="43.75591" lon="7.04702">
        <ele>968.79998779297</ele>
        <time>2023-07-30T07:53:34.000Z</time>
      </trkpt>
      <trkpt lat="43.75593" lon="7.04699">
        <ele>968.79998779297</ele>
        <time>2023-07-30T07:53:35.000Z</time>
      </trkpt>
      <trkpt lat="43.75595" lon="7.04696">
        <ele>969</ele>
        <time>2023-07-30T07:53:36.000Z</time>
      </trkpt>
      <trkpt lat="43.75597" lon="7.04693">
        <ele>969</ele>
        <time>2023-07-30T07:53:37.000Z</time>
      </trkpt>
      <trkpt lat="43.75598" lon="7.04691">
        <ele>969.20001220703</ele>
        <time>2023-07-30T07:53:38.000Z</time>
      </trkpt>
      <trkpt lat="43.756" lon="7.04688">
        <ele>969.59997558594</ele>
        <time>2023-07-30T07:53:39.000Z</time>
      </trkpt>
      <trkpt lat="43.75602" lon="7.04686">
        <ele>969.59997558594</ele>
        <time>2023-07-30T07:53:40.000Z</time>
      </trkpt>
      <trkpt lat="43.75604" lon="7.04683">
        <ele>969.59997558594</ele>
        <time>2023-07-30T07:53:41.000Z</time>
      </trkpt>
      <trkpt lat="43.75606" lon="7.04681">
        <ele>969.79998779297</ele>
        <time>2023-07-30T07:53:42.000Z</time>
      </trkpt>
      <trkpt lat="43.75607" lon="7.04679">
        <ele>969.79998779297</ele>
        <time>2023-07-30T07:53:43.000Z</time>
      </trkpt>
      <trkpt lat="43.7561" lon="7.04676">
        <ele>970.20001220703</ele>
        <time>2023-07-30T07:53:44.000Z</time>
      </trkpt>
      <trkpt lat="43.75612" lon="7.04673">
        <ele>970.20001220703</ele>
        <time>2023-07-30T07:53:45.000Z</time>
      </trkpt>
      <trkpt lat="43.75614" lon="7.04671">
        <ele>970.20001220703</ele>
        <time>2023-07-30T07:53:46.000Z</time>
      </trkpt>
      <trkpt lat="43.75617" lon="7.04669">
        <ele>970.20001220703</ele>
        <time>2023-07-30T07:53:47.000Z</time>
      </trkpt>
      <trkpt lat="43.7562" lon="7.04667">
        <ele>970.20001220703</ele>
        <time>2023-07-30T07:53:48.000Z</time>
      </trkpt>
      <trkpt lat="43.75622" lon="7.04665">
        <ele>970.20001220703</ele>
        <time>2023-07-30T07:53:49.000Z</time>
      </trkpt>
      <trkpt lat="43.75625" lon="7.04663">
        <ele>970.20001220703</ele>
        <time>2023-07-30T07:53:50.000Z</time>
      </trkpt>
      <trkpt lat="43.75627" lon="7.0466">
        <ele>970.20001220703</ele>
        <time>2023-07-30T07:53:51.000Z</time>
      </trkpt>
      <trkpt lat="43.7563" lon="7.04658">
        <ele>970.40002441406</ele>
        <time>2023-07-30T07:53:52.000Z</time>
      </trkpt>
      <trkpt lat="43.75633" lon="7.04656">
        <ele>970.40002441406</ele>
        <time>2023-07-30T07:53:53.000Z</time>
      </trkpt>
      <trkpt lat="43.75636" lon="7.04653">
        <ele>970.40002441406</ele>
        <time>2023-07-30T07:53:54.000Z</time>
      </trkpt>
      <trkpt lat="43.75639" lon="7.0465">
        <ele>970.40002441406</ele>
        <time>2023-07-30T07:53:55.000Z</time>
      </trkpt>
      <trkpt lat="43.75641" lon="7.04648">
        <ele>970.40002441406</ele>
        <time>2023-07-30T07:53:56.000Z</time>
      </trkpt>
      <trkpt lat="43.75644" lon="7.04645">
        <ele>970.40002441406</ele>
        <time>2023-07-30T07:53:57.000Z</time>
      </trkpt>
      <trkpt lat="43.75646" lon="7.04643">
        <ele>970.40002441406</ele>
        <time>2023-07-30T07:53:58.000Z</time>
      </trkpt>
      <trkpt lat="43.75649" lon="7.0464">
        <ele>970.59997558594</ele>
        <time>2023-07-30T07:53:59.000Z</time>
      </trkpt>
      <trkpt lat="43.75651" lon="7.04638">
        <ele>970.79998779297</ele>
        <time>2023-07-30T07:54:00.000Z</time>
      </trkpt>
      <trkpt lat="43.75654" lon="7.04636">
        <ele>970.79998779297</ele>
        <time>2023-07-30T07:54:01.000Z</time>
      </trkpt>
      <trkpt lat="43.75656" lon="7.04633">
        <ele>970.79998779297</ele>
        <time>2023-07-30T07:54:02.000Z</time>
      </trkpt>
      <trkpt lat="43.75659" lon="7.0463">
        <ele>971.20001220703</ele>
        <time>2023-07-30T07:54:03.000Z</time>
      </trkpt>
      <trkpt lat="43.75662" lon="7.04627">
        <ele>971.59997558594</ele>
        <time>2023-07-30T07:54:04.000Z</time>
      </trkpt>
      <trkpt lat="43.75664" lon="7.04624">
        <ele>971.59997558594</ele>
        <time>2023-07-30T07:54:05.000Z</time>
      </trkpt>
      <trkpt lat="43.75666" lon="7.04622">
        <ele>971.59997558594</ele>
        <time>2023-07-30T07:54:06.000Z</time>
      </trkpt>
      <trkpt lat="43.75669" lon="7.04619">
        <ele>971.59997558594</ele>
        <time>2023-07-30T07:54:07.000Z</time>
      </trkpt>
      <trkpt lat="43.75671" lon="7.04616">
        <ele>972.59997558594</ele>
        <time>2023-07-30T07:54:08.000Z</time>
      </trkpt>
      <trkpt lat="43.75673" lon="7.04613">
        <ele>972.79998779297</ele>
        <time>2023-07-30T07:54:09.000Z</time>
      </trkpt>
      <trkpt lat="43.75676" lon="7.0461">
        <ele>972.79998779297</ele>
        <time>2023-07-30T07:54:10.000Z</time>
      </trkpt>
      <trkpt lat="43.75678" lon="7.04607">
        <ele>973</ele>
        <time>2023-07-30T07:54:11.000Z</time>
      </trkpt>
      <trkpt lat="43.7568" lon="7.04605">
        <ele>973.40002441406</ele>
        <time>2023-07-30T07:54:12.000Z</time>
      </trkpt>
      <trkpt lat="43.75682" lon="7.04603">
        <ele>973.40002441406</ele>
        <time>2023-07-30T07:54:13.000Z</time>
      </trkpt>
      <trkpt lat="43.75684" lon="7.04601">
        <ele>973.40002441406</ele>
        <time>2023-07-30T07:54:14.000Z</time>
      </trkpt>
      <trkpt lat="43.75686" lon="7.04598">
        <ele>973.59997558594</ele>
        <time>2023-07-30T07:54:15.000Z</time>
      </trkpt>
      <trkpt lat="43.75688" lon="7.04596">
        <ele>973.59997558594</ele>
        <time>2023-07-30T07:54:16.000Z</time>
      </trkpt>
      <trkpt lat="43.7569" lon="7.04594">
        <ele>973.59997558594</ele>
        <time>2023-07-30T07:54:17.000Z</time>
      </trkpt>
      <trkpt lat="43.75692" lon="7.04591">
        <ele>973.59997558594</ele>
        <time>2023-07-30T07:54:18.000Z</time>
      </trkpt>
      <trkpt lat="43.75693" lon="7.04588">
        <ele>973.79998779297</ele>
        <time>2023-07-30T07:54:19.000Z</time>
      </trkpt>
      <trkpt lat="43.75694" lon="7.04585">
        <ele>974</ele>
        <time>2023-07-30T07:54:20.000Z</time>
      </trkpt>
      <trkpt lat="43.75694" lon="7.04581">
        <ele>974</ele>
        <time>2023-07-30T07:54:21.000Z</time>
      </trkpt>
      <trkpt lat="43.75695" lon="7.04577">
        <ele>974</ele>
        <time>2023-07-30T07:54:22.000Z</time>
      </trkpt>
      <trkpt lat="43.75697" lon="7.04573">
        <ele>974</ele>
        <time>2023-07-30T07:54:23.000Z</time>
      </trkpt>
      <trkpt lat="43.75699" lon="7.04571">
        <ele>974</ele>
        <time>2023-07-30T07:54:24.000Z</time>
      </trkpt>
      <trkpt lat="43.75701" lon="7.04569">
        <ele>973.79998779297</ele>
        <time>2023-07-30T07:54:25.000Z</time>
      </trkpt>
      <trkpt lat="43.75703" lon="7.04567">
        <ele>973.79998779297</ele>
        <time>2023-07-30T07:54:26.000Z</time>
      </trkpt>
      <trkpt lat="43.75705" lon="7.04565">
        <ele>973.59997558594</ele>
        <time>2023-07-30T07:54:27.000Z</time>
      </trkpt>
      <trkpt lat="43.75708" lon="7.04564">
        <ele>973.59997558594</ele>
        <time>2023-07-30T07:54:28.000Z</time>
      </trkpt>
      <trkpt lat="43.7571" lon="7.04563">
        <ele>973.40002441406</ele>
        <time>2023-07-30T07:54:29.000Z</time>
      </trkpt>
      <trkpt lat="43.75712" lon="7.04564">
        <ele>973.40002441406</ele>
        <time>2023-07-30T07:54:30.000Z</time>
      </trkpt>
      <trkpt lat="43.75713" lon="7.04565">
        <ele>973.59997558594</ele>
        <time>2023-07-30T07:54:31.000Z</time>
      </trkpt>
      <trkpt lat="43.75714" lon="7.04567">
        <ele>973.59997558594</ele>
        <time>2023-07-30T07:54:32.000Z</time>
      </trkpt>
      <trkpt lat="43.75716" lon="7.04566">
        <ele>973.59997558594</ele>
        <time>2023-07-30T07:54:33.000Z</time>
      </trkpt>
      <trkpt lat="43.75717" lon="7.04565">
        <ele>973.59997558594</ele>
        <time>2023-07-30T07:54:34.000Z</time>
      </trkpt>
      <trkpt lat="43.75719" lon="7.04563">
        <ele>973.59997558594</ele>
        <time>2023-07-30T07:54:35.000Z</time>
      </trkpt>
      <trkpt lat="43.75721" lon="7.04563">
        <ele>973.59997558594</ele>
        <time>2023-07-30T07:54:36.000Z</time>
      </trkpt>
      <trkpt lat="43.75723" lon="7.04562">
        <ele>973.59997558594</ele>
        <time>2023-07-30T07:54:37.000Z</time>
      </trkpt>
      <trkpt lat="43.75723" lon="7.0456">
        <ele>973.59997558594</ele>
        <time>2023-07-30T07:54:38.000Z</time>
      </trkpt>
      <trkpt lat="43.75724" lon="7.04558">
        <ele>973.59997558594</ele>
        <time>2023-07-30T07:54:39.000Z</time>
      </trkpt>
      <trkpt lat="43.75723" lon="7.04557">
        <ele>973.79998779297</ele>
        <time>2023-07-30T07:54:40.000Z</time>
      </trkpt>
      <trkpt lat="43.75724" lon="7.04557">
        <ele>973.79998779297</ele>
        <time>2023-07-30T07:54:41.000Z</time>
      </trkpt>
      <trkpt lat="43.75724" lon="7.04557">
        <ele>973.79998779297</ele>
        <time>2023-07-30T07:54:42.000Z</time>
      </trkpt>
      <trkpt lat="43.75724" lon="7.04557">
        <ele>974</ele>
        <time>2023-07-30T07:54:43.000Z</time>
      </trkpt>
      <trkpt lat="43.75723" lon="7.04557">
        <ele>974</ele>
        <time>2023-07-30T07:54:44.000Z</time>
      </trkpt>
      <trkpt lat="43.75724" lon="7.04557">
        <ele>974.20001220703</ele>
        <time>2023-07-30T07:54:45.000Z</time>
      </trkpt>
      <trkpt lat="43.75724" lon="7.04557">
        <ele>974.20001220703</ele>
        <time>2023-07-30T07:54:46.000Z</time>
      </trkpt>
      <trkpt lat="43.75724" lon="7.04557">
        <ele>974.40002441406</ele>
        <time>2023-07-30T07:54:47.000Z</time>
      </trkpt>
      <trkpt lat="43.75724" lon="7.04557">
        <ele>974.40002441406</ele>
        <time>2023-07-30T07:54:48.000Z</time>
      </trkpt>
      <trkpt lat="43.75724" lon="7.04557">
        <ele>974.40002441406</ele>
        <time>2023-07-30T07:54:49.000Z</time>
      </trkpt>
      <trkpt lat="43.75724" lon="7.04557">
        <ele>974.40002441406</ele>
        <time>2023-07-30T07:54:50.000Z</time>
      </trkpt>
      <trkpt lat="43.75724" lon="7.04557">
        <ele>974.40002441406</ele>
        <time>2023-07-30T07:54:51.000Z</time>
      </trkpt>
      <trkpt lat="43.75724" lon="7.04557">
        <ele>974.40002441406</ele>
        <time>2023-07-30T07:54:52.000Z</time>
      </trkpt>
      <trkpt lat="43.75724" lon="7.04557">
        <ele>974.40002441406</ele>
        <time>2023-07-30T07:54:53.000Z</time>
      </trkpt>
      <trkpt lat="43.75724" lon="7.04557">
        <ele>974.40002441406</ele>
        <time>2023-07-30T07:54:54.000Z</time>
      </trkpt>
      <trkpt lat="43.75724" lon="7.04557">
        <ele>974.40002441406</ele>
        <time>2023-07-30T07:54:55.000Z</time>
      </trkpt>
      <trkpt lat="43.75724" lon="7.04557">
        <ele>974.40002441406</ele>
        <time>2023-07-30T07:54:56.000Z</time>
      </trkpt>
      <trkpt lat="43.75724" lon="7.04557">
        <ele>974.40002441406</ele>
        <time>2023-07-30T07:54:57.000Z</time>
      </trkpt>
      <trkpt lat="43.75724" lon="7.04557">
        <ele>974.40002441406</ele>
        <time>2023-07-30T07:54:58.000Z</time>
      </trkpt>
      <trkpt lat="43.75724" lon="7.04557">
        <ele>974.40002441406</ele>
        <time>2023-07-30T07:54:59.000Z</time>
      </trkpt>
      <trkpt lat="43.75724" lon="7.04557">
        <ele>974.40002441406</ele>
        <time>2023-07-30T07:55:00.000Z</time>
      </trkpt>
      <trkpt lat="43.75724" lon="7.04557">
        <ele>974.40002441406</ele>
        <time>2023-07-30T07:55:01.000Z</time>
      </trkpt>
      <trkpt lat="43.75724" lon="7.04557">
        <ele>974.20001220703</ele>
        <time>2023-07-30T07:55:02.000Z</time>
      </trkpt>
      <trkpt lat="43.75724" lon="7.04557">
        <ele>974.40002441406</ele>
        <time>2023-07-30T07:55:03.000Z</time>
      </trkpt>
      <trkpt lat="43.75724" lon="7.04557">
        <ele>974.40002441406</ele>
        <time>2023-07-30T07:55:04.000Z</time>
      </trkpt>
      <trkpt lat="43.75724" lon="7.04557">
        <ele>974.40002441406</ele>
        <time>2023-07-30T07:55:05.000Z</time>
      </trkpt>
      <trkpt lat="43.75724" lon="7.04557">
        <ele>974.40002441406</ele>
        <time>2023-07-30T07:55:06.000Z</time>
      </trkpt>
      <trkpt lat="43.75724" lon="7.04557">
        <ele>974.40002441406</ele>
        <time>2023-07-30T07:55:07.000Z</time>
      </trkpt>
      <trkpt lat="43.75723" lon="7.04557">
        <ele>974.40002441406</ele>
        <time>2023-07-30T07:55:08.000Z</time>
      </trkpt>
      <trkpt lat="43.75723" lon="7.04557">
        <ele>974.59997558594</ele>
        <time>2023-07-30T07:55:09.000Z</time>
      </trkpt>
      <trkpt lat="43.75724" lon="7.04557">
        <ele>974.59997558594</ele>
        <time>2023-07-30T07:55:10.000Z</time>
      </trkpt>
      <trkpt lat="43.75724" lon="7.04557">
        <ele>974.20001220703</ele>
        <time>2023-07-30T07:55:11.000Z</time>
      </trkpt>
      <trkpt lat="43.75724" lon="7.04557">
        <ele>974.20001220703</ele>
        <time>2023-07-30T07:55:12.000Z</time>
      </trkpt>
      <trkpt lat="43.75724" lon="7.04557">
        <ele>974.20001220703</ele>
        <time>2023-07-30T07:55:13.000Z</time>
      </trkpt>
      <trkpt lat="43.75724" lon="7.04557">
        <ele>973.79998779297</ele>
        <time>2023-07-30T07:55:14.000Z</time>
      </trkpt>
      <trkpt lat="43.75724" lon="7.04557">
        <ele>973.59997558594</ele>
        <time>2023-07-30T07:55:15.000Z</time>
      </trkpt>
      <trkpt lat="43.75724" lon="7.04557">
        <ele>973.59997558594</ele>
        <time>2023-07-30T07:55:16.000Z</time>
      </trkpt>
      <trkpt lat="43.75724" lon="7.04557">
        <ele>973.79998779297</ele>
        <time>2023-07-30T07:55:17.000Z</time>
      </trkpt>
      <trkpt lat="43.75724" lon="7.04557">
        <ele>974.20001220703</ele>
        <time>2023-07-30T07:55:18.000Z</time>
      </trkpt>
      <trkpt lat="43.75724" lon="7.04557">
        <ele>973.59997558594</ele>
        <time>2023-07-30T07:55:19.000Z</time>
      </trkpt>
      <trkpt lat="43.75724" lon="7.04557">
        <ele>974</ele>
        <time>2023-07-30T07:55:20.000Z</time>
      </trkpt>
      <trkpt lat="43.75724" lon="7.04557">
        <ele>974.79998779297</ele>
        <time>2023-07-30T07:55:21.000Z</time>
      </trkpt>
      <trkpt lat="43.75724" lon="7.04557">
        <ele>974.79998779297</ele>
        <time>2023-07-30T07:55:22.000Z</time>
      </trkpt>
      <trkpt lat="43.75724" lon="7.04557">
        <ele>975.20001220703</ele>
        <time>2023-07-30T07:55:23.000Z</time>
      </trkpt>
      <trkpt lat="43.75724" lon="7.04557">
        <ele>974.79998779297</ele>
        <time>2023-07-30T07:55:24.000Z</time>
      </trkpt>
      <trkpt lat="43.75724" lon="7.04557">
        <ele>974.79998779297</ele>
        <time>2023-07-30T07:55:25.000Z</time>
      </trkpt>
      <trkpt lat="43.75724" lon="7.04557">
        <ele>974.79998779297</ele>
        <time>2023-07-30T07:55:26.000Z</time>
      </trkpt>
      <trkpt lat="43.75724" lon="7.04557">
        <ele>974.79998779297</ele>
        <time>2023-07-30T07:55:27.000Z</time>
      </trkpt>
      <trkpt lat="43.75724" lon="7.04557">
        <ele>974.59997558594</ele>
        <time>2023-07-30T07:55:28.000Z</time>
      </trkpt>
      <trkpt lat="43.75724" lon="7.04557">
        <ele>974.59997558594</ele>
        <time>2023-07-30T07:55:29.000Z</time>
      </trkpt>
      <trkpt lat="43.75724" lon="7.04557">
        <ele>974.59997558594</ele>
        <time>2023-07-30T07:55:30.000Z</time>
      </trkpt>
      <trkpt lat="43.75724" lon="7.04557">
        <ele>974.40002441406</ele>
        <time>2023-07-30T07:55:31.000Z</time>
      </trkpt>
      <trkpt lat="43.75724" lon="7.04557">
        <ele>974.40002441406</ele>
        <time>2023-07-30T07:55:32.000Z</time>
      </trkpt>
      <trkpt lat="43.75724" lon="7.04557">
        <ele>974.20001220703</ele>
        <time>2023-07-30T07:55:33.000Z</time>
      </trkpt>
      <trkpt lat="43.75724" lon="7.04557">
        <ele>974</ele>
        <time>2023-07-30T07:55:34.000Z</time>
      </trkpt>
      <trkpt lat="43.75724" lon="7.04557">
        <ele>974</ele>
        <time>2023-07-30T07:55:35.000Z</time>
      </trkpt>
      <trkpt lat="43.75724" lon="7.04557">
        <ele>974</ele>
        <time>2023-07-30T07:55:36.000Z</time>
      </trkpt>
      <trkpt lat="43.75724" lon="7.04557">
        <ele>974</ele>
        <time>2023-07-30T07:55:37.000Z</time>
      </trkpt>
      <trkpt lat="43.75724" lon="7.04557">
        <ele>974</ele>
        <time>2023-07-30T07:55:38.000Z</time>
      </trkpt>
      <trkpt lat="43.75724" lon="7.04557">
        <ele>974</ele>
        <time>2023-07-30T07:55:39.000Z</time>
      </trkpt>
      <trkpt lat="43.75724" lon="7.04557">
        <ele>974.79998779297</ele>
        <time>2023-07-30T07:55:40.000Z</time>
      </trkpt>
      <trkpt lat="43.75724" lon="7.04557">
        <ele>975</ele>
        <time>2023-07-30T07:55:41.000Z</time>
      </trkpt>
      <trkpt lat="43.75724" lon="7.04557">
        <ele>975</ele>
        <time>2023-07-30T07:55:42.000Z</time>
      </trkpt>
      <trkpt lat="43.75724" lon="7.04557">
        <ele>975</ele>
        <time>2023-07-30T07:55:43.000Z</time>
      </trkpt>
      <trkpt lat="43.75724" lon="7.04557">
        <ele>974.79998779297</ele>
        <time>2023-07-30T07:55:44.000Z</time>
      </trkpt>
      <trkpt lat="43.75724" lon="7.04557">
        <ele>974.59997558594</ele>
        <time>2023-07-30T07:55:45.000Z</time>
      </trkpt>
      <trkpt lat="43.75724" lon="7.04557">
        <ele>974.40002441406</ele>
        <time>2023-07-30T07:55:46.000Z</time>
      </trkpt>
      <trkpt lat="43.75724" lon="7.04557">
        <ele>974.20001220703</ele>
        <time>2023-07-30T07:55:47.000Z</time>
      </trkpt>
      <trkpt lat="43.75724" lon="7.04557">
        <ele>973.79998779297</ele>
        <time>2023-07-30T07:55:48.000Z</time>
      </trkpt>
      <trkpt lat="43.75724" lon="7.04557">
        <ele>973.79998779297</ele>
        <time>2023-07-30T07:55:49.000Z</time>
      </trkpt>
      <trkpt lat="43.75724" lon="7.04557">
        <ele>973.79998779297</ele>
        <time>2023-07-30T07:55:50.000Z</time>
      </trkpt>
      <trkpt lat="43.75724" lon="7.04557">
        <ele>974</ele>
        <time>2023-07-30T07:55:51.000Z</time>
      </trkpt>
      <trkpt lat="43.75724" lon="7.04557">
        <ele>974</ele>
        <time>2023-07-30T07:55:52.000Z</time>
      </trkpt>
      <trkpt lat="43.75724" lon="7.04557">
        <ele>975</ele>
        <time>2023-07-30T07:55:53.000Z</time>
      </trkpt>
      <trkpt lat="43.75725" lon="7.04555">
        <ele>975</ele>
        <time>2023-07-30T07:55:54.000Z</time>
      </trkpt>
      <trkpt lat="43.75725" lon="7.04554">
        <ele>975</ele>
        <time>2023-07-30T07:55:55.000Z</time>
      </trkpt>
      <trkpt lat="43.75727" lon="7.04553">
        <ele>975</ele>
        <time>2023-07-30T07:55:56.000Z</time>
      </trkpt>
      <trkpt lat="43.75728" lon="7.04552">
        <ele>975</ele>
        <time>2023-07-30T07:55:57.000Z</time>
      </trkpt>
      <trkpt lat="43.7573" lon="7.0455">
        <ele>974.79998779297</ele>
        <time>2023-07-30T07:55:58.000Z</time>
      </trkpt>
      <trkpt lat="43.75732" lon="7.04549">
        <ele>974.59997558594</ele>
        <time>2023-07-30T07:55:59.000Z</time>
      </trkpt>
      <trkpt lat="43.75733" lon="7.04547">
        <ele>974.59997558594</ele>
        <time>2023-07-30T07:56:00.000Z</time>
      </trkpt>
      <trkpt lat="43.75735" lon="7.04544">
        <ele>974.59997558594</ele>
        <time>2023-07-30T07:56:01.000Z</time>
      </trkpt>
      <trkpt lat="43.75737" lon="7.04542">
        <ele>974.59997558594</ele>
        <time>2023-07-30T07:56:02.000Z</time>
      </trkpt>
      <trkpt lat="43.75739" lon="7.0454">
        <ele>974.40002441406</ele>
        <time>2023-07-30T07:56:03.000Z</time>
      </trkpt>
      <trkpt lat="43.7574" lon="7.04538">
        <ele>974.59997558594</ele>
        <time>2023-07-30T07:56:04.000Z</time>
      </trkpt>
      <trkpt lat="43.75742" lon="7.04536">
        <ele>974.59997558594</ele>
        <time>2023-07-30T07:56:05.000Z</time>
      </trkpt>
      <trkpt lat="43.75743" lon="7.04535">
        <ele>974.59997558594</ele>
        <time>2023-07-30T07:56:06.000Z</time>
      </trkpt>
      <trkpt lat="43.75745" lon="7.04534">
        <ele>974.79998779297</ele>
        <time>2023-07-30T07:56:07.000Z</time>
      </trkpt>
      <trkpt lat="43.75746" lon="7.04532">
        <ele>974.79998779297</ele>
        <time>2023-07-30T07:56:08.000Z</time>
      </trkpt>
      <trkpt lat="43.75747" lon="7.0453">
        <ele>974.79998779297</ele>
        <time>2023-07-30T07:56:09.000Z</time>
      </trkpt>
      <trkpt lat="43.75748" lon="7.04527">
        <ele>975</ele>
        <time>2023-07-30T07:56:10.000Z</time>
      </trkpt>
      <trkpt lat="43.75748" lon="7.04524">
        <ele>975.20001220703</ele>
        <time>2023-07-30T07:56:11.000Z</time>
      </trkpt>
      <trkpt lat="43.75748" lon="7.04521">
        <ele>975.40002441406</ele>
        <time>2023-07-30T07:56:12.000Z</time>
      </trkpt>
      <trkpt lat="43.75747" lon="7.04518">
        <ele>975.40002441406</ele>
        <time>2023-07-30T07:56:13.000Z</time>
      </trkpt>
      <trkpt lat="43.75746" lon="7.04514">
        <ele>975.40002441406</ele>
        <time>2023-07-30T07:56:14.000Z</time>
      </trkpt>
      <trkpt lat="43.75745" lon="7.0451">
        <ele>975.40002441406</ele>
        <time>2023-07-30T07:56:15.000Z</time>
      </trkpt>
      <trkpt lat="43.75744" lon="7.04506">
        <ele>975.40002441406</ele>
        <time>2023-07-30T07:56:16.000Z</time>
      </trkpt>
      <trkpt lat="43.75743" lon="7.04503">
        <ele>975.40002441406</ele>
        <time>2023-07-30T07:56:17.000Z</time>
      </trkpt>
      <trkpt lat="43.75742" lon="7.045">
        <ele>975.40002441406</ele>
        <time>2023-07-30T07:56:18.000Z</time>
      </trkpt>
      <trkpt lat="43.75742" lon="7.04497">
        <ele>975.40002441406</ele>
        <time>2023-07-30T07:56:19.000Z</time>
      </trkpt>
      <trkpt lat="43.75742" lon="7.04493">
        <ele>975.40002441406</ele>
        <time>2023-07-30T07:56:20.000Z</time>
      </trkpt>
      <trkpt lat="43.75743" lon="7.04488">
        <ele>975.40002441406</ele>
        <time>2023-07-30T07:56:21.000Z</time>
      </trkpt>
      <trkpt lat="43.75745" lon="7.04485">
        <ele>975.40002441406</ele>
        <time>2023-07-30T07:56:22.000Z</time>
      </trkpt>
      <trkpt lat="43.75746" lon="7.04481">
        <ele>975.40002441406</ele>
        <time>2023-07-30T07:56:23.000Z</time>
      </trkpt>
      <trkpt lat="43.75747" lon="7.04478">
        <ele>975.40002441406</ele>
        <time>2023-07-30T07:56:24.000Z</time>
      </trkpt>
      <trkpt lat="43.75748" lon="7.04475">
        <ele>975.59997558594</ele>
        <time>2023-07-30T07:56:25.000Z</time>
      </trkpt>
      <trkpt lat="43.75749" lon="7.04472">
        <ele>975.59997558594</ele>
        <time>2023-07-30T07:56:26.000Z</time>
      </trkpt>
      <trkpt lat="43.7575" lon="7.0447">
        <ele>975.59997558594</ele>
        <time>2023-07-30T07:56:27.000Z</time>
      </trkpt>
      <trkpt lat="43.75751" lon="7.04467">
        <ele>975.59997558594</ele>
        <time>2023-07-30T07:56:28.000Z</time>
      </trkpt>
      <trkpt lat="43.75753" lon="7.04464">
        <ele>975.59997558594</ele>
        <time>2023-07-30T07:56:29.000Z</time>
      </trkpt>
      <trkpt lat="43.75753" lon="7.04461">
        <ele>975.79998779297</ele>
        <time>2023-07-30T07:56:30.000Z</time>
      </trkpt>
      <trkpt lat="43.75754" lon="7.04458">
        <ele>976.20001220703</ele>
        <time>2023-07-30T07:56:31.000Z</time>
      </trkpt>
      <trkpt lat="43.75756" lon="7.04455">
        <ele>976.20001220703</ele>
        <time>2023-07-30T07:56:32.000Z</time>
      </trkpt>
      <trkpt lat="43.75756" lon="7.04452">
        <ele>976.40002441406</ele>
        <time>2023-07-30T07:56:33.000Z</time>
      </trkpt>
      <trkpt lat="43.75755" lon="7.04449">
        <ele>976.40002441406</ele>
        <time>2023-07-30T07:56:34.000Z</time>
      </trkpt>
      <trkpt lat="43.75754" lon="7.04448">
        <ele>976.40002441406</ele>
        <time>2023-07-30T07:56:35.000Z</time>
      </trkpt>
      <trkpt lat="43.75753" lon="7.04445">
        <ele>976.40002441406</ele>
        <time>2023-07-30T07:56:36.000Z</time>
      </trkpt>
      <trkpt lat="43.75753" lon="7.04441">
        <ele>976.20001220703</ele>
        <time>2023-07-30T07:56:37.000Z</time>
      </trkpt>
      <trkpt lat="43.75753" lon="7.04436">
        <ele>976.20001220703</ele>
        <time>2023-07-30T07:56:38.000Z</time>
      </trkpt>
      <trkpt lat="43.75753" lon="7.04432">
        <ele>976</ele>
        <time>2023-07-30T07:56:39.000Z</time>
      </trkpt>
      <trkpt lat="43.75753" lon="7.04428">
        <ele>976</ele>
        <time>2023-07-30T07:56:40.000Z</time>
      </trkpt>
      <trkpt lat="43.75752" lon="7.04424">
        <ele>976</ele>
        <time>2023-07-30T07:56:41.000Z</time>
      </trkpt>
      <trkpt lat="43.75751" lon="7.04419">
        <ele>976</ele>
        <time>2023-07-30T07:56:42.000Z</time>
      </trkpt>
      <trkpt lat="43.75751" lon="7.04415">
        <ele>976</ele>
        <time>2023-07-30T07:56:43.000Z</time>
      </trkpt>
      <trkpt lat="43.7575" lon="7.0441">
        <ele>976</ele>
        <time>2023-07-30T07:56:44.000Z</time>
      </trkpt>
      <trkpt lat="43.7575" lon="7.04405">
        <ele>975.79998779297</ele>
        <time>2023-07-30T07:56:45.000Z</time>
      </trkpt>
      <trkpt lat="43.7575" lon="7.044">
        <ele>975.79998779297</ele>
        <time>2023-07-30T07:56:46.000Z</time>
      </trkpt>
      <trkpt lat="43.7575" lon="7.04394">
        <ele>975.79998779297</ele>
        <time>2023-07-30T07:56:47.000Z</time>
      </trkpt>
      <trkpt lat="43.75752" lon="7.04389">
        <ele>975.40002441406</ele>
        <time>2023-07-30T07:56:48.000Z</time>
      </trkpt>
      <trkpt lat="43.75753" lon="7.04384">
        <ele>975.40002441406</ele>
        <time>2023-07-30T07:56:49.000Z</time>
      </trkpt>
      <trkpt lat="43.75752" lon="7.04379">
        <ele>975.40002441406</ele>
        <time>2023-07-30T07:56:50.000Z</time>
      </trkpt>
      <trkpt lat="43.75753" lon="7.04373">
        <ele>975.20001220703</ele>
        <time>2023-07-30T07:56:51.000Z</time>
      </trkpt>
      <trkpt lat="43.75754" lon="7.04368">
        <ele>975.20001220703</ele>
        <time>2023-07-30T07:56:52.000Z</time>
      </trkpt>
      <trkpt lat="43.75754" lon="7.04363">
        <ele>975</ele>
        <time>2023-07-30T07:56:53.000Z</time>
      </trkpt>
      <trkpt lat="43.75756" lon="7.04358">
        <ele>975</ele>
        <time>2023-07-30T07:56:54.000Z</time>
      </trkpt>
      <trkpt lat="43.75758" lon="7.04353">
        <ele>975</ele>
        <time>2023-07-30T07:56:55.000Z</time>
      </trkpt>
      <trkpt lat="43.7576" lon="7.04349">
        <ele>974.59997558594</ele>
        <time>2023-07-30T07:56:56.000Z</time>
      </trkpt>
      <trkpt lat="43.75761" lon="7.04345">
        <ele>974.40002441406</ele>
        <time>2023-07-30T07:56:57.000Z</time>
      </trkpt>
      <trkpt lat="43.75763" lon="7.0434">
        <ele>974.40002441406</ele>
        <time>2023-07-30T07:56:58.000Z</time>
      </trkpt>
      <trkpt lat="43.75764" lon="7.04335">
        <ele>974.40002441406</ele>
        <time>2023-07-30T07:56:59.000Z</time>
      </trkpt>
      <trkpt lat="43.75764" lon="7.0433">
        <ele>974</ele>
        <time>2023-07-30T07:57:00.000Z</time>
      </trkpt>
      <trkpt lat="43.75765" lon="7.04325">
        <ele>974</ele>
        <time>2023-07-30T07:57:01.000Z</time>
      </trkpt>
      <trkpt lat="43.75765" lon="7.04321">
        <ele>974</ele>
        <time>2023-07-30T07:57:02.000Z</time>
      </trkpt>
      <trkpt lat="43.75766" lon="7.04316">
        <ele>974</ele>
        <time>2023-07-30T07:57:03.000Z</time>
      </trkpt>
      <trkpt lat="43.75767" lon="7.04311">
        <ele>974</ele>
        <time>2023-07-30T07:57:04.000Z</time>
      </trkpt>
      <trkpt lat="43.75768" lon="7.04307">
        <ele>974</ele>
        <time>2023-07-30T07:57:05.000Z</time>
      </trkpt>
      <trkpt lat="43.75769" lon="7.04303">
        <ele>973.79998779297</ele>
        <time>2023-07-30T07:57:06.000Z</time>
      </trkpt>
      <trkpt lat="43.75769" lon="7.043">
        <ele>973.79998779297</ele>
        <time>2023-07-30T07:57:07.000Z</time>
      </trkpt>
      <trkpt lat="43.7577" lon="7.04296">
        <ele>973.79998779297</ele>
        <time>2023-07-30T07:57:08.000Z</time>
      </trkpt>
      <trkpt lat="43.75771" lon="7.04292">
        <ele>974</ele>
        <time>2023-07-30T07:57:09.000Z</time>
      </trkpt>
      <trkpt lat="43.75771" lon="7.04287">
        <ele>974</ele>
        <time>2023-07-30T07:57:10.000Z</time>
      </trkpt>
      <trkpt lat="43.75772" lon="7.04283">
        <ele>974</ele>
        <time>2023-07-30T07:57:11.000Z</time>
      </trkpt>
      <trkpt lat="43.75772" lon="7.04278">
        <ele>974</ele>
        <time>2023-07-30T07:57:12.000Z</time>
      </trkpt>
      <trkpt lat="43.75773" lon="7.04274">
        <ele>974</ele>
        <time>2023-07-30T07:57:13.000Z</time>
      </trkpt>
      <trkpt lat="43.75774" lon="7.04269">
        <ele>974</ele>
        <time>2023-07-30T07:57:14.000Z</time>
      </trkpt>
      <trkpt lat="43.75776" lon="7.04264">
        <ele>974</ele>
        <time>2023-07-30T07:57:15.000Z</time>
      </trkpt>
      <trkpt lat="43.75778" lon="7.0426">
        <ele>974</ele>
        <time>2023-07-30T07:57:16.000Z</time>
      </trkpt>
      <trkpt lat="43.75781" lon="7.04256">
        <ele>973.40002441406</ele>
        <time>2023-07-30T07:57:17.000Z</time>
      </trkpt>
      <trkpt lat="43.75784" lon="7.04253">
        <ele>973.20001220703</ele>
        <time>2023-07-30T07:57:18.000Z</time>
      </trkpt>
      <trkpt lat="43.75788" lon="7.0425">
        <ele>973.20001220703</ele>
        <time>2023-07-30T07:57:19.000Z</time>
      </trkpt>
      <trkpt lat="43.75791" lon="7.04246">
        <ele>972.59997558594</ele>
        <time>2023-07-30T07:57:20.000Z</time>
      </trkpt>
      <trkpt lat="43.75794" lon="7.04243">
        <ele>972.59997558594</ele>
        <time>2023-07-30T07:57:21.000Z</time>
      </trkpt>
      <trkpt lat="43.75796" lon="7.0424">
        <ele>972.59997558594</ele>
        <time>2023-07-30T07:57:22.000Z</time>
      </trkpt>
      <trkpt lat="43.75797" lon="7.04237">
        <ele>972.59997558594</ele>
        <time>2023-07-30T07:57:23.000Z</time>
      </trkpt>
      <trkpt lat="43.75798" lon="7.04235">
        <ele>972.40002441406</ele>
        <time>2023-07-30T07:57:24.000Z</time>
      </trkpt>
      <trkpt lat="43.75799" lon="7.04234">
        <ele>972.40002441406</ele>
        <time>2023-07-30T07:57:25.000Z</time>
      </trkpt>
      <trkpt lat="43.758" lon="7.04233">
        <ele>972.40002441406</ele>
        <time>2023-07-30T07:57:26.000Z</time>
      </trkpt>
      <trkpt lat="43.75801" lon="7.04232">
        <ele>972.79998779297</ele>
        <time>2023-07-30T07:57:27.000Z</time>
      </trkpt>
      <trkpt lat="43.75802" lon="7.0423">
        <ele>972.79998779297</ele>
        <time>2023-07-30T07:57:28.000Z</time>
      </trkpt>
      <trkpt lat="43.75803" lon="7.04228">
        <ele>972.59997558594</ele>
        <time>2023-07-30T07:57:29.000Z</time>
      </trkpt>
      <trkpt lat="43.75805" lon="7.04226">
        <ele>972.59997558594</ele>
        <time>2023-07-30T07:57:30.000Z</time>
      </trkpt>
      <trkpt lat="43.75806" lon="7.04224">
        <ele>972.59997558594</ele>
        <time>2023-07-30T07:57:31.000Z</time>
      </trkpt>
      <trkpt lat="43.75808" lon="7.04222">
        <ele>972.59997558594</ele>
        <time>2023-07-30T07:57:32.000Z</time>
      </trkpt>
      <trkpt lat="43.7581" lon="7.0422">
        <ele>972.59997558594</ele>
        <time>2023-07-30T07:57:33.000Z</time>
      </trkpt>
      <trkpt lat="43.75811" lon="7.04217">
        <ele>972.59997558594</ele>
        <time>2023-07-30T07:57:34.000Z</time>
      </trkpt>
      <trkpt lat="43.75813" lon="7.04215">
        <ele>972.59997558594</ele>
        <time>2023-07-30T07:57:35.000Z</time>
      </trkpt>
      <trkpt lat="43.75814" lon="7.04213">
        <ele>972.59997558594</ele>
        <time>2023-07-30T07:57:36.000Z</time>
      </trkpt>
      <trkpt lat="43.75816" lon="7.04211">
        <ele>972.79998779297</ele>
        <time>2023-07-30T07:57:37.000Z</time>
      </trkpt>
      <trkpt lat="43.75818" lon="7.04208">
        <ele>972.79998779297</ele>
        <time>2023-07-30T07:57:38.000Z</time>
      </trkpt>
      <trkpt lat="43.75821" lon="7.04206">
        <ele>972.79998779297</ele>
        <time>2023-07-30T07:57:39.000Z</time>
      </trkpt>
      <trkpt lat="43.75823" lon="7.04203">
        <ele>973</ele>
        <time>2023-07-30T07:57:40.000Z</time>
      </trkpt>
      <trkpt lat="43.75825" lon="7.042">
        <ele>973</ele>
        <time>2023-07-30T07:57:41.000Z</time>
      </trkpt>
      <trkpt lat="43.75827" lon="7.04196">
        <ele>973</ele>
        <time>2023-07-30T07:57:42.000Z</time>
      </trkpt>
      <trkpt lat="43.7583" lon="7.04193">
        <ele>973</ele>
        <time>2023-07-30T07:57:43.000Z</time>
      </trkpt>
      <trkpt lat="43.75832" lon="7.0419">
        <ele>973</ele>
        <time>2023-07-30T07:57:44.000Z</time>
      </trkpt>
      <trkpt lat="43.75835" lon="7.04187">
        <ele>973</ele>
        <time>2023-07-30T07:57:45.000Z</time>
      </trkpt>
      <trkpt lat="43.75838" lon="7.04186">
        <ele>973</ele>
        <time>2023-07-30T07:57:46.000Z</time>
      </trkpt>
      <trkpt lat="43.7584" lon="7.04184">
        <ele>973.20001220703</ele>
        <time>2023-07-30T07:57:47.000Z</time>
      </trkpt>
      <trkpt lat="43.75842" lon="7.04182">
        <ele>973.20001220703</ele>
        <time>2023-07-30T07:57:48.000Z</time>
      </trkpt>
      <trkpt lat="43.75843" lon="7.0418">
        <ele>973.20001220703</ele>
        <time>2023-07-30T07:57:49.000Z</time>
      </trkpt>
      <trkpt lat="43.75843" lon="7.04178">
        <ele>973</ele>
        <time>2023-07-30T07:57:50.000Z</time>
      </trkpt>
      <trkpt lat="43.75843" lon="7.04175">
        <ele>973</ele>
        <time>2023-07-30T07:57:51.000Z</time>
      </trkpt>
      <trkpt lat="43.75843" lon="7.04171">
        <ele>973</ele>
        <time>2023-07-30T07:57:52.000Z</time>
      </trkpt>
      <trkpt lat="43.75843" lon="7.04167">
        <ele>973</ele>
        <time>2023-07-30T07:57:53.000Z</time>
      </trkpt>
      <trkpt lat="43.75842" lon="7.04163">
        <ele>973</ele>
        <time>2023-07-30T07:57:54.000Z</time>
      </trkpt>
      <trkpt lat="43.75843" lon="7.0416">
        <ele>973</ele>
        <time>2023-07-30T07:57:55.000Z</time>
      </trkpt>
      <trkpt lat="43.75844" lon="7.04156">
        <ele>973</ele>
        <time>2023-07-30T07:57:56.000Z</time>
      </trkpt>
      <trkpt lat="43.75845" lon="7.04153">
        <ele>973</ele>
        <time>2023-07-30T07:57:57.000Z</time>
      </trkpt>
      <trkpt lat="43.75846" lon="7.04149">
        <ele>973</ele>
        <time>2023-07-30T07:57:58.000Z</time>
      </trkpt>
      <trkpt lat="43.75846" lon="7.04146">
        <ele>972.79998779297</ele>
        <time>2023-07-30T07:57:59.000Z</time>
      </trkpt>
      <trkpt lat="43.75846" lon="7.04142">
        <ele>972.59997558594</ele>
        <time>2023-07-30T07:58:00.000Z</time>
      </trkpt>
      <trkpt lat="43.75846" lon="7.04137">
        <ele>972.20001220703</ele>
        <time>2023-07-30T07:58:01.000Z</time>
      </trkpt>
      <trkpt lat="43.75846" lon="7.04133">
        <ele>972</ele>
        <time>2023-07-30T07:58:02.000Z</time>
      </trkpt>
      <trkpt lat="43.75847" lon="7.04128">
        <ele>972</ele>
        <time>2023-07-30T07:58:03.000Z</time>
      </trkpt>
      <trkpt lat="43.75848" lon="7.04123">
        <ele>972</ele>
        <time>2023-07-30T07:58:04.000Z</time>
      </trkpt>
      <trkpt lat="43.75848" lon="7.04119">
        <ele>971.79998779297</ele>
        <time>2023-07-30T07:58:05.000Z</time>
      </trkpt>
      <trkpt lat="43.75849" lon="7.04114">
        <ele>971.40002441406</ele>
        <time>2023-07-30T07:58:06.000Z</time>
      </trkpt>
      <trkpt lat="43.7585" lon="7.04108">
        <ele>971.20001220703</ele>
        <time>2023-07-30T07:58:07.000Z</time>
      </trkpt>
      <trkpt lat="43.75851" lon="7.04103">
        <ele>970.59997558594</ele>
        <time>2023-07-30T07:58:08.000Z</time>
      </trkpt>
      <trkpt lat="43.75854" lon="7.04098">
        <ele>970.40002441406</ele>
        <time>2023-07-30T07:58:09.000Z</time>
      </trkpt>
      <trkpt lat="43.75857" lon="7.04093">
        <ele>970.40002441406</ele>
        <time>2023-07-30T07:58:10.000Z</time>
      </trkpt>
      <trkpt lat="43.7586" lon="7.04088">
        <ele>970.20001220703</ele>
        <time>2023-07-30T07:58:11.000Z</time>
      </trkpt>
      <trkpt lat="43.75862" lon="7.04083">
        <ele>970</ele>
        <time>2023-07-30T07:58:12.000Z</time>
      </trkpt>
      <trkpt lat="43.75862" lon="7.04077">
        <ele>969</ele>
        <time>2023-07-30T07:58:13.000Z</time>
      </trkpt>
      <trkpt lat="43.75862" lon="7.04073">
        <ele>968.40002441406</ele>
        <time>2023-07-30T07:58:14.000Z</time>
      </trkpt>
      <trkpt lat="43.75861" lon="7.04069">
        <ele>968.20001220703</ele>
        <time>2023-07-30T07:58:15.000Z</time>
      </trkpt>
      <trkpt lat="43.75861" lon="7.04068">
        <ele>968</ele>
        <time>2023-07-30T07:58:16.000Z</time>
      </trkpt>
      <trkpt lat="43.75861" lon="7.04067">
        <ele>967.79998779297</ele>
        <time>2023-07-30T07:58:17.000Z</time>
      </trkpt>
      <trkpt lat="43.75861" lon="7.04068">
        <ele>967.79998779297</ele>
        <time>2023-07-30T07:58:18.000Z</time>
      </trkpt>
      <trkpt lat="43.75861" lon="7.04068">
        <ele>967.59997558594</ele>
        <time>2023-07-30T07:58:19.000Z</time>
      </trkpt>
      <trkpt lat="43.75861" lon="7.04068">
        <ele>967.59997558594</ele>
        <time>2023-07-30T07:58:20.000Z</time>
      </trkpt>
      <trkpt lat="43.75861" lon="7.04068">
        <ele>967.59997558594</ele>
        <time>2023-07-30T07:58:21.000Z</time>
      </trkpt>
      <trkpt lat="43.75861" lon="7.04068">
        <ele>967.59997558594</ele>
        <time>2023-07-30T07:58:22.000Z</time>
      </trkpt>
      <trkpt lat="43.75861" lon="7.04068">
        <ele>967.40002441406</ele>
        <time>2023-07-30T07:58:23.000Z</time>
      </trkpt>
      <trkpt lat="43.75861" lon="7.04068">
        <ele>967.40002441406</ele>
        <time>2023-07-30T07:58:24.000Z</time>
      </trkpt>
      <trkpt lat="43.75861" lon="7.04068">
        <ele>967.40002441406</ele>
        <time>2023-07-30T07:58:25.000Z</time>
      </trkpt>
      <trkpt lat="43.75861" lon="7.04068">
        <ele>967.20001220703</ele>
        <time>2023-07-30T07:58:26.000Z</time>
      </trkpt>
      <trkpt lat="43.75861" lon="7.04068">
        <ele>967.20001220703</ele>
        <time>2023-07-30T07:58:27.000Z</time>
      </trkpt>
      <trkpt lat="43.75861" lon="7.04068">
        <ele>967.20001220703</ele>
        <time>2023-07-30T07:58:28.000Z</time>
      </trkpt>
      <trkpt lat="43.75861" lon="7.04068">
        <ele>967.20001220703</ele>
        <time>2023-07-30T07:58:29.000Z</time>
      </trkpt>
      <trkpt lat="43.75861" lon="7.04068">
        <ele>967.20001220703</ele>
        <time>2023-07-30T07:58:30.000Z</time>
      </trkpt>
      <trkpt lat="43.75861" lon="7.04068">
        <ele>967.20001220703</ele>
        <time>2023-07-30T07:58:31.000Z</time>
      </trkpt>
      <trkpt lat="43.75861" lon="7.04068">
        <ele>967.20001220703</ele>
        <time>2023-07-30T07:58:32.000Z</time>
      </trkpt>
      <trkpt lat="43.75861" lon="7.04068">
        <ele>967</ele>
        <time>2023-07-30T07:58:33.000Z</time>
      </trkpt>
      <trkpt lat="43.75861" lon="7.04068">
        <ele>967</ele>
        <time>2023-07-30T07:58:34.000Z</time>
      </trkpt>
      <trkpt lat="43.75861" lon="7.04068">
        <ele>967</ele>
        <time>2023-07-30T07:58:35.000Z</time>
      </trkpt>
      <trkpt lat="43.75861" lon="7.04068">
        <ele>967</ele>
        <time>2023-07-30T07:58:36.000Z</time>
      </trkpt>
      <trkpt lat="43.75861" lon="7.04068">
        <ele>967</ele>
        <time>2023-07-30T07:58:37.000Z</time>
      </trkpt>
      <trkpt lat="43.75861" lon="7.04068">
        <ele>967</ele>
        <time>2023-07-30T07:58:38.000Z</time>
      </trkpt>
      <trkpt lat="43.75861" lon="7.04068">
        <ele>967</ele>
        <time>2023-07-30T07:58:39.000Z</time>
      </trkpt>
      <trkpt lat="43.75861" lon="7.04068">
        <ele>967</ele>
        <time>2023-07-30T07:58:40.000Z</time>
      </trkpt>
      <trkpt lat="43.7586" lon="7.04066">
        <ele>967</ele>
        <time>2023-07-30T07:58:41.000Z</time>
      </trkpt>
      <trkpt lat="43.7586" lon="7.04064">
        <ele>967</ele>
        <time>2023-07-30T07:58:42.000Z</time>
      </trkpt>
      <trkpt lat="43.7586" lon="7.04063">
        <ele>967</ele>
        <time>2023-07-30T07:58:43.000Z</time>
      </trkpt>
      <trkpt lat="43.75859" lon="7.04061">
        <ele>967</ele>
        <time>2023-07-30T07:58:44.000Z</time>
      </trkpt>
      <trkpt lat="43.75859" lon="7.0406">
        <ele>967</ele>
        <time>2023-07-30T07:58:45.000Z</time>
      </trkpt>
      <trkpt lat="43.75858" lon="7.04059">
        <ele>967</ele>
        <time>2023-07-30T07:58:46.000Z</time>
      </trkpt>
      <trkpt lat="43.75857" lon="7.04058">
        <ele>967</ele>
        <time>2023-07-30T07:58:47.000Z</time>
      </trkpt>
      <trkpt lat="43.75857" lon="7.04056">
        <ele>967</ele>
        <time>2023-07-30T07:58:48.000Z</time>
      </trkpt>
      <trkpt lat="43.75857" lon="7.04054">
        <ele>967</ele>
        <time>2023-07-30T07:58:49.000Z</time>
      </trkpt>
      <trkpt lat="43.75856" lon="7.04052">
        <ele>966.79998779297</ele>
        <time>2023-07-30T07:58:50.000Z</time>
      </trkpt>
      <trkpt lat="43.75855" lon="7.04049">
        <ele>966.79998779297</ele>
        <time>2023-07-30T07:58:51.000Z</time>
      </trkpt>
      <trkpt lat="43.75855" lon="7.04046">
        <ele>967</ele>
        <time>2023-07-30T07:58:52.000Z</time>
      </trkpt>
      <trkpt lat="43.75854" lon="7.04043">
        <ele>966.79998779297</ele>
        <time>2023-07-30T07:58:53.000Z</time>
      </trkpt>
      <trkpt lat="43.75854" lon="7.04039">
        <ele>966.79998779297</ele>
        <time>2023-07-30T07:58:54.000Z</time>
      </trkpt>
      <trkpt lat="43.75853" lon="7.04036">
        <ele>966.79998779297</ele>
        <time>2023-07-30T07:58:55.000Z</time>
      </trkpt>
      <trkpt lat="43.75852" lon="7.04032">
        <ele>966.59997558594</ele>
        <time>2023-07-30T07:58:56.000Z</time>
      </trkpt>
      <trkpt lat="43.75851" lon="7.04028">
        <ele>966.59997558594</ele>
        <time>2023-07-30T07:58:57.000Z</time>
      </trkpt>
      <trkpt lat="43.75849" lon="7.04025">
        <ele>966.59997558594</ele>
        <time>2023-07-30T07:58:58.000Z</time>
      </trkpt>
      <trkpt lat="43.75846" lon="7.04022">
        <ele>966.59997558594</ele>
        <time>2023-07-30T07:58:59.000Z</time>
      </trkpt>
      <trkpt lat="43.75843" lon="7.04019">
        <ele>966.59997558594</ele>
        <time>2023-07-30T07:59:00.000Z</time>
      </trkpt>
      <trkpt lat="43.7584" lon="7.04016">
        <ele>966.59997558594</ele>
        <time>2023-07-30T07:59:01.000Z</time>
      </trkpt>
      <trkpt lat="43.75837" lon="7.04013">
        <ele>966.40002441406</ele>
        <time>2023-07-30T07:59:02.000Z</time>
      </trkpt>
      <trkpt lat="43.75833" lon="7.04008">
        <ele>966.40002441406</ele>
        <time>2023-07-30T07:59:03.000Z</time>
      </trkpt>
      <trkpt lat="43.75831" lon="7.04002">
        <ele>966.20001220703</ele>
        <time>2023-07-30T07:59:04.000Z</time>
      </trkpt>
      <trkpt lat="43.75829" lon="7.03995">
        <ele>965.40002441406</ele>
        <time>2023-07-30T07:59:05.000Z</time>
      </trkpt>
      <trkpt lat="43.75827" lon="7.03989">
        <ele>965.40002441406</ele>
        <time>2023-07-30T07:59:06.000Z</time>
      </trkpt>
      <trkpt lat="43.75824" lon="7.03983">
        <ele>965.20001220703</ele>
        <time>2023-07-30T07:59:07.000Z</time>
      </trkpt>
      <trkpt lat="43.75822" lon="7.03977">
        <ele>964.79998779297</ele>
        <time>2023-07-30T07:59:08.000Z</time>
      </trkpt>
      <trkpt lat="43.75821" lon="7.03971">
        <ele>964</ele>
        <time>2023-07-30T07:59:09.000Z</time>
      </trkpt>
      <trkpt lat="43.75821" lon="7.03965">
        <ele>964</ele>
        <time>2023-07-30T07:59:10.000Z</time>
      </trkpt>
      <trkpt lat="43.75822" lon="7.0396">
        <ele>963.79998779297</ele>
        <time>2023-07-30T07:59:11.000Z</time>
      </trkpt>
      <trkpt lat="43.75823" lon="7.03955">
        <ele>963.40002441406</ele>
        <time>2023-07-30T07:59:12.000Z</time>
      </trkpt>
      <trkpt lat="43.75824" lon="7.03949">
        <ele>963</ele>
        <time>2023-07-30T07:59:13.000Z</time>
      </trkpt>
      <trkpt lat="43.75825" lon="7.03943">
        <ele>962.79998779297</ele>
        <time>2023-07-30T07:59:14.000Z</time>
      </trkpt>
      <trkpt lat="43.75826" lon="7.03937">
        <ele>962.79998779297</ele>
        <time>2023-07-30T07:59:15.000Z</time>
      </trkpt>
      <trkpt lat="43.75827" lon="7.03932">
        <ele>962.59997558594</ele>
        <time>2023-07-30T07:59:16.000Z</time>
      </trkpt>
      <trkpt lat="43.75826" lon="7.03926">
        <ele>962.59997558594</ele>
        <time>2023-07-30T07:59:17.000Z</time>
      </trkpt>
      <trkpt lat="43.75825" lon="7.03921">
        <ele>962.59997558594</ele>
        <time>2023-07-30T07:59:18.000Z</time>
      </trkpt>
      <trkpt lat="43.75824" lon="7.03916">
        <ele>962.59997558594</ele>
        <time>2023-07-30T07:59:19.000Z</time>
      </trkpt>
      <trkpt lat="43.75822" lon="7.0391">
        <ele>962.59997558594</ele>
        <time>2023-07-30T07:59:20.000Z</time>
      </trkpt>
      <trkpt lat="43.75821" lon="7.03905">
        <ele>962.59997558594</ele>
        <time>2023-07-30T07:59:21.000Z</time>
      </trkpt>
      <trkpt lat="43.75821" lon="7.03901">
        <ele>962.59997558594</ele>
        <time>2023-07-30T07:59:22.000Z</time>
      </trkpt>
      <trkpt lat="43.7582" lon="7.03896">
        <ele>962.40002441406</ele>
        <time>2023-07-30T07:59:23.000Z</time>
      </trkpt>
      <trkpt lat="43.7582" lon="7.03893">
        <ele>962.40002441406</ele>
        <time>2023-07-30T07:59:24.000Z</time>
      </trkpt>
      <trkpt lat="43.7582" lon="7.03889">
        <ele>962.40002441406</ele>
        <time>2023-07-30T07:59:25.000Z</time>
      </trkpt>
      <trkpt lat="43.75819" lon="7.03886">
        <ele>962.59997558594</ele>
        <time>2023-07-30T07:59:26.000Z</time>
      </trkpt>
      <trkpt lat="43.75817" lon="7.03881">
        <ele>962.79998779297</ele>
        <time>2023-07-30T07:59:27.000Z</time>
      </trkpt>
      <trkpt lat="43.75815" lon="7.03877">
        <ele>963</ele>
        <time>2023-07-30T07:59:28.000Z</time>
      </trkpt>
      <trkpt lat="43.75812" lon="7.03873">
        <ele>963.40002441406</ele>
        <time>2023-07-30T07:59:29.000Z</time>
      </trkpt>
      <trkpt lat="43.7581" lon="7.03869">
        <ele>963.40002441406</ele>
        <time>2023-07-30T07:59:30.000Z</time>
      </trkpt>
      <trkpt lat="43.75807" lon="7.03865">
        <ele>963.40002441406</ele>
        <time>2023-07-30T07:59:31.000Z</time>
      </trkpt>
      <trkpt lat="43.75805" lon="7.03861">
        <ele>963.40002441406</ele>
        <time>2023-07-30T07:59:32.000Z</time>
      </trkpt>
      <trkpt lat="43.75803" lon="7.03857">
        <ele>963.40002441406</ele>
        <time>2023-07-30T07:59:33.000Z</time>
      </trkpt>
      <trkpt lat="43.75802" lon="7.03853">
        <ele>963.40002441406</ele>
        <time>2023-07-30T07:59:34.000Z</time>
      </trkpt>
      <trkpt lat="43.75801" lon="7.03847">
        <ele>963.40002441406</ele>
        <time>2023-07-30T07:59:35.000Z</time>
      </trkpt>
      <trkpt lat="43.75802" lon="7.03842">
        <ele>963.20001220703</ele>
        <time>2023-07-30T07:59:36.000Z</time>
      </trkpt>
      <trkpt lat="43.75804" lon="7.03838">
        <ele>963.20001220703</ele>
        <time>2023-07-30T07:59:37.000Z</time>
      </trkpt>
      <trkpt lat="43.75805" lon="7.03835">
        <ele>963.20001220703</ele>
        <time>2023-07-30T07:59:38.000Z</time>
      </trkpt>
      <trkpt lat="43.75806" lon="7.03831">
        <ele>963.20001220703</ele>
        <time>2023-07-30T07:59:39.000Z</time>
      </trkpt>
      <trkpt lat="43.75807" lon="7.03829">
        <ele>963.20001220703</ele>
        <time>2023-07-30T07:59:40.000Z</time>
      </trkpt>
      <trkpt lat="43.75809" lon="7.03828">
        <ele>963.20001220703</ele>
        <time>2023-07-30T07:59:41.000Z</time>
      </trkpt>
      <trkpt lat="43.75809" lon="7.03828">
        <ele>963.40002441406</ele>
        <time>2023-07-30T07:59:42.000Z</time>
      </trkpt>
      <trkpt lat="43.7581" lon="7.03828">
        <ele>964</ele>
        <time>2023-07-30T07:59:43.000Z</time>
      </trkpt>
      <trkpt lat="43.7581" lon="7.03828">
        <ele>964</ele>
        <time>2023-07-30T07:59:44.000Z</time>
      </trkpt>
      <trkpt lat="43.7581" lon="7.03828">
        <ele>964.20001220703</ele>
        <time>2023-07-30T07:59:45.000Z</time>
      </trkpt>
      <trkpt lat="43.7581" lon="7.03828">
        <ele>964.20001220703</ele>
        <time>2023-07-30T07:59:46.000Z</time>
      </trkpt>
      <trkpt lat="43.7581" lon="7.03828">
        <ele>964.20001220703</ele>
        <time>2023-07-30T07:59:47.000Z</time>
      </trkpt>
      <trkpt lat="43.7581" lon="7.03828">
        <ele>964.20001220703</ele>
        <time>2023-07-30T07:59:48.000Z</time>
      </trkpt>
      <trkpt lat="43.7581" lon="7.03828">
        <ele>964.20001220703</ele>
        <time>2023-07-30T07:59:49.000Z</time>
      </trkpt>
      <trkpt lat="43.7581" lon="7.03828">
        <ele>964.40002441406</ele>
        <time>2023-07-30T07:59:50.000Z</time>
      </trkpt>
      <trkpt lat="43.7581" lon="7.03828">
        <ele>964.40002441406</ele>
        <time>2023-07-30T07:59:51.000Z</time>
      </trkpt>
      <trkpt lat="43.7581" lon="7.03828">
        <ele>964.40002441406</ele>
        <time>2023-07-30T07:59:52.000Z</time>
      </trkpt>
      <trkpt lat="43.75809" lon="7.03828">
        <ele>964.40002441406</ele>
        <time>2023-07-30T07:59:53.000Z</time>
      </trkpt>
      <trkpt lat="43.7581" lon="7.03828">
        <ele>964.40002441406</ele>
        <time>2023-07-30T07:59:54.000Z</time>
      </trkpt>
      <trkpt lat="43.7581" lon="7.03828">
        <ele>964.40002441406</ele>
        <time>2023-07-30T07:59:55.000Z</time>
      </trkpt>
      <trkpt lat="43.7581" lon="7.03828">
        <ele>964.20001220703</ele>
        <time>2023-07-30T07:59:56.000Z</time>
      </trkpt>
      <trkpt lat="43.7581" lon="7.03828">
        <ele>964.20001220703</ele>
        <time>2023-07-30T07:59:57.000Z</time>
      </trkpt>
      <trkpt lat="43.7581" lon="7.03828">
        <ele>964.20001220703</ele>
        <time>2023-07-30T07:59:58.000Z</time>
      </trkpt>
      <trkpt lat="43.7581" lon="7.03828">
        <ele>964.20001220703</ele>
        <time>2023-07-30T07:59:59.000Z</time>
      </trkpt>
      <trkpt lat="43.7581" lon="7.03828">
        <ele>964.20001220703</ele>
        <time>2023-07-30T08:00:00.000Z</time>
      </trkpt>
      <trkpt lat="43.75809" lon="7.03828">
        <ele>964.20001220703</ele>
        <time>2023-07-30T08:00:01.000Z</time>
      </trkpt>
      <trkpt lat="43.7581" lon="7.03828">
        <ele>964.20001220703</ele>
        <time>2023-07-30T08:00:02.000Z</time>
      </trkpt>
      <trkpt lat="43.75809" lon="7.03828">
        <ele>964.20001220703</ele>
        <time>2023-07-30T08:00:03.000Z</time>
      </trkpt>
      <trkpt lat="43.75809" lon="7.03828">
        <ele>964.40002441406</ele>
        <time>2023-07-30T08:00:04.000Z</time>
      </trkpt>
      <trkpt lat="43.75809" lon="7.03828">
        <ele>964.40002441406</ele>
        <time>2023-07-30T08:00:05.000Z</time>
      </trkpt>
      <trkpt lat="43.75809" lon="7.03828">
        <ele>964.40002441406</ele>
        <time>2023-07-30T08:00:06.000Z</time>
      </trkpt>
      <trkpt lat="43.75809" lon="7.03828">
        <ele>964.40002441406</ele>
        <time>2023-07-30T08:00:07.000Z</time>
      </trkpt>
      <trkpt lat="43.75809" lon="7.03828">
        <ele>964.40002441406</ele>
        <time>2023-07-30T08:00:08.000Z</time>
      </trkpt>
      <trkpt lat="43.75809" lon="7.03828">
        <ele>964.40002441406</ele>
        <time>2023-07-30T08:00:09.000Z</time>
      </trkpt>
      <trkpt lat="43.75809" lon="7.03828">
        <ele>964.40002441406</ele>
        <time>2023-07-30T08:00:10.000Z</time>
      </trkpt>
      <trkpt lat="43.75809" lon="7.03828">
        <ele>964.40002441406</ele>
        <time>2023-07-30T08:00:11.000Z</time>
      </trkpt>
      <trkpt lat="43.75809" lon="7.03828">
        <ele>964</ele>
        <time>2023-07-30T08:00:12.000Z</time>
      </trkpt>
      <trkpt lat="43.75809" lon="7.03828">
        <ele>964</ele>
        <time>2023-07-30T08:00:13.000Z</time>
      </trkpt>
      <trkpt lat="43.75809" lon="7.03828">
        <ele>964.40002441406</ele>
        <time>2023-07-30T08:00:14.000Z</time>
      </trkpt>
      <trkpt lat="43.75809" lon="7.03827">
        <ele>964.40002441406</ele>
        <time>2023-07-30T08:00:15.000Z</time>
      </trkpt>
      <trkpt lat="43.75809" lon="7.03827">
        <ele>964.59997558594</ele>
        <time>2023-07-30T08:00:16.000Z</time>
      </trkpt>
      <trkpt lat="43.75809" lon="7.03827">
        <ele>964.59997558594</ele>
        <time>2023-07-30T08:00:17.000Z</time>
      </trkpt>
      <trkpt lat="43.75809" lon="7.03827">
        <ele>964.59997558594</ele>
        <time>2023-07-30T08:00:18.000Z</time>
      </trkpt>
      <trkpt lat="43.75809" lon="7.03827">
        <ele>964.59997558594</ele>
        <time>2023-07-30T08:00:19.000Z</time>
      </trkpt>
      <trkpt lat="43.75809" lon="7.03827">
        <ele>964.40002441406</ele>
        <time>2023-07-30T08:00:20.000Z</time>
      </trkpt>
      <trkpt lat="43.75809" lon="7.03827">
        <ele>964.40002441406</ele>
        <time>2023-07-30T08:00:21.000Z</time>
      </trkpt>
      <trkpt lat="43.75809" lon="7.03827">
        <ele>964.40002441406</ele>
        <time>2023-07-30T08:00:22.000Z</time>
      </trkpt>
      <trkpt lat="43.75809" lon="7.03827">
        <ele>964.40002441406</ele>
        <time>2023-07-30T08:00:23.000Z</time>
      </trkpt>
      <trkpt lat="43.75809" lon="7.03827">
        <ele>964.40002441406</ele>
        <time>2023-07-30T08:00:24.000Z</time>
      </trkpt>
      <trkpt lat="43.75809" lon="7.03827">
        <ele>964.59997558594</ele>
        <time>2023-07-30T08:00:25.000Z</time>
      </trkpt>
      <trkpt lat="43.75809" lon="7.03827">
        <ele>964.59997558594</ele>
        <time>2023-07-30T08:00:26.000Z</time>
      </trkpt>
      <trkpt lat="43.75809" lon="7.03827">
        <ele>964.40002441406</ele>
        <time>2023-07-30T08:00:27.000Z</time>
      </trkpt>
      <trkpt lat="43.75809" lon="7.03827">
        <ele>964.40002441406</ele>
        <time>2023-07-30T08:00:28.000Z</time>
      </trkpt>
      <trkpt lat="43.75809" lon="7.03829">
        <ele>964.40002441406</ele>
        <time>2023-07-30T08:00:29.000Z</time>
      </trkpt>
      <trkpt lat="43.75809" lon="7.03828">
        <ele>964.20001220703</ele>
        <time>2023-07-30T08:00:30.000Z</time>
      </trkpt>
      <trkpt lat="43.75808" lon="7.03827">
        <ele>964.20001220703</ele>
        <time>2023-07-30T08:00:31.000Z</time>
      </trkpt>
      <trkpt lat="43.75808" lon="7.03826">
        <ele>964.20001220703</ele>
        <time>2023-07-30T08:00:32.000Z</time>
      </trkpt>
      <trkpt lat="43.75807" lon="7.03826">
        <ele>964.20001220703</ele>
        <time>2023-07-30T08:00:33.000Z</time>
      </trkpt>
      <trkpt lat="43.75807" lon="7.03825">
        <ele>964.20001220703</ele>
        <time>2023-07-30T08:00:34.000Z</time>
      </trkpt>
      <trkpt lat="43.75807" lon="7.03823">
        <ele>964.20001220703</ele>
        <time>2023-07-30T08:00:35.000Z</time>
      </trkpt>
      <trkpt lat="43.75808" lon="7.03824">
        <ele>964.20001220703</ele>
        <time>2023-07-30T08:00:36.000Z</time>
      </trkpt>
      <trkpt lat="43.75808" lon="7.03824">
        <ele>964.20001220703</ele>
        <time>2023-07-30T08:00:37.000Z</time>
      </trkpt>
      <trkpt lat="43.75808" lon="7.03823">
        <ele>964.40002441406</ele>
        <time>2023-07-30T08:00:38.000Z</time>
      </trkpt>
      <trkpt lat="43.75808" lon="7.03823">
        <ele>964.40002441406</ele>
        <time>2023-07-30T08:00:39.000Z</time>
      </trkpt>
      <trkpt lat="43.75808" lon="7.03823">
        <ele>964.40002441406</ele>
        <time>2023-07-30T08:00:40.000Z</time>
      </trkpt>
      <trkpt lat="43.75809" lon="7.03822">
        <ele>964.40002441406</ele>
        <time>2023-07-30T08:00:41.000Z</time>
      </trkpt>
      <trkpt lat="43.7581" lon="7.03823">
        <ele>964.59997558594</ele>
        <time>2023-07-30T08:00:42.000Z</time>
      </trkpt>
      <trkpt lat="43.7581" lon="7.03824">
        <ele>964.59997558594</ele>
        <time>2023-07-30T08:00:43.000Z</time>
      </trkpt>
      <trkpt lat="43.75811" lon="7.03824">
        <ele>964.59997558594</ele>
        <time>2023-07-30T08:00:44.000Z</time>
      </trkpt>
      <trkpt lat="43.75811" lon="7.03824">
        <ele>964.59997558594</ele>
        <time>2023-07-30T08:00:45.000Z</time>
      </trkpt>
      <trkpt lat="43.75811" lon="7.03824">
        <ele>964.40002441406</ele>
        <time>2023-07-30T08:00:46.000Z</time>
      </trkpt>
      <trkpt lat="43.75811" lon="7.03824">
        <ele>964.59997558594</ele>
        <time>2023-07-30T08:00:47.000Z</time>
      </trkpt>
      <trkpt lat="43.75811" lon="7.03824">
        <ele>964.59997558594</ele>
        <time>2023-07-30T08:00:48.000Z</time>
      </trkpt>
      <trkpt lat="43.75811" lon="7.03824">
        <ele>964.59997558594</ele>
        <time>2023-07-30T08:00:49.000Z</time>
      </trkpt>
      <trkpt lat="43.75811" lon="7.03824">
        <ele>964.40002441406</ele>
        <time>2023-07-30T08:00:50.000Z</time>
      </trkpt>
      <trkpt lat="43.75811" lon="7.03824">
        <ele>964.40002441406</ele>
        <time>2023-07-30T08:00:51.000Z</time>
      </trkpt>
      <trkpt lat="43.75811" lon="7.03824">
        <ele>964.40002441406</ele>
        <time>2023-07-30T08:00:52.000Z</time>
      </trkpt>
      <trkpt lat="43.75811" lon="7.03824">
        <ele>964.40002441406</ele>
        <time>2023-07-30T08:00:53.000Z</time>
      </trkpt>
      <trkpt lat="43.75811" lon="7.03824">
        <ele>964.59997558594</ele>
        <time>2023-07-30T08:00:54.000Z</time>
      </trkpt>
      <trkpt lat="43.75811" lon="7.03824">
        <ele>964.59997558594</ele>
        <time>2023-07-30T08:00:55.000Z</time>
      </trkpt>
      <trkpt lat="43.75811" lon="7.03824">
        <ele>964.59997558594</ele>
        <time>2023-07-30T08:00:56.000Z</time>
      </trkpt>
      <trkpt lat="43.75811" lon="7.03824">
        <ele>964.59997558594</ele>
        <time>2023-07-30T08:00:57.000Z</time>
      </trkpt>
      <trkpt lat="43.75811" lon="7.03824">
        <ele>964.59997558594</ele>
        <time>2023-07-30T08:00:58.000Z</time>
      </trkpt>
      <trkpt lat="43.75811" lon="7.03824">
        <ele>964.59997558594</ele>
        <time>2023-07-30T08:00:59.000Z</time>
      </trkpt>
      <trkpt lat="43.75812" lon="7.03825">
        <ele>964.59997558594</ele>
        <time>2023-07-30T08:01:00.000Z</time>
      </trkpt>
      <trkpt lat="43.75813" lon="7.03825">
        <ele>964.59997558594</ele>
        <time>2023-07-30T08:01:01.000Z</time>
      </trkpt>
      <trkpt lat="43.75814" lon="7.03824">
        <ele>964.59997558594</ele>
        <time>2023-07-30T08:01:02.000Z</time>
      </trkpt>
      <trkpt lat="43.75815" lon="7.03824">
        <ele>964.59997558594</ele>
        <time>2023-07-30T08:01:03.000Z</time>
      </trkpt>
      <trkpt lat="43.75816" lon="7.03823">
        <ele>964.59997558594</ele>
        <time>2023-07-30T08:01:04.000Z</time>
      </trkpt>
      <trkpt lat="43.75818" lon="7.03822">
        <ele>964.59997558594</ele>
        <time>2023-07-30T08:01:05.000Z</time>
      </trkpt>
      <trkpt lat="43.7582" lon="7.03822">
        <ele>964.79998779297</ele>
        <time>2023-07-30T08:01:06.000Z</time>
      </trkpt>
      <trkpt lat="43.75823" lon="7.03821">
        <ele>964.79998779297</ele>
        <time>2023-07-30T08:01:07.000Z</time>
      </trkpt>
      <trkpt lat="43.75825" lon="7.0382">
        <ele>965</ele>
        <time>2023-07-30T08:01:08.000Z</time>
      </trkpt>
      <trkpt lat="43.75827" lon="7.0382">
        <ele>965</ele>
        <time>2023-07-30T08:01:09.000Z</time>
      </trkpt>
      <trkpt lat="43.75829" lon="7.03819">
        <ele>965.20001220703</ele>
        <time>2023-07-30T08:01:10.000Z</time>
      </trkpt>
      <trkpt lat="43.75831" lon="7.03818">
        <ele>965.20001220703</ele>
        <time>2023-07-30T08:01:11.000Z</time>
      </trkpt>
      <trkpt lat="43.75834" lon="7.03817">
        <ele>965.20001220703</ele>
        <time>2023-07-30T08:01:12.000Z</time>
      </trkpt>
      <trkpt lat="43.75836" lon="7.03816">
        <ele>965.40002441406</ele>
        <time>2023-07-30T08:01:13.000Z</time>
      </trkpt>
      <trkpt lat="43.75837" lon="7.03815">
        <ele>965.59997558594</ele>
        <time>2023-07-30T08:01:14.000Z</time>
      </trkpt>
      <trkpt lat="43.7584" lon="7.03814">
        <ele>965.79998779297</ele>
        <time>2023-07-30T08:01:15.000Z</time>
      </trkpt>
      <trkpt lat="43.75842" lon="7.03811">
        <ele>965.79998779297</ele>
        <time>2023-07-30T08:01:16.000Z</time>
      </trkpt>
      <trkpt lat="43.75844" lon="7.03807">
        <ele>966</ele>
        <time>2023-07-30T08:01:17.000Z</time>
      </trkpt>
      <trkpt lat="43.75847" lon="7.03803">
        <ele>966</ele>
        <time>2023-07-30T08:01:18.000Z</time>
      </trkpt>
      <trkpt lat="43.75849" lon="7.03798">
        <ele>966</ele>
        <time>2023-07-30T08:01:19.000Z</time>
      </trkpt>
      <trkpt lat="43.75853" lon="7.03794">
        <ele>965.79998779297</ele>
        <time>2023-07-30T08:01:20.000Z</time>
      </trkpt>
      <trkpt lat="43.75856" lon="7.03791">
        <ele>965</ele>
        <time>2023-07-30T08:01:21.000Z</time>
      </trkpt>
      <trkpt lat="43.75859" lon="7.03787">
        <ele>964.79998779297</ele>
        <time>2023-07-30T08:01:22.000Z</time>
      </trkpt>
      <trkpt lat="43.75861" lon="7.03782">
        <ele>964.20001220703</ele>
        <time>2023-07-30T08:01:23.000Z</time>
      </trkpt>
      <trkpt lat="43.75861" lon="7.03777">
        <ele>963.79998779297</ele>
        <time>2023-07-30T08:01:24.000Z</time>
      </trkpt>
      <trkpt lat="43.7586" lon="7.03771">
        <ele>963.79998779297</ele>
        <time>2023-07-30T08:01:25.000Z</time>
      </trkpt>
      <trkpt lat="43.75857" lon="7.03766">
        <ele>963.79998779297</ele>
        <time>2023-07-30T08:01:26.000Z</time>
      </trkpt>
      <trkpt lat="43.75855" lon="7.03761">
        <ele>963.79998779297</ele>
        <time>2023-07-30T08:01:27.000Z</time>
      </trkpt>
      <trkpt lat="43.75853" lon="7.03755">
        <ele>963.40002441406</ele>
        <time>2023-07-30T08:01:28.000Z</time>
      </trkpt>
      <trkpt lat="43.75853" lon="7.03749">
        <ele>963</ele>
        <time>2023-07-30T08:01:29.000Z</time>
      </trkpt>
      <trkpt lat="43.75852" lon="7.03742">
        <ele>962.59997558594</ele>
        <time>2023-07-30T08:01:30.000Z</time>
      </trkpt>
      <trkpt lat="43.75851" lon="7.03735">
        <ele>962.20001220703</ele>
        <time>2023-07-30T08:01:31.000Z</time>
      </trkpt>
      <trkpt lat="43.75848" lon="7.03729">
        <ele>962.20001220703</ele>
        <time>2023-07-30T08:01:32.000Z</time>
      </trkpt>
      <trkpt lat="43.75844" lon="7.03725">
        <ele>961.40002441406</ele>
        <time>2023-07-30T08:01:33.000Z</time>
      </trkpt>
      <trkpt lat="43.75839" lon="7.03721">
        <ele>960.79998779297</ele>
        <time>2023-07-30T08:01:34.000Z</time>
      </trkpt>
      <trkpt lat="43.75835" lon="7.03717">
        <ele>960</ele>
        <time>2023-07-30T08:01:35.000Z</time>
      </trkpt>
      <trkpt lat="43.75831" lon="7.03712">
        <ele>959.59997558594</ele>
        <time>2023-07-30T08:01:36.000Z</time>
      </trkpt>
      <trkpt lat="43.75826" lon="7.03709">
        <ele>959.40002441406</ele>
        <time>2023-07-30T08:01:37.000Z</time>
      </trkpt>
      <trkpt lat="43.75821" lon="7.03705">
        <ele>958.59997558594</ele>
        <time>2023-07-30T08:01:38.000Z</time>
      </trkpt>
      <trkpt lat="43.75817" lon="7.03701">
        <ele>958.40002441406</ele>
        <time>2023-07-30T08:01:39.000Z</time>
      </trkpt>
      <trkpt lat="43.75815" lon="7.03696">
        <ele>958.40002441406</ele>
        <time>2023-07-30T08:01:40.000Z</time>
      </trkpt>
      <trkpt lat="43.75813" lon="7.0369">
        <ele>958.20001220703</ele>
        <time>2023-07-30T08:01:41.000Z</time>
      </trkpt>
      <trkpt lat="43.75812" lon="7.03684">
        <ele>957.79998779297</ele>
        <time>2023-07-30T08:01:42.000Z</time>
      </trkpt>
      <trkpt lat="43.7581" lon="7.03678">
        <ele>957.59997558594</ele>
        <time>2023-07-30T08:01:43.000Z</time>
      </trkpt>
      <trkpt lat="43.75808" lon="7.03672">
        <ele>957.40002441406</ele>
        <time>2023-07-30T08:01:44.000Z</time>
      </trkpt>
      <trkpt lat="43.75807" lon="7.03666">
        <ele>957.40002441406</ele>
        <time>2023-07-30T08:01:45.000Z</time>
      </trkpt>
      <trkpt lat="43.75807" lon="7.03658">
        <ele>957.20001220703</ele>
        <time>2023-07-30T08:01:46.000Z</time>
      </trkpt>
      <trkpt lat="43.75807" lon="7.03651">
        <ele>957.20001220703</ele>
        <time>2023-07-30T08:01:47.000Z</time>
      </trkpt>
      <trkpt lat="43.75808" lon="7.03643">
        <ele>957.20001220703</ele>
        <time>2023-07-30T08:01:48.000Z</time>
      </trkpt>
      <trkpt lat="43.75809" lon="7.03634">
        <ele>956.59997558594</ele>
        <time>2023-07-30T08:01:49.000Z</time>
      </trkpt>
      <trkpt lat="43.75809" lon="7.03626">
        <ele>956</ele>
        <time>2023-07-30T08:01:50.000Z</time>
      </trkpt>
      <trkpt lat="43.75808" lon="7.03618">
        <ele>955.59997558594</ele>
        <time>2023-07-30T08:01:51.000Z</time>
      </trkpt>
      <trkpt lat="43.75807" lon="7.0361">
        <ele>954.20001220703</ele>
        <time>2023-07-30T08:01:52.000Z</time>
      </trkpt>
      <trkpt lat="43.75806" lon="7.03603">
        <ele>954.20001220703</ele>
        <time>2023-07-30T08:01:53.000Z</time>
      </trkpt>
      <trkpt lat="43.75805" lon="7.03597">
        <ele>953.79998779297</ele>
        <time>2023-07-30T08:01:54.000Z</time>
      </trkpt>
      <trkpt lat="43.75805" lon="7.03591">
        <ele>953.59997558594</ele>
        <time>2023-07-30T08:01:55.000Z</time>
      </trkpt>
      <trkpt lat="43.75805" lon="7.03586">
        <ele>953.40002441406</ele>
        <time>2023-07-30T08:01:56.000Z</time>
      </trkpt>
      <trkpt lat="43.75805" lon="7.0358">
        <ele>952.59997558594</ele>
        <time>2023-07-30T08:01:57.000Z</time>
      </trkpt>
      <trkpt lat="43.75805" lon="7.03574">
        <ele>952.59997558594</ele>
        <time>2023-07-30T08:01:58.000Z</time>
      </trkpt>
      <trkpt lat="43.75805" lon="7.03568">
        <ele>952.59997558594</ele>
        <time>2023-07-30T08:01:59.000Z</time>
      </trkpt>
      <trkpt lat="43.75805" lon="7.03561">
        <ele>952.59997558594</ele>
        <time>2023-07-30T08:02:00.000Z</time>
      </trkpt>
      <trkpt lat="43.75805" lon="7.03554">
        <ele>952.59997558594</ele>
        <time>2023-07-30T08:02:01.000Z</time>
      </trkpt>
      <trkpt lat="43.75805" lon="7.03547">
        <ele>952.20001220703</ele>
        <time>2023-07-30T08:02:02.000Z</time>
      </trkpt>
      <trkpt lat="43.75804" lon="7.03539">
        <ele>952.20001220703</ele>
        <time>2023-07-30T08:02:03.000Z</time>
      </trkpt>
      <trkpt lat="43.75803" lon="7.03533">
        <ele>951.40002441406</ele>
        <time>2023-07-30T08:02:04.000Z</time>
      </trkpt>
      <trkpt lat="43.75803" lon="7.03528">
        <ele>951.40002441406</ele>
        <time>2023-07-30T08:02:05.000Z</time>
      </trkpt>
      <trkpt lat="43.75802" lon="7.03522">
        <ele>951.20001220703</ele>
        <time>2023-07-30T08:02:06.000Z</time>
      </trkpt>
      <trkpt lat="43.75801" lon="7.03518">
        <ele>950.79998779297</ele>
        <time>2023-07-30T08:02:07.000Z</time>
      </trkpt>
      <trkpt lat="43.758" lon="7.03513">
        <ele>950.79998779297</ele>
        <time>2023-07-30T08:02:08.000Z</time>
      </trkpt>
      <trkpt lat="43.75799" lon="7.03507">
        <ele>950.40002441406</ele>
        <time>2023-07-30T08:02:09.000Z</time>
      </trkpt>
      <trkpt lat="43.75796" lon="7.03503">
        <ele>950.40002441406</ele>
        <time>2023-07-30T08:02:10.000Z</time>
      </trkpt>
      <trkpt lat="43.75794" lon="7.03498">
        <ele>950.79998779297</ele>
        <time>2023-07-30T08:02:11.000Z</time>
      </trkpt>
      <trkpt lat="43.75792" lon="7.03493">
        <ele>950.59997558594</ele>
        <time>2023-07-30T08:02:12.000Z</time>
      </trkpt>
      <trkpt lat="43.75789" lon="7.03488">
        <ele>950.59997558594</ele>
        <time>2023-07-30T08:02:13.000Z</time>
      </trkpt>
      <trkpt lat="43.75787" lon="7.03483">
        <ele>950.59997558594</ele>
        <time>2023-07-30T08:02:14.000Z</time>
      </trkpt>
      <trkpt lat="43.75785" lon="7.03478">
        <ele>950.20001220703</ele>
        <time>2023-07-30T08:02:15.000Z</time>
      </trkpt>
      <trkpt lat="43.75782" lon="7.03473">
        <ele>950.20001220703</ele>
        <time>2023-07-30T08:02:16.000Z</time>
      </trkpt>
      <trkpt lat="43.7578" lon="7.03468">
        <ele>950</ele>
        <time>2023-07-30T08:02:17.000Z</time>
      </trkpt>
      <trkpt lat="43.75777" lon="7.03462">
        <ele>950</ele>
        <time>2023-07-30T08:02:18.000Z</time>
      </trkpt>
      <trkpt lat="43.75773" lon="7.03458">
        <ele>949.79998779297</ele>
        <time>2023-07-30T08:02:19.000Z</time>
      </trkpt>
      <trkpt lat="43.75771" lon="7.03454">
        <ele>949.59997558594</ele>
        <time>2023-07-30T08:02:20.000Z</time>
      </trkpt>
      <trkpt lat="43.75769" lon="7.0345">
        <ele>949.20001220703</ele>
        <time>2023-07-30T08:02:21.000Z</time>
      </trkpt>
      <trkpt lat="43.75766" lon="7.03445">
        <ele>949</ele>
        <time>2023-07-30T08:02:22.000Z</time>
      </trkpt>
      <trkpt lat="43.75764" lon="7.03441">
        <ele>948.79998779297</ele>
        <time>2023-07-30T08:02:23.000Z</time>
      </trkpt>
      <trkpt lat="43.75762" lon="7.03436">
        <ele>948.59997558594</ele>
        <time>2023-07-30T08:02:24.000Z</time>
      </trkpt>
      <trkpt lat="43.75759" lon="7.03431">
        <ele>948.40002441406</ele>
        <time>2023-07-30T08:02:25.000Z</time>
      </trkpt>
      <trkpt lat="43.75756" lon="7.03427">
        <ele>948.20001220703</ele>
        <time>2023-07-30T08:02:26.000Z</time>
      </trkpt>
      <trkpt lat="43.75754" lon="7.03422">
        <ele>948</ele>
        <time>2023-07-30T08:02:27.000Z</time>
      </trkpt>
      <trkpt lat="43.75751" lon="7.03418">
        <ele>947.59997558594</ele>
        <time>2023-07-30T08:02:28.000Z</time>
      </trkpt>
      <trkpt lat="43.75748" lon="7.03414">
        <ele>947.40002441406</ele>
        <time>2023-07-30T08:02:29.000Z</time>
      </trkpt>
      <trkpt lat="43.75746" lon="7.0341">
        <ele>947.40002441406</ele>
        <time>2023-07-30T08:02:30.000Z</time>
      </trkpt>
      <trkpt lat="43.75744" lon="7.03406">
        <ele>947.20001220703</ele>
        <time>2023-07-30T08:02:31.000Z</time>
      </trkpt>
      <trkpt lat="43.75741" lon="7.03402">
        <ele>947.20001220703</ele>
        <time>2023-07-30T08:02:32.000Z</time>
      </trkpt>
      <trkpt lat="43.75739" lon="7.03398">
        <ele>947.20001220703</ele>
        <time>2023-07-30T08:02:33.000Z</time>
      </trkpt>
      <trkpt lat="43.75737" lon="7.03395">
        <ele>947.20001220703</ele>
        <time>2023-07-30T08:02:34.000Z</time>
      </trkpt>
      <trkpt lat="43.75735" lon="7.03392">
        <ele>947.59997558594</ele>
        <time>2023-07-30T08:02:35.000Z</time>
      </trkpt>
      <trkpt lat="43.75734" lon="7.03389">
        <ele>947.79998779297</ele>
        <time>2023-07-30T08:02:36.000Z</time>
      </trkpt>
      <trkpt lat="43.75732" lon="7.03385">
        <ele>947.79998779297</ele>
        <time>2023-07-30T08:02:37.000Z</time>
      </trkpt>
      <trkpt lat="43.75729" lon="7.03382">
        <ele>947.79998779297</ele>
        <time>2023-07-30T08:02:38.000Z</time>
      </trkpt>
      <trkpt lat="43.75727" lon="7.03379">
        <ele>947.79998779297</ele>
        <time>2023-07-30T08:02:39.000Z</time>
      </trkpt>
      <trkpt lat="43.75725" lon="7.03376">
        <ele>947.79998779297</ele>
        <time>2023-07-30T08:02:40.000Z</time>
      </trkpt>
      <trkpt lat="43.75723" lon="7.03373">
        <ele>948</ele>
        <time>2023-07-30T08:02:41.000Z</time>
      </trkpt>
      <trkpt lat="43.75722" lon="7.03371">
        <ele>948</ele>
        <time>2023-07-30T08:02:42.000Z</time>
      </trkpt>
      <trkpt lat="43.75721" lon="7.03369">
        <ele>948</ele>
        <time>2023-07-30T08:02:43.000Z</time>
      </trkpt>
      <trkpt lat="43.7572" lon="7.03368">
        <ele>948</ele>
        <time>2023-07-30T08:02:44.000Z</time>
      </trkpt>
      <trkpt lat="43.7572" lon="7.03366">
        <ele>948</ele>
        <time>2023-07-30T08:02:45.000Z</time>
      </trkpt>
      <trkpt lat="43.75718" lon="7.03365">
        <ele>948</ele>
        <time>2023-07-30T08:02:46.000Z</time>
      </trkpt>
      <trkpt lat="43.75717" lon="7.03364">
        <ele>948</ele>
        <time>2023-07-30T08:02:47.000Z</time>
      </trkpt>
      <trkpt lat="43.75716" lon="7.03362">
        <ele>948</ele>
        <time>2023-07-30T08:02:48.000Z</time>
      </trkpt>
      <trkpt lat="43.75714" lon="7.03359">
        <ele>948</ele>
        <time>2023-07-30T08:02:49.000Z</time>
      </trkpt>
      <trkpt lat="43.75712" lon="7.03357">
        <ele>948</ele>
        <time>2023-07-30T08:02:50.000Z</time>
      </trkpt>
      <trkpt lat="43.7571" lon="7.03354">
        <ele>948</ele>
        <time>2023-07-30T08:02:51.000Z</time>
      </trkpt>
      <trkpt lat="43.75708" lon="7.0335">
        <ele>948</ele>
        <time>2023-07-30T08:02:52.000Z</time>
      </trkpt>
      <trkpt lat="43.75706" lon="7.03347">
        <ele>948</ele>
        <time>2023-07-30T08:02:53.000Z</time>
      </trkpt>
      <trkpt lat="43.75704" lon="7.03343">
        <ele>948</ele>
        <time>2023-07-30T08:02:54.000Z</time>
      </trkpt>
      <trkpt lat="43.75702" lon="7.03338">
        <ele>948</ele>
        <time>2023-07-30T08:02:55.000Z</time>
      </trkpt>
      <trkpt lat="43.757" lon="7.03335">
        <ele>948</ele>
        <time>2023-07-30T08:02:56.000Z</time>
      </trkpt>
      <trkpt lat="43.75698" lon="7.03331">
        <ele>947.79998779297</ele>
        <time>2023-07-30T08:02:57.000Z</time>
      </trkpt>
      <trkpt lat="43.75696" lon="7.03327">
        <ele>947.79998779297</ele>
        <time>2023-07-30T08:02:58.000Z</time>
      </trkpt>
      <trkpt lat="43.75694" lon="7.03324">
        <ele>947.59997558594</ele>
        <time>2023-07-30T08:02:59.000Z</time>
      </trkpt>
      <trkpt lat="43.75693" lon="7.0332">
        <ele>947.59997558594</ele>
        <time>2023-07-30T08:03:00.000Z</time>
      </trkpt>
      <trkpt lat="43.75692" lon="7.03316">
        <ele>947.59997558594</ele>
        <time>2023-07-30T08:03:01.000Z</time>
      </trkpt>
      <trkpt lat="43.75691" lon="7.03311">
        <ele>948</ele>
        <time>2023-07-30T08:03:02.000Z</time>
      </trkpt>
      <trkpt lat="43.75691" lon="7.03306">
        <ele>948.20001220703</ele>
        <time>2023-07-30T08:03:03.000Z</time>
      </trkpt>
      <trkpt lat="43.7569" lon="7.033">
        <ele>948.20001220703</ele>
        <time>2023-07-30T08:03:04.000Z</time>
      </trkpt>
      <trkpt lat="43.7569" lon="7.03294">
        <ele>948.20001220703</ele>
        <time>2023-07-30T08:03:05.000Z</time>
      </trkpt>
      <trkpt lat="43.75689" lon="7.03288">
        <ele>948.20001220703</ele>
        <time>2023-07-30T08:03:06.000Z</time>
      </trkpt>
      <trkpt lat="43.75689" lon="7.03283">
        <ele>948.20001220703</ele>
        <time>2023-07-30T08:03:07.000Z</time>
      </trkpt>
      <trkpt lat="43.75688" lon="7.03278">
        <ele>948.20001220703</ele>
        <time>2023-07-30T08:03:08.000Z</time>
      </trkpt>
      <trkpt lat="43.75686" lon="7.03274">
        <ele>948.20001220703</ele>
        <time>2023-07-30T08:03:09.000Z</time>
      </trkpt>
      <trkpt lat="43.75684" lon="7.03271">
        <ele>948.20001220703</ele>
        <time>2023-07-30T08:03:10.000Z</time>
      </trkpt>
      <trkpt lat="43.75682" lon="7.03267">
        <ele>948.20001220703</ele>
        <time>2023-07-30T08:03:11.000Z</time>
      </trkpt>
      <trkpt lat="43.7568" lon="7.03263">
        <ele>948.59997558594</ele>
        <time>2023-07-30T08:03:12.000Z</time>
      </trkpt>
      <trkpt lat="43.75678" lon="7.0326">
        <ele>948.59997558594</ele>
        <time>2023-07-30T08:03:13.000Z</time>
      </trkpt>
      <trkpt lat="43.75677" lon="7.03256">
        <ele>948.79998779297</ele>
        <time>2023-07-30T08:03:14.000Z</time>
      </trkpt>
      <trkpt lat="43.75675" lon="7.03253">
        <ele>949</ele>
        <time>2023-07-30T08:03:15.000Z</time>
      </trkpt>
      <trkpt lat="43.75674" lon="7.0325">
        <ele>949</ele>
        <time>2023-07-30T08:03:16.000Z</time>
      </trkpt>
      <trkpt lat="43.75672" lon="7.03246">
        <ele>949.20001220703</ele>
        <time>2023-07-30T08:03:17.000Z</time>
      </trkpt>
      <trkpt lat="43.7567" lon="7.03243">
        <ele>949.79998779297</ele>
        <time>2023-07-30T08:03:18.000Z</time>
      </trkpt>
      <trkpt lat="43.75668" lon="7.0324">
        <ele>950</ele>
        <time>2023-07-30T08:03:19.000Z</time>
      </trkpt>
      <trkpt lat="43.75667" lon="7.03237">
        <ele>950</ele>
        <time>2023-07-30T08:03:20.000Z</time>
      </trkpt>
      <trkpt lat="43.75665" lon="7.03233">
        <ele>950.20001220703</ele>
        <time>2023-07-30T08:03:21.000Z</time>
      </trkpt>
      <trkpt lat="43.75663" lon="7.03229">
        <ele>950.20001220703</ele>
        <time>2023-07-30T08:03:22.000Z</time>
      </trkpt>
      <trkpt lat="43.75661" lon="7.03225">
        <ele>950.20001220703</ele>
        <time>2023-07-30T08:03:23.000Z</time>
      </trkpt>
      <trkpt lat="43.7566" lon="7.03222">
        <ele>950.20001220703</ele>
        <time>2023-07-30T08:03:24.000Z</time>
      </trkpt>
      <trkpt lat="43.75659" lon="7.03218">
        <ele>950.20001220703</ele>
        <time>2023-07-30T08:03:25.000Z</time>
      </trkpt>
      <trkpt lat="43.75657" lon="7.03214">
        <ele>950.20001220703</ele>
        <time>2023-07-30T08:03:26.000Z</time>
      </trkpt>
      <trkpt lat="43.75655" lon="7.0321">
        <ele>950.20001220703</ele>
        <time>2023-07-30T08:03:27.000Z</time>
      </trkpt>
      <trkpt lat="43.75654" lon="7.03206">
        <ele>950.20001220703</ele>
        <time>2023-07-30T08:03:28.000Z</time>
      </trkpt>
      <trkpt lat="43.75653" lon="7.03202">
        <ele>950.40002441406</ele>
        <time>2023-07-30T08:03:29.000Z</time>
      </trkpt>
      <trkpt lat="43.75652" lon="7.03198">
        <ele>951.20001220703</ele>
        <time>2023-07-30T08:03:30.000Z</time>
      </trkpt>
      <trkpt lat="43.75651" lon="7.03194">
        <ele>951.20001220703</ele>
        <time>2023-07-30T08:03:31.000Z</time>
      </trkpt>
      <trkpt lat="43.75649" lon="7.03189">
        <ele>951.20001220703</ele>
        <time>2023-07-30T08:03:32.000Z</time>
      </trkpt>
      <trkpt lat="43.75648" lon="7.03184">
        <ele>951.40002441406</ele>
        <time>2023-07-30T08:03:33.000Z</time>
      </trkpt>
      <trkpt lat="43.75646" lon="7.03181">
        <ele>951.40002441406</ele>
        <time>2023-07-30T08:03:34.000Z</time>
      </trkpt>
      <trkpt lat="43.75645" lon="7.03177">
        <ele>951.40002441406</ele>
        <time>2023-07-30T08:03:35.000Z</time>
      </trkpt>
      <trkpt lat="43.75644" lon="7.03172">
        <ele>951.59997558594</ele>
        <time>2023-07-30T08:03:36.000Z</time>
      </trkpt>
      <trkpt lat="43.75643" lon="7.03168">
        <ele>951.79998779297</ele>
        <time>2023-07-30T08:03:37.000Z</time>
      </trkpt>
      <trkpt lat="43.75641" lon="7.03163">
        <ele>951.79998779297</ele>
        <time>2023-07-30T08:03:38.000Z</time>
      </trkpt>
      <trkpt lat="43.75639" lon="7.03159">
        <ele>951.79998779297</ele>
        <time>2023-07-30T08:03:39.000Z</time>
      </trkpt>
      <trkpt lat="43.75639" lon="7.03155">
        <ele>952</ele>
        <time>2023-07-30T08:03:40.000Z</time>
      </trkpt>
      <trkpt lat="43.75638" lon="7.0315">
        <ele>952</ele>
        <time>2023-07-30T08:03:41.000Z</time>
      </trkpt>
      <trkpt lat="43.75637" lon="7.03145">
        <ele>952.20001220703</ele>
        <time>2023-07-30T08:03:42.000Z</time>
      </trkpt>
      <trkpt lat="43.75637" lon="7.0314">
        <ele>952.20001220703</ele>
        <time>2023-07-30T08:03:43.000Z</time>
      </trkpt>
      <trkpt lat="43.75637" lon="7.03134">
        <ele>952.20001220703</ele>
        <time>2023-07-30T08:03:44.000Z</time>
      </trkpt>
      <trkpt lat="43.75637" lon="7.03129">
        <ele>952.20001220703</ele>
        <time>2023-07-30T08:03:45.000Z</time>
      </trkpt>
      <trkpt lat="43.75637" lon="7.03124">
        <ele>952.20001220703</ele>
        <time>2023-07-30T08:03:46.000Z</time>
      </trkpt>
      <trkpt lat="43.75637" lon="7.03119">
        <ele>952</ele>
        <time>2023-07-30T08:03:47.000Z</time>
      </trkpt>
      <trkpt lat="43.75638" lon="7.03114">
        <ele>952</ele>
        <time>2023-07-30T08:03:48.000Z</time>
      </trkpt>
      <trkpt lat="43.75639" lon="7.03108">
        <ele>951.79998779297</ele>
        <time>2023-07-30T08:03:49.000Z</time>
      </trkpt>
      <trkpt lat="43.7564" lon="7.03103">
        <ele>951.79998779297</ele>
        <time>2023-07-30T08:03:50.000Z</time>
      </trkpt>
      <trkpt lat="43.75641" lon="7.03097">
        <ele>951.59997558594</ele>
        <time>2023-07-30T08:03:51.000Z</time>
      </trkpt>
      <trkpt lat="43.75641" lon="7.03091">
        <ele>951.40002441406</ele>
        <time>2023-07-30T08:03:52.000Z</time>
      </trkpt>
      <trkpt lat="43.75641" lon="7.03086">
        <ele>951.20001220703</ele>
        <time>2023-07-30T08:03:53.000Z</time>
      </trkpt>
      <trkpt lat="43.75641" lon="7.0308">
        <ele>951.20001220703</ele>
        <time>2023-07-30T08:03:54.000Z</time>
      </trkpt>
      <trkpt lat="43.7564" lon="7.03074">
        <ele>951.20001220703</ele>
        <time>2023-07-30T08:03:55.000Z</time>
      </trkpt>
      <trkpt lat="43.7564" lon="7.03068">
        <ele>951</ele>
        <time>2023-07-30T08:03:56.000Z</time>
      </trkpt>
      <trkpt lat="43.75639" lon="7.03062">
        <ele>951</ele>
        <time>2023-07-30T08:03:57.000Z</time>
      </trkpt>
      <trkpt lat="43.75637" lon="7.03057">
        <ele>951</ele>
        <time>2023-07-30T08:03:58.000Z</time>
      </trkpt>
      <trkpt lat="43.75635" lon="7.03051">
        <ele>950.79998779297</ele>
        <time>2023-07-30T08:03:59.000Z</time>
      </trkpt>
      <trkpt lat="43.75633" lon="7.03046">
        <ele>950.40002441406</ele>
        <time>2023-07-30T08:04:00.000Z</time>
      </trkpt>
      <trkpt lat="43.7563" lon="7.03042">
        <ele>950.20001220703</ele>
        <time>2023-07-30T08:04:01.000Z</time>
      </trkpt>
      <trkpt lat="43.75627" lon="7.03037">
        <ele>950.20001220703</ele>
        <time>2023-07-30T08:04:02.000Z</time>
      </trkpt>
      <trkpt lat="43.75624" lon="7.03032">
        <ele>950</ele>
        <time>2023-07-30T08:04:03.000Z</time>
      </trkpt>
      <trkpt lat="43.75622" lon="7.03026">
        <ele>950</ele>
        <time>2023-07-30T08:04:04.000Z</time>
      </trkpt>
      <trkpt lat="43.75619" lon="7.03021">
        <ele>950</ele>
        <time>2023-07-30T08:04:05.000Z</time>
      </trkpt>
      <trkpt lat="43.75617" lon="7.03016">
        <ele>950</ele>
        <time>2023-07-30T08:04:06.000Z</time>
      </trkpt>
      <trkpt lat="43.75614" lon="7.03011">
        <ele>949.79998779297</ele>
        <time>2023-07-30T08:04:07.000Z</time>
      </trkpt>
      <trkpt lat="43.75612" lon="7.03007">
        <ele>949.79998779297</ele>
        <time>2023-07-30T08:04:08.000Z</time>
      </trkpt>
      <trkpt lat="43.7561" lon="7.03003">
        <ele>949.59997558594</ele>
        <time>2023-07-30T08:04:09.000Z</time>
      </trkpt>
      <trkpt lat="43.75608" lon="7.02997">
        <ele>949.40002441406</ele>
        <time>2023-07-30T08:04:10.000Z</time>
      </trkpt>
      <trkpt lat="43.75606" lon="7.02992">
        <ele>949.40002441406</ele>
        <time>2023-07-30T08:04:11.000Z</time>
      </trkpt>
      <trkpt lat="43.75604" lon="7.02987">
        <ele>949.20001220703</ele>
        <time>2023-07-30T08:04:12.000Z</time>
      </trkpt>
      <trkpt lat="43.75602" lon="7.02983">
        <ele>949.20001220703</ele>
        <time>2023-07-30T08:04:13.000Z</time>
      </trkpt>
      <trkpt lat="43.75601" lon="7.02978">
        <ele>949.20001220703</ele>
        <time>2023-07-30T08:04:14.000Z</time>
      </trkpt>
      <trkpt lat="43.75601" lon="7.02973">
        <ele>949</ele>
        <time>2023-07-30T08:04:15.000Z</time>
      </trkpt>
      <trkpt lat="43.75603" lon="7.02968">
        <ele>948.79998779297</ele>
        <time>2023-07-30T08:04:16.000Z</time>
      </trkpt>
      <trkpt lat="43.75606" lon="7.02965">
        <ele>948.79998779297</ele>
        <time>2023-07-30T08:04:17.000Z</time>
      </trkpt>
      <trkpt lat="43.75609" lon="7.02962">
        <ele>948.59997558594</ele>
        <time>2023-07-30T08:04:18.000Z</time>
      </trkpt>
      <trkpt lat="43.75612" lon="7.02959">
        <ele>948.40002441406</ele>
        <time>2023-07-30T08:04:19.000Z</time>
      </trkpt>
      <trkpt lat="43.75615" lon="7.02956">
        <ele>948.20001220703</ele>
        <time>2023-07-30T08:04:20.000Z</time>
      </trkpt>
      <trkpt lat="43.75618" lon="7.02952">
        <ele>948.40002441406</ele>
        <time>2023-07-30T08:04:21.000Z</time>
      </trkpt>
      <trkpt lat="43.75621" lon="7.02949">
        <ele>948.20001220703</ele>
        <time>2023-07-30T08:04:22.000Z</time>
      </trkpt>
      <trkpt lat="43.75625" lon="7.02944">
        <ele>948.20001220703</ele>
        <time>2023-07-30T08:04:23.000Z</time>
      </trkpt>
      <trkpt lat="43.75628" lon="7.0294">
        <ele>948.20001220703</ele>
        <time>2023-07-30T08:04:24.000Z</time>
      </trkpt>
      <trkpt lat="43.75631" lon="7.02936">
        <ele>947.79998779297</ele>
        <time>2023-07-30T08:04:25.000Z</time>
      </trkpt>
      <trkpt lat="43.75634" lon="7.02931">
        <ele>947.59997558594</ele>
        <time>2023-07-30T08:04:26.000Z</time>
      </trkpt>
      <trkpt lat="43.75637" lon="7.02927">
        <ele>947.59997558594</ele>
        <time>2023-07-30T08:04:27.000Z</time>
      </trkpt>
      <trkpt lat="43.75641" lon="7.02923">
        <ele>947.20001220703</ele>
        <time>2023-07-30T08:04:28.000Z</time>
      </trkpt>
      <trkpt lat="43.75645" lon="7.0292">
        <ele>947</ele>
        <time>2023-07-30T08:04:29.000Z</time>
      </trkpt>
      <trkpt lat="43.75649" lon="7.02916">
        <ele>946.79998779297</ele>
        <time>2023-07-30T08:04:30.000Z</time>
      </trkpt>
      <trkpt lat="43.75654" lon="7.02914">
        <ele>946.79998779297</ele>
        <time>2023-07-30T08:04:31.000Z</time>
      </trkpt>
      <trkpt lat="43.75659" lon="7.02912">
        <ele>946.79998779297</ele>
        <time>2023-07-30T08:04:32.000Z</time>
      </trkpt>
      <trkpt lat="43.75664" lon="7.02912">
        <ele>946.59997558594</ele>
        <time>2023-07-30T08:04:33.000Z</time>
      </trkpt>
      <trkpt lat="43.7567" lon="7.02911">
        <ele>946.59997558594</ele>
        <time>2023-07-30T08:04:34.000Z</time>
      </trkpt>
      <trkpt lat="43.75676" lon="7.02909">
        <ele>945.79998779297</ele>
        <time>2023-07-30T08:04:35.000Z</time>
      </trkpt>
      <trkpt lat="43.75682" lon="7.02907">
        <ele>945.20001220703</ele>
        <time>2023-07-30T08:04:36.000Z</time>
      </trkpt>
      <trkpt lat="43.75689" lon="7.02905">
        <ele>945</ele>
        <time>2023-07-30T08:04:37.000Z</time>
      </trkpt>
      <trkpt lat="43.75695" lon="7.02902">
        <ele>944.20001220703</ele>
        <time>2023-07-30T08:04:38.000Z</time>
      </trkpt>
      <trkpt lat="43.75701" lon="7.02899">
        <ele>944</ele>
        <time>2023-07-30T08:04:39.000Z</time>
      </trkpt>
      <trkpt lat="43.75706" lon="7.02895">
        <ele>944</ele>
        <time>2023-07-30T08:04:40.000Z</time>
      </trkpt>
      <trkpt lat="43.75708" lon="7.02888">
        <ele>943.40002441406</ele>
        <time>2023-07-30T08:04:41.000Z</time>
      </trkpt>
      <trkpt lat="43.75709" lon="7.02881">
        <ele>943</ele>
        <time>2023-07-30T08:04:42.000Z</time>
      </trkpt>
      <trkpt lat="43.7571" lon="7.02874">
        <ele>942.79998779297</ele>
        <time>2023-07-30T08:04:43.000Z</time>
      </trkpt>
      <trkpt lat="43.7571" lon="7.02866">
        <ele>942.20001220703</ele>
        <time>2023-07-30T08:04:44.000Z</time>
      </trkpt>
      <trkpt lat="43.75711" lon="7.02859">
        <ele>942</ele>
        <time>2023-07-30T08:04:45.000Z</time>
      </trkpt>
      <trkpt lat="43.75712" lon="7.02852">
        <ele>941.59997558594</ele>
        <time>2023-07-30T08:04:46.000Z</time>
      </trkpt>
      <trkpt lat="43.75714" lon="7.02844">
        <ele>941.40002441406</ele>
        <time>2023-07-30T08:04:47.000Z</time>
      </trkpt>
      <trkpt lat="43.75716" lon="7.02838">
        <ele>941.40002441406</ele>
        <time>2023-07-30T08:04:48.000Z</time>
      </trkpt>
      <trkpt lat="43.75717" lon="7.02831">
        <ele>941.20001220703</ele>
        <time>2023-07-30T08:04:49.000Z</time>
      </trkpt>
      <trkpt lat="43.75718" lon="7.02824">
        <ele>941.20001220703</ele>
        <time>2023-07-30T08:04:50.000Z</time>
      </trkpt>
      <trkpt lat="43.75718" lon="7.02818">
        <ele>941.20001220703</ele>
        <time>2023-07-30T08:04:51.000Z</time>
      </trkpt>
      <trkpt lat="43.75718" lon="7.02811">
        <ele>941.20001220703</ele>
        <time>2023-07-30T08:04:52.000Z</time>
      </trkpt>
      <trkpt lat="43.75718" lon="7.02805">
        <ele>941.20001220703</ele>
        <time>2023-07-30T08:04:53.000Z</time>
      </trkpt>
      <trkpt lat="43.75718" lon="7.02798">
        <ele>941.20001220703</ele>
        <time>2023-07-30T08:04:54.000Z</time>
      </trkpt>
      <trkpt lat="43.75718" lon="7.02792">
        <ele>941.20001220703</ele>
        <time>2023-07-30T08:04:55.000Z</time>
      </trkpt>
      <trkpt lat="43.75717" lon="7.02786">
        <ele>941.40002441406</ele>
        <time>2023-07-30T08:04:56.000Z</time>
      </trkpt>
      <trkpt lat="43.75716" lon="7.0278">
        <ele>941.40002441406</ele>
        <time>2023-07-30T08:04:57.000Z</time>
      </trkpt>
      <trkpt lat="43.75715" lon="7.02774">
        <ele>941.59997558594</ele>
        <time>2023-07-30T08:04:58.000Z</time>
      </trkpt>
      <trkpt lat="43.75714" lon="7.02768">
        <ele>941.59997558594</ele>
        <time>2023-07-30T08:04:59.000Z</time>
      </trkpt>
      <trkpt lat="43.75713" lon="7.02762">
        <ele>941.79998779297</ele>
        <time>2023-07-30T08:05:00.000Z</time>
      </trkpt>
      <trkpt lat="43.75712" lon="7.02757">
        <ele>942</ele>
        <time>2023-07-30T08:05:01.000Z</time>
      </trkpt>
      <trkpt lat="43.75713" lon="7.02751">
        <ele>942.20001220703</ele>
        <time>2023-07-30T08:05:02.000Z</time>
      </trkpt>
      <trkpt lat="43.75715" lon="7.02746">
        <ele>942.40002441406</ele>
        <time>2023-07-30T08:05:03.000Z</time>
      </trkpt>
      <trkpt lat="43.75718" lon="7.02742">
        <ele>942.40002441406</ele>
        <time>2023-07-30T08:05:04.000Z</time>
      </trkpt>
      <trkpt lat="43.75721" lon="7.0274">
        <ele>942.40002441406</ele>
        <time>2023-07-30T08:05:05.000Z</time>
      </trkpt>
      <trkpt lat="43.75724" lon="7.02741">
        <ele>942.40002441406</ele>
        <time>2023-07-30T08:05:06.000Z</time>
      </trkpt>
      <trkpt lat="43.75727" lon="7.0274">
        <ele>942.40002441406</ele>
        <time>2023-07-30T08:05:07.000Z</time>
      </trkpt>
      <trkpt lat="43.7573" lon="7.02738">
        <ele>943.20001220703</ele>
        <time>2023-07-30T08:05:08.000Z</time>
      </trkpt>
      <trkpt lat="43.75733" lon="7.02737">
        <ele>943.20001220703</ele>
        <time>2023-07-30T08:05:09.000Z</time>
      </trkpt>
      <trkpt lat="43.75735" lon="7.02735">
        <ele>943.20001220703</ele>
        <time>2023-07-30T08:05:10.000Z</time>
      </trkpt>
      <trkpt lat="43.75738" lon="7.02733">
        <ele>943.79998779297</ele>
        <time>2023-07-30T08:05:11.000Z</time>
      </trkpt>
      <trkpt lat="43.75741" lon="7.0273">
        <ele>944</ele>
        <time>2023-07-30T08:05:12.000Z</time>
      </trkpt>
      <trkpt lat="43.75744" lon="7.02728">
        <ele>944</ele>
        <time>2023-07-30T08:05:13.000Z</time>
      </trkpt>
      <trkpt lat="43.75747" lon="7.02727">
        <ele>944.20001220703</ele>
        <time>2023-07-30T08:05:14.000Z</time>
      </trkpt>
      <trkpt lat="43.7575" lon="7.02726">
        <ele>944.20001220703</ele>
        <time>2023-07-30T08:05:15.000Z</time>
      </trkpt>
      <trkpt lat="43.75753" lon="7.02723">
        <ele>944.40002441406</ele>
        <time>2023-07-30T08:05:16.000Z</time>
      </trkpt>
      <trkpt lat="43.75755" lon="7.0272">
        <ele>944.40002441406</ele>
        <time>2023-07-30T08:05:17.000Z</time>
      </trkpt>
      <trkpt lat="43.75756" lon="7.02715">
        <ele>944.59997558594</ele>
        <time>2023-07-30T08:05:18.000Z</time>
      </trkpt>
      <trkpt lat="43.75758" lon="7.02711">
        <ele>944.79998779297</ele>
        <time>2023-07-30T08:05:19.000Z</time>
      </trkpt>
      <trkpt lat="43.75758" lon="7.02706">
        <ele>944.79998779297</ele>
        <time>2023-07-30T08:05:20.000Z</time>
      </trkpt>
      <trkpt lat="43.75757" lon="7.02701">
        <ele>945</ele>
        <time>2023-07-30T08:05:21.000Z</time>
      </trkpt>
      <trkpt lat="43.75756" lon="7.02697">
        <ele>945</ele>
        <time>2023-07-30T08:05:22.000Z</time>
      </trkpt>
      <trkpt lat="43.75755" lon="7.02694">
        <ele>945</ele>
        <time>2023-07-30T08:05:23.000Z</time>
      </trkpt>
      <trkpt lat="43.75753" lon="7.0269">
        <ele>945</ele>
        <time>2023-07-30T08:05:24.000Z</time>
      </trkpt>
      <trkpt lat="43.75752" lon="7.02686">
        <ele>945</ele>
        <time>2023-07-30T08:05:25.000Z</time>
      </trkpt>
      <trkpt lat="43.75751" lon="7.02683">
        <ele>944.79998779297</ele>
        <time>2023-07-30T08:05:26.000Z</time>
      </trkpt>
      <trkpt lat="43.7575" lon="7.02679">
        <ele>944.79998779297</ele>
        <time>2023-07-30T08:05:27.000Z</time>
      </trkpt>
      <trkpt lat="43.7575" lon="7.02674">
        <ele>944.79998779297</ele>
        <time>2023-07-30T08:05:28.000Z</time>
      </trkpt>
      <trkpt lat="43.75749" lon="7.02669">
        <ele>944.79998779297</ele>
        <time>2023-07-30T08:05:29.000Z</time>
      </trkpt>
      <trkpt lat="43.75749" lon="7.02665">
        <ele>944.79998779297</ele>
        <time>2023-07-30T08:05:30.000Z</time>
      </trkpt>
      <trkpt lat="43.75748" lon="7.02661">
        <ele>944.79998779297</ele>
        <time>2023-07-30T08:05:31.000Z</time>
      </trkpt>
      <trkpt lat="43.75747" lon="7.02657">
        <ele>944.79998779297</ele>
        <time>2023-07-30T08:05:32.000Z</time>
      </trkpt>
      <trkpt lat="43.75745" lon="7.02653">
        <ele>944.79998779297</ele>
        <time>2023-07-30T08:05:33.000Z</time>
      </trkpt>
      <trkpt lat="43.75743" lon="7.02649">
        <ele>945</ele>
        <time>2023-07-30T08:05:34.000Z</time>
      </trkpt>
      <trkpt lat="43.75741" lon="7.02645">
        <ele>945</ele>
        <time>2023-07-30T08:05:35.000Z</time>
      </trkpt>
      <trkpt lat="43.75738" lon="7.02641">
        <ele>945</ele>
        <time>2023-07-30T08:05:36.000Z</time>
      </trkpt>
      <trkpt lat="43.75736" lon="7.02637">
        <ele>945</ele>
        <time>2023-07-30T08:05:37.000Z</time>
      </trkpt>
      <trkpt lat="43.75733" lon="7.02634">
        <ele>945</ele>
        <time>2023-07-30T08:05:38.000Z</time>
      </trkpt>
      <trkpt lat="43.7573" lon="7.0263">
        <ele>945</ele>
        <time>2023-07-30T08:05:39.000Z</time>
      </trkpt>
      <trkpt lat="43.75727" lon="7.02627">
        <ele>945</ele>
        <time>2023-07-30T08:05:40.000Z</time>
      </trkpt>
      <trkpt lat="43.75724" lon="7.02623">
        <ele>945.20001220703</ele>
        <time>2023-07-30T08:05:41.000Z</time>
      </trkpt>
      <trkpt lat="43.75721" lon="7.0262">
        <ele>945.20001220703</ele>
        <time>2023-07-30T08:05:42.000Z</time>
      </trkpt>
      <trkpt lat="43.75718" lon="7.02616">
        <ele>945.20001220703</ele>
        <time>2023-07-30T08:05:43.000Z</time>
      </trkpt>
      <trkpt lat="43.75715" lon="7.02612">
        <ele>945.20001220703</ele>
        <time>2023-07-30T08:05:44.000Z</time>
      </trkpt>
      <trkpt lat="43.75713" lon="7.02608">
        <ele>945.20001220703</ele>
        <time>2023-07-30T08:05:45.000Z</time>
      </trkpt>
      <trkpt lat="43.7571" lon="7.02604">
        <ele>945.20001220703</ele>
        <time>2023-07-30T08:05:46.000Z</time>
      </trkpt>
      <trkpt lat="43.75706" lon="7.02601">
        <ele>945.20001220703</ele>
        <time>2023-07-30T08:05:47.000Z</time>
      </trkpt>
      <trkpt lat="43.75703" lon="7.02597">
        <ele>945.40002441406</ele>
        <time>2023-07-30T08:05:48.000Z</time>
      </trkpt>
      <trkpt lat="43.757" lon="7.02594">
        <ele>945.40002441406</ele>
        <time>2023-07-30T08:05:49.000Z</time>
      </trkpt>
      <trkpt lat="43.75697" lon="7.02591">
        <ele>945.40002441406</ele>
        <time>2023-07-30T08:05:50.000Z</time>
      </trkpt>
      <trkpt lat="43.75693" lon="7.02588">
        <ele>945.59997558594</ele>
        <time>2023-07-30T08:05:51.000Z</time>
      </trkpt>
      <trkpt lat="43.7569" lon="7.02585">
        <ele>945.59997558594</ele>
        <time>2023-07-30T08:05:52.000Z</time>
      </trkpt>
      <trkpt lat="43.75687" lon="7.02581">
        <ele>946</ele>
        <time>2023-07-30T08:05:53.000Z</time>
      </trkpt>
      <trkpt lat="43.75683" lon="7.02579">
        <ele>946.20001220703</ele>
        <time>2023-07-30T08:05:54.000Z</time>
      </trkpt>
      <trkpt lat="43.7568" lon="7.02575">
        <ele>946.59997558594</ele>
        <time>2023-07-30T08:05:55.000Z</time>
      </trkpt>
      <trkpt lat="43.75676" lon="7.02572">
        <ele>946.59997558594</ele>
        <time>2023-07-30T08:05:56.000Z</time>
      </trkpt>
      <trkpt lat="43.75673" lon="7.02569">
        <ele>946.79998779297</ele>
        <time>2023-07-30T08:05:57.000Z</time>
      </trkpt>
      <trkpt lat="43.7567" lon="7.02565">
        <ele>946.59997558594</ele>
        <time>2023-07-30T08:05:58.000Z</time>
      </trkpt>
      <trkpt lat="43.75667" lon="7.02561">
        <ele>946.79998779297</ele>
        <time>2023-07-30T08:05:59.000Z</time>
      </trkpt>
      <trkpt lat="43.75664" lon="7.02558">
        <ele>946.79998779297</ele>
        <time>2023-07-30T08:06:00.000Z</time>
      </trkpt>
      <trkpt lat="43.7566" lon="7.02555">
        <ele>946.79998779297</ele>
        <time>2023-07-30T08:06:01.000Z</time>
      </trkpt>
      <trkpt lat="43.75657" lon="7.02552">
        <ele>946.79998779297</ele>
        <time>2023-07-30T08:06:02.000Z</time>
      </trkpt>
      <trkpt lat="43.75653" lon="7.0255">
        <ele>947</ele>
        <time>2023-07-30T08:06:03.000Z</time>
      </trkpt>
      <trkpt lat="43.75648" lon="7.02547">
        <ele>947</ele>
        <time>2023-07-30T08:06:04.000Z</time>
      </trkpt>
      <trkpt lat="43.75645" lon="7.02545">
        <ele>947</ele>
        <time>2023-07-30T08:06:05.000Z</time>
      </trkpt>
      <trkpt lat="43.75641" lon="7.02543">
        <ele>947.20001220703</ele>
        <time>2023-07-30T08:06:06.000Z</time>
      </trkpt>
      <trkpt lat="43.75637" lon="7.02541">
        <ele>947.20001220703</ele>
        <time>2023-07-30T08:06:07.000Z</time>
      </trkpt>
      <trkpt lat="43.75633" lon="7.02539">
        <ele>947.40002441406</ele>
        <time>2023-07-30T08:06:08.000Z</time>
      </trkpt>
      <trkpt lat="43.75629" lon="7.02536">
        <ele>947.59997558594</ele>
        <time>2023-07-30T08:06:09.000Z</time>
      </trkpt>
      <trkpt lat="43.75625" lon="7.02534">
        <ele>947.59997558594</ele>
        <time>2023-07-30T08:06:10.000Z</time>
      </trkpt>
      <trkpt lat="43.75622" lon="7.02532">
        <ele>947.79998779297</ele>
        <time>2023-07-30T08:06:11.000Z</time>
      </trkpt>
      <trkpt lat="43.75619" lon="7.02529">
        <ele>948</ele>
        <time>2023-07-30T08:06:12.000Z</time>
      </trkpt>
      <trkpt lat="43.75615" lon="7.02526">
        <ele>948.20001220703</ele>
        <time>2023-07-30T08:06:13.000Z</time>
      </trkpt>
      <trkpt lat="43.75612" lon="7.02523">
        <ele>948.40002441406</ele>
        <time>2023-07-30T08:06:14.000Z</time>
      </trkpt>
      <trkpt lat="43.75608" lon="7.0252">
        <ele>948.59997558594</ele>
        <time>2023-07-30T08:06:15.000Z</time>
      </trkpt>
      <trkpt lat="43.75605" lon="7.02517">
        <ele>948.59997558594</ele>
        <time>2023-07-30T08:06:16.000Z</time>
      </trkpt>
      <trkpt lat="43.75602" lon="7.02513">
        <ele>948.59997558594</ele>
        <time>2023-07-30T08:06:17.000Z</time>
      </trkpt>
      <trkpt lat="43.75598" lon="7.0251">
        <ele>948.79998779297</ele>
        <time>2023-07-30T08:06:18.000Z</time>
      </trkpt>
      <trkpt lat="43.75595" lon="7.02506">
        <ele>948.79998779297</ele>
        <time>2023-07-30T08:06:19.000Z</time>
      </trkpt>
      <trkpt lat="43.75592" lon="7.02503">
        <ele>948.79998779297</ele>
        <time>2023-07-30T08:06:20.000Z</time>
      </trkpt>
      <trkpt lat="43.75588" lon="7.025">
        <ele>949</ele>
        <time>2023-07-30T08:06:21.000Z</time>
      </trkpt>
      <trkpt lat="43.75585" lon="7.02497">
        <ele>949.20001220703</ele>
        <time>2023-07-30T08:06:22.000Z</time>
      </trkpt>
      <trkpt lat="43.75582" lon="7.02494">
        <ele>949.40002441406</ele>
        <time>2023-07-30T08:06:23.000Z</time>
      </trkpt>
      <trkpt lat="43.75579" lon="7.02491">
        <ele>949.40002441406</ele>
        <time>2023-07-30T08:06:24.000Z</time>
      </trkpt>
      <trkpt lat="43.75576" lon="7.02489">
        <ele>949.59997558594</ele>
        <time>2023-07-30T08:06:25.000Z</time>
      </trkpt>
      <trkpt lat="43.75572" lon="7.02486">
        <ele>950</ele>
        <time>2023-07-30T08:06:26.000Z</time>
      </trkpt>
      <trkpt lat="43.75568" lon="7.02485">
        <ele>950</ele>
        <time>2023-07-30T08:06:27.000Z</time>
      </trkpt>
      <trkpt lat="43.75564" lon="7.02482">
        <ele>950</ele>
        <time>2023-07-30T08:06:28.000Z</time>
      </trkpt>
      <trkpt lat="43.7556" lon="7.0248">
        <ele>950.20001220703</ele>
        <time>2023-07-30T08:06:29.000Z</time>
      </trkpt>
      <trkpt lat="43.75556" lon="7.02479">
        <ele>950.20001220703</ele>
        <time>2023-07-30T08:06:30.000Z</time>
      </trkpt>
      <trkpt lat="43.75552" lon="7.02479">
        <ele>950.20001220703</ele>
        <time>2023-07-30T08:06:31.000Z</time>
      </trkpt>
      <trkpt lat="43.75548" lon="7.0248">
        <ele>950.40002441406</ele>
        <time>2023-07-30T08:06:32.000Z</time>
      </trkpt>
      <trkpt lat="43.75544" lon="7.02481">
        <ele>950.40002441406</ele>
        <time>2023-07-30T08:06:33.000Z</time>
      </trkpt>
      <trkpt lat="43.75541" lon="7.0248">
        <ele>950.59997558594</ele>
        <time>2023-07-30T08:06:34.000Z</time>
      </trkpt>
      <trkpt lat="43.75537" lon="7.02478">
        <ele>950.79998779297</ele>
        <time>2023-07-30T08:06:35.000Z</time>
      </trkpt>
      <trkpt lat="43.75534" lon="7.02476">
        <ele>950.79998779297</ele>
        <time>2023-07-30T08:06:36.000Z</time>
      </trkpt>
      <trkpt lat="43.75531" lon="7.02471">
        <ele>951</ele>
        <time>2023-07-30T08:06:37.000Z</time>
      </trkpt>
      <trkpt lat="43.75527" lon="7.02467">
        <ele>951</ele>
        <time>2023-07-30T08:06:38.000Z</time>
      </trkpt>
      <trkpt lat="43.75523" lon="7.02464">
        <ele>951.20001220703</ele>
        <time>2023-07-30T08:06:39.000Z</time>
      </trkpt>
      <trkpt lat="43.75519" lon="7.02461">
        <ele>951.20001220703</ele>
        <time>2023-07-30T08:06:40.000Z</time>
      </trkpt>
      <trkpt lat="43.75516" lon="7.02458">
        <ele>951.20001220703</ele>
        <time>2023-07-30T08:06:41.000Z</time>
      </trkpt>
      <trkpt lat="43.75513" lon="7.02457">
        <ele>951.40002441406</ele>
        <time>2023-07-30T08:06:42.000Z</time>
      </trkpt>
      <trkpt lat="43.75509" lon="7.02456">
        <ele>951.40002441406</ele>
        <time>2023-07-30T08:06:43.000Z</time>
      </trkpt>
      <trkpt lat="43.75505" lon="7.02456">
        <ele>951.59997558594</ele>
        <time>2023-07-30T08:06:44.000Z</time>
      </trkpt>
      <trkpt lat="43.75501" lon="7.02455">
        <ele>951.79998779297</ele>
        <time>2023-07-30T08:06:45.000Z</time>
      </trkpt>
      <trkpt lat="43.75498" lon="7.02454">
        <ele>951.79998779297</ele>
        <time>2023-07-30T08:06:46.000Z</time>
      </trkpt>
      <trkpt lat="43.75494" lon="7.02452">
        <ele>952</ele>
        <time>2023-07-30T08:06:47.000Z</time>
      </trkpt>
      <trkpt lat="43.75491" lon="7.02451">
        <ele>952.20001220703</ele>
        <time>2023-07-30T08:06:48.000Z</time>
      </trkpt>
      <trkpt lat="43.75488" lon="7.0245">
        <ele>952.20001220703</ele>
        <time>2023-07-30T08:06:49.000Z</time>
      </trkpt>
      <trkpt lat="43.75486" lon="7.02448">
        <ele>952.40002441406</ele>
        <time>2023-07-30T08:06:50.000Z</time>
      </trkpt>
      <trkpt lat="43.75483" lon="7.02445">
        <ele>952.40002441406</ele>
        <time>2023-07-30T08:06:51.000Z</time>
      </trkpt>
      <trkpt lat="43.75481" lon="7.02442">
        <ele>952.40002441406</ele>
        <time>2023-07-30T08:06:52.000Z</time>
      </trkpt>
      <trkpt lat="43.75479" lon="7.02439">
        <ele>952.40002441406</ele>
        <time>2023-07-30T08:06:53.000Z</time>
      </trkpt>
      <trkpt lat="43.75476" lon="7.02434">
        <ele>952.40002441406</ele>
        <time>2023-07-30T08:06:54.000Z</time>
      </trkpt>
      <trkpt lat="43.75473" lon="7.02431">
        <ele>952.20001220703</ele>
        <time>2023-07-30T08:06:55.000Z</time>
      </trkpt>
      <trkpt lat="43.75469" lon="7.02428">
        <ele>952.20001220703</ele>
        <time>2023-07-30T08:06:56.000Z</time>
      </trkpt>
      <trkpt lat="43.75465" lon="7.02426">
        <ele>952</ele>
        <time>2023-07-30T08:06:57.000Z</time>
      </trkpt>
      <trkpt lat="43.75461" lon="7.02424">
        <ele>951.59997558594</ele>
        <time>2023-07-30T08:06:58.000Z</time>
      </trkpt>
      <trkpt lat="43.75457" lon="7.02421">
        <ele>951.59997558594</ele>
        <time>2023-07-30T08:06:59.000Z</time>
      </trkpt>
      <trkpt lat="43.75454" lon="7.02417">
        <ele>951.59997558594</ele>
        <time>2023-07-30T08:07:00.000Z</time>
      </trkpt>
      <trkpt lat="43.75451" lon="7.02413">
        <ele>951.40002441406</ele>
        <time>2023-07-30T08:07:01.000Z</time>
      </trkpt>
      <trkpt lat="43.75448" lon="7.0241">
        <ele>951.40002441406</ele>
        <time>2023-07-30T08:07:02.000Z</time>
      </trkpt>
      <trkpt lat="43.75444" lon="7.02407">
        <ele>951.20001220703</ele>
        <time>2023-07-30T08:07:03.000Z</time>
      </trkpt>
      <trkpt lat="43.75441" lon="7.02404">
        <ele>951.20001220703</ele>
        <time>2023-07-30T08:07:04.000Z</time>
      </trkpt>
      <trkpt lat="43.75438" lon="7.024">
        <ele>951.20001220703</ele>
        <time>2023-07-30T08:07:05.000Z</time>
      </trkpt>
      <trkpt lat="43.75435" lon="7.02396">
        <ele>951.20001220703</ele>
        <time>2023-07-30T08:07:06.000Z</time>
      </trkpt>
      <trkpt lat="43.75432" lon="7.02393">
        <ele>951.20001220703</ele>
        <time>2023-07-30T08:07:07.000Z</time>
      </trkpt>
      <trkpt lat="43.7543" lon="7.02388">
        <ele>951.20001220703</ele>
        <time>2023-07-30T08:07:08.000Z</time>
      </trkpt>
      <trkpt lat="43.75427" lon="7.02384">
        <ele>951.40002441406</ele>
        <time>2023-07-30T08:07:09.000Z</time>
      </trkpt>
      <trkpt lat="43.75426" lon="7.0238">
        <ele>951.40002441406</ele>
        <time>2023-07-30T08:07:10.000Z</time>
      </trkpt>
      <trkpt lat="43.75424" lon="7.02377">
        <ele>951.40002441406</ele>
        <time>2023-07-30T08:07:11.000Z</time>
      </trkpt>
      <trkpt lat="43.75423" lon="7.02374">
        <ele>951.40002441406</ele>
        <time>2023-07-30T08:07:12.000Z</time>
      </trkpt>
      <trkpt lat="43.75422" lon="7.02372">
        <ele>951.40002441406</ele>
        <time>2023-07-30T08:07:13.000Z</time>
      </trkpt>
      <trkpt lat="43.75421" lon="7.02371">
        <ele>951.20001220703</ele>
        <time>2023-07-30T08:07:14.000Z</time>
      </trkpt>
      <trkpt lat="43.75421" lon="7.02371">
        <ele>951</ele>
        <time>2023-07-30T08:07:15.000Z</time>
      </trkpt>
      <trkpt lat="43.75421" lon="7.02371">
        <ele>951</ele>
        <time>2023-07-30T08:07:16.000Z</time>
      </trkpt>
      <trkpt lat="43.75421" lon="7.02371">
        <ele>951</ele>
        <time>2023-07-30T08:07:17.000Z</time>
      </trkpt>
      <trkpt lat="43.75421" lon="7.02371">
        <ele>950.79998779297</ele>
        <time>2023-07-30T08:07:18.000Z</time>
      </trkpt>
      <trkpt lat="43.75421" lon="7.02371">
        <ele>950.79998779297</ele>
        <time>2023-07-30T08:07:19.000Z</time>
      </trkpt>
      <trkpt lat="43.75421" lon="7.02371">
        <ele>950.59997558594</ele>
        <time>2023-07-30T08:07:20.000Z</time>
      </trkpt>
      <trkpt lat="43.75421" lon="7.02371">
        <ele>950.59997558594</ele>
        <time>2023-07-30T08:07:21.000Z</time>
      </trkpt>
      <trkpt lat="43.75422" lon="7.02371">
        <ele>950.59997558594</ele>
        <time>2023-07-30T08:07:22.000Z</time>
      </trkpt>
      <trkpt lat="43.75422" lon="7.02371">
        <ele>950.79998779297</ele>
        <time>2023-07-30T08:07:23.000Z</time>
      </trkpt>
      <trkpt lat="43.75422" lon="7.02371">
        <ele>950.79998779297</ele>
        <time>2023-07-30T08:07:24.000Z</time>
      </trkpt>
      <trkpt lat="43.75422" lon="7.02371">
        <ele>950.79998779297</ele>
        <time>2023-07-30T08:07:25.000Z</time>
      </trkpt>
      <trkpt lat="43.75422" lon="7.02371">
        <ele>950.59997558594</ele>
        <time>2023-07-30T08:07:26.000Z</time>
      </trkpt>
      <trkpt lat="43.75421" lon="7.0237">
        <ele>950.59997558594</ele>
        <time>2023-07-30T08:07:27.000Z</time>
      </trkpt>
      <trkpt lat="43.75421" lon="7.02369">
        <ele>950.59997558594</ele>
        <time>2023-07-30T08:07:28.000Z</time>
      </trkpt>
      <trkpt lat="43.7542" lon="7.02368">
        <ele>950.59997558594</ele>
        <time>2023-07-30T08:07:29.000Z</time>
      </trkpt>
      <trkpt lat="43.75419" lon="7.02367">
        <ele>950.59997558594</ele>
        <time>2023-07-30T08:07:30.000Z</time>
      </trkpt>
      <trkpt lat="43.75418" lon="7.02364">
        <ele>950.40002441406</ele>
        <time>2023-07-30T08:07:31.000Z</time>
      </trkpt>
      <trkpt lat="43.75416" lon="7.02362">
        <ele>950.40002441406</ele>
        <time>2023-07-30T08:07:32.000Z</time>
      </trkpt>
      <trkpt lat="43.75415" lon="7.02358">
        <ele>950.40002441406</ele>
        <time>2023-07-30T08:07:33.000Z</time>
      </trkpt>
      <trkpt lat="43.75413" lon="7.02355">
        <ele>950.20001220703</ele>
        <time>2023-07-30T08:07:34.000Z</time>
      </trkpt>
      <trkpt lat="43.75411" lon="7.02351">
        <ele>950.20001220703</ele>
        <time>2023-07-30T08:07:35.000Z</time>
      </trkpt>
      <trkpt lat="43.7541" lon="7.02347">
        <ele>950.20001220703</ele>
        <time>2023-07-30T08:07:36.000Z</time>
      </trkpt>
      <trkpt lat="43.75408" lon="7.02343">
        <ele>950.20001220703</ele>
        <time>2023-07-30T08:07:37.000Z</time>
      </trkpt>
      <trkpt lat="43.75406" lon="7.02339">
        <ele>950.20001220703</ele>
        <time>2023-07-30T08:07:38.000Z</time>
      </trkpt>
      <trkpt lat="43.75405" lon="7.02333">
        <ele>950.20001220703</ele>
        <time>2023-07-30T08:07:39.000Z</time>
      </trkpt>
      <trkpt lat="43.75404" lon="7.02328">
        <ele>950.20001220703</ele>
        <time>2023-07-30T08:07:40.000Z</time>
      </trkpt>
      <trkpt lat="43.75402" lon="7.02322">
        <ele>950</ele>
        <time>2023-07-30T08:07:41.000Z</time>
      </trkpt>
      <trkpt lat="43.75399" lon="7.02317">
        <ele>950</ele>
        <time>2023-07-30T08:07:42.000Z</time>
      </trkpt>
      <trkpt lat="43.75396" lon="7.02313">
        <ele>950</ele>
        <time>2023-07-30T08:07:43.000Z</time>
      </trkpt>
      <trkpt lat="43.75393" lon="7.02311">
        <ele>949.79998779297</ele>
        <time>2023-07-30T08:07:44.000Z</time>
      </trkpt>
      <trkpt lat="43.7539" lon="7.02307">
        <ele>949.59997558594</ele>
        <time>2023-07-30T08:07:45.000Z</time>
      </trkpt>
      <trkpt lat="43.75387" lon="7.02304">
        <ele>949.59997558594</ele>
        <time>2023-07-30T08:07:46.000Z</time>
      </trkpt>
      <trkpt lat="43.75385" lon="7.023">
        <ele>949.59997558594</ele>
        <time>2023-07-30T08:07:47.000Z</time>
      </trkpt>
      <trkpt lat="43.75383" lon="7.02295">
        <ele>949.59997558594</ele>
        <time>2023-07-30T08:07:48.000Z</time>
      </trkpt>
      <trkpt lat="43.75381" lon="7.02289">
        <ele>949.79998779297</ele>
        <time>2023-07-30T08:07:49.000Z</time>
      </trkpt>
      <trkpt lat="43.75379" lon="7.02283">
        <ele>950.20001220703</ele>
        <time>2023-07-30T08:07:50.000Z</time>
      </trkpt>
      <trkpt lat="43.75378" lon="7.02277">
        <ele>950.20001220703</ele>
        <time>2023-07-30T08:07:51.000Z</time>
      </trkpt>
      <trkpt lat="43.75376" lon="7.02271">
        <ele>950.20001220703</ele>
        <time>2023-07-30T08:07:52.000Z</time>
      </trkpt>
      <trkpt lat="43.75374" lon="7.02266">
        <ele>950.20001220703</ele>
        <time>2023-07-30T08:07:53.000Z</time>
      </trkpt>
      <trkpt lat="43.75372" lon="7.02261">
        <ele>950</ele>
        <time>2023-07-30T08:07:54.000Z</time>
      </trkpt>
      <trkpt lat="43.7537" lon="7.02255">
        <ele>950</ele>
        <time>2023-07-30T08:07:55.000Z</time>
      </trkpt>
      <trkpt lat="43.75368" lon="7.02249">
        <ele>949.40002441406</ele>
        <time>2023-07-30T08:07:56.000Z</time>
      </trkpt>
      <trkpt lat="43.75368" lon="7.02243">
        <ele>949.40002441406</ele>
        <time>2023-07-30T08:07:57.000Z</time>
      </trkpt>
      <trkpt lat="43.75368" lon="7.02237">
        <ele>949.20001220703</ele>
        <time>2023-07-30T08:07:58.000Z</time>
      </trkpt>
      <trkpt lat="43.75369" lon="7.02231">
        <ele>949.20001220703</ele>
        <time>2023-07-30T08:07:59.000Z</time>
      </trkpt>
      <trkpt lat="43.75369" lon="7.02225">
        <ele>948.79998779297</ele>
        <time>2023-07-30T08:08:00.000Z</time>
      </trkpt>
      <trkpt lat="43.7537" lon="7.02218">
        <ele>948.79998779297</ele>
        <time>2023-07-30T08:08:01.000Z</time>
      </trkpt>
      <trkpt lat="43.75371" lon="7.02212">
        <ele>948.59997558594</ele>
        <time>2023-07-30T08:08:02.000Z</time>
      </trkpt>
      <trkpt lat="43.75372" lon="7.02205">
        <ele>948.59997558594</ele>
        <time>2023-07-30T08:08:03.000Z</time>
      </trkpt>
      <trkpt lat="43.75372" lon="7.02199">
        <ele>948</ele>
        <time>2023-07-30T08:08:04.000Z</time>
      </trkpt>
      <trkpt lat="43.75372" lon="7.02192">
        <ele>948</ele>
        <time>2023-07-30T08:08:05.000Z</time>
      </trkpt>
      <trkpt lat="43.75371" lon="7.02185">
        <ele>948</ele>
        <time>2023-07-30T08:08:06.000Z</time>
      </trkpt>
      <trkpt lat="43.75372" lon="7.02178">
        <ele>947.59997558594</ele>
        <time>2023-07-30T08:08:07.000Z</time>
      </trkpt>
      <trkpt lat="43.75372" lon="7.02171">
        <ele>947.40002441406</ele>
        <time>2023-07-30T08:08:08.000Z</time>
      </trkpt>
      <trkpt lat="43.75371" lon="7.02164">
        <ele>947.40002441406</ele>
        <time>2023-07-30T08:08:09.000Z</time>
      </trkpt>
      <trkpt lat="43.7537" lon="7.02158">
        <ele>947.40002441406</ele>
        <time>2023-07-30T08:08:10.000Z</time>
      </trkpt>
      <trkpt lat="43.75367" lon="7.02152">
        <ele>947.40002441406</ele>
        <time>2023-07-30T08:08:11.000Z</time>
      </trkpt>
      <trkpt lat="43.75365" lon="7.02148">
        <ele>946.20001220703</ele>
        <time>2023-07-30T08:08:12.000Z</time>
      </trkpt>
      <trkpt lat="43.75362" lon="7.02144">
        <ele>946</ele>
        <time>2023-07-30T08:08:13.000Z</time>
      </trkpt>
      <trkpt lat="43.7536" lon="7.0214">
        <ele>946</ele>
        <time>2023-07-30T08:08:14.000Z</time>
      </trkpt>
      <trkpt lat="43.75358" lon="7.02135">
        <ele>946</ele>
        <time>2023-07-30T08:08:15.000Z</time>
      </trkpt>
      <trkpt lat="43.75356" lon="7.02131">
        <ele>946</ele>
        <time>2023-07-30T08:08:16.000Z</time>
      </trkpt>
      <trkpt lat="43.75356" lon="7.02125">
        <ele>946</ele>
        <time>2023-07-30T08:08:17.000Z</time>
      </trkpt>
      <trkpt lat="43.75355" lon="7.0212">
        <ele>946</ele>
        <time>2023-07-30T08:08:18.000Z</time>
      </trkpt>
      <trkpt lat="43.75354" lon="7.02115">
        <ele>946</ele>
        <time>2023-07-30T08:08:19.000Z</time>
      </trkpt>
      <trkpt lat="43.75353" lon="7.02109">
        <ele>946</ele>
        <time>2023-07-30T08:08:20.000Z</time>
      </trkpt>
      <trkpt lat="43.75352" lon="7.02104">
        <ele>946</ele>
        <time>2023-07-30T08:08:21.000Z</time>
      </trkpt>
      <trkpt lat="43.75351" lon="7.02098">
        <ele>946</ele>
        <time>2023-07-30T08:08:22.000Z</time>
      </trkpt>
      <trkpt lat="43.7535" lon="7.02092">
        <ele>946</ele>
        <time>2023-07-30T08:08:23.000Z</time>
      </trkpt>
      <trkpt lat="43.7535" lon="7.02086">
        <ele>946</ele>
        <time>2023-07-30T08:08:24.000Z</time>
      </trkpt>
      <trkpt lat="43.7535" lon="7.0208">
        <ele>946.20001220703</ele>
        <time>2023-07-30T08:08:25.000Z</time>
      </trkpt>
      <trkpt lat="43.75349" lon="7.02074">
        <ele>946</ele>
        <time>2023-07-30T08:08:26.000Z</time>
      </trkpt>
      <trkpt lat="43.75348" lon="7.02067">
        <ele>946</ele>
        <time>2023-07-30T08:08:27.000Z</time>
      </trkpt>
      <trkpt lat="43.75347" lon="7.02061">
        <ele>946.20001220703</ele>
        <time>2023-07-30T08:08:28.000Z</time>
      </trkpt>
      <trkpt lat="43.75346" lon="7.02056">
        <ele>946.20001220703</ele>
        <time>2023-07-30T08:08:29.000Z</time>
      </trkpt>
      <trkpt lat="43.75346" lon="7.02049">
        <ele>946.20001220703</ele>
        <time>2023-07-30T08:08:30.000Z</time>
      </trkpt>
      <trkpt lat="43.75345" lon="7.02043">
        <ele>946</ele>
        <time>2023-07-30T08:08:31.000Z</time>
      </trkpt>
      <trkpt lat="43.75345" lon="7.02037">
        <ele>946.20001220703</ele>
        <time>2023-07-30T08:08:32.000Z</time>
      </trkpt>
      <trkpt lat="43.75345" lon="7.02031">
        <ele>946.20001220703</ele>
        <time>2023-07-30T08:08:33.000Z</time>
      </trkpt>
      <trkpt lat="43.75344" lon="7.02024">
        <ele>946.40002441406</ele>
        <time>2023-07-30T08:08:34.000Z</time>
      </trkpt>
      <trkpt lat="43.75344" lon="7.02018">
        <ele>946.40002441406</ele>
        <time>2023-07-30T08:08:35.000Z</time>
      </trkpt>
      <trkpt lat="43.75343" lon="7.02012">
        <ele>946.40002441406</ele>
        <time>2023-07-30T08:08:36.000Z</time>
      </trkpt>
      <trkpt lat="43.75343" lon="7.02007">
        <ele>946.40002441406</ele>
        <time>2023-07-30T08:08:37.000Z</time>
      </trkpt>
      <trkpt lat="43.75343" lon="7.02001">
        <ele>946.40002441406</ele>
        <time>2023-07-30T08:08:38.000Z</time>
      </trkpt>
      <trkpt lat="43.75342" lon="7.01996">
        <ele>946.59997558594</ele>
        <time>2023-07-30T08:08:39.000Z</time>
      </trkpt>
      <trkpt lat="43.75341" lon="7.0199">
        <ele>946.59997558594</ele>
        <time>2023-07-30T08:08:40.000Z</time>
      </trkpt>
      <trkpt lat="43.75341" lon="7.01984">
        <ele>946.59997558594</ele>
        <time>2023-07-30T08:08:41.000Z</time>
      </trkpt>
      <trkpt lat="43.75341" lon="7.01979">
        <ele>946.59997558594</ele>
        <time>2023-07-30T08:08:42.000Z</time>
      </trkpt>
      <trkpt lat="43.7534" lon="7.01974">
        <ele>946.59997558594</ele>
        <time>2023-07-30T08:08:43.000Z</time>
      </trkpt>
      <trkpt lat="43.7534" lon="7.01969">
        <ele>947.40002441406</ele>
        <time>2023-07-30T08:08:44.000Z</time>
      </trkpt>
      <trkpt lat="43.7534" lon="7.01963">
        <ele>947.40002441406</ele>
        <time>2023-07-30T08:08:45.000Z</time>
      </trkpt>
      <trkpt lat="43.75339" lon="7.01958">
        <ele>947.40002441406</ele>
        <time>2023-07-30T08:08:46.000Z</time>
      </trkpt>
      <trkpt lat="43.75338" lon="7.01953">
        <ele>947.59997558594</ele>
        <time>2023-07-30T08:08:47.000Z</time>
      </trkpt>
      <trkpt lat="43.75338" lon="7.01947">
        <ele>947.79998779297</ele>
        <time>2023-07-30T08:08:48.000Z</time>
      </trkpt>
      <trkpt lat="43.75337" lon="7.01941">
        <ele>947.79998779297</ele>
        <time>2023-07-30T08:08:49.000Z</time>
      </trkpt>
      <trkpt lat="43.75337" lon="7.01936">
        <ele>947.79998779297</ele>
        <time>2023-07-30T08:08:50.000Z</time>
      </trkpt>
      <trkpt lat="43.75336" lon="7.0193">
        <ele>947.79998779297</ele>
        <time>2023-07-30T08:08:51.000Z</time>
      </trkpt>
      <trkpt lat="43.75336" lon="7.01925">
        <ele>947.79998779297</ele>
        <time>2023-07-30T08:08:52.000Z</time>
      </trkpt>
      <trkpt lat="43.75336" lon="7.01919">
        <ele>948</ele>
        <time>2023-07-30T08:08:53.000Z</time>
      </trkpt>
      <trkpt lat="43.75336" lon="7.01914">
        <ele>948</ele>
        <time>2023-07-30T08:08:54.000Z</time>
      </trkpt>
      <trkpt lat="43.75337" lon="7.01909">
        <ele>948</ele>
        <time>2023-07-30T08:08:55.000Z</time>
      </trkpt>
      <trkpt lat="43.75338" lon="7.01904">
        <ele>948.40002441406</ele>
        <time>2023-07-30T08:08:56.000Z</time>
      </trkpt>
      <trkpt lat="43.75341" lon="7.01899">
        <ele>948.40002441406</ele>
        <time>2023-07-30T08:08:57.000Z</time>
      </trkpt>
      <trkpt lat="43.75343" lon="7.01895">
        <ele>948.40002441406</ele>
        <time>2023-07-30T08:08:58.000Z</time>
      </trkpt>
      <trkpt lat="43.75346" lon="7.01891">
        <ele>948.40002441406</ele>
        <time>2023-07-30T08:08:59.000Z</time>
      </trkpt>
      <trkpt lat="43.75349" lon="7.01886">
        <ele>948.40002441406</ele>
        <time>2023-07-30T08:09:00.000Z</time>
      </trkpt>
      <trkpt lat="43.75351" lon="7.01881">
        <ele>948.40002441406</ele>
        <time>2023-07-30T08:09:01.000Z</time>
      </trkpt>
      <trkpt lat="43.75351" lon="7.01876">
        <ele>948.40002441406</ele>
        <time>2023-07-30T08:09:02.000Z</time>
      </trkpt>
      <trkpt lat="43.75351" lon="7.01871">
        <ele>948.59997558594</ele>
        <time>2023-07-30T08:09:03.000Z</time>
      </trkpt>
      <trkpt lat="43.75351" lon="7.01867">
        <ele>948.59997558594</ele>
        <time>2023-07-30T08:09:04.000Z</time>
      </trkpt>
      <trkpt lat="43.7535" lon="7.01863">
        <ele>948.79998779297</ele>
        <time>2023-07-30T08:09:05.000Z</time>
      </trkpt>
      <trkpt lat="43.7535" lon="7.01859">
        <ele>949</ele>
        <time>2023-07-30T08:09:06.000Z</time>
      </trkpt>
      <trkpt lat="43.7535" lon="7.01854">
        <ele>949.40002441406</ele>
        <time>2023-07-30T08:09:07.000Z</time>
      </trkpt>
      <trkpt lat="43.75351" lon="7.0185">
        <ele>949.40002441406</ele>
        <time>2023-07-30T08:09:08.000Z</time>
      </trkpt>
      <trkpt lat="43.75352" lon="7.01846">
        <ele>950</ele>
        <time>2023-07-30T08:09:09.000Z</time>
      </trkpt>
      <trkpt lat="43.75353" lon="7.01844">
        <ele>950</ele>
        <time>2023-07-30T08:09:10.000Z</time>
      </trkpt>
      <trkpt lat="43.75355" lon="7.01841">
        <ele>950</ele>
        <time>2023-07-30T08:09:11.000Z</time>
      </trkpt>
      <trkpt lat="43.75356" lon="7.01839">
        <ele>950.20001220703</ele>
        <time>2023-07-30T08:09:12.000Z</time>
      </trkpt>
      <trkpt lat="43.75358" lon="7.01837">
        <ele>950.20001220703</ele>
        <time>2023-07-30T08:09:13.000Z</time>
      </trkpt>
      <trkpt lat="43.75359" lon="7.01836">
        <ele>950.40002441406</ele>
        <time>2023-07-30T08:09:14.000Z</time>
      </trkpt>
      <trkpt lat="43.7536" lon="7.01835">
        <ele>950.40002441406</ele>
        <time>2023-07-30T08:09:15.000Z</time>
      </trkpt>
      <trkpt lat="43.75361" lon="7.01832">
        <ele>950.40002441406</ele>
        <time>2023-07-30T08:09:16.000Z</time>
      </trkpt>
      <trkpt lat="43.75361" lon="7.0183">
        <ele>950.59997558594</ele>
        <time>2023-07-30T08:09:17.000Z</time>
      </trkpt>
      <trkpt lat="43.7536" lon="7.01828">
        <ele>950.59997558594</ele>
        <time>2023-07-30T08:09:18.000Z</time>
      </trkpt>
      <trkpt lat="43.75358" lon="7.01825">
        <ele>950.59997558594</ele>
        <time>2023-07-30T08:09:19.000Z</time>
      </trkpt>
      <trkpt lat="43.75355" lon="7.01823">
        <ele>950.59997558594</ele>
        <time>2023-07-30T08:09:20.000Z</time>
      </trkpt>
      <trkpt lat="43.75353" lon="7.01821">
        <ele>950.59997558594</ele>
        <time>2023-07-30T08:09:21.000Z</time>
      </trkpt>
      <trkpt lat="43.75351" lon="7.01818">
        <ele>950.59997558594</ele>
        <time>2023-07-30T08:09:22.000Z</time>
      </trkpt>
      <trkpt lat="43.75349" lon="7.01814">
        <ele>950.40002441406</ele>
        <time>2023-07-30T08:09:23.000Z</time>
      </trkpt>
      <trkpt lat="43.75346" lon="7.01809">
        <ele>950.40002441406</ele>
        <time>2023-07-30T08:09:24.000Z</time>
      </trkpt>
      <trkpt lat="43.75344" lon="7.01805">
        <ele>950.20001220703</ele>
        <time>2023-07-30T08:09:25.000Z</time>
      </trkpt>
      <trkpt lat="43.75342" lon="7.01801">
        <ele>950.20001220703</ele>
        <time>2023-07-30T08:09:26.000Z</time>
      </trkpt>
      <trkpt lat="43.75339" lon="7.01796">
        <ele>950</ele>
        <time>2023-07-30T08:09:27.000Z</time>
      </trkpt>
      <trkpt lat="43.75338" lon="7.01792">
        <ele>949.40002441406</ele>
        <time>2023-07-30T08:09:28.000Z</time>
      </trkpt>
      <trkpt lat="43.75337" lon="7.01789">
        <ele>948.79998779297</ele>
        <time>2023-07-30T08:09:29.000Z</time>
      </trkpt>
      <trkpt lat="43.75337" lon="7.01786">
        <ele>948.40002441406</ele>
        <time>2023-07-30T08:09:30.000Z</time>
      </trkpt>
      <trkpt lat="43.75336" lon="7.01784">
        <ele>948</ele>
        <time>2023-07-30T08:09:31.000Z</time>
      </trkpt>
      <trkpt lat="43.75335" lon="7.01782">
        <ele>947.79998779297</ele>
        <time>2023-07-30T08:09:32.000Z</time>
      </trkpt>
      <trkpt lat="43.75334" lon="7.01779">
        <ele>947.40002441406</ele>
        <time>2023-07-30T08:09:33.000Z</time>
      </trkpt>
      <trkpt lat="43.75333" lon="7.01777">
        <ele>947</ele>
        <time>2023-07-30T08:09:34.000Z</time>
      </trkpt>
      <trkpt lat="43.75332" lon="7.01776">
        <ele>946.40002441406</ele>
        <time>2023-07-30T08:09:35.000Z</time>
      </trkpt>
      <trkpt lat="43.75332" lon="7.01777">
        <ele>946.20001220703</ele>
        <time>2023-07-30T08:09:36.000Z</time>
      </trkpt>
      <trkpt lat="43.75332" lon="7.01777">
        <ele>945.79998779297</ele>
        <time>2023-07-30T08:09:37.000Z</time>
      </trkpt>
      <trkpt lat="43.75332" lon="7.01777">
        <ele>945.59997558594</ele>
        <time>2023-07-30T08:09:38.000Z</time>
      </trkpt>
      <trkpt lat="43.75332" lon="7.01777">
        <ele>945.40002441406</ele>
        <time>2023-07-30T08:09:39.000Z</time>
      </trkpt>
      <trkpt lat="43.75332" lon="7.01777">
        <ele>945.20001220703</ele>
        <time>2023-07-30T08:09:40.000Z</time>
      </trkpt>
      <trkpt lat="43.75332" lon="7.01777">
        <ele>945.20001220703</ele>
        <time>2023-07-30T08:09:41.000Z</time>
      </trkpt>
      <trkpt lat="43.75332" lon="7.01777">
        <ele>945</ele>
        <time>2023-07-30T08:09:42.000Z</time>
      </trkpt>
      <trkpt lat="43.75332" lon="7.01777">
        <ele>944.79998779297</ele>
        <time>2023-07-30T08:09:43.000Z</time>
      </trkpt>
      <trkpt lat="43.75332" lon="7.01777">
        <ele>944.79998779297</ele>
        <time>2023-07-30T08:09:44.000Z</time>
      </trkpt>
      <trkpt lat="43.75331" lon="7.01777">
        <ele>944.79998779297</ele>
        <time>2023-07-30T08:09:45.000Z</time>
      </trkpt>
      <trkpt lat="43.7533" lon="7.01777">
        <ele>944.79998779297</ele>
        <time>2023-07-30T08:09:46.000Z</time>
      </trkpt>
      <trkpt lat="43.7533" lon="7.01777">
        <ele>944.79998779297</ele>
        <time>2023-07-30T08:09:47.000Z</time>
      </trkpt>
      <trkpt lat="43.7533" lon="7.01776">
        <ele>944.79998779297</ele>
        <time>2023-07-30T08:09:48.000Z</time>
      </trkpt>
      <trkpt lat="43.7533" lon="7.01777">
        <ele>944.79998779297</ele>
        <time>2023-07-30T08:09:49.000Z</time>
      </trkpt>
      <trkpt lat="43.75329" lon="7.01778">
        <ele>945</ele>
        <time>2023-07-30T08:09:50.000Z</time>
      </trkpt>
      <trkpt lat="43.75329" lon="7.01778">
        <ele>945</ele>
        <time>2023-07-30T08:09:51.000Z</time>
      </trkpt>
      <trkpt lat="43.75329" lon="7.01778">
        <ele>945</ele>
        <time>2023-07-30T08:09:52.000Z</time>
      </trkpt>
      <trkpt lat="43.75329" lon="7.01778">
        <ele>945</ele>
        <time>2023-07-30T08:09:53.000Z</time>
      </trkpt>
      <trkpt lat="43.75329" lon="7.01778">
        <ele>945</ele>
        <time>2023-07-30T08:09:54.000Z</time>
      </trkpt>
      <trkpt lat="43.75329" lon="7.01778">
        <ele>944.79998779297</ele>
        <time>2023-07-30T08:09:55.000Z</time>
      </trkpt>
      <trkpt lat="43.75329" lon="7.01778">
        <ele>944.59997558594</ele>
        <time>2023-07-30T08:09:56.000Z</time>
      </trkpt>
      <trkpt lat="43.75329" lon="7.01778">
        <ele>944.59997558594</ele>
        <time>2023-07-30T08:09:57.000Z</time>
      </trkpt>
      <trkpt lat="43.75329" lon="7.01778">
        <ele>944.59997558594</ele>
        <time>2023-07-30T08:09:58.000Z</time>
      </trkpt>
      <trkpt lat="43.75329" lon="7.01778">
        <ele>944.59997558594</ele>
        <time>2023-07-30T08:09:59.000Z</time>
      </trkpt>
      <trkpt lat="43.75329" lon="7.01778">
        <ele>944.40002441406</ele>
        <time>2023-07-30T08:10:00.000Z</time>
      </trkpt>
      <trkpt lat="43.75329" lon="7.01778">
        <ele>944.40002441406</ele>
        <time>2023-07-30T08:10:01.000Z</time>
      </trkpt>
      <trkpt lat="43.75329" lon="7.01778">
        <ele>944.40002441406</ele>
        <time>2023-07-30T08:10:02.000Z</time>
      </trkpt>
      <trkpt lat="43.75329" lon="7.01778">
        <ele>944.40002441406</ele>
        <time>2023-07-30T08:10:03.000Z</time>
      </trkpt>
      <trkpt lat="43.75329" lon="7.01778">
        <ele>944.40002441406</ele>
        <time>2023-07-30T08:10:04.000Z</time>
      </trkpt>
      <trkpt lat="43.75329" lon="7.01778">
        <ele>944.40002441406</ele>
        <time>2023-07-30T08:10:05.000Z</time>
      </trkpt>
      <trkpt lat="43.75329" lon="7.01778">
        <ele>944.20001220703</ele>
        <time>2023-07-30T08:10:06.000Z</time>
      </trkpt>
      <trkpt lat="43.75329" lon="7.01778">
        <ele>944.20001220703</ele>
        <time>2023-07-30T08:10:07.000Z</time>
      </trkpt>
      <trkpt lat="43.75329" lon="7.01778">
        <ele>944.20001220703</ele>
        <time>2023-07-30T08:10:08.000Z</time>
      </trkpt>
      <trkpt lat="43.75329" lon="7.01778">
        <ele>944.20001220703</ele>
        <time>2023-07-30T08:10:09.000Z</time>
      </trkpt>
      <trkpt lat="43.75329" lon="7.01778">
        <ele>944.20001220703</ele>
        <time>2023-07-30T08:10:10.000Z</time>
      </trkpt>
      <trkpt lat="43.75329" lon="7.01778">
        <ele>944.20001220703</ele>
        <time>2023-07-30T08:10:11.000Z</time>
      </trkpt>
      <trkpt lat="43.75329" lon="7.01778">
        <ele>944.20001220703</ele>
        <time>2023-07-30T08:10:12.000Z</time>
      </trkpt>
      <trkpt lat="43.75329" lon="7.01778">
        <ele>944.20001220703</ele>
        <time>2023-07-30T08:10:13.000Z</time>
      </trkpt>
      <trkpt lat="43.75329" lon="7.01778">
        <ele>944.20001220703</ele>
        <time>2023-07-30T08:10:14.000Z</time>
      </trkpt>
      <trkpt lat="43.75329" lon="7.01778">
        <ele>944.20001220703</ele>
        <time>2023-07-30T08:10:15.000Z</time>
      </trkpt>
      <trkpt lat="43.75329" lon="7.01778">
        <ele>944.20001220703</ele>
        <time>2023-07-30T08:10:16.000Z</time>
      </trkpt>
      <trkpt lat="43.75329" lon="7.01778">
        <ele>944.20001220703</ele>
        <time>2023-07-30T08:10:17.000Z</time>
      </trkpt>
      <trkpt lat="43.75329" lon="7.01778">
        <ele>944.20001220703</ele>
        <time>2023-07-30T08:10:18.000Z</time>
      </trkpt>
      <trkpt lat="43.75329" lon="7.01778">
        <ele>944.20001220703</ele>
        <time>2023-07-30T08:10:19.000Z</time>
      </trkpt>
      <trkpt lat="43.75329" lon="7.01778">
        <ele>944.20001220703</ele>
        <time>2023-07-30T08:10:20.000Z</time>
      </trkpt>
      <trkpt lat="43.75329" lon="7.01778">
        <ele>944.20001220703</ele>
        <time>2023-07-30T08:10:21.000Z</time>
      </trkpt>
      <trkpt lat="43.75329" lon="7.01778">
        <ele>944.20001220703</ele>
        <time>2023-07-30T08:10:22.000Z</time>
      </trkpt>
      <trkpt lat="43.75329" lon="7.01778">
        <ele>944.20001220703</ele>
        <time>2023-07-30T08:10:23.000Z</time>
      </trkpt>
      <trkpt lat="43.75329" lon="7.01778">
        <ele>944.20001220703</ele>
        <time>2023-07-30T08:10:24.000Z</time>
      </trkpt>
      <trkpt lat="43.75329" lon="7.01778">
        <ele>944.20001220703</ele>
        <time>2023-07-30T08:10:25.000Z</time>
      </trkpt>
      <trkpt lat="43.75329" lon="7.01778">
        <ele>944.40002441406</ele>
        <time>2023-07-30T08:10:26.000Z</time>
      </trkpt>
      <trkpt lat="43.75329" lon="7.01778">
        <ele>944.40002441406</ele>
        <time>2023-07-30T08:10:27.000Z</time>
      </trkpt>
      <trkpt lat="43.75329" lon="7.01778">
        <ele>944.40002441406</ele>
        <time>2023-07-30T08:10:28.000Z</time>
      </trkpt>
      <trkpt lat="43.75329" lon="7.01778">
        <ele>944.20001220703</ele>
        <time>2023-07-30T08:10:29.000Z</time>
      </trkpt>
      <trkpt lat="43.75329" lon="7.01778">
        <ele>944.20001220703</ele>
        <time>2023-07-30T08:10:30.000Z</time>
      </trkpt>
      <trkpt lat="43.75329" lon="7.01778">
        <ele>944.20001220703</ele>
        <time>2023-07-30T08:10:31.000Z</time>
      </trkpt>
      <trkpt lat="43.75329" lon="7.01778">
        <ele>944.20001220703</ele>
        <time>2023-07-30T08:10:32.000Z</time>
      </trkpt>
      <trkpt lat="43.75329" lon="7.01778">
        <ele>944.20001220703</ele>
        <time>2023-07-30T08:10:33.000Z</time>
      </trkpt>
      <trkpt lat="43.75329" lon="7.01778">
        <ele>944.20001220703</ele>
        <time>2023-07-30T08:10:34.000Z</time>
      </trkpt>
      <trkpt lat="43.75329" lon="7.01778">
        <ele>944.20001220703</ele>
        <time>2023-07-30T08:10:35.000Z</time>
      </trkpt>
      <trkpt lat="43.75329" lon="7.01778">
        <ele>944.20001220703</ele>
        <time>2023-07-30T08:10:36.000Z</time>
      </trkpt>
      <trkpt lat="43.75329" lon="7.01778">
        <ele>944.20001220703</ele>
        <time>2023-07-30T08:10:37.000Z</time>
      </trkpt>
      <trkpt lat="43.75329" lon="7.01778">
        <ele>944.20001220703</ele>
        <time>2023-07-30T08:10:38.000Z</time>
      </trkpt>
      <trkpt lat="43.75329" lon="7.01778">
        <ele>944.20001220703</ele>
        <time>2023-07-30T08:10:39.000Z</time>
      </trkpt>
      <trkpt lat="43.75329" lon="7.01778">
        <ele>944.20001220703</ele>
        <time>2023-07-30T08:10:40.000Z</time>
      </trkpt>
      <trkpt lat="43.75329" lon="7.01778">
        <ele>944.20001220703</ele>
        <time>2023-07-30T08:10:41.000Z</time>
      </trkpt>
      <trkpt lat="43.75329" lon="7.01778">
        <ele>944.20001220703</ele>
        <time>2023-07-30T08:10:42.000Z</time>
      </trkpt>
      <trkpt lat="43.75329" lon="7.01778">
        <ele>944.20001220703</ele>
        <time>2023-07-30T08:10:43.000Z</time>
      </trkpt>
      <trkpt lat="43.75329" lon="7.01778">
        <ele>944.20001220703</ele>
        <time>2023-07-30T08:10:44.000Z</time>
      </trkpt>
      <trkpt lat="43.75329" lon="7.01778">
        <ele>944.20001220703</ele>
        <time>2023-07-30T08:10:45.000Z</time>
      </trkpt>
      <trkpt lat="43.75329" lon="7.01778">
        <ele>944.20001220703</ele>
        <time>2023-07-30T08:10:46.000Z</time>
      </trkpt>
      <trkpt lat="43.75329" lon="7.01778">
        <ele>944.20001220703</ele>
        <time>2023-07-30T08:10:47.000Z</time>
      </trkpt>
      <trkpt lat="43.75329" lon="7.01778">
        <ele>944</ele>
        <time>2023-07-30T08:10:48.000Z</time>
      </trkpt>
      <trkpt lat="43.75329" lon="7.01778">
        <ele>944</ele>
        <time>2023-07-30T08:10:49.000Z</time>
      </trkpt>
      <trkpt lat="43.75329" lon="7.01778">
        <ele>944</ele>
        <time>2023-07-30T08:10:50.000Z</time>
      </trkpt>
      <trkpt lat="43.75329" lon="7.01778">
        <ele>944</ele>
        <time>2023-07-30T08:10:51.000Z</time>
      </trkpt>
      <trkpt lat="43.75329" lon="7.01778">
        <ele>943.79998779297</ele>
        <time>2023-07-30T08:10:52.000Z</time>
      </trkpt>
      <trkpt lat="43.75329" lon="7.01778">
        <ele>943.79998779297</ele>
        <time>2023-07-30T08:10:53.000Z</time>
      </trkpt>
      <trkpt lat="43.75329" lon="7.01778">
        <ele>943.79998779297</ele>
        <time>2023-07-30T08:10:54.000Z</time>
      </trkpt>
      <trkpt lat="43.75329" lon="7.01778">
        <ele>943.79998779297</ele>
        <time>2023-07-30T08:10:55.000Z</time>
      </trkpt>
      <trkpt lat="43.75329" lon="7.01778">
        <ele>943.79998779297</ele>
        <time>2023-07-30T08:10:56.000Z</time>
      </trkpt>
      <trkpt lat="43.75329" lon="7.01778">
        <ele>943.79998779297</ele>
        <time>2023-07-30T08:10:57.000Z</time>
      </trkpt>
      <trkpt lat="43.75329" lon="7.01778">
        <ele>943.79998779297</ele>
        <time>2023-07-30T08:10:58.000Z</time>
      </trkpt>
      <trkpt lat="43.75329" lon="7.01778">
        <ele>943.79998779297</ele>
        <time>2023-07-30T08:10:59.000Z</time>
      </trkpt>
      <trkpt lat="43.75329" lon="7.01778">
        <ele>943.79998779297</ele>
        <time>2023-07-30T08:11:00.000Z</time>
      </trkpt>
      <trkpt lat="43.75329" lon="7.01778">
        <ele>943.59997558594</ele>
        <time>2023-07-30T08:11:01.000Z</time>
      </trkpt>
      <trkpt lat="43.75329" lon="7.01778">
        <ele>943.59997558594</ele>
        <time>2023-07-30T08:11:02.000Z</time>
      </trkpt>
      <trkpt lat="43.75329" lon="7.01778">
        <ele>943.59997558594</ele>
        <time>2023-07-30T08:11:03.000Z</time>
      </trkpt>
      <trkpt lat="43.75329" lon="7.01778">
        <ele>943.59997558594</ele>
        <time>2023-07-30T08:11:04.000Z</time>
      </trkpt>
      <trkpt lat="43.75329" lon="7.01778">
        <ele>943.59997558594</ele>
        <time>2023-07-30T08:11:05.000Z</time>
      </trkpt>
      <trkpt lat="43.75329" lon="7.01778">
        <ele>943.59997558594</ele>
        <time>2023-07-30T08:11:06.000Z</time>
      </trkpt>
      <trkpt lat="43.75329" lon="7.01778">
        <ele>943.59997558594</ele>
        <time>2023-07-30T08:11:07.000Z</time>
      </trkpt>
      <trkpt lat="43.75329" lon="7.01778">
        <ele>943.59997558594</ele>
        <time>2023-07-30T08:11:08.000Z</time>
      </trkpt>
      <trkpt lat="43.75329" lon="7.01778">
        <ele>943.59997558594</ele>
        <time>2023-07-30T08:11:09.000Z</time>
      </trkpt>
      <trkpt lat="43.75329" lon="7.01778">
        <ele>943.59997558594</ele>
        <time>2023-07-30T08:11:10.000Z</time>
      </trkpt>
      <trkpt lat="43.75329" lon="7.01778">
        <ele>943.59997558594</ele>
        <time>2023-07-30T08:11:11.000Z</time>
      </trkpt>
      <trkpt lat="43.75329" lon="7.01778">
        <ele>943.40002441406</ele>
        <time>2023-07-30T08:11:12.000Z</time>
      </trkpt>
      <trkpt lat="43.75329" lon="7.01778">
        <ele>943.40002441406</ele>
        <time>2023-07-30T08:11:13.000Z</time>
      </trkpt>
      <trkpt lat="43.75329" lon="7.01778">
        <ele>943.40002441406</ele>
        <time>2023-07-30T08:11:14.000Z</time>
      </trkpt>
      <trkpt lat="43.75329" lon="7.01778">
        <ele>943.40002441406</ele>
        <time>2023-07-30T08:11:15.000Z</time>
      </trkpt>
      <trkpt lat="43.75329" lon="7.01778">
        <ele>943.59997558594</ele>
        <time>2023-07-30T08:11:16.000Z</time>
      </trkpt>
      <trkpt lat="43.75329" lon="7.01778">
        <ele>943.59997558594</ele>
        <time>2023-07-30T08:11:17.000Z</time>
      </trkpt>
      <trkpt lat="43.75329" lon="7.01778">
        <ele>943.59997558594</ele>
        <time>2023-07-30T08:11:18.000Z</time>
      </trkpt>
      <trkpt lat="43.75329" lon="7.01778">
        <ele>943.59997558594</ele>
        <time>2023-07-30T08:11:19.000Z</time>
      </trkpt>
      <trkpt lat="43.75329" lon="7.01778">
        <ele>943.59997558594</ele>
        <time>2023-07-30T08:11:20.000Z</time>
      </trkpt>
      <trkpt lat="43.75329" lon="7.01778">
        <ele>943.59997558594</ele>
        <time>2023-07-30T08:11:21.000Z</time>
      </trkpt>
      <trkpt lat="43.75329" lon="7.01778">
        <ele>943.59997558594</ele>
        <time>2023-07-30T08:11:22.000Z</time>
      </trkpt>
      <trkpt lat="43.75329" lon="7.01778">
        <ele>943.59997558594</ele>
        <time>2023-07-30T08:11:23.000Z</time>
      </trkpt>
      <trkpt lat="43.75329" lon="7.01778">
        <ele>943.59997558594</ele>
        <time>2023-07-30T08:11:24.000Z</time>
      </trkpt>
      <trkpt lat="43.75329" lon="7.01778">
        <ele>943.40002441406</ele>
        <time>2023-07-30T08:11:25.000Z</time>
      </trkpt>
      <trkpt lat="43.75329" lon="7.01778">
        <ele>943.40002441406</ele>
        <time>2023-07-30T08:11:26.000Z</time>
      </trkpt>
      <trkpt lat="43.75329" lon="7.01778">
        <ele>943.40002441406</ele>
        <time>2023-07-30T08:11:27.000Z</time>
      </trkpt>
      <trkpt lat="43.75329" lon="7.01778">
        <ele>943.40002441406</ele>
        <time>2023-07-30T08:11:28.000Z</time>
      </trkpt>
      <trkpt lat="43.75329" lon="7.01778">
        <ele>943.40002441406</ele>
        <time>2023-07-30T08:11:29.000Z</time>
      </trkpt>
      <trkpt lat="43.75329" lon="7.01778">
        <ele>943.40002441406</ele>
        <time>2023-07-30T08:11:30.000Z</time>
      </trkpt>
      <trkpt lat="43.75329" lon="7.01778">
        <ele>943.40002441406</ele>
        <time>2023-07-30T08:11:31.000Z</time>
      </trkpt>
      <trkpt lat="43.75329" lon="7.01778">
        <ele>943.40002441406</ele>
        <time>2023-07-30T08:11:32.000Z</time>
      </trkpt>
      <trkpt lat="43.75329" lon="7.01778">
        <ele>943.59997558594</ele>
        <time>2023-07-30T08:11:33.000Z</time>
      </trkpt>
      <trkpt lat="43.75329" lon="7.01778">
        <ele>943.59997558594</ele>
        <time>2023-07-30T08:11:34.000Z</time>
      </trkpt>
      <trkpt lat="43.75329" lon="7.01778">
        <ele>943.59997558594</ele>
        <time>2023-07-30T08:11:35.000Z</time>
      </trkpt>
      <trkpt lat="43.75329" lon="7.01778">
        <ele>943.59997558594</ele>
        <time>2023-07-30T08:11:36.000Z</time>
      </trkpt>
      <trkpt lat="43.75329" lon="7.01778">
        <ele>943.59997558594</ele>
        <time>2023-07-30T08:11:37.000Z</time>
      </trkpt>
      <trkpt lat="43.75329" lon="7.01778">
        <ele>943.59997558594</ele>
        <time>2023-07-30T08:11:38.000Z</time>
      </trkpt>
      <trkpt lat="43.75329" lon="7.01778">
        <ele>943.59997558594</ele>
        <time>2023-07-30T08:11:39.000Z</time>
      </trkpt>
      <trkpt lat="43.75329" lon="7.01778">
        <ele>943.59997558594</ele>
        <time>2023-07-30T08:11:40.000Z</time>
      </trkpt>
      <trkpt lat="43.75329" lon="7.01778">
        <ele>943.59997558594</ele>
        <time>2023-07-30T08:11:41.000Z</time>
      </trkpt>
      <trkpt lat="43.75329" lon="7.01778">
        <ele>943.40002441406</ele>
        <time>2023-07-30T08:11:42.000Z</time>
      </trkpt>
      <trkpt lat="43.75329" lon="7.01778">
        <ele>943.40002441406</ele>
        <time>2023-07-30T08:11:43.000Z</time>
      </trkpt>
      <trkpt lat="43.75329" lon="7.01778">
        <ele>943.40002441406</ele>
        <time>2023-07-30T08:11:44.000Z</time>
      </trkpt>
      <trkpt lat="43.75329" lon="7.01778">
        <ele>943.40002441406</ele>
        <time>2023-07-30T08:11:45.000Z</time>
      </trkpt>
      <trkpt lat="43.75329" lon="7.01778">
        <ele>943.40002441406</ele>
        <time>2023-07-30T08:11:46.000Z</time>
      </trkpt>
      <trkpt lat="43.75329" lon="7.01778">
        <ele>943.40002441406</ele>
        <time>2023-07-30T08:11:47.000Z</time>
      </trkpt>
      <trkpt lat="43.75329" lon="7.01778">
        <ele>943.40002441406</ele>
        <time>2023-07-30T08:11:48.000Z</time>
      </trkpt>
      <trkpt lat="43.75329" lon="7.01778">
        <ele>943.40002441406</ele>
        <time>2023-07-30T08:11:49.000Z</time>
      </trkpt>
      <trkpt lat="43.75329" lon="7.01778">
        <ele>943.40002441406</ele>
        <time>2023-07-30T08:11:50.000Z</time>
      </trkpt>
      <trkpt lat="43.75329" lon="7.01778">
        <ele>943.40002441406</ele>
        <time>2023-07-30T08:11:51.000Z</time>
      </trkpt>
      <trkpt lat="43.75329" lon="7.01778">
        <ele>943.40002441406</ele>
        <time>2023-07-30T08:11:52.000Z</time>
      </trkpt>
      <trkpt lat="43.75329" lon="7.01778">
        <ele>943.40002441406</ele>
        <time>2023-07-30T08:11:53.000Z</time>
      </trkpt>
      <trkpt lat="43.75329" lon="7.01778">
        <ele>943.40002441406</ele>
        <time>2023-07-30T08:11:54.000Z</time>
      </trkpt>
      <trkpt lat="43.75329" lon="7.01778">
        <ele>943.40002441406</ele>
        <time>2023-07-30T08:11:55.000Z</time>
      </trkpt>
      <trkpt lat="43.75329" lon="7.01778">
        <ele>943.40002441406</ele>
        <time>2023-07-30T08:11:56.000Z</time>
      </trkpt>
      <trkpt lat="43.75329" lon="7.01778">
        <ele>943.40002441406</ele>
        <time>2023-07-30T08:11:57.000Z</time>
      </trkpt>
      <trkpt lat="43.75329" lon="7.01778">
        <ele>943.20001220703</ele>
        <time>2023-07-30T08:11:58.000Z</time>
      </trkpt>
      <trkpt lat="43.75329" lon="7.01778">
        <ele>943.20001220703</ele>
        <time>2023-07-30T08:11:59.000Z</time>
      </trkpt>
      <trkpt lat="43.75329" lon="7.01778">
        <ele>943.20001220703</ele>
        <time>2023-07-30T08:12:00.000Z</time>
      </trkpt>
      <trkpt lat="43.75329" lon="7.01778">
        <ele>943.20001220703</ele>
        <time>2023-07-30T08:12:01.000Z</time>
      </trkpt>
      <trkpt lat="43.75329" lon="7.01778">
        <ele>943.20001220703</ele>
        <time>2023-07-30T08:12:02.000Z</time>
      </trkpt>
      <trkpt lat="43.75329" lon="7.01778">
        <ele>943.20001220703</ele>
        <time>2023-07-30T08:12:03.000Z</time>
      </trkpt>
      <trkpt lat="43.75329" lon="7.01778">
        <ele>943</ele>
        <time>2023-07-30T08:12:04.000Z</time>
      </trkpt>
      <trkpt lat="43.75329" lon="7.01778">
        <ele>943</ele>
        <time>2023-07-30T08:12:05.000Z</time>
      </trkpt>
      <trkpt lat="43.75329" lon="7.01778">
        <ele>943</ele>
        <time>2023-07-30T08:12:06.000Z</time>
      </trkpt>
      <trkpt lat="43.75329" lon="7.01778">
        <ele>943</ele>
        <time>2023-07-30T08:12:07.000Z</time>
      </trkpt>
      <trkpt lat="43.75329" lon="7.01778">
        <ele>943</ele>
        <time>2023-07-30T08:12:08.000Z</time>
      </trkpt>
      <trkpt lat="43.75329" lon="7.01778">
        <ele>943</ele>
        <time>2023-07-30T08:12:09.000Z</time>
      </trkpt>
      <trkpt lat="43.75329" lon="7.01778">
        <ele>943</ele>
        <time>2023-07-30T08:12:10.000Z</time>
      </trkpt>
      <trkpt lat="43.75329" lon="7.01778">
        <ele>943</ele>
        <time>2023-07-30T08:12:11.000Z</time>
      </trkpt>
      <trkpt lat="43.75329" lon="7.01778">
        <ele>943</ele>
        <time>2023-07-30T08:12:12.000Z</time>
      </trkpt>
      <trkpt lat="43.75329" lon="7.01778">
        <ele>943</ele>
        <time>2023-07-30T08:12:13.000Z</time>
      </trkpt>
      <trkpt lat="43.75329" lon="7.01778">
        <ele>943</ele>
        <time>2023-07-30T08:12:14.000Z</time>
      </trkpt>
      <trkpt lat="43.75329" lon="7.01778">
        <ele>943</ele>
        <time>2023-07-30T08:12:15.000Z</time>
      </trkpt>
      <trkpt lat="43.75329" lon="7.01778">
        <ele>943</ele>
        <time>2023-07-30T08:12:16.000Z</time>
      </trkpt>
      <trkpt lat="43.75329" lon="7.01778">
        <ele>943</ele>
        <time>2023-07-30T08:12:17.000Z</time>
      </trkpt>
      <trkpt lat="43.75329" lon="7.01778">
        <ele>943</ele>
        <time>2023-07-30T08:12:18.000Z</time>
      </trkpt>
      <trkpt lat="43.75329" lon="7.01778">
        <ele>943</ele>
        <time>2023-07-30T08:12:19.000Z</time>
      </trkpt>
      <trkpt lat="43.75329" lon="7.01778">
        <ele>943</ele>
        <time>2023-07-30T08:12:20.000Z</time>
      </trkpt>
      <trkpt lat="43.75329" lon="7.01778">
        <ele>943</ele>
        <time>2023-07-30T08:12:21.000Z</time>
      </trkpt>
      <trkpt lat="43.75329" lon="7.01778">
        <ele>943</ele>
        <time>2023-07-30T08:12:22.000Z</time>
      </trkpt>
      <trkpt lat="43.75329" lon="7.01778">
        <ele>943</ele>
        <time>2023-07-30T08:12:23.000Z</time>
      </trkpt>
      <trkpt lat="43.75329" lon="7.01778">
        <ele>943</ele>
        <time>2023-07-30T08:12:24.000Z</time>
      </trkpt>
      <trkpt lat="43.75329" lon="7.01778">
        <ele>943</ele>
        <time>2023-07-30T08:12:25.000Z</time>
      </trkpt>
      <trkpt lat="43.75329" lon="7.01778">
        <ele>943</ele>
        <time>2023-07-30T08:12:26.000Z</time>
      </trkpt>
      <trkpt lat="43.75329" lon="7.01778">
        <ele>943</ele>
        <time>2023-07-30T08:12:27.000Z</time>
      </trkpt>
      <trkpt lat="43.75329" lon="7.01778">
        <ele>943.20001220703</ele>
        <time>2023-07-30T08:12:28.000Z</time>
      </trkpt>
      <trkpt lat="43.75329" lon="7.01778">
        <ele>943.20001220703</ele>
        <time>2023-07-30T08:12:29.000Z</time>
      </trkpt>
      <trkpt lat="43.75329" lon="7.01778">
        <ele>943.20001220703</ele>
        <time>2023-07-30T08:12:30.000Z</time>
      </trkpt>
      <trkpt lat="43.75329" lon="7.01778">
        <ele>943.20001220703</ele>
        <time>2023-07-30T08:12:31.000Z</time>
      </trkpt>
      <trkpt lat="43.75329" lon="7.01778">
        <ele>943.20001220703</ele>
        <time>2023-07-30T08:12:32.000Z</time>
      </trkpt>
      <trkpt lat="43.75329" lon="7.01778">
        <ele>943.20001220703</ele>
        <time>2023-07-30T08:12:33.000Z</time>
      </trkpt>
      <trkpt lat="43.75329" lon="7.01778">
        <ele>943.20001220703</ele>
        <time>2023-07-30T08:12:34.000Z</time>
      </trkpt>
      <trkpt lat="43.75329" lon="7.01778">
        <ele>943.20001220703</ele>
        <time>2023-07-30T08:12:35.000Z</time>
      </trkpt>
      <trkpt lat="43.75329" lon="7.01778">
        <ele>943.20001220703</ele>
        <time>2023-07-30T08:12:36.000Z</time>
      </trkpt>
      <trkpt lat="43.75329" lon="7.01778">
        <ele>943.20001220703</ele>
        <time>2023-07-30T08:12:37.000Z</time>
      </trkpt>
      <trkpt lat="43.75329" lon="7.01778">
        <ele>943.20001220703</ele>
        <time>2023-07-30T08:12:38.000Z</time>
      </trkpt>
      <trkpt lat="43.75329" lon="7.01778">
        <ele>943.20001220703</ele>
        <time>2023-07-30T08:12:39.000Z</time>
      </trkpt>
      <trkpt lat="43.75329" lon="7.01778">
        <ele>943.20001220703</ele>
        <time>2023-07-30T08:12:40.000Z</time>
      </trkpt>
      <trkpt lat="43.75329" lon="7.01778">
        <ele>943.20001220703</ele>
        <time>2023-07-30T08:12:41.000Z</time>
      </trkpt>
      <trkpt lat="43.75329" lon="7.01778">
        <ele>943.20001220703</ele>
        <time>2023-07-30T08:12:42.000Z</time>
      </trkpt>
      <trkpt lat="43.75329" lon="7.01778">
        <ele>943.20001220703</ele>
        <time>2023-07-30T08:12:43.000Z</time>
      </trkpt>
      <trkpt lat="43.75329" lon="7.01778">
        <ele>943.20001220703</ele>
        <time>2023-07-30T08:12:44.000Z</time>
      </trkpt>
      <trkpt lat="43.75329" lon="7.01778">
        <ele>943.20001220703</ele>
        <time>2023-07-30T08:12:45.000Z</time>
      </trkpt>
      <trkpt lat="43.75329" lon="7.01778">
        <ele>943.20001220703</ele>
        <time>2023-07-30T08:12:46.000Z</time>
      </trkpt>
      <trkpt lat="43.75329" lon="7.01778">
        <ele>943.20001220703</ele>
        <time>2023-07-30T08:12:47.000Z</time>
      </trkpt>
      <trkpt lat="43.75329" lon="7.01778">
        <ele>943.20001220703</ele>
        <time>2023-07-30T08:12:48.000Z</time>
      </trkpt>
      <trkpt lat="43.75329" lon="7.01778">
        <ele>943.20001220703</ele>
        <time>2023-07-30T08:12:49.000Z</time>
      </trkpt>
      <trkpt lat="43.75329" lon="7.01778">
        <ele>943.20001220703</ele>
        <time>2023-07-30T08:12:50.000Z</time>
      </trkpt>
      <trkpt lat="43.75329" lon="7.01778">
        <ele>943.20001220703</ele>
        <time>2023-07-30T08:12:51.000Z</time>
      </trkpt>
      <trkpt lat="43.75329" lon="7.01778">
        <ele>943.20001220703</ele>
        <time>2023-07-30T08:12:52.000Z</time>
      </trkpt>
      <trkpt lat="43.75329" lon="7.01778">
        <ele>943.20001220703</ele>
        <time>2023-07-30T08:12:53.000Z</time>
      </trkpt>
      <trkpt lat="43.75329" lon="7.01778">
        <ele>943.20001220703</ele>
        <time>2023-07-30T08:12:54.000Z</time>
      </trkpt>
      <trkpt lat="43.75329" lon="7.01778">
        <ele>943.20001220703</ele>
        <time>2023-07-30T08:12:55.000Z</time>
      </trkpt>
      <trkpt lat="43.75329" lon="7.01778">
        <ele>943.20001220703</ele>
        <time>2023-07-30T08:12:56.000Z</time>
      </trkpt>
      <trkpt lat="43.75329" lon="7.01778">
        <ele>943.20001220703</ele>
        <time>2023-07-30T08:12:57.000Z</time>
      </trkpt>
      <trkpt lat="43.75329" lon="7.01778">
        <ele>943.20001220703</ele>
        <time>2023-07-30T08:12:58.000Z</time>
      </trkpt>
      <trkpt lat="43.75329" lon="7.01778">
        <ele>943.20001220703</ele>
        <time>2023-07-30T08:12:59.000Z</time>
      </trkpt>
      <trkpt lat="43.75329" lon="7.01778">
        <ele>943.20001220703</ele>
        <time>2023-07-30T08:13:00.000Z</time>
      </trkpt>
      <trkpt lat="43.75329" lon="7.01778">
        <ele>943.20001220703</ele>
        <time>2023-07-30T08:13:01.000Z</time>
      </trkpt>
      <trkpt lat="43.75329" lon="7.01778">
        <ele>943.20001220703</ele>
        <time>2023-07-30T08:13:02.000Z</time>
      </trkpt>
      <trkpt lat="43.75329" lon="7.01778">
        <ele>943.20001220703</ele>
        <time>2023-07-30T08:13:03.000Z</time>
      </trkpt>
      <trkpt lat="43.75329" lon="7.01778">
        <ele>943.20001220703</ele>
        <time>2023-07-30T08:13:04.000Z</time>
      </trkpt>
      <trkpt lat="43.75329" lon="7.01778">
        <ele>943.20001220703</ele>
        <time>2023-07-30T08:13:05.000Z</time>
      </trkpt>
      <trkpt lat="43.75329" lon="7.01778">
        <ele>943.20001220703</ele>
        <time>2023-07-30T08:13:06.000Z</time>
      </trkpt>
      <trkpt lat="43.75329" lon="7.01778">
        <ele>943.20001220703</ele>
        <time>2023-07-30T08:13:07.000Z</time>
      </trkpt>
      <trkpt lat="43.75329" lon="7.01778">
        <ele>943.20001220703</ele>
        <time>2023-07-30T08:13:08.000Z</time>
      </trkpt>
      <trkpt lat="43.75329" lon="7.01778">
        <ele>943.20001220703</ele>
        <time>2023-07-30T08:13:09.000Z</time>
      </trkpt>
      <trkpt lat="43.75329" lon="7.01778">
        <ele>943.20001220703</ele>
        <time>2023-07-30T08:13:10.000Z</time>
      </trkpt>
      <trkpt lat="43.75329" lon="7.01778">
        <ele>943.20001220703</ele>
        <time>2023-07-30T08:13:11.000Z</time>
      </trkpt>
      <trkpt lat="43.75329" lon="7.01778">
        <ele>943.20001220703</ele>
        <time>2023-07-30T08:13:12.000Z</time>
      </trkpt>
      <trkpt lat="43.75329" lon="7.01778">
        <ele>943.20001220703</ele>
        <time>2023-07-30T08:13:13.000Z</time>
      </trkpt>
      <trkpt lat="43.75329" lon="7.01778">
        <ele>943.20001220703</ele>
        <time>2023-07-30T08:13:14.000Z</time>
      </trkpt>
      <trkpt lat="43.75329" lon="7.01778">
        <ele>943.20001220703</ele>
        <time>2023-07-30T08:13:15.000Z</time>
      </trkpt>
      <trkpt lat="43.75329" lon="7.01778">
        <ele>943.20001220703</ele>
        <time>2023-07-30T08:13:16.000Z</time>
      </trkpt>
      <trkpt lat="43.75329" lon="7.01778">
        <ele>943.20001220703</ele>
        <time>2023-07-30T08:13:17.000Z</time>
      </trkpt>
      <trkpt lat="43.75329" lon="7.01778">
        <ele>943.20001220703</ele>
        <time>2023-07-30T08:13:18.000Z</time>
      </trkpt>
      <trkpt lat="43.75329" lon="7.01778">
        <ele>943.20001220703</ele>
        <time>2023-07-30T08:13:19.000Z</time>
      </trkpt>
      <trkpt lat="43.75329" lon="7.01778">
        <ele>943.40002441406</ele>
        <time>2023-07-30T08:13:20.000Z</time>
      </trkpt>
      <trkpt lat="43.75329" lon="7.01778">
        <ele>943.40002441406</ele>
        <time>2023-07-30T08:13:21.000Z</time>
      </trkpt>
      <trkpt lat="43.75329" lon="7.01778">
        <ele>943.40002441406</ele>
        <time>2023-07-30T08:13:22.000Z</time>
      </trkpt>
      <trkpt lat="43.75329" lon="7.01778">
        <ele>943.40002441406</ele>
        <time>2023-07-30T08:13:23.000Z</time>
      </trkpt>
      <trkpt lat="43.75329" lon="7.01778">
        <ele>943.40002441406</ele>
        <time>2023-07-30T08:13:24.000Z</time>
      </trkpt>
      <trkpt lat="43.75329" lon="7.01778">
        <ele>943.40002441406</ele>
        <time>2023-07-30T08:13:25.000Z</time>
      </trkpt>
      <trkpt lat="43.75329" lon="7.01778">
        <ele>943.40002441406</ele>
        <time>2023-07-30T08:13:26.000Z</time>
      </trkpt>
      <trkpt lat="43.75329" lon="7.01778">
        <ele>943.40002441406</ele>
        <time>2023-07-30T08:13:27.000Z</time>
      </trkpt>
      <trkpt lat="43.75329" lon="7.01778">
        <ele>943.40002441406</ele>
        <time>2023-07-30T08:13:28.000Z</time>
      </trkpt>
      <trkpt lat="43.75329" lon="7.01778">
        <ele>943.40002441406</ele>
        <time>2023-07-30T08:13:29.000Z</time>
      </trkpt>
      <trkpt lat="43.75329" lon="7.01778">
        <ele>943.40002441406</ele>
        <time>2023-07-30T08:13:30.000Z</time>
      </trkpt>
      <trkpt lat="43.75329" lon="7.01778">
        <ele>943.40002441406</ele>
        <time>2023-07-30T08:13:31.000Z</time>
      </trkpt>
      <trkpt lat="43.75329" lon="7.01778">
        <ele>943.40002441406</ele>
        <time>2023-07-30T08:13:32.000Z</time>
      </trkpt>
      <trkpt lat="43.75329" lon="7.01778">
        <ele>943.40002441406</ele>
        <time>2023-07-30T08:13:33.000Z</time>
      </trkpt>
      <trkpt lat="43.75329" lon="7.01778">
        <ele>943.40002441406</ele>
        <time>2023-07-30T08:13:34.000Z</time>
      </trkpt>
      <trkpt lat="43.75329" lon="7.01778">
        <ele>943.40002441406</ele>
        <time>2023-07-30T08:13:35.000Z</time>
      </trkpt>
      <trkpt lat="43.75329" lon="7.01778">
        <ele>943.40002441406</ele>
        <time>2023-07-30T08:13:36.000Z</time>
      </trkpt>
      <trkpt lat="43.75329" lon="7.01778">
        <ele>943.40002441406</ele>
        <time>2023-07-30T08:13:37.000Z</time>
      </trkpt>
      <trkpt lat="43.75329" lon="7.01778">
        <ele>943.40002441406</ele>
        <time>2023-07-30T08:13:38.000Z</time>
      </trkpt>
      <trkpt lat="43.75329" lon="7.01778">
        <ele>943.20001220703</ele>
        <time>2023-07-30T08:13:39.000Z</time>
      </trkpt>
      <trkpt lat="43.75329" lon="7.01778">
        <ele>943.20001220703</ele>
        <time>2023-07-30T08:13:40.000Z</time>
      </trkpt>
      <trkpt lat="43.75329" lon="7.01778">
        <ele>943.20001220703</ele>
        <time>2023-07-30T08:13:41.000Z</time>
      </trkpt>
      <trkpt lat="43.75329" lon="7.01778">
        <ele>943.20001220703</ele>
        <time>2023-07-30T08:13:42.000Z</time>
      </trkpt>
      <trkpt lat="43.75329" lon="7.01778">
        <ele>943.20001220703</ele>
        <time>2023-07-30T08:13:43.000Z</time>
      </trkpt>
      <trkpt lat="43.75329" lon="7.01778">
        <ele>943.20001220703</ele>
        <time>2023-07-30T08:13:44.000Z</time>
      </trkpt>
      <trkpt lat="43.75329" lon="7.01778">
        <ele>943.20001220703</ele>
        <time>2023-07-30T08:13:45.000Z</time>
      </trkpt>
      <trkpt lat="43.75329" lon="7.01778">
        <ele>943.20001220703</ele>
        <time>2023-07-30T08:13:46.000Z</time>
      </trkpt>
      <trkpt lat="43.75329" lon="7.01778">
        <ele>943.20001220703</ele>
        <time>2023-07-30T08:13:47.000Z</time>
      </trkpt>
      <trkpt lat="43.75329" lon="7.01778">
        <ele>943.20001220703</ele>
        <time>2023-07-30T08:13:48.000Z</time>
      </trkpt>
      <trkpt lat="43.75329" lon="7.01778">
        <ele>943.20001220703</ele>
        <time>2023-07-30T08:13:49.000Z</time>
      </trkpt>
      <trkpt lat="43.75329" lon="7.01778">
        <ele>943.20001220703</ele>
        <time>2023-07-30T08:13:50.000Z</time>
      </trkpt>
      <trkpt lat="43.75329" lon="7.01778">
        <ele>943.20001220703</ele>
        <time>2023-07-30T08:13:51.000Z</time>
      </trkpt>
      <trkpt lat="43.75329" lon="7.01778">
        <ele>943.20001220703</ele>
        <time>2023-07-30T08:13:52.000Z</time>
      </trkpt>
      <trkpt lat="43.75329" lon="7.01778">
        <ele>943.20001220703</ele>
        <time>2023-07-30T08:13:53.000Z</time>
      </trkpt>
      <trkpt lat="43.75329" lon="7.01778">
        <ele>943.20001220703</ele>
        <time>2023-07-30T08:13:54.000Z</time>
      </trkpt>
      <trkpt lat="43.75329" lon="7.01778">
        <ele>943.20001220703</ele>
        <time>2023-07-30T08:13:55.000Z</time>
      </trkpt>
      <trkpt lat="43.75329" lon="7.01778">
        <ele>943.20001220703</ele>
        <time>2023-07-30T08:13:56.000Z</time>
      </trkpt>
      <trkpt lat="43.75329" lon="7.01778">
        <ele>943.20001220703</ele>
        <time>2023-07-30T08:13:57.000Z</time>
      </trkpt>
      <trkpt lat="43.75329" lon="7.01778">
        <ele>943.40002441406</ele>
        <time>2023-07-30T08:13:58.000Z</time>
      </trkpt>
      <trkpt lat="43.75329" lon="7.01778">
        <ele>943.40002441406</ele>
        <time>2023-07-30T08:13:59.000Z</time>
      </trkpt>
      <trkpt lat="43.75329" lon="7.01778">
        <ele>943.40002441406</ele>
        <time>2023-07-30T08:14:00.000Z</time>
      </trkpt>
      <trkpt lat="43.75329" lon="7.01778">
        <ele>943.40002441406</ele>
        <time>2023-07-30T08:14:01.000Z</time>
      </trkpt>
      <trkpt lat="43.75329" lon="7.01778">
        <ele>943.40002441406</ele>
        <time>2023-07-30T08:14:02.000Z</time>
      </trkpt>
      <trkpt lat="43.75329" lon="7.01778">
        <ele>943.40002441406</ele>
        <time>2023-07-30T08:14:03.000Z</time>
      </trkpt>
      <trkpt lat="43.75329" lon="7.01778">
        <ele>943.40002441406</ele>
        <time>2023-07-30T08:14:04.000Z</time>
      </trkpt>
      <trkpt lat="43.75329" lon="7.01778">
        <ele>943.40002441406</ele>
        <time>2023-07-30T08:14:05.000Z</time>
      </trkpt>
      <trkpt lat="43.75329" lon="7.01778">
        <ele>943.40002441406</ele>
        <time>2023-07-30T08:14:06.000Z</time>
      </trkpt>
      <trkpt lat="43.75329" lon="7.01778">
        <ele>943.40002441406</ele>
        <time>2023-07-30T08:14:07.000Z</time>
      </trkpt>
      <trkpt lat="43.75329" lon="7.01778">
        <ele>943.20001220703</ele>
        <time>2023-07-30T08:14:08.000Z</time>
      </trkpt>
      <trkpt lat="43.75329" lon="7.01778">
        <ele>943.20001220703</ele>
        <time>2023-07-30T08:14:09.000Z</time>
      </trkpt>
      <trkpt lat="43.75329" lon="7.01778">
        <ele>943.20001220703</ele>
        <time>2023-07-30T08:14:10.000Z</time>
      </trkpt>
      <trkpt lat="43.75329" lon="7.01778">
        <ele>943.20001220703</ele>
        <time>2023-07-30T08:14:11.000Z</time>
      </trkpt>
      <trkpt lat="43.75329" lon="7.01778">
        <ele>943.20001220703</ele>
        <time>2023-07-30T08:14:12.000Z</time>
      </trkpt>
      <trkpt lat="43.75329" lon="7.01778">
        <ele>943.20001220703</ele>
        <time>2023-07-30T08:14:13.000Z</time>
      </trkpt>
      <trkpt lat="43.75329" lon="7.01778">
        <ele>943.20001220703</ele>
        <time>2023-07-30T08:14:14.000Z</time>
      </trkpt>
      <trkpt lat="43.75329" lon="7.01778">
        <ele>943.20001220703</ele>
        <time>2023-07-30T08:14:15.000Z</time>
      </trkpt>
      <trkpt lat="43.75329" lon="7.01778">
        <ele>943.20001220703</ele>
        <time>2023-07-30T08:14:16.000Z</time>
      </trkpt>
      <trkpt lat="43.75329" lon="7.01778">
        <ele>943.20001220703</ele>
        <time>2023-07-30T08:14:17.000Z</time>
      </trkpt>
      <trkpt lat="43.75329" lon="7.01778">
        <ele>943.20001220703</ele>
        <time>2023-07-30T08:14:18.000Z</time>
      </trkpt>
      <trkpt lat="43.75329" lon="7.01778">
        <ele>943.20001220703</ele>
        <time>2023-07-30T08:14:19.000Z</time>
      </trkpt>
      <trkpt lat="43.75329" lon="7.01778">
        <ele>943.20001220703</ele>
        <time>2023-07-30T08:14:20.000Z</time>
      </trkpt>
      <trkpt lat="43.75329" lon="7.01778">
        <ele>943.20001220703</ele>
        <time>2023-07-30T08:14:21.000Z</time>
      </trkpt>
      <trkpt lat="43.75329" lon="7.01778">
        <ele>943.20001220703</ele>
        <time>2023-07-30T08:14:22.000Z</time>
      </trkpt>
      <trkpt lat="43.75329" lon="7.01778">
        <ele>943.20001220703</ele>
        <time>2023-07-30T08:14:23.000Z</time>
      </trkpt>
      <trkpt lat="43.75329" lon="7.01778">
        <ele>943.20001220703</ele>
        <time>2023-07-30T08:14:24.000Z</time>
      </trkpt>
      <trkpt lat="43.75329" lon="7.01778">
        <ele>943.20001220703</ele>
        <time>2023-07-30T08:14:25.000Z</time>
      </trkpt>
      <trkpt lat="43.75329" lon="7.01778">
        <ele>943.20001220703</ele>
        <time>2023-07-30T08:14:26.000Z</time>
      </trkpt>
      <trkpt lat="43.75329" lon="7.01778">
        <ele>943.20001220703</ele>
        <time>2023-07-30T08:14:27.000Z</time>
      </trkpt>
      <trkpt lat="43.75329" lon="7.01778">
        <ele>943.20001220703</ele>
        <time>2023-07-30T08:14:28.000Z</time>
      </trkpt>
      <trkpt lat="43.75329" lon="7.01778">
        <ele>943.20001220703</ele>
        <time>2023-07-30T08:14:29.000Z</time>
      </trkpt>
      <trkpt lat="43.75329" lon="7.01778">
        <ele>943.20001220703</ele>
        <time>2023-07-30T08:14:30.000Z</time>
      </trkpt>
      <trkpt lat="43.75329" lon="7.01778">
        <ele>943.20001220703</ele>
        <time>2023-07-30T08:14:31.000Z</time>
      </trkpt>
      <trkpt lat="43.75329" lon="7.01778">
        <ele>943.20001220703</ele>
        <time>2023-07-30T08:14:32.000Z</time>
      </trkpt>
      <trkpt lat="43.75329" lon="7.01778">
        <ele>943.20001220703</ele>
        <time>2023-07-30T08:14:33.000Z</time>
      </trkpt>
      <trkpt lat="43.75329" lon="7.01778">
        <ele>943.20001220703</ele>
        <time>2023-07-30T08:14:34.000Z</time>
      </trkpt>
      <trkpt lat="43.75329" lon="7.01778">
        <ele>943.20001220703</ele>
        <time>2023-07-30T08:14:35.000Z</time>
      </trkpt>
      <trkpt lat="43.75329" lon="7.01778">
        <ele>943.20001220703</ele>
        <time>2023-07-30T08:14:36.000Z</time>
      </trkpt>
      <trkpt lat="43.75329" lon="7.01778">
        <ele>943.20001220703</ele>
        <time>2023-07-30T08:14:37.000Z</time>
      </trkpt>
      <trkpt lat="43.75329" lon="7.01778">
        <ele>943.20001220703</ele>
        <time>2023-07-30T08:14:38.000Z</time>
      </trkpt>
      <trkpt lat="43.75329" lon="7.01778">
        <ele>943.20001220703</ele>
        <time>2023-07-30T08:14:39.000Z</time>
      </trkpt>
      <trkpt lat="43.75329" lon="7.01778">
        <ele>943.20001220703</ele>
        <time>2023-07-30T08:14:40.000Z</time>
      </trkpt>
      <trkpt lat="43.75329" lon="7.01778">
        <ele>943.20001220703</ele>
        <time>2023-07-30T08:14:41.000Z</time>
      </trkpt>
      <trkpt lat="43.75329" lon="7.01778">
        <ele>943.20001220703</ele>
        <time>2023-07-30T08:14:42.000Z</time>
      </trkpt>
      <trkpt lat="43.75329" lon="7.01778">
        <ele>943.20001220703</ele>
        <time>2023-07-30T08:14:43.000Z</time>
      </trkpt>
      <trkpt lat="43.75329" lon="7.01778">
        <ele>943.20001220703</ele>
        <time>2023-07-30T08:14:44.000Z</time>
      </trkpt>
      <trkpt lat="43.75329" lon="7.01778">
        <ele>943.20001220703</ele>
        <time>2023-07-30T08:14:45.000Z</time>
      </trkpt>
      <trkpt lat="43.75329" lon="7.01778">
        <ele>943.20001220703</ele>
        <time>2023-07-30T08:14:46.000Z</time>
      </trkpt>
      <trkpt lat="43.75329" lon="7.01778">
        <ele>943.20001220703</ele>
        <time>2023-07-30T08:14:47.000Z</time>
      </trkpt>
      <trkpt lat="43.75329" lon="7.01778">
        <ele>943.20001220703</ele>
        <time>2023-07-30T08:14:48.000Z</time>
      </trkpt>
      <trkpt lat="43.75329" lon="7.01778">
        <ele>943.20001220703</ele>
        <time>2023-07-30T08:14:49.000Z</time>
      </trkpt>
      <trkpt lat="43.75329" lon="7.01778">
        <ele>943.20001220703</ele>
        <time>2023-07-30T08:14:50.000Z</time>
      </trkpt>
      <trkpt lat="43.75329" lon="7.01778">
        <ele>943.20001220703</ele>
        <time>2023-07-30T08:14:51.000Z</time>
      </trkpt>
      <trkpt lat="43.75329" lon="7.01778">
        <ele>943.20001220703</ele>
        <time>2023-07-30T08:14:52.000Z</time>
      </trkpt>
      <trkpt lat="43.75329" lon="7.01778">
        <ele>943.20001220703</ele>
        <time>2023-07-30T08:14:53.000Z</time>
      </trkpt>
      <trkpt lat="43.75329" lon="7.01778">
        <ele>943.20001220703</ele>
        <time>2023-07-30T08:14:54.000Z</time>
      </trkpt>
      <trkpt lat="43.75329" lon="7.01778">
        <ele>943.20001220703</ele>
        <time>2023-07-30T08:14:55.000Z</time>
      </trkpt>
      <trkpt lat="43.75329" lon="7.01778">
        <ele>943.20001220703</ele>
        <time>2023-07-30T08:14:56.000Z</time>
      </trkpt>
      <trkpt lat="43.75329" lon="7.01778">
        <ele>943.20001220703</ele>
        <time>2023-07-30T08:14:57.000Z</time>
      </trkpt>
      <trkpt lat="43.75329" lon="7.01778">
        <ele>943.20001220703</ele>
        <time>2023-07-30T08:14:58.000Z</time>
      </trkpt>
      <trkpt lat="43.75329" lon="7.01778">
        <ele>943.20001220703</ele>
        <time>2023-07-30T08:14:59.000Z</time>
      </trkpt>
      <trkpt lat="43.75329" lon="7.01778">
        <ele>943.20001220703</ele>
        <time>2023-07-30T08:15:00.000Z</time>
      </trkpt>
      <trkpt lat="43.75329" lon="7.01778">
        <ele>943.20001220703</ele>
        <time>2023-07-30T08:15:01.000Z</time>
      </trkpt>
      <trkpt lat="43.75329" lon="7.01778">
        <ele>943.20001220703</ele>
        <time>2023-07-30T08:15:02.000Z</time>
      </trkpt>
      <trkpt lat="43.75329" lon="7.01778">
        <ele>943.20001220703</ele>
        <time>2023-07-30T08:15:03.000Z</time>
      </trkpt>
      <trkpt lat="43.75329" lon="7.01778">
        <ele>943.20001220703</ele>
        <time>2023-07-30T08:15:04.000Z</time>
      </trkpt>
      <trkpt lat="43.75329" lon="7.01778">
        <ele>943.20001220703</ele>
        <time>2023-07-30T08:15:05.000Z</time>
      </trkpt>
      <trkpt lat="43.75329" lon="7.01778">
        <ele>943.20001220703</ele>
        <time>2023-07-30T08:15:06.000Z</time>
      </trkpt>
      <trkpt lat="43.75329" lon="7.01778">
        <ele>943.20001220703</ele>
        <time>2023-07-30T08:15:07.000Z</time>
      </trkpt>
      <trkpt lat="43.75329" lon="7.01778">
        <ele>943.20001220703</ele>
        <time>2023-07-30T08:15:08.000Z</time>
      </trkpt>
      <trkpt lat="43.75329" lon="7.01778">
        <ele>943.20001220703</ele>
        <time>2023-07-30T08:15:09.000Z</time>
      </trkpt>
      <trkpt lat="43.75329" lon="7.01778">
        <ele>943.20001220703</ele>
        <time>2023-07-30T08:15:10.000Z</time>
      </trkpt>
      <trkpt lat="43.75329" lon="7.01778">
        <ele>943.20001220703</ele>
        <time>2023-07-30T08:15:11.000Z</time>
      </trkpt>
      <trkpt lat="43.75329" lon="7.01778">
        <ele>943.20001220703</ele>
        <time>2023-07-30T08:15:12.000Z</time>
      </trkpt>
      <trkpt lat="43.75329" lon="7.01778">
        <ele>943.20001220703</ele>
        <time>2023-07-30T08:15:13.000Z</time>
      </trkpt>
      <trkpt lat="43.75329" lon="7.01778">
        <ele>943.20001220703</ele>
        <time>2023-07-30T08:15:14.000Z</time>
      </trkpt>
      <trkpt lat="43.7533" lon="7.01777">
        <ele>943.20001220703</ele>
        <time>2023-07-30T08:15:15.000Z</time>
      </trkpt>
      <trkpt lat="43.7533" lon="7.01778">
        <ele>943.20001220703</ele>
        <time>2023-07-30T08:15:16.000Z</time>
      </trkpt>
      <trkpt lat="43.7533" lon="7.01778">
        <ele>943.20001220703</ele>
        <time>2023-07-30T08:15:17.000Z</time>
      </trkpt>
      <trkpt lat="43.7533" lon="7.01777">
        <ele>943.20001220703</ele>
        <time>2023-07-30T08:15:18.000Z</time>
      </trkpt>
      <trkpt lat="43.75329" lon="7.01777">
        <ele>943.20001220703</ele>
        <time>2023-07-30T08:15:19.000Z</time>
      </trkpt>
      <trkpt lat="43.75329" lon="7.01777">
        <ele>943.20001220703</ele>
        <time>2023-07-30T08:15:20.000Z</time>
      </trkpt>
      <trkpt lat="43.7533" lon="7.01777">
        <ele>943.20001220703</ele>
        <time>2023-07-30T08:15:21.000Z</time>
      </trkpt>
      <trkpt lat="43.7533" lon="7.01777">
        <ele>943.20001220703</ele>
        <time>2023-07-30T08:15:22.000Z</time>
      </trkpt>
      <trkpt lat="43.75329" lon="7.01777">
        <ele>943.20001220703</ele>
        <time>2023-07-30T08:15:23.000Z</time>
      </trkpt>
      <trkpt lat="43.7533" lon="7.01777">
        <ele>943.20001220703</ele>
        <time>2023-07-30T08:15:24.000Z</time>
      </trkpt>
      <trkpt lat="43.7533" lon="7.01777">
        <ele>943.20001220703</ele>
        <time>2023-07-30T08:15:25.000Z</time>
      </trkpt>
      <trkpt lat="43.7533" lon="7.01777">
        <ele>943.20001220703</ele>
        <time>2023-07-30T08:15:26.000Z</time>
      </trkpt>
      <trkpt lat="43.7533" lon="7.01777">
        <ele>943.20001220703</ele>
        <time>2023-07-30T08:15:27.000Z</time>
      </trkpt>
      <trkpt lat="43.7533" lon="7.01777">
        <ele>943.20001220703</ele>
        <time>2023-07-30T08:15:28.000Z</time>
      </trkpt>
      <trkpt lat="43.7533" lon="7.01777">
        <ele>943.20001220703</ele>
        <time>2023-07-30T08:15:29.000Z</time>
      </trkpt>
      <trkpt lat="43.7533" lon="7.01777">
        <ele>943.20001220703</ele>
        <time>2023-07-30T08:15:30.000Z</time>
      </trkpt>
      <trkpt lat="43.7533" lon="7.01777">
        <ele>943.20001220703</ele>
        <time>2023-07-30T08:15:31.000Z</time>
      </trkpt>
      <trkpt lat="43.7533" lon="7.01777">
        <ele>943.20001220703</ele>
        <time>2023-07-30T08:15:32.000Z</time>
      </trkpt>
      <trkpt lat="43.7533" lon="7.01776">
        <ele>943.20001220703</ele>
        <time>2023-07-30T08:15:33.000Z</time>
      </trkpt>
      <trkpt lat="43.75329" lon="7.01774">
        <ele>943.20001220703</ele>
        <time>2023-07-30T08:15:34.000Z</time>
      </trkpt>
      <trkpt lat="43.75327" lon="7.01772">
        <ele>943.20001220703</ele>
        <time>2023-07-30T08:15:35.000Z</time>
      </trkpt>
      <trkpt lat="43.75325" lon="7.01771">
        <ele>943.20001220703</ele>
        <time>2023-07-30T08:15:36.000Z</time>
      </trkpt>
      <trkpt lat="43.75322" lon="7.01769">
        <ele>943.20001220703</ele>
        <time>2023-07-30T08:15:37.000Z</time>
      </trkpt>
      <trkpt lat="43.75319" lon="7.01767">
        <ele>943.20001220703</ele>
        <time>2023-07-30T08:15:38.000Z</time>
      </trkpt>
      <trkpt lat="43.75315" lon="7.01764">
        <ele>943.20001220703</ele>
        <time>2023-07-30T08:15:39.000Z</time>
      </trkpt>
      <trkpt lat="43.75312" lon="7.01761">
        <ele>944.79998779297</ele>
        <time>2023-07-30T08:15:40.000Z</time>
      </trkpt>
      <trkpt lat="43.75307" lon="7.01758">
        <ele>944.59997558594</ele>
        <time>2023-07-30T08:15:41.000Z</time>
      </trkpt>
      <trkpt lat="43.75303" lon="7.01754">
        <ele>944.40002441406</ele>
        <time>2023-07-30T08:15:42.000Z</time>
      </trkpt>
      <trkpt lat="43.75299" lon="7.01751">
        <ele>944</ele>
        <time>2023-07-30T08:15:43.000Z</time>
      </trkpt>
      <trkpt lat="43.75295" lon="7.01747">
        <ele>943.59997558594</ele>
        <time>2023-07-30T08:15:44.000Z</time>
      </trkpt>
      <trkpt lat="43.7529" lon="7.01744">
        <ele>943.20001220703</ele>
        <time>2023-07-30T08:15:45.000Z</time>
      </trkpt>
      <trkpt lat="43.75285" lon="7.0174">
        <ele>943</ele>
        <time>2023-07-30T08:15:46.000Z</time>
      </trkpt>
      <trkpt lat="43.7528" lon="7.01736">
        <ele>942.59997558594</ele>
        <time>2023-07-30T08:15:47.000Z</time>
      </trkpt>
      <trkpt lat="43.75276" lon="7.01732">
        <ele>942.40002441406</ele>
        <time>2023-07-30T08:15:48.000Z</time>
      </trkpt>
      <trkpt lat="43.75271" lon="7.01728">
        <ele>940.79998779297</ele>
        <time>2023-07-30T08:15:49.000Z</time>
      </trkpt>
      <trkpt lat="43.75266" lon="7.01724">
        <ele>940.59997558594</ele>
        <time>2023-07-30T08:15:50.000Z</time>
      </trkpt>
      <trkpt lat="43.75261" lon="7.01719">
        <ele>940</ele>
        <time>2023-07-30T08:15:51.000Z</time>
      </trkpt>
      <trkpt lat="43.75256" lon="7.01715">
        <ele>940</ele>
        <time>2023-07-30T08:15:52.000Z</time>
      </trkpt>
      <trkpt lat="43.75252" lon="7.0171">
        <ele>939.40002441406</ele>
        <time>2023-07-30T08:15:53.000Z</time>
      </trkpt>
      <trkpt lat="43.75247" lon="7.01705">
        <ele>939</ele>
        <time>2023-07-30T08:15:54.000Z</time>
      </trkpt>
      <trkpt lat="43.75242" lon="7.01701">
        <ele>938.40002441406</ele>
        <time>2023-07-30T08:15:55.000Z</time>
      </trkpt>
      <trkpt lat="43.75237" lon="7.01697">
        <ele>938.40002441406</ele>
        <time>2023-07-30T08:15:56.000Z</time>
      </trkpt>
      <trkpt lat="43.75233" lon="7.01693">
        <ele>938</ele>
        <time>2023-07-30T08:15:57.000Z</time>
      </trkpt>
      <trkpt lat="43.75228" lon="7.0169">
        <ele>938</ele>
        <time>2023-07-30T08:15:58.000Z</time>
      </trkpt>
      <trkpt lat="43.75224" lon="7.01687">
        <ele>937.79998779297</ele>
        <time>2023-07-30T08:15:59.000Z</time>
      </trkpt>
      <trkpt lat="43.75221" lon="7.01683">
        <ele>938</ele>
        <time>2023-07-30T08:16:00.000Z</time>
      </trkpt>
      <trkpt lat="43.75217" lon="7.01679">
        <ele>938</ele>
        <time>2023-07-30T08:16:01.000Z</time>
      </trkpt>
      <trkpt lat="43.75212" lon="7.01677">
        <ele>937.79998779297</ele>
        <time>2023-07-30T08:16:02.000Z</time>
      </trkpt>
      <trkpt lat="43.75208" lon="7.01673">
        <ele>937.79998779297</ele>
        <time>2023-07-30T08:16:03.000Z</time>
      </trkpt>
      <trkpt lat="43.75204" lon="7.01669">
        <ele>937.59997558594</ele>
        <time>2023-07-30T08:16:04.000Z</time>
      </trkpt>
      <trkpt lat="43.752" lon="7.01664">
        <ele>937.59997558594</ele>
        <time>2023-07-30T08:16:05.000Z</time>
      </trkpt>
      <trkpt lat="43.75197" lon="7.01659">
        <ele>937.20001220703</ele>
        <time>2023-07-30T08:16:06.000Z</time>
      </trkpt>
      <trkpt lat="43.75193" lon="7.01655">
        <ele>937.20001220703</ele>
        <time>2023-07-30T08:16:07.000Z</time>
      </trkpt>
      <trkpt lat="43.75189" lon="7.01651">
        <ele>937.20001220703</ele>
        <time>2023-07-30T08:16:08.000Z</time>
      </trkpt>
      <trkpt lat="43.75185" lon="7.01646">
        <ele>937.20001220703</ele>
        <time>2023-07-30T08:16:09.000Z</time>
      </trkpt>
      <trkpt lat="43.75181" lon="7.01642">
        <ele>937.20001220703</ele>
        <time>2023-07-30T08:16:10.000Z</time>
      </trkpt>
      <trkpt lat="43.75177" lon="7.01638">
        <ele>937</ele>
        <time>2023-07-30T08:16:11.000Z</time>
      </trkpt>
      <trkpt lat="43.75173" lon="7.01635">
        <ele>937</ele>
        <time>2023-07-30T08:16:12.000Z</time>
      </trkpt>
      <trkpt lat="43.75169" lon="7.01632">
        <ele>937</ele>
        <time>2023-07-30T08:16:13.000Z</time>
      </trkpt>
      <trkpt lat="43.75164" lon="7.01629">
        <ele>937</ele>
        <time>2023-07-30T08:16:14.000Z</time>
      </trkpt>
      <trkpt lat="43.75159" lon="7.01626">
        <ele>936.79998779297</ele>
        <time>2023-07-30T08:16:15.000Z</time>
      </trkpt>
      <trkpt lat="43.75155" lon="7.01624">
        <ele>936.79998779297</ele>
        <time>2023-07-30T08:16:16.000Z</time>
      </trkpt>
      <trkpt lat="43.7515" lon="7.01622">
        <ele>936.79998779297</ele>
        <time>2023-07-30T08:16:17.000Z</time>
      </trkpt>
      <trkpt lat="43.75145" lon="7.01619">
        <ele>936.79998779297</ele>
        <time>2023-07-30T08:16:18.000Z</time>
      </trkpt>
      <trkpt lat="43.75141" lon="7.01617">
        <ele>936.79998779297</ele>
        <time>2023-07-30T08:16:19.000Z</time>
      </trkpt>
      <trkpt lat="43.75136" lon="7.01615">
        <ele>936.79998779297</ele>
        <time>2023-07-30T08:16:20.000Z</time>
      </trkpt>
      <trkpt lat="43.75132" lon="7.01613">
        <ele>936.40002441406</ele>
        <time>2023-07-30T08:16:21.000Z</time>
      </trkpt>
      <trkpt lat="43.75128" lon="7.01611">
        <ele>936.40002441406</ele>
        <time>2023-07-30T08:16:22.000Z</time>
      </trkpt>
      <trkpt lat="43.75124" lon="7.0161">
        <ele>936.79998779297</ele>
        <time>2023-07-30T08:16:23.000Z</time>
      </trkpt>
      <trkpt lat="43.75121" lon="7.01608">
        <ele>936.79998779297</ele>
        <time>2023-07-30T08:16:24.000Z</time>
      </trkpt>
      <trkpt lat="43.75117" lon="7.01607">
        <ele>936.79998779297</ele>
        <time>2023-07-30T08:16:25.000Z</time>
      </trkpt>
      <trkpt lat="43.75114" lon="7.01606">
        <ele>936.79998779297</ele>
        <time>2023-07-30T08:16:26.000Z</time>
      </trkpt>
      <trkpt lat="43.75111" lon="7.01606">
        <ele>936.79998779297</ele>
        <time>2023-07-30T08:16:27.000Z</time>
      </trkpt>
      <trkpt lat="43.75108" lon="7.01604">
        <ele>936.79998779297</ele>
        <time>2023-07-30T08:16:28.000Z</time>
      </trkpt>
      <trkpt lat="43.75104" lon="7.01604">
        <ele>937</ele>
        <time>2023-07-30T08:16:29.000Z</time>
      </trkpt>
      <trkpt lat="43.75101" lon="7.01606">
        <ele>937</ele>
        <time>2023-07-30T08:16:30.000Z</time>
      </trkpt>
      <trkpt lat="43.75099" lon="7.01609">
        <ele>936.79998779297</ele>
        <time>2023-07-30T08:16:31.000Z</time>
      </trkpt>
      <trkpt lat="43.75098" lon="7.01611">
        <ele>936.79998779297</ele>
        <time>2023-07-30T08:16:32.000Z</time>
      </trkpt>
      <trkpt lat="43.75096" lon="7.01614">
        <ele>936.79998779297</ele>
        <time>2023-07-30T08:16:33.000Z</time>
      </trkpt>
      <trkpt lat="43.75095" lon="7.01616">
        <ele>936.59997558594</ele>
        <time>2023-07-30T08:16:34.000Z</time>
      </trkpt>
      <trkpt lat="43.75093" lon="7.01618">
        <ele>936.20001220703</ele>
        <time>2023-07-30T08:16:35.000Z</time>
      </trkpt>
      <trkpt lat="43.75092" lon="7.01621">
        <ele>936.20001220703</ele>
        <time>2023-07-30T08:16:36.000Z</time>
      </trkpt>
      <trkpt lat="43.75089" lon="7.01624">
        <ele>935.59997558594</ele>
        <time>2023-07-30T08:16:37.000Z</time>
      </trkpt>
      <trkpt lat="43.75087" lon="7.01625">
        <ele>935</ele>
        <time>2023-07-30T08:16:38.000Z</time>
      </trkpt>
      <trkpt lat="43.75083" lon="7.01626">
        <ele>934.40002441406</ele>
        <time>2023-07-30T08:16:39.000Z</time>
      </trkpt>
      <trkpt lat="43.75081" lon="7.01627">
        <ele>934</ele>
        <time>2023-07-30T08:16:40.000Z</time>
      </trkpt>
      <trkpt lat="43.75077" lon="7.01628">
        <ele>933.40002441406</ele>
        <time>2023-07-30T08:16:41.000Z</time>
      </trkpt>
      <trkpt lat="43.75076" lon="7.01627">
        <ele>932.79998779297</ele>
        <time>2023-07-30T08:16:42.000Z</time>
      </trkpt>
      <trkpt lat="43.75073" lon="7.01625">
        <ele>932.40002441406</ele>
        <time>2023-07-30T08:16:43.000Z</time>
      </trkpt>
      <trkpt lat="43.7507" lon="7.01624">
        <ele>931.40002441406</ele>
        <time>2023-07-30T08:16:44.000Z</time>
      </trkpt>
      <trkpt lat="43.75066" lon="7.01624">
        <ele>931</ele>
        <time>2023-07-30T08:16:45.000Z</time>
      </trkpt>
      <trkpt lat="43.75062" lon="7.01623">
        <ele>931</ele>
        <time>2023-07-30T08:16:46.000Z</time>
      </trkpt>
      <trkpt lat="43.75057" lon="7.01623">
        <ele>929.79998779297</ele>
        <time>2023-07-30T08:16:47.000Z</time>
      </trkpt>
      <trkpt lat="43.75052" lon="7.01622">
        <ele>929.20001220703</ele>
        <time>2023-07-30T08:16:48.000Z</time>
      </trkpt>
      <trkpt lat="43.75048" lon="7.01621">
        <ele>928.79998779297</ele>
        <time>2023-07-30T08:16:49.000Z</time>
      </trkpt>
      <trkpt lat="43.75044" lon="7.01621">
        <ele>928.59997558594</ele>
        <time>2023-07-30T08:16:50.000Z</time>
      </trkpt>
      <trkpt lat="43.75041" lon="7.01621">
        <ele>928.59997558594</ele>
        <time>2023-07-30T08:16:51.000Z</time>
      </trkpt>
      <trkpt lat="43.75038" lon="7.0162">
        <ele>927.20001220703</ele>
        <time>2023-07-30T08:16:52.000Z</time>
      </trkpt>
      <trkpt lat="43.75035" lon="7.01619">
        <ele>926.40002441406</ele>
        <time>2023-07-30T08:16:53.000Z</time>
      </trkpt>
      <trkpt lat="43.75031" lon="7.01619">
        <ele>925.40002441406</ele>
        <time>2023-07-30T08:16:54.000Z</time>
      </trkpt>
      <trkpt lat="43.75028" lon="7.01618">
        <ele>925</ele>
        <time>2023-07-30T08:16:55.000Z</time>
      </trkpt>
      <trkpt lat="43.75024" lon="7.01618">
        <ele>924.20001220703</ele>
        <time>2023-07-30T08:16:56.000Z</time>
      </trkpt>
      <trkpt lat="43.7502" lon="7.01617">
        <ele>923.59997558594</ele>
        <time>2023-07-30T08:16:57.000Z</time>
      </trkpt>
      <trkpt lat="43.75017" lon="7.01617">
        <ele>923.20001220703</ele>
        <time>2023-07-30T08:16:58.000Z</time>
      </trkpt>
      <trkpt lat="43.75015" lon="7.01617">
        <ele>923</ele>
        <time>2023-07-30T08:16:59.000Z</time>
      </trkpt>
      <trkpt lat="43.75012" lon="7.01617">
        <ele>922.79998779297</ele>
        <time>2023-07-30T08:17:00.000Z</time>
      </trkpt>
      <trkpt lat="43.7501" lon="7.01617">
        <ele>922.20001220703</ele>
        <time>2023-07-30T08:17:01.000Z</time>
      </trkpt>
      <trkpt lat="43.75007" lon="7.01616">
        <ele>922.20001220703</ele>
        <time>2023-07-30T08:17:02.000Z</time>
      </trkpt>
      <trkpt lat="43.75005" lon="7.01615">
        <ele>922</ele>
        <time>2023-07-30T08:17:03.000Z</time>
      </trkpt>
      <trkpt lat="43.75003" lon="7.01613">
        <ele>921.79998779297</ele>
        <time>2023-07-30T08:17:04.000Z</time>
      </trkpt>
      <trkpt lat="43.75001" lon="7.01613">
        <ele>921.59997558594</ele>
        <time>2023-07-30T08:17:05.000Z</time>
      </trkpt>
      <trkpt lat="43.74998" lon="7.01613">
        <ele>920.59997558594</ele>
        <time>2023-07-30T08:17:06.000Z</time>
      </trkpt>
      <trkpt lat="43.74995" lon="7.01612">
        <ele>920.40002441406</ele>
        <time>2023-07-30T08:17:07.000Z</time>
      </trkpt>
      <trkpt lat="43.74992" lon="7.01612">
        <ele>920.20001220703</ele>
        <time>2023-07-30T08:17:08.000Z</time>
      </trkpt>
      <trkpt lat="43.74989" lon="7.0161">
        <ele>919.79998779297</ele>
        <time>2023-07-30T08:17:09.000Z</time>
      </trkpt>
      <trkpt lat="43.74987" lon="7.01609">
        <ele>919.40002441406</ele>
        <time>2023-07-30T08:17:10.000Z</time>
      </trkpt>
      <trkpt lat="43.74986" lon="7.01609">
        <ele>919</ele>
        <time>2023-07-30T08:17:11.000Z</time>
      </trkpt>
      <trkpt lat="43.74985" lon="7.0161">
        <ele>918.20001220703</ele>
        <time>2023-07-30T08:17:12.000Z</time>
      </trkpt>
      <trkpt lat="43.74985" lon="7.0161">
        <ele>918.20001220703</ele>
        <time>2023-07-30T08:17:13.000Z</time>
      </trkpt>
      <trkpt lat="43.74985" lon="7.01611">
        <ele>917.40002441406</ele>
        <time>2023-07-30T08:17:14.000Z</time>
      </trkpt>
      <trkpt lat="43.74985" lon="7.0161">
        <ele>917.20001220703</ele>
        <time>2023-07-30T08:17:15.000Z</time>
      </trkpt>
      <trkpt lat="43.74985" lon="7.01611">
        <ele>917.20001220703</ele>
        <time>2023-07-30T08:17:16.000Z</time>
      </trkpt>
      <trkpt lat="43.74985" lon="7.01611">
        <ele>917.20001220703</ele>
        <time>2023-07-30T08:17:17.000Z</time>
      </trkpt>
      <trkpt lat="43.74985" lon="7.01611">
        <ele>917</ele>
        <time>2023-07-30T08:17:18.000Z</time>
      </trkpt>
      <trkpt lat="43.74985" lon="7.01611">
        <ele>917</ele>
        <time>2023-07-30T08:17:19.000Z</time>
      </trkpt>
      <trkpt lat="43.74985" lon="7.01611">
        <ele>916.79998779297</ele>
        <time>2023-07-30T08:17:20.000Z</time>
      </trkpt>
      <trkpt lat="43.74985" lon="7.01611">
        <ele>916.79998779297</ele>
        <time>2023-07-30T08:17:21.000Z</time>
      </trkpt>
      <trkpt lat="43.74985" lon="7.01611">
        <ele>916.79998779297</ele>
        <time>2023-07-30T08:17:22.000Z</time>
      </trkpt>
      <trkpt lat="43.74985" lon="7.01611">
        <ele>916.79998779297</ele>
        <time>2023-07-30T08:17:23.000Z</time>
      </trkpt>
      <trkpt lat="43.74985" lon="7.01611">
        <ele>916.79998779297</ele>
        <time>2023-07-30T08:17:24.000Z</time>
      </trkpt>
      <trkpt lat="43.74985" lon="7.01611">
        <ele>916.79998779297</ele>
        <time>2023-07-30T08:17:25.000Z</time>
      </trkpt>
      <trkpt lat="43.74985" lon="7.01611">
        <ele>916.79998779297</ele>
        <time>2023-07-30T08:17:26.000Z</time>
      </trkpt>
      <trkpt lat="43.74985" lon="7.01611">
        <ele>916.79998779297</ele>
        <time>2023-07-30T08:17:27.000Z</time>
      </trkpt>
      <trkpt lat="43.74985" lon="7.01611">
        <ele>916.79998779297</ele>
        <time>2023-07-30T08:17:28.000Z</time>
      </trkpt>
      <trkpt lat="43.74985" lon="7.01611">
        <ele>916.79998779297</ele>
        <time>2023-07-30T08:17:29.000Z</time>
      </trkpt>
      <trkpt lat="43.74985" lon="7.01611">
        <ele>916.79998779297</ele>
        <time>2023-07-30T08:17:30.000Z</time>
      </trkpt>
      <trkpt lat="43.74985" lon="7.0161">
        <ele>916.79998779297</ele>
        <time>2023-07-30T08:17:31.000Z</time>
      </trkpt>
      <trkpt lat="43.74984" lon="7.0161">
        <ele>916.59997558594</ele>
        <time>2023-07-30T08:17:32.000Z</time>
      </trkpt>
      <trkpt lat="43.74984" lon="7.0161">
        <ele>916.59997558594</ele>
        <time>2023-07-30T08:17:33.000Z</time>
      </trkpt>
      <trkpt lat="43.74984" lon="7.0161">
        <ele>916.59997558594</ele>
        <time>2023-07-30T08:17:34.000Z</time>
      </trkpt>
      <trkpt lat="43.74984" lon="7.0161">
        <ele>916.59997558594</ele>
        <time>2023-07-30T08:17:35.000Z</time>
      </trkpt>
      <trkpt lat="43.74983" lon="7.01611">
        <ele>916.59997558594</ele>
        <time>2023-07-30T08:17:36.000Z</time>
      </trkpt>
      <trkpt lat="43.74983" lon="7.01611">
        <ele>916.59997558594</ele>
        <time>2023-07-30T08:17:37.000Z</time>
      </trkpt>
      <trkpt lat="43.74982" lon="7.01612">
        <ele>916.59997558594</ele>
        <time>2023-07-30T08:17:38.000Z</time>
      </trkpt>
      <trkpt lat="43.74981" lon="7.01612">
        <ele>916.59997558594</ele>
        <time>2023-07-30T08:17:39.000Z</time>
      </trkpt>
      <trkpt lat="43.74981" lon="7.01612">
        <ele>916.40002441406</ele>
        <time>2023-07-30T08:17:40.000Z</time>
      </trkpt>
      <trkpt lat="43.74981" lon="7.01613">
        <ele>916.40002441406</ele>
        <time>2023-07-30T08:17:41.000Z</time>
      </trkpt>
      <trkpt lat="43.74981" lon="7.01612">
        <ele>916.40002441406</ele>
        <time>2023-07-30T08:17:42.000Z</time>
      </trkpt>
      <trkpt lat="43.74981" lon="7.01612">
        <ele>916.40002441406</ele>
        <time>2023-07-30T08:17:43.000Z</time>
      </trkpt>
      <trkpt lat="43.74981" lon="7.01612">
        <ele>916.40002441406</ele>
        <time>2023-07-30T08:17:44.000Z</time>
      </trkpt>
      <trkpt lat="43.74981" lon="7.01612">
        <ele>916.40002441406</ele>
        <time>2023-07-30T08:17:45.000Z</time>
      </trkpt>
      <trkpt lat="43.74981" lon="7.01612">
        <ele>916.40002441406</ele>
        <time>2023-07-30T08:17:46.000Z</time>
      </trkpt>
      <trkpt lat="43.74981" lon="7.01612">
        <ele>916.40002441406</ele>
        <time>2023-07-30T08:17:47.000Z</time>
      </trkpt>
      <trkpt lat="43.74981" lon="7.01612">
        <ele>916.40002441406</ele>
        <time>2023-07-30T08:17:48.000Z</time>
      </trkpt>
      <trkpt lat="43.74981" lon="7.01612">
        <ele>916.40002441406</ele>
        <time>2023-07-30T08:17:49.000Z</time>
      </trkpt>
      <trkpt lat="43.74981" lon="7.01612">
        <ele>916.40002441406</ele>
        <time>2023-07-30T08:17:50.000Z</time>
      </trkpt>
      <trkpt lat="43.74981" lon="7.01612">
        <ele>916.40002441406</ele>
        <time>2023-07-30T08:17:51.000Z</time>
      </trkpt>
      <trkpt lat="43.74981" lon="7.01612">
        <ele>916.40002441406</ele>
        <time>2023-07-30T08:17:52.000Z</time>
      </trkpt>
      <trkpt lat="43.74981" lon="7.01612">
        <ele>916.40002441406</ele>
        <time>2023-07-30T08:17:53.000Z</time>
      </trkpt>
      <trkpt lat="43.74981" lon="7.01612">
        <ele>916.40002441406</ele>
        <time>2023-07-30T08:17:54.000Z</time>
      </trkpt>
      <trkpt lat="43.74981" lon="7.01612">
        <ele>916.40002441406</ele>
        <time>2023-07-30T08:17:55.000Z</time>
      </trkpt>
      <trkpt lat="43.74981" lon="7.01612">
        <ele>916.40002441406</ele>
        <time>2023-07-30T08:17:56.000Z</time>
      </trkpt>
      <trkpt lat="43.74981" lon="7.01612">
        <ele>916.40002441406</ele>
        <time>2023-07-30T08:17:57.000Z</time>
      </trkpt>
      <trkpt lat="43.74981" lon="7.01612">
        <ele>916.40002441406</ele>
        <time>2023-07-30T08:17:58.000Z</time>
      </trkpt>
      <trkpt lat="43.74981" lon="7.01612">
        <ele>916.40002441406</ele>
        <time>2023-07-30T08:17:59.000Z</time>
      </trkpt>
      <trkpt lat="43.74981" lon="7.01612">
        <ele>916.40002441406</ele>
        <time>2023-07-30T08:18:00.000Z</time>
      </trkpt>
      <trkpt lat="43.74981" lon="7.01612">
        <ele>916.40002441406</ele>
        <time>2023-07-30T08:18:01.000Z</time>
      </trkpt>
      <trkpt lat="43.74981" lon="7.01612">
        <ele>916.40002441406</ele>
        <time>2023-07-30T08:18:02.000Z</time>
      </trkpt>
      <trkpt lat="43.74981" lon="7.01612">
        <ele>916.40002441406</ele>
        <time>2023-07-30T08:18:03.000Z</time>
      </trkpt>
      <trkpt lat="43.74981" lon="7.01612">
        <ele>916.40002441406</ele>
        <time>2023-07-30T08:18:04.000Z</time>
      </trkpt>
      <trkpt lat="43.74981" lon="7.01612">
        <ele>916.40002441406</ele>
        <time>2023-07-30T08:18:05.000Z</time>
      </trkpt>
      <trkpt lat="43.74981" lon="7.01612">
        <ele>916.40002441406</ele>
        <time>2023-07-30T08:18:06.000Z</time>
      </trkpt>
      <trkpt lat="43.74981" lon="7.01612">
        <ele>916.40002441406</ele>
        <time>2023-07-30T08:18:07.000Z</time>
      </trkpt>
      <trkpt lat="43.74981" lon="7.01612">
        <ele>916.40002441406</ele>
        <time>2023-07-30T08:18:08.000Z</time>
      </trkpt>
      <trkpt lat="43.74981" lon="7.01612">
        <ele>916.40002441406</ele>
        <time>2023-07-30T08:18:09.000Z</time>
      </trkpt>
      <trkpt lat="43.74981" lon="7.01612">
        <ele>916.40002441406</ele>
        <time>2023-07-30T08:18:10.000Z</time>
      </trkpt>
      <trkpt lat="43.74981" lon="7.01612">
        <ele>916.40002441406</ele>
        <time>2023-07-30T08:18:11.000Z</time>
      </trkpt>
      <trkpt lat="43.74981" lon="7.01612">
        <ele>916.40002441406</ele>
        <time>2023-07-30T08:18:12.000Z</time>
      </trkpt>
      <trkpt lat="43.74981" lon="7.01612">
        <ele>916.40002441406</ele>
        <time>2023-07-30T08:18:13.000Z</time>
      </trkpt>
      <trkpt lat="43.74981" lon="7.01612">
        <ele>916.40002441406</ele>
        <time>2023-07-30T08:18:14.000Z</time>
      </trkpt>
      <trkpt lat="43.74981" lon="7.01612">
        <ele>916.40002441406</ele>
        <time>2023-07-30T08:18:15.000Z</time>
      </trkpt>
      <trkpt lat="43.74981" lon="7.01612">
        <ele>916.40002441406</ele>
        <time>2023-07-30T08:18:16.000Z</time>
      </trkpt>
      <trkpt lat="43.74981" lon="7.01612">
        <ele>916.40002441406</ele>
        <time>2023-07-30T08:18:17.000Z</time>
      </trkpt>
      <trkpt lat="43.74981" lon="7.01612">
        <ele>916.40002441406</ele>
        <time>2023-07-30T08:18:18.000Z</time>
      </trkpt>
      <trkpt lat="43.74981" lon="7.01612">
        <ele>916.40002441406</ele>
        <time>2023-07-30T08:18:19.000Z</time>
      </trkpt>
      <trkpt lat="43.74981" lon="7.01612">
        <ele>916.40002441406</ele>
        <time>2023-07-30T08:18:20.000Z</time>
      </trkpt>
      <trkpt lat="43.74981" lon="7.01612">
        <ele>916.40002441406</ele>
        <time>2023-07-30T08:18:21.000Z</time>
      </trkpt>
      <trkpt lat="43.74981" lon="7.01612">
        <ele>916.40002441406</ele>
        <time>2023-07-30T08:18:22.000Z</time>
      </trkpt>
      <trkpt lat="43.74981" lon="7.01612">
        <ele>916.40002441406</ele>
        <time>2023-07-30T08:18:23.000Z</time>
      </trkpt>
      <trkpt lat="43.74981" lon="7.01612">
        <ele>916.40002441406</ele>
        <time>2023-07-30T08:18:24.000Z</time>
      </trkpt>
      <trkpt lat="43.74981" lon="7.01612">
        <ele>916.40002441406</ele>
        <time>2023-07-30T08:18:25.000Z</time>
      </trkpt>
      <trkpt lat="43.74981" lon="7.01612">
        <ele>916.40002441406</ele>
        <time>2023-07-30T08:18:26.000Z</time>
      </trkpt>
      <trkpt lat="43.74981" lon="7.01612">
        <ele>916.59997558594</ele>
        <time>2023-07-30T08:18:27.000Z</time>
      </trkpt>
      <trkpt lat="43.74981" lon="7.01612">
        <ele>916.59997558594</ele>
        <time>2023-07-30T08:18:28.000Z</time>
      </trkpt>
      <trkpt lat="43.74981" lon="7.01612">
        <ele>916.59997558594</ele>
        <time>2023-07-30T08:18:29.000Z</time>
      </trkpt>
      <trkpt lat="43.74981" lon="7.01612">
        <ele>916.79998779297</ele>
        <time>2023-07-30T08:18:30.000Z</time>
      </trkpt>
      <trkpt lat="43.74981" lon="7.01612">
        <ele>916.79998779297</ele>
        <time>2023-07-30T08:18:31.000Z</time>
      </trkpt>
      <trkpt lat="43.74981" lon="7.01612">
        <ele>916.79998779297</ele>
        <time>2023-07-30T08:18:32.000Z</time>
      </trkpt>
      <trkpt lat="43.74981" lon="7.01612">
        <ele>916.79998779297</ele>
        <time>2023-07-30T08:18:33.000Z</time>
      </trkpt>
      <trkpt lat="43.74981" lon="7.01612">
        <ele>916.79998779297</ele>
        <time>2023-07-30T08:18:34.000Z</time>
      </trkpt>
      <trkpt lat="43.74981" lon="7.01612">
        <ele>916.79998779297</ele>
        <time>2023-07-30T08:18:35.000Z</time>
      </trkpt>
      <trkpt lat="43.74981" lon="7.01612">
        <ele>916.79998779297</ele>
        <time>2023-07-30T08:18:36.000Z</time>
      </trkpt>
      <trkpt lat="43.74981" lon="7.01612">
        <ele>916.79998779297</ele>
        <time>2023-07-30T08:18:37.000Z</time>
      </trkpt>
      <trkpt lat="43.74981" lon="7.01612">
        <ele>916.79998779297</ele>
        <time>2023-07-30T08:18:38.000Z</time>
      </trkpt>
      <trkpt lat="43.74981" lon="7.01612">
        <ele>916.79998779297</ele>
        <time>2023-07-30T08:18:39.000Z</time>
      </trkpt>
      <trkpt lat="43.74981" lon="7.01612">
        <ele>916.79998779297</ele>
        <time>2023-07-30T08:18:40.000Z</time>
      </trkpt>
      <trkpt lat="43.74981" lon="7.01612">
        <ele>916.79998779297</ele>
        <time>2023-07-30T08:18:41.000Z</time>
      </trkpt>
      <trkpt lat="43.74981" lon="7.01612">
        <ele>916.79998779297</ele>
        <time>2023-07-30T08:18:42.000Z</time>
      </trkpt>
      <trkpt lat="43.74981" lon="7.01612">
        <ele>916.79998779297</ele>
        <time>2023-07-30T08:18:43.000Z</time>
      </trkpt>
      <trkpt lat="43.74981" lon="7.01612">
        <ele>916.79998779297</ele>
        <time>2023-07-30T08:18:44.000Z</time>
      </trkpt>
      <trkpt lat="43.74981" lon="7.01612">
        <ele>916.79998779297</ele>
        <time>2023-07-30T08:18:45.000Z</time>
      </trkpt>
      <trkpt lat="43.74981" lon="7.01612">
        <ele>916.79998779297</ele>
        <time>2023-07-30T08:18:46.000Z</time>
      </trkpt>
      <trkpt lat="43.74981" lon="7.01612">
        <ele>916.79998779297</ele>
        <time>2023-07-30T08:18:47.000Z</time>
      </trkpt>
      <trkpt lat="43.74981" lon="7.01612">
        <ele>916.79998779297</ele>
        <time>2023-07-30T08:18:48.000Z</time>
      </trkpt>
      <trkpt lat="43.74981" lon="7.01612">
        <ele>916.79998779297</ele>
        <time>2023-07-30T08:18:49.000Z</time>
      </trkpt>
      <trkpt lat="43.74981" lon="7.01612">
        <ele>916.79998779297</ele>
        <time>2023-07-30T08:18:50.000Z</time>
      </trkpt>
      <trkpt lat="43.74981" lon="7.01612">
        <ele>916.79998779297</ele>
        <time>2023-07-30T08:18:51.000Z</time>
      </trkpt>
      <trkpt lat="43.74981" lon="7.01612">
        <ele>916.79998779297</ele>
        <time>2023-07-30T08:18:52.000Z</time>
      </trkpt>
      <trkpt lat="43.74981" lon="7.01612">
        <ele>916.79998779297</ele>
        <time>2023-07-30T08:18:53.000Z</time>
      </trkpt>
      <trkpt lat="43.74981" lon="7.01612">
        <ele>916.79998779297</ele>
        <time>2023-07-30T08:18:54.000Z</time>
      </trkpt>
      <trkpt lat="43.74981" lon="7.01612">
        <ele>916.79998779297</ele>
        <time>2023-07-30T08:18:55.000Z</time>
      </trkpt>
      <trkpt lat="43.74981" lon="7.01612">
        <ele>916.79998779297</ele>
        <time>2023-07-30T08:18:56.000Z</time>
      </trkpt>
      <trkpt lat="43.74981" lon="7.01612">
        <ele>916.79998779297</ele>
        <time>2023-07-30T08:18:57.000Z</time>
      </trkpt>
      <trkpt lat="43.74981" lon="7.01612">
        <ele>916.79998779297</ele>
        <time>2023-07-30T08:18:58.000Z</time>
      </trkpt>
      <trkpt lat="43.74981" lon="7.01612">
        <ele>916.79998779297</ele>
        <time>2023-07-30T08:18:59.000Z</time>
      </trkpt>
      <trkpt lat="43.74981" lon="7.01612">
        <ele>916.79998779297</ele>
        <time>2023-07-30T08:19:00.000Z</time>
      </trkpt>
      <trkpt lat="43.74981" lon="7.01612">
        <ele>916.79998779297</ele>
        <time>2023-07-30T08:19:01.000Z</time>
      </trkpt>
      <trkpt lat="43.74981" lon="7.01612">
        <ele>916.79998779297</ele>
        <time>2023-07-30T08:19:02.000Z</time>
      </trkpt>
      <trkpt lat="43.74981" lon="7.01612">
        <ele>916.79998779297</ele>
        <time>2023-07-30T08:19:03.000Z</time>
      </trkpt>
      <trkpt lat="43.74981" lon="7.01612">
        <ele>916.79998779297</ele>
        <time>2023-07-30T08:19:04.000Z</time>
      </trkpt>
      <trkpt lat="43.74981" lon="7.01612">
        <ele>916.79998779297</ele>
        <time>2023-07-30T08:19:05.000Z</time>
      </trkpt>
      <trkpt lat="43.74981" lon="7.01612">
        <ele>916.79998779297</ele>
        <time>2023-07-30T08:19:06.000Z</time>
      </trkpt>
      <trkpt lat="43.74981" lon="7.01612">
        <ele>916.79998779297</ele>
        <time>2023-07-30T08:19:07.000Z</time>
      </trkpt>
      <trkpt lat="43.74981" lon="7.01612">
        <ele>916.79998779297</ele>
        <time>2023-07-30T08:19:08.000Z</time>
      </trkpt>
      <trkpt lat="43.74981" lon="7.01612">
        <ele>916.79998779297</ele>
        <time>2023-07-30T08:19:09.000Z</time>
      </trkpt>
      <trkpt lat="43.74981" lon="7.01612">
        <ele>916.59997558594</ele>
        <time>2023-07-30T08:19:10.000Z</time>
      </trkpt>
      <trkpt lat="43.74981" lon="7.01612">
        <ele>916.59997558594</ele>
        <time>2023-07-30T08:19:11.000Z</time>
      </trkpt>
      <trkpt lat="43.74981" lon="7.01612">
        <ele>916.59997558594</ele>
        <time>2023-07-30T08:19:12.000Z</time>
      </trkpt>
      <trkpt lat="43.74981" lon="7.01612">
        <ele>916.59997558594</ele>
        <time>2023-07-30T08:19:13.000Z</time>
      </trkpt>
      <trkpt lat="43.74981" lon="7.01612">
        <ele>916.59997558594</ele>
        <time>2023-07-30T08:19:14.000Z</time>
      </trkpt>
      <trkpt lat="43.74981" lon="7.01612">
        <ele>916.59997558594</ele>
        <time>2023-07-30T08:19:15.000Z</time>
      </trkpt>
      <trkpt lat="43.74981" lon="7.01612">
        <ele>916.79998779297</ele>
        <time>2023-07-30T08:19:16.000Z</time>
      </trkpt>
      <trkpt lat="43.74981" lon="7.01612">
        <ele>916.79998779297</ele>
        <time>2023-07-30T08:19:17.000Z</time>
      </trkpt>
      <trkpt lat="43.74981" lon="7.01612">
        <ele>916.79998779297</ele>
        <time>2023-07-30T08:19:18.000Z</time>
      </trkpt>
      <trkpt lat="43.74981" lon="7.01612">
        <ele>916.79998779297</ele>
        <time>2023-07-30T08:19:19.000Z</time>
      </trkpt>
      <trkpt lat="43.74981" lon="7.01612">
        <ele>916.79998779297</ele>
        <time>2023-07-30T08:19:20.000Z</time>
      </trkpt>
      <trkpt lat="43.74981" lon="7.01612">
        <ele>916.79998779297</ele>
        <time>2023-07-30T08:19:21.000Z</time>
      </trkpt>
      <trkpt lat="43.74981" lon="7.01612">
        <ele>916.79998779297</ele>
        <time>2023-07-30T08:19:22.000Z</time>
      </trkpt>
      <trkpt lat="43.74981" lon="7.01612">
        <ele>916.79998779297</ele>
        <time>2023-07-30T08:19:23.000Z</time>
      </trkpt>
      <trkpt lat="43.74981" lon="7.01612">
        <ele>916.79998779297</ele>
        <time>2023-07-30T08:19:24.000Z</time>
      </trkpt>
      <trkpt lat="43.74981" lon="7.01612">
        <ele>916.79998779297</ele>
        <time>2023-07-30T08:19:25.000Z</time>
      </trkpt>
      <trkpt lat="43.74981" lon="7.01612">
        <ele>916.79998779297</ele>
        <time>2023-07-30T08:19:26.000Z</time>
      </trkpt>
      <trkpt lat="43.74981" lon="7.01612">
        <ele>916.79998779297</ele>
        <time>2023-07-30T08:19:27.000Z</time>
      </trkpt>
      <trkpt lat="43.74981" lon="7.01612">
        <ele>916.79998779297</ele>
        <time>2023-07-30T08:19:28.000Z</time>
      </trkpt>
      <trkpt lat="43.74981" lon="7.01612">
        <ele>916.79998779297</ele>
        <time>2023-07-30T08:19:29.000Z</time>
      </trkpt>
      <trkpt lat="43.74981" lon="7.01612">
        <ele>916.79998779297</ele>
        <time>2023-07-30T08:19:30.000Z</time>
      </trkpt>
      <trkpt lat="43.74981" lon="7.01612">
        <ele>916.79998779297</ele>
        <time>2023-07-30T08:19:31.000Z</time>
      </trkpt>
      <trkpt lat="43.74981" lon="7.01612">
        <ele>916.79998779297</ele>
        <time>2023-07-30T08:19:32.000Z</time>
      </trkpt>
      <trkpt lat="43.74981" lon="7.01612">
        <ele>916.79998779297</ele>
        <time>2023-07-30T08:19:33.000Z</time>
      </trkpt>
      <trkpt lat="43.74981" lon="7.01612">
        <ele>916.79998779297</ele>
        <time>2023-07-30T08:19:34.000Z</time>
      </trkpt>
      <trkpt lat="43.74981" lon="7.01612">
        <ele>916.79998779297</ele>
        <time>2023-07-30T08:19:35.000Z</time>
      </trkpt>
      <trkpt lat="43.74981" lon="7.01612">
        <ele>916.79998779297</ele>
        <time>2023-07-30T08:19:36.000Z</time>
      </trkpt>
      <trkpt lat="43.74981" lon="7.01612">
        <ele>916.79998779297</ele>
        <time>2023-07-30T08:19:37.000Z</time>
      </trkpt>
      <trkpt lat="43.74981" lon="7.01612">
        <ele>916.79998779297</ele>
        <time>2023-07-30T08:19:38.000Z</time>
      </trkpt>
      <trkpt lat="43.74981" lon="7.01612">
        <ele>916.79998779297</ele>
        <time>2023-07-30T08:19:39.000Z</time>
      </trkpt>
      <trkpt lat="43.74981" lon="7.01612">
        <ele>916.79998779297</ele>
        <time>2023-07-30T08:19:40.000Z</time>
      </trkpt>
      <trkpt lat="43.74981" lon="7.01612">
        <ele>916.79998779297</ele>
        <time>2023-07-30T08:19:41.000Z</time>
      </trkpt>
      <trkpt lat="43.74981" lon="7.01612">
        <ele>916.79998779297</ele>
        <time>2023-07-30T08:19:42.000Z</time>
      </trkpt>
      <trkpt lat="43.74981" lon="7.01612">
        <ele>916.79998779297</ele>
        <time>2023-07-30T08:19:43.000Z</time>
      </trkpt>
      <trkpt lat="43.7498" lon="7.01612">
        <ele>916.79998779297</ele>
        <time>2023-07-30T08:19:44.000Z</time>
      </trkpt>
      <trkpt lat="43.7498" lon="7.01612">
        <ele>916.79998779297</ele>
        <time>2023-07-30T08:19:45.000Z</time>
      </trkpt>
      <trkpt lat="43.7498" lon="7.01612">
        <ele>916.79998779297</ele>
        <time>2023-07-30T08:19:46.000Z</time>
      </trkpt>
      <trkpt lat="43.7498" lon="7.01612">
        <ele>916.79998779297</ele>
        <time>2023-07-30T08:19:47.000Z</time>
      </trkpt>
      <trkpt lat="43.7498" lon="7.01612">
        <ele>916.79998779297</ele>
        <time>2023-07-30T08:19:48.000Z</time>
      </trkpt>
      <trkpt lat="43.7498" lon="7.01612">
        <ele>916.79998779297</ele>
        <time>2023-07-30T08:19:49.000Z</time>
      </trkpt>
      <trkpt lat="43.7498" lon="7.01612">
        <ele>916.79998779297</ele>
        <time>2023-07-30T08:19:50.000Z</time>
      </trkpt>
      <trkpt lat="43.7498" lon="7.01612">
        <ele>916.79998779297</ele>
        <time>2023-07-30T08:19:51.000Z</time>
      </trkpt>
      <trkpt lat="43.7498" lon="7.01612">
        <ele>916.79998779297</ele>
        <time>2023-07-30T08:19:52.000Z</time>
      </trkpt>
      <trkpt lat="43.7498" lon="7.01612">
        <ele>916.79998779297</ele>
        <time>2023-07-30T08:19:53.000Z</time>
      </trkpt>
      <trkpt lat="43.7498" lon="7.01612">
        <ele>916.79998779297</ele>
        <time>2023-07-30T08:19:54.000Z</time>
      </trkpt>
      <trkpt lat="43.7498" lon="7.01612">
        <ele>916.79998779297</ele>
        <time>2023-07-30T08:19:55.000Z</time>
      </trkpt>
      <trkpt lat="43.7498" lon="7.01612">
        <ele>916.79998779297</ele>
        <time>2023-07-30T08:19:56.000Z</time>
      </trkpt>
      <trkpt lat="43.7498" lon="7.01612">
        <ele>916.79998779297</ele>
        <time>2023-07-30T08:19:57.000Z</time>
      </trkpt>
      <trkpt lat="43.7498" lon="7.01612">
        <ele>916.79998779297</ele>
        <time>2023-07-30T08:19:58.000Z</time>
      </trkpt>
      <trkpt lat="43.7498" lon="7.01612">
        <ele>916.79998779297</ele>
        <time>2023-07-30T08:19:59.000Z</time>
      </trkpt>
      <trkpt lat="43.7498" lon="7.01612">
        <ele>916.79998779297</ele>
        <time>2023-07-30T08:20:00.000Z</time>
      </trkpt>
      <trkpt lat="43.74981" lon="7.01611">
        <ele>916.79998779297</ele>
        <time>2023-07-30T08:20:01.000Z</time>
      </trkpt>
      <trkpt lat="43.74981" lon="7.01611">
        <ele>916.79998779297</ele>
        <time>2023-07-30T08:20:02.000Z</time>
      </trkpt>
      <trkpt lat="43.7498" lon="7.01611">
        <ele>916.79998779297</ele>
        <time>2023-07-30T08:20:03.000Z</time>
      </trkpt>
      <trkpt lat="43.74981" lon="7.01612">
        <ele>916.79998779297</ele>
        <time>2023-07-30T08:20:04.000Z</time>
      </trkpt>
      <trkpt lat="43.74981" lon="7.01612">
        <ele>916.79998779297</ele>
        <time>2023-07-30T08:20:05.000Z</time>
      </trkpt>
      <trkpt lat="43.7498" lon="7.01612">
        <ele>916.79998779297</ele>
        <time>2023-07-30T08:20:06.000Z</time>
      </trkpt>
      <trkpt lat="43.74979" lon="7.01611">
        <ele>916.79998779297</ele>
        <time>2023-07-30T08:20:07.000Z</time>
      </trkpt>
      <trkpt lat="43.74979" lon="7.0161">
        <ele>916.79998779297</ele>
        <time>2023-07-30T08:20:08.000Z</time>
      </trkpt>
      <trkpt lat="43.74977" lon="7.01609">
        <ele>916.79998779297</ele>
        <time>2023-07-30T08:20:09.000Z</time>
      </trkpt>
      <trkpt lat="43.74975" lon="7.01608">
        <ele>916.79998779297</ele>
        <time>2023-07-30T08:20:10.000Z</time>
      </trkpt>
      <trkpt lat="43.74973" lon="7.01607">
        <ele>916.79998779297</ele>
        <time>2023-07-30T08:20:11.000Z</time>
      </trkpt>
      <trkpt lat="43.74971" lon="7.01606">
        <ele>915.40002441406</ele>
        <time>2023-07-30T08:20:12.000Z</time>
      </trkpt>
      <trkpt lat="43.7497" lon="7.01606">
        <ele>915.20001220703</ele>
        <time>2023-07-30T08:20:13.000Z</time>
      </trkpt>
      <trkpt lat="43.74968" lon="7.01605">
        <ele>915</ele>
        <time>2023-07-30T08:20:14.000Z</time>
      </trkpt>
      <trkpt lat="43.74966" lon="7.01605">
        <ele>914.20001220703</ele>
        <time>2023-07-30T08:20:15.000Z</time>
      </trkpt>
      <trkpt lat="43.74963" lon="7.01604">
        <ele>914</ele>
        <time>2023-07-30T08:20:16.000Z</time>
      </trkpt>
      <trkpt lat="43.7496" lon="7.01603">
        <ele>913.40002441406</ele>
        <time>2023-07-30T08:20:17.000Z</time>
      </trkpt>
      <trkpt lat="43.74958" lon="7.01602">
        <ele>913.40002441406</ele>
        <time>2023-07-30T08:20:18.000Z</time>
      </trkpt>
      <trkpt lat="43.74956" lon="7.01601">
        <ele>913</ele>
        <time>2023-07-30T08:20:19.000Z</time>
      </trkpt>
      <trkpt lat="43.74953" lon="7.01599">
        <ele>912.40002441406</ele>
        <time>2023-07-30T08:20:20.000Z</time>
      </trkpt>
      <trkpt lat="43.7495" lon="7.01597">
        <ele>912.20001220703</ele>
        <time>2023-07-30T08:20:21.000Z</time>
      </trkpt>
      <trkpt lat="43.74948" lon="7.01595">
        <ele>911.40002441406</ele>
        <time>2023-07-30T08:20:22.000Z</time>
      </trkpt>
      <trkpt lat="43.74945" lon="7.01594">
        <ele>911.20001220703</ele>
        <time>2023-07-30T08:20:23.000Z</time>
      </trkpt>
      <trkpt lat="43.74943" lon="7.01593">
        <ele>911</ele>
        <time>2023-07-30T08:20:24.000Z</time>
      </trkpt>
      <trkpt lat="43.74942" lon="7.01593">
        <ele>910.40002441406</ele>
        <time>2023-07-30T08:20:25.000Z</time>
      </trkpt>
      <trkpt lat="43.74942" lon="7.01593">
        <ele>910</ele>
        <time>2023-07-30T08:20:26.000Z</time>
      </trkpt>
      <trkpt lat="43.74942" lon="7.01593">
        <ele>909.40002441406</ele>
        <time>2023-07-30T08:20:27.000Z</time>
      </trkpt>
      <trkpt lat="43.74942" lon="7.01593">
        <ele>909.20001220703</ele>
        <time>2023-07-30T08:20:28.000Z</time>
      </trkpt>
      <trkpt lat="43.74942" lon="7.01593">
        <ele>908.79998779297</ele>
        <time>2023-07-30T08:20:29.000Z</time>
      </trkpt>
      <trkpt lat="43.74942" lon="7.01593">
        <ele>908.79998779297</ele>
        <time>2023-07-30T08:20:30.000Z</time>
      </trkpt>
      <trkpt lat="43.74942" lon="7.01593">
        <ele>908.59997558594</ele>
        <time>2023-07-30T08:20:31.000Z</time>
      </trkpt>
      <trkpt lat="43.74942" lon="7.01593">
        <ele>908.59997558594</ele>
        <time>2023-07-30T08:20:32.000Z</time>
      </trkpt>
      <trkpt lat="43.74942" lon="7.01593">
        <ele>908.59997558594</ele>
        <time>2023-07-30T08:20:33.000Z</time>
      </trkpt>
      <trkpt lat="43.74942" lon="7.01593">
        <ele>908.40002441406</ele>
        <time>2023-07-30T08:20:34.000Z</time>
      </trkpt>
      <trkpt lat="43.74942" lon="7.01593">
        <ele>908.40002441406</ele>
        <time>2023-07-30T08:20:35.000Z</time>
      </trkpt>
      <trkpt lat="43.74942" lon="7.01593">
        <ele>908.40002441406</ele>
        <time>2023-07-30T08:20:36.000Z</time>
      </trkpt>
      <trkpt lat="43.74942" lon="7.01593">
        <ele>908.40002441406</ele>
        <time>2023-07-30T08:20:37.000Z</time>
      </trkpt>
      <trkpt lat="43.74942" lon="7.01593">
        <ele>908.40002441406</ele>
        <time>2023-07-30T08:20:38.000Z</time>
      </trkpt>
      <trkpt lat="43.74942" lon="7.01593">
        <ele>908.40002441406</ele>
        <time>2023-07-30T08:20:39.000Z</time>
      </trkpt>
      <trkpt lat="43.74942" lon="7.01593">
        <ele>908.40002441406</ele>
        <time>2023-07-30T08:20:40.000Z</time>
      </trkpt>
      <trkpt lat="43.74942" lon="7.01593">
        <ele>908.40002441406</ele>
        <time>2023-07-30T08:20:41.000Z</time>
      </trkpt>
      <trkpt lat="43.74942" lon="7.01593">
        <ele>908.20001220703</ele>
        <time>2023-07-30T08:20:42.000Z</time>
      </trkpt>
      <trkpt lat="43.74942" lon="7.01593">
        <ele>908.20001220703</ele>
        <time>2023-07-30T08:20:43.000Z</time>
      </trkpt>
      <trkpt lat="43.74942" lon="7.01593">
        <ele>908.20001220703</ele>
        <time>2023-07-30T08:20:44.000Z</time>
      </trkpt>
      <trkpt lat="43.74942" lon="7.01593">
        <ele>908.20001220703</ele>
        <time>2023-07-30T08:20:45.000Z</time>
      </trkpt>
      <trkpt lat="43.74942" lon="7.01593">
        <ele>908.20001220703</ele>
        <time>2023-07-30T08:20:46.000Z</time>
      </trkpt>
      <trkpt lat="43.74942" lon="7.01593">
        <ele>908.20001220703</ele>
        <time>2023-07-30T08:20:47.000Z</time>
      </trkpt>
      <trkpt lat="43.74942" lon="7.01593">
        <ele>908.20001220703</ele>
        <time>2023-07-30T08:20:48.000Z</time>
      </trkpt>
      <trkpt lat="43.74942" lon="7.01593">
        <ele>908.20001220703</ele>
        <time>2023-07-30T08:20:49.000Z</time>
      </trkpt>
      <trkpt lat="43.74942" lon="7.01593">
        <ele>908.20001220703</ele>
        <time>2023-07-30T08:20:50.000Z</time>
      </trkpt>
      <trkpt lat="43.74942" lon="7.01593">
        <ele>908.20001220703</ele>
        <time>2023-07-30T08:20:51.000Z</time>
      </trkpt>
      <trkpt lat="43.74942" lon="7.01593">
        <ele>908.20001220703</ele>
        <time>2023-07-30T08:20:52.000Z</time>
      </trkpt>
      <trkpt lat="43.74942" lon="7.01593">
        <ele>908.20001220703</ele>
        <time>2023-07-30T08:20:53.000Z</time>
      </trkpt>
      <trkpt lat="43.74942" lon="7.01593">
        <ele>908.20001220703</ele>
        <time>2023-07-30T08:20:54.000Z</time>
      </trkpt>
      <trkpt lat="43.74942" lon="7.01593">
        <ele>908.20001220703</ele>
        <time>2023-07-30T08:20:55.000Z</time>
      </trkpt>
      <trkpt lat="43.74942" lon="7.01593">
        <ele>908.20001220703</ele>
        <time>2023-07-30T08:20:56.000Z</time>
      </trkpt>
      <trkpt lat="43.74942" lon="7.01593">
        <ele>908.20001220703</ele>
        <time>2023-07-30T08:20:57.000Z</time>
      </trkpt>
      <trkpt lat="43.74942" lon="7.01593">
        <ele>908.20001220703</ele>
        <time>2023-07-30T08:20:58.000Z</time>
      </trkpt>
      <trkpt lat="43.74942" lon="7.01593">
        <ele>908.20001220703</ele>
        <time>2023-07-30T08:20:59.000Z</time>
      </trkpt>
      <trkpt lat="43.74942" lon="7.01593">
        <ele>908.20001220703</ele>
        <time>2023-07-30T08:21:00.000Z</time>
      </trkpt>
      <trkpt lat="43.74942" lon="7.01593">
        <ele>908.20001220703</ele>
        <time>2023-07-30T08:21:01.000Z</time>
      </trkpt>
      <trkpt lat="43.74942" lon="7.01593">
        <ele>908.20001220703</ele>
        <time>2023-07-30T08:21:02.000Z</time>
      </trkpt>
      <trkpt lat="43.74942" lon="7.01593">
        <ele>908.20001220703</ele>
        <time>2023-07-30T08:21:03.000Z</time>
      </trkpt>
      <trkpt lat="43.74942" lon="7.01593">
        <ele>908.20001220703</ele>
        <time>2023-07-30T08:21:04.000Z</time>
      </trkpt>
      <trkpt lat="43.74942" lon="7.01593">
        <ele>908.20001220703</ele>
        <time>2023-07-30T08:21:05.000Z</time>
      </trkpt>
      <trkpt lat="43.74942" lon="7.01593">
        <ele>908.20001220703</ele>
        <time>2023-07-30T08:21:06.000Z</time>
      </trkpt>
      <trkpt lat="43.74942" lon="7.01593">
        <ele>908.20001220703</ele>
        <time>2023-07-30T08:21:07.000Z</time>
      </trkpt>
      <trkpt lat="43.74942" lon="7.01593">
        <ele>908.20001220703</ele>
        <time>2023-07-30T08:21:08.000Z</time>
      </trkpt>
      <trkpt lat="43.74942" lon="7.01593">
        <ele>908.20001220703</ele>
        <time>2023-07-30T08:21:09.000Z</time>
      </trkpt>
      <trkpt lat="43.74942" lon="7.01593">
        <ele>908.20001220703</ele>
        <time>2023-07-30T08:21:10.000Z</time>
      </trkpt>
      <trkpt lat="43.74942" lon="7.01593">
        <ele>908.20001220703</ele>
        <time>2023-07-30T08:21:11.000Z</time>
      </trkpt>
      <trkpt lat="43.74942" lon="7.01593">
        <ele>908.20001220703</ele>
        <time>2023-07-30T08:21:12.000Z</time>
      </trkpt>
      <trkpt lat="43.74942" lon="7.01593">
        <ele>908.20001220703</ele>
        <time>2023-07-30T08:21:13.000Z</time>
      </trkpt>
      <trkpt lat="43.74942" lon="7.01593">
        <ele>908.20001220703</ele>
        <time>2023-07-30T08:21:14.000Z</time>
      </trkpt>
      <trkpt lat="43.74942" lon="7.01593">
        <ele>908.20001220703</ele>
        <time>2023-07-30T08:21:15.000Z</time>
      </trkpt>
      <trkpt lat="43.74942" lon="7.01593">
        <ele>908.20001220703</ele>
        <time>2023-07-30T08:21:16.000Z</time>
      </trkpt>
      <trkpt lat="43.74942" lon="7.01593">
        <ele>908.20001220703</ele>
        <time>2023-07-30T08:21:17.000Z</time>
      </trkpt>
      <trkpt lat="43.74942" lon="7.01593">
        <ele>908.20001220703</ele>
        <time>2023-07-30T08:21:18.000Z</time>
      </trkpt>
      <trkpt lat="43.74942" lon="7.01593">
        <ele>908.20001220703</ele>
        <time>2023-07-30T08:21:19.000Z</time>
      </trkpt>
      <trkpt lat="43.74942" lon="7.01593">
        <ele>908.20001220703</ele>
        <time>2023-07-30T08:21:20.000Z</time>
      </trkpt>
      <trkpt lat="43.74942" lon="7.01593">
        <ele>908.20001220703</ele>
        <time>2023-07-30T08:21:21.000Z</time>
      </trkpt>
      <trkpt lat="43.74942" lon="7.01593">
        <ele>908</ele>
        <time>2023-07-30T08:21:22.000Z</time>
      </trkpt>
      <trkpt lat="43.74942" lon="7.01593">
        <ele>908</ele>
        <time>2023-07-30T08:21:23.000Z</time>
      </trkpt>
      <trkpt lat="43.74942" lon="7.01593">
        <ele>907.79998779297</ele>
        <time>2023-07-30T08:21:24.000Z</time>
      </trkpt>
      <trkpt lat="43.74942" lon="7.01593">
        <ele>907.79998779297</ele>
        <time>2023-07-30T08:21:25.000Z</time>
      </trkpt>
      <trkpt lat="43.74942" lon="7.01593">
        <ele>907.79998779297</ele>
        <time>2023-07-30T08:21:26.000Z</time>
      </trkpt>
      <trkpt lat="43.74942" lon="7.01593">
        <ele>907.79998779297</ele>
        <time>2023-07-30T08:21:27.000Z</time>
      </trkpt>
      <trkpt lat="43.74942" lon="7.01593">
        <ele>907.79998779297</ele>
        <time>2023-07-30T08:21:28.000Z</time>
      </trkpt>
      <trkpt lat="43.74942" lon="7.01593">
        <ele>907.79998779297</ele>
        <time>2023-07-30T08:21:29.000Z</time>
      </trkpt>
      <trkpt lat="43.74942" lon="7.01593">
        <ele>907.79998779297</ele>
        <time>2023-07-30T08:21:30.000Z</time>
      </trkpt>
      <trkpt lat="43.74942" lon="7.01593">
        <ele>907.79998779297</ele>
        <time>2023-07-30T08:21:31.000Z</time>
      </trkpt>
      <trkpt lat="43.74942" lon="7.01593">
        <ele>907.79998779297</ele>
        <time>2023-07-30T08:21:32.000Z</time>
      </trkpt>
      <trkpt lat="43.74942" lon="7.01593">
        <ele>907.79998779297</ele>
        <time>2023-07-30T08:21:33.000Z</time>
      </trkpt>
      <trkpt lat="43.74942" lon="7.01593">
        <ele>907.59997558594</ele>
        <time>2023-07-30T08:21:34.000Z</time>
      </trkpt>
      <trkpt lat="43.74942" lon="7.01593">
        <ele>907.59997558594</ele>
        <time>2023-07-30T08:21:35.000Z</time>
      </trkpt>
      <trkpt lat="43.74942" lon="7.01593">
        <ele>907.59997558594</ele>
        <time>2023-07-30T08:21:36.000Z</time>
      </trkpt>
      <trkpt lat="43.74942" lon="7.01593">
        <ele>907.59997558594</ele>
        <time>2023-07-30T08:21:37.000Z</time>
      </trkpt>
      <trkpt lat="43.74942" lon="7.01593">
        <ele>907.59997558594</ele>
        <time>2023-07-30T08:21:38.000Z</time>
      </trkpt>
      <trkpt lat="43.74942" lon="7.01593">
        <ele>907.59997558594</ele>
        <time>2023-07-30T08:21:39.000Z</time>
      </trkpt>
      <trkpt lat="43.74942" lon="7.01593">
        <ele>907.59997558594</ele>
        <time>2023-07-30T08:21:40.000Z</time>
      </trkpt>
      <trkpt lat="43.74942" lon="7.01593">
        <ele>907.59997558594</ele>
        <time>2023-07-30T08:21:41.000Z</time>
      </trkpt>
      <trkpt lat="43.74942" lon="7.01593">
        <ele>907.59997558594</ele>
        <time>2023-07-30T08:21:42.000Z</time>
      </trkpt>
      <trkpt lat="43.74942" lon="7.01593">
        <ele>907.59997558594</ele>
        <time>2023-07-30T08:21:43.000Z</time>
      </trkpt>
      <trkpt lat="43.74942" lon="7.01593">
        <ele>907.59997558594</ele>
        <time>2023-07-30T08:21:44.000Z</time>
      </trkpt>
      <trkpt lat="43.74942" lon="7.01593">
        <ele>907.59997558594</ele>
        <time>2023-07-30T08:21:45.000Z</time>
      </trkpt>
      <trkpt lat="43.74942" lon="7.01593">
        <ele>907.59997558594</ele>
        <time>2023-07-30T08:21:46.000Z</time>
      </trkpt>
      <trkpt lat="43.74942" lon="7.01593">
        <ele>907.59997558594</ele>
        <time>2023-07-30T08:21:47.000Z</time>
      </trkpt>
      <trkpt lat="43.74942" lon="7.01593">
        <ele>907.59997558594</ele>
        <time>2023-07-30T08:21:48.000Z</time>
      </trkpt>
      <trkpt lat="43.74942" lon="7.01593">
        <ele>907.59997558594</ele>
        <time>2023-07-30T08:21:49.000Z</time>
      </trkpt>
      <trkpt lat="43.74942" lon="7.01593">
        <ele>907.59997558594</ele>
        <time>2023-07-30T08:21:50.000Z</time>
      </trkpt>
      <trkpt lat="43.74942" lon="7.01593">
        <ele>907.59997558594</ele>
        <time>2023-07-30T08:21:51.000Z</time>
      </trkpt>
      <trkpt lat="43.74942" lon="7.01593">
        <ele>907.59997558594</ele>
        <time>2023-07-30T08:21:52.000Z</time>
      </trkpt>
      <trkpt lat="43.74942" lon="7.01593">
        <ele>907.59997558594</ele>
        <time>2023-07-30T08:21:53.000Z</time>
      </trkpt>
      <trkpt lat="43.74942" lon="7.01593">
        <ele>907.59997558594</ele>
        <time>2023-07-30T08:21:54.000Z</time>
      </trkpt>
      <trkpt lat="43.74942" lon="7.01593">
        <ele>907.59997558594</ele>
        <time>2023-07-30T08:21:55.000Z</time>
      </trkpt>
      <trkpt lat="43.74942" lon="7.01593">
        <ele>907.59997558594</ele>
        <time>2023-07-30T08:21:56.000Z</time>
      </trkpt>
      <trkpt lat="43.74942" lon="7.01593">
        <ele>907.59997558594</ele>
        <time>2023-07-30T08:21:57.000Z</time>
      </trkpt>
      <trkpt lat="43.74942" lon="7.01593">
        <ele>907.59997558594</ele>
        <time>2023-07-30T08:21:58.000Z</time>
      </trkpt>
      <trkpt lat="43.74942" lon="7.01593">
        <ele>907.59997558594</ele>
        <time>2023-07-30T08:21:59.000Z</time>
      </trkpt>
      <trkpt lat="43.74942" lon="7.01593">
        <ele>907.59997558594</ele>
        <time>2023-07-30T08:22:00.000Z</time>
      </trkpt>
      <trkpt lat="43.74942" lon="7.01593">
        <ele>907.59997558594</ele>
        <time>2023-07-30T08:22:01.000Z</time>
      </trkpt>
      <trkpt lat="43.74942" lon="7.01593">
        <ele>907.59997558594</ele>
        <time>2023-07-30T08:22:02.000Z</time>
      </trkpt>
      <trkpt lat="43.74942" lon="7.01593">
        <ele>907.79998779297</ele>
        <time>2023-07-30T08:22:03.000Z</time>
      </trkpt>
      <trkpt lat="43.74942" lon="7.01593">
        <ele>907.79998779297</ele>
        <time>2023-07-30T08:22:04.000Z</time>
      </trkpt>
      <trkpt lat="43.74942" lon="7.01593">
        <ele>907.79998779297</ele>
        <time>2023-07-30T08:22:05.000Z</time>
      </trkpt>
      <trkpt lat="43.74942" lon="7.01593">
        <ele>907.79998779297</ele>
        <time>2023-07-30T08:22:06.000Z</time>
      </trkpt>
      <trkpt lat="43.74942" lon="7.01593">
        <ele>907.79998779297</ele>
        <time>2023-07-30T08:22:07.000Z</time>
      </trkpt>
      <trkpt lat="43.74942" lon="7.01593">
        <ele>907.79998779297</ele>
        <time>2023-07-30T08:22:08.000Z</time>
      </trkpt>
      <trkpt lat="43.74942" lon="7.01593">
        <ele>907.79998779297</ele>
        <time>2023-07-30T08:22:09.000Z</time>
      </trkpt>
      <trkpt lat="43.74942" lon="7.01593">
        <ele>907.79998779297</ele>
        <time>2023-07-30T08:22:10.000Z</time>
      </trkpt>
      <trkpt lat="43.74942" lon="7.01593">
        <ele>907.79998779297</ele>
        <time>2023-07-30T08:22:11.000Z</time>
      </trkpt>
      <trkpt lat="43.74942" lon="7.01593">
        <ele>907.79998779297</ele>
        <time>2023-07-30T08:22:12.000Z</time>
      </trkpt>
      <trkpt lat="43.74941" lon="7.01594">
        <ele>908</ele>
        <time>2023-07-30T08:22:13.000Z</time>
      </trkpt>
      <trkpt lat="43.74939" lon="7.01593">
        <ele>908</ele>
        <time>2023-07-30T08:22:14.000Z</time>
      </trkpt>
      <trkpt lat="43.74936" lon="7.01592">
        <ele>908.20001220703</ele>
        <time>2023-07-30T08:22:15.000Z</time>
      </trkpt>
      <trkpt lat="43.74933" lon="7.0159">
        <ele>908.20001220703</ele>
        <time>2023-07-30T08:22:16.000Z</time>
      </trkpt>
      <trkpt lat="43.74929" lon="7.01587">
        <ele>908</ele>
        <time>2023-07-30T08:22:17.000Z</time>
      </trkpt>
      <trkpt lat="43.74924" lon="7.01585">
        <ele>907.79998779297</ele>
        <time>2023-07-30T08:22:18.000Z</time>
      </trkpt>
      <trkpt lat="43.74919" lon="7.01584">
        <ele>907.59997558594</ele>
        <time>2023-07-30T08:22:19.000Z</time>
      </trkpt>
      <trkpt lat="43.74915" lon="7.01582">
        <ele>907</ele>
        <time>2023-07-30T08:22:20.000Z</time>
      </trkpt>
      <trkpt lat="43.7491" lon="7.01582">
        <ele>906.20001220703</ele>
        <time>2023-07-30T08:22:21.000Z</time>
      </trkpt>
      <trkpt lat="43.74906" lon="7.0158">
        <ele>905.79998779297</ele>
        <time>2023-07-30T08:22:22.000Z</time>
      </trkpt>
      <trkpt lat="43.74902" lon="7.01578">
        <ele>905</ele>
        <time>2023-07-30T08:22:23.000Z</time>
      </trkpt>
      <trkpt lat="43.74897" lon="7.01576">
        <ele>904</ele>
        <time>2023-07-30T08:22:24.000Z</time>
      </trkpt>
      <trkpt lat="43.74891" lon="7.01574">
        <ele>903.79998779297</ele>
        <time>2023-07-30T08:22:25.000Z</time>
      </trkpt>
      <trkpt lat="43.74886" lon="7.01572">
        <ele>903.20001220703</ele>
        <time>2023-07-30T08:22:26.000Z</time>
      </trkpt>
      <trkpt lat="43.74881" lon="7.0157">
        <ele>903</ele>
        <time>2023-07-30T08:22:27.000Z</time>
      </trkpt>
      <trkpt lat="43.74877" lon="7.01568">
        <ele>903</ele>
        <time>2023-07-30T08:22:28.000Z</time>
      </trkpt>
      <trkpt lat="43.74873" lon="7.01565">
        <ele>902.59997558594</ele>
        <time>2023-07-30T08:22:29.000Z</time>
      </trkpt>
      <trkpt lat="43.74868" lon="7.01562">
        <ele>902</ele>
        <time>2023-07-30T08:22:30.000Z</time>
      </trkpt>
      <trkpt lat="43.74864" lon="7.01559">
        <ele>901.59997558594</ele>
        <time>2023-07-30T08:22:31.000Z</time>
      </trkpt>
      <trkpt lat="43.74859" lon="7.01556">
        <ele>901.20001220703</ele>
        <time>2023-07-30T08:22:32.000Z</time>
      </trkpt>
      <trkpt lat="43.74856" lon="7.01553">
        <ele>900.79998779297</ele>
        <time>2023-07-30T08:22:33.000Z</time>
      </trkpt>
      <trkpt lat="43.74853" lon="7.01549">
        <ele>900.20001220703</ele>
        <time>2023-07-30T08:22:34.000Z</time>
      </trkpt>
      <trkpt lat="43.74849" lon="7.01543">
        <ele>899.79998779297</ele>
        <time>2023-07-30T08:22:35.000Z</time>
      </trkpt>
      <trkpt lat="43.74846" lon="7.01537">
        <ele>899.59997558594</ele>
        <time>2023-07-30T08:22:36.000Z</time>
      </trkpt>
      <trkpt lat="43.74843" lon="7.0153">
        <ele>899.59997558594</ele>
        <time>2023-07-30T08:22:37.000Z</time>
      </trkpt>
      <trkpt lat="43.74839" lon="7.01523">
        <ele>898.40002441406</ele>
        <time>2023-07-30T08:22:38.000Z</time>
      </trkpt>
      <trkpt lat="43.74835" lon="7.01516">
        <ele>898</ele>
        <time>2023-07-30T08:22:39.000Z</time>
      </trkpt>
      <trkpt lat="43.74832" lon="7.0151">
        <ele>897.40002441406</ele>
        <time>2023-07-30T08:22:40.000Z</time>
      </trkpt>
      <trkpt lat="43.74827" lon="7.01503">
        <ele>897</ele>
        <time>2023-07-30T08:22:41.000Z</time>
      </trkpt>
      <trkpt lat="43.74823" lon="7.01497">
        <ele>896.40002441406</ele>
        <time>2023-07-30T08:22:42.000Z</time>
      </trkpt>
      <trkpt lat="43.74819" lon="7.01491">
        <ele>896.40002441406</ele>
        <time>2023-07-30T08:22:43.000Z</time>
      </trkpt>
      <trkpt lat="43.74816" lon="7.01486">
        <ele>896.40002441406</ele>
        <time>2023-07-30T08:22:44.000Z</time>
      </trkpt>
      <trkpt lat="43.74812" lon="7.01481">
        <ele>896</ele>
        <time>2023-07-30T08:22:45.000Z</time>
      </trkpt>
      <trkpt lat="43.74809" lon="7.01476">
        <ele>896</ele>
        <time>2023-07-30T08:22:46.000Z</time>
      </trkpt>
      <trkpt lat="43.74807" lon="7.01471">
        <ele>896</ele>
        <time>2023-07-30T08:22:47.000Z</time>
      </trkpt>
      <trkpt lat="43.74804" lon="7.01467">
        <ele>896</ele>
        <time>2023-07-30T08:22:48.000Z</time>
      </trkpt>
      <trkpt lat="43.74802" lon="7.01463">
        <ele>896.40002441406</ele>
        <time>2023-07-30T08:22:49.000Z</time>
      </trkpt>
      <trkpt lat="43.74799" lon="7.01461">
        <ele>896.40002441406</ele>
        <time>2023-07-30T08:22:50.000Z</time>
      </trkpt>
      <trkpt lat="43.74795" lon="7.01459">
        <ele>896.40002441406</ele>
        <time>2023-07-30T08:22:51.000Z</time>
      </trkpt>
      <trkpt lat="43.74792" lon="7.01457">
        <ele>896.40002441406</ele>
        <time>2023-07-30T08:22:52.000Z</time>
      </trkpt>
      <trkpt lat="43.74788" lon="7.01454">
        <ele>896.40002441406</ele>
        <time>2023-07-30T08:22:53.000Z</time>
      </trkpt>
      <trkpt lat="43.74785" lon="7.01451">
        <ele>896.40002441406</ele>
        <time>2023-07-30T08:22:54.000Z</time>
      </trkpt>
      <trkpt lat="43.74781" lon="7.01447">
        <ele>896.40002441406</ele>
        <time>2023-07-30T08:22:55.000Z</time>
      </trkpt>
      <trkpt lat="43.74778" lon="7.01443">
        <ele>896.40002441406</ele>
        <time>2023-07-30T08:22:56.000Z</time>
      </trkpt>
      <trkpt lat="43.74774" lon="7.01438">
        <ele>896.20001220703</ele>
        <time>2023-07-30T08:22:57.000Z</time>
      </trkpt>
      <trkpt lat="43.74771" lon="7.01432">
        <ele>896</ele>
        <time>2023-07-30T08:22:58.000Z</time>
      </trkpt>
      <trkpt lat="43.74767" lon="7.01427">
        <ele>895.79998779297</ele>
        <time>2023-07-30T08:22:59.000Z</time>
      </trkpt>
      <trkpt lat="43.74763" lon="7.01422">
        <ele>895.59997558594</ele>
        <time>2023-07-30T08:23:00.000Z</time>
      </trkpt>
      <trkpt lat="43.74759" lon="7.01417">
        <ele>895.40002441406</ele>
        <time>2023-07-30T08:23:01.000Z</time>
      </trkpt>
      <trkpt lat="43.74756" lon="7.01412">
        <ele>895.20001220703</ele>
        <time>2023-07-30T08:23:02.000Z</time>
      </trkpt>
      <trkpt lat="43.74752" lon="7.01407">
        <ele>894.59997558594</ele>
        <time>2023-07-30T08:23:03.000Z</time>
      </trkpt>
      <trkpt lat="43.74748" lon="7.01403">
        <ele>894.20001220703</ele>
        <time>2023-07-30T08:23:04.000Z</time>
      </trkpt>
      <trkpt lat="43.74744" lon="7.014">
        <ele>894.20001220703</ele>
        <time>2023-07-30T08:23:05.000Z</time>
      </trkpt>
      <trkpt lat="43.7474" lon="7.01398">
        <ele>894.20001220703</ele>
        <time>2023-07-30T08:23:06.000Z</time>
      </trkpt>
      <trkpt lat="43.74735" lon="7.01397">
        <ele>894.20001220703</ele>
        <time>2023-07-30T08:23:07.000Z</time>
      </trkpt>
      <trkpt lat="43.74732" lon="7.01399">
        <ele>894.40002441406</ele>
        <time>2023-07-30T08:23:08.000Z</time>
      </trkpt>
      <trkpt lat="43.74728" lon="7.01402">
        <ele>894.40002441406</ele>
        <time>2023-07-30T08:23:09.000Z</time>
      </trkpt>
      <trkpt lat="43.74725" lon="7.01404">
        <ele>894.40002441406</ele>
        <time>2023-07-30T08:23:10.000Z</time>
      </trkpt>
      <trkpt lat="43.74722" lon="7.01407">
        <ele>894.40002441406</ele>
        <time>2023-07-30T08:23:11.000Z</time>
      </trkpt>
      <trkpt lat="43.74721" lon="7.01411">
        <ele>894.40002441406</ele>
        <time>2023-07-30T08:23:12.000Z</time>
      </trkpt>
      <trkpt lat="43.74719" lon="7.01415">
        <ele>894.40002441406</ele>
        <time>2023-07-30T08:23:13.000Z</time>
      </trkpt>
      <trkpt lat="43.74717" lon="7.01419">
        <ele>894.40002441406</ele>
        <time>2023-07-30T08:23:14.000Z</time>
      </trkpt>
      <trkpt lat="43.74715" lon="7.01423">
        <ele>894.40002441406</ele>
        <time>2023-07-30T08:23:15.000Z</time>
      </trkpt>
      <trkpt lat="43.74713" lon="7.01427">
        <ele>894.20001220703</ele>
        <time>2023-07-30T08:23:16.000Z</time>
      </trkpt>
      <trkpt lat="43.74711" lon="7.01432">
        <ele>894.20001220703</ele>
        <time>2023-07-30T08:23:17.000Z</time>
      </trkpt>
      <trkpt lat="43.74708" lon="7.01437">
        <ele>894.20001220703</ele>
        <time>2023-07-30T08:23:18.000Z</time>
      </trkpt>
      <trkpt lat="43.74706" lon="7.01443">
        <ele>894</ele>
        <time>2023-07-30T08:23:19.000Z</time>
      </trkpt>
      <trkpt lat="43.74703" lon="7.01448">
        <ele>894</ele>
        <time>2023-07-30T08:23:20.000Z</time>
      </trkpt>
      <trkpt lat="43.74701" lon="7.01454">
        <ele>894</ele>
        <time>2023-07-30T08:23:21.000Z</time>
      </trkpt>
      <trkpt lat="43.74698" lon="7.01459">
        <ele>893.79998779297</ele>
        <time>2023-07-30T08:23:22.000Z</time>
      </trkpt>
      <trkpt lat="43.74694" lon="7.01464">
        <ele>893.20001220703</ele>
        <time>2023-07-30T08:23:23.000Z</time>
      </trkpt>
      <trkpt lat="43.74692" lon="7.01468">
        <ele>892.59997558594</ele>
        <time>2023-07-30T08:23:24.000Z</time>
      </trkpt>
      <trkpt lat="43.74689" lon="7.01472">
        <ele>892.59997558594</ele>
        <time>2023-07-30T08:23:25.000Z</time>
      </trkpt>
      <trkpt lat="43.74686" lon="7.01477">
        <ele>892.20001220703</ele>
        <time>2023-07-30T08:23:26.000Z</time>
      </trkpt>
      <trkpt lat="43.74682" lon="7.01481">
        <ele>891.59997558594</ele>
        <time>2023-07-30T08:23:27.000Z</time>
      </trkpt>
      <trkpt lat="43.74679" lon="7.01485">
        <ele>891</ele>
        <time>2023-07-30T08:23:28.000Z</time>
      </trkpt>
      <trkpt lat="43.74676" lon="7.01488">
        <ele>890.79998779297</ele>
        <time>2023-07-30T08:23:29.000Z</time>
      </trkpt>
      <trkpt lat="43.74674" lon="7.01492">
        <ele>890.59997558594</ele>
        <time>2023-07-30T08:23:30.000Z</time>
      </trkpt>
      <trkpt lat="43.74672" lon="7.01494">
        <ele>890.40002441406</ele>
        <time>2023-07-30T08:23:31.000Z</time>
      </trkpt>
      <trkpt lat="43.7467" lon="7.01496">
        <ele>890.20001220703</ele>
        <time>2023-07-30T08:23:32.000Z</time>
      </trkpt>
      <trkpt lat="43.74668" lon="7.01498">
        <ele>889.79998779297</ele>
        <time>2023-07-30T08:23:33.000Z</time>
      </trkpt>
      <trkpt lat="43.74666" lon="7.01501">
        <ele>889.20001220703</ele>
        <time>2023-07-30T08:23:34.000Z</time>
      </trkpt>
      <trkpt lat="43.74663" lon="7.01504">
        <ele>889</ele>
        <time>2023-07-30T08:23:35.000Z</time>
      </trkpt>
      <trkpt lat="43.7466" lon="7.01507">
        <ele>888.79998779297</ele>
        <time>2023-07-30T08:23:36.000Z</time>
      </trkpt>
      <trkpt lat="43.74657" lon="7.0151">
        <ele>888.59997558594</ele>
        <time>2023-07-30T08:23:37.000Z</time>
      </trkpt>
      <trkpt lat="43.74653" lon="7.01512">
        <ele>887.79998779297</ele>
        <time>2023-07-30T08:23:38.000Z</time>
      </trkpt>
      <trkpt lat="43.7465" lon="7.01514">
        <ele>887.59997558594</ele>
        <time>2023-07-30T08:23:39.000Z</time>
      </trkpt>
      <trkpt lat="43.74647" lon="7.01515">
        <ele>887.59997558594</ele>
        <time>2023-07-30T08:23:40.000Z</time>
      </trkpt>
      <trkpt lat="43.74644" lon="7.01517">
        <ele>886.59997558594</ele>
        <time>2023-07-30T08:23:41.000Z</time>
      </trkpt>
      <trkpt lat="43.74641" lon="7.01518">
        <ele>886.20001220703</ele>
        <time>2023-07-30T08:23:42.000Z</time>
      </trkpt>
      <trkpt lat="43.74639" lon="7.01519">
        <ele>886.20001220703</ele>
        <time>2023-07-30T08:23:43.000Z</time>
      </trkpt>
      <trkpt lat="43.74636" lon="7.0152">
        <ele>886</ele>
        <time>2023-07-30T08:23:44.000Z</time>
      </trkpt>
      <trkpt lat="43.74634" lon="7.01522">
        <ele>886</ele>
        <time>2023-07-30T08:23:45.000Z</time>
      </trkpt>
      <trkpt lat="43.74632" lon="7.01523">
        <ele>886</ele>
        <time>2023-07-30T08:23:46.000Z</time>
      </trkpt>
      <trkpt lat="43.7463" lon="7.01524">
        <ele>885.59997558594</ele>
        <time>2023-07-30T08:23:47.000Z</time>
      </trkpt>
      <trkpt lat="43.74627" lon="7.01524">
        <ele>885.40002441406</ele>
        <time>2023-07-30T08:23:48.000Z</time>
      </trkpt>
      <trkpt lat="43.74624" lon="7.01525">
        <ele>885.20001220703</ele>
        <time>2023-07-30T08:23:49.000Z</time>
      </trkpt>
      <trkpt lat="43.7462" lon="7.01527">
        <ele>885.20001220703</ele>
        <time>2023-07-30T08:23:50.000Z</time>
      </trkpt>
      <trkpt lat="43.74616" lon="7.01527">
        <ele>885</ele>
        <time>2023-07-30T08:23:51.000Z</time>
      </trkpt>
      <trkpt lat="43.74613" lon="7.01527">
        <ele>884.40002441406</ele>
        <time>2023-07-30T08:23:52.000Z</time>
      </trkpt>
      <trkpt lat="43.74609" lon="7.01528">
        <ele>884.40002441406</ele>
        <time>2023-07-30T08:23:53.000Z</time>
      </trkpt>
      <trkpt lat="43.74605" lon="7.01528">
        <ele>884.20001220703</ele>
        <time>2023-07-30T08:23:54.000Z</time>
      </trkpt>
      <trkpt lat="43.74601" lon="7.01529">
        <ele>884</ele>
        <time>2023-07-30T08:23:55.000Z</time>
      </trkpt>
      <trkpt lat="43.74596" lon="7.01529">
        <ele>883.79998779297</ele>
        <time>2023-07-30T08:23:56.000Z</time>
      </trkpt>
      <trkpt lat="43.74591" lon="7.0153">
        <ele>883.79998779297</ele>
        <time>2023-07-30T08:23:57.000Z</time>
      </trkpt>
      <trkpt lat="43.74586" lon="7.01532">
        <ele>883</ele>
        <time>2023-07-30T08:23:58.000Z</time>
      </trkpt>
      <trkpt lat="43.74581" lon="7.01533">
        <ele>882.79998779297</ele>
        <time>2023-07-30T08:23:59.000Z</time>
      </trkpt>
      <trkpt lat="43.74576" lon="7.01535">
        <ele>882.40002441406</ele>
        <time>2023-07-30T08:24:00.000Z</time>
      </trkpt>
      <trkpt lat="43.74571" lon="7.01537">
        <ele>882</ele>
        <time>2023-07-30T08:24:01.000Z</time>
      </trkpt>
      <trkpt lat="43.74568" lon="7.01539">
        <ele>881.59997558594</ele>
        <time>2023-07-30T08:24:02.000Z</time>
      </trkpt>
      <trkpt lat="43.74564" lon="7.01542">
        <ele>881.59997558594</ele>
        <time>2023-07-30T08:24:03.000Z</time>
      </trkpt>
      <trkpt lat="43.7456" lon="7.01543">
        <ele>881.40002441406</ele>
        <time>2023-07-30T08:24:04.000Z</time>
      </trkpt>
      <trkpt lat="43.74556" lon="7.01543">
        <ele>881.40002441406</ele>
        <time>2023-07-30T08:24:05.000Z</time>
      </trkpt>
      <trkpt lat="43.74552" lon="7.01544">
        <ele>881.40002441406</ele>
        <time>2023-07-30T08:24:06.000Z</time>
      </trkpt>
      <trkpt lat="43.74549" lon="7.01544">
        <ele>881</ele>
        <time>2023-07-30T08:24:07.000Z</time>
      </trkpt>
      <trkpt lat="43.74545" lon="7.01544">
        <ele>881</ele>
        <time>2023-07-30T08:24:08.000Z</time>
      </trkpt>
      <trkpt lat="43.74542" lon="7.01544">
        <ele>880.79998779297</ele>
        <time>2023-07-30T08:24:09.000Z</time>
      </trkpt>
      <trkpt lat="43.74539" lon="7.01546">
        <ele>880.59997558594</ele>
        <time>2023-07-30T08:24:10.000Z</time>
      </trkpt>
      <trkpt lat="43.74536" lon="7.01547">
        <ele>880.59997558594</ele>
        <time>2023-07-30T08:24:11.000Z</time>
      </trkpt>
      <trkpt lat="43.74534" lon="7.0155">
        <ele>880.59997558594</ele>
        <time>2023-07-30T08:24:12.000Z</time>
      </trkpt>
      <trkpt lat="43.74532" lon="7.01552">
        <ele>880.59997558594</ele>
        <time>2023-07-30T08:24:13.000Z</time>
      </trkpt>
      <trkpt lat="43.7453" lon="7.01555">
        <ele>880.40002441406</ele>
        <time>2023-07-30T08:24:14.000Z</time>
      </trkpt>
      <trkpt lat="43.74529" lon="7.01558">
        <ele>880.40002441406</ele>
        <time>2023-07-30T08:24:15.000Z</time>
      </trkpt>
      <trkpt lat="43.74526" lon="7.01561">
        <ele>880.20001220703</ele>
        <time>2023-07-30T08:24:16.000Z</time>
      </trkpt>
      <trkpt lat="43.74523" lon="7.01565">
        <ele>880.20001220703</ele>
        <time>2023-07-30T08:24:17.000Z</time>
      </trkpt>
      <trkpt lat="43.74519" lon="7.01569">
        <ele>879.79998779297</ele>
        <time>2023-07-30T08:24:18.000Z</time>
      </trkpt>
      <trkpt lat="43.74516" lon="7.01573">
        <ele>879.59997558594</ele>
        <time>2023-07-30T08:24:19.000Z</time>
      </trkpt>
      <trkpt lat="43.74513" lon="7.01577">
        <ele>879.59997558594</ele>
        <time>2023-07-30T08:24:20.000Z</time>
      </trkpt>
      <trkpt lat="43.7451" lon="7.0158">
        <ele>879.20001220703</ele>
        <time>2023-07-30T08:24:21.000Z</time>
      </trkpt>
      <trkpt lat="43.74507" lon="7.01583">
        <ele>879.20001220703</ele>
        <time>2023-07-30T08:24:22.000Z</time>
      </trkpt>
      <trkpt lat="43.74504" lon="7.01585">
        <ele>879.20001220703</ele>
        <time>2023-07-30T08:24:23.000Z</time>
      </trkpt>
      <trkpt lat="43.74502" lon="7.01587">
        <ele>879.20001220703</ele>
        <time>2023-07-30T08:24:24.000Z</time>
      </trkpt>
      <trkpt lat="43.745" lon="7.0159">
        <ele>879.20001220703</ele>
        <time>2023-07-30T08:24:25.000Z</time>
      </trkpt>
      <trkpt lat="43.74497" lon="7.01592">
        <ele>879.20001220703</ele>
        <time>2023-07-30T08:24:26.000Z</time>
      </trkpt>
      <trkpt lat="43.74495" lon="7.01595">
        <ele>879.20001220703</ele>
        <time>2023-07-30T08:24:27.000Z</time>
      </trkpt>
      <trkpt lat="43.74493" lon="7.01598">
        <ele>879</ele>
        <time>2023-07-30T08:24:28.000Z</time>
      </trkpt>
      <trkpt lat="43.74491" lon="7.01599">
        <ele>879</ele>
        <time>2023-07-30T08:24:29.000Z</time>
      </trkpt>
      <trkpt lat="43.74488" lon="7.01601">
        <ele>878.79998779297</ele>
        <time>2023-07-30T08:24:30.000Z</time>
      </trkpt>
      <trkpt lat="43.74485" lon="7.01603">
        <ele>878.40002441406</ele>
        <time>2023-07-30T08:24:31.000Z</time>
      </trkpt>
      <trkpt lat="43.74482" lon="7.01605">
        <ele>878.20001220703</ele>
        <time>2023-07-30T08:24:32.000Z</time>
      </trkpt>
      <trkpt lat="43.74479" lon="7.01608">
        <ele>878</ele>
        <time>2023-07-30T08:24:33.000Z</time>
      </trkpt>
      <trkpt lat="43.74475" lon="7.01612">
        <ele>877.59997558594</ele>
        <time>2023-07-30T08:24:34.000Z</time>
      </trkpt>
      <trkpt lat="43.74472" lon="7.01615">
        <ele>877</ele>
        <time>2023-07-30T08:24:35.000Z</time>
      </trkpt>
      <trkpt lat="43.7447" lon="7.01619">
        <ele>876.40002441406</ele>
        <time>2023-07-30T08:24:36.000Z</time>
      </trkpt>
      <trkpt lat="43.74467" lon="7.01622">
        <ele>876.40002441406</ele>
        <time>2023-07-30T08:24:37.000Z</time>
      </trkpt>
      <trkpt lat="43.74464" lon="7.01624">
        <ele>876.40002441406</ele>
        <time>2023-07-30T08:24:38.000Z</time>
      </trkpt>
      <trkpt lat="43.74461" lon="7.01627">
        <ele>876</ele>
        <time>2023-07-30T08:24:39.000Z</time>
      </trkpt>
      <trkpt lat="43.74459" lon="7.0163">
        <ele>875.59997558594</ele>
        <time>2023-07-30T08:24:40.000Z</time>
      </trkpt>
      <trkpt lat="43.74457" lon="7.01632">
        <ele>875.59997558594</ele>
        <time>2023-07-30T08:24:41.000Z</time>
      </trkpt>
      <trkpt lat="43.74454" lon="7.01635">
        <ele>875.59997558594</ele>
        <time>2023-07-30T08:24:42.000Z</time>
      </trkpt>
      <trkpt lat="43.74451" lon="7.01638">
        <ele>875.59997558594</ele>
        <time>2023-07-30T08:24:43.000Z</time>
      </trkpt>
      <trkpt lat="43.74448" lon="7.01641">
        <ele>875.59997558594</ele>
        <time>2023-07-30T08:24:44.000Z</time>
      </trkpt>
      <trkpt lat="43.74445" lon="7.01644">
        <ele>875.59997558594</ele>
        <time>2023-07-30T08:24:45.000Z</time>
      </trkpt>
      <trkpt lat="43.74443" lon="7.01647">
        <ele>875.59997558594</ele>
        <time>2023-07-30T08:24:46.000Z</time>
      </trkpt>
      <trkpt lat="43.7444" lon="7.01651">
        <ele>875.59997558594</ele>
        <time>2023-07-30T08:24:47.000Z</time>
      </trkpt>
      <trkpt lat="43.74438" lon="7.01654">
        <ele>875.59997558594</ele>
        <time>2023-07-30T08:24:48.000Z</time>
      </trkpt>
      <trkpt lat="43.74435" lon="7.01658">
        <ele>875.59997558594</ele>
        <time>2023-07-30T08:24:49.000Z</time>
      </trkpt>
      <trkpt lat="43.74431" lon="7.01661">
        <ele>875.40002441406</ele>
        <time>2023-07-30T08:24:50.000Z</time>
      </trkpt>
      <trkpt lat="43.74428" lon="7.01664">
        <ele>875.40002441406</ele>
        <time>2023-07-30T08:24:51.000Z</time>
      </trkpt>
      <trkpt lat="43.74424" lon="7.01668">
        <ele>875.40002441406</ele>
        <time>2023-07-30T08:24:52.000Z</time>
      </trkpt>
      <trkpt lat="43.7442" lon="7.01672">
        <ele>875.40002441406</ele>
        <time>2023-07-30T08:24:53.000Z</time>
      </trkpt>
      <trkpt lat="43.74415" lon="7.01677">
        <ele>875.20001220703</ele>
        <time>2023-07-30T08:24:54.000Z</time>
      </trkpt>
      <trkpt lat="43.7441" lon="7.0168">
        <ele>875.20001220703</ele>
        <time>2023-07-30T08:24:55.000Z</time>
      </trkpt>
      <trkpt lat="43.74404" lon="7.01684">
        <ele>874.79998779297</ele>
        <time>2023-07-30T08:24:56.000Z</time>
      </trkpt>
      <trkpt lat="43.74398" lon="7.01688">
        <ele>874.20001220703</ele>
        <time>2023-07-30T08:24:57.000Z</time>
      </trkpt>
      <trkpt lat="43.74394" lon="7.01692">
        <ele>874.20001220703</ele>
        <time>2023-07-30T08:24:58.000Z</time>
      </trkpt>
      <trkpt lat="43.74389" lon="7.01695">
        <ele>873.59997558594</ele>
        <time>2023-07-30T08:24:59.000Z</time>
      </trkpt>
      <trkpt lat="43.74385" lon="7.01699">
        <ele>873.40002441406</ele>
        <time>2023-07-30T08:25:00.000Z</time>
      </trkpt>
      <trkpt lat="43.7438" lon="7.01704">
        <ele>873.40002441406</ele>
        <time>2023-07-30T08:25:01.000Z</time>
      </trkpt>
      <trkpt lat="43.74376" lon="7.01708">
        <ele>873.20001220703</ele>
        <time>2023-07-30T08:25:02.000Z</time>
      </trkpt>
      <trkpt lat="43.74371" lon="7.01712">
        <ele>873.20001220703</ele>
        <time>2023-07-30T08:25:03.000Z</time>
      </trkpt>
      <trkpt lat="43.74366" lon="7.01716">
        <ele>873.20001220703</ele>
        <time>2023-07-30T08:25:04.000Z</time>
      </trkpt>
      <trkpt lat="43.74361" lon="7.01721">
        <ele>872.59997558594</ele>
        <time>2023-07-30T08:25:05.000Z</time>
      </trkpt>
      <trkpt lat="43.74356" lon="7.01726">
        <ele>872.59997558594</ele>
        <time>2023-07-30T08:25:06.000Z</time>
      </trkpt>
      <trkpt lat="43.74352" lon="7.01731">
        <ele>872.20001220703</ele>
        <time>2023-07-30T08:25:07.000Z</time>
      </trkpt>
      <trkpt lat="43.74348" lon="7.01737">
        <ele>872.20001220703</ele>
        <time>2023-07-30T08:25:08.000Z</time>
      </trkpt>
      <trkpt lat="43.74344" lon="7.01741">
        <ele>872.20001220703</ele>
        <time>2023-07-30T08:25:09.000Z</time>
      </trkpt>
      <trkpt lat="43.74341" lon="7.01744">
        <ele>872.20001220703</ele>
        <time>2023-07-30T08:25:10.000Z</time>
      </trkpt>
      <trkpt lat="43.74336" lon="7.01746">
        <ele>871.79998779297</ele>
        <time>2023-07-30T08:25:11.000Z</time>
      </trkpt>
      <trkpt lat="43.74332" lon="7.01747">
        <ele>870.59997558594</ele>
        <time>2023-07-30T08:25:12.000Z</time>
      </trkpt>
      <trkpt lat="43.74328" lon="7.01749">
        <ele>870.59997558594</ele>
        <time>2023-07-30T08:25:13.000Z</time>
      </trkpt>
      <trkpt lat="43.74323" lon="7.01751">
        <ele>870.20001220703</ele>
        <time>2023-07-30T08:25:14.000Z</time>
      </trkpt>
      <trkpt lat="43.74319" lon="7.01753">
        <ele>870</ele>
        <time>2023-07-30T08:25:15.000Z</time>
      </trkpt>
      <trkpt lat="43.74314" lon="7.01755">
        <ele>869.79998779297</ele>
        <time>2023-07-30T08:25:16.000Z</time>
      </trkpt>
      <trkpt lat="43.7431" lon="7.01758">
        <ele>869.59997558594</ele>
        <time>2023-07-30T08:25:17.000Z</time>
      </trkpt>
      <trkpt lat="43.74306" lon="7.01761">
        <ele>869.59997558594</ele>
        <time>2023-07-30T08:25:18.000Z</time>
      </trkpt>
      <trkpt lat="43.74301" lon="7.01763">
        <ele>869.20001220703</ele>
        <time>2023-07-30T08:25:19.000Z</time>
      </trkpt>
      <trkpt lat="43.74297" lon="7.01765">
        <ele>869.20001220703</ele>
        <time>2023-07-30T08:25:20.000Z</time>
      </trkpt>
      <trkpt lat="43.74292" lon="7.01766">
        <ele>869.20001220703</ele>
        <time>2023-07-30T08:25:21.000Z</time>
      </trkpt>
      <trkpt lat="43.74287" lon="7.01767">
        <ele>869.20001220703</ele>
        <time>2023-07-30T08:25:22.000Z</time>
      </trkpt>
      <trkpt lat="43.74282" lon="7.01769">
        <ele>869.20001220703</ele>
        <time>2023-07-30T08:25:23.000Z</time>
      </trkpt>
      <trkpt lat="43.74277" lon="7.0177">
        <ele>869</ele>
        <time>2023-07-30T08:25:24.000Z</time>
      </trkpt>
      <trkpt lat="43.74272" lon="7.01772">
        <ele>868.79998779297</ele>
        <time>2023-07-30T08:25:25.000Z</time>
      </trkpt>
      <trkpt lat="43.74267" lon="7.01773">
        <ele>868.59997558594</ele>
        <time>2023-07-30T08:25:26.000Z</time>
      </trkpt>
      <trkpt lat="43.74262" lon="7.01775">
        <ele>868.59997558594</ele>
        <time>2023-07-30T08:25:27.000Z</time>
      </trkpt>
      <trkpt lat="43.74257" lon="7.01776">
        <ele>868.59997558594</ele>
        <time>2023-07-30T08:25:28.000Z</time>
      </trkpt>
      <trkpt lat="43.74253" lon="7.01777">
        <ele>868.40002441406</ele>
        <time>2023-07-30T08:25:29.000Z</time>
      </trkpt>
      <trkpt lat="43.74249" lon="7.01778">
        <ele>868.20001220703</ele>
        <time>2023-07-30T08:25:30.000Z</time>
      </trkpt>
      <trkpt lat="43.74244" lon="7.01779">
        <ele>868.20001220703</ele>
        <time>2023-07-30T08:25:31.000Z</time>
      </trkpt>
      <trkpt lat="43.74239" lon="7.01781">
        <ele>868.20001220703</ele>
        <time>2023-07-30T08:25:32.000Z</time>
      </trkpt>
      <trkpt lat="43.74233" lon="7.01783">
        <ele>868</ele>
        <time>2023-07-30T08:25:33.000Z</time>
      </trkpt>
      <trkpt lat="43.74226" lon="7.01785">
        <ele>868</ele>
        <time>2023-07-30T08:25:34.000Z</time>
      </trkpt>
      <trkpt lat="43.7422" lon="7.01787">
        <ele>867.79998779297</ele>
        <time>2023-07-30T08:25:35.000Z</time>
      </trkpt>
      <trkpt lat="43.74214" lon="7.01788">
        <ele>867</ele>
        <time>2023-07-30T08:25:36.000Z</time>
      </trkpt>
      <trkpt lat="43.74209" lon="7.0179">
        <ele>866.59997558594</ele>
        <time>2023-07-30T08:25:37.000Z</time>
      </trkpt>
      <trkpt lat="43.74202" lon="7.01792">
        <ele>866</ele>
        <time>2023-07-30T08:25:38.000Z</time>
      </trkpt>
      <trkpt lat="43.74196" lon="7.01793">
        <ele>865.59997558594</ele>
        <time>2023-07-30T08:25:39.000Z</time>
      </trkpt>
      <trkpt lat="43.7419" lon="7.01795">
        <ele>865</ele>
        <time>2023-07-30T08:25:40.000Z</time>
      </trkpt>
      <trkpt lat="43.74184" lon="7.01796">
        <ele>864.20001220703</ele>
        <time>2023-07-30T08:25:41.000Z</time>
      </trkpt>
      <trkpt lat="43.74178" lon="7.01798">
        <ele>863.20001220703</ele>
        <time>2023-07-30T08:25:42.000Z</time>
      </trkpt>
      <trkpt lat="43.74174" lon="7.01799">
        <ele>862.40002441406</ele>
        <time>2023-07-30T08:25:43.000Z</time>
      </trkpt>
      <trkpt lat="43.7417" lon="7.01801">
        <ele>862.20001220703</ele>
        <time>2023-07-30T08:25:44.000Z</time>
      </trkpt>
      <trkpt lat="43.74166" lon="7.01802">
        <ele>862</ele>
        <time>2023-07-30T08:25:45.000Z</time>
      </trkpt>
      <trkpt lat="43.74161" lon="7.01802">
        <ele>861.59997558594</ele>
        <time>2023-07-30T08:25:46.000Z</time>
      </trkpt>
      <trkpt lat="43.74156" lon="7.01804">
        <ele>860.79998779297</ele>
        <time>2023-07-30T08:25:47.000Z</time>
      </trkpt>
      <trkpt lat="43.74151" lon="7.01806">
        <ele>860.79998779297</ele>
        <time>2023-07-30T08:25:48.000Z</time>
      </trkpt>
      <trkpt lat="43.74147" lon="7.01809">
        <ele>860.40002441406</ele>
        <time>2023-07-30T08:25:49.000Z</time>
      </trkpt>
      <trkpt lat="43.74142" lon="7.01811">
        <ele>860.40002441406</ele>
        <time>2023-07-30T08:25:50.000Z</time>
      </trkpt>
      <trkpt lat="43.74137" lon="7.01813">
        <ele>860.20001220703</ele>
        <time>2023-07-30T08:25:51.000Z</time>
      </trkpt>
      <trkpt lat="43.74132" lon="7.01815">
        <ele>859.59997558594</ele>
        <time>2023-07-30T08:25:52.000Z</time>
      </trkpt>
      <trkpt lat="43.74126" lon="7.01815">
        <ele>859.40002441406</ele>
        <time>2023-07-30T08:25:53.000Z</time>
      </trkpt>
      <trkpt lat="43.74121" lon="7.01815">
        <ele>859.40002441406</ele>
        <time>2023-07-30T08:25:54.000Z</time>
      </trkpt>
      <trkpt lat="43.74115" lon="7.01816">
        <ele>859.20001220703</ele>
        <time>2023-07-30T08:25:55.000Z</time>
      </trkpt>
      <trkpt lat="43.7411" lon="7.01816">
        <ele>858.79998779297</ele>
        <time>2023-07-30T08:25:56.000Z</time>
      </trkpt>
      <trkpt lat="43.74104" lon="7.01816">
        <ele>858.40002441406</ele>
        <time>2023-07-30T08:25:57.000Z</time>
      </trkpt>
      <trkpt lat="43.74099" lon="7.01816">
        <ele>858.20001220703</ele>
        <time>2023-07-30T08:25:58.000Z</time>
      </trkpt>
      <trkpt lat="43.74093" lon="7.01813">
        <ele>858.20001220703</ele>
        <time>2023-07-30T08:25:59.000Z</time>
      </trkpt>
      <trkpt lat="43.74088" lon="7.01811">
        <ele>858.20001220703</ele>
        <time>2023-07-30T08:26:00.000Z</time>
      </trkpt>
      <trkpt lat="43.74083" lon="7.0181">
        <ele>857.79998779297</ele>
        <time>2023-07-30T08:26:01.000Z</time>
      </trkpt>
      <trkpt lat="43.74078" lon="7.01808">
        <ele>857.79998779297</ele>
        <time>2023-07-30T08:26:02.000Z</time>
      </trkpt>
      <trkpt lat="43.74073" lon="7.01807">
        <ele>857.59997558594</ele>
        <time>2023-07-30T08:26:03.000Z</time>
      </trkpt>
      <trkpt lat="43.74068" lon="7.01805">
        <ele>857.40002441406</ele>
        <time>2023-07-30T08:26:04.000Z</time>
      </trkpt>
      <trkpt lat="43.74064" lon="7.01804">
        <ele>857.40002441406</ele>
        <time>2023-07-30T08:26:05.000Z</time>
      </trkpt>
      <trkpt lat="43.74059" lon="7.01802">
        <ele>857.20001220703</ele>
        <time>2023-07-30T08:26:06.000Z</time>
      </trkpt>
      <trkpt lat="43.74054" lon="7.01801">
        <ele>857.20001220703</ele>
        <time>2023-07-30T08:26:07.000Z</time>
      </trkpt>
      <trkpt lat="43.7405" lon="7.01799">
        <ele>857</ele>
        <time>2023-07-30T08:26:08.000Z</time>
      </trkpt>
      <trkpt lat="43.74046" lon="7.01798">
        <ele>857</ele>
        <time>2023-07-30T08:26:09.000Z</time>
      </trkpt>
      <trkpt lat="43.74041" lon="7.01795">
        <ele>856.79998779297</ele>
        <time>2023-07-30T08:26:10.000Z</time>
      </trkpt>
      <trkpt lat="43.74036" lon="7.01792">
        <ele>856.59997558594</ele>
        <time>2023-07-30T08:26:11.000Z</time>
      </trkpt>
      <trkpt lat="43.74032" lon="7.0179">
        <ele>856.59997558594</ele>
        <time>2023-07-30T08:26:12.000Z</time>
      </trkpt>
      <trkpt lat="43.74027" lon="7.01789">
        <ele>856.59997558594</ele>
        <time>2023-07-30T08:26:13.000Z</time>
      </trkpt>
      <trkpt lat="43.74022" lon="7.01788">
        <ele>856.20001220703</ele>
        <time>2023-07-30T08:26:14.000Z</time>
      </trkpt>
      <trkpt lat="43.74015" lon="7.01787">
        <ele>855.40002441406</ele>
        <time>2023-07-30T08:26:15.000Z</time>
      </trkpt>
      <trkpt lat="43.7401" lon="7.01786">
        <ele>855.40002441406</ele>
        <time>2023-07-30T08:26:16.000Z</time>
      </trkpt>
      <trkpt lat="43.74004" lon="7.01785">
        <ele>854.79998779297</ele>
        <time>2023-07-30T08:26:17.000Z</time>
      </trkpt>
      <trkpt lat="43.73998" lon="7.01783">
        <ele>854.20001220703</ele>
        <time>2023-07-30T08:26:18.000Z</time>
      </trkpt>
      <trkpt lat="43.73992" lon="7.01781">
        <ele>854.20001220703</ele>
        <time>2023-07-30T08:26:19.000Z</time>
      </trkpt>
      <trkpt lat="43.73986" lon="7.01778">
        <ele>853.79998779297</ele>
        <time>2023-07-30T08:26:20.000Z</time>
      </trkpt>
      <trkpt lat="43.7398" lon="7.01776">
        <ele>853.20001220703</ele>
        <time>2023-07-30T08:26:21.000Z</time>
      </trkpt>
      <trkpt lat="43.73974" lon="7.01774">
        <ele>853.20001220703</ele>
        <time>2023-07-30T08:26:22.000Z</time>
      </trkpt>
      <trkpt lat="43.73969" lon="7.01772">
        <ele>852.79998779297</ele>
        <time>2023-07-30T08:26:23.000Z</time>
      </trkpt>
      <trkpt lat="43.73963" lon="7.0177">
        <ele>852.59997558594</ele>
        <time>2023-07-30T08:26:24.000Z</time>
      </trkpt>
      <trkpt lat="43.73957" lon="7.01768">
        <ele>852.59997558594</ele>
        <time>2023-07-30T08:26:25.000Z</time>
      </trkpt>
      <trkpt lat="43.73951" lon="7.01768">
        <ele>852.20001220703</ele>
        <time>2023-07-30T08:26:26.000Z</time>
      </trkpt>
      <trkpt lat="43.73946" lon="7.01768">
        <ele>852.20001220703</ele>
        <time>2023-07-30T08:26:27.000Z</time>
      </trkpt>
      <trkpt lat="43.7394" lon="7.01768">
        <ele>852.20001220703</ele>
        <time>2023-07-30T08:26:28.000Z</time>
      </trkpt>
      <trkpt lat="43.73935" lon="7.01768">
        <ele>851.79998779297</ele>
        <time>2023-07-30T08:26:29.000Z</time>
      </trkpt>
      <trkpt lat="43.73929" lon="7.01769">
        <ele>851.59997558594</ele>
        <time>2023-07-30T08:26:30.000Z</time>
      </trkpt>
      <trkpt lat="43.73925" lon="7.0177">
        <ele>851.59997558594</ele>
        <time>2023-07-30T08:26:31.000Z</time>
      </trkpt>
      <trkpt lat="43.73922" lon="7.0177">
        <ele>851.40002441406</ele>
        <time>2023-07-30T08:26:32.000Z</time>
      </trkpt>
      <trkpt lat="43.7392" lon="7.01771">
        <ele>851.20001220703</ele>
        <time>2023-07-30T08:26:33.000Z</time>
      </trkpt>
      <trkpt lat="43.73918" lon="7.01771">
        <ele>851</ele>
        <time>2023-07-30T08:26:34.000Z</time>
      </trkpt>
      <trkpt lat="43.73917" lon="7.01772">
        <ele>850.59997558594</ele>
        <time>2023-07-30T08:26:35.000Z</time>
      </trkpt>
      <trkpt lat="43.73915" lon="7.01773">
        <ele>850.40002441406</ele>
        <time>2023-07-30T08:26:36.000Z</time>
      </trkpt>
      <trkpt lat="43.73913" lon="7.01774">
        <ele>850.40002441406</ele>
        <time>2023-07-30T08:26:37.000Z</time>
      </trkpt>
      <trkpt lat="43.7391" lon="7.01775">
        <ele>850</ele>
        <time>2023-07-30T08:26:38.000Z</time>
      </trkpt>
      <trkpt lat="43.73909" lon="7.01776">
        <ele>850</ele>
        <time>2023-07-30T08:26:39.000Z</time>
      </trkpt>
      <trkpt lat="43.73907" lon="7.01777">
        <ele>849.20001220703</ele>
        <time>2023-07-30T08:26:40.000Z</time>
      </trkpt>
      <trkpt lat="43.73904" lon="7.01777">
        <ele>849</ele>
        <time>2023-07-30T08:26:41.000Z</time>
      </trkpt>
      <trkpt lat="43.73901" lon="7.01776">
        <ele>849</ele>
        <time>2023-07-30T08:26:42.000Z</time>
      </trkpt>
      <trkpt lat="43.73898" lon="7.01776">
        <ele>849</ele>
        <time>2023-07-30T08:26:43.000Z</time>
      </trkpt>
      <trkpt lat="43.73894" lon="7.01777">
        <ele>849</ele>
        <time>2023-07-30T08:26:44.000Z</time>
      </trkpt>
      <trkpt lat="43.73891" lon="7.01778">
        <ele>848.40002441406</ele>
        <time>2023-07-30T08:26:45.000Z</time>
      </trkpt>
      <trkpt lat="43.73887" lon="7.01779">
        <ele>847.59997558594</ele>
        <time>2023-07-30T08:26:46.000Z</time>
      </trkpt>
      <trkpt lat="43.73881" lon="7.01781">
        <ele>847</ele>
        <time>2023-07-30T08:26:47.000Z</time>
      </trkpt>
      <trkpt lat="43.73876" lon="7.01781">
        <ele>846.79998779297</ele>
        <time>2023-07-30T08:26:48.000Z</time>
      </trkpt>
      <trkpt lat="43.73871" lon="7.01781">
        <ele>846.79998779297</ele>
        <time>2023-07-30T08:26:49.000Z</time>
      </trkpt>
      <trkpt lat="43.73867" lon="7.01781">
        <ele>846.20001220703</ele>
        <time>2023-07-30T08:26:50.000Z</time>
      </trkpt>
      <trkpt lat="43.73862" lon="7.0178">
        <ele>845.59997558594</ele>
        <time>2023-07-30T08:26:51.000Z</time>
      </trkpt>
      <trkpt lat="43.73857" lon="7.0178">
        <ele>844.79998779297</ele>
        <time>2023-07-30T08:26:52.000Z</time>
      </trkpt>
      <trkpt lat="43.73853" lon="7.0178">
        <ele>844.79998779297</ele>
        <time>2023-07-30T08:26:53.000Z</time>
      </trkpt>
      <trkpt lat="43.73849" lon="7.01781">
        <ele>844.59997558594</ele>
        <time>2023-07-30T08:26:54.000Z</time>
      </trkpt>
      <trkpt lat="43.73844" lon="7.01781">
        <ele>844.40002441406</ele>
        <time>2023-07-30T08:26:55.000Z</time>
      </trkpt>
      <trkpt lat="43.7384" lon="7.01781">
        <ele>843.79998779297</ele>
        <time>2023-07-30T08:26:56.000Z</time>
      </trkpt>
      <trkpt lat="43.73836" lon="7.01781">
        <ele>843.59997558594</ele>
        <time>2023-07-30T08:26:57.000Z</time>
      </trkpt>
      <trkpt lat="43.73832" lon="7.01781">
        <ele>843.59997558594</ele>
        <time>2023-07-30T08:26:58.000Z</time>
      </trkpt>
      <trkpt lat="43.73828" lon="7.0178">
        <ele>843.40002441406</ele>
        <time>2023-07-30T08:26:59.000Z</time>
      </trkpt>
      <trkpt lat="43.73824" lon="7.01779">
        <ele>843.40002441406</ele>
        <time>2023-07-30T08:27:00.000Z</time>
      </trkpt>
      <trkpt lat="43.7382" lon="7.01779">
        <ele>843.20001220703</ele>
        <time>2023-07-30T08:27:01.000Z</time>
      </trkpt>
      <trkpt lat="43.73816" lon="7.0178">
        <ele>843</ele>
        <time>2023-07-30T08:27:02.000Z</time>
      </trkpt>
      <trkpt lat="43.73815" lon="7.01783">
        <ele>842.79998779297</ele>
        <time>2023-07-30T08:27:03.000Z</time>
      </trkpt>
      <trkpt lat="43.73813" lon="7.01785">
        <ele>842.79998779297</ele>
        <time>2023-07-30T08:27:04.000Z</time>
      </trkpt>
      <trkpt lat="43.73811" lon="7.01786">
        <ele>842.79998779297</ele>
        <time>2023-07-30T08:27:05.000Z</time>
      </trkpt>
      <trkpt lat="43.73809" lon="7.01786">
        <ele>842.79998779297</ele>
        <time>2023-07-30T08:27:06.000Z</time>
      </trkpt>
      <trkpt lat="43.73805" lon="7.01787">
        <ele>842.79998779297</ele>
        <time>2023-07-30T08:27:07.000Z</time>
      </trkpt>
      <trkpt lat="43.73801" lon="7.01787">
        <ele>842.79998779297</ele>
        <time>2023-07-30T08:27:08.000Z</time>
      </trkpt>
      <trkpt lat="43.73796" lon="7.01787">
        <ele>842.79998779297</ele>
        <time>2023-07-30T08:27:09.000Z</time>
      </trkpt>
      <trkpt lat="43.73791" lon="7.01787">
        <ele>842.79998779297</ele>
        <time>2023-07-30T08:27:10.000Z</time>
      </trkpt>
      <trkpt lat="43.73786" lon="7.01787">
        <ele>842.40002441406</ele>
        <time>2023-07-30T08:27:11.000Z</time>
      </trkpt>
      <trkpt lat="43.73782" lon="7.01787">
        <ele>842</ele>
        <time>2023-07-30T08:27:12.000Z</time>
      </trkpt>
      <trkpt lat="43.73779" lon="7.01788">
        <ele>842</ele>
        <time>2023-07-30T08:27:13.000Z</time>
      </trkpt>
      <trkpt lat="43.73776" lon="7.01788">
        <ele>842</ele>
        <time>2023-07-30T08:27:14.000Z</time>
      </trkpt>
      <trkpt lat="43.73773" lon="7.01788">
        <ele>842</ele>
        <time>2023-07-30T08:27:15.000Z</time>
      </trkpt>
      <trkpt lat="43.73768" lon="7.01788">
        <ele>842</ele>
        <time>2023-07-30T08:27:16.000Z</time>
      </trkpt>
      <trkpt lat="43.73764" lon="7.01789">
        <ele>842.20001220703</ele>
        <time>2023-07-30T08:27:17.000Z</time>
      </trkpt>
      <trkpt lat="43.73759" lon="7.01789">
        <ele>842.20001220703</ele>
        <time>2023-07-30T08:27:18.000Z</time>
      </trkpt>
      <trkpt lat="43.73753" lon="7.0179">
        <ele>842.20001220703</ele>
        <time>2023-07-30T08:27:19.000Z</time>
      </trkpt>
      <trkpt lat="43.73748" lon="7.01789">
        <ele>842.20001220703</ele>
        <time>2023-07-30T08:27:20.000Z</time>
      </trkpt>
      <trkpt lat="43.73743" lon="7.01788">
        <ele>842</ele>
        <time>2023-07-30T08:27:21.000Z</time>
      </trkpt>
      <trkpt lat="43.73737" lon="7.01786">
        <ele>841.59997558594</ele>
        <time>2023-07-30T08:27:22.000Z</time>
      </trkpt>
      <trkpt lat="43.73732" lon="7.01786">
        <ele>841.20001220703</ele>
        <time>2023-07-30T08:27:23.000Z</time>
      </trkpt>
      <trkpt lat="43.73728" lon="7.01785">
        <ele>841</ele>
        <time>2023-07-30T08:27:24.000Z</time>
      </trkpt>
      <trkpt lat="43.73724" lon="7.01786">
        <ele>840.79998779297</ele>
        <time>2023-07-30T08:27:25.000Z</time>
      </trkpt>
      <trkpt lat="43.73719" lon="7.01787">
        <ele>840.59997558594</ele>
        <time>2023-07-30T08:27:26.000Z</time>
      </trkpt>
      <trkpt lat="43.73714" lon="7.01789">
        <ele>840.40002441406</ele>
        <time>2023-07-30T08:27:27.000Z</time>
      </trkpt>
      <trkpt lat="43.73709" lon="7.01791">
        <ele>840.40002441406</ele>
        <time>2023-07-30T08:27:28.000Z</time>
      </trkpt>
      <trkpt lat="43.73703" lon="7.01793">
        <ele>839.79998779297</ele>
        <time>2023-07-30T08:27:29.000Z</time>
      </trkpt>
      <trkpt lat="43.73698" lon="7.01795">
        <ele>839.79998779297</ele>
        <time>2023-07-30T08:27:30.000Z</time>
      </trkpt>
      <trkpt lat="43.73692" lon="7.01796">
        <ele>839.20001220703</ele>
        <time>2023-07-30T08:27:31.000Z</time>
      </trkpt>
      <trkpt lat="43.73685" lon="7.01797">
        <ele>838.79998779297</ele>
        <time>2023-07-30T08:27:32.000Z</time>
      </trkpt>
      <trkpt lat="43.73679" lon="7.01798">
        <ele>838.40002441406</ele>
        <time>2023-07-30T08:27:33.000Z</time>
      </trkpt>
      <trkpt lat="43.73674" lon="7.01799">
        <ele>838.40002441406</ele>
        <time>2023-07-30T08:27:34.000Z</time>
      </trkpt>
      <trkpt lat="43.73669" lon="7.01799">
        <ele>838.40002441406</ele>
        <time>2023-07-30T08:27:35.000Z</time>
      </trkpt>
      <trkpt lat="43.73666" lon="7.018">
        <ele>838.20001220703</ele>
        <time>2023-07-30T08:27:36.000Z</time>
      </trkpt>
      <trkpt lat="43.73662" lon="7.018">
        <ele>838.20001220703</ele>
        <time>2023-07-30T08:27:37.000Z</time>
      </trkpt>
      <trkpt lat="43.73658" lon="7.018">
        <ele>838.20001220703</ele>
        <time>2023-07-30T08:27:38.000Z</time>
      </trkpt>
      <trkpt lat="43.73653" lon="7.018">
        <ele>838</ele>
        <time>2023-07-30T08:27:39.000Z</time>
      </trkpt>
      <trkpt lat="43.73648" lon="7.01799">
        <ele>838</ele>
        <time>2023-07-30T08:27:40.000Z</time>
      </trkpt>
      <trkpt lat="43.73644" lon="7.01798">
        <ele>838</ele>
        <time>2023-07-30T08:27:41.000Z</time>
      </trkpt>
      <trkpt lat="43.7364" lon="7.01797">
        <ele>837.79998779297</ele>
        <time>2023-07-30T08:27:42.000Z</time>
      </trkpt>
      <trkpt lat="43.73637" lon="7.01795">
        <ele>837.59997558594</ele>
        <time>2023-07-30T08:27:43.000Z</time>
      </trkpt>
      <trkpt lat="43.73634" lon="7.01793">
        <ele>837.59997558594</ele>
        <time>2023-07-30T08:27:44.000Z</time>
      </trkpt>
      <trkpt lat="43.73631" lon="7.01791">
        <ele>837.59997558594</ele>
        <time>2023-07-30T08:27:45.000Z</time>
      </trkpt>
      <trkpt lat="43.73628" lon="7.01788">
        <ele>837.59997558594</ele>
        <time>2023-07-30T08:27:46.000Z</time>
      </trkpt>
      <trkpt lat="43.73626" lon="7.01785">
        <ele>838.79998779297</ele>
        <time>2023-07-30T08:27:47.000Z</time>
      </trkpt>
      <trkpt lat="43.73624" lon="7.01783">
        <ele>838.79998779297</ele>
        <time>2023-07-30T08:27:48.000Z</time>
      </trkpt>
      <trkpt lat="43.73622" lon="7.01782">
        <ele>839</ele>
        <time>2023-07-30T08:27:49.000Z</time>
      </trkpt>
      <trkpt lat="43.73618" lon="7.01781">
        <ele>839.40002441406</ele>
        <time>2023-07-30T08:27:50.000Z</time>
      </trkpt>
      <trkpt lat="43.73614" lon="7.0178">
        <ele>839.40002441406</ele>
        <time>2023-07-30T08:27:51.000Z</time>
      </trkpt>
      <trkpt lat="43.7361" lon="7.01779">
        <ele>839.59997558594</ele>
        <time>2023-07-30T08:27:52.000Z</time>
      </trkpt>
      <trkpt lat="43.73607" lon="7.01776">
        <ele>839.59997558594</ele>
        <time>2023-07-30T08:27:53.000Z</time>
      </trkpt>
      <trkpt lat="43.73604" lon="7.01773">
        <ele>839.79998779297</ele>
        <time>2023-07-30T08:27:54.000Z</time>
      </trkpt>
      <trkpt lat="43.73602" lon="7.0177">
        <ele>839.79998779297</ele>
        <time>2023-07-30T08:27:55.000Z</time>
      </trkpt>
      <trkpt lat="43.73599" lon="7.01768">
        <ele>840</ele>
        <time>2023-07-30T08:27:56.000Z</time>
      </trkpt>
      <trkpt lat="43.73596" lon="7.01768">
        <ele>840</ele>
        <time>2023-07-30T08:27:57.000Z</time>
      </trkpt>
      <trkpt lat="43.73593" lon="7.01768">
        <ele>840</ele>
        <time>2023-07-30T08:27:58.000Z</time>
      </trkpt>
      <trkpt lat="43.7359" lon="7.01769">
        <ele>840</ele>
        <time>2023-07-30T08:27:59.000Z</time>
      </trkpt>
      <trkpt lat="43.73588" lon="7.01771">
        <ele>840</ele>
        <time>2023-07-30T08:28:00.000Z</time>
      </trkpt>
      <trkpt lat="43.73586" lon="7.01774">
        <ele>839.79998779297</ele>
        <time>2023-07-30T08:28:01.000Z</time>
      </trkpt>
      <trkpt lat="43.73585" lon="7.01777">
        <ele>839.59997558594</ele>
        <time>2023-07-30T08:28:02.000Z</time>
      </trkpt>
      <trkpt lat="43.73583" lon="7.01779">
        <ele>839.40002441406</ele>
        <time>2023-07-30T08:28:03.000Z</time>
      </trkpt>
      <trkpt lat="43.73582" lon="7.01781">
        <ele>839.20001220703</ele>
        <time>2023-07-30T08:28:04.000Z</time>
      </trkpt>
      <trkpt lat="43.73581" lon="7.01782">
        <ele>839.20001220703</ele>
        <time>2023-07-30T08:28:05.000Z</time>
      </trkpt>
      <trkpt lat="43.73579" lon="7.01784">
        <ele>839.20001220703</ele>
        <time>2023-07-30T08:28:06.000Z</time>
      </trkpt>
      <trkpt lat="43.73577" lon="7.01786">
        <ele>839.20001220703</ele>
        <time>2023-07-30T08:28:07.000Z</time>
      </trkpt>
      <trkpt lat="43.73574" lon="7.01787">
        <ele>839.20001220703</ele>
        <time>2023-07-30T08:28:08.000Z</time>
      </trkpt>
      <trkpt lat="43.73571" lon="7.01788">
        <ele>839.20001220703</ele>
        <time>2023-07-30T08:28:09.000Z</time>
      </trkpt>
      <trkpt lat="43.73568" lon="7.01788">
        <ele>839.40002441406</ele>
        <time>2023-07-30T08:28:10.000Z</time>
      </trkpt>
      <trkpt lat="43.73565" lon="7.01787">
        <ele>839.40002441406</ele>
        <time>2023-07-30T08:28:11.000Z</time>
      </trkpt>
      <trkpt lat="43.73562" lon="7.01785">
        <ele>839.40002441406</ele>
        <time>2023-07-30T08:28:12.000Z</time>
      </trkpt>
      <trkpt lat="43.73559" lon="7.01782">
        <ele>839.40002441406</ele>
        <time>2023-07-30T08:28:13.000Z</time>
      </trkpt>
      <trkpt lat="43.73556" lon="7.0178">
        <ele>839.59997558594</ele>
        <time>2023-07-30T08:28:14.000Z</time>
      </trkpt>
      <trkpt lat="43.73552" lon="7.01778">
        <ele>839.59997558594</ele>
        <time>2023-07-30T08:28:15.000Z</time>
      </trkpt>
      <trkpt lat="43.73548" lon="7.01777">
        <ele>839.59997558594</ele>
        <time>2023-07-30T08:28:16.000Z</time>
      </trkpt>
      <trkpt lat="43.73546" lon="7.01773">
        <ele>839.79998779297</ele>
        <time>2023-07-30T08:28:17.000Z</time>
      </trkpt>
      <trkpt lat="43.73544" lon="7.0177">
        <ele>840.59997558594</ele>
        <time>2023-07-30T08:28:18.000Z</time>
      </trkpt>
      <trkpt lat="43.73544" lon="7.01765">
        <ele>840.79998779297</ele>
        <time>2023-07-30T08:28:19.000Z</time>
      </trkpt>
      <trkpt lat="43.73544" lon="7.0176">
        <ele>841</ele>
        <time>2023-07-30T08:28:20.000Z</time>
      </trkpt>
      <trkpt lat="43.73542" lon="7.01755">
        <ele>841.40002441406</ele>
        <time>2023-07-30T08:28:21.000Z</time>
      </trkpt>
      <trkpt lat="43.73542" lon="7.0175">
        <ele>841.59997558594</ele>
        <time>2023-07-30T08:28:22.000Z</time>
      </trkpt>
      <trkpt lat="43.73541" lon="7.01744">
        <ele>841.59997558594</ele>
        <time>2023-07-30T08:28:23.000Z</time>
      </trkpt>
      <trkpt lat="43.73541" lon="7.01739">
        <ele>841.59997558594</ele>
        <time>2023-07-30T08:28:24.000Z</time>
      </trkpt>
      <trkpt lat="43.73541" lon="7.01733">
        <ele>842.20001220703</ele>
        <time>2023-07-30T08:28:25.000Z</time>
      </trkpt>
      <trkpt lat="43.73541" lon="7.01728">
        <ele>842.40002441406</ele>
        <time>2023-07-30T08:28:26.000Z</time>
      </trkpt>
      <trkpt lat="43.73541" lon="7.01723">
        <ele>842.59997558594</ele>
        <time>2023-07-30T08:28:27.000Z</time>
      </trkpt>
      <trkpt lat="43.7354" lon="7.01718">
        <ele>843</ele>
        <time>2023-07-30T08:28:28.000Z</time>
      </trkpt>
      <trkpt lat="43.73539" lon="7.01714">
        <ele>843</ele>
        <time>2023-07-30T08:28:29.000Z</time>
      </trkpt>
      <trkpt lat="43.73536" lon="7.01709">
        <ele>844</ele>
        <time>2023-07-30T08:28:30.000Z</time>
      </trkpt>
      <trkpt lat="43.73534" lon="7.01706">
        <ele>844.20001220703</ele>
        <time>2023-07-30T08:28:31.000Z</time>
      </trkpt>
      <trkpt lat="43.73531" lon="7.01702">
        <ele>844.59997558594</ele>
        <time>2023-07-30T08:28:32.000Z</time>
      </trkpt>
      <trkpt lat="43.73528" lon="7.01698">
        <ele>844.79998779297</ele>
        <time>2023-07-30T08:28:33.000Z</time>
      </trkpt>
      <trkpt lat="43.73525" lon="7.01695">
        <ele>845</ele>
        <time>2023-07-30T08:28:34.000Z</time>
      </trkpt>
      <trkpt lat="43.73522" lon="7.01691">
        <ele>845</ele>
        <time>2023-07-30T08:28:35.000Z</time>
      </trkpt>
      <trkpt lat="43.73518" lon="7.01685">
        <ele>845</ele>
        <time>2023-07-30T08:28:36.000Z</time>
      </trkpt>
      <trkpt lat="43.73514" lon="7.0168">
        <ele>845</ele>
        <time>2023-07-30T08:28:37.000Z</time>
      </trkpt>
      <trkpt lat="43.7351" lon="7.01675">
        <ele>845</ele>
        <time>2023-07-30T08:28:38.000Z</time>
      </trkpt>
      <trkpt lat="43.73506" lon="7.01671">
        <ele>845</ele>
        <time>2023-07-30T08:28:39.000Z</time>
      </trkpt>
      <trkpt lat="43.73502" lon="7.01667">
        <ele>844.59997558594</ele>
        <time>2023-07-30T08:28:40.000Z</time>
      </trkpt>
      <trkpt lat="43.73499" lon="7.01662">
        <ele>844</ele>
        <time>2023-07-30T08:28:41.000Z</time>
      </trkpt>
      <trkpt lat="43.73494" lon="7.01657">
        <ele>843.40002441406</ele>
        <time>2023-07-30T08:28:42.000Z</time>
      </trkpt>
      <trkpt lat="43.73489" lon="7.01654">
        <ele>843.20001220703</ele>
        <time>2023-07-30T08:28:43.000Z</time>
      </trkpt>
      <trkpt lat="43.73485" lon="7.0165">
        <ele>843.20001220703</ele>
        <time>2023-07-30T08:28:44.000Z</time>
      </trkpt>
      <trkpt lat="43.7348" lon="7.01647">
        <ele>843.20001220703</ele>
        <time>2023-07-30T08:28:45.000Z</time>
      </trkpt>
      <trkpt lat="43.73475" lon="7.01644">
        <ele>843</ele>
        <time>2023-07-30T08:28:46.000Z</time>
      </trkpt>
      <trkpt lat="43.73471" lon="7.0164">
        <ele>843</ele>
        <time>2023-07-30T08:28:47.000Z</time>
      </trkpt>
      <trkpt lat="43.73467" lon="7.01638">
        <ele>843</ele>
        <time>2023-07-30T08:28:48.000Z</time>
      </trkpt>
      <trkpt lat="43.73463" lon="7.01634">
        <ele>842.59997558594</ele>
        <time>2023-07-30T08:28:49.000Z</time>
      </trkpt>
      <trkpt lat="43.73459" lon="7.01631">
        <ele>842.40002441406</ele>
        <time>2023-07-30T08:28:50.000Z</time>
      </trkpt>
      <trkpt lat="43.73454" lon="7.01627">
        <ele>842</ele>
        <time>2023-07-30T08:28:51.000Z</time>
      </trkpt>
      <trkpt lat="43.7345" lon="7.01623">
        <ele>842</ele>
        <time>2023-07-30T08:28:52.000Z</time>
      </trkpt>
      <trkpt lat="43.73447" lon="7.01619">
        <ele>842</ele>
        <time>2023-07-30T08:28:53.000Z</time>
      </trkpt>
      <trkpt lat="43.73443" lon="7.01616">
        <ele>842</ele>
        <time>2023-07-30T08:28:54.000Z</time>
      </trkpt>
      <trkpt lat="43.73438" lon="7.01612">
        <ele>841.79998779297</ele>
        <time>2023-07-30T08:28:55.000Z</time>
      </trkpt>
      <trkpt lat="43.73435" lon="7.01608">
        <ele>841.79998779297</ele>
        <time>2023-07-30T08:28:56.000Z</time>
      </trkpt>
      <trkpt lat="43.7343" lon="7.01605">
        <ele>841.79998779297</ele>
        <time>2023-07-30T08:28:57.000Z</time>
      </trkpt>
      <trkpt lat="43.73426" lon="7.01601">
        <ele>842</ele>
        <time>2023-07-30T08:28:58.000Z</time>
      </trkpt>
      <trkpt lat="43.73423" lon="7.01598">
        <ele>842</ele>
        <time>2023-07-30T08:28:59.000Z</time>
      </trkpt>
      <trkpt lat="43.73419" lon="7.01595">
        <ele>842.40002441406</ele>
        <time>2023-07-30T08:29:00.000Z</time>
      </trkpt>
      <trkpt lat="43.73415" lon="7.01592">
        <ele>842.40002441406</ele>
        <time>2023-07-30T08:29:01.000Z</time>
      </trkpt>
      <trkpt lat="43.73412" lon="7.01589">
        <ele>842.59997558594</ele>
        <time>2023-07-30T08:29:02.000Z</time>
      </trkpt>
      <trkpt lat="43.73409" lon="7.01585">
        <ele>842.59997558594</ele>
        <time>2023-07-30T08:29:03.000Z</time>
      </trkpt>
      <trkpt lat="43.73406" lon="7.01582">
        <ele>842.79998779297</ele>
        <time>2023-07-30T08:29:04.000Z</time>
      </trkpt>
      <trkpt lat="43.73403" lon="7.01579">
        <ele>842.79998779297</ele>
        <time>2023-07-30T08:29:05.000Z</time>
      </trkpt>
      <trkpt lat="43.73399" lon="7.01577">
        <ele>843.40002441406</ele>
        <time>2023-07-30T08:29:06.000Z</time>
      </trkpt>
      <trkpt lat="43.73395" lon="7.01574">
        <ele>843.59997558594</ele>
        <time>2023-07-30T08:29:07.000Z</time>
      </trkpt>
      <trkpt lat="43.73391" lon="7.01571">
        <ele>843.59997558594</ele>
        <time>2023-07-30T08:29:08.000Z</time>
      </trkpt>
      <trkpt lat="43.73387" lon="7.01567">
        <ele>843.79998779297</ele>
        <time>2023-07-30T08:29:09.000Z</time>
      </trkpt>
      <trkpt lat="43.73382" lon="7.01564">
        <ele>843.79998779297</ele>
        <time>2023-07-30T08:29:10.000Z</time>
      </trkpt>
      <trkpt lat="43.73376" lon="7.0156">
        <ele>843.79998779297</ele>
        <time>2023-07-30T08:29:11.000Z</time>
      </trkpt>
      <trkpt lat="43.73371" lon="7.01556">
        <ele>843.59997558594</ele>
        <time>2023-07-30T08:29:12.000Z</time>
      </trkpt>
      <trkpt lat="43.73366" lon="7.01553">
        <ele>843.59997558594</ele>
        <time>2023-07-30T08:29:13.000Z</time>
      </trkpt>
      <trkpt lat="43.73361" lon="7.0155">
        <ele>843.40002441406</ele>
        <time>2023-07-30T08:29:14.000Z</time>
      </trkpt>
      <trkpt lat="43.73357" lon="7.01545">
        <ele>843.40002441406</ele>
        <time>2023-07-30T08:29:15.000Z</time>
      </trkpt>
      <trkpt lat="43.73353" lon="7.0154">
        <ele>843</ele>
        <time>2023-07-30T08:29:16.000Z</time>
      </trkpt>
      <trkpt lat="43.73349" lon="7.01534">
        <ele>843</ele>
        <time>2023-07-30T08:29:17.000Z</time>
      </trkpt>
      <trkpt lat="43.73344" lon="7.01528">
        <ele>843</ele>
        <time>2023-07-30T08:29:18.000Z</time>
      </trkpt>
      <trkpt lat="43.7334" lon="7.01521">
        <ele>843</ele>
        <time>2023-07-30T08:29:19.000Z</time>
      </trkpt>
      <trkpt lat="43.73335" lon="7.01515">
        <ele>843</ele>
        <time>2023-07-30T08:29:20.000Z</time>
      </trkpt>
      <trkpt lat="43.73332" lon="7.01509">
        <ele>843</ele>
        <time>2023-07-30T08:29:21.000Z</time>
      </trkpt>
      <trkpt lat="43.73328" lon="7.01503">
        <ele>843.40002441406</ele>
        <time>2023-07-30T08:29:22.000Z</time>
      </trkpt>
      <trkpt lat="43.73324" lon="7.01496">
        <ele>843.40002441406</ele>
        <time>2023-07-30T08:29:23.000Z</time>
      </trkpt>
      <trkpt lat="43.73319" lon="7.0149">
        <ele>843.79998779297</ele>
        <time>2023-07-30T08:29:24.000Z</time>
      </trkpt>
      <trkpt lat="43.73314" lon="7.01485">
        <ele>844</ele>
        <time>2023-07-30T08:29:25.000Z</time>
      </trkpt>
      <trkpt lat="43.73309" lon="7.01481">
        <ele>844.59997558594</ele>
        <time>2023-07-30T08:29:26.000Z</time>
      </trkpt>
      <trkpt lat="43.73305" lon="7.01476">
        <ele>844.59997558594</ele>
        <time>2023-07-30T08:29:27.000Z</time>
      </trkpt>
      <trkpt lat="43.733" lon="7.01471">
        <ele>845</ele>
        <time>2023-07-30T08:29:28.000Z</time>
      </trkpt>
      <trkpt lat="43.73296" lon="7.01466">
        <ele>845.40002441406</ele>
        <time>2023-07-30T08:29:29.000Z</time>
      </trkpt>
      <trkpt lat="43.73292" lon="7.01462">
        <ele>845.40002441406</ele>
        <time>2023-07-30T08:29:30.000Z</time>
      </trkpt>
      <trkpt lat="43.73286" lon="7.01457">
        <ele>845.59997558594</ele>
        <time>2023-07-30T08:29:31.000Z</time>
      </trkpt>
      <trkpt lat="43.73281" lon="7.01452">
        <ele>845.79998779297</ele>
        <time>2023-07-30T08:29:32.000Z</time>
      </trkpt>
      <trkpt lat="43.73276" lon="7.01447">
        <ele>845.59997558594</ele>
        <time>2023-07-30T08:29:33.000Z</time>
      </trkpt>
      <trkpt lat="43.73271" lon="7.01443">
        <ele>845.59997558594</ele>
        <time>2023-07-30T08:29:34.000Z</time>
      </trkpt>
      <trkpt lat="43.73266" lon="7.01439">
        <ele>845.59997558594</ele>
        <time>2023-07-30T08:29:35.000Z</time>
      </trkpt>
      <trkpt lat="43.73262" lon="7.01435">
        <ele>845.59997558594</ele>
        <time>2023-07-30T08:29:36.000Z</time>
      </trkpt>
      <trkpt lat="43.73258" lon="7.01431">
        <ele>845.59997558594</ele>
        <time>2023-07-30T08:29:37.000Z</time>
      </trkpt>
      <trkpt lat="43.73253" lon="7.01427">
        <ele>845.40002441406</ele>
        <time>2023-07-30T08:29:38.000Z</time>
      </trkpt>
      <trkpt lat="43.73248" lon="7.01424">
        <ele>845</ele>
        <time>2023-07-30T08:29:39.000Z</time>
      </trkpt>
      <trkpt lat="43.73243" lon="7.0142">
        <ele>845</ele>
        <time>2023-07-30T08:29:40.000Z</time>
      </trkpt>
      <trkpt lat="43.73239" lon="7.01415">
        <ele>845</ele>
        <time>2023-07-30T08:29:41.000Z</time>
      </trkpt>
      <trkpt lat="43.73235" lon="7.01411">
        <ele>845</ele>
        <time>2023-07-30T08:29:42.000Z</time>
      </trkpt>
      <trkpt lat="43.7323" lon="7.01406">
        <ele>845</ele>
        <time>2023-07-30T08:29:43.000Z</time>
      </trkpt>
      <trkpt lat="43.73227" lon="7.01401">
        <ele>845</ele>
        <time>2023-07-30T08:29:44.000Z</time>
      </trkpt>
      <trkpt lat="43.73225" lon="7.01397">
        <ele>845.40002441406</ele>
        <time>2023-07-30T08:29:45.000Z</time>
      </trkpt>
      <trkpt lat="43.73223" lon="7.01393">
        <ele>845.40002441406</ele>
        <time>2023-07-30T08:29:46.000Z</time>
      </trkpt>
      <trkpt lat="43.73221" lon="7.01389">
        <ele>845.79998779297</ele>
        <time>2023-07-30T08:29:47.000Z</time>
      </trkpt>
      <trkpt lat="43.73218" lon="7.01385">
        <ele>846.20001220703</ele>
        <time>2023-07-30T08:29:48.000Z</time>
      </trkpt>
      <trkpt lat="43.73215" lon="7.01382">
        <ele>847</ele>
        <time>2023-07-30T08:29:49.000Z</time>
      </trkpt>
      <trkpt lat="43.73212" lon="7.01378">
        <ele>847</ele>
        <time>2023-07-30T08:29:50.000Z</time>
      </trkpt>
      <trkpt lat="43.73209" lon="7.01374">
        <ele>847.79998779297</ele>
        <time>2023-07-30T08:29:51.000Z</time>
      </trkpt>
      <trkpt lat="43.73207" lon="7.01371">
        <ele>848.40002441406</ele>
        <time>2023-07-30T08:29:52.000Z</time>
      </trkpt>
      <trkpt lat="43.73205" lon="7.01367">
        <ele>848.40002441406</ele>
        <time>2023-07-30T08:29:53.000Z</time>
      </trkpt>
      <trkpt lat="43.73202" lon="7.01363">
        <ele>849.40002441406</ele>
        <time>2023-07-30T08:29:54.000Z</time>
      </trkpt>
      <trkpt lat="43.73201" lon="7.0136">
        <ele>849.40002441406</ele>
        <time>2023-07-30T08:29:55.000Z</time>
      </trkpt>
      <trkpt lat="43.73199" lon="7.01357">
        <ele>850</ele>
        <time>2023-07-30T08:29:56.000Z</time>
      </trkpt>
      <trkpt lat="43.73197" lon="7.01354">
        <ele>850.40002441406</ele>
        <time>2023-07-30T08:29:57.000Z</time>
      </trkpt>
      <trkpt lat="43.73195" lon="7.0135">
        <ele>851.20001220703</ele>
        <time>2023-07-30T08:29:58.000Z</time>
      </trkpt>
      <trkpt lat="43.73192" lon="7.01347">
        <ele>851.59997558594</ele>
        <time>2023-07-30T08:29:59.000Z</time>
      </trkpt>
      <trkpt lat="43.7319" lon="7.01344">
        <ele>852</ele>
        <time>2023-07-30T08:30:00.000Z</time>
      </trkpt>
      <trkpt lat="43.73187" lon="7.01341">
        <ele>853</ele>
        <time>2023-07-30T08:30:01.000Z</time>
      </trkpt>
      <trkpt lat="43.73184" lon="7.01339">
        <ele>853</ele>
        <time>2023-07-30T08:30:02.000Z</time>
      </trkpt>
      <trkpt lat="43.73182" lon="7.01336">
        <ele>853</ele>
        <time>2023-07-30T08:30:03.000Z</time>
      </trkpt>
      <trkpt lat="43.7318" lon="7.01333">
        <ele>853.59997558594</ele>
        <time>2023-07-30T08:30:04.000Z</time>
      </trkpt>
      <trkpt lat="43.73178" lon="7.01331">
        <ele>854.20001220703</ele>
        <time>2023-07-30T08:30:05.000Z</time>
      </trkpt>
      <trkpt lat="43.73176" lon="7.01329">
        <ele>854.79998779297</ele>
        <time>2023-07-30T08:30:06.000Z</time>
      </trkpt>
      <trkpt lat="43.73174" lon="7.01327">
        <ele>855.20001220703</ele>
        <time>2023-07-30T08:30:07.000Z</time>
      </trkpt>
      <trkpt lat="43.73172" lon="7.01324">
        <ele>855.59997558594</ele>
        <time>2023-07-30T08:30:08.000Z</time>
      </trkpt>
      <trkpt lat="43.7317" lon="7.01321">
        <ele>856.40002441406</ele>
        <time>2023-07-30T08:30:09.000Z</time>
      </trkpt>
      <trkpt lat="43.73167" lon="7.01319">
        <ele>856.79998779297</ele>
        <time>2023-07-30T08:30:10.000Z</time>
      </trkpt>
      <trkpt lat="43.73164" lon="7.01316">
        <ele>857</ele>
        <time>2023-07-30T08:30:11.000Z</time>
      </trkpt>
      <trkpt lat="43.73161" lon="7.01313">
        <ele>858</ele>
        <time>2023-07-30T08:30:12.000Z</time>
      </trkpt>
      <trkpt lat="43.73157" lon="7.01311">
        <ele>858.40002441406</ele>
        <time>2023-07-30T08:30:13.000Z</time>
      </trkpt>
      <trkpt lat="43.73154" lon="7.01309">
        <ele>858.79998779297</ele>
        <time>2023-07-30T08:30:14.000Z</time>
      </trkpt>
      <trkpt lat="43.7315" lon="7.01307">
        <ele>858.79998779297</ele>
        <time>2023-07-30T08:30:15.000Z</time>
      </trkpt>
      <trkpt lat="43.73147" lon="7.01306">
        <ele>859.20001220703</ele>
        <time>2023-07-30T08:30:16.000Z</time>
      </trkpt>
      <trkpt lat="43.73143" lon="7.01305">
        <ele>859.40002441406</ele>
        <time>2023-07-30T08:30:17.000Z</time>
      </trkpt>
      <trkpt lat="43.73139" lon="7.01304">
        <ele>859.59997558594</ele>
        <time>2023-07-30T08:30:18.000Z</time>
      </trkpt>
      <trkpt lat="43.73136" lon="7.01305">
        <ele>859.79998779297</ele>
        <time>2023-07-30T08:30:19.000Z</time>
      </trkpt>
      <trkpt lat="43.73132" lon="7.01305">
        <ele>860</ele>
        <time>2023-07-30T08:30:20.000Z</time>
      </trkpt>
      <trkpt lat="43.73129" lon="7.01305">
        <ele>860.40002441406</ele>
        <time>2023-07-30T08:30:21.000Z</time>
      </trkpt>
      <trkpt lat="43.73125" lon="7.01305">
        <ele>860.40002441406</ele>
        <time>2023-07-30T08:30:22.000Z</time>
      </trkpt>
      <trkpt lat="43.73122" lon="7.01305">
        <ele>860.59997558594</ele>
        <time>2023-07-30T08:30:23.000Z</time>
      </trkpt>
      <trkpt lat="43.73119" lon="7.01305">
        <ele>861</ele>
        <time>2023-07-30T08:30:24.000Z</time>
      </trkpt>
      <trkpt lat="43.73115" lon="7.01305">
        <ele>861</ele>
        <time>2023-07-30T08:30:25.000Z</time>
      </trkpt>
      <trkpt lat="43.73111" lon="7.01305">
        <ele>861</ele>
        <time>2023-07-30T08:30:26.000Z</time>
      </trkpt>
      <trkpt lat="43.73108" lon="7.01306">
        <ele>861.40002441406</ele>
        <time>2023-07-30T08:30:27.000Z</time>
      </trkpt>
      <trkpt lat="43.73105" lon="7.01307">
        <ele>862</ele>
        <time>2023-07-30T08:30:28.000Z</time>
      </trkpt>
      <trkpt lat="43.73102" lon="7.01306">
        <ele>862.20001220703</ele>
        <time>2023-07-30T08:30:29.000Z</time>
      </trkpt>
      <trkpt lat="43.731" lon="7.01305">
        <ele>862.20001220703</ele>
        <time>2023-07-30T08:30:30.000Z</time>
      </trkpt>
      <trkpt lat="43.73099" lon="7.01302">
        <ele>862.20001220703</ele>
        <time>2023-07-30T08:30:31.000Z</time>
      </trkpt>
      <trkpt lat="43.73098" lon="7.01299">
        <ele>862.40002441406</ele>
        <time>2023-07-30T08:30:32.000Z</time>
      </trkpt>
      <trkpt lat="43.73096" lon="7.01296">
        <ele>862.40002441406</ele>
        <time>2023-07-30T08:30:33.000Z</time>
      </trkpt>
      <trkpt lat="43.73094" lon="7.01291">
        <ele>862.40002441406</ele>
        <time>2023-07-30T08:30:34.000Z</time>
      </trkpt>
      <trkpt lat="43.73093" lon="7.01287">
        <ele>862.40002441406</ele>
        <time>2023-07-30T08:30:35.000Z</time>
      </trkpt>
      <trkpt lat="43.73091" lon="7.01283">
        <ele>862.59997558594</ele>
        <time>2023-07-30T08:30:36.000Z</time>
      </trkpt>
      <trkpt lat="43.73088" lon="7.01279">
        <ele>863</ele>
        <time>2023-07-30T08:30:37.000Z</time>
      </trkpt>
      <trkpt lat="43.73086" lon="7.01274">
        <ele>863</ele>
        <time>2023-07-30T08:30:38.000Z</time>
      </trkpt>
      <trkpt lat="43.73084" lon="7.01269">
        <ele>863</ele>
        <time>2023-07-30T08:30:39.000Z</time>
      </trkpt>
      <trkpt lat="43.73082" lon="7.01266">
        <ele>863.20001220703</ele>
        <time>2023-07-30T08:30:40.000Z</time>
      </trkpt>
      <trkpt lat="43.7308" lon="7.01262">
        <ele>863.20001220703</ele>
        <time>2023-07-30T08:30:41.000Z</time>
      </trkpt>
      <trkpt lat="43.73078" lon="7.01257">
        <ele>863.20001220703</ele>
        <time>2023-07-30T08:30:42.000Z</time>
      </trkpt>
      <trkpt lat="43.73076" lon="7.01253">
        <ele>863.40002441406</ele>
        <time>2023-07-30T08:30:43.000Z</time>
      </trkpt>
      <trkpt lat="43.73075" lon="7.0125">
        <ele>863.40002441406</ele>
        <time>2023-07-30T08:30:44.000Z</time>
      </trkpt>
      <trkpt lat="43.73074" lon="7.01246">
        <ele>863.40002441406</ele>
        <time>2023-07-30T08:30:45.000Z</time>
      </trkpt>
      <trkpt lat="43.73073" lon="7.01241">
        <ele>863.59997558594</ele>
        <time>2023-07-30T08:30:46.000Z</time>
      </trkpt>
      <trkpt lat="43.73071" lon="7.01236">
        <ele>863.59997558594</ele>
        <time>2023-07-30T08:30:47.000Z</time>
      </trkpt>
      <trkpt lat="43.73069" lon="7.01231">
        <ele>863.59997558594</ele>
        <time>2023-07-30T08:30:48.000Z</time>
      </trkpt>
      <trkpt lat="43.73068" lon="7.01227">
        <ele>863.59997558594</ele>
        <time>2023-07-30T08:30:49.000Z</time>
      </trkpt>
      <trkpt lat="43.73066" lon="7.01224">
        <ele>863.79998779297</ele>
        <time>2023-07-30T08:30:50.000Z</time>
      </trkpt>
      <trkpt lat="43.73063" lon="7.01219">
        <ele>863.79998779297</ele>
        <time>2023-07-30T08:30:51.000Z</time>
      </trkpt>
      <trkpt lat="43.73061" lon="7.01216">
        <ele>863.59997558594</ele>
        <time>2023-07-30T08:30:52.000Z</time>
      </trkpt>
      <trkpt lat="43.73059" lon="7.01212">
        <ele>863.59997558594</ele>
        <time>2023-07-30T08:30:53.000Z</time>
      </trkpt>
      <trkpt lat="43.73056" lon="7.0121">
        <ele>863.59997558594</ele>
        <time>2023-07-30T08:30:54.000Z</time>
      </trkpt>
      <trkpt lat="43.73054" lon="7.01207">
        <ele>863.59997558594</ele>
        <time>2023-07-30T08:30:55.000Z</time>
      </trkpt>
      <trkpt lat="43.73051" lon="7.01205">
        <ele>863.40002441406</ele>
        <time>2023-07-30T08:30:56.000Z</time>
      </trkpt>
      <trkpt lat="43.73049" lon="7.01204">
        <ele>863.40002441406</ele>
        <time>2023-07-30T08:30:57.000Z</time>
      </trkpt>
      <trkpt lat="43.73046" lon="7.01202">
        <ele>863.20001220703</ele>
        <time>2023-07-30T08:30:58.000Z</time>
      </trkpt>
      <trkpt lat="43.73044" lon="7.012">
        <ele>863</ele>
        <time>2023-07-30T08:30:59.000Z</time>
      </trkpt>
      <trkpt lat="43.73041" lon="7.01198">
        <ele>863</ele>
        <time>2023-07-30T08:31:00.000Z</time>
      </trkpt>
      <trkpt lat="43.73038" lon="7.01197">
        <ele>862.79998779297</ele>
        <time>2023-07-30T08:31:01.000Z</time>
      </trkpt>
      <trkpt lat="43.73034" lon="7.01195">
        <ele>862.59997558594</ele>
        <time>2023-07-30T08:31:02.000Z</time>
      </trkpt>
      <trkpt lat="43.7303" lon="7.01194">
        <ele>862.40002441406</ele>
        <time>2023-07-30T08:31:03.000Z</time>
      </trkpt>
      <trkpt lat="43.73024" lon="7.01193">
        <ele>862</ele>
        <time>2023-07-30T08:31:04.000Z</time>
      </trkpt>
      <trkpt lat="43.73019" lon="7.01191">
        <ele>861.79998779297</ele>
        <time>2023-07-30T08:31:05.000Z</time>
      </trkpt>
      <trkpt lat="43.73014" lon="7.01189">
        <ele>861.59997558594</ele>
        <time>2023-07-30T08:31:06.000Z</time>
      </trkpt>
      <trkpt lat="43.73011" lon="7.01184">
        <ele>861.59997558594</ele>
        <time>2023-07-30T08:31:07.000Z</time>
      </trkpt>
      <trkpt lat="43.73008" lon="7.01177">
        <ele>860.79998779297</ele>
        <time>2023-07-30T08:31:08.000Z</time>
      </trkpt>
      <trkpt lat="43.73006" lon="7.01173">
        <ele>860.79998779297</ele>
        <time>2023-07-30T08:31:09.000Z</time>
      </trkpt>
      <trkpt lat="43.73004" lon="7.01168">
        <ele>860.79998779297</ele>
        <time>2023-07-30T08:31:10.000Z</time>
      </trkpt>
      <trkpt lat="43.73002" lon="7.01162">
        <ele>860.79998779297</ele>
        <time>2023-07-30T08:31:11.000Z</time>
      </trkpt>
      <trkpt lat="43.73003" lon="7.01156">
        <ele>860.40002441406</ele>
        <time>2023-07-30T08:31:12.000Z</time>
      </trkpt>
      <trkpt lat="43.73003" lon="7.01152">
        <ele>860.40002441406</ele>
        <time>2023-07-30T08:31:13.000Z</time>
      </trkpt>
      <trkpt lat="43.73005" lon="7.01148">
        <ele>860.40002441406</ele>
        <time>2023-07-30T08:31:14.000Z</time>
      </trkpt>
      <trkpt lat="43.73007" lon="7.01145">
        <ele>860.40002441406</ele>
        <time>2023-07-30T08:31:15.000Z</time>
      </trkpt>
      <trkpt lat="43.73009" lon="7.01143">
        <ele>860.40002441406</ele>
        <time>2023-07-30T08:31:16.000Z</time>
      </trkpt>
      <trkpt lat="43.73011" lon="7.0114">
        <ele>860.40002441406</ele>
        <time>2023-07-30T08:31:17.000Z</time>
      </trkpt>
      <trkpt lat="43.73013" lon="7.01137">
        <ele>860.59997558594</ele>
        <time>2023-07-30T08:31:18.000Z</time>
      </trkpt>
      <trkpt lat="43.73016" lon="7.01133">
        <ele>860.59997558594</ele>
        <time>2023-07-30T08:31:19.000Z</time>
      </trkpt>
      <trkpt lat="43.73018" lon="7.01131">
        <ele>861.20001220703</ele>
        <time>2023-07-30T08:31:20.000Z</time>
      </trkpt>
      <trkpt lat="43.7302" lon="7.01128">
        <ele>861.40002441406</ele>
        <time>2023-07-30T08:31:21.000Z</time>
      </trkpt>
      <trkpt lat="43.73022" lon="7.01126">
        <ele>862.20001220703</ele>
        <time>2023-07-30T08:31:22.000Z</time>
      </trkpt>
      <trkpt lat="43.73023" lon="7.01124">
        <ele>862.40002441406</ele>
        <time>2023-07-30T08:31:23.000Z</time>
      </trkpt>
      <trkpt lat="43.73025" lon="7.01121">
        <ele>862.79998779297</ele>
        <time>2023-07-30T08:31:24.000Z</time>
      </trkpt>
      <trkpt lat="43.73027" lon="7.01119">
        <ele>863.40002441406</ele>
        <time>2023-07-30T08:31:25.000Z</time>
      </trkpt>
      <trkpt lat="43.73028" lon="7.01116">
        <ele>864.20001220703</ele>
        <time>2023-07-30T08:31:26.000Z</time>
      </trkpt>
      <trkpt lat="43.73029" lon="7.01113">
        <ele>864.40002441406</ele>
        <time>2023-07-30T08:31:27.000Z</time>
      </trkpt>
      <trkpt lat="43.73029" lon="7.01109">
        <ele>865</ele>
        <time>2023-07-30T08:31:28.000Z</time>
      </trkpt>
      <trkpt lat="43.7303" lon="7.01105">
        <ele>865.40002441406</ele>
        <time>2023-07-30T08:31:29.000Z</time>
      </trkpt>
      <trkpt lat="43.7303" lon="7.01102">
        <ele>865.79998779297</ele>
        <time>2023-07-30T08:31:30.000Z</time>
      </trkpt>
      <trkpt lat="43.73029" lon="7.01099">
        <ele>866.20001220703</ele>
        <time>2023-07-30T08:31:31.000Z</time>
      </trkpt>
      <trkpt lat="43.73029" lon="7.01096">
        <ele>866.79998779297</ele>
        <time>2023-07-30T08:31:32.000Z</time>
      </trkpt>
      <trkpt lat="43.73029" lon="7.01093">
        <ele>867.20001220703</ele>
        <time>2023-07-30T08:31:33.000Z</time>
      </trkpt>
      <trkpt lat="43.73028" lon="7.0109">
        <ele>867.79998779297</ele>
        <time>2023-07-30T08:31:34.000Z</time>
      </trkpt>
      <trkpt lat="43.73028" lon="7.01088">
        <ele>868</ele>
        <time>2023-07-30T08:31:35.000Z</time>
      </trkpt>
      <trkpt lat="43.73027" lon="7.01084">
        <ele>868.20001220703</ele>
        <time>2023-07-30T08:31:36.000Z</time>
      </trkpt>
      <trkpt lat="43.73026" lon="7.01082">
        <ele>868.59997558594</ele>
        <time>2023-07-30T08:31:37.000Z</time>
      </trkpt>
      <trkpt lat="43.73025" lon="7.01079">
        <ele>868.59997558594</ele>
        <time>2023-07-30T08:31:38.000Z</time>
      </trkpt>
      <trkpt lat="43.73024" lon="7.01075">
        <ele>869</ele>
        <time>2023-07-30T08:31:39.000Z</time>
      </trkpt>
      <trkpt lat="43.73022" lon="7.01073">
        <ele>869</ele>
        <time>2023-07-30T08:31:40.000Z</time>
      </trkpt>
      <trkpt lat="43.73021" lon="7.0107">
        <ele>869</ele>
        <time>2023-07-30T08:31:41.000Z</time>
      </trkpt>
      <trkpt lat="43.7302" lon="7.01067">
        <ele>869</ele>
        <time>2023-07-30T08:31:42.000Z</time>
      </trkpt>
      <trkpt lat="43.73018" lon="7.01063">
        <ele>869</ele>
        <time>2023-07-30T08:31:43.000Z</time>
      </trkpt>
      <trkpt lat="43.73017" lon="7.0106">
        <ele>869</ele>
        <time>2023-07-30T08:31:44.000Z</time>
      </trkpt>
      <trkpt lat="43.73016" lon="7.01057">
        <ele>869</ele>
        <time>2023-07-30T08:31:45.000Z</time>
      </trkpt>
      <trkpt lat="43.73015" lon="7.01054">
        <ele>869</ele>
        <time>2023-07-30T08:31:46.000Z</time>
      </trkpt>
      <trkpt lat="43.73014" lon="7.0105">
        <ele>869</ele>
        <time>2023-07-30T08:31:47.000Z</time>
      </trkpt>
      <trkpt lat="43.73013" lon="7.01046">
        <ele>869.20001220703</ele>
        <time>2023-07-30T08:31:48.000Z</time>
      </trkpt>
      <trkpt lat="43.73012" lon="7.01043">
        <ele>869.20001220703</ele>
        <time>2023-07-30T08:31:49.000Z</time>
      </trkpt>
      <trkpt lat="43.73012" lon="7.0104">
        <ele>869.40002441406</ele>
        <time>2023-07-30T08:31:50.000Z</time>
      </trkpt>
      <trkpt lat="43.73011" lon="7.01037">
        <ele>869.59997558594</ele>
        <time>2023-07-30T08:31:51.000Z</time>
      </trkpt>
      <trkpt lat="43.7301" lon="7.01034">
        <ele>869.79998779297</ele>
        <time>2023-07-30T08:31:52.000Z</time>
      </trkpt>
      <trkpt lat="43.73009" lon="7.01031">
        <ele>869.79998779297</ele>
        <time>2023-07-30T08:31:53.000Z</time>
      </trkpt>
      <trkpt lat="43.73008" lon="7.01028">
        <ele>870</ele>
        <time>2023-07-30T08:31:54.000Z</time>
      </trkpt>
      <trkpt lat="43.73007" lon="7.01024">
        <ele>870</ele>
        <time>2023-07-30T08:31:55.000Z</time>
      </trkpt>
      <trkpt lat="43.73007" lon="7.01019">
        <ele>870.20001220703</ele>
        <time>2023-07-30T08:31:56.000Z</time>
      </trkpt>
      <trkpt lat="43.73005" lon="7.01015">
        <ele>870.79998779297</ele>
        <time>2023-07-30T08:31:57.000Z</time>
      </trkpt>
      <trkpt lat="43.73004" lon="7.0101">
        <ele>871</ele>
        <time>2023-07-30T08:31:58.000Z</time>
      </trkpt>
      <trkpt lat="43.73002" lon="7.01004">
        <ele>871.59997558594</ele>
        <time>2023-07-30T08:31:59.000Z</time>
      </trkpt>
      <trkpt lat="43.73" lon="7.00999">
        <ele>872.79998779297</ele>
        <time>2023-07-30T08:32:00.000Z</time>
      </trkpt>
      <trkpt lat="43.72998" lon="7.00993">
        <ele>873.40002441406</ele>
        <time>2023-07-30T08:32:01.000Z</time>
      </trkpt>
      <trkpt lat="43.72996" lon="7.00986">
        <ele>873.40002441406</ele>
        <time>2023-07-30T08:32:02.000Z</time>
      </trkpt>
      <trkpt lat="43.72995" lon="7.0098">
        <ele>873.40002441406</ele>
        <time>2023-07-30T08:32:03.000Z</time>
      </trkpt>
      <trkpt lat="43.72994" lon="7.00974">
        <ele>873.40002441406</ele>
        <time>2023-07-30T08:32:04.000Z</time>
      </trkpt>
      <trkpt lat="43.72993" lon="7.00968">
        <ele>874.20001220703</ele>
        <time>2023-07-30T08:32:05.000Z</time>
      </trkpt>
      <trkpt lat="43.72991" lon="7.00964">
        <ele>874.40002441406</ele>
        <time>2023-07-30T08:32:06.000Z</time>
      </trkpt>
      <trkpt lat="43.7299" lon="7.0096">
        <ele>875.59997558594</ele>
        <time>2023-07-30T08:32:07.000Z</time>
      </trkpt>
      <trkpt lat="43.72989" lon="7.00956">
        <ele>875.79998779297</ele>
        <time>2023-07-30T08:32:08.000Z</time>
      </trkpt>
      <trkpt lat="43.72987" lon="7.00953">
        <ele>877</ele>
        <time>2023-07-30T08:32:09.000Z</time>
      </trkpt>
      <trkpt lat="43.72984" lon="7.00949">
        <ele>877</ele>
        <time>2023-07-30T08:32:10.000Z</time>
      </trkpt>
      <trkpt lat="43.72982" lon="7.00947">
        <ele>877.79998779297</ele>
        <time>2023-07-30T08:32:11.000Z</time>
      </trkpt>
      <trkpt lat="43.72979" lon="7.00947">
        <ele>878</ele>
        <time>2023-07-30T08:32:12.000Z</time>
      </trkpt>
      <trkpt lat="43.72977" lon="7.00947">
        <ele>878.59997558594</ele>
        <time>2023-07-30T08:32:13.000Z</time>
      </trkpt>
      <trkpt lat="43.72976" lon="7.00947">
        <ele>879.20001220703</ele>
        <time>2023-07-30T08:32:14.000Z</time>
      </trkpt>
      <trkpt lat="43.72975" lon="7.00946">
        <ele>879.40002441406</ele>
        <time>2023-07-30T08:32:15.000Z</time>
      </trkpt>
      <trkpt lat="43.72975" lon="7.00946">
        <ele>879.59997558594</ele>
        <time>2023-07-30T08:32:16.000Z</time>
      </trkpt>
      <trkpt lat="43.72975" lon="7.00946">
        <ele>880</ele>
        <time>2023-07-30T08:32:17.000Z</time>
      </trkpt>
      <trkpt lat="43.72975" lon="7.00946">
        <ele>880</ele>
        <time>2023-07-30T08:32:18.000Z</time>
      </trkpt>
      <trkpt lat="43.72975" lon="7.00946">
        <ele>880.20001220703</ele>
        <time>2023-07-30T08:32:19.000Z</time>
      </trkpt>
      <trkpt lat="43.72975" lon="7.00946">
        <ele>880.20001220703</ele>
        <time>2023-07-30T08:32:20.000Z</time>
      </trkpt>
      <trkpt lat="43.72975" lon="7.00946">
        <ele>880.20001220703</ele>
        <time>2023-07-30T08:32:21.000Z</time>
      </trkpt>
      <trkpt lat="43.72975" lon="7.00946">
        <ele>880.20001220703</ele>
        <time>2023-07-30T08:32:22.000Z</time>
      </trkpt>
      <trkpt lat="43.72975" lon="7.00946">
        <ele>880.20001220703</ele>
        <time>2023-07-30T08:32:23.000Z</time>
      </trkpt>
      <trkpt lat="43.72975" lon="7.00946">
        <ele>880.20001220703</ele>
        <time>2023-07-30T08:32:24.000Z</time>
      </trkpt>
      <trkpt lat="43.72975" lon="7.00946">
        <ele>880.20001220703</ele>
        <time>2023-07-30T08:32:25.000Z</time>
      </trkpt>
      <trkpt lat="43.72975" lon="7.00946">
        <ele>880.20001220703</ele>
        <time>2023-07-30T08:32:26.000Z</time>
      </trkpt>
      <trkpt lat="43.72975" lon="7.00946">
        <ele>880.20001220703</ele>
        <time>2023-07-30T08:32:27.000Z</time>
      </trkpt>
      <trkpt lat="43.72975" lon="7.00946">
        <ele>880.20001220703</ele>
        <time>2023-07-30T08:32:28.000Z</time>
      </trkpt>
      <trkpt lat="43.72975" lon="7.00946">
        <ele>880.20001220703</ele>
        <time>2023-07-30T08:32:29.000Z</time>
      </trkpt>
      <trkpt lat="43.72975" lon="7.00946">
        <ele>880.40002441406</ele>
        <time>2023-07-30T08:32:30.000Z</time>
      </trkpt>
      <trkpt lat="43.72975" lon="7.00946">
        <ele>880.40002441406</ele>
        <time>2023-07-30T08:32:31.000Z</time>
      </trkpt>
      <trkpt lat="43.72975" lon="7.00946">
        <ele>880.40002441406</ele>
        <time>2023-07-30T08:32:32.000Z</time>
      </trkpt>
      <trkpt lat="43.72975" lon="7.00946">
        <ele>880.59997558594</ele>
        <time>2023-07-30T08:32:33.000Z</time>
      </trkpt>
      <trkpt lat="43.72975" lon="7.00946">
        <ele>880.59997558594</ele>
        <time>2023-07-30T08:32:34.000Z</time>
      </trkpt>
      <trkpt lat="43.72975" lon="7.00946">
        <ele>880.59997558594</ele>
        <time>2023-07-30T08:32:35.000Z</time>
      </trkpt>
      <trkpt lat="43.72975" lon="7.00946">
        <ele>880.59997558594</ele>
        <time>2023-07-30T08:32:36.000Z</time>
      </trkpt>
      <trkpt lat="43.72975" lon="7.00946">
        <ele>880.40002441406</ele>
        <time>2023-07-30T08:32:37.000Z</time>
      </trkpt>
      <trkpt lat="43.72975" lon="7.00946">
        <ele>880.40002441406</ele>
        <time>2023-07-30T08:32:38.000Z</time>
      </trkpt>
      <trkpt lat="43.72975" lon="7.00946">
        <ele>880.40002441406</ele>
        <time>2023-07-30T08:32:39.000Z</time>
      </trkpt>
      <trkpt lat="43.72975" lon="7.00946">
        <ele>880.40002441406</ele>
        <time>2023-07-30T08:32:40.000Z</time>
      </trkpt>
      <trkpt lat="43.72975" lon="7.00946">
        <ele>880.40002441406</ele>
        <time>2023-07-30T08:32:41.000Z</time>
      </trkpt>
      <trkpt lat="43.72975" lon="7.00946">
        <ele>880.40002441406</ele>
        <time>2023-07-30T08:32:42.000Z</time>
      </trkpt>
      <trkpt lat="43.72975" lon="7.00946">
        <ele>880.40002441406</ele>
        <time>2023-07-30T08:32:43.000Z</time>
      </trkpt>
      <trkpt lat="43.72975" lon="7.00946">
        <ele>880.40002441406</ele>
        <time>2023-07-30T08:32:44.000Z</time>
      </trkpt>
      <trkpt lat="43.72975" lon="7.00946">
        <ele>880.40002441406</ele>
        <time>2023-07-30T08:32:45.000Z</time>
      </trkpt>
      <trkpt lat="43.72975" lon="7.00946">
        <ele>880.40002441406</ele>
        <time>2023-07-30T08:32:46.000Z</time>
      </trkpt>
      <trkpt lat="43.72975" lon="7.00946">
        <ele>880.59997558594</ele>
        <time>2023-07-30T08:32:47.000Z</time>
      </trkpt>
      <trkpt lat="43.72975" lon="7.00946">
        <ele>880.59997558594</ele>
        <time>2023-07-30T08:32:48.000Z</time>
      </trkpt>
      <trkpt lat="43.72975" lon="7.00946">
        <ele>880.59997558594</ele>
        <time>2023-07-30T08:32:49.000Z</time>
      </trkpt>
      <trkpt lat="43.72975" lon="7.00946">
        <ele>880.59997558594</ele>
        <time>2023-07-30T08:32:50.000Z</time>
      </trkpt>
      <trkpt lat="43.72975" lon="7.00946">
        <ele>880.59997558594</ele>
        <time>2023-07-30T08:32:51.000Z</time>
      </trkpt>
      <trkpt lat="43.72975" lon="7.00946">
        <ele>880.59997558594</ele>
        <time>2023-07-30T08:32:52.000Z</time>
      </trkpt>
      <trkpt lat="43.72975" lon="7.00946">
        <ele>880.59997558594</ele>
        <time>2023-07-30T08:32:53.000Z</time>
      </trkpt>
      <trkpt lat="43.72975" lon="7.00946">
        <ele>880.59997558594</ele>
        <time>2023-07-30T08:32:54.000Z</time>
      </trkpt>
      <trkpt lat="43.72975" lon="7.00946">
        <ele>880.59997558594</ele>
        <time>2023-07-30T08:32:55.000Z</time>
      </trkpt>
      <trkpt lat="43.72975" lon="7.00946">
        <ele>880.59997558594</ele>
        <time>2023-07-30T08:32:56.000Z</time>
      </trkpt>
      <trkpt lat="43.72975" lon="7.00946">
        <ele>880.59997558594</ele>
        <time>2023-07-30T08:32:57.000Z</time>
      </trkpt>
      <trkpt lat="43.72975" lon="7.00946">
        <ele>880.59997558594</ele>
        <time>2023-07-30T08:32:58.000Z</time>
      </trkpt>
      <trkpt lat="43.72974" lon="7.00946">
        <ele>880.59997558594</ele>
        <time>2023-07-30T08:32:59.000Z</time>
      </trkpt>
      <trkpt lat="43.72972" lon="7.00945">
        <ele>880.59997558594</ele>
        <time>2023-07-30T08:33:00.000Z</time>
      </trkpt>
      <trkpt lat="43.72972" lon="7.00945">
        <ele>880.59997558594</ele>
        <time>2023-07-30T08:33:01.000Z</time>
      </trkpt>
      <trkpt lat="43.72971" lon="7.00945">
        <ele>880.59997558594</ele>
        <time>2023-07-30T08:33:02.000Z</time>
      </trkpt>
      <trkpt lat="43.72972" lon="7.00945">
        <ele>880.59997558594</ele>
        <time>2023-07-30T08:33:03.000Z</time>
      </trkpt>
      <trkpt lat="43.72972" lon="7.00945">
        <ele>880.59997558594</ele>
        <time>2023-07-30T08:33:04.000Z</time>
      </trkpt>
      <trkpt lat="43.72972" lon="7.00945">
        <ele>880.59997558594</ele>
        <time>2023-07-30T08:33:05.000Z</time>
      </trkpt>
      <trkpt lat="43.72971" lon="7.00945">
        <ele>880.59997558594</ele>
        <time>2023-07-30T08:33:06.000Z</time>
      </trkpt>
      <trkpt lat="43.7297" lon="7.00944">
        <ele>880.59997558594</ele>
        <time>2023-07-30T08:33:07.000Z</time>
      </trkpt>
      <trkpt lat="43.72969" lon="7.00944">
        <ele>880.59997558594</ele>
        <time>2023-07-30T08:33:08.000Z</time>
      </trkpt>
      <trkpt lat="43.72968" lon="7.00945">
        <ele>880.59997558594</ele>
        <time>2023-07-30T08:33:09.000Z</time>
      </trkpt>
      <trkpt lat="43.72968" lon="7.00946">
        <ele>880.59997558594</ele>
        <time>2023-07-30T08:33:10.000Z</time>
      </trkpt>
      <trkpt lat="43.72967" lon="7.00946">
        <ele>880.79998779297</ele>
        <time>2023-07-30T08:33:11.000Z</time>
      </trkpt>
      <trkpt lat="43.72966" lon="7.00946">
        <ele>881</ele>
        <time>2023-07-30T08:33:12.000Z</time>
      </trkpt>
      <trkpt lat="43.72965" lon="7.00946">
        <ele>881</ele>
        <time>2023-07-30T08:33:13.000Z</time>
      </trkpt>
      <trkpt lat="43.72963" lon="7.00946">
        <ele>881.20001220703</ele>
        <time>2023-07-30T08:33:14.000Z</time>
      </trkpt>
      <trkpt lat="43.72962" lon="7.00946">
        <ele>881.20001220703</ele>
        <time>2023-07-30T08:33:15.000Z</time>
      </trkpt>
      <trkpt lat="43.72961" lon="7.00948">
        <ele>881.20001220703</ele>
        <time>2023-07-30T08:33:16.000Z</time>
      </trkpt>
      <trkpt lat="43.7296" lon="7.00949">
        <ele>881.20001220703</ele>
        <time>2023-07-30T08:33:17.000Z</time>
      </trkpt>
      <trkpt lat="43.72959" lon="7.00951">
        <ele>881.40002441406</ele>
        <time>2023-07-30T08:33:18.000Z</time>
      </trkpt>
      <trkpt lat="43.72959" lon="7.00953">
        <ele>881.59997558594</ele>
        <time>2023-07-30T08:33:19.000Z</time>
      </trkpt>
      <trkpt lat="43.72958" lon="7.00955">
        <ele>882</ele>
        <time>2023-07-30T08:33:20.000Z</time>
      </trkpt>
      <trkpt lat="43.72958" lon="7.00957">
        <ele>882</ele>
        <time>2023-07-30T08:33:21.000Z</time>
      </trkpt>
      <trkpt lat="43.72957" lon="7.00959">
        <ele>882.20001220703</ele>
        <time>2023-07-30T08:33:22.000Z</time>
      </trkpt>
      <trkpt lat="43.72957" lon="7.00961">
        <ele>882.20001220703</ele>
        <time>2023-07-30T08:33:23.000Z</time>
      </trkpt>
      <trkpt lat="43.72956" lon="7.00963">
        <ele>882.40002441406</ele>
        <time>2023-07-30T08:33:24.000Z</time>
      </trkpt>
      <trkpt lat="43.72955" lon="7.00965">
        <ele>882.40002441406</ele>
        <time>2023-07-30T08:33:25.000Z</time>
      </trkpt>
      <trkpt lat="43.72954" lon="7.00968">
        <ele>882.59997558594</ele>
        <time>2023-07-30T08:33:26.000Z</time>
      </trkpt>
      <trkpt lat="43.72953" lon="7.0097">
        <ele>882.79998779297</ele>
        <time>2023-07-30T08:33:27.000Z</time>
      </trkpt>
      <trkpt lat="43.72952" lon="7.00972">
        <ele>883</ele>
        <time>2023-07-30T08:33:28.000Z</time>
      </trkpt>
      <trkpt lat="43.7295" lon="7.00974">
        <ele>883.20001220703</ele>
        <time>2023-07-30T08:33:29.000Z</time>
      </trkpt>
      <trkpt lat="43.72949" lon="7.00976">
        <ele>883.20001220703</ele>
        <time>2023-07-30T08:33:30.000Z</time>
      </trkpt>
      <trkpt lat="43.72948" lon="7.00978">
        <ele>883.40002441406</ele>
        <time>2023-07-30T08:33:31.000Z</time>
      </trkpt>
      <trkpt lat="43.72947" lon="7.00981">
        <ele>883.59997558594</ele>
        <time>2023-07-30T08:33:32.000Z</time>
      </trkpt>
      <trkpt lat="43.72945" lon="7.00983">
        <ele>883.79998779297</ele>
        <time>2023-07-30T08:33:33.000Z</time>
      </trkpt>
      <trkpt lat="43.72943" lon="7.00986">
        <ele>884.20001220703</ele>
        <time>2023-07-30T08:33:34.000Z</time>
      </trkpt>
      <trkpt lat="43.72942" lon="7.00988">
        <ele>884.20001220703</ele>
        <time>2023-07-30T08:33:35.000Z</time>
      </trkpt>
      <trkpt lat="43.7294" lon="7.00991">
        <ele>884.20001220703</ele>
        <time>2023-07-30T08:33:36.000Z</time>
      </trkpt>
      <trkpt lat="43.72939" lon="7.00993">
        <ele>884.40002441406</ele>
        <time>2023-07-30T08:33:37.000Z</time>
      </trkpt>
      <trkpt lat="43.72938" lon="7.00995">
        <ele>884.40002441406</ele>
        <time>2023-07-30T08:33:38.000Z</time>
      </trkpt>
      <trkpt lat="43.72936" lon="7.00998">
        <ele>884.79998779297</ele>
        <time>2023-07-30T08:33:39.000Z</time>
      </trkpt>
      <trkpt lat="43.72934" lon="7.01">
        <ele>885</ele>
        <time>2023-07-30T08:33:40.000Z</time>
      </trkpt>
      <trkpt lat="43.72933" lon="7.01002">
        <ele>885</ele>
        <time>2023-07-30T08:33:41.000Z</time>
      </trkpt>
      <trkpt lat="43.72931" lon="7.01005">
        <ele>885</ele>
        <time>2023-07-30T08:33:42.000Z</time>
      </trkpt>
      <trkpt lat="43.72929" lon="7.01008">
        <ele>885</ele>
        <time>2023-07-30T08:33:43.000Z</time>
      </trkpt>
      <trkpt lat="43.72928" lon="7.0101">
        <ele>885.40002441406</ele>
        <time>2023-07-30T08:33:44.000Z</time>
      </trkpt>
      <trkpt lat="43.72926" lon="7.01013">
        <ele>885.40002441406</ele>
        <time>2023-07-30T08:33:45.000Z</time>
      </trkpt>
      <trkpt lat="43.72925" lon="7.01015">
        <ele>885.40002441406</ele>
        <time>2023-07-30T08:33:46.000Z</time>
      </trkpt>
      <trkpt lat="43.72924" lon="7.01018">
        <ele>885.59997558594</ele>
        <time>2023-07-30T08:33:47.000Z</time>
      </trkpt>
      <trkpt lat="43.72923" lon="7.01021">
        <ele>885.59997558594</ele>
        <time>2023-07-30T08:33:48.000Z</time>
      </trkpt>
      <trkpt lat="43.72922" lon="7.01024">
        <ele>885.79998779297</ele>
        <time>2023-07-30T08:33:49.000Z</time>
      </trkpt>
      <trkpt lat="43.72921" lon="7.01026">
        <ele>886</ele>
        <time>2023-07-30T08:33:50.000Z</time>
      </trkpt>
      <trkpt lat="43.72919" lon="7.01029">
        <ele>886.40002441406</ele>
        <time>2023-07-30T08:33:51.000Z</time>
      </trkpt>
      <trkpt lat="43.72918" lon="7.01032">
        <ele>886.40002441406</ele>
        <time>2023-07-30T08:33:52.000Z</time>
      </trkpt>
      <trkpt lat="43.72916" lon="7.01036">
        <ele>886.40002441406</ele>
        <time>2023-07-30T08:33:53.000Z</time>
      </trkpt>
      <trkpt lat="43.72915" lon="7.01039">
        <ele>886.59997558594</ele>
        <time>2023-07-30T08:33:54.000Z</time>
      </trkpt>
      <trkpt lat="43.72913" lon="7.01043">
        <ele>887.20001220703</ele>
        <time>2023-07-30T08:33:55.000Z</time>
      </trkpt>
      <trkpt lat="43.72912" lon="7.01046">
        <ele>887.20001220703</ele>
        <time>2023-07-30T08:33:56.000Z</time>
      </trkpt>
      <trkpt lat="43.72911" lon="7.0105">
        <ele>887.20001220703</ele>
        <time>2023-07-30T08:33:57.000Z</time>
      </trkpt>
      <trkpt lat="43.7291" lon="7.01053">
        <ele>887.40002441406</ele>
        <time>2023-07-30T08:33:58.000Z</time>
      </trkpt>
      <trkpt lat="43.72909" lon="7.01057">
        <ele>887.59997558594</ele>
        <time>2023-07-30T08:33:59.000Z</time>
      </trkpt>
      <trkpt lat="43.72907" lon="7.0106">
        <ele>887.59997558594</ele>
        <time>2023-07-30T08:34:00.000Z</time>
      </trkpt>
      <trkpt lat="43.72906" lon="7.01064">
        <ele>888</ele>
        <time>2023-07-30T08:34:01.000Z</time>
      </trkpt>
      <trkpt lat="43.72905" lon="7.01068">
        <ele>888.20001220703</ele>
        <time>2023-07-30T08:34:02.000Z</time>
      </trkpt>
      <trkpt lat="43.72904" lon="7.01071">
        <ele>888.40002441406</ele>
        <time>2023-07-30T08:34:03.000Z</time>
      </trkpt>
      <trkpt lat="43.72903" lon="7.01075">
        <ele>888.59997558594</ele>
        <time>2023-07-30T08:34:04.000Z</time>
      </trkpt>
      <trkpt lat="43.72902" lon="7.01079">
        <ele>888.79998779297</ele>
        <time>2023-07-30T08:34:05.000Z</time>
      </trkpt>
      <trkpt lat="43.72901" lon="7.01082">
        <ele>888.79998779297</ele>
        <time>2023-07-30T08:34:06.000Z</time>
      </trkpt>
      <trkpt lat="43.729" lon="7.01086">
        <ele>888.79998779297</ele>
        <time>2023-07-30T08:34:07.000Z</time>
      </trkpt>
      <trkpt lat="43.72899" lon="7.0109">
        <ele>889</ele>
        <time>2023-07-30T08:34:08.000Z</time>
      </trkpt>
      <trkpt lat="43.72898" lon="7.01094">
        <ele>889.20001220703</ele>
        <time>2023-07-30T08:34:09.000Z</time>
      </trkpt>
      <trkpt lat="43.72897" lon="7.01098">
        <ele>889.59997558594</ele>
        <time>2023-07-30T08:34:10.000Z</time>
      </trkpt>
      <trkpt lat="43.72896" lon="7.01102">
        <ele>889.79998779297</ele>
        <time>2023-07-30T08:34:11.000Z</time>
      </trkpt>
      <trkpt lat="43.72894" lon="7.01105">
        <ele>889.79998779297</ele>
        <time>2023-07-30T08:34:12.000Z</time>
      </trkpt>
      <trkpt lat="43.72893" lon="7.01109">
        <ele>890.20001220703</ele>
        <time>2023-07-30T08:34:13.000Z</time>
      </trkpt>
      <trkpt lat="43.72892" lon="7.01112">
        <ele>890.40002441406</ele>
        <time>2023-07-30T08:34:14.000Z</time>
      </trkpt>
      <trkpt lat="43.7289" lon="7.01116">
        <ele>890.40002441406</ele>
        <time>2023-07-30T08:34:15.000Z</time>
      </trkpt>
      <trkpt lat="43.72888" lon="7.0112">
        <ele>890.40002441406</ele>
        <time>2023-07-30T08:34:16.000Z</time>
      </trkpt>
      <trkpt lat="43.72886" lon="7.01123">
        <ele>890.59997558594</ele>
        <time>2023-07-30T08:34:17.000Z</time>
      </trkpt>
      <trkpt lat="43.72884" lon="7.01126">
        <ele>890.59997558594</ele>
        <time>2023-07-30T08:34:18.000Z</time>
      </trkpt>
      <trkpt lat="43.72882" lon="7.0113">
        <ele>891.20001220703</ele>
        <time>2023-07-30T08:34:19.000Z</time>
      </trkpt>
      <trkpt lat="43.7288" lon="7.01133">
        <ele>891.20001220703</ele>
        <time>2023-07-30T08:34:20.000Z</time>
      </trkpt>
      <trkpt lat="43.72878" lon="7.01136">
        <ele>891.59997558594</ele>
        <time>2023-07-30T08:34:21.000Z</time>
      </trkpt>
      <trkpt lat="43.72876" lon="7.0114">
        <ele>891.59997558594</ele>
        <time>2023-07-30T08:34:22.000Z</time>
      </trkpt>
      <trkpt lat="43.72873" lon="7.01143">
        <ele>891.79998779297</ele>
        <time>2023-07-30T08:34:23.000Z</time>
      </trkpt>
      <trkpt lat="43.72871" lon="7.01145">
        <ele>892</ele>
        <time>2023-07-30T08:34:24.000Z</time>
      </trkpt>
      <trkpt lat="43.72869" lon="7.01148">
        <ele>892</ele>
        <time>2023-07-30T08:34:25.000Z</time>
      </trkpt>
      <trkpt lat="43.72866" lon="7.01151">
        <ele>892.40002441406</ele>
        <time>2023-07-30T08:34:26.000Z</time>
      </trkpt>
      <trkpt lat="43.72864" lon="7.01154">
        <ele>892.79998779297</ele>
        <time>2023-07-30T08:34:27.000Z</time>
      </trkpt>
      <trkpt lat="43.72861" lon="7.01156">
        <ele>892.79998779297</ele>
        <time>2023-07-30T08:34:28.000Z</time>
      </trkpt>
      <trkpt lat="43.72859" lon="7.01159">
        <ele>893.40002441406</ele>
        <time>2023-07-30T08:34:29.000Z</time>
      </trkpt>
      <trkpt lat="43.72856" lon="7.01162">
        <ele>893.40002441406</ele>
        <time>2023-07-30T08:34:30.000Z</time>
      </trkpt>
      <trkpt lat="43.72854" lon="7.01165">
        <ele>893.59997558594</ele>
        <time>2023-07-30T08:34:31.000Z</time>
      </trkpt>
      <trkpt lat="43.72852" lon="7.01168">
        <ele>894</ele>
        <time>2023-07-30T08:34:32.000Z</time>
      </trkpt>
      <trkpt lat="43.72849" lon="7.01171">
        <ele>894.20001220703</ele>
        <time>2023-07-30T08:34:33.000Z</time>
      </trkpt>
      <trkpt lat="43.72847" lon="7.01174">
        <ele>894.20001220703</ele>
        <time>2023-07-30T08:34:34.000Z</time>
      </trkpt>
      <trkpt lat="43.72845" lon="7.01178">
        <ele>895.20001220703</ele>
        <time>2023-07-30T08:34:35.000Z</time>
      </trkpt>
      <trkpt lat="43.72843" lon="7.01181">
        <ele>895.59997558594</ele>
        <time>2023-07-30T08:34:36.000Z</time>
      </trkpt>
      <trkpt lat="43.72842" lon="7.01185">
        <ele>895.79998779297</ele>
        <time>2023-07-30T08:34:37.000Z</time>
      </trkpt>
      <trkpt lat="43.7284" lon="7.01189">
        <ele>895.79998779297</ele>
        <time>2023-07-30T08:34:38.000Z</time>
      </trkpt>
      <trkpt lat="43.72839" lon="7.01193">
        <ele>896</ele>
        <time>2023-07-30T08:34:39.000Z</time>
      </trkpt>
      <trkpt lat="43.72837" lon="7.01197">
        <ele>896.59997558594</ele>
        <time>2023-07-30T08:34:40.000Z</time>
      </trkpt>
      <trkpt lat="43.72836" lon="7.01201">
        <ele>896.79998779297</ele>
        <time>2023-07-30T08:34:41.000Z</time>
      </trkpt>
      <trkpt lat="43.72834" lon="7.01205">
        <ele>897.40002441406</ele>
        <time>2023-07-30T08:34:42.000Z</time>
      </trkpt>
      <trkpt lat="43.72834" lon="7.0121">
        <ele>897.40002441406</ele>
        <time>2023-07-30T08:34:43.000Z</time>
      </trkpt>
      <trkpt lat="43.72833" lon="7.01214">
        <ele>897.40002441406</ele>
        <time>2023-07-30T08:34:44.000Z</time>
      </trkpt>
      <trkpt lat="43.72833" lon="7.01218">
        <ele>897.59997558594</ele>
        <time>2023-07-30T08:34:45.000Z</time>
      </trkpt>
      <trkpt lat="43.72833" lon="7.01222">
        <ele>898</ele>
        <time>2023-07-30T08:34:46.000Z</time>
      </trkpt>
      <trkpt lat="43.72833" lon="7.01227">
        <ele>898.40002441406</ele>
        <time>2023-07-30T08:34:47.000Z</time>
      </trkpt>
      <trkpt lat="43.72834" lon="7.01231">
        <ele>898.40002441406</ele>
        <time>2023-07-30T08:34:48.000Z</time>
      </trkpt>
      <trkpt lat="43.72836" lon="7.01235">
        <ele>898.79998779297</ele>
        <time>2023-07-30T08:34:49.000Z</time>
      </trkpt>
      <trkpt lat="43.72837" lon="7.01238">
        <ele>899</ele>
        <time>2023-07-30T08:34:50.000Z</time>
      </trkpt>
      <trkpt lat="43.72839" lon="7.01242">
        <ele>899.40002441406</ele>
        <time>2023-07-30T08:34:51.000Z</time>
      </trkpt>
      <trkpt lat="43.72841" lon="7.01246">
        <ele>899.40002441406</ele>
        <time>2023-07-30T08:34:52.000Z</time>
      </trkpt>
      <trkpt lat="43.72843" lon="7.01249">
        <ele>900</ele>
        <time>2023-07-30T08:34:53.000Z</time>
      </trkpt>
      <trkpt lat="43.72845" lon="7.01253">
        <ele>900.40002441406</ele>
        <time>2023-07-30T08:34:54.000Z</time>
      </trkpt>
      <trkpt lat="43.72847" lon="7.01256">
        <ele>900.40002441406</ele>
        <time>2023-07-30T08:34:55.000Z</time>
      </trkpt>
      <trkpt lat="43.72848" lon="7.0126">
        <ele>900.59997558594</ele>
        <time>2023-07-30T08:34:56.000Z</time>
      </trkpt>
      <trkpt lat="43.72849" lon="7.01264">
        <ele>900.59997558594</ele>
        <time>2023-07-30T08:34:57.000Z</time>
      </trkpt>
      <trkpt lat="43.72849" lon="7.01268">
        <ele>901.20001220703</ele>
        <time>2023-07-30T08:34:58.000Z</time>
      </trkpt>
      <trkpt lat="43.7285" lon="7.01272">
        <ele>901.40002441406</ele>
        <time>2023-07-30T08:34:59.000Z</time>
      </trkpt>
      <trkpt lat="43.7285" lon="7.01276">
        <ele>901.59997558594</ele>
        <time>2023-07-30T08:35:00.000Z</time>
      </trkpt>
      <trkpt lat="43.7285" lon="7.01281">
        <ele>901.79998779297</ele>
        <time>2023-07-30T08:35:01.000Z</time>
      </trkpt>
      <trkpt lat="43.7285" lon="7.01285">
        <ele>902</ele>
        <time>2023-07-30T08:35:02.000Z</time>
      </trkpt>
      <trkpt lat="43.72851" lon="7.01288">
        <ele>902.79998779297</ele>
        <time>2023-07-30T08:35:03.000Z</time>
      </trkpt>
      <trkpt lat="43.72851" lon="7.01292">
        <ele>902.79998779297</ele>
        <time>2023-07-30T08:35:04.000Z</time>
      </trkpt>
      <trkpt lat="43.72851" lon="7.01296">
        <ele>902.79998779297</ele>
        <time>2023-07-30T08:35:05.000Z</time>
      </trkpt>
      <trkpt lat="43.7285" lon="7.013">
        <ele>903</ele>
        <time>2023-07-30T08:35:06.000Z</time>
      </trkpt>
      <trkpt lat="43.7285" lon="7.01304">
        <ele>903.59997558594</ele>
        <time>2023-07-30T08:35:07.000Z</time>
      </trkpt>
      <trkpt lat="43.7285" lon="7.01308">
        <ele>903.79998779297</ele>
        <time>2023-07-30T08:35:08.000Z</time>
      </trkpt>
      <trkpt lat="43.7285" lon="7.01312">
        <ele>904</ele>
        <time>2023-07-30T08:35:09.000Z</time>
      </trkpt>
      <trkpt lat="43.72849" lon="7.01316">
        <ele>904</ele>
        <time>2023-07-30T08:35:10.000Z</time>
      </trkpt>
      <trkpt lat="43.72848" lon="7.0132">
        <ele>904.20001220703</ele>
        <time>2023-07-30T08:35:11.000Z</time>
      </trkpt>
      <trkpt lat="43.72848" lon="7.01324">
        <ele>904.59997558594</ele>
        <time>2023-07-30T08:35:12.000Z</time>
      </trkpt>
      <trkpt lat="43.72847" lon="7.01327">
        <ele>904.59997558594</ele>
        <time>2023-07-30T08:35:13.000Z</time>
      </trkpt>
      <trkpt lat="43.72845" lon="7.0133">
        <ele>905</ele>
        <time>2023-07-30T08:35:14.000Z</time>
      </trkpt>
      <trkpt lat="43.72844" lon="7.01334">
        <ele>905.79998779297</ele>
        <time>2023-07-30T08:35:15.000Z</time>
      </trkpt>
      <trkpt lat="43.72843" lon="7.01337">
        <ele>905.79998779297</ele>
        <time>2023-07-30T08:35:16.000Z</time>
      </trkpt>
      <trkpt lat="43.72842" lon="7.01341">
        <ele>906.20001220703</ele>
        <time>2023-07-30T08:35:17.000Z</time>
      </trkpt>
      <trkpt lat="43.72842" lon="7.01345">
        <ele>906.40002441406</ele>
        <time>2023-07-30T08:35:18.000Z</time>
      </trkpt>
      <trkpt lat="43.72841" lon="7.01348">
        <ele>906.40002441406</ele>
        <time>2023-07-30T08:35:19.000Z</time>
      </trkpt>
      <trkpt lat="43.72841" lon="7.01352">
        <ele>907</ele>
        <time>2023-07-30T08:35:20.000Z</time>
      </trkpt>
      <trkpt lat="43.7284" lon="7.01355">
        <ele>907.59997558594</ele>
        <time>2023-07-30T08:35:21.000Z</time>
      </trkpt>
      <trkpt lat="43.7284" lon="7.01359">
        <ele>908.40002441406</ele>
        <time>2023-07-30T08:35:22.000Z</time>
      </trkpt>
      <trkpt lat="43.7284" lon="7.01362">
        <ele>909</ele>
        <time>2023-07-30T08:35:23.000Z</time>
      </trkpt>
      <trkpt lat="43.72841" lon="7.01366">
        <ele>909</ele>
        <time>2023-07-30T08:35:24.000Z</time>
      </trkpt>
      <trkpt lat="43.72841" lon="7.01369">
        <ele>909.40002441406</ele>
        <time>2023-07-30T08:35:25.000Z</time>
      </trkpt>
      <trkpt lat="43.72841" lon="7.01372">
        <ele>910</ele>
        <time>2023-07-30T08:35:26.000Z</time>
      </trkpt>
      <trkpt lat="43.72842" lon="7.01375">
        <ele>910.59997558594</ele>
        <time>2023-07-30T08:35:27.000Z</time>
      </trkpt>
      <trkpt lat="43.72841" lon="7.01378">
        <ele>911.20001220703</ele>
        <time>2023-07-30T08:35:28.000Z</time>
      </trkpt>
      <trkpt lat="43.7284" lon="7.0138">
        <ele>911.20001220703</ele>
        <time>2023-07-30T08:35:29.000Z</time>
      </trkpt>
      <trkpt lat="43.72838" lon="7.01382">
        <ele>911.59997558594</ele>
        <time>2023-07-30T08:35:30.000Z</time>
      </trkpt>
      <trkpt lat="43.72836" lon="7.01382">
        <ele>911.59997558594</ele>
        <time>2023-07-30T08:35:31.000Z</time>
      </trkpt>
      <trkpt lat="43.72834" lon="7.0138">
        <ele>912</ele>
        <time>2023-07-30T08:35:32.000Z</time>
      </trkpt>
      <trkpt lat="43.72833" lon="7.01378">
        <ele>912.59997558594</ele>
        <time>2023-07-30T08:35:33.000Z</time>
      </trkpt>
      <trkpt lat="43.72831" lon="7.01376">
        <ele>912.79998779297</ele>
        <time>2023-07-30T08:35:34.000Z</time>
      </trkpt>
      <trkpt lat="43.7283" lon="7.01374">
        <ele>913.20001220703</ele>
        <time>2023-07-30T08:35:35.000Z</time>
      </trkpt>
      <trkpt lat="43.72829" lon="7.01371">
        <ele>913.40002441406</ele>
        <time>2023-07-30T08:35:36.000Z</time>
      </trkpt>
      <trkpt lat="43.72828" lon="7.01369">
        <ele>914.20001220703</ele>
        <time>2023-07-30T08:35:37.000Z</time>
      </trkpt>
      <trkpt lat="43.72826" lon="7.01367">
        <ele>915</ele>
        <time>2023-07-30T08:35:38.000Z</time>
      </trkpt>
      <trkpt lat="43.72824" lon="7.01364">
        <ele>915.40002441406</ele>
        <time>2023-07-30T08:35:39.000Z</time>
      </trkpt>
      <trkpt lat="43.72822" lon="7.01361">
        <ele>915.59997558594</ele>
        <time>2023-07-30T08:35:40.000Z</time>
      </trkpt>
      <trkpt lat="43.72819" lon="7.01359">
        <ele>916.20001220703</ele>
        <time>2023-07-30T08:35:41.000Z</time>
      </trkpt>
      <trkpt lat="43.72816" lon="7.01358">
        <ele>916.79998779297</ele>
        <time>2023-07-30T08:35:42.000Z</time>
      </trkpt>
      <trkpt lat="43.72813" lon="7.01357">
        <ele>916.79998779297</ele>
        <time>2023-07-30T08:35:43.000Z</time>
      </trkpt>
      <trkpt lat="43.72811" lon="7.01356">
        <ele>917</ele>
        <time>2023-07-30T08:35:44.000Z</time>
      </trkpt>
      <trkpt lat="43.72809" lon="7.01355">
        <ele>917.59997558594</ele>
        <time>2023-07-30T08:35:45.000Z</time>
      </trkpt>
      <trkpt lat="43.72807" lon="7.01354">
        <ele>917.79998779297</ele>
        <time>2023-07-30T08:35:46.000Z</time>
      </trkpt>
      <trkpt lat="43.72805" lon="7.01353">
        <ele>918</ele>
        <time>2023-07-30T08:35:47.000Z</time>
      </trkpt>
      <trkpt lat="43.72803" lon="7.01352">
        <ele>918.40002441406</ele>
        <time>2023-07-30T08:35:48.000Z</time>
      </trkpt>
      <trkpt lat="43.72801" lon="7.0135">
        <ele>918.79998779297</ele>
        <time>2023-07-30T08:35:49.000Z</time>
      </trkpt>
      <trkpt lat="43.72799" lon="7.01348">
        <ele>919</ele>
        <time>2023-07-30T08:35:50.000Z</time>
      </trkpt>
      <trkpt lat="43.72796" lon="7.01347">
        <ele>919.40002441406</ele>
        <time>2023-07-30T08:35:51.000Z</time>
      </trkpt>
      <trkpt lat="43.72794" lon="7.01344">
        <ele>920</ele>
        <time>2023-07-30T08:35:52.000Z</time>
      </trkpt>
      <trkpt lat="43.72792" lon="7.01343">
        <ele>920.40002441406</ele>
        <time>2023-07-30T08:35:53.000Z</time>
      </trkpt>
      <trkpt lat="43.72789" lon="7.01341">
        <ele>920.79998779297</ele>
        <time>2023-07-30T08:35:54.000Z</time>
      </trkpt>
      <trkpt lat="43.72787" lon="7.01339">
        <ele>921.20001220703</ele>
        <time>2023-07-30T08:35:55.000Z</time>
      </trkpt>
      <trkpt lat="43.72785" lon="7.01338">
        <ele>921.59997558594</ele>
        <time>2023-07-30T08:35:56.000Z</time>
      </trkpt>
      <trkpt lat="43.72783" lon="7.01336">
        <ele>922.20001220703</ele>
        <time>2023-07-30T08:35:57.000Z</time>
      </trkpt>
      <trkpt lat="43.72781" lon="7.01334">
        <ele>922.59997558594</ele>
        <time>2023-07-30T08:35:58.000Z</time>
      </trkpt>
      <trkpt lat="43.72779" lon="7.01331">
        <ele>922.79998779297</ele>
        <time>2023-07-30T08:35:59.000Z</time>
      </trkpt>
      <trkpt lat="43.72777" lon="7.01328">
        <ele>923.20001220703</ele>
        <time>2023-07-30T08:36:00.000Z</time>
      </trkpt>
      <trkpt lat="43.72775" lon="7.01325">
        <ele>923.79998779297</ele>
        <time>2023-07-30T08:36:01.000Z</time>
      </trkpt>
      <trkpt lat="43.72773" lon="7.01323">
        <ele>923.79998779297</ele>
        <time>2023-07-30T08:36:02.000Z</time>
      </trkpt>
      <trkpt lat="43.72772" lon="7.0132">
        <ele>924</ele>
        <time>2023-07-30T08:36:03.000Z</time>
      </trkpt>
      <trkpt lat="43.7277" lon="7.01317">
        <ele>924.79998779297</ele>
        <time>2023-07-30T08:36:04.000Z</time>
      </trkpt>
      <trkpt lat="43.72769" lon="7.01315">
        <ele>925</ele>
        <time>2023-07-30T08:36:05.000Z</time>
      </trkpt>
      <trkpt lat="43.72767" lon="7.01312">
        <ele>925.40002441406</ele>
        <time>2023-07-30T08:36:06.000Z</time>
      </trkpt>
      <trkpt lat="43.72765" lon="7.0131">
        <ele>925.40002441406</ele>
        <time>2023-07-30T08:36:07.000Z</time>
      </trkpt>
      <trkpt lat="43.72763" lon="7.01307">
        <ele>925.40002441406</ele>
        <time>2023-07-30T08:36:08.000Z</time>
      </trkpt>
      <trkpt lat="43.72761" lon="7.01304">
        <ele>926.20001220703</ele>
        <time>2023-07-30T08:36:09.000Z</time>
      </trkpt>
      <trkpt lat="43.72759" lon="7.01301">
        <ele>926.59997558594</ele>
        <time>2023-07-30T08:36:10.000Z</time>
      </trkpt>
      <trkpt lat="43.72758" lon="7.01298">
        <ele>927</ele>
        <time>2023-07-30T08:36:11.000Z</time>
      </trkpt>
      <trkpt lat="43.72756" lon="7.01294">
        <ele>927.79998779297</ele>
        <time>2023-07-30T08:36:12.000Z</time>
      </trkpt>
      <trkpt lat="43.72755" lon="7.01291">
        <ele>928</ele>
        <time>2023-07-30T08:36:13.000Z</time>
      </trkpt>
      <trkpt lat="43.72753" lon="7.01287">
        <ele>928</ele>
        <time>2023-07-30T08:36:14.000Z</time>
      </trkpt>
      <trkpt lat="43.72752" lon="7.01284">
        <ele>928.79998779297</ele>
        <time>2023-07-30T08:36:15.000Z</time>
      </trkpt>
      <trkpt lat="43.72751" lon="7.01281">
        <ele>929.40002441406</ele>
        <time>2023-07-30T08:36:16.000Z</time>
      </trkpt>
      <trkpt lat="43.72749" lon="7.01278">
        <ele>929.40002441406</ele>
        <time>2023-07-30T08:36:17.000Z</time>
      </trkpt>
      <trkpt lat="43.72748" lon="7.01275">
        <ele>930</ele>
        <time>2023-07-30T08:36:18.000Z</time>
      </trkpt>
      <trkpt lat="43.72747" lon="7.01273">
        <ele>930.40002441406</ele>
        <time>2023-07-30T08:36:19.000Z</time>
      </trkpt>
      <trkpt lat="43.72746" lon="7.01271">
        <ele>930.79998779297</ele>
        <time>2023-07-30T08:36:20.000Z</time>
      </trkpt>
      <trkpt lat="43.72744" lon="7.01269">
        <ele>931.40002441406</ele>
        <time>2023-07-30T08:36:21.000Z</time>
      </trkpt>
      <trkpt lat="43.72742" lon="7.01266">
        <ele>931.79998779297</ele>
        <time>2023-07-30T08:36:22.000Z</time>
      </trkpt>
      <trkpt lat="43.72741" lon="7.01264">
        <ele>932</ele>
        <time>2023-07-30T08:36:23.000Z</time>
      </trkpt>
      <trkpt lat="43.72739" lon="7.01262">
        <ele>932.20001220703</ele>
        <time>2023-07-30T08:36:24.000Z</time>
      </trkpt>
      <trkpt lat="43.72737" lon="7.01259">
        <ele>933</ele>
        <time>2023-07-30T08:36:25.000Z</time>
      </trkpt>
      <trkpt lat="43.72736" lon="7.01257">
        <ele>933.40002441406</ele>
        <time>2023-07-30T08:36:26.000Z</time>
      </trkpt>
      <trkpt lat="43.72733" lon="7.01255">
        <ele>933.40002441406</ele>
        <time>2023-07-30T08:36:27.000Z</time>
      </trkpt>
      <trkpt lat="43.72731" lon="7.01253">
        <ele>933.79998779297</ele>
        <time>2023-07-30T08:36:28.000Z</time>
      </trkpt>
      <trkpt lat="43.72729" lon="7.01251">
        <ele>934.20001220703</ele>
        <time>2023-07-30T08:36:29.000Z</time>
      </trkpt>
      <trkpt lat="43.72727" lon="7.01249">
        <ele>934.79998779297</ele>
        <time>2023-07-30T08:36:30.000Z</time>
      </trkpt>
      <trkpt lat="43.72726" lon="7.01246">
        <ele>935</ele>
        <time>2023-07-30T08:36:31.000Z</time>
      </trkpt>
      <trkpt lat="43.72724" lon="7.01244">
        <ele>935</ele>
        <time>2023-07-30T08:36:32.000Z</time>
      </trkpt>
      <trkpt lat="43.72722" lon="7.01242">
        <ele>935.40002441406</ele>
        <time>2023-07-30T08:36:33.000Z</time>
      </trkpt>
      <trkpt lat="43.7272" lon="7.01239">
        <ele>935.59997558594</ele>
        <time>2023-07-30T08:36:34.000Z</time>
      </trkpt>
      <trkpt lat="43.72719" lon="7.01237">
        <ele>936</ele>
        <time>2023-07-30T08:36:35.000Z</time>
      </trkpt>
      <trkpt lat="43.72717" lon="7.01234">
        <ele>936.59997558594</ele>
        <time>2023-07-30T08:36:36.000Z</time>
      </trkpt>
      <trkpt lat="43.72715" lon="7.01231">
        <ele>936.59997558594</ele>
        <time>2023-07-30T08:36:37.000Z</time>
      </trkpt>
      <trkpt lat="43.72713" lon="7.01229">
        <ele>937.59997558594</ele>
        <time>2023-07-30T08:36:38.000Z</time>
      </trkpt>
      <trkpt lat="43.72711" lon="7.01226">
        <ele>938</ele>
        <time>2023-07-30T08:36:39.000Z</time>
      </trkpt>
      <trkpt lat="43.72709" lon="7.01223">
        <ele>938</ele>
        <time>2023-07-30T08:36:40.000Z</time>
      </trkpt>
      <trkpt lat="43.72707" lon="7.0122">
        <ele>938.40002441406</ele>
        <time>2023-07-30T08:36:41.000Z</time>
      </trkpt>
      <trkpt lat="43.72705" lon="7.01218">
        <ele>938.59997558594</ele>
        <time>2023-07-30T08:36:42.000Z</time>
      </trkpt>
      <trkpt lat="43.72704" lon="7.01215">
        <ele>939</ele>
        <time>2023-07-30T08:36:43.000Z</time>
      </trkpt>
      <trkpt lat="43.72702" lon="7.01213">
        <ele>939</ele>
        <time>2023-07-30T08:36:44.000Z</time>
      </trkpt>
      <trkpt lat="43.727" lon="7.01211">
        <ele>939.59997558594</ele>
        <time>2023-07-30T08:36:45.000Z</time>
      </trkpt>
      <trkpt lat="43.72698" lon="7.01209">
        <ele>939.79998779297</ele>
        <time>2023-07-30T08:36:46.000Z</time>
      </trkpt>
      <trkpt lat="43.72696" lon="7.01206">
        <ele>940</ele>
        <time>2023-07-30T08:36:47.000Z</time>
      </trkpt>
      <trkpt lat="43.72694" lon="7.01205">
        <ele>940.20001220703</ele>
        <time>2023-07-30T08:36:48.000Z</time>
      </trkpt>
      <trkpt lat="43.72692" lon="7.01203">
        <ele>940.59997558594</ele>
        <time>2023-07-30T08:36:49.000Z</time>
      </trkpt>
      <trkpt lat="43.7269" lon="7.01202">
        <ele>940.79998779297</ele>
        <time>2023-07-30T08:36:50.000Z</time>
      </trkpt>
      <trkpt lat="43.72687" lon="7.01201">
        <ele>940.79998779297</ele>
        <time>2023-07-30T08:36:51.000Z</time>
      </trkpt>
      <trkpt lat="43.72685" lon="7.012">
        <ele>941</ele>
        <time>2023-07-30T08:36:52.000Z</time>
      </trkpt>
      <trkpt lat="43.72683" lon="7.012">
        <ele>941</ele>
        <time>2023-07-30T08:36:53.000Z</time>
      </trkpt>
      <trkpt lat="43.7268" lon="7.01199">
        <ele>941.20001220703</ele>
        <time>2023-07-30T08:36:54.000Z</time>
      </trkpt>
      <trkpt lat="43.72678" lon="7.01199">
        <ele>941.20001220703</ele>
        <time>2023-07-30T08:36:55.000Z</time>
      </trkpt>
      <trkpt lat="43.72675" lon="7.01198">
        <ele>941.20001220703</ele>
        <time>2023-07-30T08:36:56.000Z</time>
      </trkpt>
      <trkpt lat="43.72673" lon="7.01198">
        <ele>941.20001220703</ele>
        <time>2023-07-30T08:36:57.000Z</time>
      </trkpt>
      <trkpt lat="43.7267" lon="7.01198">
        <ele>941.20001220703</ele>
        <time>2023-07-30T08:36:58.000Z</time>
      </trkpt>
      <trkpt lat="43.72668" lon="7.01198">
        <ele>941.20001220703</ele>
        <time>2023-07-30T08:36:59.000Z</time>
      </trkpt>
      <trkpt lat="43.72666" lon="7.01198">
        <ele>941.20001220703</ele>
        <time>2023-07-30T08:37:00.000Z</time>
      </trkpt>
      <trkpt lat="43.72664" lon="7.01197">
        <ele>941.20001220703</ele>
        <time>2023-07-30T08:37:01.000Z</time>
      </trkpt>
      <trkpt lat="43.72662" lon="7.01197">
        <ele>941.20001220703</ele>
        <time>2023-07-30T08:37:02.000Z</time>
      </trkpt>
      <trkpt lat="43.7266" lon="7.01197">
        <ele>941.20001220703</ele>
        <time>2023-07-30T08:37:03.000Z</time>
      </trkpt>
      <trkpt lat="43.72658" lon="7.01196">
        <ele>941</ele>
        <time>2023-07-30T08:37:04.000Z</time>
      </trkpt>
      <trkpt lat="43.72657" lon="7.01195">
        <ele>941</ele>
        <time>2023-07-30T08:37:05.000Z</time>
      </trkpt>
      <trkpt lat="43.72655" lon="7.01194">
        <ele>941</ele>
        <time>2023-07-30T08:37:06.000Z</time>
      </trkpt>
      <trkpt lat="43.72654" lon="7.01194">
        <ele>941</ele>
        <time>2023-07-30T08:37:07.000Z</time>
      </trkpt>
      <trkpt lat="43.72654" lon="7.01194">
        <ele>940.79998779297</ele>
        <time>2023-07-30T08:37:08.000Z</time>
      </trkpt>
      <trkpt lat="43.72654" lon="7.01194">
        <ele>940.79998779297</ele>
        <time>2023-07-30T08:37:09.000Z</time>
      </trkpt>
      <trkpt lat="43.72654" lon="7.01194">
        <ele>940.79998779297</ele>
        <time>2023-07-30T08:37:10.000Z</time>
      </trkpt>
      <trkpt lat="43.72654" lon="7.01193">
        <ele>940.79998779297</ele>
        <time>2023-07-30T08:37:11.000Z</time>
      </trkpt>
      <trkpt lat="43.72654" lon="7.01194">
        <ele>940.59997558594</ele>
        <time>2023-07-30T08:37:12.000Z</time>
      </trkpt>
      <trkpt lat="43.72654" lon="7.01194">
        <ele>940.59997558594</ele>
        <time>2023-07-30T08:37:13.000Z</time>
      </trkpt>
      <trkpt lat="43.72654" lon="7.01194">
        <ele>940.59997558594</ele>
        <time>2023-07-30T08:37:14.000Z</time>
      </trkpt>
      <trkpt lat="43.72654" lon="7.01194">
        <ele>940.59997558594</ele>
        <time>2023-07-30T08:37:15.000Z</time>
      </trkpt>
      <trkpt lat="43.72654" lon="7.01193">
        <ele>940.40002441406</ele>
        <time>2023-07-30T08:37:16.000Z</time>
      </trkpt>
      <trkpt lat="43.72654" lon="7.01194">
        <ele>940.40002441406</ele>
        <time>2023-07-30T08:37:17.000Z</time>
      </trkpt>
      <trkpt lat="43.72654" lon="7.01194">
        <ele>940.20001220703</ele>
        <time>2023-07-30T08:37:18.000Z</time>
      </trkpt>
      <trkpt lat="43.72654" lon="7.01193">
        <ele>940</ele>
        <time>2023-07-30T08:37:19.000Z</time>
      </trkpt>
      <trkpt lat="43.72654" lon="7.01194">
        <ele>940</ele>
        <time>2023-07-30T08:37:20.000Z</time>
      </trkpt>
      <trkpt lat="43.72654" lon="7.01194">
        <ele>940</ele>
        <time>2023-07-30T08:37:21.000Z</time>
      </trkpt>
      <trkpt lat="43.72654" lon="7.01193">
        <ele>939.79998779297</ele>
        <time>2023-07-30T08:37:22.000Z</time>
      </trkpt>
      <trkpt lat="43.72654" lon="7.01193">
        <ele>939.79998779297</ele>
        <time>2023-07-30T08:37:23.000Z</time>
      </trkpt>
      <trkpt lat="43.72654" lon="7.01194">
        <ele>940</ele>
        <time>2023-07-30T08:37:24.000Z</time>
      </trkpt>
      <trkpt lat="43.72654" lon="7.01193">
        <ele>940</ele>
        <time>2023-07-30T08:37:25.000Z</time>
      </trkpt>
      <trkpt lat="43.72654" lon="7.01193">
        <ele>940.40002441406</ele>
        <time>2023-07-30T08:37:26.000Z</time>
      </trkpt>
      <trkpt lat="43.72654" lon="7.01194">
        <ele>940.40002441406</ele>
        <time>2023-07-30T08:37:27.000Z</time>
      </trkpt>
      <trkpt lat="43.72654" lon="7.01194">
        <ele>940.40002441406</ele>
        <time>2023-07-30T08:37:28.000Z</time>
      </trkpt>
      <trkpt lat="43.72654" lon="7.01194">
        <ele>940.40002441406</ele>
        <time>2023-07-30T08:37:29.000Z</time>
      </trkpt>
      <trkpt lat="43.72654" lon="7.01194">
        <ele>940.40002441406</ele>
        <time>2023-07-30T08:37:30.000Z</time>
      </trkpt>
      <trkpt lat="43.72654" lon="7.01194">
        <ele>940.40002441406</ele>
        <time>2023-07-30T08:37:31.000Z</time>
      </trkpt>
      <trkpt lat="43.72654" lon="7.01194">
        <ele>940.40002441406</ele>
        <time>2023-07-30T08:37:32.000Z</time>
      </trkpt>
      <trkpt lat="43.72654" lon="7.01194">
        <ele>940.20001220703</ele>
        <time>2023-07-30T08:37:33.000Z</time>
      </trkpt>
      <trkpt lat="43.72654" lon="7.01194">
        <ele>940</ele>
        <time>2023-07-30T08:37:34.000Z</time>
      </trkpt>
      <trkpt lat="43.72654" lon="7.01194">
        <ele>939.79998779297</ele>
        <time>2023-07-30T08:37:35.000Z</time>
      </trkpt>
      <trkpt lat="43.72654" lon="7.01194">
        <ele>939.79998779297</ele>
        <time>2023-07-30T08:37:36.000Z</time>
      </trkpt>
      <trkpt lat="43.72654" lon="7.01194">
        <ele>939.79998779297</ele>
        <time>2023-07-30T08:37:37.000Z</time>
      </trkpt>
      <trkpt lat="43.72654" lon="7.01194">
        <ele>939.79998779297</ele>
        <time>2023-07-30T08:37:38.000Z</time>
      </trkpt>
      <trkpt lat="43.72654" lon="7.01194">
        <ele>939.79998779297</ele>
        <time>2023-07-30T08:37:39.000Z</time>
      </trkpt>
      <trkpt lat="43.72654" lon="7.01194">
        <ele>939.79998779297</ele>
        <time>2023-07-30T08:37:40.000Z</time>
      </trkpt>
      <trkpt lat="43.72654" lon="7.01194">
        <ele>939.79998779297</ele>
        <time>2023-07-30T08:37:41.000Z</time>
      </trkpt>
      <trkpt lat="43.72654" lon="7.01193">
        <ele>939.79998779297</ele>
        <time>2023-07-30T08:37:42.000Z</time>
      </trkpt>
      <trkpt lat="43.72654" lon="7.01194">
        <ele>939.79998779297</ele>
        <time>2023-07-30T08:37:43.000Z</time>
      </trkpt>
      <trkpt lat="43.72654" lon="7.01194">
        <ele>939.79998779297</ele>
        <time>2023-07-30T08:37:44.000Z</time>
      </trkpt>
      <trkpt lat="43.72654" lon="7.01194">
        <ele>939.79998779297</ele>
        <time>2023-07-30T08:37:45.000Z</time>
      </trkpt>
      <trkpt lat="43.72654" lon="7.01194">
        <ele>940.79998779297</ele>
        <time>2023-07-30T08:37:46.000Z</time>
      </trkpt>
      <trkpt lat="43.72654" lon="7.01194">
        <ele>940.79998779297</ele>
        <time>2023-07-30T08:37:47.000Z</time>
      </trkpt>
      <trkpt lat="43.72654" lon="7.01194">
        <ele>940.59997558594</ele>
        <time>2023-07-30T08:37:48.000Z</time>
      </trkpt>
      <trkpt lat="43.72654" lon="7.01194">
        <ele>940.59997558594</ele>
        <time>2023-07-30T08:37:49.000Z</time>
      </trkpt>
      <trkpt lat="43.72654" lon="7.01194">
        <ele>940.59997558594</ele>
        <time>2023-07-30T08:37:50.000Z</time>
      </trkpt>
      <trkpt lat="43.72654" lon="7.01194">
        <ele>940.40002441406</ele>
        <time>2023-07-30T08:37:51.000Z</time>
      </trkpt>
      <trkpt lat="43.72654" lon="7.01194">
        <ele>940.40002441406</ele>
        <time>2023-07-30T08:37:52.000Z</time>
      </trkpt>
      <trkpt lat="43.72654" lon="7.01194">
        <ele>940</ele>
        <time>2023-07-30T08:37:53.000Z</time>
      </trkpt>
      <trkpt lat="43.72654" lon="7.01194">
        <ele>940</ele>
        <time>2023-07-30T08:37:54.000Z</time>
      </trkpt>
      <trkpt lat="43.72654" lon="7.01194">
        <ele>939.79998779297</ele>
        <time>2023-07-30T08:37:55.000Z</time>
      </trkpt>
      <trkpt lat="43.72654" lon="7.01194">
        <ele>939.79998779297</ele>
        <time>2023-07-30T08:37:56.000Z</time>
      </trkpt>
      <trkpt lat="43.72654" lon="7.01194">
        <ele>939.79998779297</ele>
        <time>2023-07-30T08:37:57.000Z</time>
      </trkpt>
      <trkpt lat="43.72654" lon="7.01194">
        <ele>939.79998779297</ele>
        <time>2023-07-30T08:37:58.000Z</time>
      </trkpt>
      <trkpt lat="43.72654" lon="7.01194">
        <ele>939.59997558594</ele>
        <time>2023-07-30T08:37:59.000Z</time>
      </trkpt>
      <trkpt lat="43.72654" lon="7.01194">
        <ele>939.59997558594</ele>
        <time>2023-07-30T08:38:00.000Z</time>
      </trkpt>
      <trkpt lat="43.72654" lon="7.01194">
        <ele>939.40002441406</ele>
        <time>2023-07-30T08:38:01.000Z</time>
      </trkpt>
      <trkpt lat="43.72654" lon="7.01194">
        <ele>939.59997558594</ele>
        <time>2023-07-30T08:38:02.000Z</time>
      </trkpt>
      <trkpt lat="43.72654" lon="7.01194">
        <ele>939.59997558594</ele>
        <time>2023-07-30T08:38:03.000Z</time>
      </trkpt>
      <trkpt lat="43.72654" lon="7.01193">
        <ele>940</ele>
        <time>2023-07-30T08:38:04.000Z</time>
      </trkpt>
      <trkpt lat="43.72655" lon="7.01193">
        <ele>939.79998779297</ele>
        <time>2023-07-30T08:38:05.000Z</time>
      </trkpt>
      <trkpt lat="43.72656" lon="7.01193">
        <ele>939.79998779297</ele>
        <time>2023-07-30T08:38:06.000Z</time>
      </trkpt>
      <trkpt lat="43.72656" lon="7.01193">
        <ele>939.79998779297</ele>
        <time>2023-07-30T08:38:07.000Z</time>
      </trkpt>
      <trkpt lat="43.72656" lon="7.01193">
        <ele>939.79998779297</ele>
        <time>2023-07-30T08:38:08.000Z</time>
      </trkpt>
      <trkpt lat="43.72656" lon="7.01193">
        <ele>939.79998779297</ele>
        <time>2023-07-30T08:38:09.000Z</time>
      </trkpt>
      <trkpt lat="43.72656" lon="7.01193">
        <ele>939.40002441406</ele>
        <time>2023-07-30T08:38:10.000Z</time>
      </trkpt>
      <trkpt lat="43.72656" lon="7.01193">
        <ele>939.40002441406</ele>
        <time>2023-07-30T08:38:11.000Z</time>
      </trkpt>
      <trkpt lat="43.72656" lon="7.01193">
        <ele>939.20001220703</ele>
        <time>2023-07-30T08:38:12.000Z</time>
      </trkpt>
      <trkpt lat="43.72656" lon="7.01193">
        <ele>938.79998779297</ele>
        <time>2023-07-30T08:38:13.000Z</time>
      </trkpt>
      <trkpt lat="43.72656" lon="7.01193">
        <ele>939.20001220703</ele>
        <time>2023-07-30T08:38:14.000Z</time>
      </trkpt>
      <trkpt lat="43.72656" lon="7.01193">
        <ele>939.20001220703</ele>
        <time>2023-07-30T08:38:15.000Z</time>
      </trkpt>
      <trkpt lat="43.72656" lon="7.01193">
        <ele>939.20001220703</ele>
        <time>2023-07-30T08:38:16.000Z</time>
      </trkpt>
      <trkpt lat="43.72656" lon="7.01193">
        <ele>939.20001220703</ele>
        <time>2023-07-30T08:38:17.000Z</time>
      </trkpt>
      <trkpt lat="43.72656" lon="7.01193">
        <ele>939.20001220703</ele>
        <time>2023-07-30T08:38:18.000Z</time>
      </trkpt>
      <trkpt lat="43.72656" lon="7.01193">
        <ele>939.40002441406</ele>
        <time>2023-07-30T08:38:19.000Z</time>
      </trkpt>
      <trkpt lat="43.72656" lon="7.01193">
        <ele>939.40002441406</ele>
        <time>2023-07-30T08:38:20.000Z</time>
      </trkpt>
      <trkpt lat="43.72656" lon="7.01193">
        <ele>939.20001220703</ele>
        <time>2023-07-30T08:38:21.000Z</time>
      </trkpt>
      <trkpt lat="43.72656" lon="7.01193">
        <ele>939.20001220703</ele>
        <time>2023-07-30T08:38:22.000Z</time>
      </trkpt>
      <trkpt lat="43.72656" lon="7.01193">
        <ele>939.20001220703</ele>
        <time>2023-07-30T08:38:23.000Z</time>
      </trkpt>
      <trkpt lat="43.72656" lon="7.01193">
        <ele>939.20001220703</ele>
        <time>2023-07-30T08:38:24.000Z</time>
      </trkpt>
      <trkpt lat="43.72656" lon="7.01193">
        <ele>939.20001220703</ele>
        <time>2023-07-30T08:38:25.000Z</time>
      </trkpt>
      <trkpt lat="43.72656" lon="7.01193">
        <ele>939</ele>
        <time>2023-07-30T08:38:26.000Z</time>
      </trkpt>
      <trkpt lat="43.72656" lon="7.01193">
        <ele>939.20001220703</ele>
        <time>2023-07-30T08:38:27.000Z</time>
      </trkpt>
      <trkpt lat="43.72656" lon="7.01193">
        <ele>939</ele>
        <time>2023-07-30T08:38:28.000Z</time>
      </trkpt>
      <trkpt lat="43.72656" lon="7.01193">
        <ele>938.79998779297</ele>
        <time>2023-07-30T08:38:29.000Z</time>
      </trkpt>
      <trkpt lat="43.72656" lon="7.01193">
        <ele>938.79998779297</ele>
        <time>2023-07-30T08:38:30.000Z</time>
      </trkpt>
      <trkpt lat="43.72656" lon="7.01193">
        <ele>938.79998779297</ele>
        <time>2023-07-30T08:38:31.000Z</time>
      </trkpt>
      <trkpt lat="43.72656" lon="7.01193">
        <ele>938.79998779297</ele>
        <time>2023-07-30T08:38:32.000Z</time>
      </trkpt>
      <trkpt lat="43.72656" lon="7.01193">
        <ele>939</ele>
        <time>2023-07-30T08:38:33.000Z</time>
      </trkpt>
      <trkpt lat="43.72656" lon="7.01193">
        <ele>939</ele>
        <time>2023-07-30T08:38:34.000Z</time>
      </trkpt>
      <trkpt lat="43.72656" lon="7.01193">
        <ele>939</ele>
        <time>2023-07-30T08:38:35.000Z</time>
      </trkpt>
      <trkpt lat="43.72656" lon="7.01193">
        <ele>939.20001220703</ele>
        <time>2023-07-30T08:38:36.000Z</time>
      </trkpt>
      <trkpt lat="43.72656" lon="7.01193">
        <ele>939.20001220703</ele>
        <time>2023-07-30T08:38:37.000Z</time>
      </trkpt>
      <trkpt lat="43.72656" lon="7.01193">
        <ele>939.20001220703</ele>
        <time>2023-07-30T08:38:38.000Z</time>
      </trkpt>
      <trkpt lat="43.72656" lon="7.01193">
        <ele>939.20001220703</ele>
        <time>2023-07-30T08:38:39.000Z</time>
      </trkpt>
      <trkpt lat="43.72656" lon="7.01193">
        <ele>939.20001220703</ele>
        <time>2023-07-30T08:38:40.000Z</time>
      </trkpt>
      <trkpt lat="43.72656" lon="7.01193">
        <ele>939.20001220703</ele>
        <time>2023-07-30T08:38:41.000Z</time>
      </trkpt>
      <trkpt lat="43.72656" lon="7.01193">
        <ele>938.59997558594</ele>
        <time>2023-07-30T08:38:42.000Z</time>
      </trkpt>
      <trkpt lat="43.72656" lon="7.01193">
        <ele>938.59997558594</ele>
        <time>2023-07-30T08:38:43.000Z</time>
      </trkpt>
      <trkpt lat="43.72656" lon="7.01193">
        <ele>939.20001220703</ele>
        <time>2023-07-30T08:38:44.000Z</time>
      </trkpt>
      <trkpt lat="43.72656" lon="7.01193">
        <ele>940</ele>
        <time>2023-07-30T08:38:45.000Z</time>
      </trkpt>
      <trkpt lat="43.72656" lon="7.01193">
        <ele>940</ele>
        <time>2023-07-30T08:38:46.000Z</time>
      </trkpt>
      <trkpt lat="43.72656" lon="7.01193">
        <ele>940</ele>
        <time>2023-07-30T08:38:47.000Z</time>
      </trkpt>
      <trkpt lat="43.72656" lon="7.01193">
        <ele>940</ele>
        <time>2023-07-30T08:38:48.000Z</time>
      </trkpt>
      <trkpt lat="43.72656" lon="7.01193">
        <ele>940.20001220703</ele>
        <time>2023-07-30T08:38:49.000Z</time>
      </trkpt>
      <trkpt lat="43.72656" lon="7.01193">
        <ele>940</ele>
        <time>2023-07-30T08:38:50.000Z</time>
      </trkpt>
      <trkpt lat="43.72656" lon="7.01193">
        <ele>939.79998779297</ele>
        <time>2023-07-30T08:38:51.000Z</time>
      </trkpt>
      <trkpt lat="43.72656" lon="7.01193">
        <ele>939.59997558594</ele>
        <time>2023-07-30T08:38:52.000Z</time>
      </trkpt>
      <trkpt lat="43.72656" lon="7.01193">
        <ele>939.59997558594</ele>
        <time>2023-07-30T08:38:53.000Z</time>
      </trkpt>
      <trkpt lat="43.72656" lon="7.01193">
        <ele>939.59997558594</ele>
        <time>2023-07-30T08:38:54.000Z</time>
      </trkpt>
      <trkpt lat="43.72656" lon="7.01193">
        <ele>939.59997558594</ele>
        <time>2023-07-30T08:38:55.000Z</time>
      </trkpt>
      <trkpt lat="43.72656" lon="7.01193">
        <ele>939.59997558594</ele>
        <time>2023-07-30T08:38:56.000Z</time>
      </trkpt>
      <trkpt lat="43.72656" lon="7.01193">
        <ele>939.59997558594</ele>
        <time>2023-07-30T08:38:57.000Z</time>
      </trkpt>
      <trkpt lat="43.72656" lon="7.01193">
        <ele>939</ele>
        <time>2023-07-30T08:38:58.000Z</time>
      </trkpt>
      <trkpt lat="43.72656" lon="7.01193">
        <ele>938.79998779297</ele>
        <time>2023-07-30T08:38:59.000Z</time>
      </trkpt>
      <trkpt lat="43.72656" lon="7.01193">
        <ele>938.79998779297</ele>
        <time>2023-07-30T08:39:00.000Z</time>
      </trkpt>
      <trkpt lat="43.72656" lon="7.01193">
        <ele>938.79998779297</ele>
        <time>2023-07-30T08:39:01.000Z</time>
      </trkpt>
      <trkpt lat="43.72656" lon="7.01193">
        <ele>939</ele>
        <time>2023-07-30T08:39:02.000Z</time>
      </trkpt>
      <trkpt lat="43.72656" lon="7.01193">
        <ele>939</ele>
        <time>2023-07-30T08:39:03.000Z</time>
      </trkpt>
      <trkpt lat="43.72656" lon="7.01193">
        <ele>939</ele>
        <time>2023-07-30T08:39:04.000Z</time>
      </trkpt>
      <trkpt lat="43.72656" lon="7.01193">
        <ele>939</ele>
        <time>2023-07-30T08:39:05.000Z</time>
      </trkpt>
      <trkpt lat="43.72656" lon="7.01193">
        <ele>939</ele>
        <time>2023-07-30T08:39:06.000Z</time>
      </trkpt>
      <trkpt lat="43.72656" lon="7.01193">
        <ele>939.40002441406</ele>
        <time>2023-07-30T08:39:07.000Z</time>
      </trkpt>
      <trkpt lat="43.72656" lon="7.01193">
        <ele>939.79998779297</ele>
        <time>2023-07-30T08:39:08.000Z</time>
      </trkpt>
      <trkpt lat="43.72656" lon="7.01193">
        <ele>939.79998779297</ele>
        <time>2023-07-30T08:39:09.000Z</time>
      </trkpt>
      <trkpt lat="43.72656" lon="7.01193">
        <ele>939.79998779297</ele>
        <time>2023-07-30T08:39:10.000Z</time>
      </trkpt>
      <trkpt lat="43.72656" lon="7.01193">
        <ele>939.79998779297</ele>
        <time>2023-07-30T08:39:11.000Z</time>
      </trkpt>
      <trkpt lat="43.72656" lon="7.01193">
        <ele>939.59997558594</ele>
        <time>2023-07-30T08:39:12.000Z</time>
      </trkpt>
      <trkpt lat="43.72655" lon="7.01193">
        <ele>939.40002441406</ele>
        <time>2023-07-30T08:39:13.000Z</time>
      </trkpt>
      <trkpt lat="43.72655" lon="7.01193">
        <ele>939.40002441406</ele>
        <time>2023-07-30T08:39:14.000Z</time>
      </trkpt>
      <trkpt lat="43.72655" lon="7.01193">
        <ele>939.40002441406</ele>
        <time>2023-07-30T08:39:15.000Z</time>
      </trkpt>
      <trkpt lat="43.72655" lon="7.01193">
        <ele>939.40002441406</ele>
        <time>2023-07-30T08:39:16.000Z</time>
      </trkpt>
      <trkpt lat="43.72654" lon="7.01192">
        <ele>939.40002441406</ele>
        <time>2023-07-30T08:39:17.000Z</time>
      </trkpt>
      <trkpt lat="43.72654" lon="7.01192">
        <ele>939.40002441406</ele>
        <time>2023-07-30T08:39:18.000Z</time>
      </trkpt>
      <trkpt lat="43.72654" lon="7.01192">
        <ele>939.40002441406</ele>
        <time>2023-07-30T08:39:19.000Z</time>
      </trkpt>
      <trkpt lat="43.72654" lon="7.01192">
        <ele>939.40002441406</ele>
        <time>2023-07-30T08:39:20.000Z</time>
      </trkpt>
      <trkpt lat="43.72654" lon="7.01192">
        <ele>939.40002441406</ele>
        <time>2023-07-30T08:39:21.000Z</time>
      </trkpt>
      <trkpt lat="43.72654" lon="7.01192">
        <ele>939.40002441406</ele>
        <time>2023-07-30T08:39:22.000Z</time>
      </trkpt>
      <trkpt lat="43.72654" lon="7.01192">
        <ele>939.40002441406</ele>
        <time>2023-07-30T08:39:23.000Z</time>
      </trkpt>
      <trkpt lat="43.72654" lon="7.01192">
        <ele>939.40002441406</ele>
        <time>2023-07-30T08:39:24.000Z</time>
      </trkpt>
      <trkpt lat="43.72654" lon="7.01192">
        <ele>939.40002441406</ele>
        <time>2023-07-30T08:39:25.000Z</time>
      </trkpt>
      <trkpt lat="43.72654" lon="7.01192">
        <ele>939.40002441406</ele>
        <time>2023-07-30T08:39:26.000Z</time>
      </trkpt>
      <trkpt lat="43.72654" lon="7.01192">
        <ele>939.40002441406</ele>
        <time>2023-07-30T08:39:27.000Z</time>
      </trkpt>
      <trkpt lat="43.72654" lon="7.01192">
        <ele>939.40002441406</ele>
        <time>2023-07-30T08:39:28.000Z</time>
      </trkpt>
      <trkpt lat="43.72654" lon="7.01192">
        <ele>939.40002441406</ele>
        <time>2023-07-30T08:39:29.000Z</time>
      </trkpt>
      <trkpt lat="43.72654" lon="7.01192">
        <ele>939.40002441406</ele>
        <time>2023-07-30T08:39:30.000Z</time>
      </trkpt>
      <trkpt lat="43.72654" lon="7.01193">
        <ele>939.40002441406</ele>
        <time>2023-07-30T08:39:31.000Z</time>
      </trkpt>
      <trkpt lat="43.72654" lon="7.01193">
        <ele>939.40002441406</ele>
        <time>2023-07-30T08:39:32.000Z</time>
      </trkpt>
      <trkpt lat="43.72654" lon="7.01193">
        <ele>939.40002441406</ele>
        <time>2023-07-30T08:39:33.000Z</time>
      </trkpt>
      <trkpt lat="43.72654" lon="7.01193">
        <ele>939.40002441406</ele>
        <time>2023-07-30T08:39:34.000Z</time>
      </trkpt>
      <trkpt lat="43.72654" lon="7.01192">
        <ele>939.40002441406</ele>
        <time>2023-07-30T08:39:35.000Z</time>
      </trkpt>
      <trkpt lat="43.72654" lon="7.01192">
        <ele>939.40002441406</ele>
        <time>2023-07-30T08:39:36.000Z</time>
      </trkpt>
      <trkpt lat="43.72654" lon="7.01192">
        <ele>939.40002441406</ele>
        <time>2023-07-30T08:39:37.000Z</time>
      </trkpt>
      <trkpt lat="43.72654" lon="7.01192">
        <ele>939.40002441406</ele>
        <time>2023-07-30T08:39:38.000Z</time>
      </trkpt>
      <trkpt lat="43.72654" lon="7.01192">
        <ele>939.40002441406</ele>
        <time>2023-07-30T08:39:39.000Z</time>
      </trkpt>
      <trkpt lat="43.72654" lon="7.01192">
        <ele>939.40002441406</ele>
        <time>2023-07-30T08:39:40.000Z</time>
      </trkpt>
      <trkpt lat="43.72654" lon="7.01192">
        <ele>939.40002441406</ele>
        <time>2023-07-30T08:39:41.000Z</time>
      </trkpt>
      <trkpt lat="43.72654" lon="7.01192">
        <ele>939.40002441406</ele>
        <time>2023-07-30T08:39:42.000Z</time>
      </trkpt>
      <trkpt lat="43.72654" lon="7.01192">
        <ele>939.40002441406</ele>
        <time>2023-07-30T08:39:43.000Z</time>
      </trkpt>
      <trkpt lat="43.72654" lon="7.01192">
        <ele>939.40002441406</ele>
        <time>2023-07-30T08:39:44.000Z</time>
      </trkpt>
      <trkpt lat="43.72654" lon="7.01192">
        <ele>939.40002441406</ele>
        <time>2023-07-30T08:39:45.000Z</time>
      </trkpt>
      <trkpt lat="43.72654" lon="7.01192">
        <ele>939.40002441406</ele>
        <time>2023-07-30T08:39:46.000Z</time>
      </trkpt>
      <trkpt lat="43.72654" lon="7.01192">
        <ele>939.40002441406</ele>
        <time>2023-07-30T08:39:47.000Z</time>
      </trkpt>
      <trkpt lat="43.72654" lon="7.01192">
        <ele>939.40002441406</ele>
        <time>2023-07-30T08:39:48.000Z</time>
      </trkpt>
      <trkpt lat="43.72654" lon="7.01192">
        <ele>939.40002441406</ele>
        <time>2023-07-30T08:39:49.000Z</time>
      </trkpt>
      <trkpt lat="43.72654" lon="7.01192">
        <ele>939.40002441406</ele>
        <time>2023-07-30T08:39:50.000Z</time>
      </trkpt>
      <trkpt lat="43.72654" lon="7.01192">
        <ele>939.40002441406</ele>
        <time>2023-07-30T08:39:51.000Z</time>
      </trkpt>
      <trkpt lat="43.72654" lon="7.01192">
        <ele>939.40002441406</ele>
        <time>2023-07-30T08:39:52.000Z</time>
      </trkpt>
      <trkpt lat="43.72654" lon="7.01192">
        <ele>939.40002441406</ele>
        <time>2023-07-30T08:39:53.000Z</time>
      </trkpt>
      <trkpt lat="43.72654" lon="7.01192">
        <ele>939.40002441406</ele>
        <time>2023-07-30T08:39:54.000Z</time>
      </trkpt>
      <trkpt lat="43.72654" lon="7.01192">
        <ele>939.40002441406</ele>
        <time>2023-07-30T08:39:55.000Z</time>
      </trkpt>
      <trkpt lat="43.72654" lon="7.01192">
        <ele>939.40002441406</ele>
        <time>2023-07-30T08:39:56.000Z</time>
      </trkpt>
      <trkpt lat="43.72654" lon="7.01192">
        <ele>939.40002441406</ele>
        <time>2023-07-30T08:39:57.000Z</time>
      </trkpt>
      <trkpt lat="43.72654" lon="7.01192">
        <ele>939.40002441406</ele>
        <time>2023-07-30T08:39:58.000Z</time>
      </trkpt>
      <trkpt lat="43.72654" lon="7.01192">
        <ele>939.40002441406</ele>
        <time>2023-07-30T08:39:59.000Z</time>
      </trkpt>
      <trkpt lat="43.72654" lon="7.01192">
        <ele>939.40002441406</ele>
        <time>2023-07-30T08:40:00.000Z</time>
      </trkpt>
      <trkpt lat="43.72654" lon="7.01192">
        <ele>939.40002441406</ele>
        <time>2023-07-30T08:40:01.000Z</time>
      </trkpt>
      <trkpt lat="43.72654" lon="7.01192">
        <ele>939.40002441406</ele>
        <time>2023-07-30T08:40:02.000Z</time>
      </trkpt>
      <trkpt lat="43.72654" lon="7.01192">
        <ele>939.40002441406</ele>
        <time>2023-07-30T08:40:03.000Z</time>
      </trkpt>
      <trkpt lat="43.72654" lon="7.01192">
        <ele>939.40002441406</ele>
        <time>2023-07-30T08:40:04.000Z</time>
      </trkpt>
      <trkpt lat="43.72654" lon="7.01192">
        <ele>939.40002441406</ele>
        <time>2023-07-30T08:40:05.000Z</time>
      </trkpt>
      <trkpt lat="43.72654" lon="7.01192">
        <ele>939.40002441406</ele>
        <time>2023-07-30T08:40:06.000Z</time>
      </trkpt>
      <trkpt lat="43.72654" lon="7.01192">
        <ele>939.40002441406</ele>
        <time>2023-07-30T08:40:07.000Z</time>
      </trkpt>
      <trkpt lat="43.72654" lon="7.01192">
        <ele>939.40002441406</ele>
        <time>2023-07-30T08:40:08.000Z</time>
      </trkpt>
      <trkpt lat="43.72654" lon="7.01192">
        <ele>939.40002441406</ele>
        <time>2023-07-30T08:40:09.000Z</time>
      </trkpt>
      <trkpt lat="43.72654" lon="7.01192">
        <ele>939.40002441406</ele>
        <time>2023-07-30T08:40:10.000Z</time>
      </trkpt>
      <trkpt lat="43.72654" lon="7.01192">
        <ele>939.40002441406</ele>
        <time>2023-07-30T08:40:11.000Z</time>
      </trkpt>
      <trkpt lat="43.72654" lon="7.01192">
        <ele>939.40002441406</ele>
        <time>2023-07-30T08:40:12.000Z</time>
      </trkpt>
      <trkpt lat="43.72654" lon="7.01192">
        <ele>939.40002441406</ele>
        <time>2023-07-30T08:40:13.000Z</time>
      </trkpt>
      <trkpt lat="43.72654" lon="7.01192">
        <ele>939.40002441406</ele>
        <time>2023-07-30T08:40:14.000Z</time>
      </trkpt>
      <trkpt lat="43.72654" lon="7.01192">
        <ele>939.40002441406</ele>
        <time>2023-07-30T08:40:15.000Z</time>
      </trkpt>
      <trkpt lat="43.72654" lon="7.01192">
        <ele>939.40002441406</ele>
        <time>2023-07-30T08:40:16.000Z</time>
      </trkpt>
      <trkpt lat="43.72654" lon="7.01192">
        <ele>939.40002441406</ele>
        <time>2023-07-30T08:40:17.000Z</time>
      </trkpt>
      <trkpt lat="43.72654" lon="7.01192">
        <ele>939.40002441406</ele>
        <time>2023-07-30T08:40:18.000Z</time>
      </trkpt>
      <trkpt lat="43.72654" lon="7.01192">
        <ele>939.40002441406</ele>
        <time>2023-07-30T08:40:19.000Z</time>
      </trkpt>
      <trkpt lat="43.72654" lon="7.01192">
        <ele>939.40002441406</ele>
        <time>2023-07-30T08:40:20.000Z</time>
      </trkpt>
      <trkpt lat="43.72654" lon="7.01192">
        <ele>939.40002441406</ele>
        <time>2023-07-30T08:40:21.000Z</time>
      </trkpt>
      <trkpt lat="43.72654" lon="7.01192">
        <ele>939.40002441406</ele>
        <time>2023-07-30T08:40:22.000Z</time>
      </trkpt>
      <trkpt lat="43.72654" lon="7.01192">
        <ele>939.40002441406</ele>
        <time>2023-07-30T08:40:23.000Z</time>
      </trkpt>
      <trkpt lat="43.72654" lon="7.01192">
        <ele>939.40002441406</ele>
        <time>2023-07-30T08:40:24.000Z</time>
      </trkpt>
      <trkpt lat="43.72654" lon="7.01192">
        <ele>939.40002441406</ele>
        <time>2023-07-30T08:40:25.000Z</time>
      </trkpt>
      <trkpt lat="43.72654" lon="7.01192">
        <ele>939.40002441406</ele>
        <time>2023-07-30T08:40:26.000Z</time>
      </trkpt>
      <trkpt lat="43.72654" lon="7.01192">
        <ele>939.40002441406</ele>
        <time>2023-07-30T08:40:27.000Z</time>
      </trkpt>
      <trkpt lat="43.72654" lon="7.01192">
        <ele>939.40002441406</ele>
        <time>2023-07-30T08:40:28.000Z</time>
      </trkpt>
      <trkpt lat="43.72654" lon="7.01192">
        <ele>939.40002441406</ele>
        <time>2023-07-30T08:40:29.000Z</time>
      </trkpt>
      <trkpt lat="43.72654" lon="7.01192">
        <ele>939.40002441406</ele>
        <time>2023-07-30T08:40:30.000Z</time>
      </trkpt>
      <trkpt lat="43.72654" lon="7.01192">
        <ele>939.40002441406</ele>
        <time>2023-07-30T08:40:31.000Z</time>
      </trkpt>
      <trkpt lat="43.72654" lon="7.01192">
        <ele>939.40002441406</ele>
        <time>2023-07-30T08:40:32.000Z</time>
      </trkpt>
      <trkpt lat="43.72654" lon="7.01192">
        <ele>939.40002441406</ele>
        <time>2023-07-30T08:40:33.000Z</time>
      </trkpt>
      <trkpt lat="43.72654" lon="7.01192">
        <ele>939.40002441406</ele>
        <time>2023-07-30T08:40:34.000Z</time>
      </trkpt>
      <trkpt lat="43.72654" lon="7.01192">
        <ele>939.40002441406</ele>
        <time>2023-07-30T08:40:35.000Z</time>
      </trkpt>
      <trkpt lat="43.72654" lon="7.01192">
        <ele>939.40002441406</ele>
        <time>2023-07-30T08:40:36.000Z</time>
      </trkpt>
      <trkpt lat="43.72654" lon="7.01192">
        <ele>939.40002441406</ele>
        <time>2023-07-30T08:40:37.000Z</time>
      </trkpt>
      <trkpt lat="43.72654" lon="7.01192">
        <ele>939.40002441406</ele>
        <time>2023-07-30T08:40:38.000Z</time>
      </trkpt>
      <trkpt lat="43.72654" lon="7.01192">
        <ele>939.40002441406</ele>
        <time>2023-07-30T08:40:39.000Z</time>
      </trkpt>
      <trkpt lat="43.72654" lon="7.01192">
        <ele>939.40002441406</ele>
        <time>2023-07-30T08:40:40.000Z</time>
      </trkpt>
      <trkpt lat="43.72654" lon="7.01192">
        <ele>939.40002441406</ele>
        <time>2023-07-30T08:40:41.000Z</time>
      </trkpt>
      <trkpt lat="43.72654" lon="7.01192">
        <ele>939.40002441406</ele>
        <time>2023-07-30T08:40:42.000Z</time>
      </trkpt>
      <trkpt lat="43.72654" lon="7.01192">
        <ele>939.40002441406</ele>
        <time>2023-07-30T08:40:43.000Z</time>
      </trkpt>
      <trkpt lat="43.72654" lon="7.01192">
        <ele>939.40002441406</ele>
        <time>2023-07-30T08:40:44.000Z</time>
      </trkpt>
      <trkpt lat="43.72654" lon="7.01192">
        <ele>939.40002441406</ele>
        <time>2023-07-30T08:40:45.000Z</time>
      </trkpt>
      <trkpt lat="43.72654" lon="7.01192">
        <ele>939.40002441406</ele>
        <time>2023-07-30T08:40:46.000Z</time>
      </trkpt>
      <trkpt lat="43.72654" lon="7.01192">
        <ele>939.40002441406</ele>
        <time>2023-07-30T08:40:47.000Z</time>
      </trkpt>
      <trkpt lat="43.72654" lon="7.01192">
        <ele>939.40002441406</ele>
        <time>2023-07-30T08:40:48.000Z</time>
      </trkpt>
      <trkpt lat="43.72654" lon="7.01192">
        <ele>939.40002441406</ele>
        <time>2023-07-30T08:40:49.000Z</time>
      </trkpt>
      <trkpt lat="43.72654" lon="7.01192">
        <ele>939.40002441406</ele>
        <time>2023-07-30T08:40:50.000Z</time>
      </trkpt>
      <trkpt lat="43.72654" lon="7.01192">
        <ele>939.40002441406</ele>
        <time>2023-07-30T08:40:51.000Z</time>
      </trkpt>
      <trkpt lat="43.72654" lon="7.01192">
        <ele>939.40002441406</ele>
        <time>2023-07-30T08:40:52.000Z</time>
      </trkpt>
      <trkpt lat="43.72654" lon="7.01192">
        <ele>939.40002441406</ele>
        <time>2023-07-30T08:40:53.000Z</time>
      </trkpt>
      <trkpt lat="43.72654" lon="7.01192">
        <ele>939.40002441406</ele>
        <time>2023-07-30T08:40:54.000Z</time>
      </trkpt>
      <trkpt lat="43.72654" lon="7.01192">
        <ele>939.40002441406</ele>
        <time>2023-07-30T08:40:55.000Z</time>
      </trkpt>
      <trkpt lat="43.72654" lon="7.01192">
        <ele>939.40002441406</ele>
        <time>2023-07-30T08:40:56.000Z</time>
      </trkpt>
      <trkpt lat="43.72654" lon="7.01192">
        <ele>939.40002441406</ele>
        <time>2023-07-30T08:40:57.000Z</time>
      </trkpt>
      <trkpt lat="43.72654" lon="7.01192">
        <ele>939.40002441406</ele>
        <time>2023-07-30T08:40:58.000Z</time>
      </trkpt>
      <trkpt lat="43.72654" lon="7.01192">
        <ele>939.40002441406</ele>
        <time>2023-07-30T08:40:59.000Z</time>
      </trkpt>
      <trkpt lat="43.72654" lon="7.01192">
        <ele>939.40002441406</ele>
        <time>2023-07-30T08:41:00.000Z</time>
      </trkpt>
      <trkpt lat="43.72654" lon="7.01192">
        <ele>939.40002441406</ele>
        <time>2023-07-30T08:41:01.000Z</time>
      </trkpt>
      <trkpt lat="43.72654" lon="7.01192">
        <ele>939.40002441406</ele>
        <time>2023-07-30T08:41:02.000Z</time>
      </trkpt>
      <trkpt lat="43.72654" lon="7.01192">
        <ele>939.40002441406</ele>
        <time>2023-07-30T08:41:03.000Z</time>
      </trkpt>
      <trkpt lat="43.72654" lon="7.01192">
        <ele>939.40002441406</ele>
        <time>2023-07-30T08:41:04.000Z</time>
      </trkpt>
      <trkpt lat="43.72654" lon="7.01192">
        <ele>939.40002441406</ele>
        <time>2023-07-30T08:41:05.000Z</time>
      </trkpt>
      <trkpt lat="43.72654" lon="7.01192">
        <ele>939.40002441406</ele>
        <time>2023-07-30T08:41:06.000Z</time>
      </trkpt>
      <trkpt lat="43.72654" lon="7.01192">
        <ele>939.40002441406</ele>
        <time>2023-07-30T08:41:07.000Z</time>
      </trkpt>
      <trkpt lat="43.72654" lon="7.01192">
        <ele>939.40002441406</ele>
        <time>2023-07-30T08:41:08.000Z</time>
      </trkpt>
      <trkpt lat="43.72654" lon="7.01192">
        <ele>939.40002441406</ele>
        <time>2023-07-30T08:41:09.000Z</time>
      </trkpt>
      <trkpt lat="43.72654" lon="7.01192">
        <ele>939.40002441406</ele>
        <time>2023-07-30T08:41:10.000Z</time>
      </trkpt>
      <trkpt lat="43.72654" lon="7.01192">
        <ele>939.40002441406</ele>
        <time>2023-07-30T08:41:11.000Z</time>
      </trkpt>
      <trkpt lat="43.72654" lon="7.01192">
        <ele>939.40002441406</ele>
        <time>2023-07-30T08:41:12.000Z</time>
      </trkpt>
      <trkpt lat="43.72654" lon="7.01192">
        <ele>939.40002441406</ele>
        <time>2023-07-30T08:41:13.000Z</time>
      </trkpt>
      <trkpt lat="43.72654" lon="7.01192">
        <ele>939.40002441406</ele>
        <time>2023-07-30T08:41:14.000Z</time>
      </trkpt>
      <trkpt lat="43.72654" lon="7.01192">
        <ele>939.40002441406</ele>
        <time>2023-07-30T08:41:15.000Z</time>
      </trkpt>
      <trkpt lat="43.72654" lon="7.01192">
        <ele>939.40002441406</ele>
        <time>2023-07-30T08:41:16.000Z</time>
      </trkpt>
      <trkpt lat="43.72654" lon="7.01192">
        <ele>939.40002441406</ele>
        <time>2023-07-30T08:41:17.000Z</time>
      </trkpt>
      <trkpt lat="43.72654" lon="7.01192">
        <ele>939.40002441406</ele>
        <time>2023-07-30T08:41:18.000Z</time>
      </trkpt>
      <trkpt lat="43.72654" lon="7.01192">
        <ele>939.40002441406</ele>
        <time>2023-07-30T08:41:19.000Z</time>
      </trkpt>
      <trkpt lat="43.72654" lon="7.01192">
        <ele>939.40002441406</ele>
        <time>2023-07-30T08:41:20.000Z</time>
      </trkpt>
      <trkpt lat="43.72654" lon="7.01192">
        <ele>939.40002441406</ele>
        <time>2023-07-30T08:41:21.000Z</time>
      </trkpt>
      <trkpt lat="43.72654" lon="7.01192">
        <ele>939.40002441406</ele>
        <time>2023-07-30T08:41:22.000Z</time>
      </trkpt>
      <trkpt lat="43.72654" lon="7.01192">
        <ele>939.40002441406</ele>
        <time>2023-07-30T08:41:23.000Z</time>
      </trkpt>
      <trkpt lat="43.72654" lon="7.01192">
        <ele>939.40002441406</ele>
        <time>2023-07-30T08:41:24.000Z</time>
      </trkpt>
      <trkpt lat="43.72654" lon="7.01192">
        <ele>939.40002441406</ele>
        <time>2023-07-30T08:41:25.000Z</time>
      </trkpt>
      <trkpt lat="43.72654" lon="7.01192">
        <ele>939.40002441406</ele>
        <time>2023-07-30T08:41:26.000Z</time>
      </trkpt>
      <trkpt lat="43.72654" lon="7.01192">
        <ele>939.40002441406</ele>
        <time>2023-07-30T08:41:27.000Z</time>
      </trkpt>
      <trkpt lat="43.72654" lon="7.01192">
        <ele>939.40002441406</ele>
        <time>2023-07-30T08:41:28.000Z</time>
      </trkpt>
      <trkpt lat="43.72654" lon="7.01192">
        <ele>939.40002441406</ele>
        <time>2023-07-30T08:41:29.000Z</time>
      </trkpt>
      <trkpt lat="43.72654" lon="7.01192">
        <ele>939.40002441406</ele>
        <time>2023-07-30T08:41:30.000Z</time>
      </trkpt>
      <trkpt lat="43.72654" lon="7.01192">
        <ele>939.40002441406</ele>
        <time>2023-07-30T08:41:31.000Z</time>
      </trkpt>
      <trkpt lat="43.72654" lon="7.01192">
        <ele>939.40002441406</ele>
        <time>2023-07-30T08:41:32.000Z</time>
      </trkpt>
      <trkpt lat="43.72654" lon="7.01192">
        <ele>939.40002441406</ele>
        <time>2023-07-30T08:41:33.000Z</time>
      </trkpt>
      <trkpt lat="43.72654" lon="7.01192">
        <ele>939.40002441406</ele>
        <time>2023-07-30T08:41:34.000Z</time>
      </trkpt>
      <trkpt lat="43.72654" lon="7.01192">
        <ele>939.40002441406</ele>
        <time>2023-07-30T08:41:35.000Z</time>
      </trkpt>
      <trkpt lat="43.72654" lon="7.01192">
        <ele>939.40002441406</ele>
        <time>2023-07-30T08:41:36.000Z</time>
      </trkpt>
      <trkpt lat="43.72654" lon="7.01192">
        <ele>939.40002441406</ele>
        <time>2023-07-30T08:41:37.000Z</time>
      </trkpt>
      <trkpt lat="43.72654" lon="7.01192">
        <ele>939.40002441406</ele>
        <time>2023-07-30T08:41:38.000Z</time>
      </trkpt>
      <trkpt lat="43.72654" lon="7.01192">
        <ele>939.40002441406</ele>
        <time>2023-07-30T08:41:39.000Z</time>
      </trkpt>
      <trkpt lat="43.72654" lon="7.01192">
        <ele>939.40002441406</ele>
        <time>2023-07-30T08:41:40.000Z</time>
      </trkpt>
      <trkpt lat="43.72654" lon="7.01192">
        <ele>939.40002441406</ele>
        <time>2023-07-30T08:41:41.000Z</time>
      </trkpt>
      <trkpt lat="43.72654" lon="7.01192">
        <ele>939.40002441406</ele>
        <time>2023-07-30T08:41:42.000Z</time>
      </trkpt>
      <trkpt lat="43.72654" lon="7.01192">
        <ele>939.40002441406</ele>
        <time>2023-07-30T08:41:43.000Z</time>
      </trkpt>
      <trkpt lat="43.72654" lon="7.01192">
        <ele>939.40002441406</ele>
        <time>2023-07-30T08:41:44.000Z</time>
      </trkpt>
      <trkpt lat="43.72654" lon="7.01192">
        <ele>939.40002441406</ele>
        <time>2023-07-30T08:41:45.000Z</time>
      </trkpt>
      <trkpt lat="43.72654" lon="7.01192">
        <ele>939.40002441406</ele>
        <time>2023-07-30T08:41:46.000Z</time>
      </trkpt>
      <trkpt lat="43.72654" lon="7.01192">
        <ele>939.40002441406</ele>
        <time>2023-07-30T08:41:47.000Z</time>
      </trkpt>
      <trkpt lat="43.72654" lon="7.01192">
        <ele>939.40002441406</ele>
        <time>2023-07-30T08:41:48.000Z</time>
      </trkpt>
      <trkpt lat="43.72654" lon="7.01192">
        <ele>939.40002441406</ele>
        <time>2023-07-30T08:41:49.000Z</time>
      </trkpt>
      <trkpt lat="43.72654" lon="7.01192">
        <ele>939.40002441406</ele>
        <time>2023-07-30T08:41:50.000Z</time>
      </trkpt>
      <trkpt lat="43.72654" lon="7.01192">
        <ele>939.40002441406</ele>
        <time>2023-07-30T08:41:51.000Z</time>
      </trkpt>
      <trkpt lat="43.72654" lon="7.01192">
        <ele>939.40002441406</ele>
        <time>2023-07-30T08:41:52.000Z</time>
      </trkpt>
      <trkpt lat="43.72654" lon="7.01192">
        <ele>939.40002441406</ele>
        <time>2023-07-30T08:41:53.000Z</time>
      </trkpt>
      <trkpt lat="43.72654" lon="7.01192">
        <ele>939.40002441406</ele>
        <time>2023-07-30T08:41:54.000Z</time>
      </trkpt>
      <trkpt lat="43.72654" lon="7.01192">
        <ele>939.40002441406</ele>
        <time>2023-07-30T08:41:55.000Z</time>
      </trkpt>
      <trkpt lat="43.72654" lon="7.01192">
        <ele>939.40002441406</ele>
        <time>2023-07-30T08:41:56.000Z</time>
      </trkpt>
      <trkpt lat="43.72654" lon="7.01192">
        <ele>939.40002441406</ele>
        <time>2023-07-30T08:41:57.000Z</time>
      </trkpt>
      <trkpt lat="43.72654" lon="7.01192">
        <ele>939.40002441406</ele>
        <time>2023-07-30T08:41:58.000Z</time>
      </trkpt>
      <trkpt lat="43.72654" lon="7.01192">
        <ele>939.40002441406</ele>
        <time>2023-07-30T08:41:59.000Z</time>
      </trkpt>
      <trkpt lat="43.72654" lon="7.01192">
        <ele>939.40002441406</ele>
        <time>2023-07-30T08:42:00.000Z</time>
      </trkpt>
      <trkpt lat="43.72654" lon="7.01192">
        <ele>939.40002441406</ele>
        <time>2023-07-30T08:42:01.000Z</time>
      </trkpt>
      <trkpt lat="43.72654" lon="7.01192">
        <ele>939.40002441406</ele>
        <time>2023-07-30T08:42:02.000Z</time>
      </trkpt>
      <trkpt lat="43.72654" lon="7.01192">
        <ele>939.40002441406</ele>
        <time>2023-07-30T08:42:03.000Z</time>
      </trkpt>
      <trkpt lat="43.72654" lon="7.01192">
        <ele>939.40002441406</ele>
        <time>2023-07-30T08:42:04.000Z</time>
      </trkpt>
      <trkpt lat="43.72654" lon="7.01192">
        <ele>939.40002441406</ele>
        <time>2023-07-30T08:42:05.000Z</time>
      </trkpt>
      <trkpt lat="43.72654" lon="7.01192">
        <ele>939.40002441406</ele>
        <time>2023-07-30T08:42:06.000Z</time>
      </trkpt>
      <trkpt lat="43.72654" lon="7.01192">
        <ele>939.40002441406</ele>
        <time>2023-07-30T08:42:07.000Z</time>
      </trkpt>
      <trkpt lat="43.72654" lon="7.01192">
        <ele>939.40002441406</ele>
        <time>2023-07-30T08:42:08.000Z</time>
      </trkpt>
      <trkpt lat="43.72654" lon="7.01192">
        <ele>939.40002441406</ele>
        <time>2023-07-30T08:42:09.000Z</time>
      </trkpt>
      <trkpt lat="43.72654" lon="7.01192">
        <ele>939.40002441406</ele>
        <time>2023-07-30T08:42:10.000Z</time>
      </trkpt>
      <trkpt lat="43.72654" lon="7.01192">
        <ele>939.40002441406</ele>
        <time>2023-07-30T08:42:11.000Z</time>
      </trkpt>
      <trkpt lat="43.72654" lon="7.01192">
        <ele>939.40002441406</ele>
        <time>2023-07-30T08:42:12.000Z</time>
      </trkpt>
      <trkpt lat="43.72654" lon="7.01192">
        <ele>939.40002441406</ele>
        <time>2023-07-30T08:42:13.000Z</time>
      </trkpt>
      <trkpt lat="43.72654" lon="7.01192">
        <ele>939.40002441406</ele>
        <time>2023-07-30T08:42:14.000Z</time>
      </trkpt>
      <trkpt lat="43.72654" lon="7.01192">
        <ele>939.40002441406</ele>
        <time>2023-07-30T08:42:15.000Z</time>
      </trkpt>
      <trkpt lat="43.72654" lon="7.01192">
        <ele>939.40002441406</ele>
        <time>2023-07-30T08:42:16.000Z</time>
      </trkpt>
      <trkpt lat="43.72654" lon="7.01192">
        <ele>939.40002441406</ele>
        <time>2023-07-30T08:42:17.000Z</time>
      </trkpt>
      <trkpt lat="43.72654" lon="7.01192">
        <ele>939.40002441406</ele>
        <time>2023-07-30T08:42:18.000Z</time>
      </trkpt>
      <trkpt lat="43.72654" lon="7.01192">
        <ele>939.40002441406</ele>
        <time>2023-07-30T08:42:19.000Z</time>
      </trkpt>
      <trkpt lat="43.72654" lon="7.01192">
        <ele>939.40002441406</ele>
        <time>2023-07-30T08:42:20.000Z</time>
      </trkpt>
      <trkpt lat="43.72654" lon="7.01192">
        <ele>939.40002441406</ele>
        <time>2023-07-30T08:42:21.000Z</time>
      </trkpt>
      <trkpt lat="43.72654" lon="7.01192">
        <ele>939.40002441406</ele>
        <time>2023-07-30T08:42:22.000Z</time>
      </trkpt>
      <trkpt lat="43.72654" lon="7.01192">
        <ele>939.40002441406</ele>
        <time>2023-07-30T08:42:23.000Z</time>
      </trkpt>
      <trkpt lat="43.72654" lon="7.01192">
        <ele>939.40002441406</ele>
        <time>2023-07-30T08:42:24.000Z</time>
      </trkpt>
      <trkpt lat="43.72654" lon="7.01192">
        <ele>939.40002441406</ele>
        <time>2023-07-30T08:42:25.000Z</time>
      </trkpt>
      <trkpt lat="43.72654" lon="7.01192">
        <ele>939.40002441406</ele>
        <time>2023-07-30T08:42:26.000Z</time>
      </trkpt>
      <trkpt lat="43.72654" lon="7.01192">
        <ele>939.40002441406</ele>
        <time>2023-07-30T08:42:27.000Z</time>
      </trkpt>
      <trkpt lat="43.72654" lon="7.01192">
        <ele>939.40002441406</ele>
        <time>2023-07-30T08:42:28.000Z</time>
      </trkpt>
      <trkpt lat="43.72654" lon="7.01192">
        <ele>939.40002441406</ele>
        <time>2023-07-30T08:42:29.000Z</time>
      </trkpt>
      <trkpt lat="43.72654" lon="7.01192">
        <ele>939.40002441406</ele>
        <time>2023-07-30T08:42:30.000Z</time>
      </trkpt>
      <trkpt lat="43.72654" lon="7.01192">
        <ele>939.40002441406</ele>
        <time>2023-07-30T08:42:31.000Z</time>
      </trkpt>
      <trkpt lat="43.72654" lon="7.01192">
        <ele>939.40002441406</ele>
        <time>2023-07-30T08:42:32.000Z</time>
      </trkpt>
      <trkpt lat="43.72654" lon="7.01192">
        <ele>939.40002441406</ele>
        <time>2023-07-30T08:42:33.000Z</time>
      </trkpt>
      <trkpt lat="43.72654" lon="7.01192">
        <ele>939.40002441406</ele>
        <time>2023-07-30T08:42:34.000Z</time>
      </trkpt>
      <trkpt lat="43.72654" lon="7.01192">
        <ele>939.40002441406</ele>
        <time>2023-07-30T08:42:35.000Z</time>
      </trkpt>
      <trkpt lat="43.72654" lon="7.01192">
        <ele>939.40002441406</ele>
        <time>2023-07-30T08:42:36.000Z</time>
      </trkpt>
      <trkpt lat="43.72654" lon="7.01192">
        <ele>939.40002441406</ele>
        <time>2023-07-30T08:42:37.000Z</time>
      </trkpt>
      <trkpt lat="43.72654" lon="7.01192">
        <ele>939.40002441406</ele>
        <time>2023-07-30T08:42:38.000Z</time>
      </trkpt>
      <trkpt lat="43.72654" lon="7.01192">
        <ele>939.40002441406</ele>
        <time>2023-07-30T08:42:39.000Z</time>
      </trkpt>
      <trkpt lat="43.72654" lon="7.01192">
        <ele>939.40002441406</ele>
        <time>2023-07-30T08:42:40.000Z</time>
      </trkpt>
      <trkpt lat="43.72654" lon="7.01192">
        <ele>939.40002441406</ele>
        <time>2023-07-30T08:42:41.000Z</time>
      </trkpt>
      <trkpt lat="43.72654" lon="7.01192">
        <ele>939.40002441406</ele>
        <time>2023-07-30T08:42:42.000Z</time>
      </trkpt>
      <trkpt lat="43.72654" lon="7.01192">
        <ele>939.40002441406</ele>
        <time>2023-07-30T08:42:43.000Z</time>
      </trkpt>
      <trkpt lat="43.72654" lon="7.01192">
        <ele>939.40002441406</ele>
        <time>2023-07-30T08:42:44.000Z</time>
      </trkpt>
      <trkpt lat="43.72654" lon="7.01192">
        <ele>939.40002441406</ele>
        <time>2023-07-30T08:42:45.000Z</time>
      </trkpt>
      <trkpt lat="43.72654" lon="7.01192">
        <ele>939.40002441406</ele>
        <time>2023-07-30T08:42:46.000Z</time>
      </trkpt>
      <trkpt lat="43.72654" lon="7.01192">
        <ele>939.40002441406</ele>
        <time>2023-07-30T08:42:47.000Z</time>
      </trkpt>
      <trkpt lat="43.72654" lon="7.01192">
        <ele>939.40002441406</ele>
        <time>2023-07-30T08:42:48.000Z</time>
      </trkpt>
      <trkpt lat="43.72654" lon="7.01192">
        <ele>939.40002441406</ele>
        <time>2023-07-30T08:42:49.000Z</time>
      </trkpt>
      <trkpt lat="43.72654" lon="7.01192">
        <ele>939.40002441406</ele>
        <time>2023-07-30T08:42:50.000Z</time>
      </trkpt>
      <trkpt lat="43.72654" lon="7.01192">
        <ele>939.40002441406</ele>
        <time>2023-07-30T08:42:51.000Z</time>
      </trkpt>
      <trkpt lat="43.72654" lon="7.01192">
        <ele>939.40002441406</ele>
        <time>2023-07-30T08:42:52.000Z</time>
      </trkpt>
      <trkpt lat="43.72654" lon="7.01192">
        <ele>939.40002441406</ele>
        <time>2023-07-30T08:42:53.000Z</time>
      </trkpt>
      <trkpt lat="43.72654" lon="7.01192">
        <ele>939.40002441406</ele>
        <time>2023-07-30T08:42:54.000Z</time>
      </trkpt>
      <trkpt lat="43.72654" lon="7.01192">
        <ele>939.40002441406</ele>
        <time>2023-07-30T08:42:55.000Z</time>
      </trkpt>
      <trkpt lat="43.72654" lon="7.01192">
        <ele>939.40002441406</ele>
        <time>2023-07-30T08:42:56.000Z</time>
      </trkpt>
      <trkpt lat="43.72654" lon="7.01192">
        <ele>939.40002441406</ele>
        <time>2023-07-30T08:42:57.000Z</time>
      </trkpt>
      <trkpt lat="43.72654" lon="7.01192">
        <ele>939.40002441406</ele>
        <time>2023-07-30T08:42:58.000Z</time>
      </trkpt>
      <trkpt lat="43.72654" lon="7.01192">
        <ele>939.40002441406</ele>
        <time>2023-07-30T08:42:59.000Z</time>
      </trkpt>
      <trkpt lat="43.72654" lon="7.01192">
        <ele>939.40002441406</ele>
        <time>2023-07-30T08:43:00.000Z</time>
      </trkpt>
      <trkpt lat="43.72655" lon="7.01193">
        <ele>939.40002441406</ele>
        <time>2023-07-30T08:43:01.000Z</time>
      </trkpt>
      <trkpt lat="43.72655" lon="7.01193">
        <ele>939.40002441406</ele>
        <time>2023-07-30T08:43:02.000Z</time>
      </trkpt>
      <trkpt lat="43.72654" lon="7.01193">
        <ele>939.40002441406</ele>
        <time>2023-07-30T08:43:03.000Z</time>
      </trkpt>
      <trkpt lat="43.72654" lon="7.01194">
        <ele>939.40002441406</ele>
        <time>2023-07-30T08:43:04.000Z</time>
      </trkpt>
      <trkpt lat="43.72653" lon="7.01195">
        <ele>939.40002441406</ele>
        <time>2023-07-30T08:43:05.000Z</time>
      </trkpt>
      <trkpt lat="43.72653" lon="7.01195">
        <ele>939.40002441406</ele>
        <time>2023-07-30T08:43:06.000Z</time>
      </trkpt>
      <trkpt lat="43.72653" lon="7.01195">
        <ele>939.40002441406</ele>
        <time>2023-07-30T08:43:07.000Z</time>
      </trkpt>
      <trkpt lat="43.72653" lon="7.01195">
        <ele>939.40002441406</ele>
        <time>2023-07-30T08:43:08.000Z</time>
      </trkpt>
      <trkpt lat="43.72653" lon="7.01195">
        <ele>939.40002441406</ele>
        <time>2023-07-30T08:43:09.000Z</time>
      </trkpt>
      <trkpt lat="43.72653" lon="7.01194">
        <ele>939.40002441406</ele>
        <time>2023-07-30T08:43:10.000Z</time>
      </trkpt>
      <trkpt lat="43.72653" lon="7.01194">
        <ele>939.40002441406</ele>
        <time>2023-07-30T08:43:11.000Z</time>
      </trkpt>
      <trkpt lat="43.72653" lon="7.01195">
        <ele>939.40002441406</ele>
        <time>2023-07-30T08:43:12.000Z</time>
      </trkpt>
      <trkpt lat="43.72653" lon="7.01196">
        <ele>939.40002441406</ele>
        <time>2023-07-30T08:43:13.000Z</time>
      </trkpt>
      <trkpt lat="43.72653" lon="7.01196">
        <ele>939.40002441406</ele>
        <time>2023-07-30T08:43:14.000Z</time>
      </trkpt>
      <trkpt lat="43.72653" lon="7.01196">
        <ele>939.40002441406</ele>
        <time>2023-07-30T08:43:15.000Z</time>
      </trkpt>
      <trkpt lat="43.72653" lon="7.01196">
        <ele>939.40002441406</ele>
        <time>2023-07-30T08:43:16.000Z</time>
      </trkpt>
      <trkpt lat="43.72653" lon="7.01196">
        <ele>939.40002441406</ele>
        <time>2023-07-30T08:43:17.000Z</time>
      </trkpt>
      <trkpt lat="43.72652" lon="7.01196">
        <ele>939.40002441406</ele>
        <time>2023-07-30T08:43:18.000Z</time>
      </trkpt>
      <trkpt lat="43.72652" lon="7.01196">
        <ele>939.40002441406</ele>
        <time>2023-07-30T08:43:19.000Z</time>
      </trkpt>
      <trkpt lat="43.72652" lon="7.01196">
        <ele>939.40002441406</ele>
        <time>2023-07-30T08:43:20.000Z</time>
      </trkpt>
      <trkpt lat="43.72652" lon="7.01196">
        <ele>939.40002441406</ele>
        <time>2023-07-30T08:43:21.000Z</time>
      </trkpt>
      <trkpt lat="43.72652" lon="7.01196">
        <ele>939.40002441406</ele>
        <time>2023-07-30T08:43:22.000Z</time>
      </trkpt>
      <trkpt lat="43.72652" lon="7.01196">
        <ele>939.40002441406</ele>
        <time>2023-07-30T08:43:23.000Z</time>
      </trkpt>
      <trkpt lat="43.72652" lon="7.01196">
        <ele>939.40002441406</ele>
        <time>2023-07-30T08:43:24.000Z</time>
      </trkpt>
      <trkpt lat="43.72652" lon="7.01196">
        <ele>939.40002441406</ele>
        <time>2023-07-30T08:43:25.000Z</time>
      </trkpt>
      <trkpt lat="43.72652" lon="7.01196">
        <ele>939.40002441406</ele>
        <time>2023-07-30T08:43:26.000Z</time>
      </trkpt>
      <trkpt lat="43.72652" lon="7.01196">
        <ele>939.40002441406</ele>
        <time>2023-07-30T08:43:27.000Z</time>
      </trkpt>
      <trkpt lat="43.72652" lon="7.01196">
        <ele>939.40002441406</ele>
        <time>2023-07-30T08:43:28.000Z</time>
      </trkpt>
      <trkpt lat="43.72652" lon="7.01196">
        <ele>939.40002441406</ele>
        <time>2023-07-30T08:43:29.000Z</time>
      </trkpt>
      <trkpt lat="43.72652" lon="7.01196">
        <ele>939.40002441406</ele>
        <time>2023-07-30T08:43:30.000Z</time>
      </trkpt>
      <trkpt lat="43.72652" lon="7.01196">
        <ele>939.40002441406</ele>
        <time>2023-07-30T08:43:31.000Z</time>
      </trkpt>
      <trkpt lat="43.72652" lon="7.01196">
        <ele>939.40002441406</ele>
        <time>2023-07-30T08:43:32.000Z</time>
      </trkpt>
      <trkpt lat="43.72652" lon="7.01196">
        <ele>939.40002441406</ele>
        <time>2023-07-30T08:43:33.000Z</time>
      </trkpt>
      <trkpt lat="43.72652" lon="7.01196">
        <ele>939.40002441406</ele>
        <time>2023-07-30T08:43:34.000Z</time>
      </trkpt>
      <trkpt lat="43.72652" lon="7.01196">
        <ele>939.40002441406</ele>
        <time>2023-07-30T08:43:35.000Z</time>
      </trkpt>
      <trkpt lat="43.72652" lon="7.01196">
        <ele>939.40002441406</ele>
        <time>2023-07-30T08:43:36.000Z</time>
      </trkpt>
      <trkpt lat="43.72652" lon="7.01196">
        <ele>939.40002441406</ele>
        <time>2023-07-30T08:43:37.000Z</time>
      </trkpt>
      <trkpt lat="43.72652" lon="7.01196">
        <ele>939.40002441406</ele>
        <time>2023-07-30T08:43:38.000Z</time>
      </trkpt>
      <trkpt lat="43.72652" lon="7.01196">
        <ele>939.40002441406</ele>
        <time>2023-07-30T08:43:39.000Z</time>
      </trkpt>
      <trkpt lat="43.72652" lon="7.01196">
        <ele>939.40002441406</ele>
        <time>2023-07-30T08:43:40.000Z</time>
      </trkpt>
      <trkpt lat="43.72652" lon="7.01196">
        <ele>939.40002441406</ele>
        <time>2023-07-30T08:43:41.000Z</time>
      </trkpt>
      <trkpt lat="43.72652" lon="7.01196">
        <ele>939.40002441406</ele>
        <time>2023-07-30T08:43:42.000Z</time>
      </trkpt>
      <trkpt lat="43.72652" lon="7.01196">
        <ele>939.40002441406</ele>
        <time>2023-07-30T08:43:43.000Z</time>
      </trkpt>
      <trkpt lat="43.72652" lon="7.01196">
        <ele>939.40002441406</ele>
        <time>2023-07-30T08:43:44.000Z</time>
      </trkpt>
      <trkpt lat="43.72652" lon="7.01196">
        <ele>939.40002441406</ele>
        <time>2023-07-30T08:43:45.000Z</time>
      </trkpt>
      <trkpt lat="43.72652" lon="7.01196">
        <ele>939.40002441406</ele>
        <time>2023-07-30T08:43:46.000Z</time>
      </trkpt>
      <trkpt lat="43.72652" lon="7.01196">
        <ele>939.40002441406</ele>
        <time>2023-07-30T08:43:47.000Z</time>
      </trkpt>
      <trkpt lat="43.72652" lon="7.01196">
        <ele>939.40002441406</ele>
        <time>2023-07-30T08:43:48.000Z</time>
      </trkpt>
      <trkpt lat="43.72652" lon="7.01196">
        <ele>939.40002441406</ele>
        <time>2023-07-30T08:43:49.000Z</time>
      </trkpt>
      <trkpt lat="43.72652" lon="7.01196">
        <ele>939.40002441406</ele>
        <time>2023-07-30T08:43:50.000Z</time>
      </trkpt>
      <trkpt lat="43.72652" lon="7.01196">
        <ele>939.40002441406</ele>
        <time>2023-07-30T08:43:51.000Z</time>
      </trkpt>
      <trkpt lat="43.72652" lon="7.01196">
        <ele>939.40002441406</ele>
        <time>2023-07-30T08:43:52.000Z</time>
      </trkpt>
      <trkpt lat="43.72652" lon="7.01196">
        <ele>939.40002441406</ele>
        <time>2023-07-30T08:43:53.000Z</time>
      </trkpt>
      <trkpt lat="43.72652" lon="7.01197">
        <ele>939.40002441406</ele>
        <time>2023-07-30T08:43:54.000Z</time>
      </trkpt>
      <trkpt lat="43.72651" lon="7.01197">
        <ele>939.40002441406</ele>
        <time>2023-07-30T08:43:55.000Z</time>
      </trkpt>
      <trkpt lat="43.72651" lon="7.01198">
        <ele>939.40002441406</ele>
        <time>2023-07-30T08:43:56.000Z</time>
      </trkpt>
      <trkpt lat="43.72651" lon="7.01198">
        <ele>939.40002441406</ele>
        <time>2023-07-30T08:43:57.000Z</time>
      </trkpt>
      <trkpt lat="43.72651" lon="7.01198">
        <ele>939.40002441406</ele>
        <time>2023-07-30T08:43:58.000Z</time>
      </trkpt>
      <trkpt lat="43.72652" lon="7.01198">
        <ele>939.40002441406</ele>
        <time>2023-07-30T08:43:59.000Z</time>
      </trkpt>
      <trkpt lat="43.72652" lon="7.01198">
        <ele>939.40002441406</ele>
        <time>2023-07-30T08:44:00.000Z</time>
      </trkpt>
      <trkpt lat="43.72652" lon="7.01198">
        <ele>939.40002441406</ele>
        <time>2023-07-30T08:44:01.000Z</time>
      </trkpt>
      <trkpt lat="43.72652" lon="7.01198">
        <ele>939.40002441406</ele>
        <time>2023-07-30T08:44:02.000Z</time>
      </trkpt>
      <trkpt lat="43.72651" lon="7.01198">
        <ele>939.40002441406</ele>
        <time>2023-07-30T08:44:03.000Z</time>
      </trkpt>
      <trkpt lat="43.72651" lon="7.01199">
        <ele>939.40002441406</ele>
        <time>2023-07-30T08:44:04.000Z</time>
      </trkpt>
      <trkpt lat="43.72651" lon="7.01199">
        <ele>939.40002441406</ele>
        <time>2023-07-30T08:44:05.000Z</time>
      </trkpt>
      <trkpt lat="43.72651" lon="7.01199">
        <ele>939.40002441406</ele>
        <time>2023-07-30T08:44:06.000Z</time>
      </trkpt>
      <trkpt lat="43.72651" lon="7.01199">
        <ele>939.40002441406</ele>
        <time>2023-07-30T08:44:07.000Z</time>
      </trkpt>
      <trkpt lat="43.72651" lon="7.01199">
        <ele>939.40002441406</ele>
        <time>2023-07-30T08:44:08.000Z</time>
      </trkpt>
      <trkpt lat="43.72651" lon="7.01199">
        <ele>939.40002441406</ele>
        <time>2023-07-30T08:44:09.000Z</time>
      </trkpt>
      <trkpt lat="43.72651" lon="7.01199">
        <ele>939.40002441406</ele>
        <time>2023-07-30T08:44:10.000Z</time>
      </trkpt>
      <trkpt lat="43.72651" lon="7.01199">
        <ele>939.40002441406</ele>
        <time>2023-07-30T08:44:11.000Z</time>
      </trkpt>
      <trkpt lat="43.72651" lon="7.01199">
        <ele>939.40002441406</ele>
        <time>2023-07-30T08:44:12.000Z</time>
      </trkpt>
      <trkpt lat="43.72651" lon="7.01199">
        <ele>939.40002441406</ele>
        <time>2023-07-30T08:44:13.000Z</time>
      </trkpt>
      <trkpt lat="43.72651" lon="7.01199">
        <ele>939.40002441406</ele>
        <time>2023-07-30T08:44:14.000Z</time>
      </trkpt>
      <trkpt lat="43.72651" lon="7.01199">
        <ele>939.40002441406</ele>
        <time>2023-07-30T08:44:15.000Z</time>
      </trkpt>
      <trkpt lat="43.7265" lon="7.012">
        <ele>939.40002441406</ele>
        <time>2023-07-30T08:44:16.000Z</time>
      </trkpt>
      <trkpt lat="43.72649" lon="7.012">
        <ele>939.40002441406</ele>
        <time>2023-07-30T08:44:17.000Z</time>
      </trkpt>
      <trkpt lat="43.72649" lon="7.012">
        <ele>939.40002441406</ele>
        <time>2023-07-30T08:44:18.000Z</time>
      </trkpt>
      <trkpt lat="43.72649" lon="7.012">
        <ele>939.40002441406</ele>
        <time>2023-07-30T08:44:19.000Z</time>
      </trkpt>
      <trkpt lat="43.72649" lon="7.012">
        <ele>939.40002441406</ele>
        <time>2023-07-30T08:44:20.000Z</time>
      </trkpt>
      <trkpt lat="43.72649" lon="7.012">
        <ele>939.40002441406</ele>
        <time>2023-07-30T08:44:21.000Z</time>
      </trkpt>
      <trkpt lat="43.72648" lon="7.012">
        <ele>939.40002441406</ele>
        <time>2023-07-30T08:44:22.000Z</time>
      </trkpt>
      <trkpt lat="43.72647" lon="7.01201">
        <ele>939.40002441406</ele>
        <time>2023-07-30T08:44:23.000Z</time>
      </trkpt>
      <trkpt lat="43.72646" lon="7.01203">
        <ele>939.40002441406</ele>
        <time>2023-07-30T08:44:24.000Z</time>
      </trkpt>
      <trkpt lat="43.72644" lon="7.01203">
        <ele>939.40002441406</ele>
        <time>2023-07-30T08:44:25.000Z</time>
      </trkpt>
      <trkpt lat="43.72642" lon="7.01205">
        <ele>939.40002441406</ele>
        <time>2023-07-30T08:44:26.000Z</time>
      </trkpt>
      <trkpt lat="43.7264" lon="7.01206">
        <ele>939.40002441406</ele>
        <time>2023-07-30T08:44:27.000Z</time>
      </trkpt>
      <trkpt lat="43.72637" lon="7.01207">
        <ele>939.20001220703</ele>
        <time>2023-07-30T08:44:28.000Z</time>
      </trkpt>
      <trkpt lat="43.72634" lon="7.01209">
        <ele>939.20001220703</ele>
        <time>2023-07-30T08:44:29.000Z</time>
      </trkpt>
      <trkpt lat="43.72631" lon="7.01212">
        <ele>939.20001220703</ele>
        <time>2023-07-30T08:44:30.000Z</time>
      </trkpt>
      <trkpt lat="43.72627" lon="7.01215">
        <ele>938.79998779297</ele>
        <time>2023-07-30T08:44:31.000Z</time>
      </trkpt>
      <trkpt lat="43.72623" lon="7.01217">
        <ele>938.79998779297</ele>
        <time>2023-07-30T08:44:32.000Z</time>
      </trkpt>
      <trkpt lat="43.72619" lon="7.0122">
        <ele>938.40002441406</ele>
        <time>2023-07-30T08:44:33.000Z</time>
      </trkpt>
      <trkpt lat="43.72613" lon="7.01224">
        <ele>938.40002441406</ele>
        <time>2023-07-30T08:44:34.000Z</time>
      </trkpt>
      <trkpt lat="43.72607" lon="7.01227">
        <ele>938.40002441406</ele>
        <time>2023-07-30T08:44:35.000Z</time>
      </trkpt>
      <trkpt lat="43.72601" lon="7.01229">
        <ele>938.40002441406</ele>
        <time>2023-07-30T08:44:36.000Z</time>
      </trkpt>
      <trkpt lat="43.72595" lon="7.01232">
        <ele>937.20001220703</ele>
        <time>2023-07-30T08:44:37.000Z</time>
      </trkpt>
      <trkpt lat="43.72588" lon="7.01235">
        <ele>936.79998779297</ele>
        <time>2023-07-30T08:44:38.000Z</time>
      </trkpt>
      <trkpt lat="43.72581" lon="7.01238">
        <ele>936.20001220703</ele>
        <time>2023-07-30T08:44:39.000Z</time>
      </trkpt>
      <trkpt lat="43.72574" lon="7.01242">
        <ele>936</ele>
        <time>2023-07-30T08:44:40.000Z</time>
      </trkpt>
      <trkpt lat="43.72567" lon="7.01248">
        <ele>936</ele>
        <time>2023-07-30T08:44:41.000Z</time>
      </trkpt>
      <trkpt lat="43.72561" lon="7.01254">
        <ele>935.59997558594</ele>
        <time>2023-07-30T08:44:42.000Z</time>
      </trkpt>
      <trkpt lat="43.72554" lon="7.01261">
        <ele>934.59997558594</ele>
        <time>2023-07-30T08:44:43.000Z</time>
      </trkpt>
      <trkpt lat="43.72548" lon="7.01268">
        <ele>934.40002441406</ele>
        <time>2023-07-30T08:44:44.000Z</time>
      </trkpt>
      <trkpt lat="43.7254" lon="7.01275">
        <ele>934</ele>
        <time>2023-07-30T08:44:45.000Z</time>
      </trkpt>
      <trkpt lat="43.72533" lon="7.01282">
        <ele>933.40002441406</ele>
        <time>2023-07-30T08:44:46.000Z</time>
      </trkpt>
      <trkpt lat="43.72525" lon="7.0129">
        <ele>933.20001220703</ele>
        <time>2023-07-30T08:44:47.000Z</time>
      </trkpt>
      <trkpt lat="43.72517" lon="7.01297">
        <ele>932.20001220703</ele>
        <time>2023-07-30T08:44:48.000Z</time>
      </trkpt>
      <trkpt lat="43.72508" lon="7.01303">
        <ele>931.20001220703</ele>
        <time>2023-07-30T08:44:49.000Z</time>
      </trkpt>
      <trkpt lat="43.72499" lon="7.01309">
        <ele>930.59997558594</ele>
        <time>2023-07-30T08:44:50.000Z</time>
      </trkpt>
      <trkpt lat="43.72491" lon="7.01315">
        <ele>930.20001220703</ele>
        <time>2023-07-30T08:44:51.000Z</time>
      </trkpt>
      <trkpt lat="43.72482" lon="7.01321">
        <ele>929.79998779297</ele>
        <time>2023-07-30T08:44:52.000Z</time>
      </trkpt>
      <trkpt lat="43.72473" lon="7.01327">
        <ele>929</ele>
        <time>2023-07-30T08:44:53.000Z</time>
      </trkpt>
      <trkpt lat="43.72464" lon="7.01332">
        <ele>928.40002441406</ele>
        <time>2023-07-30T08:44:54.000Z</time>
      </trkpt>
      <trkpt lat="43.72456" lon="7.01338">
        <ele>928.20001220703</ele>
        <time>2023-07-30T08:44:55.000Z</time>
      </trkpt>
      <trkpt lat="43.72448" lon="7.01343">
        <ele>927.79998779297</ele>
        <time>2023-07-30T08:44:56.000Z</time>
      </trkpt>
      <trkpt lat="43.72441" lon="7.01348">
        <ele>927.79998779297</ele>
        <time>2023-07-30T08:44:57.000Z</time>
      </trkpt>
      <trkpt lat="43.72434" lon="7.01353">
        <ele>927.20001220703</ele>
        <time>2023-07-30T08:44:58.000Z</time>
      </trkpt>
      <trkpt lat="43.72426" lon="7.01358">
        <ele>927</ele>
        <time>2023-07-30T08:44:59.000Z</time>
      </trkpt>
      <trkpt lat="43.7242" lon="7.01364">
        <ele>926.79998779297</ele>
        <time>2023-07-30T08:45:00.000Z</time>
      </trkpt>
      <trkpt lat="43.72413" lon="7.01368">
        <ele>926.20001220703</ele>
        <time>2023-07-30T08:45:01.000Z</time>
      </trkpt>
      <trkpt lat="43.72406" lon="7.01373">
        <ele>926</ele>
        <time>2023-07-30T08:45:02.000Z</time>
      </trkpt>
      <trkpt lat="43.72399" lon="7.01377">
        <ele>926</ele>
        <time>2023-07-30T08:45:03.000Z</time>
      </trkpt>
      <trkpt lat="43.72392" lon="7.0138">
        <ele>925.79998779297</ele>
        <time>2023-07-30T08:45:04.000Z</time>
      </trkpt>
      <trkpt lat="43.72385" lon="7.01382">
        <ele>925.59997558594</ele>
        <time>2023-07-30T08:45:05.000Z</time>
      </trkpt>
      <trkpt lat="43.72378" lon="7.01386">
        <ele>925.40002441406</ele>
        <time>2023-07-30T08:45:06.000Z</time>
      </trkpt>
      <trkpt lat="43.7237" lon="7.0139">
        <ele>925.40002441406</ele>
        <time>2023-07-30T08:45:07.000Z</time>
      </trkpt>
      <trkpt lat="43.72363" lon="7.01394">
        <ele>925.40002441406</ele>
        <time>2023-07-30T08:45:08.000Z</time>
      </trkpt>
      <trkpt lat="43.72355" lon="7.01397">
        <ele>925</ele>
        <time>2023-07-30T08:45:09.000Z</time>
      </trkpt>
      <trkpt lat="43.72346" lon="7.01399">
        <ele>924.40002441406</ele>
        <time>2023-07-30T08:45:10.000Z</time>
      </trkpt>
      <trkpt lat="43.72338" lon="7.01399">
        <ele>924.20001220703</ele>
        <time>2023-07-30T08:45:11.000Z</time>
      </trkpt>
      <trkpt lat="43.72328" lon="7.01399">
        <ele>923.79998779297</ele>
        <time>2023-07-30T08:45:12.000Z</time>
      </trkpt>
      <trkpt lat="43.72319" lon="7.014">
        <ele>923.40002441406</ele>
        <time>2023-07-30T08:45:13.000Z</time>
      </trkpt>
      <trkpt lat="43.7231" lon="7.01401">
        <ele>922</ele>
        <time>2023-07-30T08:45:14.000Z</time>
      </trkpt>
      <trkpt lat="43.72301" lon="7.01402">
        <ele>921</ele>
        <time>2023-07-30T08:45:15.000Z</time>
      </trkpt>
      <trkpt lat="43.72293" lon="7.01404">
        <ele>920.59997558594</ele>
        <time>2023-07-30T08:45:16.000Z</time>
      </trkpt>
      <trkpt lat="43.72286" lon="7.01405">
        <ele>919</ele>
        <time>2023-07-30T08:45:17.000Z</time>
      </trkpt>
      <trkpt lat="43.72279" lon="7.01408">
        <ele>918.20001220703</ele>
        <time>2023-07-30T08:45:18.000Z</time>
      </trkpt>
      <trkpt lat="43.72272" lon="7.01412">
        <ele>917.40002441406</ele>
        <time>2023-07-30T08:45:19.000Z</time>
      </trkpt>
      <trkpt lat="43.72266" lon="7.01415">
        <ele>917.20001220703</ele>
        <time>2023-07-30T08:45:20.000Z</time>
      </trkpt>
      <trkpt lat="43.7226" lon="7.01419">
        <ele>917.20001220703</ele>
        <time>2023-07-30T08:45:21.000Z</time>
      </trkpt>
      <trkpt lat="43.72254" lon="7.01423">
        <ele>915.79998779297</ele>
        <time>2023-07-30T08:45:22.000Z</time>
      </trkpt>
      <trkpt lat="43.72249" lon="7.01427">
        <ele>915.40002441406</ele>
        <time>2023-07-30T08:45:23.000Z</time>
      </trkpt>
      <trkpt lat="43.72246" lon="7.01432">
        <ele>915.20001220703</ele>
        <time>2023-07-30T08:45:24.000Z</time>
      </trkpt>
      <trkpt lat="43.72243" lon="7.01437">
        <ele>914.79998779297</ele>
        <time>2023-07-30T08:45:25.000Z</time>
      </trkpt>
      <trkpt lat="43.7224" lon="7.0144">
        <ele>914.40002441406</ele>
        <time>2023-07-30T08:45:26.000Z</time>
      </trkpt>
      <trkpt lat="43.72238" lon="7.01444">
        <ele>914.40002441406</ele>
        <time>2023-07-30T08:45:27.000Z</time>
      </trkpt>
      <trkpt lat="43.72237" lon="7.01449">
        <ele>913.40002441406</ele>
        <time>2023-07-30T08:45:28.000Z</time>
      </trkpt>
      <trkpt lat="43.72235" lon="7.01455">
        <ele>913.20001220703</ele>
        <time>2023-07-30T08:45:29.000Z</time>
      </trkpt>
      <trkpt lat="43.72233" lon="7.01462">
        <ele>913.20001220703</ele>
        <time>2023-07-30T08:45:30.000Z</time>
      </trkpt>
      <trkpt lat="43.7223" lon="7.01466">
        <ele>912.59997558594</ele>
        <time>2023-07-30T08:45:31.000Z</time>
      </trkpt>
      <trkpt lat="43.72226" lon="7.01468">
        <ele>912.40002441406</ele>
        <time>2023-07-30T08:45:32.000Z</time>
      </trkpt>
      <trkpt lat="43.72223" lon="7.01468">
        <ele>910.40002441406</ele>
        <time>2023-07-30T08:45:33.000Z</time>
      </trkpt>
      <trkpt lat="43.72221" lon="7.01465">
        <ele>909.79998779297</ele>
        <time>2023-07-30T08:45:34.000Z</time>
      </trkpt>
      <trkpt lat="43.7222" lon="7.01462">
        <ele>908.79998779297</ele>
        <time>2023-07-30T08:45:35.000Z</time>
      </trkpt>
      <trkpt lat="43.7222" lon="7.01459">
        <ele>908.40002441406</ele>
        <time>2023-07-30T08:45:36.000Z</time>
      </trkpt>
      <trkpt lat="43.72219" lon="7.01455">
        <ele>908</ele>
        <time>2023-07-30T08:45:37.000Z</time>
      </trkpt>
      <trkpt lat="43.72219" lon="7.01451">
        <ele>907.59997558594</ele>
        <time>2023-07-30T08:45:38.000Z</time>
      </trkpt>
      <trkpt lat="43.72218" lon="7.01445">
        <ele>907.20001220703</ele>
        <time>2023-07-30T08:45:39.000Z</time>
      </trkpt>
      <trkpt lat="43.72218" lon="7.01439">
        <ele>906.59997558594</ele>
        <time>2023-07-30T08:45:40.000Z</time>
      </trkpt>
      <trkpt lat="43.72216" lon="7.01434">
        <ele>906.40002441406</ele>
        <time>2023-07-30T08:45:41.000Z</time>
      </trkpt>
      <trkpt lat="43.72214" lon="7.01428">
        <ele>906.20001220703</ele>
        <time>2023-07-30T08:45:42.000Z</time>
      </trkpt>
      <trkpt lat="43.72213" lon="7.01422">
        <ele>905.79998779297</ele>
        <time>2023-07-30T08:45:43.000Z</time>
      </trkpt>
      <trkpt lat="43.72212" lon="7.01415">
        <ele>905.59997558594</ele>
        <time>2023-07-30T08:45:44.000Z</time>
      </trkpt>
      <trkpt lat="43.72211" lon="7.01408">
        <ele>904.59997558594</ele>
        <time>2023-07-30T08:45:45.000Z</time>
      </trkpt>
      <trkpt lat="43.72211" lon="7.01399">
        <ele>904.20001220703</ele>
        <time>2023-07-30T08:45:46.000Z</time>
      </trkpt>
      <trkpt lat="43.72211" lon="7.0139">
        <ele>904.20001220703</ele>
        <time>2023-07-30T08:45:47.000Z</time>
      </trkpt>
      <trkpt lat="43.72211" lon="7.0138">
        <ele>903.59997558594</ele>
        <time>2023-07-30T08:45:48.000Z</time>
      </trkpt>
      <trkpt lat="43.72212" lon="7.01371">
        <ele>903</ele>
        <time>2023-07-30T08:45:49.000Z</time>
      </trkpt>
      <trkpt lat="43.72213" lon="7.01361">
        <ele>902.59997558594</ele>
        <time>2023-07-30T08:45:50.000Z</time>
      </trkpt>
      <trkpt lat="43.72214" lon="7.0135">
        <ele>902.40002441406</ele>
        <time>2023-07-30T08:45:51.000Z</time>
      </trkpt>
      <trkpt lat="43.72214" lon="7.01339">
        <ele>901.59997558594</ele>
        <time>2023-07-30T08:45:52.000Z</time>
      </trkpt>
      <trkpt lat="43.72215" lon="7.01329">
        <ele>901.40002441406</ele>
        <time>2023-07-30T08:45:53.000Z</time>
      </trkpt>
      <trkpt lat="43.72216" lon="7.0132">
        <ele>901</ele>
        <time>2023-07-30T08:45:54.000Z</time>
      </trkpt>
      <trkpt lat="43.72217" lon="7.0131">
        <ele>900</ele>
        <time>2023-07-30T08:45:55.000Z</time>
      </trkpt>
      <trkpt lat="43.72217" lon="7.01301">
        <ele>898.20001220703</ele>
        <time>2023-07-30T08:45:56.000Z</time>
      </trkpt>
      <trkpt lat="43.72218" lon="7.01292">
        <ele>898.20001220703</ele>
        <time>2023-07-30T08:45:57.000Z</time>
      </trkpt>
      <trkpt lat="43.72218" lon="7.01282">
        <ele>897.79998779297</ele>
        <time>2023-07-30T08:45:58.000Z</time>
      </trkpt>
      <trkpt lat="43.7222" lon="7.01273">
        <ele>897.79998779297</ele>
        <time>2023-07-30T08:45:59.000Z</time>
      </trkpt>
      <trkpt lat="43.72221" lon="7.01263">
        <ele>897</ele>
        <time>2023-07-30T08:46:00.000Z</time>
      </trkpt>
      <trkpt lat="43.72222" lon="7.01252">
        <ele>896.59997558594</ele>
        <time>2023-07-30T08:46:01.000Z</time>
      </trkpt>
      <trkpt lat="43.72224" lon="7.01242">
        <ele>895.20001220703</ele>
        <time>2023-07-30T08:46:02.000Z</time>
      </trkpt>
      <trkpt lat="43.72224" lon="7.01234">
        <ele>894.79998779297</ele>
        <time>2023-07-30T08:46:03.000Z</time>
      </trkpt>
      <trkpt lat="43.72225" lon="7.01229">
        <ele>893.79998779297</ele>
        <time>2023-07-30T08:46:04.000Z</time>
      </trkpt>
      <trkpt lat="43.72224" lon="7.01225">
        <ele>893.40002441406</ele>
        <time>2023-07-30T08:46:05.000Z</time>
      </trkpt>
      <trkpt lat="43.72224" lon="7.01223">
        <ele>892.79998779297</ele>
        <time>2023-07-30T08:46:06.000Z</time>
      </trkpt>
      <trkpt lat="43.72223" lon="7.01222">
        <ele>892.40002441406</ele>
        <time>2023-07-30T08:46:07.000Z</time>
      </trkpt>
      <trkpt lat="43.72223" lon="7.0122">
        <ele>892</ele>
        <time>2023-07-30T08:46:08.000Z</time>
      </trkpt>
      <trkpt lat="43.72222" lon="7.01218">
        <ele>892</ele>
        <time>2023-07-30T08:46:09.000Z</time>
      </trkpt>
      <trkpt lat="43.72221" lon="7.01217">
        <ele>892</ele>
        <time>2023-07-30T08:46:10.000Z</time>
      </trkpt>
      <trkpt lat="43.72221" lon="7.01216">
        <ele>891.79998779297</ele>
        <time>2023-07-30T08:46:11.000Z</time>
      </trkpt>
      <trkpt lat="43.72221" lon="7.01216">
        <ele>891.59997558594</ele>
        <time>2023-07-30T08:46:12.000Z</time>
      </trkpt>
      <trkpt lat="43.72221" lon="7.01216">
        <ele>891.20001220703</ele>
        <time>2023-07-30T08:46:13.000Z</time>
      </trkpt>
      <trkpt lat="43.72221" lon="7.01216">
        <ele>891</ele>
        <time>2023-07-30T08:46:14.000Z</time>
      </trkpt>
      <trkpt lat="43.72221" lon="7.01216">
        <ele>891</ele>
        <time>2023-07-30T08:46:15.000Z</time>
      </trkpt>
      <trkpt lat="43.72221" lon="7.01216">
        <ele>891</ele>
        <time>2023-07-30T08:46:16.000Z</time>
      </trkpt>
      <trkpt lat="43.72221" lon="7.01216">
        <ele>891</ele>
        <time>2023-07-30T08:46:17.000Z</time>
      </trkpt>
      <trkpt lat="43.72221" lon="7.01216">
        <ele>891</ele>
        <time>2023-07-30T08:46:18.000Z</time>
      </trkpt>
      <trkpt lat="43.72221" lon="7.01216">
        <ele>891</ele>
        <time>2023-07-30T08:46:19.000Z</time>
      </trkpt>
      <trkpt lat="43.72221" lon="7.01216">
        <ele>890.79998779297</ele>
        <time>2023-07-30T08:46:20.000Z</time>
      </trkpt>
      <trkpt lat="43.72221" lon="7.01216">
        <ele>890.79998779297</ele>
        <time>2023-07-30T08:46:21.000Z</time>
      </trkpt>
      <trkpt lat="43.72221" lon="7.01216">
        <ele>891</ele>
        <time>2023-07-30T08:46:22.000Z</time>
      </trkpt>
      <trkpt lat="43.72221" lon="7.01216">
        <ele>891</ele>
        <time>2023-07-30T08:46:23.000Z</time>
      </trkpt>
      <trkpt lat="43.72221" lon="7.01216">
        <ele>891</ele>
        <time>2023-07-30T08:46:24.000Z</time>
      </trkpt>
      <trkpt lat="43.72221" lon="7.01216">
        <ele>891.20001220703</ele>
        <time>2023-07-30T08:46:25.000Z</time>
      </trkpt>
      <trkpt lat="43.72221" lon="7.01216">
        <ele>891.20001220703</ele>
        <time>2023-07-30T08:46:26.000Z</time>
      </trkpt>
      <trkpt lat="43.72221" lon="7.01216">
        <ele>891.20001220703</ele>
        <time>2023-07-30T08:46:27.000Z</time>
      </trkpt>
      <trkpt lat="43.72221" lon="7.01216">
        <ele>891.20001220703</ele>
        <time>2023-07-30T08:46:28.000Z</time>
      </trkpt>
      <trkpt lat="43.72221" lon="7.01216">
        <ele>891.20001220703</ele>
        <time>2023-07-30T08:46:29.000Z</time>
      </trkpt>
      <trkpt lat="43.72221" lon="7.01216">
        <ele>891.20001220703</ele>
        <time>2023-07-30T08:46:30.000Z</time>
      </trkpt>
      <trkpt lat="43.72221" lon="7.01216">
        <ele>890.59997558594</ele>
        <time>2023-07-30T08:46:31.000Z</time>
      </trkpt>
      <trkpt lat="43.72221" lon="7.01216">
        <ele>890.40002441406</ele>
        <time>2023-07-30T08:46:32.000Z</time>
      </trkpt>
      <trkpt lat="43.72221" lon="7.01216">
        <ele>890.40002441406</ele>
        <time>2023-07-30T08:46:33.000Z</time>
      </trkpt>
      <trkpt lat="43.72221" lon="7.01216">
        <ele>890.40002441406</ele>
        <time>2023-07-30T08:46:34.000Z</time>
      </trkpt>
      <trkpt lat="43.72221" lon="7.01216">
        <ele>890.40002441406</ele>
        <time>2023-07-30T08:46:35.000Z</time>
      </trkpt>
      <trkpt lat="43.72221" lon="7.01216">
        <ele>890.59997558594</ele>
        <time>2023-07-30T08:46:36.000Z</time>
      </trkpt>
      <trkpt lat="43.72221" lon="7.01216">
        <ele>890.79998779297</ele>
        <time>2023-07-30T08:46:37.000Z</time>
      </trkpt>
      <trkpt lat="43.72221" lon="7.01216">
        <ele>890.79998779297</ele>
        <time>2023-07-30T08:46:38.000Z</time>
      </trkpt>
      <trkpt lat="43.72221" lon="7.01216">
        <ele>890.79998779297</ele>
        <time>2023-07-30T08:46:39.000Z</time>
      </trkpt>
      <trkpt lat="43.72221" lon="7.01216">
        <ele>890.79998779297</ele>
        <time>2023-07-30T08:46:40.000Z</time>
      </trkpt>
      <trkpt lat="43.72221" lon="7.01216">
        <ele>890.59997558594</ele>
        <time>2023-07-30T08:46:41.000Z</time>
      </trkpt>
      <trkpt lat="43.72221" lon="7.01216">
        <ele>890.59997558594</ele>
        <time>2023-07-30T08:46:42.000Z</time>
      </trkpt>
      <trkpt lat="43.72221" lon="7.01216">
        <ele>890.79998779297</ele>
        <time>2023-07-30T08:46:43.000Z</time>
      </trkpt>
      <trkpt lat="43.72221" lon="7.01216">
        <ele>891</ele>
        <time>2023-07-30T08:46:44.000Z</time>
      </trkpt>
      <trkpt lat="43.72221" lon="7.01216">
        <ele>890.59997558594</ele>
        <time>2023-07-30T08:46:45.000Z</time>
      </trkpt>
      <trkpt lat="43.72221" lon="7.01216">
        <ele>890.59997558594</ele>
        <time>2023-07-30T08:46:46.000Z</time>
      </trkpt>
      <trkpt lat="43.72221" lon="7.01216">
        <ele>891</ele>
        <time>2023-07-30T08:46:47.000Z</time>
      </trkpt>
      <trkpt lat="43.72221" lon="7.01216">
        <ele>891</ele>
        <time>2023-07-30T08:46:48.000Z</time>
      </trkpt>
      <trkpt lat="43.72221" lon="7.01216">
        <ele>890.59997558594</ele>
        <time>2023-07-30T08:46:49.000Z</time>
      </trkpt>
      <trkpt lat="43.72221" lon="7.01216">
        <ele>890.59997558594</ele>
        <time>2023-07-30T08:46:50.000Z</time>
      </trkpt>
      <trkpt lat="43.72221" lon="7.01216">
        <ele>890.40002441406</ele>
        <time>2023-07-30T08:46:51.000Z</time>
      </trkpt>
      <trkpt lat="43.72221" lon="7.01216">
        <ele>890.40002441406</ele>
        <time>2023-07-30T08:46:52.000Z</time>
      </trkpt>
      <trkpt lat="43.72221" lon="7.01216">
        <ele>890.40002441406</ele>
        <time>2023-07-30T08:46:53.000Z</time>
      </trkpt>
      <trkpt lat="43.72221" lon="7.01216">
        <ele>890.59997558594</ele>
        <time>2023-07-30T08:46:54.000Z</time>
      </trkpt>
      <trkpt lat="43.72221" lon="7.01216">
        <ele>890.59997558594</ele>
        <time>2023-07-30T08:46:55.000Z</time>
      </trkpt>
      <trkpt lat="43.72221" lon="7.01216">
        <ele>890.59997558594</ele>
        <time>2023-07-30T08:46:56.000Z</time>
      </trkpt>
      <trkpt lat="43.72221" lon="7.01216">
        <ele>890.59997558594</ele>
        <time>2023-07-30T08:46:57.000Z</time>
      </trkpt>
      <trkpt lat="43.72221" lon="7.01216">
        <ele>890.79998779297</ele>
        <time>2023-07-30T08:46:58.000Z</time>
      </trkpt>
      <trkpt lat="43.72221" lon="7.01216">
        <ele>890.79998779297</ele>
        <time>2023-07-30T08:46:59.000Z</time>
      </trkpt>
      <trkpt lat="43.72221" lon="7.01216">
        <ele>890.79998779297</ele>
        <time>2023-07-30T08:47:00.000Z</time>
      </trkpt>
      <trkpt lat="43.72221" lon="7.01216">
        <ele>890.59997558594</ele>
        <time>2023-07-30T08:47:01.000Z</time>
      </trkpt>
      <trkpt lat="43.72221" lon="7.01216">
        <ele>890.40002441406</ele>
        <time>2023-07-30T08:47:02.000Z</time>
      </trkpt>
      <trkpt lat="43.72221" lon="7.01216">
        <ele>890.40002441406</ele>
        <time>2023-07-30T08:47:03.000Z</time>
      </trkpt>
      <trkpt lat="43.72221" lon="7.01216">
        <ele>890.59997558594</ele>
        <time>2023-07-30T08:47:04.000Z</time>
      </trkpt>
      <trkpt lat="43.72221" lon="7.01216">
        <ele>890.59997558594</ele>
        <time>2023-07-30T08:47:05.000Z</time>
      </trkpt>
      <trkpt lat="43.72221" lon="7.01216">
        <ele>890.59997558594</ele>
        <time>2023-07-30T08:47:06.000Z</time>
      </trkpt>
      <trkpt lat="43.72221" lon="7.01216">
        <ele>890.59997558594</ele>
        <time>2023-07-30T08:47:07.000Z</time>
      </trkpt>
      <trkpt lat="43.72221" lon="7.01216">
        <ele>890.59997558594</ele>
        <time>2023-07-30T08:47:08.000Z</time>
      </trkpt>
      <trkpt lat="43.72221" lon="7.01216">
        <ele>890.59997558594</ele>
        <time>2023-07-30T08:47:09.000Z</time>
      </trkpt>
      <trkpt lat="43.72221" lon="7.01216">
        <ele>890.59997558594</ele>
        <time>2023-07-30T08:47:10.000Z</time>
      </trkpt>
      <trkpt lat="43.72221" lon="7.01216">
        <ele>890.79998779297</ele>
        <time>2023-07-30T08:47:11.000Z</time>
      </trkpt>
      <trkpt lat="43.72221" lon="7.01216">
        <ele>890.59997558594</ele>
        <time>2023-07-30T08:47:12.000Z</time>
      </trkpt>
      <trkpt lat="43.72221" lon="7.01216">
        <ele>890.59997558594</ele>
        <time>2023-07-30T08:47:13.000Z</time>
      </trkpt>
      <trkpt lat="43.72221" lon="7.01216">
        <ele>890.59997558594</ele>
        <time>2023-07-30T08:47:14.000Z</time>
      </trkpt>
      <trkpt lat="43.72221" lon="7.01216">
        <ele>890.59997558594</ele>
        <time>2023-07-30T08:47:15.000Z</time>
      </trkpt>
      <trkpt lat="43.72221" lon="7.01216">
        <ele>890.79998779297</ele>
        <time>2023-07-30T08:47:16.000Z</time>
      </trkpt>
      <trkpt lat="43.72221" lon="7.01216">
        <ele>890.79998779297</ele>
        <time>2023-07-30T08:47:17.000Z</time>
      </trkpt>
      <trkpt lat="43.72221" lon="7.01216">
        <ele>890.59997558594</ele>
        <time>2023-07-30T08:47:18.000Z</time>
      </trkpt>
      <trkpt lat="43.72221" lon="7.01216">
        <ele>890.59997558594</ele>
        <time>2023-07-30T08:47:19.000Z</time>
      </trkpt>
      <trkpt lat="43.72221" lon="7.01216">
        <ele>890.79998779297</ele>
        <time>2023-07-30T08:47:20.000Z</time>
      </trkpt>
      <trkpt lat="43.72221" lon="7.01216">
        <ele>890.59997558594</ele>
        <time>2023-07-30T08:47:21.000Z</time>
      </trkpt>
      <trkpt lat="43.72221" lon="7.01216">
        <ele>890.59997558594</ele>
        <time>2023-07-30T08:47:22.000Z</time>
      </trkpt>
      <trkpt lat="43.72221" lon="7.01216">
        <ele>890.59997558594</ele>
        <time>2023-07-30T08:47:23.000Z</time>
      </trkpt>
      <trkpt lat="43.72221" lon="7.01216">
        <ele>890.59997558594</ele>
        <time>2023-07-30T08:47:24.000Z</time>
      </trkpt>
      <trkpt lat="43.72221" lon="7.01216">
        <ele>890.79998779297</ele>
        <time>2023-07-30T08:47:25.000Z</time>
      </trkpt>
      <trkpt lat="43.72221" lon="7.01216">
        <ele>890.59997558594</ele>
        <time>2023-07-30T08:47:26.000Z</time>
      </trkpt>
      <trkpt lat="43.72221" lon="7.01216">
        <ele>890.59997558594</ele>
        <time>2023-07-30T08:47:27.000Z</time>
      </trkpt>
      <trkpt lat="43.72221" lon="7.01216">
        <ele>890.40002441406</ele>
        <time>2023-07-30T08:47:28.000Z</time>
      </trkpt>
      <trkpt lat="43.72221" lon="7.01216">
        <ele>890.20001220703</ele>
        <time>2023-07-30T08:47:29.000Z</time>
      </trkpt>
      <trkpt lat="43.72221" lon="7.01216">
        <ele>890.20001220703</ele>
        <time>2023-07-30T08:47:30.000Z</time>
      </trkpt>
      <trkpt lat="43.72221" lon="7.01216">
        <ele>890.20001220703</ele>
        <time>2023-07-30T08:47:31.000Z</time>
      </trkpt>
      <trkpt lat="43.72221" lon="7.01216">
        <ele>890.20001220703</ele>
        <time>2023-07-30T08:47:32.000Z</time>
      </trkpt>
      <trkpt lat="43.72221" lon="7.01216">
        <ele>890.20001220703</ele>
        <time>2023-07-30T08:47:33.000Z</time>
      </trkpt>
      <trkpt lat="43.72221" lon="7.01216">
        <ele>890.40002441406</ele>
        <time>2023-07-30T08:47:34.000Z</time>
      </trkpt>
      <trkpt lat="43.72221" lon="7.01216">
        <ele>890.59997558594</ele>
        <time>2023-07-30T08:47:35.000Z</time>
      </trkpt>
      <trkpt lat="43.72221" lon="7.01216">
        <ele>890.59997558594</ele>
        <time>2023-07-30T08:47:36.000Z</time>
      </trkpt>
      <trkpt lat="43.72221" lon="7.01216">
        <ele>890.59997558594</ele>
        <time>2023-07-30T08:47:37.000Z</time>
      </trkpt>
      <trkpt lat="43.72221" lon="7.01216">
        <ele>890.40002441406</ele>
        <time>2023-07-30T08:47:38.000Z</time>
      </trkpt>
      <trkpt lat="43.72221" lon="7.01216">
        <ele>890.40002441406</ele>
        <time>2023-07-30T08:47:39.000Z</time>
      </trkpt>
      <trkpt lat="43.72221" lon="7.01216">
        <ele>890.40002441406</ele>
        <time>2023-07-30T08:47:40.000Z</time>
      </trkpt>
      <trkpt lat="43.72221" lon="7.01216">
        <ele>890.40002441406</ele>
        <time>2023-07-30T08:47:41.000Z</time>
      </trkpt>
      <trkpt lat="43.72221" lon="7.01216">
        <ele>890.40002441406</ele>
        <time>2023-07-30T08:47:42.000Z</time>
      </trkpt>
      <trkpt lat="43.72221" lon="7.01216">
        <ele>890.40002441406</ele>
        <time>2023-07-30T08:47:43.000Z</time>
      </trkpt>
      <trkpt lat="43.72221" lon="7.01216">
        <ele>890.40002441406</ele>
        <time>2023-07-30T08:47:44.000Z</time>
      </trkpt>
      <trkpt lat="43.72221" lon="7.01216">
        <ele>890.59997558594</ele>
        <time>2023-07-30T08:47:45.000Z</time>
      </trkpt>
      <trkpt lat="43.72221" lon="7.01216">
        <ele>890.59997558594</ele>
        <time>2023-07-30T08:47:46.000Z</time>
      </trkpt>
      <trkpt lat="43.72221" lon="7.01216">
        <ele>890.59997558594</ele>
        <time>2023-07-30T08:47:47.000Z</time>
      </trkpt>
      <trkpt lat="43.72221" lon="7.01216">
        <ele>890.59997558594</ele>
        <time>2023-07-30T08:47:48.000Z</time>
      </trkpt>
      <trkpt lat="43.72221" lon="7.01216">
        <ele>890.59997558594</ele>
        <time>2023-07-30T08:47:49.000Z</time>
      </trkpt>
      <trkpt lat="43.72221" lon="7.01216">
        <ele>890.59997558594</ele>
        <time>2023-07-30T08:47:50.000Z</time>
      </trkpt>
      <trkpt lat="43.72221" lon="7.01216">
        <ele>890.59997558594</ele>
        <time>2023-07-30T08:47:51.000Z</time>
      </trkpt>
      <trkpt lat="43.72221" lon="7.01216">
        <ele>890.59997558594</ele>
        <time>2023-07-30T08:47:52.000Z</time>
      </trkpt>
      <trkpt lat="43.72221" lon="7.01216">
        <ele>890.59997558594</ele>
        <time>2023-07-30T08:47:53.000Z</time>
      </trkpt>
      <trkpt lat="43.72221" lon="7.01216">
        <ele>890.59997558594</ele>
        <time>2023-07-30T08:47:54.000Z</time>
      </trkpt>
      <trkpt lat="43.72221" lon="7.01216">
        <ele>890.59997558594</ele>
        <time>2023-07-30T08:47:55.000Z</time>
      </trkpt>
      <trkpt lat="43.72221" lon="7.01217">
        <ele>890.59997558594</ele>
        <time>2023-07-30T08:47:56.000Z</time>
      </trkpt>
      <trkpt lat="43.7222" lon="7.01215">
        <ele>890.59997558594</ele>
        <time>2023-07-30T08:47:57.000Z</time>
      </trkpt>
      <trkpt lat="43.72218" lon="7.01214">
        <ele>890.59997558594</ele>
        <time>2023-07-30T08:47:58.000Z</time>
      </trkpt>
      <trkpt lat="43.72216" lon="7.01214">
        <ele>890.40002441406</ele>
        <time>2023-07-30T08:47:59.000Z</time>
      </trkpt>
      <trkpt lat="43.72213" lon="7.01213">
        <ele>890.40002441406</ele>
        <time>2023-07-30T08:48:00.000Z</time>
      </trkpt>
      <trkpt lat="43.7221" lon="7.01213">
        <ele>890.40002441406</ele>
        <time>2023-07-30T08:48:01.000Z</time>
      </trkpt>
      <trkpt lat="43.72206" lon="7.01212">
        <ele>890.20001220703</ele>
        <time>2023-07-30T08:48:02.000Z</time>
      </trkpt>
      <trkpt lat="43.72203" lon="7.01212">
        <ele>890.20001220703</ele>
        <time>2023-07-30T08:48:03.000Z</time>
      </trkpt>
      <trkpt lat="43.72199" lon="7.01212">
        <ele>890.20001220703</ele>
        <time>2023-07-30T08:48:04.000Z</time>
      </trkpt>
      <trkpt lat="43.72196" lon="7.01212">
        <ele>890</ele>
        <time>2023-07-30T08:48:05.000Z</time>
      </trkpt>
      <trkpt lat="43.72191" lon="7.01212">
        <ele>889.79998779297</ele>
        <time>2023-07-30T08:48:06.000Z</time>
      </trkpt>
      <trkpt lat="43.72187" lon="7.01212">
        <ele>889.59997558594</ele>
        <time>2023-07-30T08:48:07.000Z</time>
      </trkpt>
      <trkpt lat="43.72184" lon="7.01213">
        <ele>889.59997558594</ele>
        <time>2023-07-30T08:48:08.000Z</time>
      </trkpt>
      <trkpt lat="43.7218" lon="7.01215">
        <ele>889.59997558594</ele>
        <time>2023-07-30T08:48:09.000Z</time>
      </trkpt>
      <trkpt lat="43.72177" lon="7.01216">
        <ele>889.59997558594</ele>
        <time>2023-07-30T08:48:10.000Z</time>
      </trkpt>
      <trkpt lat="43.72173" lon="7.01217">
        <ele>889.59997558594</ele>
        <time>2023-07-30T08:48:11.000Z</time>
      </trkpt>
      <trkpt lat="43.7217" lon="7.01218">
        <ele>889.59997558594</ele>
        <time>2023-07-30T08:48:12.000Z</time>
      </trkpt>
      <trkpt lat="43.72166" lon="7.01218">
        <ele>889.59997558594</ele>
        <time>2023-07-30T08:48:13.000Z</time>
      </trkpt>
      <trkpt lat="43.72163" lon="7.01219">
        <ele>889.59997558594</ele>
        <time>2023-07-30T08:48:14.000Z</time>
      </trkpt>
      <trkpt lat="43.72159" lon="7.0122">
        <ele>889.59997558594</ele>
        <time>2023-07-30T08:48:15.000Z</time>
      </trkpt>
      <trkpt lat="43.72155" lon="7.0122">
        <ele>889.59997558594</ele>
        <time>2023-07-30T08:48:16.000Z</time>
      </trkpt>
      <trkpt lat="43.72151" lon="7.01221">
        <ele>889.59997558594</ele>
        <time>2023-07-30T08:48:17.000Z</time>
      </trkpt>
      <trkpt lat="43.72148" lon="7.01222">
        <ele>889.59997558594</ele>
        <time>2023-07-30T08:48:18.000Z</time>
      </trkpt>
      <trkpt lat="43.72144" lon="7.01223">
        <ele>889.40002441406</ele>
        <time>2023-07-30T08:48:19.000Z</time>
      </trkpt>
      <trkpt lat="43.7214" lon="7.01222">
        <ele>889.40002441406</ele>
        <time>2023-07-30T08:48:20.000Z</time>
      </trkpt>
      <trkpt lat="43.72136" lon="7.01221">
        <ele>889.20001220703</ele>
        <time>2023-07-30T08:48:21.000Z</time>
      </trkpt>
      <trkpt lat="43.72132" lon="7.0122">
        <ele>889</ele>
        <time>2023-07-30T08:48:22.000Z</time>
      </trkpt>
      <trkpt lat="43.72128" lon="7.01218">
        <ele>889</ele>
        <time>2023-07-30T08:48:23.000Z</time>
      </trkpt>
      <trkpt lat="43.72123" lon="7.01215">
        <ele>889</ele>
        <time>2023-07-30T08:48:24.000Z</time>
      </trkpt>
      <trkpt lat="43.72119" lon="7.01211">
        <ele>888.79998779297</ele>
        <time>2023-07-30T08:48:25.000Z</time>
      </trkpt>
      <trkpt lat="43.72114" lon="7.01207">
        <ele>888.59997558594</ele>
        <time>2023-07-30T08:48:26.000Z</time>
      </trkpt>
      <trkpt lat="43.7211" lon="7.01202">
        <ele>888</ele>
        <time>2023-07-30T08:48:27.000Z</time>
      </trkpt>
      <trkpt lat="43.72105" lon="7.01196">
        <ele>887.79998779297</ele>
        <time>2023-07-30T08:48:28.000Z</time>
      </trkpt>
      <trkpt lat="43.721" lon="7.01191">
        <ele>887</ele>
        <time>2023-07-30T08:48:29.000Z</time>
      </trkpt>
      <trkpt lat="43.72095" lon="7.01186">
        <ele>886.79998779297</ele>
        <time>2023-07-30T08:48:30.000Z</time>
      </trkpt>
      <trkpt lat="43.72091" lon="7.0118">
        <ele>886.40002441406</ele>
        <time>2023-07-30T08:48:31.000Z</time>
      </trkpt>
      <trkpt lat="43.72086" lon="7.01174">
        <ele>885.20001220703</ele>
        <time>2023-07-30T08:48:32.000Z</time>
      </trkpt>
      <trkpt lat="43.72081" lon="7.01167">
        <ele>883.79998779297</ele>
        <time>2023-07-30T08:48:33.000Z</time>
      </trkpt>
      <trkpt lat="43.72076" lon="7.0116">
        <ele>883.20001220703</ele>
        <time>2023-07-30T08:48:34.000Z</time>
      </trkpt>
      <trkpt lat="43.72071" lon="7.01153">
        <ele>883.20001220703</ele>
        <time>2023-07-30T08:48:35.000Z</time>
      </trkpt>
      <trkpt lat="43.72067" lon="7.01146">
        <ele>882.40002441406</ele>
        <time>2023-07-30T08:48:36.000Z</time>
      </trkpt>
      <trkpt lat="43.72064" lon="7.0114">
        <ele>882.40002441406</ele>
        <time>2023-07-30T08:48:37.000Z</time>
      </trkpt>
      <trkpt lat="43.72061" lon="7.01133">
        <ele>882</ele>
        <time>2023-07-30T08:48:38.000Z</time>
      </trkpt>
      <trkpt lat="43.72059" lon="7.01125">
        <ele>881.40002441406</ele>
        <time>2023-07-30T08:48:39.000Z</time>
      </trkpt>
      <trkpt lat="43.72057" lon="7.01118">
        <ele>880.59997558594</ele>
        <time>2023-07-30T08:48:40.000Z</time>
      </trkpt>
      <trkpt lat="43.72055" lon="7.01111">
        <ele>880</ele>
        <time>2023-07-30T08:48:41.000Z</time>
      </trkpt>
      <trkpt lat="43.72052" lon="7.01105">
        <ele>879.59997558594</ele>
        <time>2023-07-30T08:48:42.000Z</time>
      </trkpt>
      <trkpt lat="43.72049" lon="7.01101">
        <ele>878.59997558594</ele>
        <time>2023-07-30T08:48:43.000Z</time>
      </trkpt>
      <trkpt lat="43.72045" lon="7.01098">
        <ele>878.40002441406</ele>
        <time>2023-07-30T08:48:44.000Z</time>
      </trkpt>
      <trkpt lat="43.7204" lon="7.01095">
        <ele>878.20001220703</ele>
        <time>2023-07-30T08:48:45.000Z</time>
      </trkpt>
      <trkpt lat="43.72035" lon="7.01094">
        <ele>877.40002441406</ele>
        <time>2023-07-30T08:48:46.000Z</time>
      </trkpt>
      <trkpt lat="43.72031" lon="7.01092">
        <ele>877.20001220703</ele>
        <time>2023-07-30T08:48:47.000Z</time>
      </trkpt>
      <trkpt lat="43.72028" lon="7.0109">
        <ele>877.20001220703</ele>
        <time>2023-07-30T08:48:48.000Z</time>
      </trkpt>
      <trkpt lat="43.72025" lon="7.01088">
        <ele>877</ele>
        <time>2023-07-30T08:48:49.000Z</time>
      </trkpt>
      <trkpt lat="43.72023" lon="7.01088">
        <ele>877</ele>
        <time>2023-07-30T08:48:50.000Z</time>
      </trkpt>
      <trkpt lat="43.72021" lon="7.0109">
        <ele>876.79998779297</ele>
        <time>2023-07-30T08:48:51.000Z</time>
      </trkpt>
      <trkpt lat="43.72021" lon="7.01091">
        <ele>876.79998779297</ele>
        <time>2023-07-30T08:48:52.000Z</time>
      </trkpt>
      <trkpt lat="43.72021" lon="7.0109">
        <ele>877</ele>
        <time>2023-07-30T08:48:53.000Z</time>
      </trkpt>
      <trkpt lat="43.72021" lon="7.0109">
        <ele>877</ele>
        <time>2023-07-30T08:48:54.000Z</time>
      </trkpt>
      <trkpt lat="43.72021" lon="7.0109">
        <ele>876.79998779297</ele>
        <time>2023-07-30T08:48:55.000Z</time>
      </trkpt>
      <trkpt lat="43.72021" lon="7.01092">
        <ele>876.79998779297</ele>
        <time>2023-07-30T08:48:56.000Z</time>
      </trkpt>
      <trkpt lat="43.72021" lon="7.01093">
        <ele>876.79998779297</ele>
        <time>2023-07-30T08:48:57.000Z</time>
      </trkpt>
      <trkpt lat="43.72021" lon="7.01095">
        <ele>876.79998779297</ele>
        <time>2023-07-30T08:48:58.000Z</time>
      </trkpt>
      <trkpt lat="43.72021" lon="7.01097">
        <ele>876.79998779297</ele>
        <time>2023-07-30T08:48:59.000Z</time>
      </trkpt>
      <trkpt lat="43.7202" lon="7.01099">
        <ele>876.79998779297</ele>
        <time>2023-07-30T08:49:00.000Z</time>
      </trkpt>
      <trkpt lat="43.72019" lon="7.01102">
        <ele>876.59997558594</ele>
        <time>2023-07-30T08:49:01.000Z</time>
      </trkpt>
      <trkpt lat="43.72018" lon="7.01105">
        <ele>876.40002441406</ele>
        <time>2023-07-30T08:49:02.000Z</time>
      </trkpt>
      <trkpt lat="43.72017" lon="7.01109">
        <ele>876.40002441406</ele>
        <time>2023-07-30T08:49:03.000Z</time>
      </trkpt>
      <trkpt lat="43.72016" lon="7.01113">
        <ele>876.40002441406</ele>
        <time>2023-07-30T08:49:04.000Z</time>
      </trkpt>
      <trkpt lat="43.72015" lon="7.01117">
        <ele>876.20001220703</ele>
        <time>2023-07-30T08:49:05.000Z</time>
      </trkpt>
      <trkpt lat="43.72014" lon="7.0112">
        <ele>876.20001220703</ele>
        <time>2023-07-30T08:49:06.000Z</time>
      </trkpt>
      <trkpt lat="43.72013" lon="7.01124">
        <ele>876.20001220703</ele>
        <time>2023-07-30T08:49:07.000Z</time>
      </trkpt>
      <trkpt lat="43.72012" lon="7.01128">
        <ele>876.20001220703</ele>
        <time>2023-07-30T08:49:08.000Z</time>
      </trkpt>
      <trkpt lat="43.72012" lon="7.01131">
        <ele>876.20001220703</ele>
        <time>2023-07-30T08:49:09.000Z</time>
      </trkpt>
      <trkpt lat="43.72011" lon="7.01135">
        <ele>876</ele>
        <time>2023-07-30T08:49:10.000Z</time>
      </trkpt>
      <trkpt lat="43.7201" lon="7.01138">
        <ele>876</ele>
        <time>2023-07-30T08:49:11.000Z</time>
      </trkpt>
      <trkpt lat="43.72009" lon="7.01142">
        <ele>875.79998779297</ele>
        <time>2023-07-30T08:49:12.000Z</time>
      </trkpt>
      <trkpt lat="43.72009" lon="7.01145">
        <ele>875.79998779297</ele>
        <time>2023-07-30T08:49:13.000Z</time>
      </trkpt>
      <trkpt lat="43.72009" lon="7.01149">
        <ele>875.79998779297</ele>
        <time>2023-07-30T08:49:14.000Z</time>
      </trkpt>
      <trkpt lat="43.72008" lon="7.01152">
        <ele>875.79998779297</ele>
        <time>2023-07-30T08:49:15.000Z</time>
      </trkpt>
      <trkpt lat="43.72007" lon="7.01155">
        <ele>875.79998779297</ele>
        <time>2023-07-30T08:49:16.000Z</time>
      </trkpt>
      <trkpt lat="43.72007" lon="7.01158">
        <ele>875.79998779297</ele>
        <time>2023-07-30T08:49:17.000Z</time>
      </trkpt>
      <trkpt lat="43.72006" lon="7.01161">
        <ele>875.79998779297</ele>
        <time>2023-07-30T08:49:18.000Z</time>
      </trkpt>
      <trkpt lat="43.72005" lon="7.01165">
        <ele>875.79998779297</ele>
        <time>2023-07-30T08:49:19.000Z</time>
      </trkpt>
      <trkpt lat="43.72004" lon="7.01168">
        <ele>875.79998779297</ele>
        <time>2023-07-30T08:49:20.000Z</time>
      </trkpt>
      <trkpt lat="43.72003" lon="7.01171">
        <ele>875.79998779297</ele>
        <time>2023-07-30T08:49:21.000Z</time>
      </trkpt>
      <trkpt lat="43.72003" lon="7.01174">
        <ele>875.79998779297</ele>
        <time>2023-07-30T08:49:22.000Z</time>
      </trkpt>
      <trkpt lat="43.72002" lon="7.01177">
        <ele>875.59997558594</ele>
        <time>2023-07-30T08:49:23.000Z</time>
      </trkpt>
      <trkpt lat="43.72001" lon="7.0118">
        <ele>875.59997558594</ele>
        <time>2023-07-30T08:49:24.000Z</time>
      </trkpt>
      <trkpt lat="43.72001" lon="7.01183">
        <ele>875.59997558594</ele>
        <time>2023-07-30T08:49:25.000Z</time>
      </trkpt>
      <trkpt lat="43.72" lon="7.01186">
        <ele>875.59997558594</ele>
        <time>2023-07-30T08:49:26.000Z</time>
      </trkpt>
      <trkpt lat="43.71999" lon="7.0119">
        <ele>875.59997558594</ele>
        <time>2023-07-30T08:49:27.000Z</time>
      </trkpt>
      <trkpt lat="43.71998" lon="7.01194">
        <ele>875.59997558594</ele>
        <time>2023-07-30T08:49:28.000Z</time>
      </trkpt>
      <trkpt lat="43.71997" lon="7.01198">
        <ele>875.59997558594</ele>
        <time>2023-07-30T08:49:29.000Z</time>
      </trkpt>
      <trkpt lat="43.71996" lon="7.01202">
        <ele>875.59997558594</ele>
        <time>2023-07-30T08:49:30.000Z</time>
      </trkpt>
      <trkpt lat="43.71995" lon="7.01207">
        <ele>875.59997558594</ele>
        <time>2023-07-30T08:49:31.000Z</time>
      </trkpt>
      <trkpt lat="43.71993" lon="7.01211">
        <ele>875.40002441406</ele>
        <time>2023-07-30T08:49:32.000Z</time>
      </trkpt>
      <trkpt lat="43.71991" lon="7.01216">
        <ele>875.20001220703</ele>
        <time>2023-07-30T08:49:33.000Z</time>
      </trkpt>
      <trkpt lat="43.71989" lon="7.0122">
        <ele>875.20001220703</ele>
        <time>2023-07-30T08:49:34.000Z</time>
      </trkpt>
      <trkpt lat="43.71988" lon="7.01225">
        <ele>875.20001220703</ele>
        <time>2023-07-30T08:49:35.000Z</time>
      </trkpt>
      <trkpt lat="43.71986" lon="7.0123">
        <ele>875</ele>
        <time>2023-07-30T08:49:36.000Z</time>
      </trkpt>
      <trkpt lat="43.71984" lon="7.01235">
        <ele>874.79998779297</ele>
        <time>2023-07-30T08:49:37.000Z</time>
      </trkpt>
      <trkpt lat="43.71982" lon="7.0124">
        <ele>874.79998779297</ele>
        <time>2023-07-30T08:49:38.000Z</time>
      </trkpt>
      <trkpt lat="43.7198" lon="7.01245">
        <ele>874.59997558594</ele>
        <time>2023-07-30T08:49:39.000Z</time>
      </trkpt>
      <trkpt lat="43.71978" lon="7.0125">
        <ele>874.59997558594</ele>
        <time>2023-07-30T08:49:40.000Z</time>
      </trkpt>
      <trkpt lat="43.71976" lon="7.01255">
        <ele>874.40002441406</ele>
        <time>2023-07-30T08:49:41.000Z</time>
      </trkpt>
      <trkpt lat="43.71973" lon="7.0126">
        <ele>874.40002441406</ele>
        <time>2023-07-30T08:49:42.000Z</time>
      </trkpt>
      <trkpt lat="43.71971" lon="7.01266">
        <ele>874</ele>
        <time>2023-07-30T08:49:43.000Z</time>
      </trkpt>
      <trkpt lat="43.71969" lon="7.01272">
        <ele>873.40002441406</ele>
        <time>2023-07-30T08:49:44.000Z</time>
      </trkpt>
      <trkpt lat="43.71969" lon="7.01279">
        <ele>873.40002441406</ele>
        <time>2023-07-30T08:49:45.000Z</time>
      </trkpt>
      <trkpt lat="43.7197" lon="7.01285">
        <ele>873.20001220703</ele>
        <time>2023-07-30T08:49:46.000Z</time>
      </trkpt>
      <trkpt lat="43.71972" lon="7.01292">
        <ele>873</ele>
        <time>2023-07-30T08:49:47.000Z</time>
      </trkpt>
      <trkpt lat="43.71974" lon="7.01299">
        <ele>873</ele>
        <time>2023-07-30T08:49:48.000Z</time>
      </trkpt>
      <trkpt lat="43.71976" lon="7.01306">
        <ele>872.79998779297</ele>
        <time>2023-07-30T08:49:49.000Z</time>
      </trkpt>
      <trkpt lat="43.71979" lon="7.01314">
        <ele>872.20001220703</ele>
        <time>2023-07-30T08:49:50.000Z</time>
      </trkpt>
      <trkpt lat="43.71982" lon="7.01322">
        <ele>872</ele>
        <time>2023-07-30T08:49:51.000Z</time>
      </trkpt>
      <trkpt lat="43.71984" lon="7.0133">
        <ele>871.59997558594</ele>
        <time>2023-07-30T08:49:52.000Z</time>
      </trkpt>
      <trkpt lat="43.71985" lon="7.01338">
        <ele>871.40002441406</ele>
        <time>2023-07-30T08:49:53.000Z</time>
      </trkpt>
      <trkpt lat="43.71986" lon="7.01346">
        <ele>871.20001220703</ele>
        <time>2023-07-30T08:49:54.000Z</time>
      </trkpt>
      <trkpt lat="43.71988" lon="7.01354">
        <ele>870.59997558594</ele>
        <time>2023-07-30T08:49:55.000Z</time>
      </trkpt>
      <trkpt lat="43.71989" lon="7.01362">
        <ele>870.59997558594</ele>
        <time>2023-07-30T08:49:56.000Z</time>
      </trkpt>
      <trkpt lat="43.71989" lon="7.0137">
        <ele>870.59997558594</ele>
        <time>2023-07-30T08:49:57.000Z</time>
      </trkpt>
      <trkpt lat="43.7199" lon="7.01378">
        <ele>870</ele>
        <time>2023-07-30T08:49:58.000Z</time>
      </trkpt>
      <trkpt lat="43.7199" lon="7.01386">
        <ele>869.79998779297</ele>
        <time>2023-07-30T08:49:59.000Z</time>
      </trkpt>
      <trkpt lat="43.71991" lon="7.01394">
        <ele>869.59997558594</ele>
        <time>2023-07-30T08:50:00.000Z</time>
      </trkpt>
      <trkpt lat="43.71992" lon="7.01402">
        <ele>869.59997558594</ele>
        <time>2023-07-30T08:50:01.000Z</time>
      </trkpt>
      <trkpt lat="43.71991" lon="7.0141">
        <ele>869.40002441406</ele>
        <time>2023-07-30T08:50:02.000Z</time>
      </trkpt>
      <trkpt lat="43.7199" lon="7.01417">
        <ele>869.40002441406</ele>
        <time>2023-07-30T08:50:03.000Z</time>
      </trkpt>
      <trkpt lat="43.71989" lon="7.01425">
        <ele>869</ele>
        <time>2023-07-30T08:50:04.000Z</time>
      </trkpt>
      <trkpt lat="43.71988" lon="7.01433">
        <ele>868.79998779297</ele>
        <time>2023-07-30T08:50:05.000Z</time>
      </trkpt>
      <trkpt lat="43.71986" lon="7.0144">
        <ele>868.79998779297</ele>
        <time>2023-07-30T08:50:06.000Z</time>
      </trkpt>
      <trkpt lat="43.71984" lon="7.01447">
        <ele>868.40002441406</ele>
        <time>2023-07-30T08:50:07.000Z</time>
      </trkpt>
      <trkpt lat="43.71982" lon="7.01453">
        <ele>868.40002441406</ele>
        <time>2023-07-30T08:50:08.000Z</time>
      </trkpt>
      <trkpt lat="43.7198" lon="7.0146">
        <ele>868.20001220703</ele>
        <time>2023-07-30T08:50:09.000Z</time>
      </trkpt>
      <trkpt lat="43.71978" lon="7.01466">
        <ele>868.20001220703</ele>
        <time>2023-07-30T08:50:10.000Z</time>
      </trkpt>
      <trkpt lat="43.71976" lon="7.01472">
        <ele>868.20001220703</ele>
        <time>2023-07-30T08:50:11.000Z</time>
      </trkpt>
      <trkpt lat="43.71975" lon="7.01478">
        <ele>868.20001220703</ele>
        <time>2023-07-30T08:50:12.000Z</time>
      </trkpt>
      <trkpt lat="43.71973" lon="7.01484">
        <ele>868.20001220703</ele>
        <time>2023-07-30T08:50:13.000Z</time>
      </trkpt>
      <trkpt lat="43.71971" lon="7.0149">
        <ele>868.20001220703</ele>
        <time>2023-07-30T08:50:14.000Z</time>
      </trkpt>
      <trkpt lat="43.71968" lon="7.01495">
        <ele>868.20001220703</ele>
        <time>2023-07-30T08:50:15.000Z</time>
      </trkpt>
      <trkpt lat="43.71966" lon="7.01502">
        <ele>868.20001220703</ele>
        <time>2023-07-30T08:50:16.000Z</time>
      </trkpt>
      <trkpt lat="43.71964" lon="7.01508">
        <ele>868</ele>
        <time>2023-07-30T08:50:17.000Z</time>
      </trkpt>
      <trkpt lat="43.71962" lon="7.01513">
        <ele>867.79998779297</ele>
        <time>2023-07-30T08:50:18.000Z</time>
      </trkpt>
      <trkpt lat="43.71959" lon="7.01515">
        <ele>867.79998779297</ele>
        <time>2023-07-30T08:50:19.000Z</time>
      </trkpt>
      <trkpt lat="43.71956" lon="7.01517">
        <ele>867.59997558594</ele>
        <time>2023-07-30T08:50:20.000Z</time>
      </trkpt>
      <trkpt lat="43.71952" lon="7.01517">
        <ele>867.20001220703</ele>
        <time>2023-07-30T08:50:21.000Z</time>
      </trkpt>
      <trkpt lat="43.71948" lon="7.01518">
        <ele>867.20001220703</ele>
        <time>2023-07-30T08:50:22.000Z</time>
      </trkpt>
      <trkpt lat="43.71944" lon="7.01517">
        <ele>867</ele>
        <time>2023-07-30T08:50:23.000Z</time>
      </trkpt>
      <trkpt lat="43.71939" lon="7.01516">
        <ele>867</ele>
        <time>2023-07-30T08:50:24.000Z</time>
      </trkpt>
      <trkpt lat="43.71935" lon="7.01517">
        <ele>867</ele>
        <time>2023-07-30T08:50:25.000Z</time>
      </trkpt>
      <trkpt lat="43.7193" lon="7.01518">
        <ele>867</ele>
        <time>2023-07-30T08:50:26.000Z</time>
      </trkpt>
      <trkpt lat="43.71927" lon="7.01521">
        <ele>867</ele>
        <time>2023-07-30T08:50:27.000Z</time>
      </trkpt>
      <trkpt lat="43.71925" lon="7.01525">
        <ele>866</ele>
        <time>2023-07-30T08:50:28.000Z</time>
      </trkpt>
      <trkpt lat="43.71924" lon="7.01529">
        <ele>865.59997558594</ele>
        <time>2023-07-30T08:50:29.000Z</time>
      </trkpt>
      <trkpt lat="43.71923" lon="7.01535">
        <ele>865</ele>
        <time>2023-07-30T08:50:30.000Z</time>
      </trkpt>
      <trkpt lat="43.71923" lon="7.0154">
        <ele>864.59997558594</ele>
        <time>2023-07-30T08:50:31.000Z</time>
      </trkpt>
      <trkpt lat="43.71924" lon="7.01544">
        <ele>863.59997558594</ele>
        <time>2023-07-30T08:50:32.000Z</time>
      </trkpt>
      <trkpt lat="43.71925" lon="7.01549">
        <ele>863.59997558594</ele>
        <time>2023-07-30T08:50:33.000Z</time>
      </trkpt>
      <trkpt lat="43.71926" lon="7.01556">
        <ele>863</ele>
        <time>2023-07-30T08:50:34.000Z</time>
      </trkpt>
      <trkpt lat="43.71927" lon="7.01563">
        <ele>863</ele>
        <time>2023-07-30T08:50:35.000Z</time>
      </trkpt>
      <trkpt lat="43.71929" lon="7.01571">
        <ele>862.79998779297</ele>
        <time>2023-07-30T08:50:36.000Z</time>
      </trkpt>
      <trkpt lat="43.7193" lon="7.0158">
        <ele>861.59997558594</ele>
        <time>2023-07-30T08:50:37.000Z</time>
      </trkpt>
      <trkpt lat="43.71931" lon="7.01589">
        <ele>861.20001220703</ele>
        <time>2023-07-30T08:50:38.000Z</time>
      </trkpt>
      <trkpt lat="43.71932" lon="7.01598">
        <ele>861</ele>
        <time>2023-07-30T08:50:39.000Z</time>
      </trkpt>
      <trkpt lat="43.71933" lon="7.01607">
        <ele>860.20001220703</ele>
        <time>2023-07-30T08:50:40.000Z</time>
      </trkpt>
      <trkpt lat="43.71933" lon="7.01618">
        <ele>860.20001220703</ele>
        <time>2023-07-30T08:50:41.000Z</time>
      </trkpt>
      <trkpt lat="43.71934" lon="7.01628">
        <ele>859.40002441406</ele>
        <time>2023-07-30T08:50:42.000Z</time>
      </trkpt>
      <trkpt lat="43.71934" lon="7.01637">
        <ele>858.40002441406</ele>
        <time>2023-07-30T08:50:43.000Z</time>
      </trkpt>
      <trkpt lat="43.71933" lon="7.01645">
        <ele>858.40002441406</ele>
        <time>2023-07-30T08:50:44.000Z</time>
      </trkpt>
      <trkpt lat="43.71933" lon="7.01652">
        <ele>858.20001220703</ele>
        <time>2023-07-30T08:50:45.000Z</time>
      </trkpt>
      <trkpt lat="43.71932" lon="7.01659">
        <ele>857.20001220703</ele>
        <time>2023-07-30T08:50:46.000Z</time>
      </trkpt>
      <trkpt lat="43.71932" lon="7.01665">
        <ele>856.20001220703</ele>
        <time>2023-07-30T08:50:47.000Z</time>
      </trkpt>
      <trkpt lat="43.7193" lon="7.01669">
        <ele>855.79998779297</ele>
        <time>2023-07-30T08:50:48.000Z</time>
      </trkpt>
      <trkpt lat="43.71927" lon="7.01672">
        <ele>855.59997558594</ele>
        <time>2023-07-30T08:50:49.000Z</time>
      </trkpt>
      <trkpt lat="43.71925" lon="7.01673">
        <ele>855.59997558594</ele>
        <time>2023-07-30T08:50:50.000Z</time>
      </trkpt>
      <trkpt lat="43.71923" lon="7.01673">
        <ele>855</ele>
        <time>2023-07-30T08:50:51.000Z</time>
      </trkpt>
      <trkpt lat="43.71921" lon="7.01673">
        <ele>855</ele>
        <time>2023-07-30T08:50:52.000Z</time>
      </trkpt>
      <trkpt lat="43.71919" lon="7.01674">
        <ele>854</ele>
        <time>2023-07-30T08:50:53.000Z</time>
      </trkpt>
      <trkpt lat="43.71918" lon="7.01674">
        <ele>853.79998779297</ele>
        <time>2023-07-30T08:50:54.000Z</time>
      </trkpt>
      <trkpt lat="43.71918" lon="7.01675">
        <ele>853.40002441406</ele>
        <time>2023-07-30T08:50:55.000Z</time>
      </trkpt>
      <trkpt lat="43.71918" lon="7.01674">
        <ele>853.20001220703</ele>
        <time>2023-07-30T08:50:56.000Z</time>
      </trkpt>
      <trkpt lat="43.71918" lon="7.01674">
        <ele>852.59997558594</ele>
        <time>2023-07-30T08:50:57.000Z</time>
      </trkpt>
      <trkpt lat="43.71918" lon="7.01674">
        <ele>852.40002441406</ele>
        <time>2023-07-30T08:50:58.000Z</time>
      </trkpt>
      <trkpt lat="43.71918" lon="7.01674">
        <ele>852.40002441406</ele>
        <time>2023-07-30T08:50:59.000Z</time>
      </trkpt>
      <trkpt lat="43.71918" lon="7.01674">
        <ele>852.20001220703</ele>
        <time>2023-07-30T08:51:00.000Z</time>
      </trkpt>
      <trkpt lat="43.71918" lon="7.01674">
        <ele>852</ele>
        <time>2023-07-30T08:51:01.000Z</time>
      </trkpt>
      <trkpt lat="43.71918" lon="7.01674">
        <ele>852</ele>
        <time>2023-07-30T08:51:02.000Z</time>
      </trkpt>
      <trkpt lat="43.71918" lon="7.01674">
        <ele>852</ele>
        <time>2023-07-30T08:51:03.000Z</time>
      </trkpt>
      <trkpt lat="43.71918" lon="7.01674">
        <ele>851.79998779297</ele>
        <time>2023-07-30T08:51:04.000Z</time>
      </trkpt>
      <trkpt lat="43.71918" lon="7.01674">
        <ele>851.79998779297</ele>
        <time>2023-07-30T08:51:05.000Z</time>
      </trkpt>
      <trkpt lat="43.71918" lon="7.01674">
        <ele>851.59997558594</ele>
        <time>2023-07-30T08:51:06.000Z</time>
      </trkpt>
      <trkpt lat="43.71918" lon="7.01674">
        <ele>851.59997558594</ele>
        <time>2023-07-30T08:51:07.000Z</time>
      </trkpt>
      <trkpt lat="43.71918" lon="7.01674">
        <ele>851.59997558594</ele>
        <time>2023-07-30T08:51:08.000Z</time>
      </trkpt>
      <trkpt lat="43.71918" lon="7.01674">
        <ele>851.59997558594</ele>
        <time>2023-07-30T08:51:09.000Z</time>
      </trkpt>
      <trkpt lat="43.71918" lon="7.01674">
        <ele>851.40002441406</ele>
        <time>2023-07-30T08:51:10.000Z</time>
      </trkpt>
      <trkpt lat="43.71918" lon="7.01674">
        <ele>851.40002441406</ele>
        <time>2023-07-30T08:51:11.000Z</time>
      </trkpt>
      <trkpt lat="43.71918" lon="7.01674">
        <ele>851.40002441406</ele>
        <time>2023-07-30T08:51:12.000Z</time>
      </trkpt>
      <trkpt lat="43.71918" lon="7.01674">
        <ele>851.40002441406</ele>
        <time>2023-07-30T08:51:13.000Z</time>
      </trkpt>
      <trkpt lat="43.71918" lon="7.01674">
        <ele>851.40002441406</ele>
        <time>2023-07-30T08:51:14.000Z</time>
      </trkpt>
      <trkpt lat="43.71918" lon="7.01674">
        <ele>851.40002441406</ele>
        <time>2023-07-30T08:51:15.000Z</time>
      </trkpt>
      <trkpt lat="43.71918" lon="7.01674">
        <ele>851.40002441406</ele>
        <time>2023-07-30T08:51:16.000Z</time>
      </trkpt>
      <trkpt lat="43.71918" lon="7.01674">
        <ele>851.40002441406</ele>
        <time>2023-07-30T08:51:17.000Z</time>
      </trkpt>
      <trkpt lat="43.71918" lon="7.01674">
        <ele>851.40002441406</ele>
        <time>2023-07-30T08:51:18.000Z</time>
      </trkpt>
      <trkpt lat="43.71918" lon="7.01674">
        <ele>851.40002441406</ele>
        <time>2023-07-30T08:51:19.000Z</time>
      </trkpt>
      <trkpt lat="43.71918" lon="7.01674">
        <ele>851.20001220703</ele>
        <time>2023-07-30T08:51:20.000Z</time>
      </trkpt>
      <trkpt lat="43.71918" lon="7.01674">
        <ele>851.20001220703</ele>
        <time>2023-07-30T08:51:21.000Z</time>
      </trkpt>
      <trkpt lat="43.71918" lon="7.01674">
        <ele>851.20001220703</ele>
        <time>2023-07-30T08:51:22.000Z</time>
      </trkpt>
      <trkpt lat="43.71918" lon="7.01674">
        <ele>851.20001220703</ele>
        <time>2023-07-30T08:51:23.000Z</time>
      </trkpt>
      <trkpt lat="43.71918" lon="7.01674">
        <ele>851.20001220703</ele>
        <time>2023-07-30T08:51:24.000Z</time>
      </trkpt>
      <trkpt lat="43.71918" lon="7.01674">
        <ele>851.20001220703</ele>
        <time>2023-07-30T08:51:25.000Z</time>
      </trkpt>
      <trkpt lat="43.71918" lon="7.01674">
        <ele>851.20001220703</ele>
        <time>2023-07-30T08:51:26.000Z</time>
      </trkpt>
      <trkpt lat="43.71918" lon="7.01674">
        <ele>851.20001220703</ele>
        <time>2023-07-30T08:51:27.000Z</time>
      </trkpt>
      <trkpt lat="43.71918" lon="7.01674">
        <ele>851.20001220703</ele>
        <time>2023-07-30T08:51:28.000Z</time>
      </trkpt>
      <trkpt lat="43.71918" lon="7.01674">
        <ele>851.20001220703</ele>
        <time>2023-07-30T08:51:29.000Z</time>
      </trkpt>
      <trkpt lat="43.71918" lon="7.01674">
        <ele>851</ele>
        <time>2023-07-30T08:51:30.000Z</time>
      </trkpt>
      <trkpt lat="43.71918" lon="7.01674">
        <ele>851</ele>
        <time>2023-07-30T08:51:31.000Z</time>
      </trkpt>
      <trkpt lat="43.71918" lon="7.01674">
        <ele>851</ele>
        <time>2023-07-30T08:51:32.000Z</time>
      </trkpt>
      <trkpt lat="43.71918" lon="7.01674">
        <ele>851</ele>
        <time>2023-07-30T08:51:33.000Z</time>
      </trkpt>
      <trkpt lat="43.71918" lon="7.01674">
        <ele>851</ele>
        <time>2023-07-30T08:51:34.000Z</time>
      </trkpt>
      <trkpt lat="43.71918" lon="7.01674">
        <ele>851</ele>
        <time>2023-07-30T08:51:35.000Z</time>
      </trkpt>
      <trkpt lat="43.71918" lon="7.01674">
        <ele>851</ele>
        <time>2023-07-30T08:51:36.000Z</time>
      </trkpt>
      <trkpt lat="43.71918" lon="7.01674">
        <ele>851</ele>
        <time>2023-07-30T08:51:37.000Z</time>
      </trkpt>
      <trkpt lat="43.71918" lon="7.01674">
        <ele>851</ele>
        <time>2023-07-30T08:51:38.000Z</time>
      </trkpt>
      <trkpt lat="43.71918" lon="7.01674">
        <ele>851</ele>
        <time>2023-07-30T08:51:39.000Z</time>
      </trkpt>
      <trkpt lat="43.71918" lon="7.01674">
        <ele>851.20001220703</ele>
        <time>2023-07-30T08:51:40.000Z</time>
      </trkpt>
      <trkpt lat="43.71918" lon="7.01674">
        <ele>851.20001220703</ele>
        <time>2023-07-30T08:51:41.000Z</time>
      </trkpt>
      <trkpt lat="43.71918" lon="7.01674">
        <ele>851</ele>
        <time>2023-07-30T08:51:42.000Z</time>
      </trkpt>
      <trkpt lat="43.71918" lon="7.01674">
        <ele>851</ele>
        <time>2023-07-30T08:51:43.000Z</time>
      </trkpt>
      <trkpt lat="43.71918" lon="7.01674">
        <ele>851</ele>
        <time>2023-07-30T08:51:44.000Z</time>
      </trkpt>
      <trkpt lat="43.71918" lon="7.01674">
        <ele>851</ele>
        <time>2023-07-30T08:51:45.000Z</time>
      </trkpt>
      <trkpt lat="43.71918" lon="7.01674">
        <ele>851</ele>
        <time>2023-07-30T08:51:46.000Z</time>
      </trkpt>
      <trkpt lat="43.71918" lon="7.01674">
        <ele>851</ele>
        <time>2023-07-30T08:51:47.000Z</time>
      </trkpt>
      <trkpt lat="43.71918" lon="7.01674">
        <ele>851</ele>
        <time>2023-07-30T08:51:48.000Z</time>
      </trkpt>
      <trkpt lat="43.71918" lon="7.01674">
        <ele>851</ele>
        <time>2023-07-30T08:51:49.000Z</time>
      </trkpt>
      <trkpt lat="43.71918" lon="7.01674">
        <ele>851</ele>
        <time>2023-07-30T08:51:50.000Z</time>
      </trkpt>
      <trkpt lat="43.71918" lon="7.01674">
        <ele>851</ele>
        <time>2023-07-30T08:51:51.000Z</time>
      </trkpt>
      <trkpt lat="43.71918" lon="7.01674">
        <ele>851</ele>
        <time>2023-07-30T08:51:52.000Z</time>
      </trkpt>
      <trkpt lat="43.71918" lon="7.01674">
        <ele>851</ele>
        <time>2023-07-30T08:51:53.000Z</time>
      </trkpt>
      <trkpt lat="43.71918" lon="7.01674">
        <ele>851.20001220703</ele>
        <time>2023-07-30T08:51:54.000Z</time>
      </trkpt>
      <trkpt lat="43.71918" lon="7.01674">
        <ele>851.20001220703</ele>
        <time>2023-07-30T08:51:55.000Z</time>
      </trkpt>
      <trkpt lat="43.71918" lon="7.01674">
        <ele>851.20001220703</ele>
        <time>2023-07-30T08:51:56.000Z</time>
      </trkpt>
      <trkpt lat="43.71918" lon="7.01674">
        <ele>851.20001220703</ele>
        <time>2023-07-30T08:51:57.000Z</time>
      </trkpt>
      <trkpt lat="43.71918" lon="7.01674">
        <ele>851.20001220703</ele>
        <time>2023-07-30T08:51:58.000Z</time>
      </trkpt>
      <trkpt lat="43.71918" lon="7.01674">
        <ele>851.20001220703</ele>
        <time>2023-07-30T08:51:59.000Z</time>
      </trkpt>
      <trkpt lat="43.71918" lon="7.01674">
        <ele>851</ele>
        <time>2023-07-30T08:52:00.000Z</time>
      </trkpt>
      <trkpt lat="43.71918" lon="7.01674">
        <ele>851</ele>
        <time>2023-07-30T08:52:01.000Z</time>
      </trkpt>
      <trkpt lat="43.71918" lon="7.01674">
        <ele>851</ele>
        <time>2023-07-30T08:52:02.000Z</time>
      </trkpt>
      <trkpt lat="43.71918" lon="7.01674">
        <ele>851</ele>
        <time>2023-07-30T08:52:03.000Z</time>
      </trkpt>
      <trkpt lat="43.71918" lon="7.01674">
        <ele>851</ele>
        <time>2023-07-30T08:52:04.000Z</time>
      </trkpt>
      <trkpt lat="43.71918" lon="7.01674">
        <ele>851</ele>
        <time>2023-07-30T08:52:05.000Z</time>
      </trkpt>
      <trkpt lat="43.71918" lon="7.01674">
        <ele>851</ele>
        <time>2023-07-30T08:52:06.000Z</time>
      </trkpt>
      <trkpt lat="43.71918" lon="7.01674">
        <ele>851</ele>
        <time>2023-07-30T08:52:07.000Z</time>
      </trkpt>
      <trkpt lat="43.71918" lon="7.01674">
        <ele>851</ele>
        <time>2023-07-30T08:52:08.000Z</time>
      </trkpt>
      <trkpt lat="43.71918" lon="7.01674">
        <ele>851</ele>
        <time>2023-07-30T08:52:09.000Z</time>
      </trkpt>
      <trkpt lat="43.71918" lon="7.01674">
        <ele>851</ele>
        <time>2023-07-30T08:52:10.000Z</time>
      </trkpt>
      <trkpt lat="43.71918" lon="7.01674">
        <ele>851</ele>
        <time>2023-07-30T08:52:11.000Z</time>
      </trkpt>
      <trkpt lat="43.71918" lon="7.01674">
        <ele>851</ele>
        <time>2023-07-30T08:52:12.000Z</time>
      </trkpt>
      <trkpt lat="43.71918" lon="7.01674">
        <ele>851</ele>
        <time>2023-07-30T08:52:13.000Z</time>
      </trkpt>
      <trkpt lat="43.71918" lon="7.01674">
        <ele>851</ele>
        <time>2023-07-30T08:52:14.000Z</time>
      </trkpt>
      <trkpt lat="43.71918" lon="7.01674">
        <ele>851</ele>
        <time>2023-07-30T08:52:15.000Z</time>
      </trkpt>
      <trkpt lat="43.71916" lon="7.01674">
        <ele>851</ele>
        <time>2023-07-30T08:52:16.000Z</time>
      </trkpt>
      <trkpt lat="43.71915" lon="7.01674">
        <ele>851</ele>
        <time>2023-07-30T08:52:17.000Z</time>
      </trkpt>
      <trkpt lat="43.71913" lon="7.01675">
        <ele>851</ele>
        <time>2023-07-30T08:52:18.000Z</time>
      </trkpt>
      <trkpt lat="43.7191" lon="7.01676">
        <ele>851</ele>
        <time>2023-07-30T08:52:19.000Z</time>
      </trkpt>
      <trkpt lat="43.71909" lon="7.01678">
        <ele>851</ele>
        <time>2023-07-30T08:52:20.000Z</time>
      </trkpt>
      <trkpt lat="43.71908" lon="7.01681">
        <ele>851</ele>
        <time>2023-07-30T08:52:21.000Z</time>
      </trkpt>
      <trkpt lat="43.71907" lon="7.01684">
        <ele>851.59997558594</ele>
        <time>2023-07-30T08:52:22.000Z</time>
      </trkpt>
      <trkpt lat="43.71906" lon="7.01687">
        <ele>851.40002441406</ele>
        <time>2023-07-30T08:52:23.000Z</time>
      </trkpt>
      <trkpt lat="43.71907" lon="7.01689">
        <ele>851</ele>
        <time>2023-07-30T08:52:24.000Z</time>
      </trkpt>
      <trkpt lat="43.71907" lon="7.01692">
        <ele>850.79998779297</ele>
        <time>2023-07-30T08:52:25.000Z</time>
      </trkpt>
      <trkpt lat="43.71908" lon="7.01694">
        <ele>850.79998779297</ele>
        <time>2023-07-30T08:52:26.000Z</time>
      </trkpt>
      <trkpt lat="43.71909" lon="7.01696">
        <ele>850.40002441406</ele>
        <time>2023-07-30T08:52:27.000Z</time>
      </trkpt>
      <trkpt lat="43.7191" lon="7.01699">
        <ele>850</ele>
        <time>2023-07-30T08:52:28.000Z</time>
      </trkpt>
      <trkpt lat="43.71911" lon="7.01701">
        <ele>849.79998779297</ele>
        <time>2023-07-30T08:52:29.000Z</time>
      </trkpt>
      <trkpt lat="43.71911" lon="7.01705">
        <ele>849.79998779297</ele>
        <time>2023-07-30T08:52:30.000Z</time>
      </trkpt>
      <trkpt lat="43.71912" lon="7.01708">
        <ele>849.59997558594</ele>
        <time>2023-07-30T08:52:31.000Z</time>
      </trkpt>
      <trkpt lat="43.71912" lon="7.01711">
        <ele>849.40002441406</ele>
        <time>2023-07-30T08:52:32.000Z</time>
      </trkpt>
      <trkpt lat="43.71913" lon="7.01714">
        <ele>849.20001220703</ele>
        <time>2023-07-30T08:52:33.000Z</time>
      </trkpt>
      <trkpt lat="43.71914" lon="7.01717">
        <ele>849</ele>
        <time>2023-07-30T08:52:34.000Z</time>
      </trkpt>
      <trkpt lat="43.71916" lon="7.0172">
        <ele>848.79998779297</ele>
        <time>2023-07-30T08:52:35.000Z</time>
      </trkpt>
      <trkpt lat="43.71917" lon="7.01724">
        <ele>848.79998779297</ele>
        <time>2023-07-30T08:52:36.000Z</time>
      </trkpt>
      <trkpt lat="43.71919" lon="7.01727">
        <ele>848.59997558594</ele>
        <time>2023-07-30T08:52:37.000Z</time>
      </trkpt>
      <trkpt lat="43.7192" lon="7.01731">
        <ele>848.59997558594</ele>
        <time>2023-07-30T08:52:38.000Z</time>
      </trkpt>
      <trkpt lat="43.71922" lon="7.01736">
        <ele>848</ele>
        <time>2023-07-30T08:52:39.000Z</time>
      </trkpt>
      <trkpt lat="43.71925" lon="7.01741">
        <ele>847.79998779297</ele>
        <time>2023-07-30T08:52:40.000Z</time>
      </trkpt>
      <trkpt lat="43.71927" lon="7.01747">
        <ele>847.79998779297</ele>
        <time>2023-07-30T08:52:41.000Z</time>
      </trkpt>
      <trkpt lat="43.71927" lon="7.01754">
        <ele>847.20001220703</ele>
        <time>2023-07-30T08:52:42.000Z</time>
      </trkpt>
      <trkpt lat="43.71926" lon="7.0176">
        <ele>847</ele>
        <time>2023-07-30T08:52:43.000Z</time>
      </trkpt>
      <trkpt lat="43.71924" lon="7.01766">
        <ele>846.59997558594</ele>
        <time>2023-07-30T08:52:44.000Z</time>
      </trkpt>
      <trkpt lat="43.71922" lon="7.01772">
        <ele>846.59997558594</ele>
        <time>2023-07-30T08:52:45.000Z</time>
      </trkpt>
      <trkpt lat="43.7192" lon="7.01778">
        <ele>846.40002441406</ele>
        <time>2023-07-30T08:52:46.000Z</time>
      </trkpt>
      <trkpt lat="43.71918" lon="7.01783">
        <ele>846.40002441406</ele>
        <time>2023-07-30T08:52:47.000Z</time>
      </trkpt>
      <trkpt lat="43.71916" lon="7.01788">
        <ele>846</ele>
        <time>2023-07-30T08:52:48.000Z</time>
      </trkpt>
      <trkpt lat="43.71914" lon="7.01793">
        <ele>845.79998779297</ele>
        <time>2023-07-30T08:52:49.000Z</time>
      </trkpt>
      <trkpt lat="43.71912" lon="7.01798">
        <ele>845.59997558594</ele>
        <time>2023-07-30T08:52:50.000Z</time>
      </trkpt>
      <trkpt lat="43.71911" lon="7.01803">
        <ele>845.40002441406</ele>
        <time>2023-07-30T08:52:51.000Z</time>
      </trkpt>
      <trkpt lat="43.71909" lon="7.01808">
        <ele>845.40002441406</ele>
        <time>2023-07-30T08:52:52.000Z</time>
      </trkpt>
      <trkpt lat="43.71906" lon="7.01813">
        <ele>845.40002441406</ele>
        <time>2023-07-30T08:52:53.000Z</time>
      </trkpt>
      <trkpt lat="43.71903" lon="7.01817">
        <ele>845</ele>
        <time>2023-07-30T08:52:54.000Z</time>
      </trkpt>
      <trkpt lat="43.719" lon="7.01819">
        <ele>844.79998779297</ele>
        <time>2023-07-30T08:52:55.000Z</time>
      </trkpt>
      <trkpt lat="43.71897" lon="7.01821">
        <ele>844.79998779297</ele>
        <time>2023-07-30T08:52:56.000Z</time>
      </trkpt>
      <trkpt lat="43.71893" lon="7.01822">
        <ele>844.79998779297</ele>
        <time>2023-07-30T08:52:57.000Z</time>
      </trkpt>
      <trkpt lat="43.7189" lon="7.01823">
        <ele>844.40002441406</ele>
        <time>2023-07-30T08:52:58.000Z</time>
      </trkpt>
      <trkpt lat="43.71886" lon="7.01824">
        <ele>844.40002441406</ele>
        <time>2023-07-30T08:52:59.000Z</time>
      </trkpt>
      <trkpt lat="43.71882" lon="7.01826">
        <ele>844.40002441406</ele>
        <time>2023-07-30T08:53:00.000Z</time>
      </trkpt>
      <trkpt lat="43.71879" lon="7.01829">
        <ele>844.40002441406</ele>
        <time>2023-07-30T08:53:01.000Z</time>
      </trkpt>
      <trkpt lat="43.71875" lon="7.01832">
        <ele>843.79998779297</ele>
        <time>2023-07-30T08:53:02.000Z</time>
      </trkpt>
      <trkpt lat="43.71871" lon="7.01835">
        <ele>843.79998779297</ele>
        <time>2023-07-30T08:53:03.000Z</time>
      </trkpt>
      <trkpt lat="43.71867" lon="7.01839">
        <ele>843.59997558594</ele>
        <time>2023-07-30T08:53:04.000Z</time>
      </trkpt>
      <trkpt lat="43.71863" lon="7.01844">
        <ele>843.59997558594</ele>
        <time>2023-07-30T08:53:05.000Z</time>
      </trkpt>
      <trkpt lat="43.71859" lon="7.0185">
        <ele>843.40002441406</ele>
        <time>2023-07-30T08:53:06.000Z</time>
      </trkpt>
      <trkpt lat="43.71855" lon="7.01858">
        <ele>843.40002441406</ele>
        <time>2023-07-30T08:53:07.000Z</time>
      </trkpt>
      <trkpt lat="43.71851" lon="7.01867">
        <ele>842.59997558594</ele>
        <time>2023-07-30T08:53:08.000Z</time>
      </trkpt>
      <trkpt lat="43.71848" lon="7.01876">
        <ele>842.59997558594</ele>
        <time>2023-07-30T08:53:09.000Z</time>
      </trkpt>
      <trkpt lat="43.71845" lon="7.01885">
        <ele>841.59997558594</ele>
        <time>2023-07-30T08:53:10.000Z</time>
      </trkpt>
      <trkpt lat="43.71843" lon="7.01893">
        <ele>840.79998779297</ele>
        <time>2023-07-30T08:53:11.000Z</time>
      </trkpt>
      <trkpt lat="43.71841" lon="7.01902">
        <ele>840.79998779297</ele>
        <time>2023-07-30T08:53:12.000Z</time>
      </trkpt>
      <trkpt lat="43.71839" lon="7.0191">
        <ele>840.20001220703</ele>
        <time>2023-07-30T08:53:13.000Z</time>
      </trkpt>
      <trkpt lat="43.71839" lon="7.01919">
        <ele>840.20001220703</ele>
        <time>2023-07-30T08:53:14.000Z</time>
      </trkpt>
      <trkpt lat="43.71838" lon="7.01927">
        <ele>840</ele>
        <time>2023-07-30T08:53:15.000Z</time>
      </trkpt>
      <trkpt lat="43.71835" lon="7.01934">
        <ele>839.79998779297</ele>
        <time>2023-07-30T08:53:16.000Z</time>
      </trkpt>
      <trkpt lat="43.71834" lon="7.0194">
        <ele>839.79998779297</ele>
        <time>2023-07-30T08:53:17.000Z</time>
      </trkpt>
      <trkpt lat="43.71832" lon="7.01946">
        <ele>839.79998779297</ele>
        <time>2023-07-30T08:53:18.000Z</time>
      </trkpt>
      <trkpt lat="43.71831" lon="7.01952">
        <ele>839.59997558594</ele>
        <time>2023-07-30T08:53:19.000Z</time>
      </trkpt>
      <trkpt lat="43.71829" lon="7.01957">
        <ele>839.59997558594</ele>
        <time>2023-07-30T08:53:20.000Z</time>
      </trkpt>
      <trkpt lat="43.71828" lon="7.01961">
        <ele>839.59997558594</ele>
        <time>2023-07-30T08:53:21.000Z</time>
      </trkpt>
      <trkpt lat="43.71827" lon="7.01965">
        <ele>839.59997558594</ele>
        <time>2023-07-30T08:53:22.000Z</time>
      </trkpt>
      <trkpt lat="43.71826" lon="7.01969">
        <ele>839.79998779297</ele>
        <time>2023-07-30T08:53:23.000Z</time>
      </trkpt>
      <trkpt lat="43.71826" lon="7.01972">
        <ele>839.79998779297</ele>
        <time>2023-07-30T08:53:24.000Z</time>
      </trkpt>
      <trkpt lat="43.71825" lon="7.01976">
        <ele>839.79998779297</ele>
        <time>2023-07-30T08:53:25.000Z</time>
      </trkpt>
      <trkpt lat="43.71824" lon="7.01979">
        <ele>839.79998779297</ele>
        <time>2023-07-30T08:53:26.000Z</time>
      </trkpt>
      <trkpt lat="43.71822" lon="7.01982">
        <ele>839.79998779297</ele>
        <time>2023-07-30T08:53:27.000Z</time>
      </trkpt>
      <trkpt lat="43.71821" lon="7.01986">
        <ele>839.79998779297</ele>
        <time>2023-07-30T08:53:28.000Z</time>
      </trkpt>
      <trkpt lat="43.7182" lon="7.01989">
        <ele>840</ele>
        <time>2023-07-30T08:53:29.000Z</time>
      </trkpt>
      <trkpt lat="43.71819" lon="7.01992">
        <ele>840</ele>
        <time>2023-07-30T08:53:30.000Z</time>
      </trkpt>
      <trkpt lat="43.71818" lon="7.01994">
        <ele>840</ele>
        <time>2023-07-30T08:53:31.000Z</time>
      </trkpt>
      <trkpt lat="43.71818" lon="7.01997">
        <ele>840</ele>
        <time>2023-07-30T08:53:32.000Z</time>
      </trkpt>
      <trkpt lat="43.71817" lon="7.01998">
        <ele>840</ele>
        <time>2023-07-30T08:53:33.000Z</time>
      </trkpt>
      <trkpt lat="43.71817" lon="7.01999">
        <ele>840</ele>
        <time>2023-07-30T08:53:34.000Z</time>
      </trkpt>
      <trkpt lat="43.71817" lon="7.01999">
        <ele>840</ele>
        <time>2023-07-30T08:53:35.000Z</time>
      </trkpt>
      <trkpt lat="43.71817" lon="7.01999">
        <ele>840.20001220703</ele>
        <time>2023-07-30T08:53:36.000Z</time>
      </trkpt>
      <trkpt lat="43.71817" lon="7.01999">
        <ele>840.20001220703</ele>
        <time>2023-07-30T08:53:37.000Z</time>
      </trkpt>
      <trkpt lat="43.71817" lon="7.01999">
        <ele>840.40002441406</ele>
        <time>2023-07-30T08:53:38.000Z</time>
      </trkpt>
      <trkpt lat="43.71817" lon="7.01999">
        <ele>840.40002441406</ele>
        <time>2023-07-30T08:53:39.000Z</time>
      </trkpt>
      <trkpt lat="43.71817" lon="7.01999">
        <ele>840.40002441406</ele>
        <time>2023-07-30T08:53:40.000Z</time>
      </trkpt>
      <trkpt lat="43.71817" lon="7.01999">
        <ele>840.40002441406</ele>
        <time>2023-07-30T08:53:41.000Z</time>
      </trkpt>
      <trkpt lat="43.71817" lon="7.01999">
        <ele>840.40002441406</ele>
        <time>2023-07-30T08:53:42.000Z</time>
      </trkpt>
      <trkpt lat="43.71817" lon="7.01999">
        <ele>840.40002441406</ele>
        <time>2023-07-30T08:53:43.000Z</time>
      </trkpt>
      <trkpt lat="43.71817" lon="7.01999">
        <ele>840.40002441406</ele>
        <time>2023-07-30T08:53:44.000Z</time>
      </trkpt>
      <trkpt lat="43.71817" lon="7.01999">
        <ele>840.40002441406</ele>
        <time>2023-07-30T08:53:45.000Z</time>
      </trkpt>
      <trkpt lat="43.71817" lon="7.01999">
        <ele>840.40002441406</ele>
        <time>2023-07-30T08:53:46.000Z</time>
      </trkpt>
      <trkpt lat="43.71817" lon="7.01999">
        <ele>840.40002441406</ele>
        <time>2023-07-30T08:53:47.000Z</time>
      </trkpt>
      <trkpt lat="43.71817" lon="7.01999">
        <ele>840.40002441406</ele>
        <time>2023-07-30T08:53:48.000Z</time>
      </trkpt>
      <trkpt lat="43.71816" lon="7.02">
        <ele>840.40002441406</ele>
        <time>2023-07-30T08:53:49.000Z</time>
      </trkpt>
      <trkpt lat="43.71816" lon="7.02002">
        <ele>840.40002441406</ele>
        <time>2023-07-30T08:53:50.000Z</time>
      </trkpt>
      <trkpt lat="43.71816" lon="7.02004">
        <ele>840.59997558594</ele>
        <time>2023-07-30T08:53:51.000Z</time>
      </trkpt>
      <trkpt lat="43.71816" lon="7.02007">
        <ele>840.59997558594</ele>
        <time>2023-07-30T08:53:52.000Z</time>
      </trkpt>
      <trkpt lat="43.71816" lon="7.02011">
        <ele>840.59997558594</ele>
        <time>2023-07-30T08:53:53.000Z</time>
      </trkpt>
      <trkpt lat="43.71815" lon="7.02014">
        <ele>840.79998779297</ele>
        <time>2023-07-30T08:53:54.000Z</time>
      </trkpt>
      <trkpt lat="43.71814" lon="7.02018">
        <ele>841</ele>
        <time>2023-07-30T08:53:55.000Z</time>
      </trkpt>
      <trkpt lat="43.71813" lon="7.02021">
        <ele>841.20001220703</ele>
        <time>2023-07-30T08:53:56.000Z</time>
      </trkpt>
      <trkpt lat="43.71812" lon="7.02024">
        <ele>841.20001220703</ele>
        <time>2023-07-30T08:53:57.000Z</time>
      </trkpt>
      <trkpt lat="43.71811" lon="7.02028">
        <ele>841.40002441406</ele>
        <time>2023-07-30T08:53:58.000Z</time>
      </trkpt>
      <trkpt lat="43.71811" lon="7.02031">
        <ele>841.40002441406</ele>
        <time>2023-07-30T08:53:59.000Z</time>
      </trkpt>
      <trkpt lat="43.7181" lon="7.02035">
        <ele>842.40002441406</ele>
        <time>2023-07-30T08:54:00.000Z</time>
      </trkpt>
      <trkpt lat="43.7181" lon="7.02038">
        <ele>842.59997558594</ele>
        <time>2023-07-30T08:54:01.000Z</time>
      </trkpt>
      <trkpt lat="43.71809" lon="7.02042">
        <ele>842.59997558594</ele>
        <time>2023-07-30T08:54:02.000Z</time>
      </trkpt>
      <trkpt lat="43.71808" lon="7.02046">
        <ele>843</ele>
        <time>2023-07-30T08:54:03.000Z</time>
      </trkpt>
      <trkpt lat="43.71808" lon="7.0205">
        <ele>843.40002441406</ele>
        <time>2023-07-30T08:54:04.000Z</time>
      </trkpt>
      <trkpt lat="43.71807" lon="7.02054">
        <ele>844.20001220703</ele>
        <time>2023-07-30T08:54:05.000Z</time>
      </trkpt>
      <trkpt lat="43.71807" lon="7.02058">
        <ele>844.20001220703</ele>
        <time>2023-07-30T08:54:06.000Z</time>
      </trkpt>
      <trkpt lat="43.71806" lon="7.02061">
        <ele>844.79998779297</ele>
        <time>2023-07-30T08:54:07.000Z</time>
      </trkpt>
      <trkpt lat="43.71806" lon="7.02064">
        <ele>844.79998779297</ele>
        <time>2023-07-30T08:54:08.000Z</time>
      </trkpt>
      <trkpt lat="43.71805" lon="7.02067">
        <ele>845.20001220703</ele>
        <time>2023-07-30T08:54:09.000Z</time>
      </trkpt>
      <trkpt lat="43.71805" lon="7.02071">
        <ele>845.20001220703</ele>
        <time>2023-07-30T08:54:10.000Z</time>
      </trkpt>
      <trkpt lat="43.71805" lon="7.02075">
        <ele>845.40002441406</ele>
        <time>2023-07-30T08:54:11.000Z</time>
      </trkpt>
      <trkpt lat="43.71804" lon="7.02078">
        <ele>845.40002441406</ele>
        <time>2023-07-30T08:54:12.000Z</time>
      </trkpt>
      <trkpt lat="43.71804" lon="7.02083">
        <ele>845.59997558594</ele>
        <time>2023-07-30T08:54:13.000Z</time>
      </trkpt>
      <trkpt lat="43.71804" lon="7.02087">
        <ele>845.79998779297</ele>
        <time>2023-07-30T08:54:14.000Z</time>
      </trkpt>
      <trkpt lat="43.71804" lon="7.02091">
        <ele>845.79998779297</ele>
        <time>2023-07-30T08:54:15.000Z</time>
      </trkpt>
      <trkpt lat="43.71803" lon="7.02095">
        <ele>846</ele>
        <time>2023-07-30T08:54:16.000Z</time>
      </trkpt>
      <trkpt lat="43.71803" lon="7.02101">
        <ele>846</ele>
        <time>2023-07-30T08:54:17.000Z</time>
      </trkpt>
      <trkpt lat="43.71802" lon="7.02105">
        <ele>846</ele>
        <time>2023-07-30T08:54:18.000Z</time>
      </trkpt>
      <trkpt lat="43.71802" lon="7.02109">
        <ele>846</ele>
        <time>2023-07-30T08:54:19.000Z</time>
      </trkpt>
      <trkpt lat="43.71801" lon="7.02114">
        <ele>846</ele>
        <time>2023-07-30T08:54:20.000Z</time>
      </trkpt>
      <trkpt lat="43.71801" lon="7.02119">
        <ele>846</ele>
        <time>2023-07-30T08:54:21.000Z</time>
      </trkpt>
      <trkpt lat="43.71801" lon="7.02125">
        <ele>846</ele>
        <time>2023-07-30T08:54:22.000Z</time>
      </trkpt>
      <trkpt lat="43.71801" lon="7.02131">
        <ele>846</ele>
        <time>2023-07-30T08:54:23.000Z</time>
      </trkpt>
      <trkpt lat="43.71801" lon="7.02137">
        <ele>846</ele>
        <time>2023-07-30T08:54:24.000Z</time>
      </trkpt>
      <trkpt lat="43.71801" lon="7.02142">
        <ele>845.79998779297</ele>
        <time>2023-07-30T08:54:25.000Z</time>
      </trkpt>
      <trkpt lat="43.71801" lon="7.02147">
        <ele>845.79998779297</ele>
        <time>2023-07-30T08:54:26.000Z</time>
      </trkpt>
      <trkpt lat="43.71801" lon="7.02152">
        <ele>845.59997558594</ele>
        <time>2023-07-30T08:54:27.000Z</time>
      </trkpt>
      <trkpt lat="43.71802" lon="7.02157">
        <ele>845.59997558594</ele>
        <time>2023-07-30T08:54:28.000Z</time>
      </trkpt>
      <trkpt lat="43.71802" lon="7.02163">
        <ele>845.59997558594</ele>
        <time>2023-07-30T08:54:29.000Z</time>
      </trkpt>
      <trkpt lat="43.71802" lon="7.02168">
        <ele>845.59997558594</ele>
        <time>2023-07-30T08:54:30.000Z</time>
      </trkpt>
      <trkpt lat="43.71803" lon="7.02173">
        <ele>845.40002441406</ele>
        <time>2023-07-30T08:54:31.000Z</time>
      </trkpt>
      <trkpt lat="43.71803" lon="7.02178">
        <ele>845.40002441406</ele>
        <time>2023-07-30T08:54:32.000Z</time>
      </trkpt>
      <trkpt lat="43.71803" lon="7.02183">
        <ele>845.40002441406</ele>
        <time>2023-07-30T08:54:33.000Z</time>
      </trkpt>
      <trkpt lat="43.71804" lon="7.02187">
        <ele>845.40002441406</ele>
        <time>2023-07-30T08:54:34.000Z</time>
      </trkpt>
      <trkpt lat="43.71804" lon="7.02191">
        <ele>845.20001220703</ele>
        <time>2023-07-30T08:54:35.000Z</time>
      </trkpt>
      <trkpt lat="43.71804" lon="7.02195">
        <ele>845.20001220703</ele>
        <time>2023-07-30T08:54:36.000Z</time>
      </trkpt>
      <trkpt lat="43.71804" lon="7.022">
        <ele>845.40002441406</ele>
        <time>2023-07-30T08:54:37.000Z</time>
      </trkpt>
      <trkpt lat="43.71803" lon="7.02205">
        <ele>845.59997558594</ele>
        <time>2023-07-30T08:54:38.000Z</time>
      </trkpt>
      <trkpt lat="43.71804" lon="7.0221">
        <ele>845.59997558594</ele>
        <time>2023-07-30T08:54:39.000Z</time>
      </trkpt>
      <trkpt lat="43.71804" lon="7.02215">
        <ele>845.59997558594</ele>
        <time>2023-07-30T08:54:40.000Z</time>
      </trkpt>
      <trkpt lat="43.71804" lon="7.02219">
        <ele>846</ele>
        <time>2023-07-30T08:54:41.000Z</time>
      </trkpt>
      <trkpt lat="43.71804" lon="7.02224">
        <ele>846</ele>
        <time>2023-07-30T08:54:42.000Z</time>
      </trkpt>
      <trkpt lat="43.71804" lon="7.02229">
        <ele>846.20001220703</ele>
        <time>2023-07-30T08:54:43.000Z</time>
      </trkpt>
      <trkpt lat="43.71805" lon="7.02235">
        <ele>846.20001220703</ele>
        <time>2023-07-30T08:54:44.000Z</time>
      </trkpt>
      <trkpt lat="43.71805" lon="7.02241">
        <ele>846.20001220703</ele>
        <time>2023-07-30T08:54:45.000Z</time>
      </trkpt>
      <trkpt lat="43.71805" lon="7.02247">
        <ele>846.20001220703</ele>
        <time>2023-07-30T08:54:46.000Z</time>
      </trkpt>
      <trkpt lat="43.71805" lon="7.02253">
        <ele>846.40002441406</ele>
        <time>2023-07-30T08:54:47.000Z</time>
      </trkpt>
      <trkpt lat="43.71806" lon="7.0226">
        <ele>846.40002441406</ele>
        <time>2023-07-30T08:54:48.000Z</time>
      </trkpt>
      <trkpt lat="43.71806" lon="7.02265">
        <ele>846.40002441406</ele>
        <time>2023-07-30T08:54:49.000Z</time>
      </trkpt>
      <trkpt lat="43.71806" lon="7.0227">
        <ele>846.40002441406</ele>
        <time>2023-07-30T08:54:50.000Z</time>
      </trkpt>
      <trkpt lat="43.71806" lon="7.02276">
        <ele>846.40002441406</ele>
        <time>2023-07-30T08:54:51.000Z</time>
      </trkpt>
      <trkpt lat="43.71806" lon="7.02281">
        <ele>846.40002441406</ele>
        <time>2023-07-30T08:54:52.000Z</time>
      </trkpt>
      <trkpt lat="43.71806" lon="7.02286">
        <ele>846.40002441406</ele>
        <time>2023-07-30T08:54:53.000Z</time>
      </trkpt>
      <trkpt lat="43.71805" lon="7.02291">
        <ele>846.40002441406</ele>
        <time>2023-07-30T08:54:54.000Z</time>
      </trkpt>
      <trkpt lat="43.71805" lon="7.02297">
        <ele>846.40002441406</ele>
        <time>2023-07-30T08:54:55.000Z</time>
      </trkpt>
      <trkpt lat="43.71805" lon="7.02303">
        <ele>846.40002441406</ele>
        <time>2023-07-30T08:54:56.000Z</time>
      </trkpt>
      <trkpt lat="43.71806" lon="7.02308">
        <ele>846.40002441406</ele>
        <time>2023-07-30T08:54:57.000Z</time>
      </trkpt>
      <trkpt lat="43.71805" lon="7.02314">
        <ele>846.40002441406</ele>
        <time>2023-07-30T08:54:58.000Z</time>
      </trkpt>
      <trkpt lat="43.71806" lon="7.0232">
        <ele>846.59997558594</ele>
        <time>2023-07-30T08:54:59.000Z</time>
      </trkpt>
      <trkpt lat="43.71806" lon="7.02325">
        <ele>846.59997558594</ele>
        <time>2023-07-30T08:55:00.000Z</time>
      </trkpt>
      <trkpt lat="43.71806" lon="7.0233">
        <ele>846.59997558594</ele>
        <time>2023-07-30T08:55:01.000Z</time>
      </trkpt>
      <trkpt lat="43.71806" lon="7.02335">
        <ele>846.79998779297</ele>
        <time>2023-07-30T08:55:02.000Z</time>
      </trkpt>
      <trkpt lat="43.71806" lon="7.02341">
        <ele>846.79998779297</ele>
        <time>2023-07-30T08:55:03.000Z</time>
      </trkpt>
      <trkpt lat="43.71806" lon="7.02346">
        <ele>847</ele>
        <time>2023-07-30T08:55:04.000Z</time>
      </trkpt>
      <trkpt lat="43.71807" lon="7.02351">
        <ele>847</ele>
        <time>2023-07-30T08:55:05.000Z</time>
      </trkpt>
      <trkpt lat="43.71808" lon="7.02357">
        <ele>847</ele>
        <time>2023-07-30T08:55:06.000Z</time>
      </trkpt>
      <trkpt lat="43.71808" lon="7.02363">
        <ele>847</ele>
        <time>2023-07-30T08:55:07.000Z</time>
      </trkpt>
      <trkpt lat="43.71809" lon="7.02369">
        <ele>847</ele>
        <time>2023-07-30T08:55:08.000Z</time>
      </trkpt>
      <trkpt lat="43.71809" lon="7.02376">
        <ele>847</ele>
        <time>2023-07-30T08:55:09.000Z</time>
      </trkpt>
      <trkpt lat="43.7181" lon="7.02383">
        <ele>846.79998779297</ele>
        <time>2023-07-30T08:55:10.000Z</time>
      </trkpt>
      <trkpt lat="43.71811" lon="7.02389">
        <ele>846.59997558594</ele>
        <time>2023-07-30T08:55:11.000Z</time>
      </trkpt>
      <trkpt lat="43.71811" lon="7.02395">
        <ele>846.59997558594</ele>
        <time>2023-07-30T08:55:12.000Z</time>
      </trkpt>
      <trkpt lat="43.71812" lon="7.02401">
        <ele>846.59997558594</ele>
        <time>2023-07-30T08:55:13.000Z</time>
      </trkpt>
      <trkpt lat="43.71812" lon="7.02407">
        <ele>846.59997558594</ele>
        <time>2023-07-30T08:55:14.000Z</time>
      </trkpt>
      <trkpt lat="43.71812" lon="7.02412">
        <ele>846.59997558594</ele>
        <time>2023-07-30T08:55:15.000Z</time>
      </trkpt>
      <trkpt lat="43.71813" lon="7.02418">
        <ele>846.59997558594</ele>
        <time>2023-07-30T08:55:16.000Z</time>
      </trkpt>
      <trkpt lat="43.71813" lon="7.02423">
        <ele>846.59997558594</ele>
        <time>2023-07-30T08:55:17.000Z</time>
      </trkpt>
      <trkpt lat="43.71814" lon="7.02429">
        <ele>846.59997558594</ele>
        <time>2023-07-30T08:55:18.000Z</time>
      </trkpt>
      <trkpt lat="43.71814" lon="7.02434">
        <ele>846.59997558594</ele>
        <time>2023-07-30T08:55:19.000Z</time>
      </trkpt>
      <trkpt lat="43.71814" lon="7.0244">
        <ele>846.59997558594</ele>
        <time>2023-07-30T08:55:20.000Z</time>
      </trkpt>
      <trkpt lat="43.71814" lon="7.02446">
        <ele>847</ele>
        <time>2023-07-30T08:55:21.000Z</time>
      </trkpt>
      <trkpt lat="43.71814" lon="7.02452">
        <ele>847</ele>
        <time>2023-07-30T08:55:22.000Z</time>
      </trkpt>
      <trkpt lat="43.71814" lon="7.02457">
        <ele>847</ele>
        <time>2023-07-30T08:55:23.000Z</time>
      </trkpt>
      <trkpt lat="43.71814" lon="7.02463">
        <ele>847</ele>
        <time>2023-07-30T08:55:24.000Z</time>
      </trkpt>
      <trkpt lat="43.71813" lon="7.02468">
        <ele>847.20001220703</ele>
        <time>2023-07-30T08:55:25.000Z</time>
      </trkpt>
      <trkpt lat="43.71812" lon="7.02473">
        <ele>847.20001220703</ele>
        <time>2023-07-30T08:55:26.000Z</time>
      </trkpt>
      <trkpt lat="43.71812" lon="7.02478">
        <ele>847.20001220703</ele>
        <time>2023-07-30T08:55:27.000Z</time>
      </trkpt>
      <trkpt lat="43.71811" lon="7.02483">
        <ele>847.20001220703</ele>
        <time>2023-07-30T08:55:28.000Z</time>
      </trkpt>
      <trkpt lat="43.7181" lon="7.02489">
        <ele>847</ele>
        <time>2023-07-30T08:55:29.000Z</time>
      </trkpt>
      <trkpt lat="43.71808" lon="7.02495">
        <ele>847</ele>
        <time>2023-07-30T08:55:30.000Z</time>
      </trkpt>
      <trkpt lat="43.71807" lon="7.02502">
        <ele>847</ele>
        <time>2023-07-30T08:55:31.000Z</time>
      </trkpt>
      <trkpt lat="43.71805" lon="7.02508">
        <ele>846.59997558594</ele>
        <time>2023-07-30T08:55:32.000Z</time>
      </trkpt>
      <trkpt lat="43.71804" lon="7.02514">
        <ele>846.59997558594</ele>
        <time>2023-07-30T08:55:33.000Z</time>
      </trkpt>
      <trkpt lat="43.71802" lon="7.02519">
        <ele>846.40002441406</ele>
        <time>2023-07-30T08:55:34.000Z</time>
      </trkpt>
      <trkpt lat="43.718" lon="7.02525">
        <ele>846.40002441406</ele>
        <time>2023-07-30T08:55:35.000Z</time>
      </trkpt>
      <trkpt lat="43.71798" lon="7.02531">
        <ele>846.40002441406</ele>
        <time>2023-07-30T08:55:36.000Z</time>
      </trkpt>
      <trkpt lat="43.71797" lon="7.02537">
        <ele>846.20001220703</ele>
        <time>2023-07-30T08:55:37.000Z</time>
      </trkpt>
      <trkpt lat="43.71796" lon="7.02543">
        <ele>846.40002441406</ele>
        <time>2023-07-30T08:55:38.000Z</time>
      </trkpt>
      <trkpt lat="43.71794" lon="7.02549">
        <ele>846.40002441406</ele>
        <time>2023-07-30T08:55:39.000Z</time>
      </trkpt>
      <trkpt lat="43.71793" lon="7.02555">
        <ele>846.40002441406</ele>
        <time>2023-07-30T08:55:40.000Z</time>
      </trkpt>
      <trkpt lat="43.71792" lon="7.0256">
        <ele>846.40002441406</ele>
        <time>2023-07-30T08:55:41.000Z</time>
      </trkpt>
      <trkpt lat="43.7179" lon="7.02566">
        <ele>846.40002441406</ele>
        <time>2023-07-30T08:55:42.000Z</time>
      </trkpt>
      <trkpt lat="43.71789" lon="7.02571">
        <ele>846.40002441406</ele>
        <time>2023-07-30T08:55:43.000Z</time>
      </trkpt>
      <trkpt lat="43.71787" lon="7.02577">
        <ele>846.40002441406</ele>
        <time>2023-07-30T08:55:44.000Z</time>
      </trkpt>
      <trkpt lat="43.71785" lon="7.02582">
        <ele>846.40002441406</ele>
        <time>2023-07-30T08:55:45.000Z</time>
      </trkpt>
      <trkpt lat="43.71782" lon="7.02586">
        <ele>846.59997558594</ele>
        <time>2023-07-30T08:55:46.000Z</time>
      </trkpt>
      <trkpt lat="43.71779" lon="7.0259">
        <ele>846.59997558594</ele>
        <time>2023-07-30T08:55:47.000Z</time>
      </trkpt>
      <trkpt lat="43.71777" lon="7.02594">
        <ele>846.59997558594</ele>
        <time>2023-07-30T08:55:48.000Z</time>
      </trkpt>
      <trkpt lat="43.71773" lon="7.02598">
        <ele>846.59997558594</ele>
        <time>2023-07-30T08:55:49.000Z</time>
      </trkpt>
      <trkpt lat="43.71769" lon="7.02601">
        <ele>847</ele>
        <time>2023-07-30T08:55:50.000Z</time>
      </trkpt>
      <trkpt lat="43.71766" lon="7.02604">
        <ele>847</ele>
        <time>2023-07-30T08:55:51.000Z</time>
      </trkpt>
      <trkpt lat="43.71763" lon="7.02607">
        <ele>847</ele>
        <time>2023-07-30T08:55:52.000Z</time>
      </trkpt>
      <trkpt lat="43.71759" lon="7.02609">
        <ele>847.40002441406</ele>
        <time>2023-07-30T08:55:53.000Z</time>
      </trkpt>
      <trkpt lat="43.71756" lon="7.02612">
        <ele>847.40002441406</ele>
        <time>2023-07-30T08:55:54.000Z</time>
      </trkpt>
      <trkpt lat="43.71753" lon="7.02615">
        <ele>847.59997558594</ele>
        <time>2023-07-30T08:55:55.000Z</time>
      </trkpt>
      <trkpt lat="43.71749" lon="7.02617">
        <ele>847.59997558594</ele>
        <time>2023-07-30T08:55:56.000Z</time>
      </trkpt>
      <trkpt lat="43.71745" lon="7.0262">
        <ele>847.79998779297</ele>
        <time>2023-07-30T08:55:57.000Z</time>
      </trkpt>
      <trkpt lat="43.7174" lon="7.02621">
        <ele>847.79998779297</ele>
        <time>2023-07-30T08:55:58.000Z</time>
      </trkpt>
      <trkpt lat="43.71736" lon="7.02623">
        <ele>847.79998779297</ele>
        <time>2023-07-30T08:55:59.000Z</time>
      </trkpt>
      <trkpt lat="43.71732" lon="7.02624">
        <ele>847.79998779297</ele>
        <time>2023-07-30T08:56:00.000Z</time>
      </trkpt>
      <trkpt lat="43.71728" lon="7.02625">
        <ele>847.79998779297</ele>
        <time>2023-07-30T08:56:01.000Z</time>
      </trkpt>
      <trkpt lat="43.71723" lon="7.02626">
        <ele>847.79998779297</ele>
        <time>2023-07-30T08:56:02.000Z</time>
      </trkpt>
      <trkpt lat="43.71718" lon="7.02628">
        <ele>847.79998779297</ele>
        <time>2023-07-30T08:56:03.000Z</time>
      </trkpt>
      <trkpt lat="43.71714" lon="7.02629">
        <ele>847.79998779297</ele>
        <time>2023-07-30T08:56:04.000Z</time>
      </trkpt>
      <trkpt lat="43.7171" lon="7.02631">
        <ele>847.79998779297</ele>
        <time>2023-07-30T08:56:05.000Z</time>
      </trkpt>
      <trkpt lat="43.71706" lon="7.02633">
        <ele>848</ele>
        <time>2023-07-30T08:56:06.000Z</time>
      </trkpt>
      <trkpt lat="43.71702" lon="7.02635">
        <ele>848</ele>
        <time>2023-07-30T08:56:07.000Z</time>
      </trkpt>
      <trkpt lat="43.71698" lon="7.02637">
        <ele>848</ele>
        <time>2023-07-30T08:56:08.000Z</time>
      </trkpt>
      <trkpt lat="43.71695" lon="7.0264">
        <ele>848</ele>
        <time>2023-07-30T08:56:09.000Z</time>
      </trkpt>
      <trkpt lat="43.71692" lon="7.02642">
        <ele>848.20001220703</ele>
        <time>2023-07-30T08:56:10.000Z</time>
      </trkpt>
      <trkpt lat="43.71688" lon="7.02644">
        <ele>848.20001220703</ele>
        <time>2023-07-30T08:56:11.000Z</time>
      </trkpt>
      <trkpt lat="43.71685" lon="7.02647">
        <ele>848.59997558594</ele>
        <time>2023-07-30T08:56:12.000Z</time>
      </trkpt>
      <trkpt lat="43.71683" lon="7.0265">
        <ele>848.59997558594</ele>
        <time>2023-07-30T08:56:13.000Z</time>
      </trkpt>
      <trkpt lat="43.71681" lon="7.02652">
        <ele>849</ele>
        <time>2023-07-30T08:56:14.000Z</time>
      </trkpt>
      <trkpt lat="43.71679" lon="7.02654">
        <ele>849</ele>
        <time>2023-07-30T08:56:15.000Z</time>
      </trkpt>
      <trkpt lat="43.71677" lon="7.02657">
        <ele>849.40002441406</ele>
        <time>2023-07-30T08:56:16.000Z</time>
      </trkpt>
      <trkpt lat="43.71675" lon="7.02659">
        <ele>849.59997558594</ele>
        <time>2023-07-30T08:56:17.000Z</time>
      </trkpt>
      <trkpt lat="43.71674" lon="7.0266">
        <ele>849.79998779297</ele>
        <time>2023-07-30T08:56:18.000Z</time>
      </trkpt>
      <trkpt lat="43.71673" lon="7.02662">
        <ele>850.20001220703</ele>
        <time>2023-07-30T08:56:19.000Z</time>
      </trkpt>
      <trkpt lat="43.71673" lon="7.02663">
        <ele>850.40002441406</ele>
        <time>2023-07-30T08:56:20.000Z</time>
      </trkpt>
      <trkpt lat="43.71672" lon="7.02664">
        <ele>850.59997558594</ele>
        <time>2023-07-30T08:56:21.000Z</time>
      </trkpt>
      <trkpt lat="43.71672" lon="7.02664">
        <ele>850.59997558594</ele>
        <time>2023-07-30T08:56:22.000Z</time>
      </trkpt>
      <trkpt lat="43.71672" lon="7.02664">
        <ele>850.59997558594</ele>
        <time>2023-07-30T08:56:23.000Z</time>
      </trkpt>
      <trkpt lat="43.71672" lon="7.02664">
        <ele>850.59997558594</ele>
        <time>2023-07-30T08:56:24.000Z</time>
      </trkpt>
      <trkpt lat="43.71672" lon="7.02664">
        <ele>850.59997558594</ele>
        <time>2023-07-30T08:56:25.000Z</time>
      </trkpt>
      <trkpt lat="43.71671" lon="7.02663">
        <ele>850.59997558594</ele>
        <time>2023-07-30T08:56:26.000Z</time>
      </trkpt>
      <trkpt lat="43.71671" lon="7.02663">
        <ele>850.59997558594</ele>
        <time>2023-07-30T08:56:27.000Z</time>
      </trkpt>
      <trkpt lat="43.71671" lon="7.02663">
        <ele>850.79998779297</ele>
        <time>2023-07-30T08:56:28.000Z</time>
      </trkpt>
      <trkpt lat="43.71671" lon="7.02663">
        <ele>850.79998779297</ele>
        <time>2023-07-30T08:56:29.000Z</time>
      </trkpt>
      <trkpt lat="43.71671" lon="7.02663">
        <ele>850.79998779297</ele>
        <time>2023-07-30T08:56:30.000Z</time>
      </trkpt>
      <trkpt lat="43.71671" lon="7.02663">
        <ele>850.79998779297</ele>
        <time>2023-07-30T08:56:31.000Z</time>
      </trkpt>
      <trkpt lat="43.71671" lon="7.02663">
        <ele>850.79998779297</ele>
        <time>2023-07-30T08:56:32.000Z</time>
      </trkpt>
      <trkpt lat="43.71671" lon="7.02663">
        <ele>850.79998779297</ele>
        <time>2023-07-30T08:56:33.000Z</time>
      </trkpt>
      <trkpt lat="43.71671" lon="7.02663">
        <ele>850.79998779297</ele>
        <time>2023-07-30T08:56:34.000Z</time>
      </trkpt>
      <trkpt lat="43.71672" lon="7.02663">
        <ele>850.79998779297</ele>
        <time>2023-07-30T08:56:35.000Z</time>
      </trkpt>
      <trkpt lat="43.71671" lon="7.02663">
        <ele>850.79998779297</ele>
        <time>2023-07-30T08:56:36.000Z</time>
      </trkpt>
      <trkpt lat="43.71671" lon="7.02663">
        <ele>850.79998779297</ele>
        <time>2023-07-30T08:56:37.000Z</time>
      </trkpt>
      <trkpt lat="43.71672" lon="7.02663">
        <ele>850.79998779297</ele>
        <time>2023-07-30T08:56:38.000Z</time>
      </trkpt>
      <trkpt lat="43.71672" lon="7.02663">
        <ele>850.79998779297</ele>
        <time>2023-07-30T08:56:39.000Z</time>
      </trkpt>
      <trkpt lat="43.71671" lon="7.02663">
        <ele>850.79998779297</ele>
        <time>2023-07-30T08:56:40.000Z</time>
      </trkpt>
      <trkpt lat="43.71672" lon="7.02663">
        <ele>850.79998779297</ele>
        <time>2023-07-30T08:56:41.000Z</time>
      </trkpt>
      <trkpt lat="43.71672" lon="7.02663">
        <ele>850.79998779297</ele>
        <time>2023-07-30T08:56:42.000Z</time>
      </trkpt>
      <trkpt lat="43.71672" lon="7.02663">
        <ele>850.79998779297</ele>
        <time>2023-07-30T08:56:43.000Z</time>
      </trkpt>
      <trkpt lat="43.71672" lon="7.02663">
        <ele>850.79998779297</ele>
        <time>2023-07-30T08:56:44.000Z</time>
      </trkpt>
      <trkpt lat="43.71672" lon="7.02663">
        <ele>850.79998779297</ele>
        <time>2023-07-30T08:56:45.000Z</time>
      </trkpt>
      <trkpt lat="43.71672" lon="7.02663">
        <ele>850.79998779297</ele>
        <time>2023-07-30T08:56:46.000Z</time>
      </trkpt>
      <trkpt lat="43.71672" lon="7.02663">
        <ele>850.79998779297</ele>
        <time>2023-07-30T08:56:47.000Z</time>
      </trkpt>
      <trkpt lat="43.71672" lon="7.02663">
        <ele>850.79998779297</ele>
        <time>2023-07-30T08:56:48.000Z</time>
      </trkpt>
      <trkpt lat="43.71672" lon="7.02663">
        <ele>850.79998779297</ele>
        <time>2023-07-30T08:56:49.000Z</time>
      </trkpt>
      <trkpt lat="43.71672" lon="7.02663">
        <ele>850.59997558594</ele>
        <time>2023-07-30T08:56:50.000Z</time>
      </trkpt>
      <trkpt lat="43.71671" lon="7.02663">
        <ele>850.59997558594</ele>
        <time>2023-07-30T08:56:51.000Z</time>
      </trkpt>
      <trkpt lat="43.71672" lon="7.02663">
        <ele>850.40002441406</ele>
        <time>2023-07-30T08:56:52.000Z</time>
      </trkpt>
      <trkpt lat="43.71672" lon="7.02663">
        <ele>850.40002441406</ele>
        <time>2023-07-30T08:56:53.000Z</time>
      </trkpt>
      <trkpt lat="43.71672" lon="7.02663">
        <ele>850.40002441406</ele>
        <time>2023-07-30T08:56:54.000Z</time>
      </trkpt>
      <trkpt lat="43.71672" lon="7.02663">
        <ele>850.40002441406</ele>
        <time>2023-07-30T08:56:55.000Z</time>
      </trkpt>
      <trkpt lat="43.71672" lon="7.02663">
        <ele>850.40002441406</ele>
        <time>2023-07-30T08:56:56.000Z</time>
      </trkpt>
      <trkpt lat="43.71672" lon="7.02663">
        <ele>850.40002441406</ele>
        <time>2023-07-30T08:56:57.000Z</time>
      </trkpt>
      <trkpt lat="43.71672" lon="7.02663">
        <ele>850.40002441406</ele>
        <time>2023-07-30T08:56:58.000Z</time>
      </trkpt>
      <trkpt lat="43.71672" lon="7.02663">
        <ele>850.40002441406</ele>
        <time>2023-07-30T08:56:59.000Z</time>
      </trkpt>
      <trkpt lat="43.71672" lon="7.02663">
        <ele>851</ele>
        <time>2023-07-30T08:57:00.000Z</time>
      </trkpt>
      <trkpt lat="43.71672" lon="7.02663">
        <ele>851</ele>
        <time>2023-07-30T08:57:01.000Z</time>
      </trkpt>
      <trkpt lat="43.71672" lon="7.02663">
        <ele>851</ele>
        <time>2023-07-30T08:57:02.000Z</time>
      </trkpt>
      <trkpt lat="43.71672" lon="7.02663">
        <ele>851</ele>
        <time>2023-07-30T08:57:03.000Z</time>
      </trkpt>
      <trkpt lat="43.71672" lon="7.02663">
        <ele>851</ele>
        <time>2023-07-30T08:57:04.000Z</time>
      </trkpt>
      <trkpt lat="43.71672" lon="7.02663">
        <ele>851</ele>
        <time>2023-07-30T08:57:05.000Z</time>
      </trkpt>
      <trkpt lat="43.71672" lon="7.02663">
        <ele>850.79998779297</ele>
        <time>2023-07-30T08:57:06.000Z</time>
      </trkpt>
      <trkpt lat="43.71672" lon="7.02665">
        <ele>850.79998779297</ele>
        <time>2023-07-30T08:57:07.000Z</time>
      </trkpt>
      <trkpt lat="43.71671" lon="7.02666">
        <ele>850.79998779297</ele>
        <time>2023-07-30T08:57:08.000Z</time>
      </trkpt>
      <trkpt lat="43.71671" lon="7.02668">
        <ele>850.79998779297</ele>
        <time>2023-07-30T08:57:09.000Z</time>
      </trkpt>
      <trkpt lat="43.71671" lon="7.02669">
        <ele>850.79998779297</ele>
        <time>2023-07-30T08:57:10.000Z</time>
      </trkpt>
      <trkpt lat="43.71671" lon="7.02671">
        <ele>850.79998779297</ele>
        <time>2023-07-30T08:57:11.000Z</time>
      </trkpt>
      <trkpt lat="43.71671" lon="7.02673">
        <ele>850.79998779297</ele>
        <time>2023-07-30T08:57:12.000Z</time>
      </trkpt>
      <trkpt lat="43.71671" lon="7.02676">
        <ele>850.79998779297</ele>
        <time>2023-07-30T08:57:13.000Z</time>
      </trkpt>
      <trkpt lat="43.71671" lon="7.02679">
        <ele>850.79998779297</ele>
        <time>2023-07-30T08:57:14.000Z</time>
      </trkpt>
      <trkpt lat="43.71671" lon="7.02682">
        <ele>850.79998779297</ele>
        <time>2023-07-30T08:57:15.000Z</time>
      </trkpt>
      <trkpt lat="43.71671" lon="7.02686">
        <ele>850.79998779297</ele>
        <time>2023-07-30T08:57:16.000Z</time>
      </trkpt>
      <trkpt lat="43.7167" lon="7.02689">
        <ele>850.79998779297</ele>
        <time>2023-07-30T08:57:17.000Z</time>
      </trkpt>
      <trkpt lat="43.7167" lon="7.02692">
        <ele>850.79998779297</ele>
        <time>2023-07-30T08:57:18.000Z</time>
      </trkpt>
      <trkpt lat="43.7167" lon="7.02696">
        <ele>851</ele>
        <time>2023-07-30T08:57:19.000Z</time>
      </trkpt>
      <trkpt lat="43.7167" lon="7.02701">
        <ele>851</ele>
        <time>2023-07-30T08:57:20.000Z</time>
      </trkpt>
      <trkpt lat="43.7167" lon="7.02705">
        <ele>851</ele>
        <time>2023-07-30T08:57:21.000Z</time>
      </trkpt>
      <trkpt lat="43.7167" lon="7.02709">
        <ele>851</ele>
        <time>2023-07-30T08:57:22.000Z</time>
      </trkpt>
      <trkpt lat="43.7167" lon="7.02713">
        <ele>851</ele>
        <time>2023-07-30T08:57:23.000Z</time>
      </trkpt>
      <trkpt lat="43.7167" lon="7.02717">
        <ele>851</ele>
        <time>2023-07-30T08:57:24.000Z</time>
      </trkpt>
      <trkpt lat="43.71671" lon="7.02721">
        <ele>851.20001220703</ele>
        <time>2023-07-30T08:57:25.000Z</time>
      </trkpt>
      <trkpt lat="43.71672" lon="7.02725">
        <ele>851.20001220703</ele>
        <time>2023-07-30T08:57:26.000Z</time>
      </trkpt>
      <trkpt lat="43.71674" lon="7.02729">
        <ele>851.20001220703</ele>
        <time>2023-07-30T08:57:27.000Z</time>
      </trkpt>
      <trkpt lat="43.71676" lon="7.02733">
        <ele>851.20001220703</ele>
        <time>2023-07-30T08:57:28.000Z</time>
      </trkpt>
      <trkpt lat="43.71678" lon="7.02735">
        <ele>851.20001220703</ele>
        <time>2023-07-30T08:57:29.000Z</time>
      </trkpt>
      <trkpt lat="43.71679" lon="7.02738">
        <ele>851.20001220703</ele>
        <time>2023-07-30T08:57:30.000Z</time>
      </trkpt>
      <trkpt lat="43.71681" lon="7.02741">
        <ele>851.20001220703</ele>
        <time>2023-07-30T08:57:31.000Z</time>
      </trkpt>
      <trkpt lat="43.71683" lon="7.02744">
        <ele>851.20001220703</ele>
        <time>2023-07-30T08:57:32.000Z</time>
      </trkpt>
      <trkpt lat="43.71684" lon="7.02747">
        <ele>851.20001220703</ele>
        <time>2023-07-30T08:57:33.000Z</time>
      </trkpt>
      <trkpt lat="43.71687" lon="7.0275">
        <ele>851.20001220703</ele>
        <time>2023-07-30T08:57:34.000Z</time>
      </trkpt>
      <trkpt lat="43.71689" lon="7.02753">
        <ele>851.40002441406</ele>
        <time>2023-07-30T08:57:35.000Z</time>
      </trkpt>
      <trkpt lat="43.71691" lon="7.02756">
        <ele>851.40002441406</ele>
        <time>2023-07-30T08:57:36.000Z</time>
      </trkpt>
      <trkpt lat="43.71694" lon="7.02759">
        <ele>851.40002441406</ele>
        <time>2023-07-30T08:57:37.000Z</time>
      </trkpt>
      <trkpt lat="43.71696" lon="7.02761">
        <ele>851.40002441406</ele>
        <time>2023-07-30T08:57:38.000Z</time>
      </trkpt>
      <trkpt lat="43.71698" lon="7.02764">
        <ele>851.59997558594</ele>
        <time>2023-07-30T08:57:39.000Z</time>
      </trkpt>
      <trkpt lat="43.717" lon="7.02767">
        <ele>851.59997558594</ele>
        <time>2023-07-30T08:57:40.000Z</time>
      </trkpt>
      <trkpt lat="43.71702" lon="7.0277">
        <ele>851.59997558594</ele>
        <time>2023-07-30T08:57:41.000Z</time>
      </trkpt>
      <trkpt lat="43.71705" lon="7.02773">
        <ele>851.79998779297</ele>
        <time>2023-07-30T08:57:42.000Z</time>
      </trkpt>
      <trkpt lat="43.71707" lon="7.02776">
        <ele>851.79998779297</ele>
        <time>2023-07-30T08:57:43.000Z</time>
      </trkpt>
      <trkpt lat="43.71709" lon="7.02779">
        <ele>851.79998779297</ele>
        <time>2023-07-30T08:57:44.000Z</time>
      </trkpt>
      <trkpt lat="43.71712" lon="7.02782">
        <ele>851.79998779297</ele>
        <time>2023-07-30T08:57:45.000Z</time>
      </trkpt>
      <trkpt lat="43.71714" lon="7.02785">
        <ele>852</ele>
        <time>2023-07-30T08:57:46.000Z</time>
      </trkpt>
      <trkpt lat="43.71716" lon="7.02788">
        <ele>852</ele>
        <time>2023-07-30T08:57:47.000Z</time>
      </trkpt>
      <trkpt lat="43.71719" lon="7.0279">
        <ele>852</ele>
        <time>2023-07-30T08:57:48.000Z</time>
      </trkpt>
      <trkpt lat="43.71721" lon="7.02794">
        <ele>852</ele>
        <time>2023-07-30T08:57:49.000Z</time>
      </trkpt>
      <trkpt lat="43.71724" lon="7.02797">
        <ele>852</ele>
        <time>2023-07-30T08:57:50.000Z</time>
      </trkpt>
      <trkpt lat="43.71727" lon="7.02801">
        <ele>852</ele>
        <time>2023-07-30T08:57:51.000Z</time>
      </trkpt>
      <trkpt lat="43.71729" lon="7.02804">
        <ele>852</ele>
        <time>2023-07-30T08:57:52.000Z</time>
      </trkpt>
      <trkpt lat="43.71732" lon="7.02808">
        <ele>852</ele>
        <time>2023-07-30T08:57:53.000Z</time>
      </trkpt>
      <trkpt lat="43.71734" lon="7.02812">
        <ele>852</ele>
        <time>2023-07-30T08:57:54.000Z</time>
      </trkpt>
      <trkpt lat="43.71737" lon="7.02815">
        <ele>852</ele>
        <time>2023-07-30T08:57:55.000Z</time>
      </trkpt>
      <trkpt lat="43.7174" lon="7.02819">
        <ele>852</ele>
        <time>2023-07-30T08:57:56.000Z</time>
      </trkpt>
      <trkpt lat="43.71743" lon="7.02822">
        <ele>852.20001220703</ele>
        <time>2023-07-30T08:57:57.000Z</time>
      </trkpt>
      <trkpt lat="43.71745" lon="7.02826">
        <ele>852.40002441406</ele>
        <time>2023-07-30T08:57:58.000Z</time>
      </trkpt>
      <trkpt lat="43.71748" lon="7.0283">
        <ele>852.40002441406</ele>
        <time>2023-07-30T08:57:59.000Z</time>
      </trkpt>
      <trkpt lat="43.71751" lon="7.02834">
        <ele>852.40002441406</ele>
        <time>2023-07-30T08:58:00.000Z</time>
      </trkpt>
      <trkpt lat="43.71755" lon="7.02838">
        <ele>852.59997558594</ele>
        <time>2023-07-30T08:58:01.000Z</time>
      </trkpt>
      <trkpt lat="43.71758" lon="7.02843">
        <ele>852.59997558594</ele>
        <time>2023-07-30T08:58:02.000Z</time>
      </trkpt>
      <trkpt lat="43.71761" lon="7.02847">
        <ele>852.40002441406</ele>
        <time>2023-07-30T08:58:03.000Z</time>
      </trkpt>
      <trkpt lat="43.71764" lon="7.02852">
        <ele>852.40002441406</ele>
        <time>2023-07-30T08:58:04.000Z</time>
      </trkpt>
      <trkpt lat="43.71767" lon="7.02857">
        <ele>852.40002441406</ele>
        <time>2023-07-30T08:58:05.000Z</time>
      </trkpt>
      <trkpt lat="43.7177" lon="7.02861">
        <ele>852.40002441406</ele>
        <time>2023-07-30T08:58:06.000Z</time>
      </trkpt>
      <trkpt lat="43.71773" lon="7.02866">
        <ele>852.40002441406</ele>
        <time>2023-07-30T08:58:07.000Z</time>
      </trkpt>
      <trkpt lat="43.71776" lon="7.0287">
        <ele>852.40002441406</ele>
        <time>2023-07-30T08:58:08.000Z</time>
      </trkpt>
      <trkpt lat="43.71779" lon="7.02875">
        <ele>852.40002441406</ele>
        <time>2023-07-30T08:58:09.000Z</time>
      </trkpt>
      <trkpt lat="43.71782" lon="7.02879">
        <ele>852.40002441406</ele>
        <time>2023-07-30T08:58:10.000Z</time>
      </trkpt>
      <trkpt lat="43.71785" lon="7.02884">
        <ele>852.40002441406</ele>
        <time>2023-07-30T08:58:11.000Z</time>
      </trkpt>
      <trkpt lat="43.71788" lon="7.02888">
        <ele>852.20001220703</ele>
        <time>2023-07-30T08:58:12.000Z</time>
      </trkpt>
      <trkpt lat="43.71791" lon="7.02892">
        <ele>852.20001220703</ele>
        <time>2023-07-30T08:58:13.000Z</time>
      </trkpt>
      <trkpt lat="43.71794" lon="7.02897">
        <ele>852</ele>
        <time>2023-07-30T08:58:14.000Z</time>
      </trkpt>
      <trkpt lat="43.71797" lon="7.02902">
        <ele>852</ele>
        <time>2023-07-30T08:58:15.000Z</time>
      </trkpt>
      <trkpt lat="43.718" lon="7.02907">
        <ele>852</ele>
        <time>2023-07-30T08:58:16.000Z</time>
      </trkpt>
      <trkpt lat="43.71803" lon="7.02912">
        <ele>851.59997558594</ele>
        <time>2023-07-30T08:58:17.000Z</time>
      </trkpt>
      <trkpt lat="43.71806" lon="7.02917">
        <ele>851.59997558594</ele>
        <time>2023-07-30T08:58:18.000Z</time>
      </trkpt>
      <trkpt lat="43.7181" lon="7.02921">
        <ele>851.59997558594</ele>
        <time>2023-07-30T08:58:19.000Z</time>
      </trkpt>
      <trkpt lat="43.71814" lon="7.02926">
        <ele>851.40002441406</ele>
        <time>2023-07-30T08:58:20.000Z</time>
      </trkpt>
      <trkpt lat="43.71817" lon="7.02931">
        <ele>851.40002441406</ele>
        <time>2023-07-30T08:58:21.000Z</time>
      </trkpt>
      <trkpt lat="43.71822" lon="7.02936">
        <ele>851.40002441406</ele>
        <time>2023-07-30T08:58:22.000Z</time>
      </trkpt>
      <trkpt lat="43.71825" lon="7.02941">
        <ele>851.20001220703</ele>
        <time>2023-07-30T08:58:23.000Z</time>
      </trkpt>
      <trkpt lat="43.7183" lon="7.02946">
        <ele>851</ele>
        <time>2023-07-30T08:58:24.000Z</time>
      </trkpt>
      <trkpt lat="43.71834" lon="7.02952">
        <ele>851</ele>
        <time>2023-07-30T08:58:25.000Z</time>
      </trkpt>
      <trkpt lat="43.71839" lon="7.02957">
        <ele>850.79998779297</ele>
        <time>2023-07-30T08:58:26.000Z</time>
      </trkpt>
      <trkpt lat="43.71844" lon="7.02963">
        <ele>850</ele>
        <time>2023-07-30T08:58:27.000Z</time>
      </trkpt>
      <trkpt lat="43.71849" lon="7.02969">
        <ele>849.59997558594</ele>
        <time>2023-07-30T08:58:28.000Z</time>
      </trkpt>
      <trkpt lat="43.71854" lon="7.02975">
        <ele>848.79998779297</ele>
        <time>2023-07-30T08:58:29.000Z</time>
      </trkpt>
      <trkpt lat="43.71859" lon="7.02982">
        <ele>847.59997558594</ele>
        <time>2023-07-30T08:58:30.000Z</time>
      </trkpt>
      <trkpt lat="43.71864" lon="7.0299">
        <ele>847.40002441406</ele>
        <time>2023-07-30T08:58:31.000Z</time>
      </trkpt>
      <trkpt lat="43.71868" lon="7.02998">
        <ele>846.59997558594</ele>
        <time>2023-07-30T08:58:32.000Z</time>
      </trkpt>
      <trkpt lat="43.71873" lon="7.03007">
        <ele>846</ele>
        <time>2023-07-30T08:58:33.000Z</time>
      </trkpt>
      <trkpt lat="43.71877" lon="7.03016">
        <ele>845.79998779297</ele>
        <time>2023-07-30T08:58:34.000Z</time>
      </trkpt>
      <trkpt lat="43.71882" lon="7.03025">
        <ele>845</ele>
        <time>2023-07-30T08:58:35.000Z</time>
      </trkpt>
      <trkpt lat="43.71887" lon="7.03035">
        <ele>844.20001220703</ele>
        <time>2023-07-30T08:58:36.000Z</time>
      </trkpt>
      <trkpt lat="43.71892" lon="7.03046">
        <ele>844</ele>
        <time>2023-07-30T08:58:37.000Z</time>
      </trkpt>
      <trkpt lat="43.71898" lon="7.03056">
        <ele>843.79998779297</ele>
        <time>2023-07-30T08:58:38.000Z</time>
      </trkpt>
      <trkpt lat="43.71903" lon="7.03067">
        <ele>842.79998779297</ele>
        <time>2023-07-30T08:58:39.000Z</time>
      </trkpt>
      <trkpt lat="43.71906" lon="7.03079">
        <ele>842</ele>
        <time>2023-07-30T08:58:40.000Z</time>
      </trkpt>
      <trkpt lat="43.71909" lon="7.03092">
        <ele>841.20001220703</ele>
        <time>2023-07-30T08:58:41.000Z</time>
      </trkpt>
      <trkpt lat="43.71913" lon="7.03104">
        <ele>840.79998779297</ele>
        <time>2023-07-30T08:58:42.000Z</time>
      </trkpt>
      <trkpt lat="43.71915" lon="7.03117">
        <ele>840.40002441406</ele>
        <time>2023-07-30T08:58:43.000Z</time>
      </trkpt>
      <trkpt lat="43.71917" lon="7.03128">
        <ele>840.20001220703</ele>
        <time>2023-07-30T08:58:44.000Z</time>
      </trkpt>
      <trkpt lat="43.71918" lon="7.0314">
        <ele>839.59997558594</ele>
        <time>2023-07-30T08:58:45.000Z</time>
      </trkpt>
      <trkpt lat="43.71919" lon="7.0315">
        <ele>839.59997558594</ele>
        <time>2023-07-30T08:58:46.000Z</time>
      </trkpt>
      <trkpt lat="43.7192" lon="7.0316">
        <ele>839.59997558594</ele>
        <time>2023-07-30T08:58:47.000Z</time>
      </trkpt>
      <trkpt lat="43.7192" lon="7.03169">
        <ele>839.59997558594</ele>
        <time>2023-07-30T08:58:48.000Z</time>
      </trkpt>
      <trkpt lat="43.71919" lon="7.03178">
        <ele>839.40002441406</ele>
        <time>2023-07-30T08:58:49.000Z</time>
      </trkpt>
      <trkpt lat="43.71919" lon="7.03187">
        <ele>839</ele>
        <time>2023-07-30T08:58:50.000Z</time>
      </trkpt>
      <trkpt lat="43.71919" lon="7.03196">
        <ele>839</ele>
        <time>2023-07-30T08:58:51.000Z</time>
      </trkpt>
      <trkpt lat="43.7192" lon="7.03204">
        <ele>839</ele>
        <time>2023-07-30T08:58:52.000Z</time>
      </trkpt>
      <trkpt lat="43.71921" lon="7.03212">
        <ele>839</ele>
        <time>2023-07-30T08:58:53.000Z</time>
      </trkpt>
      <trkpt lat="43.71922" lon="7.03219">
        <ele>838.79998779297</ele>
        <time>2023-07-30T08:58:54.000Z</time>
      </trkpt>
      <trkpt lat="43.71924" lon="7.03226">
        <ele>838.79998779297</ele>
        <time>2023-07-30T08:58:55.000Z</time>
      </trkpt>
      <trkpt lat="43.71926" lon="7.03231">
        <ele>838.79998779297</ele>
        <time>2023-07-30T08:58:56.000Z</time>
      </trkpt>
      <trkpt lat="43.71928" lon="7.03236">
        <ele>838.79998779297</ele>
        <time>2023-07-30T08:58:57.000Z</time>
      </trkpt>
      <trkpt lat="43.71931" lon="7.0324">
        <ele>838.79998779297</ele>
        <time>2023-07-30T08:58:58.000Z</time>
      </trkpt>
      <trkpt lat="43.71933" lon="7.03243">
        <ele>838.79998779297</ele>
        <time>2023-07-30T08:58:59.000Z</time>
      </trkpt>
      <trkpt lat="43.71936" lon="7.03246">
        <ele>839</ele>
        <time>2023-07-30T08:59:00.000Z</time>
      </trkpt>
      <trkpt lat="43.71939" lon="7.03249">
        <ele>839.40002441406</ele>
        <time>2023-07-30T08:59:01.000Z</time>
      </trkpt>
      <trkpt lat="43.71941" lon="7.03252">
        <ele>840.20001220703</ele>
        <time>2023-07-30T08:59:02.000Z</time>
      </trkpt>
      <trkpt lat="43.71945" lon="7.03254">
        <ele>840.40002441406</ele>
        <time>2023-07-30T08:59:03.000Z</time>
      </trkpt>
      <trkpt lat="43.71948" lon="7.03257">
        <ele>840.59997558594</ele>
        <time>2023-07-30T08:59:04.000Z</time>
      </trkpt>
      <trkpt lat="43.7195" lon="7.0326">
        <ele>840.79998779297</ele>
        <time>2023-07-30T08:59:05.000Z</time>
      </trkpt>
      <trkpt lat="43.71953" lon="7.03263">
        <ele>841</ele>
        <time>2023-07-30T08:59:06.000Z</time>
      </trkpt>
      <trkpt lat="43.71955" lon="7.03266">
        <ele>841.20001220703</ele>
        <time>2023-07-30T08:59:07.000Z</time>
      </trkpt>
      <trkpt lat="43.71958" lon="7.03269">
        <ele>841.20001220703</ele>
        <time>2023-07-30T08:59:08.000Z</time>
      </trkpt>
      <trkpt lat="43.7196" lon="7.03272">
        <ele>841.40002441406</ele>
        <time>2023-07-30T08:59:09.000Z</time>
      </trkpt>
      <trkpt lat="43.71962" lon="7.03275">
        <ele>841.59997558594</ele>
        <time>2023-07-30T08:59:10.000Z</time>
      </trkpt>
      <trkpt lat="43.71964" lon="7.03279">
        <ele>841.79998779297</ele>
        <time>2023-07-30T08:59:11.000Z</time>
      </trkpt>
      <trkpt lat="43.71966" lon="7.03281">
        <ele>841.79998779297</ele>
        <time>2023-07-30T08:59:12.000Z</time>
      </trkpt>
      <trkpt lat="43.71968" lon="7.03285">
        <ele>842</ele>
        <time>2023-07-30T08:59:13.000Z</time>
      </trkpt>
      <trkpt lat="43.7197" lon="7.03288">
        <ele>842</ele>
        <time>2023-07-30T08:59:14.000Z</time>
      </trkpt>
      <trkpt lat="43.71973" lon="7.03292">
        <ele>842</ele>
        <time>2023-07-30T08:59:15.000Z</time>
      </trkpt>
      <trkpt lat="43.71976" lon="7.03296">
        <ele>842</ele>
        <time>2023-07-30T08:59:16.000Z</time>
      </trkpt>
      <trkpt lat="43.71978" lon="7.03302">
        <ele>842</ele>
        <time>2023-07-30T08:59:17.000Z</time>
      </trkpt>
      <trkpt lat="43.71981" lon="7.03308">
        <ele>842</ele>
        <time>2023-07-30T08:59:18.000Z</time>
      </trkpt>
      <trkpt lat="43.71984" lon="7.03316">
        <ele>841.59997558594</ele>
        <time>2023-07-30T08:59:19.000Z</time>
      </trkpt>
      <trkpt lat="43.71988" lon="7.03324">
        <ele>841.20001220703</ele>
        <time>2023-07-30T08:59:20.000Z</time>
      </trkpt>
      <trkpt lat="43.71992" lon="7.03333">
        <ele>841</ele>
        <time>2023-07-30T08:59:21.000Z</time>
      </trkpt>
      <trkpt lat="43.71996" lon="7.03344">
        <ele>840</ele>
        <time>2023-07-30T08:59:22.000Z</time>
      </trkpt>
      <trkpt lat="43.72001" lon="7.03354">
        <ele>839.40002441406</ele>
        <time>2023-07-30T08:59:23.000Z</time>
      </trkpt>
      <trkpt lat="43.72005" lon="7.03363">
        <ele>838.79998779297</ele>
        <time>2023-07-30T08:59:24.000Z</time>
      </trkpt>
      <trkpt lat="43.7201" lon="7.03372">
        <ele>837.40002441406</ele>
        <time>2023-07-30T08:59:25.000Z</time>
      </trkpt>
      <trkpt lat="43.72014" lon="7.0338">
        <ele>837</ele>
        <time>2023-07-30T08:59:26.000Z</time>
      </trkpt>
      <trkpt lat="43.72018" lon="7.03388">
        <ele>836</ele>
        <time>2023-07-30T08:59:27.000Z</time>
      </trkpt>
      <trkpt lat="43.72023" lon="7.03396">
        <ele>834.40002441406</ele>
        <time>2023-07-30T08:59:28.000Z</time>
      </trkpt>
      <trkpt lat="43.72026" lon="7.03405">
        <ele>833.79998779297</ele>
        <time>2023-07-30T08:59:29.000Z</time>
      </trkpt>
      <trkpt lat="43.7203" lon="7.03412">
        <ele>832.79998779297</ele>
        <time>2023-07-30T08:59:30.000Z</time>
      </trkpt>
      <trkpt lat="43.72033" lon="7.03421">
        <ele>832.59997558594</ele>
        <time>2023-07-30T08:59:31.000Z</time>
      </trkpt>
      <trkpt lat="43.72035" lon="7.03429">
        <ele>831.79998779297</ele>
        <time>2023-07-30T08:59:32.000Z</time>
      </trkpt>
      <trkpt lat="43.72036" lon="7.03437">
        <ele>831.79998779297</ele>
        <time>2023-07-30T08:59:33.000Z</time>
      </trkpt>
      <trkpt lat="43.72037" lon="7.03447">
        <ele>831.59997558594</ele>
        <time>2023-07-30T08:59:34.000Z</time>
      </trkpt>
      <trkpt lat="43.72038" lon="7.03458">
        <ele>831</ele>
        <time>2023-07-30T08:59:35.000Z</time>
      </trkpt>
      <trkpt lat="43.72038" lon="7.03468">
        <ele>829.79998779297</ele>
        <time>2023-07-30T08:59:36.000Z</time>
      </trkpt>
      <trkpt lat="43.72039" lon="7.03478">
        <ele>829.20001220703</ele>
        <time>2023-07-30T08:59:37.000Z</time>
      </trkpt>
      <trkpt lat="43.72041" lon="7.03486">
        <ele>829.20001220703</ele>
        <time>2023-07-30T08:59:38.000Z</time>
      </trkpt>
      <trkpt lat="43.72044" lon="7.03494">
        <ele>828.79998779297</ele>
        <time>2023-07-30T08:59:39.000Z</time>
      </trkpt>
      <trkpt lat="43.72047" lon="7.03502">
        <ele>828.79998779297</ele>
        <time>2023-07-30T08:59:40.000Z</time>
      </trkpt>
      <trkpt lat="43.72051" lon="7.03508">
        <ele>828</ele>
        <time>2023-07-30T08:59:41.000Z</time>
      </trkpt>
      <trkpt lat="43.72055" lon="7.03515">
        <ele>828</ele>
        <time>2023-07-30T08:59:42.000Z</time>
      </trkpt>
      <trkpt lat="43.72059" lon="7.03519">
        <ele>827.20001220703</ele>
        <time>2023-07-30T08:59:43.000Z</time>
      </trkpt>
      <trkpt lat="43.72061" lon="7.03523">
        <ele>826.79998779297</ele>
        <time>2023-07-30T08:59:44.000Z</time>
      </trkpt>
      <trkpt lat="43.72063" lon="7.03525">
        <ele>826.40002441406</ele>
        <time>2023-07-30T08:59:45.000Z</time>
      </trkpt>
      <trkpt lat="43.72063" lon="7.03526">
        <ele>826.20001220703</ele>
        <time>2023-07-30T08:59:46.000Z</time>
      </trkpt>
      <trkpt lat="43.72063" lon="7.03526">
        <ele>826</ele>
        <time>2023-07-30T08:59:47.000Z</time>
      </trkpt>
      <trkpt lat="43.72063" lon="7.03526">
        <ele>825.79998779297</ele>
        <time>2023-07-30T08:59:48.000Z</time>
      </trkpt>
      <trkpt lat="43.72063" lon="7.03526">
        <ele>825.59997558594</ele>
        <time>2023-07-30T08:59:49.000Z</time>
      </trkpt>
      <trkpt lat="43.72063" lon="7.03526">
        <ele>825.59997558594</ele>
        <time>2023-07-30T08:59:50.000Z</time>
      </trkpt>
      <trkpt lat="43.72063" lon="7.03526">
        <ele>825.59997558594</ele>
        <time>2023-07-30T08:59:51.000Z</time>
      </trkpt>
      <trkpt lat="43.72063" lon="7.03526">
        <ele>825.59997558594</ele>
        <time>2023-07-30T08:59:52.000Z</time>
      </trkpt>
      <trkpt lat="43.72063" lon="7.03526">
        <ele>825.40002441406</ele>
        <time>2023-07-30T08:59:53.000Z</time>
      </trkpt>
      <trkpt lat="43.72063" lon="7.03526">
        <ele>825.40002441406</ele>
        <time>2023-07-30T08:59:54.000Z</time>
      </trkpt>
      <trkpt lat="43.72063" lon="7.03526">
        <ele>825.40002441406</ele>
        <time>2023-07-30T08:59:55.000Z</time>
      </trkpt>
      <trkpt lat="43.72063" lon="7.03526">
        <ele>825.40002441406</ele>
        <time>2023-07-30T08:59:56.000Z</time>
      </trkpt>
      <trkpt lat="43.72063" lon="7.03526">
        <ele>825</ele>
        <time>2023-07-30T08:59:57.000Z</time>
      </trkpt>
      <trkpt lat="43.72063" lon="7.03526">
        <ele>825</ele>
        <time>2023-07-30T08:59:58.000Z</time>
      </trkpt>
      <trkpt lat="43.72063" lon="7.03526">
        <ele>825</ele>
        <time>2023-07-30T08:59:59.000Z</time>
      </trkpt>
      <trkpt lat="43.72063" lon="7.03526">
        <ele>825</ele>
        <time>2023-07-30T09:00:00.000Z</time>
      </trkpt>
      <trkpt lat="43.72063" lon="7.03526">
        <ele>825.20001220703</ele>
        <time>2023-07-30T09:00:01.000Z</time>
      </trkpt>
      <trkpt lat="43.72063" lon="7.03526">
        <ele>825</ele>
        <time>2023-07-30T09:00:02.000Z</time>
      </trkpt>
      <trkpt lat="43.72063" lon="7.03526">
        <ele>825</ele>
        <time>2023-07-30T09:00:03.000Z</time>
      </trkpt>
      <trkpt lat="43.72063" lon="7.03526">
        <ele>825</ele>
        <time>2023-07-30T09:00:04.000Z</time>
      </trkpt>
      <trkpt lat="43.72063" lon="7.03526">
        <ele>825</ele>
        <time>2023-07-30T09:00:05.000Z</time>
      </trkpt>
      <trkpt lat="43.72063" lon="7.03526">
        <ele>825</ele>
        <time>2023-07-30T09:00:06.000Z</time>
      </trkpt>
      <trkpt lat="43.72063" lon="7.03526">
        <ele>825</ele>
        <time>2023-07-30T09:00:07.000Z</time>
      </trkpt>
      <trkpt lat="43.72063" lon="7.03526">
        <ele>825</ele>
        <time>2023-07-30T09:00:08.000Z</time>
      </trkpt>
      <trkpt lat="43.72063" lon="7.03526">
        <ele>825</ele>
        <time>2023-07-30T09:00:09.000Z</time>
      </trkpt>
      <trkpt lat="43.72063" lon="7.03526">
        <ele>825</ele>
        <time>2023-07-30T09:00:10.000Z</time>
      </trkpt>
      <trkpt lat="43.72063" lon="7.03526">
        <ele>825</ele>
        <time>2023-07-30T09:00:11.000Z</time>
      </trkpt>
      <trkpt lat="43.72063" lon="7.03526">
        <ele>825</ele>
        <time>2023-07-30T09:00:12.000Z</time>
      </trkpt>
      <trkpt lat="43.72063" lon="7.03526">
        <ele>824.79998779297</ele>
        <time>2023-07-30T09:00:13.000Z</time>
      </trkpt>
      <trkpt lat="43.72063" lon="7.03526">
        <ele>824.79998779297</ele>
        <time>2023-07-30T09:00:14.000Z</time>
      </trkpt>
      <trkpt lat="43.72063" lon="7.03526">
        <ele>824.79998779297</ele>
        <time>2023-07-30T09:00:15.000Z</time>
      </trkpt>
      <trkpt lat="43.72063" lon="7.03526">
        <ele>824.79998779297</ele>
        <time>2023-07-30T09:00:16.000Z</time>
      </trkpt>
      <trkpt lat="43.72063" lon="7.03526">
        <ele>824.79998779297</ele>
        <time>2023-07-30T09:00:17.000Z</time>
      </trkpt>
      <trkpt lat="43.72063" lon="7.03526">
        <ele>824.40002441406</ele>
        <time>2023-07-30T09:00:18.000Z</time>
      </trkpt>
      <trkpt lat="43.72063" lon="7.03526">
        <ele>824.59997558594</ele>
        <time>2023-07-30T09:00:19.000Z</time>
      </trkpt>
      <trkpt lat="43.72063" lon="7.03526">
        <ele>824.59997558594</ele>
        <time>2023-07-30T09:00:20.000Z</time>
      </trkpt>
      <trkpt lat="43.72063" lon="7.03526">
        <ele>824.59997558594</ele>
        <time>2023-07-30T09:00:21.000Z</time>
      </trkpt>
      <trkpt lat="43.72063" lon="7.03526">
        <ele>824.40002441406</ele>
        <time>2023-07-30T09:00:22.000Z</time>
      </trkpt>
      <trkpt lat="43.72063" lon="7.03526">
        <ele>824.40002441406</ele>
        <time>2023-07-30T09:00:23.000Z</time>
      </trkpt>
      <trkpt lat="43.72063" lon="7.03526">
        <ele>824.59997558594</ele>
        <time>2023-07-30T09:00:24.000Z</time>
      </trkpt>
      <trkpt lat="43.72063" lon="7.03526">
        <ele>824.59997558594</ele>
        <time>2023-07-30T09:00:25.000Z</time>
      </trkpt>
      <trkpt lat="43.72063" lon="7.03526">
        <ele>824.59997558594</ele>
        <time>2023-07-30T09:00:26.000Z</time>
      </trkpt>
      <trkpt lat="43.72063" lon="7.03526">
        <ele>824.59997558594</ele>
        <time>2023-07-30T09:00:27.000Z</time>
      </trkpt>
      <trkpt lat="43.72063" lon="7.03526">
        <ele>824.40002441406</ele>
        <time>2023-07-30T09:00:28.000Z</time>
      </trkpt>
      <trkpt lat="43.72063" lon="7.03526">
        <ele>824.40002441406</ele>
        <time>2023-07-30T09:00:29.000Z</time>
      </trkpt>
      <trkpt lat="43.72063" lon="7.03526">
        <ele>824.59997558594</ele>
        <time>2023-07-30T09:00:30.000Z</time>
      </trkpt>
      <trkpt lat="43.72063" lon="7.03526">
        <ele>824.40002441406</ele>
        <time>2023-07-30T09:00:31.000Z</time>
      </trkpt>
      <trkpt lat="43.72063" lon="7.03526">
        <ele>824.40002441406</ele>
        <time>2023-07-30T09:00:32.000Z</time>
      </trkpt>
      <trkpt lat="43.72063" lon="7.03526">
        <ele>824.40002441406</ele>
        <time>2023-07-30T09:00:33.000Z</time>
      </trkpt>
      <trkpt lat="43.72063" lon="7.03526">
        <ele>824.40002441406</ele>
        <time>2023-07-30T09:00:34.000Z</time>
      </trkpt>
      <trkpt lat="43.72063" lon="7.03526">
        <ele>824.40002441406</ele>
        <time>2023-07-30T09:00:35.000Z</time>
      </trkpt>
      <trkpt lat="43.72063" lon="7.03526">
        <ele>824.59997558594</ele>
        <time>2023-07-30T09:00:36.000Z</time>
      </trkpt>
      <trkpt lat="43.72063" lon="7.03526">
        <ele>824.59997558594</ele>
        <time>2023-07-30T09:00:37.000Z</time>
      </trkpt>
      <trkpt lat="43.72063" lon="7.03526">
        <ele>824.59997558594</ele>
        <time>2023-07-30T09:00:38.000Z</time>
      </trkpt>
      <trkpt lat="43.72063" lon="7.03526">
        <ele>824.59997558594</ele>
        <time>2023-07-30T09:00:39.000Z</time>
      </trkpt>
      <trkpt lat="43.72063" lon="7.03526">
        <ele>824.59997558594</ele>
        <time>2023-07-30T09:00:40.000Z</time>
      </trkpt>
      <trkpt lat="43.72063" lon="7.03526">
        <ele>824.79998779297</ele>
        <time>2023-07-30T09:00:41.000Z</time>
      </trkpt>
      <trkpt lat="43.72063" lon="7.03526">
        <ele>824.79998779297</ele>
        <time>2023-07-30T09:00:42.000Z</time>
      </trkpt>
      <trkpt lat="43.72063" lon="7.03526">
        <ele>824.20001220703</ele>
        <time>2023-07-30T09:00:43.000Z</time>
      </trkpt>
      <trkpt lat="43.72063" lon="7.03526">
        <ele>824</ele>
        <time>2023-07-30T09:00:44.000Z</time>
      </trkpt>
      <trkpt lat="43.72063" lon="7.03526">
        <ele>824.20001220703</ele>
        <time>2023-07-30T09:00:45.000Z</time>
      </trkpt>
      <trkpt lat="43.72063" lon="7.03526">
        <ele>824</ele>
        <time>2023-07-30T09:00:46.000Z</time>
      </trkpt>
      <trkpt lat="43.72063" lon="7.03526">
        <ele>824</ele>
        <time>2023-07-30T09:00:47.000Z</time>
      </trkpt>
      <trkpt lat="43.72063" lon="7.03526">
        <ele>824</ele>
        <time>2023-07-30T09:00:48.000Z</time>
      </trkpt>
      <trkpt lat="43.72063" lon="7.03526">
        <ele>824.20001220703</ele>
        <time>2023-07-30T09:00:49.000Z</time>
      </trkpt>
      <trkpt lat="43.72063" lon="7.03526">
        <ele>824.20001220703</ele>
        <time>2023-07-30T09:00:50.000Z</time>
      </trkpt>
      <trkpt lat="43.72063" lon="7.03526">
        <ele>824.20001220703</ele>
        <time>2023-07-30T09:00:51.000Z</time>
      </trkpt>
      <trkpt lat="43.72063" lon="7.03526">
        <ele>824.79998779297</ele>
        <time>2023-07-30T09:00:52.000Z</time>
      </trkpt>
      <trkpt lat="43.72063" lon="7.03526">
        <ele>824.79998779297</ele>
        <time>2023-07-30T09:00:53.000Z</time>
      </trkpt>
      <trkpt lat="43.72063" lon="7.03526">
        <ele>824.20001220703</ele>
        <time>2023-07-30T09:00:54.000Z</time>
      </trkpt>
      <trkpt lat="43.72063" lon="7.03526">
        <ele>824.20001220703</ele>
        <time>2023-07-30T09:00:55.000Z</time>
      </trkpt>
      <trkpt lat="43.72063" lon="7.03526">
        <ele>824.20001220703</ele>
        <time>2023-07-30T09:00:56.000Z</time>
      </trkpt>
      <trkpt lat="43.72063" lon="7.03526">
        <ele>824.79998779297</ele>
        <time>2023-07-30T09:00:57.000Z</time>
      </trkpt>
      <trkpt lat="43.72063" lon="7.03526">
        <ele>824.79998779297</ele>
        <time>2023-07-30T09:00:58.000Z</time>
      </trkpt>
      <trkpt lat="43.72063" lon="7.03526">
        <ele>824</ele>
        <time>2023-07-30T09:00:59.000Z</time>
      </trkpt>
      <trkpt lat="43.72063" lon="7.03526">
        <ele>824</ele>
        <time>2023-07-30T09:01:00.000Z</time>
      </trkpt>
      <trkpt lat="43.72063" lon="7.03526">
        <ele>824</ele>
        <time>2023-07-30T09:01:01.000Z</time>
      </trkpt>
      <trkpt lat="43.72063" lon="7.03526">
        <ele>824</ele>
        <time>2023-07-30T09:01:02.000Z</time>
      </trkpt>
      <trkpt lat="43.72063" lon="7.03526">
        <ele>824</ele>
        <time>2023-07-30T09:01:03.000Z</time>
      </trkpt>
      <trkpt lat="43.72063" lon="7.03526">
        <ele>824</ele>
        <time>2023-07-30T09:01:04.000Z</time>
      </trkpt>
      <trkpt lat="43.72063" lon="7.03526">
        <ele>824</ele>
        <time>2023-07-30T09:01:05.000Z</time>
      </trkpt>
      <trkpt lat="43.72063" lon="7.03526">
        <ele>824</ele>
        <time>2023-07-30T09:01:06.000Z</time>
      </trkpt>
      <trkpt lat="43.72063" lon="7.03526">
        <ele>824</ele>
        <time>2023-07-30T09:01:07.000Z</time>
      </trkpt>
      <trkpt lat="43.72063" lon="7.03526">
        <ele>824</ele>
        <time>2023-07-30T09:01:08.000Z</time>
      </trkpt>
      <trkpt lat="43.72063" lon="7.03526">
        <ele>824</ele>
        <time>2023-07-30T09:01:09.000Z</time>
      </trkpt>
      <trkpt lat="43.72063" lon="7.03526">
        <ele>824</ele>
        <time>2023-07-30T09:01:10.000Z</time>
      </trkpt>
      <trkpt lat="43.72063" lon="7.03526">
        <ele>824</ele>
        <time>2023-07-30T09:01:11.000Z</time>
      </trkpt>
      <trkpt lat="43.72063" lon="7.03526">
        <ele>824.20001220703</ele>
        <time>2023-07-30T09:01:12.000Z</time>
      </trkpt>
      <trkpt lat="43.72063" lon="7.03526">
        <ele>824.20001220703</ele>
        <time>2023-07-30T09:01:13.000Z</time>
      </trkpt>
      <trkpt lat="43.72063" lon="7.03526">
        <ele>824.20001220703</ele>
        <time>2023-07-30T09:01:14.000Z</time>
      </trkpt>
      <trkpt lat="43.72063" lon="7.03526">
        <ele>824.40002441406</ele>
        <time>2023-07-30T09:01:15.000Z</time>
      </trkpt>
      <trkpt lat="43.72063" lon="7.03526">
        <ele>824.59997558594</ele>
        <time>2023-07-30T09:01:16.000Z</time>
      </trkpt>
      <trkpt lat="43.72063" lon="7.03526">
        <ele>824.59997558594</ele>
        <time>2023-07-30T09:01:17.000Z</time>
      </trkpt>
      <trkpt lat="43.72063" lon="7.03526">
        <ele>824.20001220703</ele>
        <time>2023-07-30T09:01:18.000Z</time>
      </trkpt>
      <trkpt lat="43.72063" lon="7.03526">
        <ele>824.59997558594</ele>
        <time>2023-07-30T09:01:19.000Z</time>
      </trkpt>
      <trkpt lat="43.72063" lon="7.03526">
        <ele>824.59997558594</ele>
        <time>2023-07-30T09:01:20.000Z</time>
      </trkpt>
      <trkpt lat="43.72063" lon="7.03526">
        <ele>824.20001220703</ele>
        <time>2023-07-30T09:01:21.000Z</time>
      </trkpt>
      <trkpt lat="43.72063" lon="7.03526">
        <ele>824</ele>
        <time>2023-07-30T09:01:22.000Z</time>
      </trkpt>
      <trkpt lat="43.72063" lon="7.03526">
        <ele>824</ele>
        <time>2023-07-30T09:01:23.000Z</time>
      </trkpt>
      <trkpt lat="43.72063" lon="7.03526">
        <ele>824</ele>
        <time>2023-07-30T09:01:24.000Z</time>
      </trkpt>
      <trkpt lat="43.72063" lon="7.03526">
        <ele>824.20001220703</ele>
        <time>2023-07-30T09:01:25.000Z</time>
      </trkpt>
      <trkpt lat="43.72063" lon="7.03526">
        <ele>824.20001220703</ele>
        <time>2023-07-30T09:01:26.000Z</time>
      </trkpt>
      <trkpt lat="43.72063" lon="7.03526">
        <ele>824.20001220703</ele>
        <time>2023-07-30T09:01:27.000Z</time>
      </trkpt>
      <trkpt lat="43.72063" lon="7.03526">
        <ele>824.20001220703</ele>
        <time>2023-07-30T09:01:28.000Z</time>
      </trkpt>
      <trkpt lat="43.72063" lon="7.03526">
        <ele>824.20001220703</ele>
        <time>2023-07-30T09:01:29.000Z</time>
      </trkpt>
      <trkpt lat="43.72063" lon="7.03526">
        <ele>824.20001220703</ele>
        <time>2023-07-30T09:01:30.000Z</time>
      </trkpt>
      <trkpt lat="43.72063" lon="7.03526">
        <ele>824.20001220703</ele>
        <time>2023-07-30T09:01:31.000Z</time>
      </trkpt>
      <trkpt lat="43.72063" lon="7.03526">
        <ele>824.20001220703</ele>
        <time>2023-07-30T09:01:32.000Z</time>
      </trkpt>
      <trkpt lat="43.72063" lon="7.03526">
        <ele>824</ele>
        <time>2023-07-30T09:01:33.000Z</time>
      </trkpt>
      <trkpt lat="43.72063" lon="7.03526">
        <ele>824</ele>
        <time>2023-07-30T09:01:34.000Z</time>
      </trkpt>
      <trkpt lat="43.72063" lon="7.03526">
        <ele>823.79998779297</ele>
        <time>2023-07-30T09:01:35.000Z</time>
      </trkpt>
      <trkpt lat="43.72063" lon="7.03526">
        <ele>823.79998779297</ele>
        <time>2023-07-30T09:01:36.000Z</time>
      </trkpt>
      <trkpt lat="43.72063" lon="7.03526">
        <ele>824</ele>
        <time>2023-07-30T09:01:37.000Z</time>
      </trkpt>
      <trkpt lat="43.72063" lon="7.03526">
        <ele>824</ele>
        <time>2023-07-30T09:01:38.000Z</time>
      </trkpt>
      <trkpt lat="43.72063" lon="7.03526">
        <ele>824</ele>
        <time>2023-07-30T09:01:39.000Z</time>
      </trkpt>
      <trkpt lat="43.72063" lon="7.03526">
        <ele>824.20001220703</ele>
        <time>2023-07-30T09:01:40.000Z</time>
      </trkpt>
      <trkpt lat="43.72063" lon="7.03526">
        <ele>824.20001220703</ele>
        <time>2023-07-30T09:01:41.000Z</time>
      </trkpt>
      <trkpt lat="43.72063" lon="7.03526">
        <ele>824.40002441406</ele>
        <time>2023-07-30T09:01:42.000Z</time>
      </trkpt>
      <trkpt lat="43.72063" lon="7.03526">
        <ele>824.40002441406</ele>
        <time>2023-07-30T09:01:43.000Z</time>
      </trkpt>
      <trkpt lat="43.72063" lon="7.03526">
        <ele>824.20001220703</ele>
        <time>2023-07-30T09:01:44.000Z</time>
      </trkpt>
      <trkpt lat="43.72063" lon="7.03526">
        <ele>824.40002441406</ele>
        <time>2023-07-30T09:01:45.000Z</time>
      </trkpt>
      <trkpt lat="43.72063" lon="7.03526">
        <ele>824.59997558594</ele>
        <time>2023-07-30T09:01:46.000Z</time>
      </trkpt>
      <trkpt lat="43.72063" lon="7.03526">
        <ele>824.59997558594</ele>
        <time>2023-07-30T09:01:47.000Z</time>
      </trkpt>
      <trkpt lat="43.72063" lon="7.03526">
        <ele>824.59997558594</ele>
        <time>2023-07-30T09:01:48.000Z</time>
      </trkpt>
      <trkpt lat="43.72063" lon="7.03526">
        <ele>824.79998779297</ele>
        <time>2023-07-30T09:01:49.000Z</time>
      </trkpt>
      <trkpt lat="43.72063" lon="7.03526">
        <ele>824.79998779297</ele>
        <time>2023-07-30T09:01:50.000Z</time>
      </trkpt>
      <trkpt lat="43.72063" lon="7.03526">
        <ele>825</ele>
        <time>2023-07-30T09:01:51.000Z</time>
      </trkpt>
      <trkpt lat="43.72063" lon="7.03526">
        <ele>824.40002441406</ele>
        <time>2023-07-30T09:01:52.000Z</time>
      </trkpt>
      <trkpt lat="43.72063" lon="7.03526">
        <ele>824.40002441406</ele>
        <time>2023-07-30T09:01:53.000Z</time>
      </trkpt>
      <trkpt lat="43.72063" lon="7.03526">
        <ele>824.40002441406</ele>
        <time>2023-07-30T09:01:54.000Z</time>
      </trkpt>
      <trkpt lat="43.72063" lon="7.03526">
        <ele>824.40002441406</ele>
        <time>2023-07-30T09:01:55.000Z</time>
      </trkpt>
      <trkpt lat="43.72063" lon="7.03526">
        <ele>824.40002441406</ele>
        <time>2023-07-30T09:01:56.000Z</time>
      </trkpt>
      <trkpt lat="43.72063" lon="7.03526">
        <ele>824.40002441406</ele>
        <time>2023-07-30T09:01:57.000Z</time>
      </trkpt>
      <trkpt lat="43.72063" lon="7.03526">
        <ele>824.40002441406</ele>
        <time>2023-07-30T09:01:58.000Z</time>
      </trkpt>
      <trkpt lat="43.72063" lon="7.03526">
        <ele>824.40002441406</ele>
        <time>2023-07-30T09:01:59.000Z</time>
      </trkpt>
      <trkpt lat="43.72063" lon="7.03526">
        <ele>824.40002441406</ele>
        <time>2023-07-30T09:02:00.000Z</time>
      </trkpt>
      <trkpt lat="43.72063" lon="7.03526">
        <ele>824.40002441406</ele>
        <time>2023-07-30T09:02:01.000Z</time>
      </trkpt>
      <trkpt lat="43.72063" lon="7.03526">
        <ele>824.40002441406</ele>
        <time>2023-07-30T09:02:02.000Z</time>
      </trkpt>
      <trkpt lat="43.72063" lon="7.03526">
        <ele>824.40002441406</ele>
        <time>2023-07-30T09:02:03.000Z</time>
      </trkpt>
      <trkpt lat="43.72063" lon="7.03526">
        <ele>824.40002441406</ele>
        <time>2023-07-30T09:02:04.000Z</time>
      </trkpt>
      <trkpt lat="43.72063" lon="7.03526">
        <ele>824.40002441406</ele>
        <time>2023-07-30T09:02:05.000Z</time>
      </trkpt>
      <trkpt lat="43.72063" lon="7.03526">
        <ele>824.40002441406</ele>
        <time>2023-07-30T09:02:06.000Z</time>
      </trkpt>
      <trkpt lat="43.72063" lon="7.03526">
        <ele>824.40002441406</ele>
        <time>2023-07-30T09:02:07.000Z</time>
      </trkpt>
      <trkpt lat="43.72063" lon="7.03526">
        <ele>824.40002441406</ele>
        <time>2023-07-30T09:02:08.000Z</time>
      </trkpt>
      <trkpt lat="43.72063" lon="7.03526">
        <ele>824.40002441406</ele>
        <time>2023-07-30T09:02:09.000Z</time>
      </trkpt>
      <trkpt lat="43.72063" lon="7.03526">
        <ele>824.40002441406</ele>
        <time>2023-07-30T09:02:10.000Z</time>
      </trkpt>
      <trkpt lat="43.72063" lon="7.03526">
        <ele>824.40002441406</ele>
        <time>2023-07-30T09:02:11.000Z</time>
      </trkpt>
      <trkpt lat="43.72063" lon="7.03526">
        <ele>824.40002441406</ele>
        <time>2023-07-30T09:02:12.000Z</time>
      </trkpt>
      <trkpt lat="43.72063" lon="7.03526">
        <ele>824.40002441406</ele>
        <time>2023-07-30T09:02:13.000Z</time>
      </trkpt>
      <trkpt lat="43.72063" lon="7.03526">
        <ele>824.40002441406</ele>
        <time>2023-07-30T09:02:14.000Z</time>
      </trkpt>
      <trkpt lat="43.72064" lon="7.03526">
        <ele>824.40002441406</ele>
        <time>2023-07-30T09:02:15.000Z</time>
      </trkpt>
      <trkpt lat="43.72066" lon="7.03527">
        <ele>824.40002441406</ele>
        <time>2023-07-30T09:02:16.000Z</time>
      </trkpt>
      <trkpt lat="43.72067" lon="7.03529">
        <ele>824.40002441406</ele>
        <time>2023-07-30T09:02:17.000Z</time>
      </trkpt>
      <trkpt lat="43.72069" lon="7.03531">
        <ele>824.40002441406</ele>
        <time>2023-07-30T09:02:18.000Z</time>
      </trkpt>
      <trkpt lat="43.72071" lon="7.03533">
        <ele>824.40002441406</ele>
        <time>2023-07-30T09:02:19.000Z</time>
      </trkpt>
      <trkpt lat="43.72073" lon="7.03535">
        <ele>824.40002441406</ele>
        <time>2023-07-30T09:02:20.000Z</time>
      </trkpt>
      <trkpt lat="43.72075" lon="7.03538">
        <ele>824.40002441406</ele>
        <time>2023-07-30T09:02:21.000Z</time>
      </trkpt>
      <trkpt lat="43.72077" lon="7.03541">
        <ele>824.40002441406</ele>
        <time>2023-07-30T09:02:22.000Z</time>
      </trkpt>
      <trkpt lat="43.72079" lon="7.03543">
        <ele>824.40002441406</ele>
        <time>2023-07-30T09:02:23.000Z</time>
      </trkpt>
      <trkpt lat="43.72081" lon="7.03545">
        <ele>824.40002441406</ele>
        <time>2023-07-30T09:02:24.000Z</time>
      </trkpt>
      <trkpt lat="43.72083" lon="7.03547">
        <ele>824.40002441406</ele>
        <time>2023-07-30T09:02:25.000Z</time>
      </trkpt>
      <trkpt lat="43.72085" lon="7.0355">
        <ele>824.40002441406</ele>
        <time>2023-07-30T09:02:26.000Z</time>
      </trkpt>
      <trkpt lat="43.72086" lon="7.03552">
        <ele>824.40002441406</ele>
        <time>2023-07-30T09:02:27.000Z</time>
      </trkpt>
      <trkpt lat="43.72087" lon="7.03553">
        <ele>824.40002441406</ele>
        <time>2023-07-30T09:02:28.000Z</time>
      </trkpt>
      <trkpt lat="43.72088" lon="7.03554">
        <ele>824.40002441406</ele>
        <time>2023-07-30T09:02:29.000Z</time>
      </trkpt>
      <trkpt lat="43.72089" lon="7.03554">
        <ele>824.40002441406</ele>
        <time>2023-07-30T09:02:30.000Z</time>
      </trkpt>
      <trkpt lat="43.72089" lon="7.03554">
        <ele>824.40002441406</ele>
        <time>2023-07-30T09:02:31.000Z</time>
      </trkpt>
      <trkpt lat="43.72089" lon="7.03554">
        <ele>824.40002441406</ele>
        <time>2023-07-30T09:02:32.000Z</time>
      </trkpt>
      <trkpt lat="43.72089" lon="7.03554">
        <ele>824.40002441406</ele>
        <time>2023-07-30T09:02:33.000Z</time>
      </trkpt>
      <trkpt lat="43.72089" lon="7.03554">
        <ele>824.40002441406</ele>
        <time>2023-07-30T09:02:34.000Z</time>
      </trkpt>
      <trkpt lat="43.72089" lon="7.03554">
        <ele>824.40002441406</ele>
        <time>2023-07-30T09:02:35.000Z</time>
      </trkpt>
      <trkpt lat="43.72088" lon="7.03555">
        <ele>824.20001220703</ele>
        <time>2023-07-30T09:02:36.000Z</time>
      </trkpt>
      <trkpt lat="43.72088" lon="7.03555">
        <ele>824.20001220703</ele>
        <time>2023-07-30T09:02:37.000Z</time>
      </trkpt>
      <trkpt lat="43.72088" lon="7.03555">
        <ele>824.20001220703</ele>
        <time>2023-07-30T09:02:38.000Z</time>
      </trkpt>
      <trkpt lat="43.72088" lon="7.03555">
        <ele>824.20001220703</ele>
        <time>2023-07-30T09:02:39.000Z</time>
      </trkpt>
      <trkpt lat="43.72088" lon="7.03555">
        <ele>824.20001220703</ele>
        <time>2023-07-30T09:02:40.000Z</time>
      </trkpt>
      <trkpt lat="43.72088" lon="7.03555">
        <ele>824.20001220703</ele>
        <time>2023-07-30T09:02:41.000Z</time>
      </trkpt>
      <trkpt lat="43.72088" lon="7.03555">
        <ele>824</ele>
        <time>2023-07-30T09:02:42.000Z</time>
      </trkpt>
      <trkpt lat="43.72088" lon="7.03555">
        <ele>824</ele>
        <time>2023-07-30T09:02:43.000Z</time>
      </trkpt>
      <trkpt lat="43.72088" lon="7.03555">
        <ele>824</ele>
        <time>2023-07-30T09:02:44.000Z</time>
      </trkpt>
      <trkpt lat="43.72088" lon="7.03555">
        <ele>823.79998779297</ele>
        <time>2023-07-30T09:02:45.000Z</time>
      </trkpt>
      <trkpt lat="43.72088" lon="7.03555">
        <ele>823.79998779297</ele>
        <time>2023-07-30T09:02:46.000Z</time>
      </trkpt>
      <trkpt lat="43.72088" lon="7.03555">
        <ele>823.79998779297</ele>
        <time>2023-07-30T09:02:47.000Z</time>
      </trkpt>
      <trkpt lat="43.72088" lon="7.03555">
        <ele>823.79998779297</ele>
        <time>2023-07-30T09:02:48.000Z</time>
      </trkpt>
      <trkpt lat="43.72088" lon="7.03555">
        <ele>823.79998779297</ele>
        <time>2023-07-30T09:02:49.000Z</time>
      </trkpt>
      <trkpt lat="43.72088" lon="7.03555">
        <ele>823.59997558594</ele>
        <time>2023-07-30T09:02:50.000Z</time>
      </trkpt>
      <trkpt lat="43.72088" lon="7.03555">
        <ele>823.59997558594</ele>
        <time>2023-07-30T09:02:51.000Z</time>
      </trkpt>
      <trkpt lat="43.72088" lon="7.03554">
        <ele>823.59997558594</ele>
        <time>2023-07-30T09:02:52.000Z</time>
      </trkpt>
      <trkpt lat="43.72088" lon="7.03554">
        <ele>823.59997558594</ele>
        <time>2023-07-30T09:02:53.000Z</time>
      </trkpt>
      <trkpt lat="43.72088" lon="7.03554">
        <ele>823.59997558594</ele>
        <time>2023-07-30T09:02:54.000Z</time>
      </trkpt>
      <trkpt lat="43.72088" lon="7.03554">
        <ele>823.40002441406</ele>
        <time>2023-07-30T09:02:55.000Z</time>
      </trkpt>
      <trkpt lat="43.72088" lon="7.03554">
        <ele>823.40002441406</ele>
        <time>2023-07-30T09:02:56.000Z</time>
      </trkpt>
      <trkpt lat="43.72088" lon="7.03554">
        <ele>823.40002441406</ele>
        <time>2023-07-30T09:02:57.000Z</time>
      </trkpt>
      <trkpt lat="43.72088" lon="7.03554">
        <ele>823.40002441406</ele>
        <time>2023-07-30T09:02:58.000Z</time>
      </trkpt>
      <trkpt lat="43.72088" lon="7.03554">
        <ele>823.40002441406</ele>
        <time>2023-07-30T09:02:59.000Z</time>
      </trkpt>
      <trkpt lat="43.72088" lon="7.03554">
        <ele>823.40002441406</ele>
        <time>2023-07-30T09:03:00.000Z</time>
      </trkpt>
      <trkpt lat="43.72088" lon="7.03554">
        <ele>823.40002441406</ele>
        <time>2023-07-30T09:03:01.000Z</time>
      </trkpt>
      <trkpt lat="43.72088" lon="7.03554">
        <ele>823.40002441406</ele>
        <time>2023-07-30T09:03:02.000Z</time>
      </trkpt>
      <trkpt lat="43.72088" lon="7.03554">
        <ele>823.40002441406</ele>
        <time>2023-07-30T09:03:03.000Z</time>
      </trkpt>
      <trkpt lat="43.72088" lon="7.03554">
        <ele>823.40002441406</ele>
        <time>2023-07-30T09:03:04.000Z</time>
      </trkpt>
      <trkpt lat="43.72088" lon="7.03554">
        <ele>823.40002441406</ele>
        <time>2023-07-30T09:03:05.000Z</time>
      </trkpt>
      <trkpt lat="43.72088" lon="7.03554">
        <ele>823.40002441406</ele>
        <time>2023-07-30T09:03:06.000Z</time>
      </trkpt>
      <trkpt lat="43.72088" lon="7.03554">
        <ele>823.40002441406</ele>
        <time>2023-07-30T09:03:07.000Z</time>
      </trkpt>
      <trkpt lat="43.72088" lon="7.03554">
        <ele>823.40002441406</ele>
        <time>2023-07-30T09:03:08.000Z</time>
      </trkpt>
      <trkpt lat="43.72088" lon="7.03554">
        <ele>823.40002441406</ele>
        <time>2023-07-30T09:03:09.000Z</time>
      </trkpt>
      <trkpt lat="43.72088" lon="7.03554">
        <ele>823.40002441406</ele>
        <time>2023-07-30T09:03:10.000Z</time>
      </trkpt>
      <trkpt lat="43.72088" lon="7.03554">
        <ele>823.40002441406</ele>
        <time>2023-07-30T09:03:11.000Z</time>
      </trkpt>
      <trkpt lat="43.72088" lon="7.03554">
        <ele>823.40002441406</ele>
        <time>2023-07-30T09:03:12.000Z</time>
      </trkpt>
      <trkpt lat="43.72088" lon="7.03554">
        <ele>823.20001220703</ele>
        <time>2023-07-30T09:03:13.000Z</time>
      </trkpt>
      <trkpt lat="43.72088" lon="7.03554">
        <ele>823.20001220703</ele>
        <time>2023-07-30T09:03:14.000Z</time>
      </trkpt>
      <trkpt lat="43.72088" lon="7.03554">
        <ele>823.20001220703</ele>
        <time>2023-07-30T09:03:15.000Z</time>
      </trkpt>
      <trkpt lat="43.72088" lon="7.03554">
        <ele>823.20001220703</ele>
        <time>2023-07-30T09:03:16.000Z</time>
      </trkpt>
      <trkpt lat="43.72088" lon="7.03554">
        <ele>823.20001220703</ele>
        <time>2023-07-30T09:03:17.000Z</time>
      </trkpt>
      <trkpt lat="43.72088" lon="7.03554">
        <ele>823.20001220703</ele>
        <time>2023-07-30T09:03:18.000Z</time>
      </trkpt>
      <trkpt lat="43.72088" lon="7.03554">
        <ele>823.20001220703</ele>
        <time>2023-07-30T09:03:19.000Z</time>
      </trkpt>
      <trkpt lat="43.72088" lon="7.03554">
        <ele>823.20001220703</ele>
        <time>2023-07-30T09:03:20.000Z</time>
      </trkpt>
      <trkpt lat="43.72088" lon="7.03554">
        <ele>823.20001220703</ele>
        <time>2023-07-30T09:03:21.000Z</time>
      </trkpt>
      <trkpt lat="43.72088" lon="7.03554">
        <ele>823.20001220703</ele>
        <time>2023-07-30T09:03:22.000Z</time>
      </trkpt>
      <trkpt lat="43.72088" lon="7.03554">
        <ele>823.20001220703</ele>
        <time>2023-07-30T09:03:23.000Z</time>
      </trkpt>
      <trkpt lat="43.72088" lon="7.03554">
        <ele>823.20001220703</ele>
        <time>2023-07-30T09:03:24.000Z</time>
      </trkpt>
      <trkpt lat="43.72088" lon="7.03554">
        <ele>823.20001220703</ele>
        <time>2023-07-30T09:03:25.000Z</time>
      </trkpt>
      <trkpt lat="43.72088" lon="7.03554">
        <ele>823.20001220703</ele>
        <time>2023-07-30T09:03:26.000Z</time>
      </trkpt>
      <trkpt lat="43.72088" lon="7.03554">
        <ele>823.40002441406</ele>
        <time>2023-07-30T09:03:27.000Z</time>
      </trkpt>
      <trkpt lat="43.72088" lon="7.03554">
        <ele>823.40002441406</ele>
        <time>2023-07-30T09:03:28.000Z</time>
      </trkpt>
      <trkpt lat="43.72088" lon="7.03554">
        <ele>823.40002441406</ele>
        <time>2023-07-30T09:03:29.000Z</time>
      </trkpt>
      <trkpt lat="43.72088" lon="7.03554">
        <ele>823.40002441406</ele>
        <time>2023-07-30T09:03:30.000Z</time>
      </trkpt>
      <trkpt lat="43.72088" lon="7.03554">
        <ele>823.40002441406</ele>
        <time>2023-07-30T09:03:31.000Z</time>
      </trkpt>
      <trkpt lat="43.72088" lon="7.03554">
        <ele>823.40002441406</ele>
        <time>2023-07-30T09:03:32.000Z</time>
      </trkpt>
      <trkpt lat="43.72088" lon="7.03552">
        <ele>823.40002441406</ele>
        <time>2023-07-30T09:03:33.000Z</time>
      </trkpt>
      <trkpt lat="43.72087" lon="7.0355">
        <ele>823.40002441406</ele>
        <time>2023-07-30T09:03:34.000Z</time>
      </trkpt>
      <trkpt lat="43.72086" lon="7.03549">
        <ele>823.40002441406</ele>
        <time>2023-07-30T09:03:35.000Z</time>
      </trkpt>
      <trkpt lat="43.72084" lon="7.03549">
        <ele>823.40002441406</ele>
        <time>2023-07-30T09:03:36.000Z</time>
      </trkpt>
      <trkpt lat="43.72082" lon="7.03547">
        <ele>823.40002441406</ele>
        <time>2023-07-30T09:03:37.000Z</time>
      </trkpt>
      <trkpt lat="43.7208" lon="7.03546">
        <ele>823.40002441406</ele>
        <time>2023-07-30T09:03:38.000Z</time>
      </trkpt>
      <trkpt lat="43.72078" lon="7.03543">
        <ele>823.59997558594</ele>
        <time>2023-07-30T09:03:39.000Z</time>
      </trkpt>
      <trkpt lat="43.72076" lon="7.03541">
        <ele>823.59997558594</ele>
        <time>2023-07-30T09:03:40.000Z</time>
      </trkpt>
      <trkpt lat="43.72074" lon="7.03538">
        <ele>823.59997558594</ele>
        <time>2023-07-30T09:03:41.000Z</time>
      </trkpt>
      <trkpt lat="43.72073" lon="7.03535">
        <ele>823.59997558594</ele>
        <time>2023-07-30T09:03:42.000Z</time>
      </trkpt>
      <trkpt lat="43.72071" lon="7.03533">
        <ele>823.59997558594</ele>
        <time>2023-07-30T09:03:43.000Z</time>
      </trkpt>
      <trkpt lat="43.72069" lon="7.03531">
        <ele>823.59997558594</ele>
        <time>2023-07-30T09:03:44.000Z</time>
      </trkpt>
      <trkpt lat="43.72067" lon="7.0353">
        <ele>823.40002441406</ele>
        <time>2023-07-30T09:03:45.000Z</time>
      </trkpt>
      <trkpt lat="43.72066" lon="7.03529">
        <ele>823.40002441406</ele>
        <time>2023-07-30T09:03:46.000Z</time>
      </trkpt>
      <trkpt lat="43.72065" lon="7.03528">
        <ele>823.59997558594</ele>
        <time>2023-07-30T09:03:47.000Z</time>
      </trkpt>
      <trkpt lat="43.72065" lon="7.03528">
        <ele>823.59997558594</ele>
        <time>2023-07-30T09:03:48.000Z</time>
      </trkpt>
      <trkpt lat="43.72065" lon="7.03528">
        <ele>823.59997558594</ele>
        <time>2023-07-30T09:03:49.000Z</time>
      </trkpt>
      <trkpt lat="43.72065" lon="7.03528">
        <ele>823.59997558594</ele>
        <time>2023-07-30T09:03:50.000Z</time>
      </trkpt>
      <trkpt lat="43.72065" lon="7.03528">
        <ele>823.59997558594</ele>
        <time>2023-07-30T09:03:51.000Z</time>
      </trkpt>
      <trkpt lat="43.72064" lon="7.03528">
        <ele>823.59997558594</ele>
        <time>2023-07-30T09:03:52.000Z</time>
      </trkpt>
      <trkpt lat="43.72064" lon="7.03529">
        <ele>823.59997558594</ele>
        <time>2023-07-30T09:03:53.000Z</time>
      </trkpt>
      <trkpt lat="43.72064" lon="7.03529">
        <ele>823.59997558594</ele>
        <time>2023-07-30T09:03:54.000Z</time>
      </trkpt>
      <trkpt lat="43.72064" lon="7.03529">
        <ele>823.59997558594</ele>
        <time>2023-07-30T09:03:55.000Z</time>
      </trkpt>
      <trkpt lat="43.72064" lon="7.03529">
        <ele>823.40002441406</ele>
        <time>2023-07-30T09:03:56.000Z</time>
      </trkpt>
      <trkpt lat="43.72064" lon="7.03529">
        <ele>823.40002441406</ele>
        <time>2023-07-30T09:03:57.000Z</time>
      </trkpt>
      <trkpt lat="43.72064" lon="7.03529">
        <ele>823.40002441406</ele>
        <time>2023-07-30T09:03:58.000Z</time>
      </trkpt>
      <trkpt lat="43.72064" lon="7.03529">
        <ele>823.40002441406</ele>
        <time>2023-07-30T09:03:59.000Z</time>
      </trkpt>
      <trkpt lat="43.72064" lon="7.03528">
        <ele>823.20001220703</ele>
        <time>2023-07-30T09:04:00.000Z</time>
      </trkpt>
      <trkpt lat="43.72064" lon="7.03529">
        <ele>823.20001220703</ele>
        <time>2023-07-30T09:04:01.000Z</time>
      </trkpt>
      <trkpt lat="43.72064" lon="7.03529">
        <ele>823.20001220703</ele>
        <time>2023-07-30T09:04:02.000Z</time>
      </trkpt>
      <trkpt lat="43.72064" lon="7.03529">
        <ele>823.20001220703</ele>
        <time>2023-07-30T09:04:03.000Z</time>
      </trkpt>
      <trkpt lat="43.72064" lon="7.03529">
        <ele>823</ele>
        <time>2023-07-30T09:04:04.000Z</time>
      </trkpt>
      <trkpt lat="43.72064" lon="7.03529">
        <ele>823</ele>
        <time>2023-07-30T09:04:05.000Z</time>
      </trkpt>
      <trkpt lat="43.72064" lon="7.03529">
        <ele>823</ele>
        <time>2023-07-30T09:04:06.000Z</time>
      </trkpt>
      <trkpt lat="43.72064" lon="7.0353">
        <ele>823</ele>
        <time>2023-07-30T09:04:07.000Z</time>
      </trkpt>
      <trkpt lat="43.72064" lon="7.0353">
        <ele>823</ele>
        <time>2023-07-30T09:04:08.000Z</time>
      </trkpt>
      <trkpt lat="43.72064" lon="7.03531">
        <ele>823</ele>
        <time>2023-07-30T09:04:09.000Z</time>
      </trkpt>
      <trkpt lat="43.72063" lon="7.03531">
        <ele>823</ele>
        <time>2023-07-30T09:04:10.000Z</time>
      </trkpt>
      <trkpt lat="43.72063" lon="7.03531">
        <ele>823</ele>
        <time>2023-07-30T09:04:11.000Z</time>
      </trkpt>
      <trkpt lat="43.72063" lon="7.0353">
        <ele>823</ele>
        <time>2023-07-30T09:04:12.000Z</time>
      </trkpt>
      <trkpt lat="43.72063" lon="7.0353">
        <ele>823</ele>
        <time>2023-07-30T09:04:13.000Z</time>
      </trkpt>
      <trkpt lat="43.72063" lon="7.0353">
        <ele>823.20001220703</ele>
        <time>2023-07-30T09:04:14.000Z</time>
      </trkpt>
      <trkpt lat="43.72062" lon="7.03529">
        <ele>823.20001220703</ele>
        <time>2023-07-30T09:04:15.000Z</time>
      </trkpt>
      <trkpt lat="43.72061" lon="7.03529">
        <ele>823.20001220703</ele>
        <time>2023-07-30T09:04:16.000Z</time>
      </trkpt>
      <trkpt lat="43.72061" lon="7.03529">
        <ele>823.20001220703</ele>
        <time>2023-07-30T09:04:17.000Z</time>
      </trkpt>
      <trkpt lat="43.72061" lon="7.03528">
        <ele>823.40002441406</ele>
        <time>2023-07-30T09:04:18.000Z</time>
      </trkpt>
      <trkpt lat="43.72061" lon="7.03527">
        <ele>823.40002441406</ele>
        <time>2023-07-30T09:04:19.000Z</time>
      </trkpt>
      <trkpt lat="43.72061" lon="7.03527">
        <ele>823.40002441406</ele>
        <time>2023-07-30T09:04:20.000Z</time>
      </trkpt>
      <trkpt lat="43.72061" lon="7.03527">
        <ele>823.20001220703</ele>
        <time>2023-07-30T09:04:21.000Z</time>
      </trkpt>
      <trkpt lat="43.72061" lon="7.03527">
        <ele>823.20001220703</ele>
        <time>2023-07-30T09:04:22.000Z</time>
      </trkpt>
      <trkpt lat="43.72061" lon="7.03527">
        <ele>823.20001220703</ele>
        <time>2023-07-30T09:04:23.000Z</time>
      </trkpt>
      <trkpt lat="43.72061" lon="7.03527">
        <ele>823.20001220703</ele>
        <time>2023-07-30T09:04:24.000Z</time>
      </trkpt>
      <trkpt lat="43.72061" lon="7.03527">
        <ele>823</ele>
        <time>2023-07-30T09:04:25.000Z</time>
      </trkpt>
      <trkpt lat="43.72061" lon="7.03527">
        <ele>823</ele>
        <time>2023-07-30T09:04:26.000Z</time>
      </trkpt>
      <trkpt lat="43.72061" lon="7.03527">
        <ele>823</ele>
        <time>2023-07-30T09:04:27.000Z</time>
      </trkpt>
      <trkpt lat="43.72061" lon="7.03527">
        <ele>823</ele>
        <time>2023-07-30T09:04:28.000Z</time>
      </trkpt>
      <trkpt lat="43.72061" lon="7.03527">
        <ele>823</ele>
        <time>2023-07-30T09:04:29.000Z</time>
      </trkpt>
      <trkpt lat="43.72061" lon="7.03527">
        <ele>823</ele>
        <time>2023-07-30T09:04:30.000Z</time>
      </trkpt>
      <trkpt lat="43.72061" lon="7.03527">
        <ele>823</ele>
        <time>2023-07-30T09:04:31.000Z</time>
      </trkpt>
      <trkpt lat="43.72061" lon="7.03527">
        <ele>823</ele>
        <time>2023-07-30T09:04:32.000Z</time>
      </trkpt>
      <trkpt lat="43.72061" lon="7.03527">
        <ele>823</ele>
        <time>2023-07-30T09:04:33.000Z</time>
      </trkpt>
      <trkpt lat="43.72061" lon="7.03527">
        <ele>823</ele>
        <time>2023-07-30T09:04:34.000Z</time>
      </trkpt>
      <trkpt lat="43.72061" lon="7.03527">
        <ele>823</ele>
        <time>2023-07-30T09:04:35.000Z</time>
      </trkpt>
      <trkpt lat="43.72061" lon="7.03527">
        <ele>823</ele>
        <time>2023-07-30T09:04:36.000Z</time>
      </trkpt>
      <trkpt lat="43.72061" lon="7.03527">
        <ele>823</ele>
        <time>2023-07-30T09:04:37.000Z</time>
      </trkpt>
      <trkpt lat="43.72061" lon="7.03527">
        <ele>823</ele>
        <time>2023-07-30T09:04:38.000Z</time>
      </trkpt>
      <trkpt lat="43.72061" lon="7.03527">
        <ele>823</ele>
        <time>2023-07-30T09:04:39.000Z</time>
      </trkpt>
      <trkpt lat="43.72061" lon="7.03527">
        <ele>823</ele>
        <time>2023-07-30T09:04:40.000Z</time>
      </trkpt>
      <trkpt lat="43.72061" lon="7.03527">
        <ele>823</ele>
        <time>2023-07-30T09:04:41.000Z</time>
      </trkpt>
      <trkpt lat="43.72061" lon="7.03527">
        <ele>823</ele>
        <time>2023-07-30T09:04:42.000Z</time>
      </trkpt>
      <trkpt lat="43.72061" lon="7.03527">
        <ele>823</ele>
        <time>2023-07-30T09:04:43.000Z</time>
      </trkpt>
      <trkpt lat="43.72061" lon="7.03527">
        <ele>823</ele>
        <time>2023-07-30T09:04:44.000Z</time>
      </trkpt>
      <trkpt lat="43.72061" lon="7.03527">
        <ele>823</ele>
        <time>2023-07-30T09:04:45.000Z</time>
      </trkpt>
      <trkpt lat="43.72061" lon="7.03527">
        <ele>823.20001220703</ele>
        <time>2023-07-30T09:04:46.000Z</time>
      </trkpt>
      <trkpt lat="43.72061" lon="7.03527">
        <ele>823.20001220703</ele>
        <time>2023-07-30T09:04:47.000Z</time>
      </trkpt>
      <trkpt lat="43.72061" lon="7.03527">
        <ele>823.20001220703</ele>
        <time>2023-07-30T09:04:48.000Z</time>
      </trkpt>
      <trkpt lat="43.7206" lon="7.03527">
        <ele>823.20001220703</ele>
        <time>2023-07-30T09:04:49.000Z</time>
      </trkpt>
      <trkpt lat="43.7206" lon="7.03528">
        <ele>823.20001220703</ele>
        <time>2023-07-30T09:04:50.000Z</time>
      </trkpt>
      <trkpt lat="43.7206" lon="7.03529">
        <ele>823.20001220703</ele>
        <time>2023-07-30T09:04:51.000Z</time>
      </trkpt>
      <trkpt lat="43.7206" lon="7.03528">
        <ele>823.40002441406</ele>
        <time>2023-07-30T09:04:52.000Z</time>
      </trkpt>
      <trkpt lat="43.72061" lon="7.03529">
        <ele>823.40002441406</ele>
        <time>2023-07-30T09:04:53.000Z</time>
      </trkpt>
      <trkpt lat="43.7206" lon="7.03529">
        <ele>823.40002441406</ele>
        <time>2023-07-30T09:04:54.000Z</time>
      </trkpt>
      <trkpt lat="43.72059" lon="7.03528">
        <ele>823.79998779297</ele>
        <time>2023-07-30T09:04:55.000Z</time>
      </trkpt>
      <trkpt lat="43.72058" lon="7.03527">
        <ele>823.79998779297</ele>
        <time>2023-07-30T09:04:56.000Z</time>
      </trkpt>
      <trkpt lat="43.72056" lon="7.03526">
        <ele>823.79998779297</ele>
        <time>2023-07-30T09:04:57.000Z</time>
      </trkpt>
      <trkpt lat="43.72053" lon="7.03524">
        <ele>823.79998779297</ele>
        <time>2023-07-30T09:04:58.000Z</time>
      </trkpt>
      <trkpt lat="43.7205" lon="7.03522">
        <ele>823.79998779297</ele>
        <time>2023-07-30T09:04:59.000Z</time>
      </trkpt>
      <trkpt lat="43.72048" lon="7.03521">
        <ele>823.79998779297</ele>
        <time>2023-07-30T09:05:00.000Z</time>
      </trkpt>
      <trkpt lat="43.72045" lon="7.03519">
        <ele>823.79998779297</ele>
        <time>2023-07-30T09:05:01.000Z</time>
      </trkpt>
      <trkpt lat="43.72043" lon="7.03517">
        <ele>823.79998779297</ele>
        <time>2023-07-30T09:05:02.000Z</time>
      </trkpt>
      <trkpt lat="43.7204" lon="7.03516">
        <ele>823.79998779297</ele>
        <time>2023-07-30T09:05:03.000Z</time>
      </trkpt>
      <trkpt lat="43.72037" lon="7.03514">
        <ele>823.79998779297</ele>
        <time>2023-07-30T09:05:04.000Z</time>
      </trkpt>
      <trkpt lat="43.72035" lon="7.03513">
        <ele>823.79998779297</ele>
        <time>2023-07-30T09:05:05.000Z</time>
      </trkpt>
      <trkpt lat="43.72032" lon="7.03511">
        <ele>823.79998779297</ele>
        <time>2023-07-30T09:05:06.000Z</time>
      </trkpt>
      <trkpt lat="43.72028" lon="7.0351">
        <ele>824</ele>
        <time>2023-07-30T09:05:07.000Z</time>
      </trkpt>
      <trkpt lat="43.72025" lon="7.03507">
        <ele>824</ele>
        <time>2023-07-30T09:05:08.000Z</time>
      </trkpt>
      <trkpt lat="43.72023" lon="7.03504">
        <ele>824</ele>
        <time>2023-07-30T09:05:09.000Z</time>
      </trkpt>
      <trkpt lat="43.72021" lon="7.035">
        <ele>824</ele>
        <time>2023-07-30T09:05:10.000Z</time>
      </trkpt>
      <trkpt lat="43.72017" lon="7.03495">
        <ele>823.79998779297</ele>
        <time>2023-07-30T09:05:11.000Z</time>
      </trkpt>
      <trkpt lat="43.72014" lon="7.03491">
        <ele>823.79998779297</ele>
        <time>2023-07-30T09:05:12.000Z</time>
      </trkpt>
      <trkpt lat="43.72013" lon="7.03487">
        <ele>823.59997558594</ele>
        <time>2023-07-30T09:05:13.000Z</time>
      </trkpt>
      <trkpt lat="43.72014" lon="7.03483">
        <ele>822.40002441406</ele>
        <time>2023-07-30T09:05:14.000Z</time>
      </trkpt>
      <trkpt lat="43.72015" lon="7.03479">
        <ele>822.20001220703</ele>
        <time>2023-07-30T09:05:15.000Z</time>
      </trkpt>
      <trkpt lat="43.72017" lon="7.03474">
        <ele>822.20001220703</ele>
        <time>2023-07-30T09:05:16.000Z</time>
      </trkpt>
      <trkpt lat="43.72018" lon="7.03468">
        <ele>821.40002441406</ele>
        <time>2023-07-30T09:05:17.000Z</time>
      </trkpt>
      <trkpt lat="43.72017" lon="7.03462">
        <ele>821.40002441406</ele>
        <time>2023-07-30T09:05:18.000Z</time>
      </trkpt>
      <trkpt lat="43.72016" lon="7.03457">
        <ele>821.20001220703</ele>
        <time>2023-07-30T09:05:19.000Z</time>
      </trkpt>
      <trkpt lat="43.72015" lon="7.03451">
        <ele>821</ele>
        <time>2023-07-30T09:05:20.000Z</time>
      </trkpt>
      <trkpt lat="43.72014" lon="7.03445">
        <ele>820.79998779297</ele>
        <time>2023-07-30T09:05:21.000Z</time>
      </trkpt>
      <trkpt lat="43.72012" lon="7.0344">
        <ele>820.79998779297</ele>
        <time>2023-07-30T09:05:22.000Z</time>
      </trkpt>
      <trkpt lat="43.72011" lon="7.03435">
        <ele>820.59997558594</ele>
        <time>2023-07-30T09:05:23.000Z</time>
      </trkpt>
      <trkpt lat="43.72009" lon="7.0343">
        <ele>820.20001220703</ele>
        <time>2023-07-30T09:05:24.000Z</time>
      </trkpt>
      <trkpt lat="43.72006" lon="7.03424">
        <ele>820</ele>
        <time>2023-07-30T09:05:25.000Z</time>
      </trkpt>
      <trkpt lat="43.72004" lon="7.03419">
        <ele>819.79998779297</ele>
        <time>2023-07-30T09:05:26.000Z</time>
      </trkpt>
      <trkpt lat="43.72002" lon="7.03414">
        <ele>819.79998779297</ele>
        <time>2023-07-30T09:05:27.000Z</time>
      </trkpt>
      <trkpt lat="43.71999" lon="7.0341">
        <ele>819.79998779297</ele>
        <time>2023-07-30T09:05:28.000Z</time>
      </trkpt>
      <trkpt lat="43.71994" lon="7.03407">
        <ele>819.59997558594</ele>
        <time>2023-07-30T09:05:29.000Z</time>
      </trkpt>
      <trkpt lat="43.7199" lon="7.03404">
        <ele>819.40002441406</ele>
        <time>2023-07-30T09:05:30.000Z</time>
      </trkpt>
      <trkpt lat="43.71985" lon="7.034">
        <ele>818.79998779297</ele>
        <time>2023-07-30T09:05:31.000Z</time>
      </trkpt>
      <trkpt lat="43.71979" lon="7.03396">
        <ele>818.59997558594</ele>
        <time>2023-07-30T09:05:32.000Z</time>
      </trkpt>
      <trkpt lat="43.71973" lon="7.03391">
        <ele>818.40002441406</ele>
        <time>2023-07-30T09:05:33.000Z</time>
      </trkpt>
      <trkpt lat="43.71968" lon="7.03388">
        <ele>817.79998779297</ele>
        <time>2023-07-30T09:05:34.000Z</time>
      </trkpt>
      <trkpt lat="43.71964" lon="7.03385">
        <ele>816.59997558594</ele>
        <time>2023-07-30T09:05:35.000Z</time>
      </trkpt>
      <trkpt lat="43.71959" lon="7.03382">
        <ele>816.40002441406</ele>
        <time>2023-07-30T09:05:36.000Z</time>
      </trkpt>
      <trkpt lat="43.71954" lon="7.03378">
        <ele>815.40002441406</ele>
        <time>2023-07-30T09:05:37.000Z</time>
      </trkpt>
      <trkpt lat="43.7195" lon="7.03376">
        <ele>815.20001220703</ele>
        <time>2023-07-30T09:05:38.000Z</time>
      </trkpt>
      <trkpt lat="43.71946" lon="7.03374">
        <ele>814.20001220703</ele>
        <time>2023-07-30T09:05:39.000Z</time>
      </trkpt>
      <trkpt lat="43.71942" lon="7.03373">
        <ele>814</ele>
        <time>2023-07-30T09:05:40.000Z</time>
      </trkpt>
      <trkpt lat="43.71937" lon="7.03372">
        <ele>813.20001220703</ele>
        <time>2023-07-30T09:05:41.000Z</time>
      </trkpt>
      <trkpt lat="43.71933" lon="7.03371">
        <ele>812.40002441406</ele>
        <time>2023-07-30T09:05:42.000Z</time>
      </trkpt>
      <trkpt lat="43.71928" lon="7.03371">
        <ele>811.59997558594</ele>
        <time>2023-07-30T09:05:43.000Z</time>
      </trkpt>
      <trkpt lat="43.71925" lon="7.03372">
        <ele>811</ele>
        <time>2023-07-30T09:05:44.000Z</time>
      </trkpt>
      <trkpt lat="43.71922" lon="7.03373">
        <ele>810.59997558594</ele>
        <time>2023-07-30T09:05:45.000Z</time>
      </trkpt>
      <trkpt lat="43.71918" lon="7.03374">
        <ele>809.40002441406</ele>
        <time>2023-07-30T09:05:46.000Z</time>
      </trkpt>
      <trkpt lat="43.71914" lon="7.03377">
        <ele>809</ele>
        <time>2023-07-30T09:05:47.000Z</time>
      </trkpt>
      <trkpt lat="43.7191" lon="7.03379">
        <ele>809</ele>
        <time>2023-07-30T09:05:48.000Z</time>
      </trkpt>
      <trkpt lat="43.71905" lon="7.03381">
        <ele>808.59997558594</ele>
        <time>2023-07-30T09:05:49.000Z</time>
      </trkpt>
      <trkpt lat="43.719" lon="7.03383">
        <ele>807.79998779297</ele>
        <time>2023-07-30T09:05:50.000Z</time>
      </trkpt>
      <trkpt lat="43.71896" lon="7.03386">
        <ele>807.40002441406</ele>
        <time>2023-07-30T09:05:51.000Z</time>
      </trkpt>
      <trkpt lat="43.71891" lon="7.03388">
        <ele>806.79998779297</ele>
        <time>2023-07-30T09:05:52.000Z</time>
      </trkpt>
      <trkpt lat="43.71887" lon="7.03389">
        <ele>805.79998779297</ele>
        <time>2023-07-30T09:05:53.000Z</time>
      </trkpt>
      <trkpt lat="43.71884" lon="7.03391">
        <ele>805.40002441406</ele>
        <time>2023-07-30T09:05:54.000Z</time>
      </trkpt>
      <trkpt lat="43.7188" lon="7.03392">
        <ele>805</ele>
        <time>2023-07-30T09:05:55.000Z</time>
      </trkpt>
      <trkpt lat="43.71877" lon="7.03393">
        <ele>804.20001220703</ele>
        <time>2023-07-30T09:05:56.000Z</time>
      </trkpt>
      <trkpt lat="43.71873" lon="7.03391">
        <ele>803.20001220703</ele>
        <time>2023-07-30T09:05:57.000Z</time>
      </trkpt>
      <trkpt lat="43.7187" lon="7.0339">
        <ele>802.40002441406</ele>
        <time>2023-07-30T09:05:58.000Z</time>
      </trkpt>
      <trkpt lat="43.71867" lon="7.03388">
        <ele>802.20001220703</ele>
        <time>2023-07-30T09:05:59.000Z</time>
      </trkpt>
      <trkpt lat="43.71865" lon="7.03386">
        <ele>801.40002441406</ele>
        <time>2023-07-30T09:06:00.000Z</time>
      </trkpt>
      <trkpt lat="43.71865" lon="7.03385">
        <ele>800.59997558594</ele>
        <time>2023-07-30T09:06:01.000Z</time>
      </trkpt>
      <trkpt lat="43.71865" lon="7.03385">
        <ele>799.40002441406</ele>
        <time>2023-07-30T09:06:02.000Z</time>
      </trkpt>
      <trkpt lat="43.71865" lon="7.03385">
        <ele>799.20001220703</ele>
        <time>2023-07-30T09:06:03.000Z</time>
      </trkpt>
      <trkpt lat="43.71865" lon="7.03385">
        <ele>798.79998779297</ele>
        <time>2023-07-30T09:06:04.000Z</time>
      </trkpt>
      <trkpt lat="43.71865" lon="7.03385">
        <ele>798.79998779297</ele>
        <time>2023-07-30T09:06:05.000Z</time>
      </trkpt>
      <trkpt lat="43.71865" lon="7.03385">
        <ele>798.59997558594</ele>
        <time>2023-07-30T09:06:06.000Z</time>
      </trkpt>
      <trkpt lat="43.71865" lon="7.03385">
        <ele>798.59997558594</ele>
        <time>2023-07-30T09:06:07.000Z</time>
      </trkpt>
      <trkpt lat="43.71865" lon="7.03385">
        <ele>798.59997558594</ele>
        <time>2023-07-30T09:06:08.000Z</time>
      </trkpt>
      <trkpt lat="43.71865" lon="7.03385">
        <ele>798.59997558594</ele>
        <time>2023-07-30T09:06:09.000Z</time>
      </trkpt>
      <trkpt lat="43.71865" lon="7.03385">
        <ele>798.59997558594</ele>
        <time>2023-07-30T09:06:10.000Z</time>
      </trkpt>
      <trkpt lat="43.71865" lon="7.03385">
        <ele>798.40002441406</ele>
        <time>2023-07-30T09:06:11.000Z</time>
      </trkpt>
      <trkpt lat="43.71865" lon="7.03385">
        <ele>798.40002441406</ele>
        <time>2023-07-30T09:06:12.000Z</time>
      </trkpt>
      <trkpt lat="43.71865" lon="7.03385">
        <ele>798.40002441406</ele>
        <time>2023-07-30T09:06:13.000Z</time>
      </trkpt>
      <trkpt lat="43.71865" lon="7.03385">
        <ele>798.20001220703</ele>
        <time>2023-07-30T09:06:14.000Z</time>
      </trkpt>
      <trkpt lat="43.71865" lon="7.03385">
        <ele>798.20001220703</ele>
        <time>2023-07-30T09:06:15.000Z</time>
      </trkpt>
      <trkpt lat="43.71865" lon="7.03385">
        <ele>798.20001220703</ele>
        <time>2023-07-30T09:06:16.000Z</time>
      </trkpt>
      <trkpt lat="43.71865" lon="7.03385">
        <ele>798.20001220703</ele>
        <time>2023-07-30T09:06:17.000Z</time>
      </trkpt>
      <trkpt lat="43.71865" lon="7.03385">
        <ele>798</ele>
        <time>2023-07-30T09:06:18.000Z</time>
      </trkpt>
      <trkpt lat="43.71865" lon="7.03385">
        <ele>798</ele>
        <time>2023-07-30T09:06:19.000Z</time>
      </trkpt>
      <trkpt lat="43.71865" lon="7.03385">
        <ele>798</ele>
        <time>2023-07-30T09:06:20.000Z</time>
      </trkpt>
      <trkpt lat="43.71865" lon="7.03385">
        <ele>798</ele>
        <time>2023-07-30T09:06:21.000Z</time>
      </trkpt>
      <trkpt lat="43.71865" lon="7.03385">
        <ele>798</ele>
        <time>2023-07-30T09:06:22.000Z</time>
      </trkpt>
      <trkpt lat="43.71865" lon="7.03385">
        <ele>798</ele>
        <time>2023-07-30T09:06:23.000Z</time>
      </trkpt>
      <trkpt lat="43.71865" lon="7.03385">
        <ele>798</ele>
        <time>2023-07-30T09:06:24.000Z</time>
      </trkpt>
      <trkpt lat="43.71865" lon="7.03385">
        <ele>798</ele>
        <time>2023-07-30T09:06:25.000Z</time>
      </trkpt>
      <trkpt lat="43.71865" lon="7.03385">
        <ele>797.79998779297</ele>
        <time>2023-07-30T09:06:26.000Z</time>
      </trkpt>
      <trkpt lat="43.71865" lon="7.03384">
        <ele>797.79998779297</ele>
        <time>2023-07-30T09:06:27.000Z</time>
      </trkpt>
      <trkpt lat="43.71865" lon="7.03384">
        <ele>797.79998779297</ele>
        <time>2023-07-30T09:06:28.000Z</time>
      </trkpt>
      <trkpt lat="43.71865" lon="7.03384">
        <ele>797.79998779297</ele>
        <time>2023-07-30T09:06:29.000Z</time>
      </trkpt>
      <trkpt lat="43.71865" lon="7.03384">
        <ele>797.79998779297</ele>
        <time>2023-07-30T09:06:30.000Z</time>
      </trkpt>
      <trkpt lat="43.71865" lon="7.03384">
        <ele>797.79998779297</ele>
        <time>2023-07-30T09:06:31.000Z</time>
      </trkpt>
      <trkpt lat="43.71865" lon="7.03384">
        <ele>797.79998779297</ele>
        <time>2023-07-30T09:06:32.000Z</time>
      </trkpt>
      <trkpt lat="43.71865" lon="7.03384">
        <ele>797.79998779297</ele>
        <time>2023-07-30T09:06:33.000Z</time>
      </trkpt>
      <trkpt lat="43.71865" lon="7.03384">
        <ele>797.79998779297</ele>
        <time>2023-07-30T09:06:34.000Z</time>
      </trkpt>
      <trkpt lat="43.71865" lon="7.03384">
        <ele>797.79998779297</ele>
        <time>2023-07-30T09:06:35.000Z</time>
      </trkpt>
      <trkpt lat="43.71865" lon="7.03384">
        <ele>797.79998779297</ele>
        <time>2023-07-30T09:06:36.000Z</time>
      </trkpt>
      <trkpt lat="43.71865" lon="7.03384">
        <ele>797.79998779297</ele>
        <time>2023-07-30T09:06:37.000Z</time>
      </trkpt>
      <trkpt lat="43.71865" lon="7.03384">
        <ele>797.79998779297</ele>
        <time>2023-07-30T09:06:38.000Z</time>
      </trkpt>
      <trkpt lat="43.71864" lon="7.03383">
        <ele>798</ele>
        <time>2023-07-30T09:06:39.000Z</time>
      </trkpt>
      <trkpt lat="43.71863" lon="7.03382">
        <ele>798</ele>
        <time>2023-07-30T09:06:40.000Z</time>
      </trkpt>
      <trkpt lat="43.71861" lon="7.03378">
        <ele>797.79998779297</ele>
        <time>2023-07-30T09:06:41.000Z</time>
      </trkpt>
      <trkpt lat="43.71858" lon="7.03373">
        <ele>797.79998779297</ele>
        <time>2023-07-30T09:06:42.000Z</time>
      </trkpt>
      <trkpt lat="43.71856" lon="7.03368">
        <ele>797.59997558594</ele>
        <time>2023-07-30T09:06:43.000Z</time>
      </trkpt>
      <trkpt lat="43.71854" lon="7.03363">
        <ele>797</ele>
        <time>2023-07-30T09:06:44.000Z</time>
      </trkpt>
      <trkpt lat="43.71851" lon="7.03357">
        <ele>796.20001220703</ele>
        <time>2023-07-30T09:06:45.000Z</time>
      </trkpt>
      <trkpt lat="43.71848" lon="7.0335">
        <ele>796.20001220703</ele>
        <time>2023-07-30T09:06:46.000Z</time>
      </trkpt>
      <trkpt lat="43.71845" lon="7.03345">
        <ele>795.79998779297</ele>
        <time>2023-07-30T09:06:47.000Z</time>
      </trkpt>
      <trkpt lat="43.71842" lon="7.03342">
        <ele>794.79998779297</ele>
        <time>2023-07-30T09:06:48.000Z</time>
      </trkpt>
      <trkpt lat="43.7184" lon="7.03338">
        <ele>794</ele>
        <time>2023-07-30T09:06:49.000Z</time>
      </trkpt>
      <trkpt lat="43.71837" lon="7.03334">
        <ele>793.20001220703</ele>
        <time>2023-07-30T09:06:50.000Z</time>
      </trkpt>
      <trkpt lat="43.71833" lon="7.03328">
        <ele>792.59997558594</ele>
        <time>2023-07-30T09:06:51.000Z</time>
      </trkpt>
      <trkpt lat="43.71829" lon="7.03323">
        <ele>791.20001220703</ele>
        <time>2023-07-30T09:06:52.000Z</time>
      </trkpt>
      <trkpt lat="43.71827" lon="7.03317">
        <ele>790.79998779297</ele>
        <time>2023-07-30T09:06:53.000Z</time>
      </trkpt>
      <trkpt lat="43.71824" lon="7.03311">
        <ele>790.20001220703</ele>
        <time>2023-07-30T09:06:54.000Z</time>
      </trkpt>
      <trkpt lat="43.71822" lon="7.03305">
        <ele>789</ele>
        <time>2023-07-30T09:06:55.000Z</time>
      </trkpt>
      <trkpt lat="43.71821" lon="7.03297">
        <ele>787.79998779297</ele>
        <time>2023-07-30T09:06:56.000Z</time>
      </trkpt>
      <trkpt lat="43.7182" lon="7.03289">
        <ele>787</ele>
        <time>2023-07-30T09:06:57.000Z</time>
      </trkpt>
      <trkpt lat="43.7182" lon="7.03283">
        <ele>786.40002441406</ele>
        <time>2023-07-30T09:06:58.000Z</time>
      </trkpt>
      <trkpt lat="43.71819" lon="7.03276">
        <ele>785.79998779297</ele>
        <time>2023-07-30T09:06:59.000Z</time>
      </trkpt>
      <trkpt lat="43.71817" lon="7.03269">
        <ele>785.79998779297</ele>
        <time>2023-07-30T09:07:00.000Z</time>
      </trkpt>
      <trkpt lat="43.71816" lon="7.03263">
        <ele>785.20001220703</ele>
        <time>2023-07-30T09:07:01.000Z</time>
      </trkpt>
      <trkpt lat="43.71814" lon="7.03256">
        <ele>785.20001220703</ele>
        <time>2023-07-30T09:07:02.000Z</time>
      </trkpt>
      <trkpt lat="43.71812" lon="7.0325">
        <ele>784.59997558594</ele>
        <time>2023-07-30T09:07:03.000Z</time>
      </trkpt>
      <trkpt lat="43.71809" lon="7.03243">
        <ele>784.20001220703</ele>
        <time>2023-07-30T09:07:04.000Z</time>
      </trkpt>
      <trkpt lat="43.71807" lon="7.03236">
        <ele>783.40002441406</ele>
        <time>2023-07-30T09:07:05.000Z</time>
      </trkpt>
      <trkpt lat="43.71805" lon="7.03227">
        <ele>782.59997558594</ele>
        <time>2023-07-30T09:07:06.000Z</time>
      </trkpt>
      <trkpt lat="43.71802" lon="7.03218">
        <ele>782</ele>
        <time>2023-07-30T09:07:07.000Z</time>
      </trkpt>
      <trkpt lat="43.71799" lon="7.03208">
        <ele>781.59997558594</ele>
        <time>2023-07-30T09:07:08.000Z</time>
      </trkpt>
      <trkpt lat="43.71797" lon="7.03199">
        <ele>780.20001220703</ele>
        <time>2023-07-30T09:07:09.000Z</time>
      </trkpt>
      <trkpt lat="43.71795" lon="7.03191">
        <ele>779.40002441406</ele>
        <time>2023-07-30T09:07:10.000Z</time>
      </trkpt>
      <trkpt lat="43.71794" lon="7.03186">
        <ele>778.59997558594</ele>
        <time>2023-07-30T09:07:11.000Z</time>
      </trkpt>
      <trkpt lat="43.71792" lon="7.03184">
        <ele>778</ele>
        <time>2023-07-30T09:07:12.000Z</time>
      </trkpt>
      <trkpt lat="43.71789" lon="7.03183">
        <ele>777.59997558594</ele>
        <time>2023-07-30T09:07:13.000Z</time>
      </trkpt>
      <trkpt lat="43.71787" lon="7.03183">
        <ele>777.59997558594</ele>
        <time>2023-07-30T09:07:14.000Z</time>
      </trkpt>
      <trkpt lat="43.71784" lon="7.03183">
        <ele>777</ele>
        <time>2023-07-30T09:07:15.000Z</time>
      </trkpt>
      <trkpt lat="43.71782" lon="7.03184">
        <ele>777</ele>
        <time>2023-07-30T09:07:16.000Z</time>
      </trkpt>
      <trkpt lat="43.7178" lon="7.03186">
        <ele>776.59997558594</ele>
        <time>2023-07-30T09:07:17.000Z</time>
      </trkpt>
      <trkpt lat="43.71778" lon="7.03188">
        <ele>776.20001220703</ele>
        <time>2023-07-30T09:07:18.000Z</time>
      </trkpt>
      <trkpt lat="43.71776" lon="7.03188">
        <ele>775.59997558594</ele>
        <time>2023-07-30T09:07:19.000Z</time>
      </trkpt>
      <trkpt lat="43.71773" lon="7.03189">
        <ele>775.40002441406</ele>
        <time>2023-07-30T09:07:20.000Z</time>
      </trkpt>
      <trkpt lat="43.71771" lon="7.03188">
        <ele>775</ele>
        <time>2023-07-30T09:07:21.000Z</time>
      </trkpt>
      <trkpt lat="43.71768" lon="7.03189">
        <ele>774.59997558594</ele>
        <time>2023-07-30T09:07:22.000Z</time>
      </trkpt>
      <trkpt lat="43.71765" lon="7.03189">
        <ele>774</ele>
        <time>2023-07-30T09:07:23.000Z</time>
      </trkpt>
      <trkpt lat="43.71763" lon="7.03189">
        <ele>773.40002441406</ele>
        <time>2023-07-30T09:07:24.000Z</time>
      </trkpt>
      <trkpt lat="43.71759" lon="7.03188">
        <ele>772.79998779297</ele>
        <time>2023-07-30T09:07:25.000Z</time>
      </trkpt>
      <trkpt lat="43.71756" lon="7.03188">
        <ele>772.20001220703</ele>
        <time>2023-07-30T09:07:26.000Z</time>
      </trkpt>
      <trkpt lat="43.71754" lon="7.03187">
        <ele>771.79998779297</ele>
        <time>2023-07-30T09:07:27.000Z</time>
      </trkpt>
      <trkpt lat="43.71753" lon="7.03186">
        <ele>770.59997558594</ele>
        <time>2023-07-30T09:07:28.000Z</time>
      </trkpt>
      <trkpt lat="43.71752" lon="7.03185">
        <ele>769.79998779297</ele>
        <time>2023-07-30T09:07:29.000Z</time>
      </trkpt>
      <trkpt lat="43.71752" lon="7.03185">
        <ele>769.20001220703</ele>
        <time>2023-07-30T09:07:30.000Z</time>
      </trkpt>
      <trkpt lat="43.71752" lon="7.03185">
        <ele>769</ele>
        <time>2023-07-30T09:07:31.000Z</time>
      </trkpt>
      <trkpt lat="43.71752" lon="7.03185">
        <ele>768.59997558594</ele>
        <time>2023-07-30T09:07:32.000Z</time>
      </trkpt>
      <trkpt lat="43.71752" lon="7.03185">
        <ele>768.40002441406</ele>
        <time>2023-07-30T09:07:33.000Z</time>
      </trkpt>
      <trkpt lat="43.71752" lon="7.03185">
        <ele>768.20001220703</ele>
        <time>2023-07-30T09:07:34.000Z</time>
      </trkpt>
      <trkpt lat="43.71752" lon="7.03185">
        <ele>768.20001220703</ele>
        <time>2023-07-30T09:07:35.000Z</time>
      </trkpt>
      <trkpt lat="43.71752" lon="7.03185">
        <ele>768.20001220703</ele>
        <time>2023-07-30T09:07:36.000Z</time>
      </trkpt>
      <trkpt lat="43.71752" lon="7.03185">
        <ele>768.20001220703</ele>
        <time>2023-07-30T09:07:37.000Z</time>
      </trkpt>
      <trkpt lat="43.71751" lon="7.03184">
        <ele>768.20001220703</ele>
        <time>2023-07-30T09:07:38.000Z</time>
      </trkpt>
      <trkpt lat="43.71751" lon="7.03185">
        <ele>768</ele>
        <time>2023-07-30T09:07:39.000Z</time>
      </trkpt>
      <trkpt lat="43.71751" lon="7.03185">
        <ele>768</ele>
        <time>2023-07-30T09:07:40.000Z</time>
      </trkpt>
      <trkpt lat="43.71751" lon="7.03184">
        <ele>768.20001220703</ele>
        <time>2023-07-30T09:07:41.000Z</time>
      </trkpt>
      <trkpt lat="43.71751" lon="7.03185">
        <ele>768.20001220703</ele>
        <time>2023-07-30T09:07:42.000Z</time>
      </trkpt>
      <trkpt lat="43.71751" lon="7.03184">
        <ele>768.20001220703</ele>
        <time>2023-07-30T09:07:43.000Z</time>
      </trkpt>
      <trkpt lat="43.71751" lon="7.03184">
        <ele>768.20001220703</ele>
        <time>2023-07-30T09:07:44.000Z</time>
      </trkpt>
      <trkpt lat="43.71751" lon="7.03184">
        <ele>768.20001220703</ele>
        <time>2023-07-30T09:07:45.000Z</time>
      </trkpt>
      <trkpt lat="43.71751" lon="7.03184">
        <ele>768.20001220703</ele>
        <time>2023-07-30T09:07:46.000Z</time>
      </trkpt>
      <trkpt lat="43.71751" lon="7.03184">
        <ele>768.20001220703</ele>
        <time>2023-07-30T09:07:47.000Z</time>
      </trkpt>
      <trkpt lat="43.71751" lon="7.03184">
        <ele>768.20001220703</ele>
        <time>2023-07-30T09:07:48.000Z</time>
      </trkpt>
      <trkpt lat="43.71751" lon="7.03184">
        <ele>768.20001220703</ele>
        <time>2023-07-30T09:07:49.000Z</time>
      </trkpt>
      <trkpt lat="43.71751" lon="7.03184">
        <ele>768.20001220703</ele>
        <time>2023-07-30T09:07:50.000Z</time>
      </trkpt>
      <trkpt lat="43.71751" lon="7.03184">
        <ele>768.20001220703</ele>
        <time>2023-07-30T09:07:51.000Z</time>
      </trkpt>
      <trkpt lat="43.71751" lon="7.03185">
        <ele>768.20001220703</ele>
        <time>2023-07-30T09:07:52.000Z</time>
      </trkpt>
      <trkpt lat="43.71751" lon="7.03185">
        <ele>768.20001220703</ele>
        <time>2023-07-30T09:07:53.000Z</time>
      </trkpt>
      <trkpt lat="43.71751" lon="7.03185">
        <ele>768.20001220703</ele>
        <time>2023-07-30T09:07:54.000Z</time>
      </trkpt>
      <trkpt lat="43.71751" lon="7.03185">
        <ele>768.20001220703</ele>
        <time>2023-07-30T09:07:55.000Z</time>
      </trkpt>
      <trkpt lat="43.71751" lon="7.03185">
        <ele>768.20001220703</ele>
        <time>2023-07-30T09:07:56.000Z</time>
      </trkpt>
      <trkpt lat="43.71751" lon="7.03185">
        <ele>768.20001220703</ele>
        <time>2023-07-30T09:07:57.000Z</time>
      </trkpt>
      <trkpt lat="43.71751" lon="7.03185">
        <ele>768.20001220703</ele>
        <time>2023-07-30T09:07:58.000Z</time>
      </trkpt>
      <trkpt lat="43.71751" lon="7.03185">
        <ele>768.20001220703</ele>
        <time>2023-07-30T09:07:59.000Z</time>
      </trkpt>
      <trkpt lat="43.71751" lon="7.03185">
        <ele>768</ele>
        <time>2023-07-30T09:08:00.000Z</time>
      </trkpt>
      <trkpt lat="43.71751" lon="7.03185">
        <ele>768</ele>
        <time>2023-07-30T09:08:01.000Z</time>
      </trkpt>
      <trkpt lat="43.71751" lon="7.03185">
        <ele>768</ele>
        <time>2023-07-30T09:08:02.000Z</time>
      </trkpt>
      <trkpt lat="43.71751" lon="7.03185">
        <ele>768</ele>
        <time>2023-07-30T09:08:03.000Z</time>
      </trkpt>
      <trkpt lat="43.71751" lon="7.03185">
        <ele>768</ele>
        <time>2023-07-30T09:08:04.000Z</time>
      </trkpt>
      <trkpt lat="43.71751" lon="7.03185">
        <ele>768</ele>
        <time>2023-07-30T09:08:05.000Z</time>
      </trkpt>
      <trkpt lat="43.71751" lon="7.03185">
        <ele>768</ele>
        <time>2023-07-30T09:08:06.000Z</time>
      </trkpt>
      <trkpt lat="43.71751" lon="7.03185">
        <ele>768</ele>
        <time>2023-07-30T09:08:07.000Z</time>
      </trkpt>
      <trkpt lat="43.71751" lon="7.03185">
        <ele>768</ele>
        <time>2023-07-30T09:08:08.000Z</time>
      </trkpt>
      <trkpt lat="43.71751" lon="7.03185">
        <ele>768</ele>
        <time>2023-07-30T09:08:09.000Z</time>
      </trkpt>
      <trkpt lat="43.71751" lon="7.03185">
        <ele>768</ele>
        <time>2023-07-30T09:08:10.000Z</time>
      </trkpt>
      <trkpt lat="43.71751" lon="7.03185">
        <ele>768</ele>
        <time>2023-07-30T09:08:11.000Z</time>
      </trkpt>
      <trkpt lat="43.71751" lon="7.03185">
        <ele>768</ele>
        <time>2023-07-30T09:08:12.000Z</time>
      </trkpt>
      <trkpt lat="43.71751" lon="7.03185">
        <ele>768</ele>
        <time>2023-07-30T09:08:13.000Z</time>
      </trkpt>
      <trkpt lat="43.71751" lon="7.03185">
        <ele>768</ele>
        <time>2023-07-30T09:08:14.000Z</time>
      </trkpt>
      <trkpt lat="43.71751" lon="7.03185">
        <ele>768</ele>
        <time>2023-07-30T09:08:15.000Z</time>
      </trkpt>
      <trkpt lat="43.71751" lon="7.03185">
        <ele>768</ele>
        <time>2023-07-30T09:08:16.000Z</time>
      </trkpt>
      <trkpt lat="43.71751" lon="7.03185">
        <ele>768</ele>
        <time>2023-07-30T09:08:17.000Z</time>
      </trkpt>
      <trkpt lat="43.71751" lon="7.03185">
        <ele>768</ele>
        <time>2023-07-30T09:08:18.000Z</time>
      </trkpt>
      <trkpt lat="43.71751" lon="7.03185">
        <ele>768</ele>
        <time>2023-07-30T09:08:19.000Z</time>
      </trkpt>
      <trkpt lat="43.71751" lon="7.03185">
        <ele>768</ele>
        <time>2023-07-30T09:08:20.000Z</time>
      </trkpt>
      <trkpt lat="43.71751" lon="7.03185">
        <ele>768</ele>
        <time>2023-07-30T09:08:21.000Z</time>
      </trkpt>
      <trkpt lat="43.71751" lon="7.03185">
        <ele>768</ele>
        <time>2023-07-30T09:08:22.000Z</time>
      </trkpt>
      <trkpt lat="43.71751" lon="7.03185">
        <ele>768.20001220703</ele>
        <time>2023-07-30T09:08:23.000Z</time>
      </trkpt>
      <trkpt lat="43.71751" lon="7.03185">
        <ele>768.20001220703</ele>
        <time>2023-07-30T09:08:24.000Z</time>
      </trkpt>
      <trkpt lat="43.71751" lon="7.03185">
        <ele>768.20001220703</ele>
        <time>2023-07-30T09:08:25.000Z</time>
      </trkpt>
      <trkpt lat="43.71751" lon="7.03185">
        <ele>768.20001220703</ele>
        <time>2023-07-30T09:08:26.000Z</time>
      </trkpt>
      <trkpt lat="43.71751" lon="7.03185">
        <ele>768.20001220703</ele>
        <time>2023-07-30T09:08:27.000Z</time>
      </trkpt>
      <trkpt lat="43.71751" lon="7.03184">
        <ele>768.20001220703</ele>
        <time>2023-07-30T09:08:28.000Z</time>
      </trkpt>
      <trkpt lat="43.71751" lon="7.03184">
        <ele>768.20001220703</ele>
        <time>2023-07-30T09:08:29.000Z</time>
      </trkpt>
      <trkpt lat="43.71751" lon="7.03184">
        <ele>768.20001220703</ele>
        <time>2023-07-30T09:08:30.000Z</time>
      </trkpt>
      <trkpt lat="43.71751" lon="7.03184">
        <ele>768.40002441406</ele>
        <time>2023-07-30T09:08:31.000Z</time>
      </trkpt>
      <trkpt lat="43.71751" lon="7.03184">
        <ele>768.40002441406</ele>
        <time>2023-07-30T09:08:32.000Z</time>
      </trkpt>
      <trkpt lat="43.71751" lon="7.03184">
        <ele>768.40002441406</ele>
        <time>2023-07-30T09:08:33.000Z</time>
      </trkpt>
      <trkpt lat="43.71751" lon="7.03184">
        <ele>768.40002441406</ele>
        <time>2023-07-30T09:08:34.000Z</time>
      </trkpt>
      <trkpt lat="43.71751" lon="7.03184">
        <ele>768.40002441406</ele>
        <time>2023-07-30T09:08:35.000Z</time>
      </trkpt>
      <trkpt lat="43.71751" lon="7.03184">
        <ele>768.40002441406</ele>
        <time>2023-07-30T09:08:36.000Z</time>
      </trkpt>
      <trkpt lat="43.71751" lon="7.03184">
        <ele>768.40002441406</ele>
        <time>2023-07-30T09:08:37.000Z</time>
      </trkpt>
      <trkpt lat="43.71751" lon="7.03184">
        <ele>768.40002441406</ele>
        <time>2023-07-30T09:08:38.000Z</time>
      </trkpt>
      <trkpt lat="43.71751" lon="7.03184">
        <ele>768.40002441406</ele>
        <time>2023-07-30T09:08:39.000Z</time>
      </trkpt>
      <trkpt lat="43.71751" lon="7.03184">
        <ele>768.20001220703</ele>
        <time>2023-07-30T09:08:40.000Z</time>
      </trkpt>
      <trkpt lat="43.71751" lon="7.03184">
        <ele>768.20001220703</ele>
        <time>2023-07-30T09:08:41.000Z</time>
      </trkpt>
      <trkpt lat="43.7175" lon="7.03182">
        <ele>768.20001220703</ele>
        <time>2023-07-30T09:08:42.000Z</time>
      </trkpt>
      <trkpt lat="43.7175" lon="7.03182">
        <ele>768.20001220703</ele>
        <time>2023-07-30T09:08:43.000Z</time>
      </trkpt>
      <trkpt lat="43.71749" lon="7.03182">
        <ele>768.20001220703</ele>
        <time>2023-07-30T09:08:44.000Z</time>
      </trkpt>
      <trkpt lat="43.71748" lon="7.03181">
        <ele>768.20001220703</ele>
        <time>2023-07-30T09:08:45.000Z</time>
      </trkpt>
      <trkpt lat="43.71747" lon="7.0318">
        <ele>768.20001220703</ele>
        <time>2023-07-30T09:08:46.000Z</time>
      </trkpt>
      <trkpt lat="43.71746" lon="7.03178">
        <ele>768.20001220703</ele>
        <time>2023-07-30T09:08:47.000Z</time>
      </trkpt>
      <trkpt lat="43.71744" lon="7.03176">
        <ele>768</ele>
        <time>2023-07-30T09:08:48.000Z</time>
      </trkpt>
      <trkpt lat="43.71742" lon="7.03174">
        <ele>767.79998779297</ele>
        <time>2023-07-30T09:08:49.000Z</time>
      </trkpt>
      <trkpt lat="43.7174" lon="7.03172">
        <ele>767.40002441406</ele>
        <time>2023-07-30T09:08:50.000Z</time>
      </trkpt>
      <trkpt lat="43.71737" lon="7.03168">
        <ele>767.20001220703</ele>
        <time>2023-07-30T09:08:51.000Z</time>
      </trkpt>
      <trkpt lat="43.71734" lon="7.03164">
        <ele>767</ele>
        <time>2023-07-30T09:08:52.000Z</time>
      </trkpt>
      <trkpt lat="43.7173" lon="7.03162">
        <ele>766.59997558594</ele>
        <time>2023-07-30T09:08:53.000Z</time>
      </trkpt>
      <trkpt lat="43.71726" lon="7.0316">
        <ele>765.79998779297</ele>
        <time>2023-07-30T09:08:54.000Z</time>
      </trkpt>
      <trkpt lat="43.7172" lon="7.03159">
        <ele>765.40002441406</ele>
        <time>2023-07-30T09:08:55.000Z</time>
      </trkpt>
      <trkpt lat="43.71715" lon="7.03157">
        <ele>765.40002441406</ele>
        <time>2023-07-30T09:08:56.000Z</time>
      </trkpt>
      <trkpt lat="43.71711" lon="7.03155">
        <ele>765</ele>
        <time>2023-07-30T09:08:57.000Z</time>
      </trkpt>
      <trkpt lat="43.71706" lon="7.03153">
        <ele>764.79998779297</ele>
        <time>2023-07-30T09:08:58.000Z</time>
      </trkpt>
      <trkpt lat="43.71702" lon="7.03152">
        <ele>764.40002441406</ele>
        <time>2023-07-30T09:08:59.000Z</time>
      </trkpt>
      <trkpt lat="43.71699" lon="7.0315">
        <ele>764.20001220703</ele>
        <time>2023-07-30T09:09:00.000Z</time>
      </trkpt>
      <trkpt lat="43.71696" lon="7.03148">
        <ele>764.20001220703</ele>
        <time>2023-07-30T09:09:01.000Z</time>
      </trkpt>
      <trkpt lat="43.71692" lon="7.03147">
        <ele>764</ele>
        <time>2023-07-30T09:09:02.000Z</time>
      </trkpt>
      <trkpt lat="43.71689" lon="7.03144">
        <ele>764</ele>
        <time>2023-07-30T09:09:03.000Z</time>
      </trkpt>
      <trkpt lat="43.71687" lon="7.0314">
        <ele>763.79998779297</ele>
        <time>2023-07-30T09:09:04.000Z</time>
      </trkpt>
      <trkpt lat="43.71684" lon="7.03137">
        <ele>763.79998779297</ele>
        <time>2023-07-30T09:09:05.000Z</time>
      </trkpt>
      <trkpt lat="43.71681" lon="7.03133">
        <ele>763.40002441406</ele>
        <time>2023-07-30T09:09:06.000Z</time>
      </trkpt>
      <trkpt lat="43.71678" lon="7.03128">
        <ele>763.40002441406</ele>
        <time>2023-07-30T09:09:07.000Z</time>
      </trkpt>
      <trkpt lat="43.71676" lon="7.03123">
        <ele>763.40002441406</ele>
        <time>2023-07-30T09:09:08.000Z</time>
      </trkpt>
      <trkpt lat="43.71673" lon="7.03118">
        <ele>763.20001220703</ele>
        <time>2023-07-30T09:09:09.000Z</time>
      </trkpt>
      <trkpt lat="43.71671" lon="7.03112">
        <ele>762.79998779297</ele>
        <time>2023-07-30T09:09:10.000Z</time>
      </trkpt>
      <trkpt lat="43.71669" lon="7.03107">
        <ele>762.40002441406</ele>
        <time>2023-07-30T09:09:11.000Z</time>
      </trkpt>
      <trkpt lat="43.71666" lon="7.031">
        <ele>762.40002441406</ele>
        <time>2023-07-30T09:09:12.000Z</time>
      </trkpt>
      <trkpt lat="43.71663" lon="7.03094">
        <ele>762.20001220703</ele>
        <time>2023-07-30T09:09:13.000Z</time>
      </trkpt>
      <trkpt lat="43.71659" lon="7.03089">
        <ele>761.79998779297</ele>
        <time>2023-07-30T09:09:14.000Z</time>
      </trkpt>
      <trkpt lat="43.71656" lon="7.03083">
        <ele>761.40002441406</ele>
        <time>2023-07-30T09:09:15.000Z</time>
      </trkpt>
      <trkpt lat="43.71651" lon="7.03077">
        <ele>761.40002441406</ele>
        <time>2023-07-30T09:09:16.000Z</time>
      </trkpt>
      <trkpt lat="43.71645" lon="7.0307">
        <ele>760.79998779297</ele>
        <time>2023-07-30T09:09:17.000Z</time>
      </trkpt>
      <trkpt lat="43.71639" lon="7.03063">
        <ele>760.59997558594</ele>
        <time>2023-07-30T09:09:18.000Z</time>
      </trkpt>
      <trkpt lat="43.71635" lon="7.03057">
        <ele>760.20001220703</ele>
        <time>2023-07-30T09:09:19.000Z</time>
      </trkpt>
      <trkpt lat="43.71631" lon="7.03053">
        <ele>759.79998779297</ele>
        <time>2023-07-30T09:09:20.000Z</time>
      </trkpt>
      <trkpt lat="43.71627" lon="7.03051">
        <ele>759.40002441406</ele>
        <time>2023-07-30T09:09:21.000Z</time>
      </trkpt>
      <trkpt lat="43.71623" lon="7.03051">
        <ele>758.59997558594</ele>
        <time>2023-07-30T09:09:22.000Z</time>
      </trkpt>
      <trkpt lat="43.7162" lon="7.03051">
        <ele>758.59997558594</ele>
        <time>2023-07-30T09:09:23.000Z</time>
      </trkpt>
      <trkpt lat="43.71616" lon="7.03051">
        <ele>758.40002441406</ele>
        <time>2023-07-30T09:09:24.000Z</time>
      </trkpt>
      <trkpt lat="43.71612" lon="7.03051">
        <ele>758.40002441406</ele>
        <time>2023-07-30T09:09:25.000Z</time>
      </trkpt>
      <trkpt lat="43.71608" lon="7.0305">
        <ele>758</ele>
        <time>2023-07-30T09:09:26.000Z</time>
      </trkpt>
      <trkpt lat="43.71604" lon="7.0305">
        <ele>757.79998779297</ele>
        <time>2023-07-30T09:09:27.000Z</time>
      </trkpt>
      <trkpt lat="43.71601" lon="7.0305">
        <ele>757.59997558594</ele>
        <time>2023-07-30T09:09:28.000Z</time>
      </trkpt>
      <trkpt lat="43.71597" lon="7.0305">
        <ele>757.59997558594</ele>
        <time>2023-07-30T09:09:29.000Z</time>
      </trkpt>
      <trkpt lat="43.71592" lon="7.0305">
        <ele>757.59997558594</ele>
        <time>2023-07-30T09:09:30.000Z</time>
      </trkpt>
      <trkpt lat="43.71587" lon="7.0305">
        <ele>757.59997558594</ele>
        <time>2023-07-30T09:09:31.000Z</time>
      </trkpt>
      <trkpt lat="43.71583" lon="7.0305">
        <ele>757.59997558594</ele>
        <time>2023-07-30T09:09:32.000Z</time>
      </trkpt>
      <trkpt lat="43.71579" lon="7.0305">
        <ele>757.40002441406</ele>
        <time>2023-07-30T09:09:33.000Z</time>
      </trkpt>
      <trkpt lat="43.71574" lon="7.03048">
        <ele>757.40002441406</ele>
        <time>2023-07-30T09:09:34.000Z</time>
      </trkpt>
      <trkpt lat="43.7157" lon="7.03047">
        <ele>756.79998779297</ele>
        <time>2023-07-30T09:09:35.000Z</time>
      </trkpt>
      <trkpt lat="43.71565" lon="7.03046">
        <ele>756.40002441406</ele>
        <time>2023-07-30T09:09:36.000Z</time>
      </trkpt>
      <trkpt lat="43.71561" lon="7.03044">
        <ele>755.79998779297</ele>
        <time>2023-07-30T09:09:37.000Z</time>
      </trkpt>
      <trkpt lat="43.71557" lon="7.03043">
        <ele>755.59997558594</ele>
        <time>2023-07-30T09:09:38.000Z</time>
      </trkpt>
      <trkpt lat="43.71554" lon="7.03041">
        <ele>755.59997558594</ele>
        <time>2023-07-30T09:09:39.000Z</time>
      </trkpt>
      <trkpt lat="43.71551" lon="7.0304">
        <ele>755</ele>
        <time>2023-07-30T09:09:40.000Z</time>
      </trkpt>
      <trkpt lat="43.7155" lon="7.03038">
        <ele>754.79998779297</ele>
        <time>2023-07-30T09:09:41.000Z</time>
      </trkpt>
      <trkpt lat="43.71547" lon="7.03037">
        <ele>754.59997558594</ele>
        <time>2023-07-30T09:09:42.000Z</time>
      </trkpt>
      <trkpt lat="43.71545" lon="7.03035">
        <ele>754.59997558594</ele>
        <time>2023-07-30T09:09:43.000Z</time>
      </trkpt>
      <trkpt lat="43.7154" lon="7.03032">
        <ele>754</ele>
        <time>2023-07-30T09:09:44.000Z</time>
      </trkpt>
      <trkpt lat="43.71536" lon="7.03031">
        <ele>753.79998779297</ele>
        <time>2023-07-30T09:09:45.000Z</time>
      </trkpt>
      <trkpt lat="43.71531" lon="7.03031">
        <ele>753.59997558594</ele>
        <time>2023-07-30T09:09:46.000Z</time>
      </trkpt>
      <trkpt lat="43.71527" lon="7.03031">
        <ele>753.20001220703</ele>
        <time>2023-07-30T09:09:47.000Z</time>
      </trkpt>
      <trkpt lat="43.71524" lon="7.03032">
        <ele>752.79998779297</ele>
        <time>2023-07-30T09:09:48.000Z</time>
      </trkpt>
      <trkpt lat="43.7152" lon="7.03033">
        <ele>752.79998779297</ele>
        <time>2023-07-30T09:09:49.000Z</time>
      </trkpt>
      <trkpt lat="43.71516" lon="7.03034">
        <ele>752.59997558594</ele>
        <time>2023-07-30T09:09:50.000Z</time>
      </trkpt>
      <trkpt lat="43.7151" lon="7.03035">
        <ele>752.20001220703</ele>
        <time>2023-07-30T09:09:51.000Z</time>
      </trkpt>
      <trkpt lat="43.71505" lon="7.03037">
        <ele>752</ele>
        <time>2023-07-30T09:09:52.000Z</time>
      </trkpt>
      <trkpt lat="43.715" lon="7.03038">
        <ele>751.79998779297</ele>
        <time>2023-07-30T09:09:53.000Z</time>
      </trkpt>
      <trkpt lat="43.71495" lon="7.03039">
        <ele>751.20001220703</ele>
        <time>2023-07-30T09:09:54.000Z</time>
      </trkpt>
      <trkpt lat="43.71489" lon="7.0304">
        <ele>751</ele>
        <time>2023-07-30T09:09:55.000Z</time>
      </trkpt>
      <trkpt lat="43.71484" lon="7.0304">
        <ele>751</ele>
        <time>2023-07-30T09:09:56.000Z</time>
      </trkpt>
      <trkpt lat="43.71478" lon="7.03041">
        <ele>750.79998779297</ele>
        <time>2023-07-30T09:09:57.000Z</time>
      </trkpt>
      <trkpt lat="43.71472" lon="7.03041">
        <ele>750.59997558594</ele>
        <time>2023-07-30T09:09:58.000Z</time>
      </trkpt>
      <trkpt lat="43.71467" lon="7.0304">
        <ele>749.79998779297</ele>
        <time>2023-07-30T09:09:59.000Z</time>
      </trkpt>
      <trkpt lat="43.71461" lon="7.03041">
        <ele>749.40002441406</ele>
        <time>2023-07-30T09:10:00.000Z</time>
      </trkpt>
      <trkpt lat="43.71456" lon="7.03043">
        <ele>749.40002441406</ele>
        <time>2023-07-30T09:10:01.000Z</time>
      </trkpt>
      <trkpt lat="43.71451" lon="7.03046">
        <ele>749.40002441406</ele>
        <time>2023-07-30T09:10:02.000Z</time>
      </trkpt>
      <trkpt lat="43.71446" lon="7.03049">
        <ele>748.79998779297</ele>
        <time>2023-07-30T09:10:03.000Z</time>
      </trkpt>
      <trkpt lat="43.71442" lon="7.03052">
        <ele>748.59997558594</ele>
        <time>2023-07-30T09:10:04.000Z</time>
      </trkpt>
      <trkpt lat="43.71437" lon="7.03055">
        <ele>748.59997558594</ele>
        <time>2023-07-30T09:10:05.000Z</time>
      </trkpt>
      <trkpt lat="43.71431" lon="7.03058">
        <ele>748.20001220703</ele>
        <time>2023-07-30T09:10:06.000Z</time>
      </trkpt>
      <trkpt lat="43.71428" lon="7.03061">
        <ele>748.20001220703</ele>
        <time>2023-07-30T09:10:07.000Z</time>
      </trkpt>
      <trkpt lat="43.71427" lon="7.03064">
        <ele>748.20001220703</ele>
        <time>2023-07-30T09:10:08.000Z</time>
      </trkpt>
      <trkpt lat="43.71427" lon="7.03067">
        <ele>747.59997558594</ele>
        <time>2023-07-30T09:10:09.000Z</time>
      </trkpt>
      <trkpt lat="43.71428" lon="7.03068">
        <ele>747.59997558594</ele>
        <time>2023-07-30T09:10:10.000Z</time>
      </trkpt>
      <trkpt lat="43.7143" lon="7.03068">
        <ele>747.40002441406</ele>
        <time>2023-07-30T09:10:11.000Z</time>
      </trkpt>
      <trkpt lat="43.71431" lon="7.03069">
        <ele>747.40002441406</ele>
        <time>2023-07-30T09:10:12.000Z</time>
      </trkpt>
      <trkpt lat="43.71432" lon="7.03068">
        <ele>746.40002441406</ele>
        <time>2023-07-30T09:10:13.000Z</time>
      </trkpt>
      <trkpt lat="43.71433" lon="7.03068">
        <ele>746</ele>
        <time>2023-07-30T09:10:14.000Z</time>
      </trkpt>
      <trkpt lat="43.71433" lon="7.03068">
        <ele>745</ele>
        <time>2023-07-30T09:10:15.000Z</time>
      </trkpt>
      <trkpt lat="43.71433" lon="7.03068">
        <ele>744.79998779297</ele>
        <time>2023-07-30T09:10:16.000Z</time>
      </trkpt>
      <trkpt lat="43.71433" lon="7.03068">
        <ele>744.59997558594</ele>
        <time>2023-07-30T09:10:17.000Z</time>
      </trkpt>
      <trkpt lat="43.71433" lon="7.03068">
        <ele>744.40002441406</ele>
        <time>2023-07-30T09:10:18.000Z</time>
      </trkpt>
      <trkpt lat="43.71433" lon="7.03068">
        <ele>744.20001220703</ele>
        <time>2023-07-30T09:10:19.000Z</time>
      </trkpt>
      <trkpt lat="43.71433" lon="7.03068">
        <ele>744.20001220703</ele>
        <time>2023-07-30T09:10:20.000Z</time>
      </trkpt>
      <trkpt lat="43.71433" lon="7.03068">
        <ele>744.20001220703</ele>
        <time>2023-07-30T09:10:21.000Z</time>
      </trkpt>
      <trkpt lat="43.71433" lon="7.03068">
        <ele>744</ele>
        <time>2023-07-30T09:10:22.000Z</time>
      </trkpt>
      <trkpt lat="43.71433" lon="7.03068">
        <ele>744</ele>
        <time>2023-07-30T09:10:23.000Z</time>
      </trkpt>
      <trkpt lat="43.71433" lon="7.03068">
        <ele>744</ele>
        <time>2023-07-30T09:10:24.000Z</time>
      </trkpt>
      <trkpt lat="43.71433" lon="7.03068">
        <ele>744</ele>
        <time>2023-07-30T09:10:25.000Z</time>
      </trkpt>
      <trkpt lat="43.71433" lon="7.03068">
        <ele>743.79998779297</ele>
        <time>2023-07-30T09:10:26.000Z</time>
      </trkpt>
      <trkpt lat="43.71433" lon="7.03068">
        <ele>743.79998779297</ele>
        <time>2023-07-30T09:10:27.000Z</time>
      </trkpt>
      <trkpt lat="43.71433" lon="7.03068">
        <ele>743.79998779297</ele>
        <time>2023-07-30T09:10:28.000Z</time>
      </trkpt>
      <trkpt lat="43.71433" lon="7.03068">
        <ele>743.79998779297</ele>
        <time>2023-07-30T09:10:29.000Z</time>
      </trkpt>
      <trkpt lat="43.71433" lon="7.03068">
        <ele>743.79998779297</ele>
        <time>2023-07-30T09:10:30.000Z</time>
      </trkpt>
      <trkpt lat="43.71433" lon="7.03068">
        <ele>743.59997558594</ele>
        <time>2023-07-30T09:10:31.000Z</time>
      </trkpt>
      <trkpt lat="43.71433" lon="7.03068">
        <ele>743.79998779297</ele>
        <time>2023-07-30T09:10:32.000Z</time>
      </trkpt>
      <trkpt lat="43.71433" lon="7.03068">
        <ele>743.79998779297</ele>
        <time>2023-07-30T09:10:33.000Z</time>
      </trkpt>
      <trkpt lat="43.71433" lon="7.03068">
        <ele>743.79998779297</ele>
        <time>2023-07-30T09:10:34.000Z</time>
      </trkpt>
      <trkpt lat="43.71433" lon="7.03068">
        <ele>743.59997558594</ele>
        <time>2023-07-30T09:10:35.000Z</time>
      </trkpt>
      <trkpt lat="43.71433" lon="7.03068">
        <ele>743.59997558594</ele>
        <time>2023-07-30T09:10:36.000Z</time>
      </trkpt>
      <trkpt lat="43.71433" lon="7.03068">
        <ele>743.59997558594</ele>
        <time>2023-07-30T09:10:37.000Z</time>
      </trkpt>
      <trkpt lat="43.71433" lon="7.03068">
        <ele>743.79998779297</ele>
        <time>2023-07-30T09:10:38.000Z</time>
      </trkpt>
      <trkpt lat="43.71433" lon="7.03068">
        <ele>743.59997558594</ele>
        <time>2023-07-30T09:10:39.000Z</time>
      </trkpt>
      <trkpt lat="43.71433" lon="7.03068">
        <ele>743.20001220703</ele>
        <time>2023-07-30T09:10:40.000Z</time>
      </trkpt>
      <trkpt lat="43.71433" lon="7.03068">
        <ele>743.20001220703</ele>
        <time>2023-07-30T09:10:41.000Z</time>
      </trkpt>
      <trkpt lat="43.71433" lon="7.03068">
        <ele>743.20001220703</ele>
        <time>2023-07-30T09:10:42.000Z</time>
      </trkpt>
      <trkpt lat="43.71433" lon="7.03068">
        <ele>743.20001220703</ele>
        <time>2023-07-30T09:10:43.000Z</time>
      </trkpt>
      <trkpt lat="43.71433" lon="7.03068">
        <ele>743.20001220703</ele>
        <time>2023-07-30T09:10:44.000Z</time>
      </trkpt>
      <trkpt lat="43.71433" lon="7.03068">
        <ele>743</ele>
        <time>2023-07-30T09:10:45.000Z</time>
      </trkpt>
      <trkpt lat="43.71433" lon="7.03068">
        <ele>743.20001220703</ele>
        <time>2023-07-30T09:10:46.000Z</time>
      </trkpt>
      <trkpt lat="43.71433" lon="7.03068">
        <ele>743.40002441406</ele>
        <time>2023-07-30T09:10:47.000Z</time>
      </trkpt>
      <trkpt lat="43.71433" lon="7.03068">
        <ele>743.59997558594</ele>
        <time>2023-07-30T09:10:48.000Z</time>
      </trkpt>
      <trkpt lat="43.71433" lon="7.03068">
        <ele>744</ele>
        <time>2023-07-30T09:10:49.000Z</time>
      </trkpt>
      <trkpt lat="43.71433" lon="7.03068">
        <ele>744</ele>
        <time>2023-07-30T09:10:50.000Z</time>
      </trkpt>
      <trkpt lat="43.71433" lon="7.03068">
        <ele>743.40002441406</ele>
        <time>2023-07-30T09:10:51.000Z</time>
      </trkpt>
      <trkpt lat="43.71433" lon="7.03068">
        <ele>743.40002441406</ele>
        <time>2023-07-30T09:10:52.000Z</time>
      </trkpt>
      <trkpt lat="43.71433" lon="7.03068">
        <ele>743.40002441406</ele>
        <time>2023-07-30T09:10:53.000Z</time>
      </trkpt>
      <trkpt lat="43.71433" lon="7.03068">
        <ele>743.20001220703</ele>
        <time>2023-07-30T09:10:54.000Z</time>
      </trkpt>
      <trkpt lat="43.71433" lon="7.03068">
        <ele>743.20001220703</ele>
        <time>2023-07-30T09:10:55.000Z</time>
      </trkpt>
      <trkpt lat="43.71433" lon="7.03068">
        <ele>743.20001220703</ele>
        <time>2023-07-30T09:10:56.000Z</time>
      </trkpt>
      <trkpt lat="43.71433" lon="7.03068">
        <ele>743.20001220703</ele>
        <time>2023-07-30T09:10:57.000Z</time>
      </trkpt>
      <trkpt lat="43.71433" lon="7.03068">
        <ele>743.20001220703</ele>
        <time>2023-07-30T09:10:58.000Z</time>
      </trkpt>
      <trkpt lat="43.71433" lon="7.03068">
        <ele>743.20001220703</ele>
        <time>2023-07-30T09:10:59.000Z</time>
      </trkpt>
      <trkpt lat="43.71433" lon="7.03068">
        <ele>743.59997558594</ele>
        <time>2023-07-30T09:11:00.000Z</time>
      </trkpt>
      <trkpt lat="43.71433" lon="7.03068">
        <ele>743.40002441406</ele>
        <time>2023-07-30T09:11:01.000Z</time>
      </trkpt>
      <trkpt lat="43.71433" lon="7.03068">
        <ele>743.40002441406</ele>
        <time>2023-07-30T09:11:02.000Z</time>
      </trkpt>
      <trkpt lat="43.71433" lon="7.03068">
        <ele>743.40002441406</ele>
        <time>2023-07-30T09:11:03.000Z</time>
      </trkpt>
      <trkpt lat="43.71433" lon="7.03068">
        <ele>743.40002441406</ele>
        <time>2023-07-30T09:11:04.000Z</time>
      </trkpt>
      <trkpt lat="43.71433" lon="7.03068">
        <ele>743.40002441406</ele>
        <time>2023-07-30T09:11:05.000Z</time>
      </trkpt>
      <trkpt lat="43.71433" lon="7.03068">
        <ele>743.40002441406</ele>
        <time>2023-07-30T09:11:06.000Z</time>
      </trkpt>
      <trkpt lat="43.71433" lon="7.03068">
        <ele>743.40002441406</ele>
        <time>2023-07-30T09:11:07.000Z</time>
      </trkpt>
      <trkpt lat="43.71433" lon="7.03068">
        <ele>743.59997558594</ele>
        <time>2023-07-30T09:11:08.000Z</time>
      </trkpt>
      <trkpt lat="43.71433" lon="7.03068">
        <ele>743.59997558594</ele>
        <time>2023-07-30T09:11:09.000Z</time>
      </trkpt>
      <trkpt lat="43.71433" lon="7.03068">
        <ele>743.59997558594</ele>
        <time>2023-07-30T09:11:10.000Z</time>
      </trkpt>
      <trkpt lat="43.71433" lon="7.03068">
        <ele>743.59997558594</ele>
        <time>2023-07-30T09:11:11.000Z</time>
      </trkpt>
      <trkpt lat="43.71433" lon="7.03069">
        <ele>743.79998779297</ele>
        <time>2023-07-30T09:11:12.000Z</time>
      </trkpt>
      <trkpt lat="43.71433" lon="7.03069">
        <ele>743.79998779297</ele>
        <time>2023-07-30T09:11:13.000Z</time>
      </trkpt>
      <trkpt lat="43.71434" lon="7.03068">
        <ele>743.59997558594</ele>
        <time>2023-07-30T09:11:14.000Z</time>
      </trkpt>
      <trkpt lat="43.71436" lon="7.03069">
        <ele>743.59997558594</ele>
        <time>2023-07-30T09:11:15.000Z</time>
      </trkpt>
      <trkpt lat="43.71437" lon="7.03068">
        <ele>743.59997558594</ele>
        <time>2023-07-30T09:11:16.000Z</time>
      </trkpt>
      <trkpt lat="43.71439" lon="7.03068">
        <ele>743.40002441406</ele>
        <time>2023-07-30T09:11:17.000Z</time>
      </trkpt>
      <trkpt lat="43.71442" lon="7.03067">
        <ele>743.20001220703</ele>
        <time>2023-07-30T09:11:18.000Z</time>
      </trkpt>
      <trkpt lat="43.71444" lon="7.03065">
        <ele>743.20001220703</ele>
        <time>2023-07-30T09:11:19.000Z</time>
      </trkpt>
      <trkpt lat="43.71448" lon="7.03064">
        <ele>743</ele>
        <time>2023-07-30T09:11:20.000Z</time>
      </trkpt>
      <trkpt lat="43.71452" lon="7.03064">
        <ele>742</ele>
        <time>2023-07-30T09:11:21.000Z</time>
      </trkpt>
      <trkpt lat="43.71457" lon="7.03066">
        <ele>741.79998779297</ele>
        <time>2023-07-30T09:11:22.000Z</time>
      </trkpt>
      <trkpt lat="43.7146" lon="7.03069">
        <ele>741.59997558594</ele>
        <time>2023-07-30T09:11:23.000Z</time>
      </trkpt>
      <trkpt lat="43.71464" lon="7.0307">
        <ele>741.59997558594</ele>
        <time>2023-07-30T09:11:24.000Z</time>
      </trkpt>
      <trkpt lat="43.71468" lon="7.03072">
        <ele>740.40002441406</ele>
        <time>2023-07-30T09:11:25.000Z</time>
      </trkpt>
      <trkpt lat="43.71472" lon="7.03073">
        <ele>739.79998779297</ele>
        <time>2023-07-30T09:11:26.000Z</time>
      </trkpt>
      <trkpt lat="43.71475" lon="7.03075">
        <ele>739</ele>
        <time>2023-07-30T09:11:27.000Z</time>
      </trkpt>
      <trkpt lat="43.71478" lon="7.03076">
        <ele>738.79998779297</ele>
        <time>2023-07-30T09:11:28.000Z</time>
      </trkpt>
      <trkpt lat="43.71481" lon="7.03077">
        <ele>737.20001220703</ele>
        <time>2023-07-30T09:11:29.000Z</time>
      </trkpt>
      <trkpt lat="43.71484" lon="7.03078">
        <ele>737.20001220703</ele>
        <time>2023-07-30T09:11:30.000Z</time>
      </trkpt>
      <trkpt lat="43.71487" lon="7.03078">
        <ele>736.59997558594</ele>
        <time>2023-07-30T09:11:31.000Z</time>
      </trkpt>
      <trkpt lat="43.71489" lon="7.03079">
        <ele>736</ele>
        <time>2023-07-30T09:11:32.000Z</time>
      </trkpt>
      <trkpt lat="43.71492" lon="7.03081">
        <ele>735</ele>
        <time>2023-07-30T09:11:33.000Z</time>
      </trkpt>
      <trkpt lat="43.71494" lon="7.03083">
        <ele>734.40002441406</ele>
        <time>2023-07-30T09:11:34.000Z</time>
      </trkpt>
      <trkpt lat="43.71496" lon="7.03084">
        <ele>734</ele>
        <time>2023-07-30T09:11:35.000Z</time>
      </trkpt>
      <trkpt lat="43.71496" lon="7.03085">
        <ele>733</ele>
        <time>2023-07-30T09:11:36.000Z</time>
      </trkpt>
      <trkpt lat="43.71496" lon="7.03085">
        <ele>732.79998779297</ele>
        <time>2023-07-30T09:11:37.000Z</time>
      </trkpt>
      <trkpt lat="43.71496" lon="7.03085">
        <ele>732.40002441406</ele>
        <time>2023-07-30T09:11:38.000Z</time>
      </trkpt>
      <trkpt lat="43.71496" lon="7.03085">
        <ele>732.20001220703</ele>
        <time>2023-07-30T09:11:39.000Z</time>
      </trkpt>
      <trkpt lat="43.71496" lon="7.03085">
        <ele>731.79998779297</ele>
        <time>2023-07-30T09:11:40.000Z</time>
      </trkpt>
      <trkpt lat="43.71498" lon="7.03085">
        <ele>731.59997558594</ele>
        <time>2023-07-30T09:11:41.000Z</time>
      </trkpt>
      <trkpt lat="43.71498" lon="7.03085">
        <ele>731.40002441406</ele>
        <time>2023-07-30T09:11:42.000Z</time>
      </trkpt>
      <trkpt lat="43.71498" lon="7.03084">
        <ele>731.20001220703</ele>
        <time>2023-07-30T09:11:43.000Z</time>
      </trkpt>
      <trkpt lat="43.71498" lon="7.03084">
        <ele>731.20001220703</ele>
        <time>2023-07-30T09:11:44.000Z</time>
      </trkpt>
      <trkpt lat="43.71498" lon="7.03084">
        <ele>731.20001220703</ele>
        <time>2023-07-30T09:11:45.000Z</time>
      </trkpt>
      <trkpt lat="43.71499" lon="7.03084">
        <ele>731.20001220703</ele>
        <time>2023-07-30T09:11:46.000Z</time>
      </trkpt>
      <trkpt lat="43.71499" lon="7.03084">
        <ele>731.20001220703</ele>
        <time>2023-07-30T09:11:47.000Z</time>
      </trkpt>
      <trkpt lat="43.71499" lon="7.03084">
        <ele>731.40002441406</ele>
        <time>2023-07-30T09:11:48.000Z</time>
      </trkpt>
      <trkpt lat="43.71499" lon="7.03084">
        <ele>731.40002441406</ele>
        <time>2023-07-30T09:11:49.000Z</time>
      </trkpt>
      <trkpt lat="43.71499" lon="7.03084">
        <ele>731.40002441406</ele>
        <time>2023-07-30T09:11:50.000Z</time>
      </trkpt>
      <trkpt lat="43.71499" lon="7.03085">
        <ele>731.40002441406</ele>
        <time>2023-07-30T09:11:51.000Z</time>
      </trkpt>
      <trkpt lat="43.71499" lon="7.03085">
        <ele>731.40002441406</ele>
        <time>2023-07-30T09:11:52.000Z</time>
      </trkpt>
      <trkpt lat="43.71499" lon="7.03085">
        <ele>731.40002441406</ele>
        <time>2023-07-30T09:11:53.000Z</time>
      </trkpt>
      <trkpt lat="43.71499" lon="7.03085">
        <ele>731.40002441406</ele>
        <time>2023-07-30T09:11:54.000Z</time>
      </trkpt>
      <trkpt lat="43.71499" lon="7.03084">
        <ele>731.40002441406</ele>
        <time>2023-07-30T09:11:55.000Z</time>
      </trkpt>
      <trkpt lat="43.715" lon="7.03085">
        <ele>731.40002441406</ele>
        <time>2023-07-30T09:11:56.000Z</time>
      </trkpt>
      <trkpt lat="43.71501" lon="7.03085">
        <ele>731.40002441406</ele>
        <time>2023-07-30T09:11:57.000Z</time>
      </trkpt>
      <trkpt lat="43.71503" lon="7.03085">
        <ele>731.40002441406</ele>
        <time>2023-07-30T09:11:58.000Z</time>
      </trkpt>
      <trkpt lat="43.71504" lon="7.03085">
        <ele>731.40002441406</ele>
        <time>2023-07-30T09:11:59.000Z</time>
      </trkpt>
      <trkpt lat="43.71506" lon="7.03085">
        <ele>731.20001220703</ele>
        <time>2023-07-30T09:12:00.000Z</time>
      </trkpt>
      <trkpt lat="43.71508" lon="7.03085">
        <ele>731</ele>
        <time>2023-07-30T09:12:01.000Z</time>
      </trkpt>
      <trkpt lat="43.71511" lon="7.03085">
        <ele>731</ele>
        <time>2023-07-30T09:12:02.000Z</time>
      </trkpt>
      <trkpt lat="43.71514" lon="7.03086">
        <ele>730.79998779297</ele>
        <time>2023-07-30T09:12:03.000Z</time>
      </trkpt>
      <trkpt lat="43.71516" lon="7.03087">
        <ele>730.59997558594</ele>
        <time>2023-07-30T09:12:04.000Z</time>
      </trkpt>
      <trkpt lat="43.71518" lon="7.03088">
        <ele>730.59997558594</ele>
        <time>2023-07-30T09:12:05.000Z</time>
      </trkpt>
      <trkpt lat="43.71521" lon="7.0309">
        <ele>729.79998779297</ele>
        <time>2023-07-30T09:12:06.000Z</time>
      </trkpt>
      <trkpt lat="43.71524" lon="7.03092">
        <ele>729.79998779297</ele>
        <time>2023-07-30T09:12:07.000Z</time>
      </trkpt>
      <trkpt lat="43.71527" lon="7.03094">
        <ele>729.40002441406</ele>
        <time>2023-07-30T09:12:08.000Z</time>
      </trkpt>
      <trkpt lat="43.71529" lon="7.03095">
        <ele>729.40002441406</ele>
        <time>2023-07-30T09:12:09.000Z</time>
      </trkpt>
      <trkpt lat="43.71531" lon="7.03098">
        <ele>729.20001220703</ele>
        <time>2023-07-30T09:12:10.000Z</time>
      </trkpt>
      <trkpt lat="43.71533" lon="7.03102">
        <ele>729.20001220703</ele>
        <time>2023-07-30T09:12:11.000Z</time>
      </trkpt>
      <trkpt lat="43.71536" lon="7.03106">
        <ele>729</ele>
        <time>2023-07-30T09:12:12.000Z</time>
      </trkpt>
      <trkpt lat="43.7154" lon="7.03109">
        <ele>729</ele>
        <time>2023-07-30T09:12:13.000Z</time>
      </trkpt>
      <trkpt lat="43.71544" lon="7.03113">
        <ele>728.59997558594</ele>
        <time>2023-07-30T09:12:14.000Z</time>
      </trkpt>
      <trkpt lat="43.71547" lon="7.03115">
        <ele>728</ele>
        <time>2023-07-30T09:12:15.000Z</time>
      </trkpt>
      <trkpt lat="43.71551" lon="7.03117">
        <ele>727.40002441406</ele>
        <time>2023-07-30T09:12:16.000Z</time>
      </trkpt>
      <trkpt lat="43.71553" lon="7.0312">
        <ele>727.40002441406</ele>
        <time>2023-07-30T09:12:17.000Z</time>
      </trkpt>
      <trkpt lat="43.71556" lon="7.03123">
        <ele>727.40002441406</ele>
        <time>2023-07-30T09:12:18.000Z</time>
      </trkpt>
      <trkpt lat="43.7156" lon="7.03126">
        <ele>727.40002441406</ele>
        <time>2023-07-30T09:12:19.000Z</time>
      </trkpt>
      <trkpt lat="43.71565" lon="7.03129">
        <ele>727</ele>
        <time>2023-07-30T09:12:20.000Z</time>
      </trkpt>
      <trkpt lat="43.71569" lon="7.0313">
        <ele>726.20001220703</ele>
        <time>2023-07-30T09:12:21.000Z</time>
      </trkpt>
      <trkpt lat="43.71574" lon="7.0313">
        <ele>725.79998779297</ele>
        <time>2023-07-30T09:12:22.000Z</time>
      </trkpt>
      <trkpt lat="43.71578" lon="7.03131">
        <ele>725.40002441406</ele>
        <time>2023-07-30T09:12:23.000Z</time>
      </trkpt>
      <trkpt lat="43.71582" lon="7.03131">
        <ele>725</ele>
        <time>2023-07-30T09:12:24.000Z</time>
      </trkpt>
      <trkpt lat="43.71586" lon="7.03132">
        <ele>724.79998779297</ele>
        <time>2023-07-30T09:12:25.000Z</time>
      </trkpt>
      <trkpt lat="43.71589" lon="7.03134">
        <ele>724.40002441406</ele>
        <time>2023-07-30T09:12:26.000Z</time>
      </trkpt>
      <trkpt lat="43.71592" lon="7.03134">
        <ele>724.20001220703</ele>
        <time>2023-07-30T09:12:27.000Z</time>
      </trkpt>
      <trkpt lat="43.71595" lon="7.03136">
        <ele>724</ele>
        <time>2023-07-30T09:12:28.000Z</time>
      </trkpt>
      <trkpt lat="43.71596" lon="7.03139">
        <ele>723.79998779297</ele>
        <time>2023-07-30T09:12:29.000Z</time>
      </trkpt>
      <trkpt lat="43.71597" lon="7.03142">
        <ele>723.79998779297</ele>
        <time>2023-07-30T09:12:30.000Z</time>
      </trkpt>
      <trkpt lat="43.71596" lon="7.03145">
        <ele>723.59997558594</ele>
        <time>2023-07-30T09:12:31.000Z</time>
      </trkpt>
      <trkpt lat="43.71596" lon="7.03149">
        <ele>722.59997558594</ele>
        <time>2023-07-30T09:12:32.000Z</time>
      </trkpt>
      <trkpt lat="43.71596" lon="7.03153">
        <ele>722.59997558594</ele>
        <time>2023-07-30T09:12:33.000Z</time>
      </trkpt>
      <trkpt lat="43.71596" lon="7.03157">
        <ele>721.79998779297</ele>
        <time>2023-07-30T09:12:34.000Z</time>
      </trkpt>
      <trkpt lat="43.71596" lon="7.03161">
        <ele>721</ele>
        <time>2023-07-30T09:12:35.000Z</time>
      </trkpt>
      <trkpt lat="43.71595" lon="7.03165">
        <ele>720.20001220703</ele>
        <time>2023-07-30T09:12:36.000Z</time>
      </trkpt>
      <trkpt lat="43.71596" lon="7.03169">
        <ele>719.59997558594</ele>
        <time>2023-07-30T09:12:37.000Z</time>
      </trkpt>
      <trkpt lat="43.71596" lon="7.03174">
        <ele>719</ele>
        <time>2023-07-30T09:12:38.000Z</time>
      </trkpt>
      <trkpt lat="43.71596" lon="7.03178">
        <ele>718.79998779297</ele>
        <time>2023-07-30T09:12:39.000Z</time>
      </trkpt>
      <trkpt lat="43.71595" lon="7.03183">
        <ele>717.79998779297</ele>
        <time>2023-07-30T09:12:40.000Z</time>
      </trkpt>
      <trkpt lat="43.71594" lon="7.03187">
        <ele>717.59997558594</ele>
        <time>2023-07-30T09:12:41.000Z</time>
      </trkpt>
      <trkpt lat="43.71594" lon="7.03192">
        <ele>717.20001220703</ele>
        <time>2023-07-30T09:12:42.000Z</time>
      </trkpt>
      <trkpt lat="43.71594" lon="7.03197">
        <ele>716.40002441406</ele>
        <time>2023-07-30T09:12:43.000Z</time>
      </trkpt>
      <trkpt lat="43.71594" lon="7.03201">
        <ele>715.40002441406</ele>
        <time>2023-07-30T09:12:44.000Z</time>
      </trkpt>
      <trkpt lat="43.71594" lon="7.03206">
        <ele>714.79998779297</ele>
        <time>2023-07-30T09:12:45.000Z</time>
      </trkpt>
      <trkpt lat="43.71594" lon="7.0321">
        <ele>714.79998779297</ele>
        <time>2023-07-30T09:12:46.000Z</time>
      </trkpt>
      <trkpt lat="43.71593" lon="7.03213">
        <ele>713.20001220703</ele>
        <time>2023-07-30T09:12:47.000Z</time>
      </trkpt>
      <trkpt lat="43.71593" lon="7.03218">
        <ele>713.20001220703</ele>
        <time>2023-07-30T09:12:48.000Z</time>
      </trkpt>
      <trkpt lat="43.71593" lon="7.03222">
        <ele>712.40002441406</ele>
        <time>2023-07-30T09:12:49.000Z</time>
      </trkpt>
      <trkpt lat="43.71594" lon="7.03227">
        <ele>711.79998779297</ele>
        <time>2023-07-30T09:12:50.000Z</time>
      </trkpt>
      <trkpt lat="43.71594" lon="7.03232">
        <ele>711.40002441406</ele>
        <time>2023-07-30T09:12:51.000Z</time>
      </trkpt>
      <trkpt lat="43.71594" lon="7.03236">
        <ele>710.40002441406</ele>
        <time>2023-07-30T09:12:52.000Z</time>
      </trkpt>
      <trkpt lat="43.71595" lon="7.0324">
        <ele>709.79998779297</ele>
        <time>2023-07-30T09:12:53.000Z</time>
      </trkpt>
      <trkpt lat="43.71595" lon="7.03244">
        <ele>709.20001220703</ele>
        <time>2023-07-30T09:12:54.000Z</time>
      </trkpt>
      <trkpt lat="43.71596" lon="7.03247">
        <ele>707.79998779297</ele>
        <time>2023-07-30T09:12:55.000Z</time>
      </trkpt>
      <trkpt lat="43.71596" lon="7.03251">
        <ele>707.59997558594</ele>
        <time>2023-07-30T09:12:56.000Z</time>
      </trkpt>
      <trkpt lat="43.71596" lon="7.03254">
        <ele>707</ele>
        <time>2023-07-30T09:12:57.000Z</time>
      </trkpt>
      <trkpt lat="43.71595" lon="7.03257">
        <ele>706.79998779297</ele>
        <time>2023-07-30T09:12:58.000Z</time>
      </trkpt>
      <trkpt lat="43.71595" lon="7.03259">
        <ele>706.40002441406</ele>
        <time>2023-07-30T09:12:59.000Z</time>
      </trkpt>
      <trkpt lat="43.71595" lon="7.03259">
        <ele>705.59997558594</ele>
        <time>2023-07-30T09:13:00.000Z</time>
      </trkpt>
      <trkpt lat="43.71595" lon="7.0326">
        <ele>705</ele>
        <time>2023-07-30T09:13:01.000Z</time>
      </trkpt>
      <trkpt lat="43.71595" lon="7.0326">
        <ele>704.79998779297</ele>
        <time>2023-07-30T09:13:02.000Z</time>
      </trkpt>
      <trkpt lat="43.71595" lon="7.0326">
        <ele>704.59997558594</ele>
        <time>2023-07-30T09:13:03.000Z</time>
      </trkpt>
      <trkpt lat="43.71595" lon="7.0326">
        <ele>704.40002441406</ele>
        <time>2023-07-30T09:13:04.000Z</time>
      </trkpt>
      <trkpt lat="43.71595" lon="7.0326">
        <ele>704.40002441406</ele>
        <time>2023-07-30T09:13:05.000Z</time>
      </trkpt>
      <trkpt lat="43.71595" lon="7.0326">
        <ele>704.40002441406</ele>
        <time>2023-07-30T09:13:06.000Z</time>
      </trkpt>
      <trkpt lat="43.71595" lon="7.03259">
        <ele>704.20001220703</ele>
        <time>2023-07-30T09:13:07.000Z</time>
      </trkpt>
      <trkpt lat="43.71595" lon="7.03259">
        <ele>704.20001220703</ele>
        <time>2023-07-30T09:13:08.000Z</time>
      </trkpt>
      <trkpt lat="43.71594" lon="7.03259">
        <ele>704.20001220703</ele>
        <time>2023-07-30T09:13:09.000Z</time>
      </trkpt>
      <trkpt lat="43.71594" lon="7.03259">
        <ele>704.40002441406</ele>
        <time>2023-07-30T09:13:10.000Z</time>
      </trkpt>
      <trkpt lat="43.71594" lon="7.03259">
        <ele>705.20001220703</ele>
        <time>2023-07-30T09:13:11.000Z</time>
      </trkpt>
      <trkpt lat="43.71594" lon="7.03259">
        <ele>705.20001220703</ele>
        <time>2023-07-30T09:13:12.000Z</time>
      </trkpt>
      <trkpt lat="43.71594" lon="7.03259">
        <ele>705.20001220703</ele>
        <time>2023-07-30T09:13:13.000Z</time>
      </trkpt>
      <trkpt lat="43.71594" lon="7.03259">
        <ele>705.20001220703</ele>
        <time>2023-07-30T09:13:14.000Z</time>
      </trkpt>
      <trkpt lat="43.71594" lon="7.03259">
        <ele>705.20001220703</ele>
        <time>2023-07-30T09:13:15.000Z</time>
      </trkpt>
      <trkpt lat="43.71594" lon="7.03259">
        <ele>704.79998779297</ele>
        <time>2023-07-30T09:13:16.000Z</time>
      </trkpt>
      <trkpt lat="43.71594" lon="7.03259">
        <ele>704.40002441406</ele>
        <time>2023-07-30T09:13:17.000Z</time>
      </trkpt>
      <trkpt lat="43.71594" lon="7.03259">
        <ele>704.20001220703</ele>
        <time>2023-07-30T09:13:18.000Z</time>
      </trkpt>
      <trkpt lat="43.71594" lon="7.03259">
        <ele>704.20001220703</ele>
        <time>2023-07-30T09:13:19.000Z</time>
      </trkpt>
      <trkpt lat="43.71594" lon="7.03259">
        <ele>704.20001220703</ele>
        <time>2023-07-30T09:13:20.000Z</time>
      </trkpt>
      <trkpt lat="43.71594" lon="7.03259">
        <ele>704.20001220703</ele>
        <time>2023-07-30T09:13:21.000Z</time>
      </trkpt>
      <trkpt lat="43.71594" lon="7.03259">
        <ele>704.20001220703</ele>
        <time>2023-07-30T09:13:22.000Z</time>
      </trkpt>
      <trkpt lat="43.71594" lon="7.03259">
        <ele>704.20001220703</ele>
        <time>2023-07-30T09:13:23.000Z</time>
      </trkpt>
      <trkpt lat="43.71594" lon="7.03259">
        <ele>704.20001220703</ele>
        <time>2023-07-30T09:13:24.000Z</time>
      </trkpt>
      <trkpt lat="43.71594" lon="7.03259">
        <ele>704.20001220703</ele>
        <time>2023-07-30T09:13:25.000Z</time>
      </trkpt>
      <trkpt lat="43.71594" lon="7.03259">
        <ele>704.20001220703</ele>
        <time>2023-07-30T09:13:26.000Z</time>
      </trkpt>
      <trkpt lat="43.71594" lon="7.03259">
        <ele>704</ele>
        <time>2023-07-30T09:13:27.000Z</time>
      </trkpt>
      <trkpt lat="43.71594" lon="7.03259">
        <ele>704</ele>
        <time>2023-07-30T09:13:28.000Z</time>
      </trkpt>
      <trkpt lat="43.71594" lon="7.03259">
        <ele>704</ele>
        <time>2023-07-30T09:13:29.000Z</time>
      </trkpt>
      <trkpt lat="43.71594" lon="7.03259">
        <ele>704</ele>
        <time>2023-07-30T09:13:30.000Z</time>
      </trkpt>
      <trkpt lat="43.71594" lon="7.03259">
        <ele>704</ele>
        <time>2023-07-30T09:13:31.000Z</time>
      </trkpt>
      <trkpt lat="43.71594" lon="7.03259">
        <ele>704</ele>
        <time>2023-07-30T09:13:32.000Z</time>
      </trkpt>
      <trkpt lat="43.71594" lon="7.03259">
        <ele>704</ele>
        <time>2023-07-30T09:13:33.000Z</time>
      </trkpt>
      <trkpt lat="43.71594" lon="7.03259">
        <ele>704.20001220703</ele>
        <time>2023-07-30T09:13:34.000Z</time>
      </trkpt>
      <trkpt lat="43.71594" lon="7.03259">
        <ele>704.20001220703</ele>
        <time>2023-07-30T09:13:35.000Z</time>
      </trkpt>
      <trkpt lat="43.71594" lon="7.03259">
        <ele>704.20001220703</ele>
        <time>2023-07-30T09:13:36.000Z</time>
      </trkpt>
      <trkpt lat="43.71594" lon="7.03259">
        <ele>704.20001220703</ele>
        <time>2023-07-30T09:13:37.000Z</time>
      </trkpt>
      <trkpt lat="43.71594" lon="7.03259">
        <ele>704.20001220703</ele>
        <time>2023-07-30T09:13:38.000Z</time>
      </trkpt>
      <trkpt lat="43.71594" lon="7.03259">
        <ele>704</ele>
        <time>2023-07-30T09:13:39.000Z</time>
      </trkpt>
      <trkpt lat="43.71594" lon="7.03259">
        <ele>704</ele>
        <time>2023-07-30T09:13:40.000Z</time>
      </trkpt>
      <trkpt lat="43.71594" lon="7.03259">
        <ele>704</ele>
        <time>2023-07-30T09:13:41.000Z</time>
      </trkpt>
      <trkpt lat="43.71594" lon="7.03259">
        <ele>704</ele>
        <time>2023-07-30T09:13:42.000Z</time>
      </trkpt>
      <trkpt lat="43.71594" lon="7.03259">
        <ele>704</ele>
        <time>2023-07-30T09:13:43.000Z</time>
      </trkpt>
      <trkpt lat="43.71594" lon="7.03259">
        <ele>704</ele>
        <time>2023-07-30T09:13:44.000Z</time>
      </trkpt>
      <trkpt lat="43.71594" lon="7.03259">
        <ele>704.20001220703</ele>
        <time>2023-07-30T09:13:45.000Z</time>
      </trkpt>
      <trkpt lat="43.71594" lon="7.03259">
        <ele>704.20001220703</ele>
        <time>2023-07-30T09:13:46.000Z</time>
      </trkpt>
      <trkpt lat="43.71594" lon="7.03259">
        <ele>704.20001220703</ele>
        <time>2023-07-30T09:13:47.000Z</time>
      </trkpt>
      <trkpt lat="43.71594" lon="7.03259">
        <ele>704.20001220703</ele>
        <time>2023-07-30T09:13:48.000Z</time>
      </trkpt>
      <trkpt lat="43.71594" lon="7.03259">
        <ele>704.20001220703</ele>
        <time>2023-07-30T09:13:49.000Z</time>
      </trkpt>
      <trkpt lat="43.71594" lon="7.03259">
        <ele>704.20001220703</ele>
        <time>2023-07-30T09:13:50.000Z</time>
      </trkpt>
      <trkpt lat="43.71594" lon="7.03259">
        <ele>704.20001220703</ele>
        <time>2023-07-30T09:13:51.000Z</time>
      </trkpt>
      <trkpt lat="43.71594" lon="7.03259">
        <ele>704.20001220703</ele>
        <time>2023-07-30T09:13:52.000Z</time>
      </trkpt>
      <trkpt lat="43.71594" lon="7.03259">
        <ele>704.20001220703</ele>
        <time>2023-07-30T09:13:53.000Z</time>
      </trkpt>
      <trkpt lat="43.71594" lon="7.03259">
        <ele>704.20001220703</ele>
        <time>2023-07-30T09:13:54.000Z</time>
      </trkpt>
      <trkpt lat="43.71594" lon="7.03259">
        <ele>704.20001220703</ele>
        <time>2023-07-30T09:13:55.000Z</time>
      </trkpt>
      <trkpt lat="43.71594" lon="7.03259">
        <ele>704.20001220703</ele>
        <time>2023-07-30T09:13:56.000Z</time>
      </trkpt>
      <trkpt lat="43.71594" lon="7.03259">
        <ele>704.20001220703</ele>
        <time>2023-07-30T09:13:57.000Z</time>
      </trkpt>
      <trkpt lat="43.71594" lon="7.03259">
        <ele>704.20001220703</ele>
        <time>2023-07-30T09:13:58.000Z</time>
      </trkpt>
      <trkpt lat="43.71594" lon="7.03259">
        <ele>704.20001220703</ele>
        <time>2023-07-30T09:13:59.000Z</time>
      </trkpt>
      <trkpt lat="43.71594" lon="7.03259">
        <ele>704.20001220703</ele>
        <time>2023-07-30T09:14:00.000Z</time>
      </trkpt>
      <trkpt lat="43.71595" lon="7.0326">
        <ele>704.20001220703</ele>
        <time>2023-07-30T09:14:01.000Z</time>
      </trkpt>
      <trkpt lat="43.71596" lon="7.03261">
        <ele>704</ele>
        <time>2023-07-30T09:14:02.000Z</time>
      </trkpt>
      <trkpt lat="43.71596" lon="7.03261">
        <ele>704</ele>
        <time>2023-07-30T09:14:03.000Z</time>
      </trkpt>
      <trkpt lat="43.71596" lon="7.03261">
        <ele>704</ele>
        <time>2023-07-30T09:14:04.000Z</time>
      </trkpt>
      <trkpt lat="43.71596" lon="7.03261">
        <ele>703.79998779297</ele>
        <time>2023-07-30T09:14:05.000Z</time>
      </trkpt>
      <trkpt lat="43.71596" lon="7.03263">
        <ele>703.59997558594</ele>
        <time>2023-07-30T09:14:06.000Z</time>
      </trkpt>
      <trkpt lat="43.71596" lon="7.03263">
        <ele>703.40002441406</ele>
        <time>2023-07-30T09:14:07.000Z</time>
      </trkpt>
      <trkpt lat="43.71596" lon="7.03263">
        <ele>703.20001220703</ele>
        <time>2023-07-30T09:14:08.000Z</time>
      </trkpt>
      <trkpt lat="43.71596" lon="7.03263">
        <ele>703.20001220703</ele>
        <time>2023-07-30T09:14:09.000Z</time>
      </trkpt>
      <trkpt lat="43.71596" lon="7.03264">
        <ele>703.20001220703</ele>
        <time>2023-07-30T09:14:10.000Z</time>
      </trkpt>
      <trkpt lat="43.71596" lon="7.03266">
        <ele>703</ele>
        <time>2023-07-30T09:14:11.000Z</time>
      </trkpt>
      <trkpt lat="43.71596" lon="7.03269">
        <ele>703</ele>
        <time>2023-07-30T09:14:12.000Z</time>
      </trkpt>
      <trkpt lat="43.71596" lon="7.03272">
        <ele>702.79998779297</ele>
        <time>2023-07-30T09:14:13.000Z</time>
      </trkpt>
      <trkpt lat="43.71596" lon="7.03277">
        <ele>702.59997558594</ele>
        <time>2023-07-30T09:14:14.000Z</time>
      </trkpt>
      <trkpt lat="43.71597" lon="7.03281">
        <ele>702.59997558594</ele>
        <time>2023-07-30T09:14:15.000Z</time>
      </trkpt>
      <trkpt lat="43.71596" lon="7.03285">
        <ele>702.20001220703</ele>
        <time>2023-07-30T09:14:16.000Z</time>
      </trkpt>
      <trkpt lat="43.71596" lon="7.03288">
        <ele>702</ele>
        <time>2023-07-30T09:14:17.000Z</time>
      </trkpt>
      <trkpt lat="43.71596" lon="7.03292">
        <ele>701.59997558594</ele>
        <time>2023-07-30T09:14:18.000Z</time>
      </trkpt>
      <trkpt lat="43.71597" lon="7.03293">
        <ele>700.79998779297</ele>
        <time>2023-07-30T09:14:19.000Z</time>
      </trkpt>
      <trkpt lat="43.71596" lon="7.03293">
        <ele>700.59997558594</ele>
        <time>2023-07-30T09:14:20.000Z</time>
      </trkpt>
      <trkpt lat="43.71597" lon="7.03293">
        <ele>700.20001220703</ele>
        <time>2023-07-30T09:14:21.000Z</time>
      </trkpt>
      <trkpt lat="43.71596" lon="7.03294">
        <ele>700</ele>
        <time>2023-07-30T09:14:22.000Z</time>
      </trkpt>
      <trkpt lat="43.71597" lon="7.03296">
        <ele>699.79998779297</ele>
        <time>2023-07-30T09:14:23.000Z</time>
      </trkpt>
      <trkpt lat="43.71597" lon="7.03297">
        <ele>699.79998779297</ele>
        <time>2023-07-30T09:14:24.000Z</time>
      </trkpt>
      <trkpt lat="43.71598" lon="7.03299">
        <ele>699.59997558594</ele>
        <time>2023-07-30T09:14:25.000Z</time>
      </trkpt>
      <trkpt lat="43.71598" lon="7.03302">
        <ele>699.59997558594</ele>
        <time>2023-07-30T09:14:26.000Z</time>
      </trkpt>
      <trkpt lat="43.71598" lon="7.03306">
        <ele>699.40002441406</ele>
        <time>2023-07-30T09:14:27.000Z</time>
      </trkpt>
      <trkpt lat="43.71599" lon="7.03311">
        <ele>699.40002441406</ele>
        <time>2023-07-30T09:14:28.000Z</time>
      </trkpt>
      <trkpt lat="43.716" lon="7.03314">
        <ele>699.20001220703</ele>
        <time>2023-07-30T09:14:29.000Z</time>
      </trkpt>
      <trkpt lat="43.716" lon="7.03316">
        <ele>699</ele>
        <time>2023-07-30T09:14:30.000Z</time>
      </trkpt>
      <trkpt lat="43.716" lon="7.03318">
        <ele>698.59997558594</ele>
        <time>2023-07-30T09:14:31.000Z</time>
      </trkpt>
      <trkpt lat="43.716" lon="7.0332">
        <ele>698.40002441406</ele>
        <time>2023-07-30T09:14:32.000Z</time>
      </trkpt>
      <trkpt lat="43.71599" lon="7.03322">
        <ele>698.40002441406</ele>
        <time>2023-07-30T09:14:33.000Z</time>
      </trkpt>
      <trkpt lat="43.716" lon="7.03324">
        <ele>697.79998779297</ele>
        <time>2023-07-30T09:14:34.000Z</time>
      </trkpt>
      <trkpt lat="43.71601" lon="7.03327">
        <ele>697.40002441406</ele>
        <time>2023-07-30T09:14:35.000Z</time>
      </trkpt>
      <trkpt lat="43.716" lon="7.03328">
        <ele>697.20001220703</ele>
        <time>2023-07-30T09:14:36.000Z</time>
      </trkpt>
      <trkpt lat="43.716" lon="7.03329">
        <ele>697.20001220703</ele>
        <time>2023-07-30T09:14:37.000Z</time>
      </trkpt>
      <trkpt lat="43.71598" lon="7.03329">
        <ele>696.79998779297</ele>
        <time>2023-07-30T09:14:38.000Z</time>
      </trkpt>
      <trkpt lat="43.71596" lon="7.03329">
        <ele>696.20001220703</ele>
        <time>2023-07-30T09:14:39.000Z</time>
      </trkpt>
      <trkpt lat="43.71595" lon="7.03329">
        <ele>696</ele>
        <time>2023-07-30T09:14:40.000Z</time>
      </trkpt>
      <trkpt lat="43.71594" lon="7.03328">
        <ele>695.79998779297</ele>
        <time>2023-07-30T09:14:41.000Z</time>
      </trkpt>
      <trkpt lat="43.71592" lon="7.03326">
        <ele>695.40002441406</ele>
        <time>2023-07-30T09:14:42.000Z</time>
      </trkpt>
      <trkpt lat="43.7159" lon="7.03324">
        <ele>695</ele>
        <time>2023-07-30T09:14:43.000Z</time>
      </trkpt>
      <trkpt lat="43.71589" lon="7.03321">
        <ele>694.79998779297</ele>
        <time>2023-07-30T09:14:44.000Z</time>
      </trkpt>
      <trkpt lat="43.71587" lon="7.03318">
        <ele>694.59997558594</ele>
        <time>2023-07-30T09:14:45.000Z</time>
      </trkpt>
      <trkpt lat="43.71585" lon="7.03314">
        <ele>694.20001220703</ele>
        <time>2023-07-30T09:14:46.000Z</time>
      </trkpt>
      <trkpt lat="43.71582" lon="7.0331">
        <ele>693.79998779297</ele>
        <time>2023-07-30T09:14:47.000Z</time>
      </trkpt>
      <trkpt lat="43.71579" lon="7.03306">
        <ele>693.59997558594</ele>
        <time>2023-07-30T09:14:48.000Z</time>
      </trkpt>
      <trkpt lat="43.71576" lon="7.03301">
        <ele>692.20001220703</ele>
        <time>2023-07-30T09:14:49.000Z</time>
      </trkpt>
      <trkpt lat="43.71574" lon="7.03295">
        <ele>692.20001220703</ele>
        <time>2023-07-30T09:14:50.000Z</time>
      </trkpt>
      <trkpt lat="43.71572" lon="7.0329">
        <ele>692</ele>
        <time>2023-07-30T09:14:51.000Z</time>
      </trkpt>
      <trkpt lat="43.7157" lon="7.03284">
        <ele>690.20001220703</ele>
        <time>2023-07-30T09:14:52.000Z</time>
      </trkpt>
      <trkpt lat="43.71567" lon="7.03279">
        <ele>689.59997558594</ele>
        <time>2023-07-30T09:14:53.000Z</time>
      </trkpt>
      <trkpt lat="43.71565" lon="7.03276">
        <ele>689.20001220703</ele>
        <time>2023-07-30T09:14:54.000Z</time>
      </trkpt>
      <trkpt lat="43.71563" lon="7.03274">
        <ele>689</ele>
        <time>2023-07-30T09:14:55.000Z</time>
      </trkpt>
      <trkpt lat="43.71561" lon="7.03272">
        <ele>688.59997558594</ele>
        <time>2023-07-30T09:14:56.000Z</time>
      </trkpt>
      <trkpt lat="43.7156" lon="7.0327">
        <ele>687.79998779297</ele>
        <time>2023-07-30T09:14:57.000Z</time>
      </trkpt>
      <trkpt lat="43.71558" lon="7.03267">
        <ele>687.40002441406</ele>
        <time>2023-07-30T09:14:58.000Z</time>
      </trkpt>
      <trkpt lat="43.71557" lon="7.03265">
        <ele>687</ele>
        <time>2023-07-30T09:14:59.000Z</time>
      </trkpt>
      <trkpt lat="43.71555" lon="7.03263">
        <ele>686.20001220703</ele>
        <time>2023-07-30T09:15:00.000Z</time>
      </trkpt>
      <trkpt lat="43.71554" lon="7.0326">
        <ele>686</ele>
        <time>2023-07-30T09:15:01.000Z</time>
      </trkpt>
      <trkpt lat="43.71552" lon="7.03258">
        <ele>685.40002441406</ele>
        <time>2023-07-30T09:15:02.000Z</time>
      </trkpt>
      <trkpt lat="43.7155" lon="7.03256">
        <ele>684.79998779297</ele>
        <time>2023-07-30T09:15:03.000Z</time>
      </trkpt>
      <trkpt lat="43.71548" lon="7.03254">
        <ele>684.79998779297</ele>
        <time>2023-07-30T09:15:04.000Z</time>
      </trkpt>
      <trkpt lat="43.71546" lon="7.03252">
        <ele>684.79998779297</ele>
        <time>2023-07-30T09:15:05.000Z</time>
      </trkpt>
      <trkpt lat="43.71545" lon="7.0325">
        <ele>684.20001220703</ele>
        <time>2023-07-30T09:15:06.000Z</time>
      </trkpt>
      <trkpt lat="43.71545" lon="7.03248">
        <ele>683.40002441406</ele>
        <time>2023-07-30T09:15:07.000Z</time>
      </trkpt>
      <trkpt lat="43.71544" lon="7.03246">
        <ele>683</ele>
        <time>2023-07-30T09:15:08.000Z</time>
      </trkpt>
      <trkpt lat="43.71543" lon="7.03246">
        <ele>682.40002441406</ele>
        <time>2023-07-30T09:15:09.000Z</time>
      </trkpt>
      <trkpt lat="43.71543" lon="7.03246">
        <ele>682.20001220703</ele>
        <time>2023-07-30T09:15:10.000Z</time>
      </trkpt>
      <trkpt lat="43.71543" lon="7.03246">
        <ele>682</ele>
        <time>2023-07-30T09:15:11.000Z</time>
      </trkpt>
      <trkpt lat="43.71542" lon="7.03246">
        <ele>681.59997558594</ele>
        <time>2023-07-30T09:15:12.000Z</time>
      </trkpt>
      <trkpt lat="43.71541" lon="7.03247">
        <ele>681.20001220703</ele>
        <time>2023-07-30T09:15:13.000Z</time>
      </trkpt>
      <trkpt lat="43.71541" lon="7.03247">
        <ele>681</ele>
        <time>2023-07-30T09:15:14.000Z</time>
      </trkpt>
      <trkpt lat="43.71542" lon="7.03248">
        <ele>680.79998779297</ele>
        <time>2023-07-30T09:15:15.000Z</time>
      </trkpt>
      <trkpt lat="43.71542" lon="7.03251">
        <ele>680.40002441406</ele>
        <time>2023-07-30T09:15:16.000Z</time>
      </trkpt>
      <trkpt lat="43.71541" lon="7.03254">
        <ele>680.40002441406</ele>
        <time>2023-07-30T09:15:17.000Z</time>
      </trkpt>
      <trkpt lat="43.7154" lon="7.0326">
        <ele>680.20001220703</ele>
        <time>2023-07-30T09:15:18.000Z</time>
      </trkpt>
      <trkpt lat="43.71539" lon="7.03267">
        <ele>680</ele>
        <time>2023-07-30T09:15:19.000Z</time>
      </trkpt>
      <trkpt lat="43.71539" lon="7.03273">
        <ele>679.20001220703</ele>
        <time>2023-07-30T09:15:20.000Z</time>
      </trkpt>
      <trkpt lat="43.71539" lon="7.03277">
        <ele>679.20001220703</ele>
        <time>2023-07-30T09:15:21.000Z</time>
      </trkpt>
      <trkpt lat="43.7154" lon="7.03281">
        <ele>678.40002441406</ele>
        <time>2023-07-30T09:15:22.000Z</time>
      </trkpt>
      <trkpt lat="43.71541" lon="7.03284">
        <ele>677.40002441406</ele>
        <time>2023-07-30T09:15:23.000Z</time>
      </trkpt>
      <trkpt lat="43.71541" lon="7.03287">
        <ele>676.79998779297</ele>
        <time>2023-07-30T09:15:24.000Z</time>
      </trkpt>
      <trkpt lat="43.71541" lon="7.0329">
        <ele>676.20001220703</ele>
        <time>2023-07-30T09:15:25.000Z</time>
      </trkpt>
      <trkpt lat="43.71542" lon="7.03293">
        <ele>675.79998779297</ele>
        <time>2023-07-30T09:15:26.000Z</time>
      </trkpt>
      <trkpt lat="43.71542" lon="7.03295">
        <ele>675.79998779297</ele>
        <time>2023-07-30T09:15:27.000Z</time>
      </trkpt>
      <trkpt lat="43.71541" lon="7.03297">
        <ele>675.79998779297</ele>
        <time>2023-07-30T09:15:28.000Z</time>
      </trkpt>
      <trkpt lat="43.71539" lon="7.03298">
        <ele>675.40002441406</ele>
        <time>2023-07-30T09:15:29.000Z</time>
      </trkpt>
      <trkpt lat="43.71538" lon="7.03298">
        <ele>674.79998779297</ele>
        <time>2023-07-30T09:15:30.000Z</time>
      </trkpt>
      <trkpt lat="43.71537" lon="7.03296">
        <ele>674.40002441406</ele>
        <time>2023-07-30T09:15:31.000Z</time>
      </trkpt>
      <trkpt lat="43.71536" lon="7.03294">
        <ele>674.40002441406</ele>
        <time>2023-07-30T09:15:32.000Z</time>
      </trkpt>
      <trkpt lat="43.71534" lon="7.03292">
        <ele>674.20001220703</ele>
        <time>2023-07-30T09:15:33.000Z</time>
      </trkpt>
      <trkpt lat="43.71532" lon="7.03289">
        <ele>674</ele>
        <time>2023-07-30T09:15:34.000Z</time>
      </trkpt>
      <trkpt lat="43.71529" lon="7.03286">
        <ele>673.40002441406</ele>
        <time>2023-07-30T09:15:35.000Z</time>
      </trkpt>
      <trkpt lat="43.71526" lon="7.03281">
        <ele>673.40002441406</ele>
        <time>2023-07-30T09:15:36.000Z</time>
      </trkpt>
      <trkpt lat="43.71523" lon="7.03277">
        <ele>672.40002441406</ele>
        <time>2023-07-30T09:15:37.000Z</time>
      </trkpt>
      <trkpt lat="43.7152" lon="7.03273">
        <ele>671.79998779297</ele>
        <time>2023-07-30T09:15:38.000Z</time>
      </trkpt>
      <trkpt lat="43.71517" lon="7.0327">
        <ele>671.59997558594</ele>
        <time>2023-07-30T09:15:39.000Z</time>
      </trkpt>
      <trkpt lat="43.71515" lon="7.03268">
        <ele>670.20001220703</ele>
        <time>2023-07-30T09:15:40.000Z</time>
      </trkpt>
      <trkpt lat="43.71514" lon="7.03268">
        <ele>669.40002441406</ele>
        <time>2023-07-30T09:15:41.000Z</time>
      </trkpt>
      <trkpt lat="43.71514" lon="7.03267">
        <ele>669</ele>
        <time>2023-07-30T09:15:42.000Z</time>
      </trkpt>
      <trkpt lat="43.71512" lon="7.03266">
        <ele>668.40002441406</ele>
        <time>2023-07-30T09:15:43.000Z</time>
      </trkpt>
      <trkpt lat="43.7151" lon="7.03266">
        <ele>667.79998779297</ele>
        <time>2023-07-30T09:15:44.000Z</time>
      </trkpt>
      <trkpt lat="43.71509" lon="7.03267">
        <ele>667.79998779297</ele>
        <time>2023-07-30T09:15:45.000Z</time>
      </trkpt>
      <trkpt lat="43.71507" lon="7.03268">
        <ele>667.59997558594</ele>
        <time>2023-07-30T09:15:46.000Z</time>
      </trkpt>
      <trkpt lat="43.71507" lon="7.03269">
        <ele>667</ele>
        <time>2023-07-30T09:15:47.000Z</time>
      </trkpt>
      <trkpt lat="43.71507" lon="7.0327">
        <ele>666.40002441406</ele>
        <time>2023-07-30T09:15:48.000Z</time>
      </trkpt>
      <trkpt lat="43.71507" lon="7.03272">
        <ele>666</ele>
        <time>2023-07-30T09:15:49.000Z</time>
      </trkpt>
      <trkpt lat="43.71507" lon="7.03274">
        <ele>665.40002441406</ele>
        <time>2023-07-30T09:15:50.000Z</time>
      </trkpt>
      <trkpt lat="43.71508" lon="7.03275">
        <ele>665.20001220703</ele>
        <time>2023-07-30T09:15:51.000Z</time>
      </trkpt>
      <trkpt lat="43.71508" lon="7.03275">
        <ele>664.59997558594</ele>
        <time>2023-07-30T09:15:52.000Z</time>
      </trkpt>
      <trkpt lat="43.71508" lon="7.03275">
        <ele>664.40002441406</ele>
        <time>2023-07-30T09:15:53.000Z</time>
      </trkpt>
      <trkpt lat="43.71508" lon="7.03275">
        <ele>664</ele>
        <time>2023-07-30T09:15:54.000Z</time>
      </trkpt>
      <trkpt lat="43.71508" lon="7.03275">
        <ele>663.59997558594</ele>
        <time>2023-07-30T09:15:55.000Z</time>
      </trkpt>
      <trkpt lat="43.71508" lon="7.03275">
        <ele>663.59997558594</ele>
        <time>2023-07-30T09:15:56.000Z</time>
      </trkpt>
      <trkpt lat="43.71508" lon="7.03275">
        <ele>663.40002441406</ele>
        <time>2023-07-30T09:15:57.000Z</time>
      </trkpt>
      <trkpt lat="43.71508" lon="7.03275">
        <ele>663.40002441406</ele>
        <time>2023-07-30T09:15:58.000Z</time>
      </trkpt>
      <trkpt lat="43.71507" lon="7.03275">
        <ele>663.40002441406</ele>
        <time>2023-07-30T09:15:59.000Z</time>
      </trkpt>
      <trkpt lat="43.71507" lon="7.03274">
        <ele>663.40002441406</ele>
        <time>2023-07-30T09:16:00.000Z</time>
      </trkpt>
      <trkpt lat="43.71507" lon="7.03275">
        <ele>663.40002441406</ele>
        <time>2023-07-30T09:16:01.000Z</time>
      </trkpt>
      <trkpt lat="43.71507" lon="7.03275">
        <ele>663.40002441406</ele>
        <time>2023-07-30T09:16:02.000Z</time>
      </trkpt>
      <trkpt lat="43.71508" lon="7.03275">
        <ele>663.20001220703</ele>
        <time>2023-07-30T09:16:03.000Z</time>
      </trkpt>
      <trkpt lat="43.71508" lon="7.03275">
        <ele>663.20001220703</ele>
        <time>2023-07-30T09:16:04.000Z</time>
      </trkpt>
      <trkpt lat="43.71509" lon="7.03276">
        <ele>663.20001220703</ele>
        <time>2023-07-30T09:16:05.000Z</time>
      </trkpt>
      <trkpt lat="43.71509" lon="7.03276">
        <ele>663.20001220703</ele>
        <time>2023-07-30T09:16:06.000Z</time>
      </trkpt>
      <trkpt lat="43.71509" lon="7.03276">
        <ele>663.20001220703</ele>
        <time>2023-07-30T09:16:07.000Z</time>
      </trkpt>
      <trkpt lat="43.71509" lon="7.03276">
        <ele>663.20001220703</ele>
        <time>2023-07-30T09:16:08.000Z</time>
      </trkpt>
      <trkpt lat="43.71509" lon="7.03276">
        <ele>663.20001220703</ele>
        <time>2023-07-30T09:16:09.000Z</time>
      </trkpt>
      <trkpt lat="43.7151" lon="7.03276">
        <ele>663.20001220703</ele>
        <time>2023-07-30T09:16:10.000Z</time>
      </trkpt>
      <trkpt lat="43.7151" lon="7.03276">
        <ele>663.20001220703</ele>
        <time>2023-07-30T09:16:11.000Z</time>
      </trkpt>
      <trkpt lat="43.7151" lon="7.03276">
        <ele>663.20001220703</ele>
        <time>2023-07-30T09:16:12.000Z</time>
      </trkpt>
      <trkpt lat="43.7151" lon="7.03276">
        <ele>663.20001220703</ele>
        <time>2023-07-30T09:16:13.000Z</time>
      </trkpt>
      <trkpt lat="43.71509" lon="7.03276">
        <ele>663.40002441406</ele>
        <time>2023-07-30T09:16:14.000Z</time>
      </trkpt>
      <trkpt lat="43.71509" lon="7.03276">
        <ele>663.40002441406</ele>
        <time>2023-07-30T09:16:15.000Z</time>
      </trkpt>
      <trkpt lat="43.71509" lon="7.03276">
        <ele>663.40002441406</ele>
        <time>2023-07-30T09:16:16.000Z</time>
      </trkpt>
      <trkpt lat="43.71509" lon="7.03276">
        <ele>663.40002441406</ele>
        <time>2023-07-30T09:16:17.000Z</time>
      </trkpt>
      <trkpt lat="43.71509" lon="7.03276">
        <ele>663.40002441406</ele>
        <time>2023-07-30T09:16:18.000Z</time>
      </trkpt>
      <trkpt lat="43.71509" lon="7.03276">
        <ele>663.40002441406</ele>
        <time>2023-07-30T09:16:19.000Z</time>
      </trkpt>
      <trkpt lat="43.71509" lon="7.03276">
        <ele>663.40002441406</ele>
        <time>2023-07-30T09:16:20.000Z</time>
      </trkpt>
      <trkpt lat="43.71509" lon="7.03276">
        <ele>663.40002441406</ele>
        <time>2023-07-30T09:16:21.000Z</time>
      </trkpt>
      <trkpt lat="43.71509" lon="7.03276">
        <ele>663.40002441406</ele>
        <time>2023-07-30T09:16:22.000Z</time>
      </trkpt>
      <trkpt lat="43.71509" lon="7.03276">
        <ele>663.40002441406</ele>
        <time>2023-07-30T09:16:23.000Z</time>
      </trkpt>
      <trkpt lat="43.71509" lon="7.03276">
        <ele>663.40002441406</ele>
        <time>2023-07-30T09:16:24.000Z</time>
      </trkpt>
      <trkpt lat="43.71509" lon="7.03276">
        <ele>663.40002441406</ele>
        <time>2023-07-30T09:16:25.000Z</time>
      </trkpt>
      <trkpt lat="43.71509" lon="7.03276">
        <ele>663.40002441406</ele>
        <time>2023-07-30T09:16:26.000Z</time>
      </trkpt>
      <trkpt lat="43.71509" lon="7.03276">
        <ele>663.40002441406</ele>
        <time>2023-07-30T09:16:27.000Z</time>
      </trkpt>
      <trkpt lat="43.71509" lon="7.03276">
        <ele>663.40002441406</ele>
        <time>2023-07-30T09:16:28.000Z</time>
      </trkpt>
      <trkpt lat="43.71509" lon="7.03276">
        <ele>663.40002441406</ele>
        <time>2023-07-30T09:16:29.000Z</time>
      </trkpt>
      <trkpt lat="43.71509" lon="7.03276">
        <ele>663.40002441406</ele>
        <time>2023-07-30T09:16:30.000Z</time>
      </trkpt>
      <trkpt lat="43.71509" lon="7.03276">
        <ele>663.40002441406</ele>
        <time>2023-07-30T09:16:31.000Z</time>
      </trkpt>
      <trkpt lat="43.71509" lon="7.03276">
        <ele>663.40002441406</ele>
        <time>2023-07-30T09:16:32.000Z</time>
      </trkpt>
      <trkpt lat="43.71509" lon="7.03276">
        <ele>663.40002441406</ele>
        <time>2023-07-30T09:16:33.000Z</time>
      </trkpt>
      <trkpt lat="43.71509" lon="7.03276">
        <ele>663.40002441406</ele>
        <time>2023-07-30T09:16:34.000Z</time>
      </trkpt>
      <trkpt lat="43.71509" lon="7.03276">
        <ele>663.40002441406</ele>
        <time>2023-07-30T09:16:35.000Z</time>
      </trkpt>
      <trkpt lat="43.71509" lon="7.03276">
        <ele>663.40002441406</ele>
        <time>2023-07-30T09:16:36.000Z</time>
      </trkpt>
      <trkpt lat="43.71509" lon="7.03276">
        <ele>663.40002441406</ele>
        <time>2023-07-30T09:16:37.000Z</time>
      </trkpt>
      <trkpt lat="43.71509" lon="7.03276">
        <ele>663.40002441406</ele>
        <time>2023-07-30T09:16:38.000Z</time>
      </trkpt>
      <trkpt lat="43.71509" lon="7.03276">
        <ele>663.40002441406</ele>
        <time>2023-07-30T09:16:39.000Z</time>
      </trkpt>
      <trkpt lat="43.71509" lon="7.03276">
        <ele>663.40002441406</ele>
        <time>2023-07-30T09:16:40.000Z</time>
      </trkpt>
      <trkpt lat="43.71509" lon="7.03276">
        <ele>663.40002441406</ele>
        <time>2023-07-30T09:16:41.000Z</time>
      </trkpt>
      <trkpt lat="43.71509" lon="7.03276">
        <ele>663.40002441406</ele>
        <time>2023-07-30T09:16:42.000Z</time>
      </trkpt>
      <trkpt lat="43.71509" lon="7.03276">
        <ele>663.40002441406</ele>
        <time>2023-07-30T09:16:43.000Z</time>
      </trkpt>
      <trkpt lat="43.71509" lon="7.03276">
        <ele>663.40002441406</ele>
        <time>2023-07-30T09:16:44.000Z</time>
      </trkpt>
      <trkpt lat="43.71509" lon="7.03276">
        <ele>663.40002441406</ele>
        <time>2023-07-30T09:16:45.000Z</time>
      </trkpt>
      <trkpt lat="43.71509" lon="7.03276">
        <ele>663.59997558594</ele>
        <time>2023-07-30T09:16:46.000Z</time>
      </trkpt>
      <trkpt lat="43.71509" lon="7.03276">
        <ele>663.59997558594</ele>
        <time>2023-07-30T09:16:47.000Z</time>
      </trkpt>
      <trkpt lat="43.71509" lon="7.03276">
        <ele>663.59997558594</ele>
        <time>2023-07-30T09:16:48.000Z</time>
      </trkpt>
      <trkpt lat="43.71509" lon="7.03276">
        <ele>663.59997558594</ele>
        <time>2023-07-30T09:16:49.000Z</time>
      </trkpt>
      <trkpt lat="43.71509" lon="7.03276">
        <ele>663.59997558594</ele>
        <time>2023-07-30T09:16:50.000Z</time>
      </trkpt>
      <trkpt lat="43.71509" lon="7.03276">
        <ele>663.59997558594</ele>
        <time>2023-07-30T09:16:51.000Z</time>
      </trkpt>
      <trkpt lat="43.71509" lon="7.03276">
        <ele>663.59997558594</ele>
        <time>2023-07-30T09:16:52.000Z</time>
      </trkpt>
      <trkpt lat="43.71509" lon="7.03276">
        <ele>663.59997558594</ele>
        <time>2023-07-30T09:16:53.000Z</time>
      </trkpt>
      <trkpt lat="43.71509" lon="7.03276">
        <ele>663.59997558594</ele>
        <time>2023-07-30T09:16:54.000Z</time>
      </trkpt>
      <trkpt lat="43.71509" lon="7.03276">
        <ele>663.59997558594</ele>
        <time>2023-07-30T09:16:55.000Z</time>
      </trkpt>
      <trkpt lat="43.71509" lon="7.03276">
        <ele>663.59997558594</ele>
        <time>2023-07-30T09:16:56.000Z</time>
      </trkpt>
      <trkpt lat="43.71509" lon="7.03276">
        <ele>663.59997558594</ele>
        <time>2023-07-30T09:16:57.000Z</time>
      </trkpt>
      <trkpt lat="43.71509" lon="7.03276">
        <ele>663.59997558594</ele>
        <time>2023-07-30T09:16:58.000Z</time>
      </trkpt>
      <trkpt lat="43.71509" lon="7.03276">
        <ele>663.59997558594</ele>
        <time>2023-07-30T09:16:59.000Z</time>
      </trkpt>
      <trkpt lat="43.71509" lon="7.03276">
        <ele>663.59997558594</ele>
        <time>2023-07-30T09:17:00.000Z</time>
      </trkpt>
      <trkpt lat="43.71509" lon="7.03276">
        <ele>663.59997558594</ele>
        <time>2023-07-30T09:17:01.000Z</time>
      </trkpt>
      <trkpt lat="43.71509" lon="7.03276">
        <ele>663.59997558594</ele>
        <time>2023-07-30T09:17:02.000Z</time>
      </trkpt>
      <trkpt lat="43.71509" lon="7.03276">
        <ele>663.79998779297</ele>
        <time>2023-07-30T09:17:03.000Z</time>
      </trkpt>
      <trkpt lat="43.71509" lon="7.03276">
        <ele>663.79998779297</ele>
        <time>2023-07-30T09:17:04.000Z</time>
      </trkpt>
      <trkpt lat="43.71509" lon="7.03276">
        <ele>663.79998779297</ele>
        <time>2023-07-30T09:17:05.000Z</time>
      </trkpt>
      <trkpt lat="43.71509" lon="7.03276">
        <ele>663.79998779297</ele>
        <time>2023-07-30T09:17:06.000Z</time>
      </trkpt>
      <trkpt lat="43.71509" lon="7.03276">
        <ele>663.79998779297</ele>
        <time>2023-07-30T09:17:07.000Z</time>
      </trkpt>
      <trkpt lat="43.71509" lon="7.03276">
        <ele>663.79998779297</ele>
        <time>2023-07-30T09:17:08.000Z</time>
      </trkpt>
      <trkpt lat="43.71509" lon="7.03276">
        <ele>663.79998779297</ele>
        <time>2023-07-30T09:17:09.000Z</time>
      </trkpt>
      <trkpt lat="43.71509" lon="7.03276">
        <ele>664</ele>
        <time>2023-07-30T09:17:10.000Z</time>
      </trkpt>
      <trkpt lat="43.71509" lon="7.03276">
        <ele>664</ele>
        <time>2023-07-30T09:17:11.000Z</time>
      </trkpt>
      <trkpt lat="43.71509" lon="7.03276">
        <ele>664</ele>
        <time>2023-07-30T09:17:12.000Z</time>
      </trkpt>
      <trkpt lat="43.71509" lon="7.03276">
        <ele>664</ele>
        <time>2023-07-30T09:17:13.000Z</time>
      </trkpt>
      <trkpt lat="43.71509" lon="7.03276">
        <ele>664</ele>
        <time>2023-07-30T09:17:14.000Z</time>
      </trkpt>
      <trkpt lat="43.7151" lon="7.03276">
        <ele>664</ele>
        <time>2023-07-30T09:17:15.000Z</time>
      </trkpt>
      <trkpt lat="43.7151" lon="7.03276">
        <ele>664</ele>
        <time>2023-07-30T09:17:16.000Z</time>
      </trkpt>
      <trkpt lat="43.7151" lon="7.03276">
        <ele>664</ele>
        <time>2023-07-30T09:17:17.000Z</time>
      </trkpt>
      <trkpt lat="43.71509" lon="7.03276">
        <ele>664</ele>
        <time>2023-07-30T09:17:18.000Z</time>
      </trkpt>
      <trkpt lat="43.71509" lon="7.03276">
        <ele>664</ele>
        <time>2023-07-30T09:17:19.000Z</time>
      </trkpt>
      <trkpt lat="43.7151" lon="7.03276">
        <ele>664</ele>
        <time>2023-07-30T09:17:20.000Z</time>
      </trkpt>
      <trkpt lat="43.71509" lon="7.03276">
        <ele>664</ele>
        <time>2023-07-30T09:17:21.000Z</time>
      </trkpt>
      <trkpt lat="43.71509" lon="7.03276">
        <ele>664</ele>
        <time>2023-07-30T09:17:22.000Z</time>
      </trkpt>
      <trkpt lat="43.71509" lon="7.03276">
        <ele>664</ele>
        <time>2023-07-30T09:17:23.000Z</time>
      </trkpt>
      <trkpt lat="43.71509" lon="7.03276">
        <ele>664</ele>
        <time>2023-07-30T09:17:24.000Z</time>
      </trkpt>
      <trkpt lat="43.71509" lon="7.03276">
        <ele>664</ele>
        <time>2023-07-30T09:17:25.000Z</time>
      </trkpt>
      <trkpt lat="43.71509" lon="7.03276">
        <ele>664</ele>
        <time>2023-07-30T09:17:26.000Z</time>
      </trkpt>
      <trkpt lat="43.71509" lon="7.03276">
        <ele>664</ele>
        <time>2023-07-30T09:17:27.000Z</time>
      </trkpt>
      <trkpt lat="43.71509" lon="7.03276">
        <ele>664</ele>
        <time>2023-07-30T09:17:28.000Z</time>
      </trkpt>
      <trkpt lat="43.71509" lon="7.03276">
        <ele>664</ele>
        <time>2023-07-30T09:17:29.000Z</time>
      </trkpt>
      <trkpt lat="43.71509" lon="7.03276">
        <ele>664</ele>
        <time>2023-07-30T09:17:30.000Z</time>
      </trkpt>
      <trkpt lat="43.71509" lon="7.03276">
        <ele>664</ele>
        <time>2023-07-30T09:17:31.000Z</time>
      </trkpt>
      <trkpt lat="43.71509" lon="7.03276">
        <ele>663.79998779297</ele>
        <time>2023-07-30T09:17:32.000Z</time>
      </trkpt>
      <trkpt lat="43.71509" lon="7.03276">
        <ele>663.79998779297</ele>
        <time>2023-07-30T09:17:33.000Z</time>
      </trkpt>
      <trkpt lat="43.71509" lon="7.03276">
        <ele>663.79998779297</ele>
        <time>2023-07-30T09:17:34.000Z</time>
      </trkpt>
      <trkpt lat="43.71509" lon="7.03276">
        <ele>663.79998779297</ele>
        <time>2023-07-30T09:17:35.000Z</time>
      </trkpt>
      <trkpt lat="43.71509" lon="7.03276">
        <ele>663.79998779297</ele>
        <time>2023-07-30T09:17:36.000Z</time>
      </trkpt>
      <trkpt lat="43.71509" lon="7.03276">
        <ele>663.79998779297</ele>
        <time>2023-07-30T09:17:37.000Z</time>
      </trkpt>
      <trkpt lat="43.71509" lon="7.03276">
        <ele>663.79998779297</ele>
        <time>2023-07-30T09:17:38.000Z</time>
      </trkpt>
      <trkpt lat="43.71509" lon="7.03276">
        <ele>663.79998779297</ele>
        <time>2023-07-30T09:17:39.000Z</time>
      </trkpt>
      <trkpt lat="43.71509" lon="7.03276">
        <ele>663.79998779297</ele>
        <time>2023-07-30T09:17:40.000Z</time>
      </trkpt>
      <trkpt lat="43.71509" lon="7.03276">
        <ele>663.79998779297</ele>
        <time>2023-07-30T09:17:41.000Z</time>
      </trkpt>
      <trkpt lat="43.71509" lon="7.03276">
        <ele>663.79998779297</ele>
        <time>2023-07-30T09:17:42.000Z</time>
      </trkpt>
      <trkpt lat="43.71509" lon="7.03276">
        <ele>663.79998779297</ele>
        <time>2023-07-30T09:17:43.000Z</time>
      </trkpt>
      <trkpt lat="43.71509" lon="7.03276">
        <ele>663.79998779297</ele>
        <time>2023-07-30T09:17:44.000Z</time>
      </trkpt>
      <trkpt lat="43.71509" lon="7.03276">
        <ele>663.79998779297</ele>
        <time>2023-07-30T09:17:45.000Z</time>
      </trkpt>
      <trkpt lat="43.71509" lon="7.03276">
        <ele>663.79998779297</ele>
        <time>2023-07-30T09:17:46.000Z</time>
      </trkpt>
      <trkpt lat="43.71509" lon="7.03276">
        <ele>663.79998779297</ele>
        <time>2023-07-30T09:17:47.000Z</time>
      </trkpt>
      <trkpt lat="43.71509" lon="7.03276">
        <ele>663.79998779297</ele>
        <time>2023-07-30T09:17:48.000Z</time>
      </trkpt>
      <trkpt lat="43.71509" lon="7.03276">
        <ele>663.79998779297</ele>
        <time>2023-07-30T09:17:49.000Z</time>
      </trkpt>
      <trkpt lat="43.71509" lon="7.03276">
        <ele>664</ele>
        <time>2023-07-30T09:17:50.000Z</time>
      </trkpt>
      <trkpt lat="43.71509" lon="7.03276">
        <ele>664</ele>
        <time>2023-07-30T09:17:51.000Z</time>
      </trkpt>
      <trkpt lat="43.71509" lon="7.03276">
        <ele>664</ele>
        <time>2023-07-30T09:17:52.000Z</time>
      </trkpt>
      <trkpt lat="43.71509" lon="7.03276">
        <ele>664</ele>
        <time>2023-07-30T09:17:53.000Z</time>
      </trkpt>
      <trkpt lat="43.71509" lon="7.03276">
        <ele>664</ele>
        <time>2023-07-30T09:17:54.000Z</time>
      </trkpt>
      <trkpt lat="43.71509" lon="7.03276">
        <ele>664</ele>
        <time>2023-07-30T09:17:55.000Z</time>
      </trkpt>
      <trkpt lat="43.71509" lon="7.03276">
        <ele>664</ele>
        <time>2023-07-30T09:17:56.000Z</time>
      </trkpt>
      <trkpt lat="43.71509" lon="7.03276">
        <ele>664</ele>
        <time>2023-07-30T09:17:57.000Z</time>
      </trkpt>
      <trkpt lat="43.71509" lon="7.03276">
        <ele>664.20001220703</ele>
        <time>2023-07-30T09:17:58.000Z</time>
      </trkpt>
      <trkpt lat="43.71509" lon="7.03276">
        <ele>664.20001220703</ele>
        <time>2023-07-30T09:17:59.000Z</time>
      </trkpt>
      <trkpt lat="43.71509" lon="7.03276">
        <ele>664.20001220703</ele>
        <time>2023-07-30T09:18:00.000Z</time>
      </trkpt>
      <trkpt lat="43.71509" lon="7.03276">
        <ele>664.20001220703</ele>
        <time>2023-07-30T09:18:01.000Z</time>
      </trkpt>
      <trkpt lat="43.71509" lon="7.03276">
        <ele>664.20001220703</ele>
        <time>2023-07-30T09:18:02.000Z</time>
      </trkpt>
      <trkpt lat="43.71509" lon="7.03276">
        <ele>664.20001220703</ele>
        <time>2023-07-30T09:18:03.000Z</time>
      </trkpt>
      <trkpt lat="43.71509" lon="7.03276">
        <ele>664</ele>
        <time>2023-07-30T09:18:04.000Z</time>
      </trkpt>
      <trkpt lat="43.71509" lon="7.03276">
        <ele>664</ele>
        <time>2023-07-30T09:18:05.000Z</time>
      </trkpt>
      <trkpt lat="43.71509" lon="7.03276">
        <ele>664</ele>
        <time>2023-07-30T09:18:06.000Z</time>
      </trkpt>
      <trkpt lat="43.71509" lon="7.03276">
        <ele>664</ele>
        <time>2023-07-30T09:18:07.000Z</time>
      </trkpt>
      <trkpt lat="43.71509" lon="7.03276">
        <ele>664</ele>
        <time>2023-07-30T09:18:08.000Z</time>
      </trkpt>
      <trkpt lat="43.71509" lon="7.03276">
        <ele>664</ele>
        <time>2023-07-30T09:18:09.000Z</time>
      </trkpt>
      <trkpt lat="43.71509" lon="7.03276">
        <ele>664</ele>
        <time>2023-07-30T09:18:10.000Z</time>
      </trkpt>
      <trkpt lat="43.71509" lon="7.03276">
        <ele>664</ele>
        <time>2023-07-30T09:18:11.000Z</time>
      </trkpt>
      <trkpt lat="43.71509" lon="7.03276">
        <ele>664</ele>
        <time>2023-07-30T09:18:12.000Z</time>
      </trkpt>
      <trkpt lat="43.71509" lon="7.03276">
        <ele>664</ele>
        <time>2023-07-30T09:18:13.000Z</time>
      </trkpt>
      <trkpt lat="43.71509" lon="7.03276">
        <ele>664</ele>
        <time>2023-07-30T09:18:14.000Z</time>
      </trkpt>
      <trkpt lat="43.71509" lon="7.03276">
        <ele>664</ele>
        <time>2023-07-30T09:18:15.000Z</time>
      </trkpt>
      <trkpt lat="43.71509" lon="7.03276">
        <ele>664</ele>
        <time>2023-07-30T09:18:16.000Z</time>
      </trkpt>
      <trkpt lat="43.71509" lon="7.03276">
        <ele>664</ele>
        <time>2023-07-30T09:18:17.000Z</time>
      </trkpt>
      <trkpt lat="43.71509" lon="7.03276">
        <ele>664</ele>
        <time>2023-07-30T09:18:18.000Z</time>
      </trkpt>
      <trkpt lat="43.71509" lon="7.03276">
        <ele>664</ele>
        <time>2023-07-30T09:18:19.000Z</time>
      </trkpt>
      <trkpt lat="43.71509" lon="7.03276">
        <ele>664</ele>
        <time>2023-07-30T09:18:20.000Z</time>
      </trkpt>
      <trkpt lat="43.71509" lon="7.03276">
        <ele>664</ele>
        <time>2023-07-30T09:18:21.000Z</time>
      </trkpt>
      <trkpt lat="43.71509" lon="7.03275">
        <ele>664</ele>
        <time>2023-07-30T09:18:22.000Z</time>
      </trkpt>
      <trkpt lat="43.71509" lon="7.03275">
        <ele>664</ele>
        <time>2023-07-30T09:18:23.000Z</time>
      </trkpt>
      <trkpt lat="43.71509" lon="7.03276">
        <ele>664</ele>
        <time>2023-07-30T09:18:24.000Z</time>
      </trkpt>
      <trkpt lat="43.71509" lon="7.03276">
        <ele>664</ele>
        <time>2023-07-30T09:18:25.000Z</time>
      </trkpt>
      <trkpt lat="43.71509" lon="7.03277">
        <ele>664</ele>
        <time>2023-07-30T09:18:26.000Z</time>
      </trkpt>
      <trkpt lat="43.71509" lon="7.03278">
        <ele>664</ele>
        <time>2023-07-30T09:18:27.000Z</time>
      </trkpt>
      <trkpt lat="43.71509" lon="7.03278">
        <ele>664</ele>
        <time>2023-07-30T09:18:28.000Z</time>
      </trkpt>
      <trkpt lat="43.71509" lon="7.03278">
        <ele>664</ele>
        <time>2023-07-30T09:18:29.000Z</time>
      </trkpt>
      <trkpt lat="43.71509" lon="7.03278">
        <ele>664</ele>
        <time>2023-07-30T09:18:30.000Z</time>
      </trkpt>
      <trkpt lat="43.71509" lon="7.03278">
        <ele>664</ele>
        <time>2023-07-30T09:18:31.000Z</time>
      </trkpt>
      <trkpt lat="43.71509" lon="7.03278">
        <ele>664</ele>
        <time>2023-07-30T09:18:32.000Z</time>
      </trkpt>
      <trkpt lat="43.71509" lon="7.03278">
        <ele>664</ele>
        <time>2023-07-30T09:18:33.000Z</time>
      </trkpt>
      <trkpt lat="43.71509" lon="7.03278">
        <ele>664</ele>
        <time>2023-07-30T09:18:34.000Z</time>
      </trkpt>
      <trkpt lat="43.71509" lon="7.03278">
        <ele>664</ele>
        <time>2023-07-30T09:18:35.000Z</time>
      </trkpt>
      <trkpt lat="43.71509" lon="7.03278">
        <ele>664</ele>
        <time>2023-07-30T09:18:36.000Z</time>
      </trkpt>
      <trkpt lat="43.71509" lon="7.03277">
        <ele>664</ele>
        <time>2023-07-30T09:18:37.000Z</time>
      </trkpt>
      <trkpt lat="43.71509" lon="7.03277">
        <ele>664</ele>
        <time>2023-07-30T09:18:38.000Z</time>
      </trkpt>
      <trkpt lat="43.71509" lon="7.03277">
        <ele>664</ele>
        <time>2023-07-30T09:18:39.000Z</time>
      </trkpt>
      <trkpt lat="43.71509" lon="7.03277">
        <ele>664</ele>
        <time>2023-07-30T09:18:40.000Z</time>
      </trkpt>
      <trkpt lat="43.7151" lon="7.03277">
        <ele>664</ele>
        <time>2023-07-30T09:18:41.000Z</time>
      </trkpt>
      <trkpt lat="43.7151" lon="7.03277">
        <ele>664</ele>
        <time>2023-07-30T09:18:42.000Z</time>
      </trkpt>
      <trkpt lat="43.7151" lon="7.03277">
        <ele>664</ele>
        <time>2023-07-30T09:18:43.000Z</time>
      </trkpt>
      <trkpt lat="43.7151" lon="7.03277">
        <ele>664</ele>
        <time>2023-07-30T09:18:44.000Z</time>
      </trkpt>
      <trkpt lat="43.7151" lon="7.03277">
        <ele>664</ele>
        <time>2023-07-30T09:18:45.000Z</time>
      </trkpt>
      <trkpt lat="43.7151" lon="7.03277">
        <ele>664</ele>
        <time>2023-07-30T09:18:46.000Z</time>
      </trkpt>
      <trkpt lat="43.7151" lon="7.03277">
        <ele>664</ele>
        <time>2023-07-30T09:18:47.000Z</time>
      </trkpt>
      <trkpt lat="43.7151" lon="7.03277">
        <ele>664</ele>
        <time>2023-07-30T09:18:48.000Z</time>
      </trkpt>
      <trkpt lat="43.7151" lon="7.03277">
        <ele>664</ele>
        <time>2023-07-30T09:18:49.000Z</time>
      </trkpt>
      <trkpt lat="43.71509" lon="7.03277">
        <ele>664</ele>
        <time>2023-07-30T09:18:50.000Z</time>
      </trkpt>
      <trkpt lat="43.7151" lon="7.03277">
        <ele>664</ele>
        <time>2023-07-30T09:18:51.000Z</time>
      </trkpt>
      <trkpt lat="43.7151" lon="7.03276">
        <ele>664</ele>
        <time>2023-07-30T09:18:52.000Z</time>
      </trkpt>
      <trkpt lat="43.7151" lon="7.03277">
        <ele>664</ele>
        <time>2023-07-30T09:18:53.000Z</time>
      </trkpt>
      <trkpt lat="43.7151" lon="7.03278">
        <ele>664</ele>
        <time>2023-07-30T09:18:54.000Z</time>
      </trkpt>
      <trkpt lat="43.7151" lon="7.03279">
        <ele>664</ele>
        <time>2023-07-30T09:18:55.000Z</time>
      </trkpt>
      <trkpt lat="43.71509" lon="7.03281">
        <ele>664</ele>
        <time>2023-07-30T09:18:56.000Z</time>
      </trkpt>
      <trkpt lat="43.71509" lon="7.03283">
        <ele>664</ele>
        <time>2023-07-30T09:18:57.000Z</time>
      </trkpt>
      <trkpt lat="43.71509" lon="7.03285">
        <ele>664</ele>
        <time>2023-07-30T09:18:58.000Z</time>
      </trkpt>
      <trkpt lat="43.71508" lon="7.03288">
        <ele>664</ele>
        <time>2023-07-30T09:18:59.000Z</time>
      </trkpt>
      <trkpt lat="43.71507" lon="7.03291">
        <ele>663</ele>
        <time>2023-07-30T09:19:00.000Z</time>
      </trkpt>
      <trkpt lat="43.71507" lon="7.03293">
        <ele>662.79998779297</ele>
        <time>2023-07-30T09:19:01.000Z</time>
      </trkpt>
      <trkpt lat="43.71507" lon="7.03296">
        <ele>662.20001220703</ele>
        <time>2023-07-30T09:19:02.000Z</time>
      </trkpt>
      <trkpt lat="43.71507" lon="7.03298">
        <ele>661.59997558594</ele>
        <time>2023-07-30T09:19:03.000Z</time>
      </trkpt>
      <trkpt lat="43.71507" lon="7.033">
        <ele>661.20001220703</ele>
        <time>2023-07-30T09:19:04.000Z</time>
      </trkpt>
      <trkpt lat="43.71506" lon="7.03302">
        <ele>660.79998779297</ele>
        <time>2023-07-30T09:19:05.000Z</time>
      </trkpt>
      <trkpt lat="43.71504" lon="7.03302">
        <ele>660.40002441406</ele>
        <time>2023-07-30T09:19:06.000Z</time>
      </trkpt>
      <trkpt lat="43.71503" lon="7.03301">
        <ele>660</ele>
        <time>2023-07-30T09:19:07.000Z</time>
      </trkpt>
      <trkpt lat="43.71503" lon="7.03301">
        <ele>659.59997558594</ele>
        <time>2023-07-30T09:19:08.000Z</time>
      </trkpt>
      <trkpt lat="43.71503" lon="7.03301">
        <ele>659.40002441406</ele>
        <time>2023-07-30T09:19:09.000Z</time>
      </trkpt>
      <trkpt lat="43.71503" lon="7.03301">
        <ele>658.79998779297</ele>
        <time>2023-07-30T09:19:10.000Z</time>
      </trkpt>
      <trkpt lat="43.71503" lon="7.03301">
        <ele>658.59997558594</ele>
        <time>2023-07-30T09:19:11.000Z</time>
      </trkpt>
      <trkpt lat="43.71503" lon="7.03301">
        <ele>658.40002441406</ele>
        <time>2023-07-30T09:19:12.000Z</time>
      </trkpt>
      <trkpt lat="43.71503" lon="7.03301">
        <ele>658.40002441406</ele>
        <time>2023-07-30T09:19:13.000Z</time>
      </trkpt>
      <trkpt lat="43.71503" lon="7.03301">
        <ele>658.40002441406</ele>
        <time>2023-07-30T09:19:14.000Z</time>
      </trkpt>
      <trkpt lat="43.71503" lon="7.03301">
        <ele>658.20001220703</ele>
        <time>2023-07-30T09:19:15.000Z</time>
      </trkpt>
      <trkpt lat="43.71503" lon="7.03301">
        <ele>658.20001220703</ele>
        <time>2023-07-30T09:19:16.000Z</time>
      </trkpt>
      <trkpt lat="43.71503" lon="7.03301">
        <ele>658.20001220703</ele>
        <time>2023-07-30T09:19:17.000Z</time>
      </trkpt>
      <trkpt lat="43.71503" lon="7.03301">
        <ele>658.20001220703</ele>
        <time>2023-07-30T09:19:18.000Z</time>
      </trkpt>
      <trkpt lat="43.71503" lon="7.03301">
        <ele>658.20001220703</ele>
        <time>2023-07-30T09:19:19.000Z</time>
      </trkpt>
      <trkpt lat="43.71503" lon="7.03301">
        <ele>658.20001220703</ele>
        <time>2023-07-30T09:19:20.000Z</time>
      </trkpt>
      <trkpt lat="43.71503" lon="7.03301">
        <ele>658.20001220703</ele>
        <time>2023-07-30T09:19:21.000Z</time>
      </trkpt>
      <trkpt lat="43.71503" lon="7.03301">
        <ele>658.20001220703</ele>
        <time>2023-07-30T09:19:22.000Z</time>
      </trkpt>
      <trkpt lat="43.71503" lon="7.03301">
        <ele>658.20001220703</ele>
        <time>2023-07-30T09:19:23.000Z</time>
      </trkpt>
      <trkpt lat="43.71503" lon="7.03301">
        <ele>658.40002441406</ele>
        <time>2023-07-30T09:19:24.000Z</time>
      </trkpt>
      <trkpt lat="43.71503" lon="7.03301">
        <ele>658.40002441406</ele>
        <time>2023-07-30T09:19:25.000Z</time>
      </trkpt>
      <trkpt lat="43.71503" lon="7.03301">
        <ele>658.40002441406</ele>
        <time>2023-07-30T09:19:26.000Z</time>
      </trkpt>
      <trkpt lat="43.71503" lon="7.03301">
        <ele>658.40002441406</ele>
        <time>2023-07-30T09:19:27.000Z</time>
      </trkpt>
      <trkpt lat="43.71503" lon="7.03301">
        <ele>658.40002441406</ele>
        <time>2023-07-30T09:19:28.000Z</time>
      </trkpt>
      <trkpt lat="43.71503" lon="7.03301">
        <ele>658.40002441406</ele>
        <time>2023-07-30T09:19:29.000Z</time>
      </trkpt>
      <trkpt lat="43.71503" lon="7.03301">
        <ele>658.40002441406</ele>
        <time>2023-07-30T09:19:30.000Z</time>
      </trkpt>
      <trkpt lat="43.71503" lon="7.03301">
        <ele>658.40002441406</ele>
        <time>2023-07-30T09:19:31.000Z</time>
      </trkpt>
      <trkpt lat="43.71503" lon="7.03301">
        <ele>658.40002441406</ele>
        <time>2023-07-30T09:19:32.000Z</time>
      </trkpt>
      <trkpt lat="43.71503" lon="7.03301">
        <ele>658.40002441406</ele>
        <time>2023-07-30T09:19:33.000Z</time>
      </trkpt>
      <trkpt lat="43.71503" lon="7.03301">
        <ele>658.40002441406</ele>
        <time>2023-07-30T09:19:34.000Z</time>
      </trkpt>
      <trkpt lat="43.71503" lon="7.03301">
        <ele>658.40002441406</ele>
        <time>2023-07-30T09:19:35.000Z</time>
      </trkpt>
      <trkpt lat="43.71503" lon="7.03301">
        <ele>658.40002441406</ele>
        <time>2023-07-30T09:19:36.000Z</time>
      </trkpt>
      <trkpt lat="43.71503" lon="7.03301">
        <ele>658.40002441406</ele>
        <time>2023-07-30T09:19:37.000Z</time>
      </trkpt>
      <trkpt lat="43.71503" lon="7.03301">
        <ele>658.40002441406</ele>
        <time>2023-07-30T09:19:38.000Z</time>
      </trkpt>
      <trkpt lat="43.71503" lon="7.03301">
        <ele>658.40002441406</ele>
        <time>2023-07-30T09:19:39.000Z</time>
      </trkpt>
      <trkpt lat="43.71503" lon="7.03301">
        <ele>658.40002441406</ele>
        <time>2023-07-30T09:19:40.000Z</time>
      </trkpt>
      <trkpt lat="43.71503" lon="7.03301">
        <ele>658.40002441406</ele>
        <time>2023-07-30T09:19:41.000Z</time>
      </trkpt>
      <trkpt lat="43.71503" lon="7.03301">
        <ele>658.40002441406</ele>
        <time>2023-07-30T09:19:42.000Z</time>
      </trkpt>
      <trkpt lat="43.71503" lon="7.03301">
        <ele>658.40002441406</ele>
        <time>2023-07-30T09:19:43.000Z</time>
      </trkpt>
      <trkpt lat="43.71503" lon="7.03301">
        <ele>658.40002441406</ele>
        <time>2023-07-30T09:19:44.000Z</time>
      </trkpt>
      <trkpt lat="43.71503" lon="7.03301">
        <ele>658.40002441406</ele>
        <time>2023-07-30T09:19:45.000Z</time>
      </trkpt>
      <trkpt lat="43.71503" lon="7.03301">
        <ele>658.40002441406</ele>
        <time>2023-07-30T09:19:46.000Z</time>
      </trkpt>
      <trkpt lat="43.71503" lon="7.03301">
        <ele>658.40002441406</ele>
        <time>2023-07-30T09:19:47.000Z</time>
      </trkpt>
      <trkpt lat="43.71503" lon="7.03301">
        <ele>658.40002441406</ele>
        <time>2023-07-30T09:19:48.000Z</time>
      </trkpt>
      <trkpt lat="43.71503" lon="7.03301">
        <ele>658.40002441406</ele>
        <time>2023-07-30T09:19:49.000Z</time>
      </trkpt>
      <trkpt lat="43.71503" lon="7.03301">
        <ele>658.40002441406</ele>
        <time>2023-07-30T09:19:50.000Z</time>
      </trkpt>
      <trkpt lat="43.71503" lon="7.03301">
        <ele>658.40002441406</ele>
        <time>2023-07-30T09:19:51.000Z</time>
      </trkpt>
      <trkpt lat="43.71503" lon="7.03301">
        <ele>658.40002441406</ele>
        <time>2023-07-30T09:19:52.000Z</time>
      </trkpt>
      <trkpt lat="43.71503" lon="7.03301">
        <ele>658.40002441406</ele>
        <time>2023-07-30T09:19:53.000Z</time>
      </trkpt>
      <trkpt lat="43.71503" lon="7.03301">
        <ele>658.40002441406</ele>
        <time>2023-07-30T09:19:54.000Z</time>
      </trkpt>
      <trkpt lat="43.71503" lon="7.03301">
        <ele>658.40002441406</ele>
        <time>2023-07-30T09:19:55.000Z</time>
      </trkpt>
      <trkpt lat="43.71503" lon="7.03301">
        <ele>658.40002441406</ele>
        <time>2023-07-30T09:19:56.000Z</time>
      </trkpt>
      <trkpt lat="43.71503" lon="7.03301">
        <ele>658.40002441406</ele>
        <time>2023-07-30T09:19:57.000Z</time>
      </trkpt>
      <trkpt lat="43.71503" lon="7.03301">
        <ele>658.40002441406</ele>
        <time>2023-07-30T09:19:58.000Z</time>
      </trkpt>
      <trkpt lat="43.71503" lon="7.03301">
        <ele>658.59997558594</ele>
        <time>2023-07-30T09:19:59.000Z</time>
      </trkpt>
      <trkpt lat="43.71503" lon="7.03301">
        <ele>658.59997558594</ele>
        <time>2023-07-30T09:20:00.000Z</time>
      </trkpt>
      <trkpt lat="43.71503" lon="7.033">
        <ele>658.59997558594</ele>
        <time>2023-07-30T09:20:01.000Z</time>
      </trkpt>
      <trkpt lat="43.71503" lon="7.03299">
        <ele>658.59997558594</ele>
        <time>2023-07-30T09:20:02.000Z</time>
      </trkpt>
      <trkpt lat="43.71502" lon="7.03298">
        <ele>658.59997558594</ele>
        <time>2023-07-30T09:20:03.000Z</time>
      </trkpt>
      <trkpt lat="43.71501" lon="7.03296">
        <ele>658.40002441406</ele>
        <time>2023-07-30T09:20:04.000Z</time>
      </trkpt>
      <trkpt lat="43.715" lon="7.03295">
        <ele>658.40002441406</ele>
        <time>2023-07-30T09:20:05.000Z</time>
      </trkpt>
      <trkpt lat="43.71499" lon="7.03295">
        <ele>658.40002441406</ele>
        <time>2023-07-30T09:20:06.000Z</time>
      </trkpt>
      <trkpt lat="43.71498" lon="7.03297">
        <ele>658</ele>
        <time>2023-07-30T09:20:07.000Z</time>
      </trkpt>
      <trkpt lat="43.71498" lon="7.03299">
        <ele>657.59997558594</ele>
        <time>2023-07-30T09:20:08.000Z</time>
      </trkpt>
      <trkpt lat="43.71498" lon="7.033">
        <ele>657.59997558594</ele>
        <time>2023-07-30T09:20:09.000Z</time>
      </trkpt>
      <trkpt lat="43.71499" lon="7.03301">
        <ele>657.59997558594</ele>
        <time>2023-07-30T09:20:10.000Z</time>
      </trkpt>
      <trkpt lat="43.71499" lon="7.03301">
        <ele>657.40002441406</ele>
        <time>2023-07-30T09:20:11.000Z</time>
      </trkpt>
      <trkpt lat="43.71499" lon="7.03301">
        <ele>657.20001220703</ele>
        <time>2023-07-30T09:20:12.000Z</time>
      </trkpt>
      <trkpt lat="43.71499" lon="7.03301">
        <ele>656.79998779297</ele>
        <time>2023-07-30T09:20:13.000Z</time>
      </trkpt>
      <trkpt lat="43.71499" lon="7.03301">
        <ele>656.59997558594</ele>
        <time>2023-07-30T09:20:14.000Z</time>
      </trkpt>
      <trkpt lat="43.71499" lon="7.03301">
        <ele>656.40002441406</ele>
        <time>2023-07-30T09:20:15.000Z</time>
      </trkpt>
      <trkpt lat="43.71499" lon="7.03301">
        <ele>656.40002441406</ele>
        <time>2023-07-30T09:20:16.000Z</time>
      </trkpt>
      <trkpt lat="43.71499" lon="7.03301">
        <ele>656.40002441406</ele>
        <time>2023-07-30T09:20:17.000Z</time>
      </trkpt>
      <trkpt lat="43.71499" lon="7.03301">
        <ele>656.40002441406</ele>
        <time>2023-07-30T09:20:18.000Z</time>
      </trkpt>
      <trkpt lat="43.71499" lon="7.03301">
        <ele>656.40002441406</ele>
        <time>2023-07-30T09:20:19.000Z</time>
      </trkpt>
      <trkpt lat="43.71499" lon="7.03301">
        <ele>656.40002441406</ele>
        <time>2023-07-30T09:20:20.000Z</time>
      </trkpt>
      <trkpt lat="43.71499" lon="7.03301">
        <ele>656.40002441406</ele>
        <time>2023-07-30T09:20:21.000Z</time>
      </trkpt>
      <trkpt lat="43.71499" lon="7.03301">
        <ele>656.40002441406</ele>
        <time>2023-07-30T09:20:22.000Z</time>
      </trkpt>
      <trkpt lat="43.71499" lon="7.03301">
        <ele>656.40002441406</ele>
        <time>2023-07-30T09:20:23.000Z</time>
      </trkpt>
      <trkpt lat="43.71499" lon="7.03301">
        <ele>656.40002441406</ele>
        <time>2023-07-30T09:20:24.000Z</time>
      </trkpt>
      <trkpt lat="43.71499" lon="7.03301">
        <ele>656.40002441406</ele>
        <time>2023-07-30T09:20:25.000Z</time>
      </trkpt>
      <trkpt lat="43.71499" lon="7.03301">
        <ele>656.40002441406</ele>
        <time>2023-07-30T09:20:26.000Z</time>
      </trkpt>
      <trkpt lat="43.71499" lon="7.03301">
        <ele>656.40002441406</ele>
        <time>2023-07-30T09:20:27.000Z</time>
      </trkpt>
      <trkpt lat="43.71499" lon="7.03301">
        <ele>656.40002441406</ele>
        <time>2023-07-30T09:20:28.000Z</time>
      </trkpt>
      <trkpt lat="43.71499" lon="7.03301">
        <ele>656.40002441406</ele>
        <time>2023-07-30T09:20:29.000Z</time>
      </trkpt>
      <trkpt lat="43.71499" lon="7.03301">
        <ele>656.40002441406</ele>
        <time>2023-07-30T09:20:30.000Z</time>
      </trkpt>
      <trkpt lat="43.71499" lon="7.03301">
        <ele>656.40002441406</ele>
        <time>2023-07-30T09:20:31.000Z</time>
      </trkpt>
      <trkpt lat="43.71499" lon="7.03301">
        <ele>656.40002441406</ele>
        <time>2023-07-30T09:20:32.000Z</time>
      </trkpt>
      <trkpt lat="43.71499" lon="7.03301">
        <ele>656.40002441406</ele>
        <time>2023-07-30T09:20:33.000Z</time>
      </trkpt>
      <trkpt lat="43.71499" lon="7.03301">
        <ele>656.40002441406</ele>
        <time>2023-07-30T09:20:34.000Z</time>
      </trkpt>
      <trkpt lat="43.71499" lon="7.03301">
        <ele>656.40002441406</ele>
        <time>2023-07-30T09:20:35.000Z</time>
      </trkpt>
      <trkpt lat="43.71499" lon="7.03301">
        <ele>656.40002441406</ele>
        <time>2023-07-30T09:20:36.000Z</time>
      </trkpt>
      <trkpt lat="43.71499" lon="7.03301">
        <ele>656.40002441406</ele>
        <time>2023-07-30T09:20:37.000Z</time>
      </trkpt>
      <trkpt lat="43.71499" lon="7.03301">
        <ele>656.40002441406</ele>
        <time>2023-07-30T09:20:38.000Z</time>
      </trkpt>
      <trkpt lat="43.71499" lon="7.03301">
        <ele>656.40002441406</ele>
        <time>2023-07-30T09:20:39.000Z</time>
      </trkpt>
      <trkpt lat="43.71499" lon="7.03301">
        <ele>656.40002441406</ele>
        <time>2023-07-30T09:20:40.000Z</time>
      </trkpt>
      <trkpt lat="43.71499" lon="7.033">
        <ele>656.40002441406</ele>
        <time>2023-07-30T09:20:41.000Z</time>
      </trkpt>
      <trkpt lat="43.71499" lon="7.033">
        <ele>656.40002441406</ele>
        <time>2023-07-30T09:20:42.000Z</time>
      </trkpt>
      <trkpt lat="43.71499" lon="7.033">
        <ele>656.40002441406</ele>
        <time>2023-07-30T09:20:43.000Z</time>
      </trkpt>
      <trkpt lat="43.71499" lon="7.033">
        <ele>656.40002441406</ele>
        <time>2023-07-30T09:20:44.000Z</time>
      </trkpt>
      <trkpt lat="43.71499" lon="7.033">
        <ele>656.40002441406</ele>
        <time>2023-07-30T09:20:45.000Z</time>
      </trkpt>
      <trkpt lat="43.71499" lon="7.033">
        <ele>656.40002441406</ele>
        <time>2023-07-30T09:20:46.000Z</time>
      </trkpt>
      <trkpt lat="43.71499" lon="7.033">
        <ele>656.40002441406</ele>
        <time>2023-07-30T09:20:47.000Z</time>
      </trkpt>
      <trkpt lat="43.71499" lon="7.033">
        <ele>656.20001220703</ele>
        <time>2023-07-30T09:20:48.000Z</time>
      </trkpt>
      <trkpt lat="43.71499" lon="7.033">
        <ele>656.20001220703</ele>
        <time>2023-07-30T09:20:49.000Z</time>
      </trkpt>
      <trkpt lat="43.71499" lon="7.033">
        <ele>656.20001220703</ele>
        <time>2023-07-30T09:20:50.000Z</time>
      </trkpt>
      <trkpt lat="43.71499" lon="7.03301">
        <ele>656.20001220703</ele>
        <time>2023-07-30T09:20:51.000Z</time>
      </trkpt>
      <trkpt lat="43.71499" lon="7.03304">
        <ele>656.20001220703</ele>
        <time>2023-07-30T09:20:52.000Z</time>
      </trkpt>
      <trkpt lat="43.71499" lon="7.03307">
        <ele>656.20001220703</ele>
        <time>2023-07-30T09:20:53.000Z</time>
      </trkpt>
      <trkpt lat="43.71499" lon="7.03309">
        <ele>656.20001220703</ele>
        <time>2023-07-30T09:20:54.000Z</time>
      </trkpt>
      <trkpt lat="43.71499" lon="7.03312">
        <ele>656</ele>
        <time>2023-07-30T09:20:55.000Z</time>
      </trkpt>
      <trkpt lat="43.71501" lon="7.03314">
        <ele>656</ele>
        <time>2023-07-30T09:20:56.000Z</time>
      </trkpt>
      <trkpt lat="43.71501" lon="7.03315">
        <ele>655.40002441406</ele>
        <time>2023-07-30T09:20:57.000Z</time>
      </trkpt>
      <trkpt lat="43.71502" lon="7.03317">
        <ele>655.40002441406</ele>
        <time>2023-07-30T09:20:58.000Z</time>
      </trkpt>
      <trkpt lat="43.71502" lon="7.0332">
        <ele>655.20001220703</ele>
        <time>2023-07-30T09:20:59.000Z</time>
      </trkpt>
      <trkpt lat="43.71502" lon="7.03324">
        <ele>654.79998779297</ele>
        <time>2023-07-30T09:21:00.000Z</time>
      </trkpt>
      <trkpt lat="43.71502" lon="7.03327">
        <ele>653.79998779297</ele>
        <time>2023-07-30T09:21:01.000Z</time>
      </trkpt>
      <trkpt lat="43.71502" lon="7.0333">
        <ele>653.59997558594</ele>
        <time>2023-07-30T09:21:02.000Z</time>
      </trkpt>
      <trkpt lat="43.71502" lon="7.03334">
        <ele>653.59997558594</ele>
        <time>2023-07-30T09:21:03.000Z</time>
      </trkpt>
      <trkpt lat="43.71503" lon="7.03339">
        <ele>653</ele>
        <time>2023-07-30T09:21:04.000Z</time>
      </trkpt>
      <trkpt lat="43.71503" lon="7.03343">
        <ele>652.79998779297</ele>
        <time>2023-07-30T09:21:05.000Z</time>
      </trkpt>
      <trkpt lat="43.71504" lon="7.03347">
        <ele>652.20001220703</ele>
        <time>2023-07-30T09:21:06.000Z</time>
      </trkpt>
      <trkpt lat="43.71504" lon="7.03349">
        <ele>652</ele>
        <time>2023-07-30T09:21:07.000Z</time>
      </trkpt>
      <trkpt lat="43.71504" lon="7.03352">
        <ele>651</ele>
        <time>2023-07-30T09:21:08.000Z</time>
      </trkpt>
      <trkpt lat="43.71504" lon="7.03355">
        <ele>651</ele>
        <time>2023-07-30T09:21:09.000Z</time>
      </trkpt>
      <trkpt lat="43.71504" lon="7.03358">
        <ele>650.20001220703</ele>
        <time>2023-07-30T09:21:10.000Z</time>
      </trkpt>
      <trkpt lat="43.71504" lon="7.03361">
        <ele>649.59997558594</ele>
        <time>2023-07-30T09:21:11.000Z</time>
      </trkpt>
      <trkpt lat="43.71504" lon="7.03364">
        <ele>648.79998779297</ele>
        <time>2023-07-30T09:21:12.000Z</time>
      </trkpt>
      <trkpt lat="43.71505" lon="7.03367">
        <ele>648.40002441406</ele>
        <time>2023-07-30T09:21:13.000Z</time>
      </trkpt>
      <trkpt lat="43.71505" lon="7.03369">
        <ele>647.59997558594</ele>
        <time>2023-07-30T09:21:14.000Z</time>
      </trkpt>
      <trkpt lat="43.71505" lon="7.03373">
        <ele>647</ele>
        <time>2023-07-30T09:21:15.000Z</time>
      </trkpt>
      <trkpt lat="43.71504" lon="7.03376">
        <ele>646.79998779297</ele>
        <time>2023-07-30T09:21:16.000Z</time>
      </trkpt>
      <trkpt lat="43.71504" lon="7.0338">
        <ele>646</ele>
        <time>2023-07-30T09:21:17.000Z</time>
      </trkpt>
      <trkpt lat="43.71503" lon="7.03383">
        <ele>645.59997558594</ele>
        <time>2023-07-30T09:21:18.000Z</time>
      </trkpt>
      <trkpt lat="43.71503" lon="7.03385">
        <ele>645.20001220703</ele>
        <time>2023-07-30T09:21:19.000Z</time>
      </trkpt>
      <trkpt lat="43.71502" lon="7.03389">
        <ele>644.59997558594</ele>
        <time>2023-07-30T09:21:20.000Z</time>
      </trkpt>
      <trkpt lat="43.71502" lon="7.03391">
        <ele>644.20001220703</ele>
        <time>2023-07-30T09:21:21.000Z</time>
      </trkpt>
      <trkpt lat="43.71502" lon="7.03391">
        <ele>643.79998779297</ele>
        <time>2023-07-30T09:21:22.000Z</time>
      </trkpt>
      <trkpt lat="43.71502" lon="7.03391">
        <ele>643</ele>
        <time>2023-07-30T09:21:23.000Z</time>
      </trkpt>
      <trkpt lat="43.71501" lon="7.03391">
        <ele>642.79998779297</ele>
        <time>2023-07-30T09:21:24.000Z</time>
      </trkpt>
      <trkpt lat="43.71501" lon="7.03391">
        <ele>642.79998779297</ele>
        <time>2023-07-30T09:21:25.000Z</time>
      </trkpt>
      <trkpt lat="43.71501" lon="7.03391">
        <ele>642.79998779297</ele>
        <time>2023-07-30T09:21:26.000Z</time>
      </trkpt>
      <trkpt lat="43.71501" lon="7.03391">
        <ele>642.59997558594</ele>
        <time>2023-07-30T09:21:27.000Z</time>
      </trkpt>
      <trkpt lat="43.71501" lon="7.03391">
        <ele>642.59997558594</ele>
        <time>2023-07-30T09:21:28.000Z</time>
      </trkpt>
      <trkpt lat="43.71501" lon="7.03391">
        <ele>642.59997558594</ele>
        <time>2023-07-30T09:21:29.000Z</time>
      </trkpt>
      <trkpt lat="43.71501" lon="7.03391">
        <ele>642.59997558594</ele>
        <time>2023-07-30T09:21:30.000Z</time>
      </trkpt>
      <trkpt lat="43.71501" lon="7.03391">
        <ele>642.59997558594</ele>
        <time>2023-07-30T09:21:31.000Z</time>
      </trkpt>
      <trkpt lat="43.71501" lon="7.03391">
        <ele>642.59997558594</ele>
        <time>2023-07-30T09:21:32.000Z</time>
      </trkpt>
      <trkpt lat="43.71501" lon="7.03391">
        <ele>642.59997558594</ele>
        <time>2023-07-30T09:21:33.000Z</time>
      </trkpt>
      <trkpt lat="43.71501" lon="7.03391">
        <ele>642.59997558594</ele>
        <time>2023-07-30T09:21:34.000Z</time>
      </trkpt>
      <trkpt lat="43.71501" lon="7.03391">
        <ele>642.59997558594</ele>
        <time>2023-07-30T09:21:35.000Z</time>
      </trkpt>
      <trkpt lat="43.71501" lon="7.03391">
        <ele>642.59997558594</ele>
        <time>2023-07-30T09:21:36.000Z</time>
      </trkpt>
      <trkpt lat="43.71501" lon="7.03391">
        <ele>642.59997558594</ele>
        <time>2023-07-30T09:21:37.000Z</time>
      </trkpt>
      <trkpt lat="43.71501" lon="7.03391">
        <ele>642.40002441406</ele>
        <time>2023-07-30T09:21:38.000Z</time>
      </trkpt>
      <trkpt lat="43.71501" lon="7.03391">
        <ele>642.40002441406</ele>
        <time>2023-07-30T09:21:39.000Z</time>
      </trkpt>
      <trkpt lat="43.71501" lon="7.03391">
        <ele>642.40002441406</ele>
        <time>2023-07-30T09:21:40.000Z</time>
      </trkpt>
      <trkpt lat="43.71502" lon="7.03391">
        <ele>642.40002441406</ele>
        <time>2023-07-30T09:21:41.000Z</time>
      </trkpt>
      <trkpt lat="43.71502" lon="7.03391">
        <ele>642.40002441406</ele>
        <time>2023-07-30T09:21:42.000Z</time>
      </trkpt>
      <trkpt lat="43.71502" lon="7.03391">
        <ele>642.40002441406</ele>
        <time>2023-07-30T09:21:43.000Z</time>
      </trkpt>
      <trkpt lat="43.71502" lon="7.03391">
        <ele>642.20001220703</ele>
        <time>2023-07-30T09:21:44.000Z</time>
      </trkpt>
      <trkpt lat="43.71502" lon="7.03391">
        <ele>642.20001220703</ele>
        <time>2023-07-30T09:21:45.000Z</time>
      </trkpt>
      <trkpt lat="43.71502" lon="7.03391">
        <ele>642.20001220703</ele>
        <time>2023-07-30T09:21:46.000Z</time>
      </trkpt>
      <trkpt lat="43.71502" lon="7.03391">
        <ele>642.20001220703</ele>
        <time>2023-07-30T09:21:47.000Z</time>
      </trkpt>
      <trkpt lat="43.71502" lon="7.03391">
        <ele>642.20001220703</ele>
        <time>2023-07-30T09:21:48.000Z</time>
      </trkpt>
      <trkpt lat="43.71502" lon="7.03391">
        <ele>642.20001220703</ele>
        <time>2023-07-30T09:21:49.000Z</time>
      </trkpt>
      <trkpt lat="43.71502" lon="7.03391">
        <ele>642.20001220703</ele>
        <time>2023-07-30T09:21:50.000Z</time>
      </trkpt>
      <trkpt lat="43.71502" lon="7.03391">
        <ele>642.20001220703</ele>
        <time>2023-07-30T09:21:51.000Z</time>
      </trkpt>
      <trkpt lat="43.71502" lon="7.03391">
        <ele>642.20001220703</ele>
        <time>2023-07-30T09:21:52.000Z</time>
      </trkpt>
      <trkpt lat="43.71502" lon="7.03391">
        <ele>642.20001220703</ele>
        <time>2023-07-30T09:21:53.000Z</time>
      </trkpt>
      <trkpt lat="43.71502" lon="7.03391">
        <ele>642</ele>
        <time>2023-07-30T09:21:54.000Z</time>
      </trkpt>
      <trkpt lat="43.71502" lon="7.03391">
        <ele>642</ele>
        <time>2023-07-30T09:21:55.000Z</time>
      </trkpt>
      <trkpt lat="43.71502" lon="7.03391">
        <ele>642.20001220703</ele>
        <time>2023-07-30T09:21:56.000Z</time>
      </trkpt>
      <trkpt lat="43.71502" lon="7.03391">
        <ele>642.20001220703</ele>
        <time>2023-07-30T09:21:57.000Z</time>
      </trkpt>
      <trkpt lat="43.71502" lon="7.03391">
        <ele>642.20001220703</ele>
        <time>2023-07-30T09:21:58.000Z</time>
      </trkpt>
      <trkpt lat="43.71502" lon="7.03391">
        <ele>642.20001220703</ele>
        <time>2023-07-30T09:21:59.000Z</time>
      </trkpt>
      <trkpt lat="43.71502" lon="7.03391">
        <ele>642.20001220703</ele>
        <time>2023-07-30T09:22:00.000Z</time>
      </trkpt>
      <trkpt lat="43.71502" lon="7.03391">
        <ele>642.20001220703</ele>
        <time>2023-07-30T09:22:01.000Z</time>
      </trkpt>
      <trkpt lat="43.71502" lon="7.03391">
        <ele>642.20001220703</ele>
        <time>2023-07-30T09:22:02.000Z</time>
      </trkpt>
      <trkpt lat="43.71502" lon="7.03391">
        <ele>642.20001220703</ele>
        <time>2023-07-30T09:22:03.000Z</time>
      </trkpt>
      <trkpt lat="43.71502" lon="7.03391">
        <ele>642.20001220703</ele>
        <time>2023-07-30T09:22:04.000Z</time>
      </trkpt>
      <trkpt lat="43.71502" lon="7.03391">
        <ele>642.20001220703</ele>
        <time>2023-07-30T09:22:05.000Z</time>
      </trkpt>
      <trkpt lat="43.71502" lon="7.03391">
        <ele>642.20001220703</ele>
        <time>2023-07-30T09:22:06.000Z</time>
      </trkpt>
      <trkpt lat="43.71502" lon="7.03391">
        <ele>642.20001220703</ele>
        <time>2023-07-30T09:22:07.000Z</time>
      </trkpt>
      <trkpt lat="43.71502" lon="7.03391">
        <ele>642.20001220703</ele>
        <time>2023-07-30T09:22:08.000Z</time>
      </trkpt>
      <trkpt lat="43.71503" lon="7.03392">
        <ele>642.20001220703</ele>
        <time>2023-07-30T09:22:09.000Z</time>
      </trkpt>
      <trkpt lat="43.71503" lon="7.03392">
        <ele>642.20001220703</ele>
        <time>2023-07-30T09:22:10.000Z</time>
      </trkpt>
      <trkpt lat="43.71503" lon="7.03392">
        <ele>642.20001220703</ele>
        <time>2023-07-30T09:22:11.000Z</time>
      </trkpt>
      <trkpt lat="43.71503" lon="7.03392">
        <ele>642.20001220703</ele>
        <time>2023-07-30T09:22:12.000Z</time>
      </trkpt>
      <trkpt lat="43.71503" lon="7.03392">
        <ele>642.20001220703</ele>
        <time>2023-07-30T09:22:13.000Z</time>
      </trkpt>
      <trkpt lat="43.71503" lon="7.03392">
        <ele>642</ele>
        <time>2023-07-30T09:22:14.000Z</time>
      </trkpt>
      <trkpt lat="43.71503" lon="7.03392">
        <ele>642</ele>
        <time>2023-07-30T09:22:15.000Z</time>
      </trkpt>
      <trkpt lat="43.71503" lon="7.03392">
        <ele>642</ele>
        <time>2023-07-30T09:22:16.000Z</time>
      </trkpt>
      <trkpt lat="43.71503" lon="7.03392">
        <ele>642</ele>
        <time>2023-07-30T09:22:17.000Z</time>
      </trkpt>
      <trkpt lat="43.71503" lon="7.03392">
        <ele>642</ele>
        <time>2023-07-30T09:22:18.000Z</time>
      </trkpt>
      <trkpt lat="43.71503" lon="7.03392">
        <ele>642</ele>
        <time>2023-07-30T09:22:19.000Z</time>
      </trkpt>
      <trkpt lat="43.71503" lon="7.03392">
        <ele>642</ele>
        <time>2023-07-30T09:22:20.000Z</time>
      </trkpt>
      <trkpt lat="43.71503" lon="7.03392">
        <ele>642</ele>
        <time>2023-07-30T09:22:21.000Z</time>
      </trkpt>
      <trkpt lat="43.71503" lon="7.03392">
        <ele>642</ele>
        <time>2023-07-30T09:22:22.000Z</time>
      </trkpt>
      <trkpt lat="43.71503" lon="7.03392">
        <ele>642</ele>
        <time>2023-07-30T09:22:23.000Z</time>
      </trkpt>
      <trkpt lat="43.71503" lon="7.03392">
        <ele>642</ele>
        <time>2023-07-30T09:22:24.000Z</time>
      </trkpt>
      <trkpt lat="43.71503" lon="7.03392">
        <ele>642</ele>
        <time>2023-07-30T09:22:25.000Z</time>
      </trkpt>
      <trkpt lat="43.71503" lon="7.03392">
        <ele>642</ele>
        <time>2023-07-30T09:22:26.000Z</time>
      </trkpt>
      <trkpt lat="43.71503" lon="7.03392">
        <ele>642</ele>
        <time>2023-07-30T09:22:27.000Z</time>
      </trkpt>
      <trkpt lat="43.71503" lon="7.03392">
        <ele>642</ele>
        <time>2023-07-30T09:22:28.000Z</time>
      </trkpt>
      <trkpt lat="43.71503" lon="7.03392">
        <ele>641.79998779297</ele>
        <time>2023-07-30T09:22:29.000Z</time>
      </trkpt>
      <trkpt lat="43.71503" lon="7.03392">
        <ele>641.79998779297</ele>
        <time>2023-07-30T09:22:30.000Z</time>
      </trkpt>
      <trkpt lat="43.71503" lon="7.03392">
        <ele>641.79998779297</ele>
        <time>2023-07-30T09:22:31.000Z</time>
      </trkpt>
      <trkpt lat="43.71503" lon="7.03392">
        <ele>641.79998779297</ele>
        <time>2023-07-30T09:22:32.000Z</time>
      </trkpt>
      <trkpt lat="43.71503" lon="7.03392">
        <ele>641.79998779297</ele>
        <time>2023-07-30T09:22:33.000Z</time>
      </trkpt>
      <trkpt lat="43.71503" lon="7.03392">
        <ele>641.79998779297</ele>
        <time>2023-07-30T09:22:34.000Z</time>
      </trkpt>
      <trkpt lat="43.71503" lon="7.03392">
        <ele>641.79998779297</ele>
        <time>2023-07-30T09:22:35.000Z</time>
      </trkpt>
      <trkpt lat="43.71503" lon="7.03393">
        <ele>642</ele>
        <time>2023-07-30T09:22:36.000Z</time>
      </trkpt>
      <trkpt lat="43.71503" lon="7.03393">
        <ele>642</ele>
        <time>2023-07-30T09:22:37.000Z</time>
      </trkpt>
      <trkpt lat="43.71503" lon="7.03395">
        <ele>642</ele>
        <time>2023-07-30T09:22:38.000Z</time>
      </trkpt>
      <trkpt lat="43.71503" lon="7.03397">
        <ele>641.79998779297</ele>
        <time>2023-07-30T09:22:39.000Z</time>
      </trkpt>
      <trkpt lat="43.71503" lon="7.034">
        <ele>641.79998779297</ele>
        <time>2023-07-30T09:22:40.000Z</time>
      </trkpt>
      <trkpt lat="43.71503" lon="7.03403">
        <ele>641.59997558594</ele>
        <time>2023-07-30T09:22:41.000Z</time>
      </trkpt>
      <trkpt lat="43.71503" lon="7.03405">
        <ele>641.59997558594</ele>
        <time>2023-07-30T09:22:42.000Z</time>
      </trkpt>
      <trkpt lat="43.71503" lon="7.03407">
        <ele>641.20001220703</ele>
        <time>2023-07-30T09:22:43.000Z</time>
      </trkpt>
      <trkpt lat="43.71502" lon="7.03409">
        <ele>640.79998779297</ele>
        <time>2023-07-30T09:22:44.000Z</time>
      </trkpt>
      <trkpt lat="43.71501" lon="7.03411">
        <ele>640.40002441406</ele>
        <time>2023-07-30T09:22:45.000Z</time>
      </trkpt>
      <trkpt lat="43.715" lon="7.03413">
        <ele>639.79998779297</ele>
        <time>2023-07-30T09:22:46.000Z</time>
      </trkpt>
      <trkpt lat="43.71499" lon="7.03415">
        <ele>639.40002441406</ele>
        <time>2023-07-30T09:22:47.000Z</time>
      </trkpt>
      <trkpt lat="43.71498" lon="7.03417">
        <ele>639.20001220703</ele>
        <time>2023-07-30T09:22:48.000Z</time>
      </trkpt>
      <trkpt lat="43.71498" lon="7.03419">
        <ele>639</ele>
        <time>2023-07-30T09:22:49.000Z</time>
      </trkpt>
      <trkpt lat="43.71497" lon="7.03422">
        <ele>638.20001220703</ele>
        <time>2023-07-30T09:22:50.000Z</time>
      </trkpt>
      <trkpt lat="43.71496" lon="7.03425">
        <ele>638.20001220703</ele>
        <time>2023-07-30T09:22:51.000Z</time>
      </trkpt>
      <trkpt lat="43.71495" lon="7.03428">
        <ele>637.79998779297</ele>
        <time>2023-07-30T09:22:52.000Z</time>
      </trkpt>
      <trkpt lat="43.71495" lon="7.03431">
        <ele>637.40002441406</ele>
        <time>2023-07-30T09:22:53.000Z</time>
      </trkpt>
      <trkpt lat="43.71494" lon="7.03434">
        <ele>636.79998779297</ele>
        <time>2023-07-30T09:22:54.000Z</time>
      </trkpt>
      <trkpt lat="43.71493" lon="7.03436">
        <ele>636</ele>
        <time>2023-07-30T09:22:55.000Z</time>
      </trkpt>
      <trkpt lat="43.71493" lon="7.03439">
        <ele>635.59997558594</ele>
        <time>2023-07-30T09:22:56.000Z</time>
      </trkpt>
      <trkpt lat="43.71491" lon="7.03441">
        <ele>634.40002441406</ele>
        <time>2023-07-30T09:22:57.000Z</time>
      </trkpt>
      <trkpt lat="43.7149" lon="7.03444">
        <ele>634.20001220703</ele>
        <time>2023-07-30T09:22:58.000Z</time>
      </trkpt>
      <trkpt lat="43.71489" lon="7.03446">
        <ele>633.20001220703</ele>
        <time>2023-07-30T09:22:59.000Z</time>
      </trkpt>
      <trkpt lat="43.71488" lon="7.03449">
        <ele>632.79998779297</ele>
        <time>2023-07-30T09:23:00.000Z</time>
      </trkpt>
      <trkpt lat="43.71487" lon="7.03452">
        <ele>631.59997558594</ele>
        <time>2023-07-30T09:23:01.000Z</time>
      </trkpt>
      <trkpt lat="43.71486" lon="7.03455">
        <ele>631.40002441406</ele>
        <time>2023-07-30T09:23:02.000Z</time>
      </trkpt>
      <trkpt lat="43.71485" lon="7.03457">
        <ele>630.79998779297</ele>
        <time>2023-07-30T09:23:03.000Z</time>
      </trkpt>
      <trkpt lat="43.71484" lon="7.0346">
        <ele>630.20001220703</ele>
        <time>2023-07-30T09:23:04.000Z</time>
      </trkpt>
      <trkpt lat="43.71484" lon="7.03464">
        <ele>629.20001220703</ele>
        <time>2023-07-30T09:23:05.000Z</time>
      </trkpt>
      <trkpt lat="43.71483" lon="7.03467">
        <ele>628.40002441406</ele>
        <time>2023-07-30T09:23:06.000Z</time>
      </trkpt>
      <trkpt lat="43.71482" lon="7.0347">
        <ele>627.40002441406</ele>
        <time>2023-07-30T09:23:07.000Z</time>
      </trkpt>
      <trkpt lat="43.7148" lon="7.03472">
        <ele>627</ele>
        <time>2023-07-30T09:23:08.000Z</time>
      </trkpt>
      <trkpt lat="43.71479" lon="7.03476">
        <ele>627</ele>
        <time>2023-07-30T09:23:09.000Z</time>
      </trkpt>
      <trkpt lat="43.71478" lon="7.03479">
        <ele>626</ele>
        <time>2023-07-30T09:23:10.000Z</time>
      </trkpt>
      <trkpt lat="43.71477" lon="7.03482">
        <ele>625.40002441406</ele>
        <time>2023-07-30T09:23:11.000Z</time>
      </trkpt>
      <trkpt lat="43.71475" lon="7.03485">
        <ele>625.40002441406</ele>
        <time>2023-07-30T09:23:12.000Z</time>
      </trkpt>
      <trkpt lat="43.71474" lon="7.03488">
        <ele>624.40002441406</ele>
        <time>2023-07-30T09:23:13.000Z</time>
      </trkpt>
      <trkpt lat="43.71474" lon="7.03491">
        <ele>624</ele>
        <time>2023-07-30T09:23:14.000Z</time>
      </trkpt>
      <trkpt lat="43.71474" lon="7.03494">
        <ele>623.59997558594</ele>
        <time>2023-07-30T09:23:15.000Z</time>
      </trkpt>
      <trkpt lat="43.71474" lon="7.03497">
        <ele>623</ele>
        <time>2023-07-30T09:23:16.000Z</time>
      </trkpt>
      <trkpt lat="43.71473" lon="7.03501">
        <ele>623</ele>
        <time>2023-07-30T09:23:17.000Z</time>
      </trkpt>
      <trkpt lat="43.71472" lon="7.03506">
        <ele>623</ele>
        <time>2023-07-30T09:23:18.000Z</time>
      </trkpt>
      <trkpt lat="43.7147" lon="7.03511">
        <ele>622.59997558594</ele>
        <time>2023-07-30T09:23:19.000Z</time>
      </trkpt>
      <trkpt lat="43.71469" lon="7.03515">
        <ele>622.59997558594</ele>
        <time>2023-07-30T09:23:20.000Z</time>
      </trkpt>
      <trkpt lat="43.71468" lon="7.0352">
        <ele>621.79998779297</ele>
        <time>2023-07-30T09:23:21.000Z</time>
      </trkpt>
      <trkpt lat="43.71468" lon="7.03525">
        <ele>621.59997558594</ele>
        <time>2023-07-30T09:23:22.000Z</time>
      </trkpt>
      <trkpt lat="43.71467" lon="7.03528">
        <ele>621.20001220703</ele>
        <time>2023-07-30T09:23:23.000Z</time>
      </trkpt>
      <trkpt lat="43.71468" lon="7.03531">
        <ele>620.79998779297</ele>
        <time>2023-07-30T09:23:24.000Z</time>
      </trkpt>
      <trkpt lat="43.71468" lon="7.03532">
        <ele>620.20001220703</ele>
        <time>2023-07-30T09:23:25.000Z</time>
      </trkpt>
      <trkpt lat="43.71468" lon="7.03532">
        <ele>620</ele>
        <time>2023-07-30T09:23:26.000Z</time>
      </trkpt>
      <trkpt lat="43.71468" lon="7.03532">
        <ele>619.59997558594</ele>
        <time>2023-07-30T09:23:27.000Z</time>
      </trkpt>
      <trkpt lat="43.71468" lon="7.03532">
        <ele>619.59997558594</ele>
        <time>2023-07-30T09:23:28.000Z</time>
      </trkpt>
      <trkpt lat="43.71468" lon="7.03532">
        <ele>619.40002441406</ele>
        <time>2023-07-30T09:23:29.000Z</time>
      </trkpt>
      <trkpt lat="43.71468" lon="7.03532">
        <ele>619.40002441406</ele>
        <time>2023-07-30T09:23:30.000Z</time>
      </trkpt>
      <trkpt lat="43.71468" lon="7.03532">
        <ele>619.40002441406</ele>
        <time>2023-07-30T09:23:31.000Z</time>
      </trkpt>
      <trkpt lat="43.71468" lon="7.03532">
        <ele>619.20001220703</ele>
        <time>2023-07-30T09:23:32.000Z</time>
      </trkpt>
      <trkpt lat="43.71468" lon="7.03532">
        <ele>619</ele>
        <time>2023-07-30T09:23:33.000Z</time>
      </trkpt>
      <trkpt lat="43.71468" lon="7.03532">
        <ele>619</ele>
        <time>2023-07-30T09:23:34.000Z</time>
      </trkpt>
      <trkpt lat="43.71468" lon="7.03532">
        <ele>619</ele>
        <time>2023-07-30T09:23:35.000Z</time>
      </trkpt>
      <trkpt lat="43.71468" lon="7.03532">
        <ele>618.79998779297</ele>
        <time>2023-07-30T09:23:36.000Z</time>
      </trkpt>
      <trkpt lat="43.71468" lon="7.03532">
        <ele>618.79998779297</ele>
        <time>2023-07-30T09:23:37.000Z</time>
      </trkpt>
      <trkpt lat="43.71468" lon="7.03532">
        <ele>618.79998779297</ele>
        <time>2023-07-30T09:23:38.000Z</time>
      </trkpt>
      <trkpt lat="43.71468" lon="7.03532">
        <ele>618.79998779297</ele>
        <time>2023-07-30T09:23:39.000Z</time>
      </trkpt>
      <trkpt lat="43.71468" lon="7.03532">
        <ele>618.79998779297</ele>
        <time>2023-07-30T09:23:40.000Z</time>
      </trkpt>
      <trkpt lat="43.71468" lon="7.03532">
        <ele>618.79998779297</ele>
        <time>2023-07-30T09:23:41.000Z</time>
      </trkpt>
      <trkpt lat="43.71468" lon="7.03532">
        <ele>618.79998779297</ele>
        <time>2023-07-30T09:23:42.000Z</time>
      </trkpt>
      <trkpt lat="43.71468" lon="7.03532">
        <ele>618.59997558594</ele>
        <time>2023-07-30T09:23:43.000Z</time>
      </trkpt>
      <trkpt lat="43.71468" lon="7.03532">
        <ele>618.59997558594</ele>
        <time>2023-07-30T09:23:44.000Z</time>
      </trkpt>
      <trkpt lat="43.71468" lon="7.03532">
        <ele>618.59997558594</ele>
        <time>2023-07-30T09:23:45.000Z</time>
      </trkpt>
      <trkpt lat="43.71468" lon="7.03532">
        <ele>618.59997558594</ele>
        <time>2023-07-30T09:23:46.000Z</time>
      </trkpt>
      <trkpt lat="43.71468" lon="7.03532">
        <ele>618.59997558594</ele>
        <time>2023-07-30T09:23:47.000Z</time>
      </trkpt>
      <trkpt lat="43.71468" lon="7.03532">
        <ele>618.59997558594</ele>
        <time>2023-07-30T09:23:48.000Z</time>
      </trkpt>
      <trkpt lat="43.71468" lon="7.03532">
        <ele>618.59997558594</ele>
        <time>2023-07-30T09:23:49.000Z</time>
      </trkpt>
      <trkpt lat="43.71468" lon="7.03532">
        <ele>618.59997558594</ele>
        <time>2023-07-30T09:23:50.000Z</time>
      </trkpt>
      <trkpt lat="43.71468" lon="7.03532">
        <ele>618.59997558594</ele>
        <time>2023-07-30T09:23:51.000Z</time>
      </trkpt>
      <trkpt lat="43.71468" lon="7.03532">
        <ele>618.59997558594</ele>
        <time>2023-07-30T09:23:52.000Z</time>
      </trkpt>
      <trkpt lat="43.71468" lon="7.03532">
        <ele>618.59997558594</ele>
        <time>2023-07-30T09:23:53.000Z</time>
      </trkpt>
      <trkpt lat="43.71468" lon="7.03532">
        <ele>618.59997558594</ele>
        <time>2023-07-30T09:23:54.000Z</time>
      </trkpt>
      <trkpt lat="43.71468" lon="7.03532">
        <ele>618.59997558594</ele>
        <time>2023-07-30T09:23:55.000Z</time>
      </trkpt>
      <trkpt lat="43.71468" lon="7.03532">
        <ele>618.40002441406</ele>
        <time>2023-07-30T09:23:56.000Z</time>
      </trkpt>
      <trkpt lat="43.71468" lon="7.03532">
        <ele>618.40002441406</ele>
        <time>2023-07-30T09:23:57.000Z</time>
      </trkpt>
      <trkpt lat="43.71468" lon="7.03532">
        <ele>618.40002441406</ele>
        <time>2023-07-30T09:23:58.000Z</time>
      </trkpt>
      <trkpt lat="43.71468" lon="7.03532">
        <ele>618.40002441406</ele>
        <time>2023-07-30T09:23:59.000Z</time>
      </trkpt>
      <trkpt lat="43.71468" lon="7.03532">
        <ele>618.40002441406</ele>
        <time>2023-07-30T09:24:00.000Z</time>
      </trkpt>
      <trkpt lat="43.71468" lon="7.03532">
        <ele>618.40002441406</ele>
        <time>2023-07-30T09:24:01.000Z</time>
      </trkpt>
      <trkpt lat="43.71468" lon="7.03532">
        <ele>618.40002441406</ele>
        <time>2023-07-30T09:24:02.000Z</time>
      </trkpt>
      <trkpt lat="43.71468" lon="7.03532">
        <ele>618.40002441406</ele>
        <time>2023-07-30T09:24:03.000Z</time>
      </trkpt>
      <trkpt lat="43.71468" lon="7.03532">
        <ele>618.20001220703</ele>
        <time>2023-07-30T09:24:04.000Z</time>
      </trkpt>
      <trkpt lat="43.71468" lon="7.03532">
        <ele>618.20001220703</ele>
        <time>2023-07-30T09:24:05.000Z</time>
      </trkpt>
      <trkpt lat="43.71468" lon="7.03532">
        <ele>618.20001220703</ele>
        <time>2023-07-30T09:24:06.000Z</time>
      </trkpt>
      <trkpt lat="43.71468" lon="7.03532">
        <ele>618.20001220703</ele>
        <time>2023-07-30T09:24:07.000Z</time>
      </trkpt>
      <trkpt lat="43.71468" lon="7.03532">
        <ele>618.20001220703</ele>
        <time>2023-07-30T09:24:08.000Z</time>
      </trkpt>
      <trkpt lat="43.71468" lon="7.03532">
        <ele>618.20001220703</ele>
        <time>2023-07-30T09:24:09.000Z</time>
      </trkpt>
      <trkpt lat="43.71468" lon="7.03532">
        <ele>618.20001220703</ele>
        <time>2023-07-30T09:24:10.000Z</time>
      </trkpt>
      <trkpt lat="43.71468" lon="7.03532">
        <ele>618.20001220703</ele>
        <time>2023-07-30T09:24:11.000Z</time>
      </trkpt>
      <trkpt lat="43.71468" lon="7.03532">
        <ele>618</ele>
        <time>2023-07-30T09:24:12.000Z</time>
      </trkpt>
      <trkpt lat="43.71468" lon="7.03532">
        <ele>618</ele>
        <time>2023-07-30T09:24:13.000Z</time>
      </trkpt>
      <trkpt lat="43.71468" lon="7.03532">
        <ele>618</ele>
        <time>2023-07-30T09:24:14.000Z</time>
      </trkpt>
      <trkpt lat="43.71468" lon="7.03532">
        <ele>618</ele>
        <time>2023-07-30T09:24:15.000Z</time>
      </trkpt>
      <trkpt lat="43.71468" lon="7.03532">
        <ele>618</ele>
        <time>2023-07-30T09:24:16.000Z</time>
      </trkpt>
      <trkpt lat="43.71468" lon="7.03532">
        <ele>617.79998779297</ele>
        <time>2023-07-30T09:24:17.000Z</time>
      </trkpt>
      <trkpt lat="43.71468" lon="7.03532">
        <ele>617.79998779297</ele>
        <time>2023-07-30T09:24:18.000Z</time>
      </trkpt>
      <trkpt lat="43.71468" lon="7.03532">
        <ele>617.79998779297</ele>
        <time>2023-07-30T09:24:19.000Z</time>
      </trkpt>
      <trkpt lat="43.71468" lon="7.03532">
        <ele>617.79998779297</ele>
        <time>2023-07-30T09:24:20.000Z</time>
      </trkpt>
      <trkpt lat="43.71468" lon="7.03532">
        <ele>617.79998779297</ele>
        <time>2023-07-30T09:24:21.000Z</time>
      </trkpt>
      <trkpt lat="43.71468" lon="7.03532">
        <ele>617.79998779297</ele>
        <time>2023-07-30T09:24:22.000Z</time>
      </trkpt>
      <trkpt lat="43.71468" lon="7.03532">
        <ele>617.79998779297</ele>
        <time>2023-07-30T09:24:23.000Z</time>
      </trkpt>
      <trkpt lat="43.71468" lon="7.03532">
        <ele>617.59997558594</ele>
        <time>2023-07-30T09:24:24.000Z</time>
      </trkpt>
      <trkpt lat="43.71468" lon="7.03532">
        <ele>617.59997558594</ele>
        <time>2023-07-30T09:24:25.000Z</time>
      </trkpt>
      <trkpt lat="43.71468" lon="7.03532">
        <ele>617.59997558594</ele>
        <time>2023-07-30T09:24:26.000Z</time>
      </trkpt>
      <trkpt lat="43.71468" lon="7.03532">
        <ele>617.59997558594</ele>
        <time>2023-07-30T09:24:27.000Z</time>
      </trkpt>
      <trkpt lat="43.71468" lon="7.03532">
        <ele>617.59997558594</ele>
        <time>2023-07-30T09:24:28.000Z</time>
      </trkpt>
      <trkpt lat="43.71468" lon="7.03532">
        <ele>617.59997558594</ele>
        <time>2023-07-30T09:24:29.000Z</time>
      </trkpt>
      <trkpt lat="43.71468" lon="7.03532">
        <ele>617.59997558594</ele>
        <time>2023-07-30T09:24:30.000Z</time>
      </trkpt>
      <trkpt lat="43.71468" lon="7.03532">
        <ele>617.59997558594</ele>
        <time>2023-07-30T09:24:31.000Z</time>
      </trkpt>
      <trkpt lat="43.71468" lon="7.03532">
        <ele>617.59997558594</ele>
        <time>2023-07-30T09:24:32.000Z</time>
      </trkpt>
      <trkpt lat="43.71468" lon="7.03532">
        <ele>617.59997558594</ele>
        <time>2023-07-30T09:24:33.000Z</time>
      </trkpt>
      <trkpt lat="43.71468" lon="7.03532">
        <ele>617.59997558594</ele>
        <time>2023-07-30T09:24:34.000Z</time>
      </trkpt>
      <trkpt lat="43.71468" lon="7.03532">
        <ele>617.59997558594</ele>
        <time>2023-07-30T09:24:35.000Z</time>
      </trkpt>
      <trkpt lat="43.71468" lon="7.03532">
        <ele>617.59997558594</ele>
        <time>2023-07-30T09:24:36.000Z</time>
      </trkpt>
      <trkpt lat="43.71468" lon="7.03532">
        <ele>617.59997558594</ele>
        <time>2023-07-30T09:24:37.000Z</time>
      </trkpt>
      <trkpt lat="43.71468" lon="7.03532">
        <ele>617.59997558594</ele>
        <time>2023-07-30T09:24:38.000Z</time>
      </trkpt>
      <trkpt lat="43.71468" lon="7.03532">
        <ele>617.59997558594</ele>
        <time>2023-07-30T09:24:39.000Z</time>
      </trkpt>
      <trkpt lat="43.71468" lon="7.03532">
        <ele>617.59997558594</ele>
        <time>2023-07-30T09:24:40.000Z</time>
      </trkpt>
      <trkpt lat="43.71468" lon="7.03532">
        <ele>617.59997558594</ele>
        <time>2023-07-30T09:24:41.000Z</time>
      </trkpt>
      <trkpt lat="43.71468" lon="7.03532">
        <ele>617.59997558594</ele>
        <time>2023-07-30T09:24:42.000Z</time>
      </trkpt>
      <trkpt lat="43.71468" lon="7.03532">
        <ele>617.59997558594</ele>
        <time>2023-07-30T09:24:43.000Z</time>
      </trkpt>
      <trkpt lat="43.71468" lon="7.03532">
        <ele>617.59997558594</ele>
        <time>2023-07-30T09:24:44.000Z</time>
      </trkpt>
      <trkpt lat="43.71468" lon="7.03532">
        <ele>617.59997558594</ele>
        <time>2023-07-30T09:24:45.000Z</time>
      </trkpt>
      <trkpt lat="43.71468" lon="7.03532">
        <ele>617.59997558594</ele>
        <time>2023-07-30T09:24:46.000Z</time>
      </trkpt>
      <trkpt lat="43.71468" lon="7.03532">
        <ele>617.40002441406</ele>
        <time>2023-07-30T09:24:47.000Z</time>
      </trkpt>
      <trkpt lat="43.71468" lon="7.03532">
        <ele>617.40002441406</ele>
        <time>2023-07-30T09:24:48.000Z</time>
      </trkpt>
      <trkpt lat="43.71468" lon="7.03532">
        <ele>617.40002441406</ele>
        <time>2023-07-30T09:24:49.000Z</time>
      </trkpt>
      <trkpt lat="43.71468" lon="7.03532">
        <ele>617.40002441406</ele>
        <time>2023-07-30T09:24:50.000Z</time>
      </trkpt>
      <trkpt lat="43.71468" lon="7.03532">
        <ele>617.40002441406</ele>
        <time>2023-07-30T09:24:51.000Z</time>
      </trkpt>
      <trkpt lat="43.71468" lon="7.03532">
        <ele>617.40002441406</ele>
        <time>2023-07-30T09:24:52.000Z</time>
      </trkpt>
      <trkpt lat="43.71468" lon="7.03532">
        <ele>617.40002441406</ele>
        <time>2023-07-30T09:24:53.000Z</time>
      </trkpt>
      <trkpt lat="43.71468" lon="7.03532">
        <ele>617.40002441406</ele>
        <time>2023-07-30T09:24:54.000Z</time>
      </trkpt>
      <trkpt lat="43.71468" lon="7.03532">
        <ele>617.40002441406</ele>
        <time>2023-07-30T09:24:55.000Z</time>
      </trkpt>
      <trkpt lat="43.71468" lon="7.03532">
        <ele>617.40002441406</ele>
        <time>2023-07-30T09:24:56.000Z</time>
      </trkpt>
      <trkpt lat="43.71468" lon="7.03532">
        <ele>617.40002441406</ele>
        <time>2023-07-30T09:24:57.000Z</time>
      </trkpt>
      <trkpt lat="43.71468" lon="7.03532">
        <ele>617.40002441406</ele>
        <time>2023-07-30T09:24:58.000Z</time>
      </trkpt>
      <trkpt lat="43.71468" lon="7.03532">
        <ele>617.20001220703</ele>
        <time>2023-07-30T09:24:59.000Z</time>
      </trkpt>
      <trkpt lat="43.71468" lon="7.03532">
        <ele>617.20001220703</ele>
        <time>2023-07-30T09:25:00.000Z</time>
      </trkpt>
      <trkpt lat="43.71468" lon="7.03532">
        <ele>617.20001220703</ele>
        <time>2023-07-30T09:25:01.000Z</time>
      </trkpt>
      <trkpt lat="43.71468" lon="7.03532">
        <ele>617.20001220703</ele>
        <time>2023-07-30T09:25:02.000Z</time>
      </trkpt>
      <trkpt lat="43.71468" lon="7.03532">
        <ele>617.20001220703</ele>
        <time>2023-07-30T09:25:03.000Z</time>
      </trkpt>
      <trkpt lat="43.71468" lon="7.03532">
        <ele>617.20001220703</ele>
        <time>2023-07-30T09:25:04.000Z</time>
      </trkpt>
      <trkpt lat="43.71468" lon="7.03532">
        <ele>617.20001220703</ele>
        <time>2023-07-30T09:25:05.000Z</time>
      </trkpt>
      <trkpt lat="43.71468" lon="7.03532">
        <ele>617.20001220703</ele>
        <time>2023-07-30T09:25:06.000Z</time>
      </trkpt>
      <trkpt lat="43.71468" lon="7.03532">
        <ele>617.20001220703</ele>
        <time>2023-07-30T09:25:07.000Z</time>
      </trkpt>
      <trkpt lat="43.71468" lon="7.03532">
        <ele>617.20001220703</ele>
        <time>2023-07-30T09:25:08.000Z</time>
      </trkpt>
      <trkpt lat="43.71468" lon="7.03532">
        <ele>617.20001220703</ele>
        <time>2023-07-30T09:25:09.000Z</time>
      </trkpt>
      <trkpt lat="43.71468" lon="7.03532">
        <ele>617.20001220703</ele>
        <time>2023-07-30T09:25:10.000Z</time>
      </trkpt>
      <trkpt lat="43.71468" lon="7.03532">
        <ele>617.20001220703</ele>
        <time>2023-07-30T09:25:11.000Z</time>
      </trkpt>
      <trkpt lat="43.71468" lon="7.03532">
        <ele>617.20001220703</ele>
        <time>2023-07-30T09:25:12.000Z</time>
      </trkpt>
      <trkpt lat="43.71468" lon="7.03532">
        <ele>617.20001220703</ele>
        <time>2023-07-30T09:25:13.000Z</time>
      </trkpt>
      <trkpt lat="43.71468" lon="7.03532">
        <ele>617.20001220703</ele>
        <time>2023-07-30T09:25:14.000Z</time>
      </trkpt>
      <trkpt lat="43.71468" lon="7.03532">
        <ele>617</ele>
        <time>2023-07-30T09:25:15.000Z</time>
      </trkpt>
      <trkpt lat="43.71468" lon="7.03532">
        <ele>617</ele>
        <time>2023-07-30T09:25:16.000Z</time>
      </trkpt>
      <trkpt lat="43.71468" lon="7.03532">
        <ele>617</ele>
        <time>2023-07-30T09:25:17.000Z</time>
      </trkpt>
      <trkpt lat="43.71468" lon="7.03532">
        <ele>617</ele>
        <time>2023-07-30T09:25:18.000Z</time>
      </trkpt>
      <trkpt lat="43.71468" lon="7.03532">
        <ele>617</ele>
        <time>2023-07-30T09:25:19.000Z</time>
      </trkpt>
      <trkpt lat="43.71468" lon="7.03532">
        <ele>617</ele>
        <time>2023-07-30T09:25:20.000Z</time>
      </trkpt>
      <trkpt lat="43.71468" lon="7.03532">
        <ele>617</ele>
        <time>2023-07-30T09:25:21.000Z</time>
      </trkpt>
      <trkpt lat="43.71468" lon="7.03532">
        <ele>617</ele>
        <time>2023-07-30T09:25:22.000Z</time>
      </trkpt>
      <trkpt lat="43.71468" lon="7.03532">
        <ele>617</ele>
        <time>2023-07-30T09:25:23.000Z</time>
      </trkpt>
      <trkpt lat="43.71468" lon="7.03532">
        <ele>617</ele>
        <time>2023-07-30T09:25:24.000Z</time>
      </trkpt>
      <trkpt lat="43.71468" lon="7.03532">
        <ele>617</ele>
        <time>2023-07-30T09:25:25.000Z</time>
      </trkpt>
      <trkpt lat="43.71468" lon="7.03532">
        <ele>617</ele>
        <time>2023-07-30T09:25:26.000Z</time>
      </trkpt>
      <trkpt lat="43.71468" lon="7.03532">
        <ele>617</ele>
        <time>2023-07-30T09:25:27.000Z</time>
      </trkpt>
      <trkpt lat="43.71468" lon="7.03532">
        <ele>617</ele>
        <time>2023-07-30T09:25:28.000Z</time>
      </trkpt>
      <trkpt lat="43.71468" lon="7.03532">
        <ele>617</ele>
        <time>2023-07-30T09:25:29.000Z</time>
      </trkpt>
      <trkpt lat="43.71468" lon="7.03532">
        <ele>617</ele>
        <time>2023-07-30T09:25:30.000Z</time>
      </trkpt>
      <trkpt lat="43.71468" lon="7.03532">
        <ele>617</ele>
        <time>2023-07-30T09:25:31.000Z</time>
      </trkpt>
      <trkpt lat="43.71468" lon="7.03532">
        <ele>617</ele>
        <time>2023-07-30T09:25:32.000Z</time>
      </trkpt>
      <trkpt lat="43.71468" lon="7.03532">
        <ele>617</ele>
        <time>2023-07-30T09:25:33.000Z</time>
      </trkpt>
      <trkpt lat="43.71468" lon="7.03532">
        <ele>617</ele>
        <time>2023-07-30T09:25:34.000Z</time>
      </trkpt>
      <trkpt lat="43.71468" lon="7.03532">
        <ele>617</ele>
        <time>2023-07-30T09:25:35.000Z</time>
      </trkpt>
      <trkpt lat="43.71468" lon="7.03532">
        <ele>617</ele>
        <time>2023-07-30T09:25:36.000Z</time>
      </trkpt>
      <trkpt lat="43.71468" lon="7.03532">
        <ele>617</ele>
        <time>2023-07-30T09:25:37.000Z</time>
      </trkpt>
      <trkpt lat="43.71468" lon="7.03532">
        <ele>617.20001220703</ele>
        <time>2023-07-30T09:25:38.000Z</time>
      </trkpt>
      <trkpt lat="43.71468" lon="7.03532">
        <ele>617.20001220703</ele>
        <time>2023-07-30T09:25:39.000Z</time>
      </trkpt>
      <trkpt lat="43.71468" lon="7.03532">
        <ele>617.20001220703</ele>
        <time>2023-07-30T09:25:40.000Z</time>
      </trkpt>
      <trkpt lat="43.71468" lon="7.03532">
        <ele>617.20001220703</ele>
        <time>2023-07-30T09:25:41.000Z</time>
      </trkpt>
      <trkpt lat="43.71468" lon="7.03532">
        <ele>617.20001220703</ele>
        <time>2023-07-30T09:25:42.000Z</time>
      </trkpt>
      <trkpt lat="43.71468" lon="7.03532">
        <ele>617.20001220703</ele>
        <time>2023-07-30T09:25:43.000Z</time>
      </trkpt>
      <trkpt lat="43.71468" lon="7.03532">
        <ele>617.20001220703</ele>
        <time>2023-07-30T09:25:44.000Z</time>
      </trkpt>
      <trkpt lat="43.71468" lon="7.03532">
        <ele>617.20001220703</ele>
        <time>2023-07-30T09:25:45.000Z</time>
      </trkpt>
      <trkpt lat="43.71468" lon="7.03532">
        <ele>617.20001220703</ele>
        <time>2023-07-30T09:25:46.000Z</time>
      </trkpt>
      <trkpt lat="43.71468" lon="7.03532">
        <ele>617.20001220703</ele>
        <time>2023-07-30T09:25:47.000Z</time>
      </trkpt>
      <trkpt lat="43.71468" lon="7.03532">
        <ele>617</ele>
        <time>2023-07-30T09:25:48.000Z</time>
      </trkpt>
      <trkpt lat="43.71468" lon="7.03532">
        <ele>617.20001220703</ele>
        <time>2023-07-30T09:25:49.000Z</time>
      </trkpt>
      <trkpt lat="43.71468" lon="7.03532">
        <ele>617.20001220703</ele>
        <time>2023-07-30T09:25:50.000Z</time>
      </trkpt>
      <trkpt lat="43.71468" lon="7.03532">
        <ele>617.20001220703</ele>
        <time>2023-07-30T09:25:51.000Z</time>
      </trkpt>
      <trkpt lat="43.71468" lon="7.03532">
        <ele>617.20001220703</ele>
        <time>2023-07-30T09:25:52.000Z</time>
      </trkpt>
      <trkpt lat="43.71468" lon="7.03532">
        <ele>617.20001220703</ele>
        <time>2023-07-30T09:25:53.000Z</time>
      </trkpt>
      <trkpt lat="43.71468" lon="7.03532">
        <ele>617.20001220703</ele>
        <time>2023-07-30T09:25:54.000Z</time>
      </trkpt>
      <trkpt lat="43.71468" lon="7.03532">
        <ele>617.20001220703</ele>
        <time>2023-07-30T09:25:55.000Z</time>
      </trkpt>
      <trkpt lat="43.71468" lon="7.03532">
        <ele>617.20001220703</ele>
        <time>2023-07-30T09:25:56.000Z</time>
      </trkpt>
      <trkpt lat="43.71468" lon="7.03532">
        <ele>617.20001220703</ele>
        <time>2023-07-30T09:25:57.000Z</time>
      </trkpt>
      <trkpt lat="43.71468" lon="7.03532">
        <ele>617.20001220703</ele>
        <time>2023-07-30T09:25:58.000Z</time>
      </trkpt>
      <trkpt lat="43.71468" lon="7.03532">
        <ele>617.20001220703</ele>
        <time>2023-07-30T09:25:59.000Z</time>
      </trkpt>
      <trkpt lat="43.71468" lon="7.03532">
        <ele>617.20001220703</ele>
        <time>2023-07-30T09:26:00.000Z</time>
      </trkpt>
      <trkpt lat="43.71468" lon="7.03532">
        <ele>617.20001220703</ele>
        <time>2023-07-30T09:26:01.000Z</time>
      </trkpt>
      <trkpt lat="43.71468" lon="7.03532">
        <ele>617.40002441406</ele>
        <time>2023-07-30T09:26:02.000Z</time>
      </trkpt>
      <trkpt lat="43.71468" lon="7.03532">
        <ele>617.40002441406</ele>
        <time>2023-07-30T09:26:03.000Z</time>
      </trkpt>
      <trkpt lat="43.71468" lon="7.03532">
        <ele>617.40002441406</ele>
        <time>2023-07-30T09:26:04.000Z</time>
      </trkpt>
      <trkpt lat="43.71468" lon="7.03532">
        <ele>617.40002441406</ele>
        <time>2023-07-30T09:26:05.000Z</time>
      </trkpt>
      <trkpt lat="43.71468" lon="7.03532">
        <ele>617.40002441406</ele>
        <time>2023-07-30T09:26:06.000Z</time>
      </trkpt>
      <trkpt lat="43.71468" lon="7.03532">
        <ele>617.40002441406</ele>
        <time>2023-07-30T09:26:07.000Z</time>
      </trkpt>
      <trkpt lat="43.71468" lon="7.03532">
        <ele>617.40002441406</ele>
        <time>2023-07-30T09:26:08.000Z</time>
      </trkpt>
      <trkpt lat="43.71468" lon="7.03532">
        <ele>617.40002441406</ele>
        <time>2023-07-30T09:26:09.000Z</time>
      </trkpt>
      <trkpt lat="43.71468" lon="7.03532">
        <ele>617.40002441406</ele>
        <time>2023-07-30T09:26:10.000Z</time>
      </trkpt>
      <trkpt lat="43.71468" lon="7.03532">
        <ele>617.40002441406</ele>
        <time>2023-07-30T09:26:11.000Z</time>
      </trkpt>
      <trkpt lat="43.71468" lon="7.03532">
        <ele>617.40002441406</ele>
        <time>2023-07-30T09:26:12.000Z</time>
      </trkpt>
      <trkpt lat="43.71468" lon="7.03532">
        <ele>617.59997558594</ele>
        <time>2023-07-30T09:26:13.000Z</time>
      </trkpt>
      <trkpt lat="43.71468" lon="7.03532">
        <ele>617.40002441406</ele>
        <time>2023-07-30T09:26:14.000Z</time>
      </trkpt>
      <trkpt lat="43.71468" lon="7.03532">
        <ele>617.40002441406</ele>
        <time>2023-07-30T09:26:15.000Z</time>
      </trkpt>
      <trkpt lat="43.71468" lon="7.03532">
        <ele>617.40002441406</ele>
        <time>2023-07-30T09:26:16.000Z</time>
      </trkpt>
      <trkpt lat="43.71468" lon="7.03532">
        <ele>617.40002441406</ele>
        <time>2023-07-30T09:26:17.000Z</time>
      </trkpt>
      <trkpt lat="43.71468" lon="7.03532">
        <ele>617.59997558594</ele>
        <time>2023-07-30T09:26:18.000Z</time>
      </trkpt>
      <trkpt lat="43.71468" lon="7.03532">
        <ele>617.59997558594</ele>
        <time>2023-07-30T09:26:19.000Z</time>
      </trkpt>
      <trkpt lat="43.71468" lon="7.03532">
        <ele>617.59997558594</ele>
        <time>2023-07-30T09:26:20.000Z</time>
      </trkpt>
      <trkpt lat="43.71468" lon="7.03532">
        <ele>617.59997558594</ele>
        <time>2023-07-30T09:26:21.000Z</time>
      </trkpt>
      <trkpt lat="43.71468" lon="7.03532">
        <ele>617.59997558594</ele>
        <time>2023-07-30T09:26:22.000Z</time>
      </trkpt>
      <trkpt lat="43.71468" lon="7.03532">
        <ele>617.59997558594</ele>
        <time>2023-07-30T09:26:23.000Z</time>
      </trkpt>
      <trkpt lat="43.71468" lon="7.03532">
        <ele>617.40002441406</ele>
        <time>2023-07-30T09:26:24.000Z</time>
      </trkpt>
      <trkpt lat="43.71468" lon="7.03532">
        <ele>617.40002441406</ele>
        <time>2023-07-30T09:26:25.000Z</time>
      </trkpt>
      <trkpt lat="43.71468" lon="7.03532">
        <ele>617.40002441406</ele>
        <time>2023-07-30T09:26:26.000Z</time>
      </trkpt>
      <trkpt lat="43.71468" lon="7.03532">
        <ele>617.40002441406</ele>
        <time>2023-07-30T09:26:27.000Z</time>
      </trkpt>
      <trkpt lat="43.71468" lon="7.03532">
        <ele>617.20001220703</ele>
        <time>2023-07-30T09:26:28.000Z</time>
      </trkpt>
      <trkpt lat="43.71468" lon="7.03532">
        <ele>617.20001220703</ele>
        <time>2023-07-30T09:26:29.000Z</time>
      </trkpt>
      <trkpt lat="43.71468" lon="7.03532">
        <ele>617.20001220703</ele>
        <time>2023-07-30T09:26:30.000Z</time>
      </trkpt>
      <trkpt lat="43.71468" lon="7.03532">
        <ele>617.20001220703</ele>
        <time>2023-07-30T09:26:31.000Z</time>
      </trkpt>
      <trkpt lat="43.71468" lon="7.03532">
        <ele>617.20001220703</ele>
        <time>2023-07-30T09:26:32.000Z</time>
      </trkpt>
      <trkpt lat="43.71468" lon="7.03532">
        <ele>617.20001220703</ele>
        <time>2023-07-30T09:26:33.000Z</time>
      </trkpt>
      <trkpt lat="43.71468" lon="7.03532">
        <ele>617.20001220703</ele>
        <time>2023-07-30T09:26:34.000Z</time>
      </trkpt>
      <trkpt lat="43.71468" lon="7.03532">
        <ele>617.20001220703</ele>
        <time>2023-07-30T09:26:35.000Z</time>
      </trkpt>
      <trkpt lat="43.71468" lon="7.03532">
        <ele>617.20001220703</ele>
        <time>2023-07-30T09:26:36.000Z</time>
      </trkpt>
      <trkpt lat="43.71468" lon="7.03532">
        <ele>617.20001220703</ele>
        <time>2023-07-30T09:26:37.000Z</time>
      </trkpt>
      <trkpt lat="43.71468" lon="7.03532">
        <ele>617.20001220703</ele>
        <time>2023-07-30T09:26:38.000Z</time>
      </trkpt>
      <trkpt lat="43.71468" lon="7.03532">
        <ele>617.20001220703</ele>
        <time>2023-07-30T09:26:39.000Z</time>
      </trkpt>
      <trkpt lat="43.71468" lon="7.03532">
        <ele>617.20001220703</ele>
        <time>2023-07-30T09:26:40.000Z</time>
      </trkpt>
      <trkpt lat="43.71468" lon="7.03532">
        <ele>617.20001220703</ele>
        <time>2023-07-30T09:26:41.000Z</time>
      </trkpt>
      <trkpt lat="43.71468" lon="7.03532">
        <ele>617.20001220703</ele>
        <time>2023-07-30T09:26:42.000Z</time>
      </trkpt>
      <trkpt lat="43.71468" lon="7.03532">
        <ele>617.20001220703</ele>
        <time>2023-07-30T09:26:43.000Z</time>
      </trkpt>
      <trkpt lat="43.71468" lon="7.03532">
        <ele>617.20001220703</ele>
        <time>2023-07-30T09:26:44.000Z</time>
      </trkpt>
      <trkpt lat="43.71468" lon="7.03532">
        <ele>617.20001220703</ele>
        <time>2023-07-30T09:26:45.000Z</time>
      </trkpt>
      <trkpt lat="43.71468" lon="7.03532">
        <ele>617.20001220703</ele>
        <time>2023-07-30T09:26:46.000Z</time>
      </trkpt>
      <trkpt lat="43.71468" lon="7.03532">
        <ele>617.20001220703</ele>
        <time>2023-07-30T09:26:47.000Z</time>
      </trkpt>
      <trkpt lat="43.71468" lon="7.03532">
        <ele>617.20001220703</ele>
        <time>2023-07-30T09:26:48.000Z</time>
      </trkpt>
      <trkpt lat="43.71468" lon="7.03532">
        <ele>617.20001220703</ele>
        <time>2023-07-30T09:26:49.000Z</time>
      </trkpt>
      <trkpt lat="43.71468" lon="7.03532">
        <ele>617.20001220703</ele>
        <time>2023-07-30T09:26:50.000Z</time>
      </trkpt>
      <trkpt lat="43.71468" lon="7.03532">
        <ele>617.20001220703</ele>
        <time>2023-07-30T09:26:51.000Z</time>
      </trkpt>
      <trkpt lat="43.71468" lon="7.03532">
        <ele>617.20001220703</ele>
        <time>2023-07-30T09:26:52.000Z</time>
      </trkpt>
      <trkpt lat="43.71468" lon="7.03532">
        <ele>617.20001220703</ele>
        <time>2023-07-30T09:26:53.000Z</time>
      </trkpt>
      <trkpt lat="43.71468" lon="7.03532">
        <ele>617.20001220703</ele>
        <time>2023-07-30T09:26:54.000Z</time>
      </trkpt>
      <trkpt lat="43.71468" lon="7.03532">
        <ele>617.20001220703</ele>
        <time>2023-07-30T09:26:55.000Z</time>
      </trkpt>
      <trkpt lat="43.71468" lon="7.03532">
        <ele>617.20001220703</ele>
        <time>2023-07-30T09:26:56.000Z</time>
      </trkpt>
      <trkpt lat="43.71468" lon="7.03532">
        <ele>617.20001220703</ele>
        <time>2023-07-30T09:26:57.000Z</time>
      </trkpt>
      <trkpt lat="43.71468" lon="7.03532">
        <ele>617.20001220703</ele>
        <time>2023-07-30T09:26:58.000Z</time>
      </trkpt>
      <trkpt lat="43.71468" lon="7.03532">
        <ele>617.20001220703</ele>
        <time>2023-07-30T09:26:59.000Z</time>
      </trkpt>
      <trkpt lat="43.71468" lon="7.03532">
        <ele>617.20001220703</ele>
        <time>2023-07-30T09:27:00.000Z</time>
      </trkpt>
      <trkpt lat="43.71468" lon="7.03532">
        <ele>617.20001220703</ele>
        <time>2023-07-30T09:27:01.000Z</time>
      </trkpt>
      <trkpt lat="43.71468" lon="7.03532">
        <ele>617.20001220703</ele>
        <time>2023-07-30T09:27:02.000Z</time>
      </trkpt>
      <trkpt lat="43.71468" lon="7.03532">
        <ele>617.20001220703</ele>
        <time>2023-07-30T09:27:03.000Z</time>
      </trkpt>
      <trkpt lat="43.71468" lon="7.03532">
        <ele>617.20001220703</ele>
        <time>2023-07-30T09:27:04.000Z</time>
      </trkpt>
      <trkpt lat="43.71468" lon="7.03532">
        <ele>617.20001220703</ele>
        <time>2023-07-30T09:27:05.000Z</time>
      </trkpt>
      <trkpt lat="43.71468" lon="7.03532">
        <ele>617.20001220703</ele>
        <time>2023-07-30T09:27:06.000Z</time>
      </trkpt>
      <trkpt lat="43.71468" lon="7.03532">
        <ele>617.20001220703</ele>
        <time>2023-07-30T09:27:07.000Z</time>
      </trkpt>
      <trkpt lat="43.71468" lon="7.03532">
        <ele>617.20001220703</ele>
        <time>2023-07-30T09:27:08.000Z</time>
      </trkpt>
      <trkpt lat="43.71468" lon="7.03532">
        <ele>617.20001220703</ele>
        <time>2023-07-30T09:27:09.000Z</time>
      </trkpt>
      <trkpt lat="43.71468" lon="7.03532">
        <ele>617.20001220703</ele>
        <time>2023-07-30T09:27:10.000Z</time>
      </trkpt>
      <trkpt lat="43.71468" lon="7.03532">
        <ele>617.20001220703</ele>
        <time>2023-07-30T09:27:11.000Z</time>
      </trkpt>
      <trkpt lat="43.71468" lon="7.03532">
        <ele>617.20001220703</ele>
        <time>2023-07-30T09:27:12.000Z</time>
      </trkpt>
      <trkpt lat="43.71468" lon="7.03532">
        <ele>617.20001220703</ele>
        <time>2023-07-30T09:27:13.000Z</time>
      </trkpt>
      <trkpt lat="43.71468" lon="7.03532">
        <ele>617.20001220703</ele>
        <time>2023-07-30T09:27:14.000Z</time>
      </trkpt>
      <trkpt lat="43.71468" lon="7.03532">
        <ele>617.20001220703</ele>
        <time>2023-07-30T09:27:15.000Z</time>
      </trkpt>
      <trkpt lat="43.71468" lon="7.03532">
        <ele>617.20001220703</ele>
        <time>2023-07-30T09:27:16.000Z</time>
      </trkpt>
      <trkpt lat="43.71468" lon="7.03532">
        <ele>617.20001220703</ele>
        <time>2023-07-30T09:27:17.000Z</time>
      </trkpt>
      <trkpt lat="43.71468" lon="7.03532">
        <ele>617.20001220703</ele>
        <time>2023-07-30T09:27:18.000Z</time>
      </trkpt>
      <trkpt lat="43.71468" lon="7.03532">
        <ele>617.20001220703</ele>
        <time>2023-07-30T09:27:19.000Z</time>
      </trkpt>
      <trkpt lat="43.71468" lon="7.03532">
        <ele>617.20001220703</ele>
        <time>2023-07-30T09:27:20.000Z</time>
      </trkpt>
      <trkpt lat="43.71468" lon="7.03532">
        <ele>617.20001220703</ele>
        <time>2023-07-30T09:27:21.000Z</time>
      </trkpt>
      <trkpt lat="43.71468" lon="7.03532">
        <ele>617.20001220703</ele>
        <time>2023-07-30T09:27:22.000Z</time>
      </trkpt>
      <trkpt lat="43.71468" lon="7.03532">
        <ele>617.20001220703</ele>
        <time>2023-07-30T09:27:23.000Z</time>
      </trkpt>
      <trkpt lat="43.71468" lon="7.03532">
        <ele>617.20001220703</ele>
        <time>2023-07-30T09:27:24.000Z</time>
      </trkpt>
      <trkpt lat="43.71468" lon="7.03532">
        <ele>617.20001220703</ele>
        <time>2023-07-30T09:27:25.000Z</time>
      </trkpt>
      <trkpt lat="43.71468" lon="7.03532">
        <ele>617.20001220703</ele>
        <time>2023-07-30T09:27:26.000Z</time>
      </trkpt>
      <trkpt lat="43.71468" lon="7.03532">
        <ele>617.20001220703</ele>
        <time>2023-07-30T09:27:27.000Z</time>
      </trkpt>
      <trkpt lat="43.71467" lon="7.03533">
        <ele>617.20001220703</ele>
        <time>2023-07-30T09:27:28.000Z</time>
      </trkpt>
      <trkpt lat="43.71467" lon="7.03534">
        <ele>617.20001220703</ele>
        <time>2023-07-30T09:27:29.000Z</time>
      </trkpt>
      <trkpt lat="43.71467" lon="7.03534">
        <ele>617.20001220703</ele>
        <time>2023-07-30T09:27:30.000Z</time>
      </trkpt>
      <trkpt lat="43.71466" lon="7.03534">
        <ele>617.20001220703</ele>
        <time>2023-07-30T09:27:31.000Z</time>
      </trkpt>
      <trkpt lat="43.71466" lon="7.03534">
        <ele>617.20001220703</ele>
        <time>2023-07-30T09:27:32.000Z</time>
      </trkpt>
      <trkpt lat="43.71466" lon="7.03535">
        <ele>617.20001220703</ele>
        <time>2023-07-30T09:27:33.000Z</time>
      </trkpt>
      <trkpt lat="43.71466" lon="7.03537">
        <ele>617.40002441406</ele>
        <time>2023-07-30T09:27:34.000Z</time>
      </trkpt>
      <trkpt lat="43.71465" lon="7.0354">
        <ele>617.40002441406</ele>
        <time>2023-07-30T09:27:35.000Z</time>
      </trkpt>
      <trkpt lat="43.71465" lon="7.03544">
        <ele>617.40002441406</ele>
        <time>2023-07-30T09:27:36.000Z</time>
      </trkpt>
      <trkpt lat="43.71464" lon="7.03548">
        <ele>617.20001220703</ele>
        <time>2023-07-30T09:27:37.000Z</time>
      </trkpt>
      <trkpt lat="43.71463" lon="7.03553">
        <ele>617</ele>
        <time>2023-07-30T09:27:38.000Z</time>
      </trkpt>
      <trkpt lat="43.71463" lon="7.03558">
        <ele>617</ele>
        <time>2023-07-30T09:27:39.000Z</time>
      </trkpt>
      <trkpt lat="43.71461" lon="7.03564">
        <ele>617</ele>
        <time>2023-07-30T09:27:40.000Z</time>
      </trkpt>
      <trkpt lat="43.71459" lon="7.03569">
        <ele>616.59997558594</ele>
        <time>2023-07-30T09:27:41.000Z</time>
      </trkpt>
      <trkpt lat="43.71457" lon="7.03574">
        <ele>616.59997558594</ele>
        <time>2023-07-30T09:27:42.000Z</time>
      </trkpt>
      <trkpt lat="43.71455" lon="7.03578">
        <ele>616.40002441406</ele>
        <time>2023-07-30T09:27:43.000Z</time>
      </trkpt>
      <trkpt lat="43.71453" lon="7.0358">
        <ele>616.20001220703</ele>
        <time>2023-07-30T09:27:44.000Z</time>
      </trkpt>
      <trkpt lat="43.71451" lon="7.03583">
        <ele>615.40002441406</ele>
        <time>2023-07-30T09:27:45.000Z</time>
      </trkpt>
      <trkpt lat="43.7145" lon="7.03585">
        <ele>615</ele>
        <time>2023-07-30T09:27:46.000Z</time>
      </trkpt>
      <trkpt lat="43.71449" lon="7.03588">
        <ele>615</ele>
        <time>2023-07-30T09:27:47.000Z</time>
      </trkpt>
      <trkpt lat="43.71448" lon="7.03591">
        <ele>614.59997558594</ele>
        <time>2023-07-30T09:27:48.000Z</time>
      </trkpt>
      <trkpt lat="43.71446" lon="7.03594">
        <ele>614.20001220703</ele>
        <time>2023-07-30T09:27:49.000Z</time>
      </trkpt>
      <trkpt lat="43.71443" lon="7.03595">
        <ele>614.20001220703</ele>
        <time>2023-07-30T09:27:50.000Z</time>
      </trkpt>
      <trkpt lat="43.71441" lon="7.03598">
        <ele>614.20001220703</ele>
        <time>2023-07-30T09:27:51.000Z</time>
      </trkpt>
      <trkpt lat="43.71439" lon="7.03602">
        <ele>613.79998779297</ele>
        <time>2023-07-30T09:27:52.000Z</time>
      </trkpt>
      <trkpt lat="43.71437" lon="7.03606">
        <ele>613.79998779297</ele>
        <time>2023-07-30T09:27:53.000Z</time>
      </trkpt>
      <trkpt lat="43.71436" lon="7.03609">
        <ele>613.40002441406</ele>
        <time>2023-07-30T09:27:54.000Z</time>
      </trkpt>
      <trkpt lat="43.71435" lon="7.03612">
        <ele>613</ele>
        <time>2023-07-30T09:27:55.000Z</time>
      </trkpt>
      <trkpt lat="43.71434" lon="7.03615">
        <ele>612.79998779297</ele>
        <time>2023-07-30T09:27:56.000Z</time>
      </trkpt>
      <trkpt lat="43.71433" lon="7.03618">
        <ele>612.79998779297</ele>
        <time>2023-07-30T09:27:57.000Z</time>
      </trkpt>
      <trkpt lat="43.71432" lon="7.03619">
        <ele>612.79998779297</ele>
        <time>2023-07-30T09:27:58.000Z</time>
      </trkpt>
      <trkpt lat="43.71431" lon="7.03621">
        <ele>612.59997558594</ele>
        <time>2023-07-30T09:27:59.000Z</time>
      </trkpt>
      <trkpt lat="43.7143" lon="7.03622">
        <ele>612.40002441406</ele>
        <time>2023-07-30T09:28:00.000Z</time>
      </trkpt>
      <trkpt lat="43.71429" lon="7.03623">
        <ele>612.20001220703</ele>
        <time>2023-07-30T09:28:01.000Z</time>
      </trkpt>
      <trkpt lat="43.71429" lon="7.03626">
        <ele>612</ele>
        <time>2023-07-30T09:28:02.000Z</time>
      </trkpt>
      <trkpt lat="43.71428" lon="7.03628">
        <ele>611.79998779297</ele>
        <time>2023-07-30T09:28:03.000Z</time>
      </trkpt>
      <trkpt lat="43.71428" lon="7.0363">
        <ele>611.59997558594</ele>
        <time>2023-07-30T09:28:04.000Z</time>
      </trkpt>
      <trkpt lat="43.71427" lon="7.03633">
        <ele>611.40002441406</ele>
        <time>2023-07-30T09:28:05.000Z</time>
      </trkpt>
      <trkpt lat="43.71425" lon="7.03635">
        <ele>610.79998779297</ele>
        <time>2023-07-30T09:28:06.000Z</time>
      </trkpt>
      <trkpt lat="43.71424" lon="7.03637">
        <ele>610.40002441406</ele>
        <time>2023-07-30T09:28:07.000Z</time>
      </trkpt>
      <trkpt lat="43.71422" lon="7.0364">
        <ele>610.20001220703</ele>
        <time>2023-07-30T09:28:08.000Z</time>
      </trkpt>
      <trkpt lat="43.71421" lon="7.03643">
        <ele>609.40002441406</ele>
        <time>2023-07-30T09:28:09.000Z</time>
      </trkpt>
      <trkpt lat="43.7142" lon="7.03646">
        <ele>609</ele>
        <time>2023-07-30T09:28:10.000Z</time>
      </trkpt>
      <trkpt lat="43.71419" lon="7.03649">
        <ele>608.40002441406</ele>
        <time>2023-07-30T09:28:11.000Z</time>
      </trkpt>
      <trkpt lat="43.71418" lon="7.03651">
        <ele>607.79998779297</ele>
        <time>2023-07-30T09:28:12.000Z</time>
      </trkpt>
      <trkpt lat="43.71417" lon="7.03654">
        <ele>607.59997558594</ele>
        <time>2023-07-30T09:28:13.000Z</time>
      </trkpt>
      <trkpt lat="43.71415" lon="7.03657">
        <ele>607.20001220703</ele>
        <time>2023-07-30T09:28:14.000Z</time>
      </trkpt>
      <trkpt lat="43.71413" lon="7.0366">
        <ele>606.59997558594</ele>
        <time>2023-07-30T09:28:15.000Z</time>
      </trkpt>
      <trkpt lat="43.71412" lon="7.03663">
        <ele>606</ele>
        <time>2023-07-30T09:28:16.000Z</time>
      </trkpt>
      <trkpt lat="43.71411" lon="7.03664">
        <ele>605.40002441406</ele>
        <time>2023-07-30T09:28:17.000Z</time>
      </trkpt>
      <trkpt lat="43.7141" lon="7.03666">
        <ele>605.40002441406</ele>
        <time>2023-07-30T09:28:18.000Z</time>
      </trkpt>
      <trkpt lat="43.71409" lon="7.03667">
        <ele>605.20001220703</ele>
        <time>2023-07-30T09:28:19.000Z</time>
      </trkpt>
      <trkpt lat="43.71407" lon="7.0367">
        <ele>605</ele>
        <time>2023-07-30T09:28:20.000Z</time>
      </trkpt>
      <trkpt lat="43.71405" lon="7.03673">
        <ele>604.40002441406</ele>
        <time>2023-07-30T09:28:21.000Z</time>
      </trkpt>
      <trkpt lat="43.71402" lon="7.03676">
        <ele>603.59997558594</ele>
        <time>2023-07-30T09:28:22.000Z</time>
      </trkpt>
      <trkpt lat="43.714" lon="7.03679">
        <ele>603.40002441406</ele>
        <time>2023-07-30T09:28:23.000Z</time>
      </trkpt>
      <trkpt lat="43.71398" lon="7.03681">
        <ele>602.59997558594</ele>
        <time>2023-07-30T09:28:24.000Z</time>
      </trkpt>
      <trkpt lat="43.71396" lon="7.03685">
        <ele>602.40002441406</ele>
        <time>2023-07-30T09:28:25.000Z</time>
      </trkpt>
      <trkpt lat="43.71394" lon="7.03689">
        <ele>602.20001220703</ele>
        <time>2023-07-30T09:28:26.000Z</time>
      </trkpt>
      <trkpt lat="43.71392" lon="7.03691">
        <ele>602</ele>
        <time>2023-07-30T09:28:27.000Z</time>
      </trkpt>
      <trkpt lat="43.71389" lon="7.03693">
        <ele>600.79998779297</ele>
        <time>2023-07-30T09:28:28.000Z</time>
      </trkpt>
      <trkpt lat="43.71386" lon="7.03694">
        <ele>600.40002441406</ele>
        <time>2023-07-30T09:28:29.000Z</time>
      </trkpt>
      <trkpt lat="43.71383" lon="7.03697">
        <ele>600</ele>
        <time>2023-07-30T09:28:30.000Z</time>
      </trkpt>
      <trkpt lat="43.71381" lon="7.03699">
        <ele>599.79998779297</ele>
        <time>2023-07-30T09:28:31.000Z</time>
      </trkpt>
      <trkpt lat="43.71379" lon="7.03703">
        <ele>598.59997558594</ele>
        <time>2023-07-30T09:28:32.000Z</time>
      </trkpt>
      <trkpt lat="43.71377" lon="7.03706">
        <ele>598.20001220703</ele>
        <time>2023-07-30T09:28:33.000Z</time>
      </trkpt>
      <trkpt lat="43.71375" lon="7.03709">
        <ele>596.79998779297</ele>
        <time>2023-07-30T09:28:34.000Z</time>
      </trkpt>
      <trkpt lat="43.71373" lon="7.03712">
        <ele>596.79998779297</ele>
        <time>2023-07-30T09:28:35.000Z</time>
      </trkpt>
      <trkpt lat="43.71371" lon="7.03716">
        <ele>596.20001220703</ele>
        <time>2023-07-30T09:28:36.000Z</time>
      </trkpt>
      <trkpt lat="43.71368" lon="7.03719">
        <ele>596</ele>
        <time>2023-07-30T09:28:37.000Z</time>
      </trkpt>
      <trkpt lat="43.71366" lon="7.03721">
        <ele>594.79998779297</ele>
        <time>2023-07-30T09:28:38.000Z</time>
      </trkpt>
      <trkpt lat="43.71364" lon="7.03724">
        <ele>594.59997558594</ele>
        <time>2023-07-30T09:28:39.000Z</time>
      </trkpt>
      <trkpt lat="43.71361" lon="7.03726">
        <ele>594</ele>
        <time>2023-07-30T09:28:40.000Z</time>
      </trkpt>
      <trkpt lat="43.71359" lon="7.03729">
        <ele>593.40002441406</ele>
        <time>2023-07-30T09:28:41.000Z</time>
      </trkpt>
      <trkpt lat="43.71356" lon="7.03732">
        <ele>592.59997558594</ele>
        <time>2023-07-30T09:28:42.000Z</time>
      </trkpt>
      <trkpt lat="43.71354" lon="7.03735">
        <ele>592</ele>
        <time>2023-07-30T09:28:43.000Z</time>
      </trkpt>
      <trkpt lat="43.71352" lon="7.03738">
        <ele>591.59997558594</ele>
        <time>2023-07-30T09:28:44.000Z</time>
      </trkpt>
      <trkpt lat="43.71349" lon="7.0374">
        <ele>591.59997558594</ele>
        <time>2023-07-30T09:28:45.000Z</time>
      </trkpt>
      <trkpt lat="43.71347" lon="7.03742">
        <ele>591.40002441406</ele>
        <time>2023-07-30T09:28:46.000Z</time>
      </trkpt>
      <trkpt lat="43.71345" lon="7.03744">
        <ele>591</ele>
        <time>2023-07-30T09:28:47.000Z</time>
      </trkpt>
      <trkpt lat="43.71344" lon="7.03747">
        <ele>590.59997558594</ele>
        <time>2023-07-30T09:28:48.000Z</time>
      </trkpt>
      <trkpt lat="43.71342" lon="7.03749">
        <ele>589.79998779297</ele>
        <time>2023-07-30T09:28:49.000Z</time>
      </trkpt>
      <trkpt lat="43.7134" lon="7.03751">
        <ele>589.59997558594</ele>
        <time>2023-07-30T09:28:50.000Z</time>
      </trkpt>
      <trkpt lat="43.71339" lon="7.03753">
        <ele>589.20001220703</ele>
        <time>2023-07-30T09:28:51.000Z</time>
      </trkpt>
      <trkpt lat="43.71337" lon="7.03756">
        <ele>588.20001220703</ele>
        <time>2023-07-30T09:28:52.000Z</time>
      </trkpt>
      <trkpt lat="43.71336" lon="7.03758">
        <ele>588</ele>
        <time>2023-07-30T09:28:53.000Z</time>
      </trkpt>
      <trkpt lat="43.71334" lon="7.0376">
        <ele>587.79998779297</ele>
        <time>2023-07-30T09:28:54.000Z</time>
      </trkpt>
      <trkpt lat="43.71332" lon="7.03762">
        <ele>587.59997558594</ele>
        <time>2023-07-30T09:28:55.000Z</time>
      </trkpt>
      <trkpt lat="43.71331" lon="7.03763">
        <ele>587.20001220703</ele>
        <time>2023-07-30T09:28:56.000Z</time>
      </trkpt>
      <trkpt lat="43.71331" lon="7.03766">
        <ele>586.20001220703</ele>
        <time>2023-07-30T09:28:57.000Z</time>
      </trkpt>
      <trkpt lat="43.71331" lon="7.03768">
        <ele>585.79998779297</ele>
        <time>2023-07-30T09:28:58.000Z</time>
      </trkpt>
      <trkpt lat="43.71332" lon="7.03768">
        <ele>585.40002441406</ele>
        <time>2023-07-30T09:28:59.000Z</time>
      </trkpt>
      <trkpt lat="43.71333" lon="7.03768">
        <ele>584.79998779297</ele>
        <time>2023-07-30T09:29:00.000Z</time>
      </trkpt>
      <trkpt lat="43.71334" lon="7.03768">
        <ele>584.40002441406</ele>
        <time>2023-07-30T09:29:01.000Z</time>
      </trkpt>
      <trkpt lat="43.71335" lon="7.03767">
        <ele>584.40002441406</ele>
        <time>2023-07-30T09:29:02.000Z</time>
      </trkpt>
      <trkpt lat="43.71335" lon="7.03767">
        <ele>583.79998779297</ele>
        <time>2023-07-30T09:29:03.000Z</time>
      </trkpt>
      <trkpt lat="43.71335" lon="7.03767">
        <ele>583.59997558594</ele>
        <time>2023-07-30T09:29:04.000Z</time>
      </trkpt>
      <trkpt lat="43.71335" lon="7.03767">
        <ele>583.59997558594</ele>
        <time>2023-07-30T09:29:05.000Z</time>
      </trkpt>
      <trkpt lat="43.71335" lon="7.03767">
        <ele>583.40002441406</ele>
        <time>2023-07-30T09:29:06.000Z</time>
      </trkpt>
      <trkpt lat="43.71335" lon="7.03767">
        <ele>583.40002441406</ele>
        <time>2023-07-30T09:29:07.000Z</time>
      </trkpt>
      <trkpt lat="43.71335" lon="7.03767">
        <ele>583.40002441406</ele>
        <time>2023-07-30T09:29:08.000Z</time>
      </trkpt>
      <trkpt lat="43.71335" lon="7.03767">
        <ele>583.40002441406</ele>
        <time>2023-07-30T09:29:09.000Z</time>
      </trkpt>
      <trkpt lat="43.71335" lon="7.03767">
        <ele>583.20001220703</ele>
        <time>2023-07-30T09:29:10.000Z</time>
      </trkpt>
      <trkpt lat="43.71335" lon="7.03767">
        <ele>583.20001220703</ele>
        <time>2023-07-30T09:29:11.000Z</time>
      </trkpt>
      <trkpt lat="43.71335" lon="7.03767">
        <ele>583.20001220703</ele>
        <time>2023-07-30T09:29:12.000Z</time>
      </trkpt>
      <trkpt lat="43.71335" lon="7.03767">
        <ele>583.20001220703</ele>
        <time>2023-07-30T09:29:13.000Z</time>
      </trkpt>
      <trkpt lat="43.71334" lon="7.03768">
        <ele>583.20001220703</ele>
        <time>2023-07-30T09:29:14.000Z</time>
      </trkpt>
      <trkpt lat="43.71334" lon="7.03768">
        <ele>583.20001220703</ele>
        <time>2023-07-30T09:29:15.000Z</time>
      </trkpt>
      <trkpt lat="43.71334" lon="7.03768">
        <ele>583.20001220703</ele>
        <time>2023-07-30T09:29:16.000Z</time>
      </trkpt>
      <trkpt lat="43.71334" lon="7.03768">
        <ele>583.20001220703</ele>
        <time>2023-07-30T09:29:17.000Z</time>
      </trkpt>
      <trkpt lat="43.71334" lon="7.03768">
        <ele>583.20001220703</ele>
        <time>2023-07-30T09:29:18.000Z</time>
      </trkpt>
      <trkpt lat="43.71334" lon="7.03768">
        <ele>583.20001220703</ele>
        <time>2023-07-30T09:29:19.000Z</time>
      </trkpt>
      <trkpt lat="43.71334" lon="7.03768">
        <ele>583.20001220703</ele>
        <time>2023-07-30T09:29:20.000Z</time>
      </trkpt>
      <trkpt lat="43.71334" lon="7.03768">
        <ele>583.20001220703</ele>
        <time>2023-07-30T09:29:21.000Z</time>
      </trkpt>
      <trkpt lat="43.71334" lon="7.03768">
        <ele>583.20001220703</ele>
        <time>2023-07-30T09:29:22.000Z</time>
      </trkpt>
      <trkpt lat="43.71334" lon="7.03768">
        <ele>583.20001220703</ele>
        <time>2023-07-30T09:29:23.000Z</time>
      </trkpt>
      <trkpt lat="43.71334" lon="7.03768">
        <ele>583.20001220703</ele>
        <time>2023-07-30T09:29:24.000Z</time>
      </trkpt>
      <trkpt lat="43.71334" lon="7.03768">
        <ele>583.20001220703</ele>
        <time>2023-07-30T09:29:25.000Z</time>
      </trkpt>
      <trkpt lat="43.71334" lon="7.03768">
        <ele>583.20001220703</ele>
        <time>2023-07-30T09:29:26.000Z</time>
      </trkpt>
      <trkpt lat="43.71334" lon="7.03767">
        <ele>583.20001220703</ele>
        <time>2023-07-30T09:29:27.000Z</time>
      </trkpt>
      <trkpt lat="43.71334" lon="7.03767">
        <ele>583.20001220703</ele>
        <time>2023-07-30T09:29:28.000Z</time>
      </trkpt>
      <trkpt lat="43.71334" lon="7.03767">
        <ele>583.20001220703</ele>
        <time>2023-07-30T09:29:29.000Z</time>
      </trkpt>
      <trkpt lat="43.71334" lon="7.03767">
        <ele>583.40002441406</ele>
        <time>2023-07-30T09:29:30.000Z</time>
      </trkpt>
      <trkpt lat="43.71334" lon="7.03767">
        <ele>583.40002441406</ele>
        <time>2023-07-30T09:29:31.000Z</time>
      </trkpt>
      <trkpt lat="43.71334" lon="7.03767">
        <ele>583.40002441406</ele>
        <time>2023-07-30T09:29:32.000Z</time>
      </trkpt>
      <trkpt lat="43.71334" lon="7.03768">
        <ele>583.40002441406</ele>
        <time>2023-07-30T09:29:33.000Z</time>
      </trkpt>
      <trkpt lat="43.71334" lon="7.03768">
        <ele>583.40002441406</ele>
        <time>2023-07-30T09:29:34.000Z</time>
      </trkpt>
      <trkpt lat="43.71334" lon="7.03768">
        <ele>583.40002441406</ele>
        <time>2023-07-30T09:29:35.000Z</time>
      </trkpt>
      <trkpt lat="43.71334" lon="7.03768">
        <ele>583.40002441406</ele>
        <time>2023-07-30T09:29:36.000Z</time>
      </trkpt>
      <trkpt lat="43.71334" lon="7.03768">
        <ele>583.40002441406</ele>
        <time>2023-07-30T09:29:37.000Z</time>
      </trkpt>
      <trkpt lat="43.71334" lon="7.03768">
        <ele>583.40002441406</ele>
        <time>2023-07-30T09:29:38.000Z</time>
      </trkpt>
      <trkpt lat="43.71334" lon="7.03768">
        <ele>583.40002441406</ele>
        <time>2023-07-30T09:29:39.000Z</time>
      </trkpt>
      <trkpt lat="43.71334" lon="7.03768">
        <ele>583.40002441406</ele>
        <time>2023-07-30T09:29:40.000Z</time>
      </trkpt>
      <trkpt lat="43.71334" lon="7.03768">
        <ele>583.40002441406</ele>
        <time>2023-07-30T09:29:41.000Z</time>
      </trkpt>
      <trkpt lat="43.71334" lon="7.03768">
        <ele>583.40002441406</ele>
        <time>2023-07-30T09:29:42.000Z</time>
      </trkpt>
      <trkpt lat="43.71334" lon="7.03768">
        <ele>583.20001220703</ele>
        <time>2023-07-30T09:29:43.000Z</time>
      </trkpt>
      <trkpt lat="43.71334" lon="7.03768">
        <ele>583.20001220703</ele>
        <time>2023-07-30T09:29:44.000Z</time>
      </trkpt>
      <trkpt lat="43.71334" lon="7.03768">
        <ele>583.20001220703</ele>
        <time>2023-07-30T09:29:45.000Z</time>
      </trkpt>
      <trkpt lat="43.71334" lon="7.03768">
        <ele>583.20001220703</ele>
        <time>2023-07-30T09:29:46.000Z</time>
      </trkpt>
      <trkpt lat="43.71334" lon="7.03768">
        <ele>583.20001220703</ele>
        <time>2023-07-30T09:29:47.000Z</time>
      </trkpt>
      <trkpt lat="43.71334" lon="7.03767">
        <ele>583.20001220703</ele>
        <time>2023-07-30T09:29:48.000Z</time>
      </trkpt>
      <trkpt lat="43.71334" lon="7.03767">
        <ele>583.20001220703</ele>
        <time>2023-07-30T09:29:49.000Z</time>
      </trkpt>
      <trkpt lat="43.71334" lon="7.03767">
        <ele>583.20001220703</ele>
        <time>2023-07-30T09:29:50.000Z</time>
      </trkpt>
      <trkpt lat="43.71334" lon="7.03767">
        <ele>583.20001220703</ele>
        <time>2023-07-30T09:29:51.000Z</time>
      </trkpt>
      <trkpt lat="43.71334" lon="7.03767">
        <ele>583.20001220703</ele>
        <time>2023-07-30T09:29:52.000Z</time>
      </trkpt>
      <trkpt lat="43.71334" lon="7.03767">
        <ele>583</ele>
        <time>2023-07-30T09:29:53.000Z</time>
      </trkpt>
      <trkpt lat="43.71334" lon="7.03767">
        <ele>583</ele>
        <time>2023-07-30T09:29:54.000Z</time>
      </trkpt>
      <trkpt lat="43.71334" lon="7.03767">
        <ele>583</ele>
        <time>2023-07-30T09:29:55.000Z</time>
      </trkpt>
      <trkpt lat="43.71334" lon="7.03767">
        <ele>583</ele>
        <time>2023-07-30T09:29:56.000Z</time>
      </trkpt>
      <trkpt lat="43.71334" lon="7.03767">
        <ele>583</ele>
        <time>2023-07-30T09:29:57.000Z</time>
      </trkpt>
      <trkpt lat="43.71334" lon="7.03767">
        <ele>583</ele>
        <time>2023-07-30T09:29:58.000Z</time>
      </trkpt>
      <trkpt lat="43.71334" lon="7.03767">
        <ele>583</ele>
        <time>2023-07-30T09:29:59.000Z</time>
      </trkpt>
      <trkpt lat="43.71334" lon="7.03767">
        <ele>583</ele>
        <time>2023-07-30T09:30:00.000Z</time>
      </trkpt>
      <trkpt lat="43.71334" lon="7.03767">
        <ele>583</ele>
        <time>2023-07-30T09:30:01.000Z</time>
      </trkpt>
      <trkpt lat="43.71334" lon="7.03767">
        <ele>583</ele>
        <time>2023-07-30T09:30:02.000Z</time>
      </trkpt>
      <trkpt lat="43.71334" lon="7.03767">
        <ele>583</ele>
        <time>2023-07-30T09:30:03.000Z</time>
      </trkpt>
      <trkpt lat="43.71334" lon="7.03767">
        <ele>583</ele>
        <time>2023-07-30T09:30:04.000Z</time>
      </trkpt>
      <trkpt lat="43.71334" lon="7.03767">
        <ele>583</ele>
        <time>2023-07-30T09:30:05.000Z</time>
      </trkpt>
      <trkpt lat="43.71334" lon="7.03767">
        <ele>583</ele>
        <time>2023-07-30T09:30:06.000Z</time>
      </trkpt>
      <trkpt lat="43.71334" lon="7.03767">
        <ele>583</ele>
        <time>2023-07-30T09:30:07.000Z</time>
      </trkpt>
      <trkpt lat="43.71334" lon="7.03767">
        <ele>583</ele>
        <time>2023-07-30T09:30:08.000Z</time>
      </trkpt>
      <trkpt lat="43.71334" lon="7.03767">
        <ele>583</ele>
        <time>2023-07-30T09:30:09.000Z</time>
      </trkpt>
      <trkpt lat="43.71334" lon="7.03767">
        <ele>583</ele>
        <time>2023-07-30T09:30:10.000Z</time>
      </trkpt>
      <trkpt lat="43.71334" lon="7.03768">
        <ele>583</ele>
        <time>2023-07-30T09:30:11.000Z</time>
      </trkpt>
      <trkpt lat="43.71334" lon="7.03768">
        <ele>583</ele>
        <time>2023-07-30T09:30:12.000Z</time>
      </trkpt>
      <trkpt lat="43.71334" lon="7.03768">
        <ele>583</ele>
        <time>2023-07-30T09:30:13.000Z</time>
      </trkpt>
      <trkpt lat="43.71334" lon="7.03768">
        <ele>583</ele>
        <time>2023-07-30T09:30:14.000Z</time>
      </trkpt>
      <trkpt lat="43.71334" lon="7.03768">
        <ele>583</ele>
        <time>2023-07-30T09:30:15.000Z</time>
      </trkpt>
      <trkpt lat="43.71334" lon="7.03768">
        <ele>583</ele>
        <time>2023-07-30T09:30:16.000Z</time>
      </trkpt>
      <trkpt lat="43.71334" lon="7.03768">
        <ele>583</ele>
        <time>2023-07-30T09:30:17.000Z</time>
      </trkpt>
      <trkpt lat="43.71334" lon="7.03768">
        <ele>583</ele>
        <time>2023-07-30T09:30:18.000Z</time>
      </trkpt>
      <trkpt lat="43.71334" lon="7.03768">
        <ele>583</ele>
        <time>2023-07-30T09:30:19.000Z</time>
      </trkpt>
      <trkpt lat="43.71334" lon="7.03768">
        <ele>583</ele>
        <time>2023-07-30T09:30:20.000Z</time>
      </trkpt>
      <trkpt lat="43.71334" lon="7.03768">
        <ele>583</ele>
        <time>2023-07-30T09:30:21.000Z</time>
      </trkpt>
      <trkpt lat="43.71334" lon="7.03768">
        <ele>583</ele>
        <time>2023-07-30T09:30:22.000Z</time>
      </trkpt>
      <trkpt lat="43.71334" lon="7.03768">
        <ele>583</ele>
        <time>2023-07-30T09:30:23.000Z</time>
      </trkpt>
      <trkpt lat="43.71334" lon="7.03768">
        <ele>583</ele>
        <time>2023-07-30T09:30:24.000Z</time>
      </trkpt>
      <trkpt lat="43.71334" lon="7.03768">
        <ele>583</ele>
        <time>2023-07-30T09:30:25.000Z</time>
      </trkpt>
      <trkpt lat="43.71334" lon="7.03768">
        <ele>583</ele>
        <time>2023-07-30T09:30:26.000Z</time>
      </trkpt>
      <trkpt lat="43.71334" lon="7.03768">
        <ele>583</ele>
        <time>2023-07-30T09:30:27.000Z</time>
      </trkpt>
      <trkpt lat="43.71334" lon="7.03768">
        <ele>583</ele>
        <time>2023-07-30T09:30:28.000Z</time>
      </trkpt>
      <trkpt lat="43.71334" lon="7.03768">
        <ele>583</ele>
        <time>2023-07-30T09:30:29.000Z</time>
      </trkpt>
      <trkpt lat="43.71334" lon="7.03768">
        <ele>583</ele>
        <time>2023-07-30T09:30:30.000Z</time>
      </trkpt>
      <trkpt lat="43.71334" lon="7.03767">
        <ele>583</ele>
        <time>2023-07-30T09:30:31.000Z</time>
      </trkpt>
      <trkpt lat="43.71334" lon="7.03767">
        <ele>583</ele>
        <time>2023-07-30T09:30:32.000Z</time>
      </trkpt>
      <trkpt lat="43.71334" lon="7.03767">
        <ele>583</ele>
        <time>2023-07-30T09:30:33.000Z</time>
      </trkpt>
      <trkpt lat="43.71334" lon="7.03767">
        <ele>583</ele>
        <time>2023-07-30T09:30:34.000Z</time>
      </trkpt>
      <trkpt lat="43.71334" lon="7.03767">
        <ele>583</ele>
        <time>2023-07-30T09:30:35.000Z</time>
      </trkpt>
      <trkpt lat="43.71334" lon="7.03767">
        <ele>583</ele>
        <time>2023-07-30T09:30:36.000Z</time>
      </trkpt>
      <trkpt lat="43.71334" lon="7.03767">
        <ele>583</ele>
        <time>2023-07-30T09:30:37.000Z</time>
      </trkpt>
      <trkpt lat="43.71334" lon="7.03767">
        <ele>583</ele>
        <time>2023-07-30T09:30:38.000Z</time>
      </trkpt>
      <trkpt lat="43.71334" lon="7.03767">
        <ele>583</ele>
        <time>2023-07-30T09:30:39.000Z</time>
      </trkpt>
      <trkpt lat="43.71334" lon="7.03767">
        <ele>583</ele>
        <time>2023-07-30T09:30:40.000Z</time>
      </trkpt>
      <trkpt lat="43.71334" lon="7.03767">
        <ele>583</ele>
        <time>2023-07-30T09:30:41.000Z</time>
      </trkpt>
      <trkpt lat="43.71334" lon="7.03767">
        <ele>583</ele>
        <time>2023-07-30T09:30:42.000Z</time>
      </trkpt>
      <trkpt lat="43.71334" lon="7.03767">
        <ele>583</ele>
        <time>2023-07-30T09:30:43.000Z</time>
      </trkpt>
      <trkpt lat="43.71334" lon="7.03767">
        <ele>583</ele>
        <time>2023-07-30T09:30:44.000Z</time>
      </trkpt>
      <trkpt lat="43.71334" lon="7.03767">
        <ele>583</ele>
        <time>2023-07-30T09:30:45.000Z</time>
      </trkpt>
      <trkpt lat="43.71334" lon="7.03767">
        <ele>583</ele>
        <time>2023-07-30T09:30:46.000Z</time>
      </trkpt>
      <trkpt lat="43.71334" lon="7.03767">
        <ele>583</ele>
        <time>2023-07-30T09:30:47.000Z</time>
      </trkpt>
      <trkpt lat="43.71334" lon="7.03767">
        <ele>583</ele>
        <time>2023-07-30T09:30:48.000Z</time>
      </trkpt>
      <trkpt lat="43.71334" lon="7.03767">
        <ele>583</ele>
        <time>2023-07-30T09:30:49.000Z</time>
      </trkpt>
      <trkpt lat="43.71334" lon="7.03767">
        <ele>583</ele>
        <time>2023-07-30T09:30:50.000Z</time>
      </trkpt>
      <trkpt lat="43.71334" lon="7.03767">
        <ele>583</ele>
        <time>2023-07-30T09:30:51.000Z</time>
      </trkpt>
      <trkpt lat="43.71334" lon="7.03767">
        <ele>583</ele>
        <time>2023-07-30T09:30:52.000Z</time>
      </trkpt>
      <trkpt lat="43.71334" lon="7.03767">
        <ele>583</ele>
        <time>2023-07-30T09:30:53.000Z</time>
      </trkpt>
      <trkpt lat="43.71334" lon="7.03767">
        <ele>583</ele>
        <time>2023-07-30T09:30:54.000Z</time>
      </trkpt>
      <trkpt lat="43.71334" lon="7.03767">
        <ele>583</ele>
        <time>2023-07-30T09:30:55.000Z</time>
      </trkpt>
      <trkpt lat="43.71334" lon="7.03767">
        <ele>583</ele>
        <time>2023-07-30T09:30:56.000Z</time>
      </trkpt>
      <trkpt lat="43.71334" lon="7.03767">
        <ele>583</ele>
        <time>2023-07-30T09:30:57.000Z</time>
      </trkpt>
      <trkpt lat="43.71334" lon="7.03767">
        <ele>583</ele>
        <time>2023-07-30T09:30:58.000Z</time>
      </trkpt>
      <trkpt lat="43.71334" lon="7.03767">
        <ele>583</ele>
        <time>2023-07-30T09:30:59.000Z</time>
      </trkpt>
      <trkpt lat="43.71334" lon="7.03767">
        <ele>583</ele>
        <time>2023-07-30T09:31:00.000Z</time>
      </trkpt>
      <trkpt lat="43.71334" lon="7.03767">
        <ele>583</ele>
        <time>2023-07-30T09:31:01.000Z</time>
      </trkpt>
      <trkpt lat="43.71334" lon="7.03767">
        <ele>583.20001220703</ele>
        <time>2023-07-30T09:31:02.000Z</time>
      </trkpt>
      <trkpt lat="43.71334" lon="7.03767">
        <ele>583.20001220703</ele>
        <time>2023-07-30T09:31:03.000Z</time>
      </trkpt>
      <trkpt lat="43.71334" lon="7.03767">
        <ele>583.20001220703</ele>
        <time>2023-07-30T09:31:04.000Z</time>
      </trkpt>
      <trkpt lat="43.71334" lon="7.03767">
        <ele>583.20001220703</ele>
        <time>2023-07-30T09:31:05.000Z</time>
      </trkpt>
      <trkpt lat="43.71334" lon="7.03767">
        <ele>583.20001220703</ele>
        <time>2023-07-30T09:31:06.000Z</time>
      </trkpt>
      <trkpt lat="43.71334" lon="7.03768">
        <ele>583.20001220703</ele>
        <time>2023-07-30T09:31:07.000Z</time>
      </trkpt>
      <trkpt lat="43.71334" lon="7.03767">
        <ele>583.20001220703</ele>
        <time>2023-07-30T09:31:08.000Z</time>
      </trkpt>
      <trkpt lat="43.71334" lon="7.03768">
        <ele>583.20001220703</ele>
        <time>2023-07-30T09:31:09.000Z</time>
      </trkpt>
      <trkpt lat="43.71334" lon="7.03768">
        <ele>583.20001220703</ele>
        <time>2023-07-30T09:31:10.000Z</time>
      </trkpt>
      <trkpt lat="43.71334" lon="7.03768">
        <ele>583.20001220703</ele>
        <time>2023-07-30T09:31:11.000Z</time>
      </trkpt>
      <trkpt lat="43.71334" lon="7.03768">
        <ele>583.20001220703</ele>
        <time>2023-07-30T09:31:12.000Z</time>
      </trkpt>
      <trkpt lat="43.71334" lon="7.03768">
        <ele>583.20001220703</ele>
        <time>2023-07-30T09:31:13.000Z</time>
      </trkpt>
      <trkpt lat="43.71334" lon="7.03768">
        <ele>583.20001220703</ele>
        <time>2023-07-30T09:31:14.000Z</time>
      </trkpt>
      <trkpt lat="43.71334" lon="7.03768">
        <ele>583.20001220703</ele>
        <time>2023-07-30T09:31:15.000Z</time>
      </trkpt>
      <trkpt lat="43.71334" lon="7.03767">
        <ele>583.20001220703</ele>
        <time>2023-07-30T09:31:16.000Z</time>
      </trkpt>
      <trkpt lat="43.71334" lon="7.03767">
        <ele>583.20001220703</ele>
        <time>2023-07-30T09:31:17.000Z</time>
      </trkpt>
      <trkpt lat="43.71334" lon="7.03767">
        <ele>583.20001220703</ele>
        <time>2023-07-30T09:31:18.000Z</time>
      </trkpt>
      <trkpt lat="43.71334" lon="7.03767">
        <ele>583.20001220703</ele>
        <time>2023-07-30T09:31:19.000Z</time>
      </trkpt>
      <trkpt lat="43.71334" lon="7.03767">
        <ele>583.20001220703</ele>
        <time>2023-07-30T09:31:20.000Z</time>
      </trkpt>
      <trkpt lat="43.71334" lon="7.03767">
        <ele>583.20001220703</ele>
        <time>2023-07-30T09:31:21.000Z</time>
      </trkpt>
      <trkpt lat="43.71334" lon="7.03767">
        <ele>583.20001220703</ele>
        <time>2023-07-30T09:31:22.000Z</time>
      </trkpt>
      <trkpt lat="43.71334" lon="7.03767">
        <ele>583.20001220703</ele>
        <time>2023-07-30T09:31:23.000Z</time>
      </trkpt>
      <trkpt lat="43.71334" lon="7.03767">
        <ele>583.20001220703</ele>
        <time>2023-07-30T09:31:24.000Z</time>
      </trkpt>
      <trkpt lat="43.71334" lon="7.03768">
        <ele>583.20001220703</ele>
        <time>2023-07-30T09:31:25.000Z</time>
      </trkpt>
      <trkpt lat="43.71334" lon="7.03768">
        <ele>583.20001220703</ele>
        <time>2023-07-30T09:31:26.000Z</time>
      </trkpt>
      <trkpt lat="43.71334" lon="7.03768">
        <ele>583.20001220703</ele>
        <time>2023-07-30T09:31:27.000Z</time>
      </trkpt>
      <trkpt lat="43.71334" lon="7.03768">
        <ele>583.20001220703</ele>
        <time>2023-07-30T09:31:28.000Z</time>
      </trkpt>
      <trkpt lat="43.71334" lon="7.03768">
        <ele>583.20001220703</ele>
        <time>2023-07-30T09:31:29.000Z</time>
      </trkpt>
      <trkpt lat="43.71334" lon="7.03768">
        <ele>583.20001220703</ele>
        <time>2023-07-30T09:31:30.000Z</time>
      </trkpt>
      <trkpt lat="43.71334" lon="7.03768">
        <ele>583.20001220703</ele>
        <time>2023-07-30T09:31:31.000Z</time>
      </trkpt>
      <trkpt lat="43.71334" lon="7.03768">
        <ele>583.20001220703</ele>
        <time>2023-07-30T09:31:32.000Z</time>
      </trkpt>
      <trkpt lat="43.71334" lon="7.03768">
        <ele>583.20001220703</ele>
        <time>2023-07-30T09:31:33.000Z</time>
      </trkpt>
      <trkpt lat="43.71334" lon="7.03768">
        <ele>583.20001220703</ele>
        <time>2023-07-30T09:31:34.000Z</time>
      </trkpt>
      <trkpt lat="43.71334" lon="7.03767">
        <ele>583.20001220703</ele>
        <time>2023-07-30T09:31:35.000Z</time>
      </trkpt>
      <trkpt lat="43.71334" lon="7.03767">
        <ele>583</ele>
        <time>2023-07-30T09:31:36.000Z</time>
      </trkpt>
      <trkpt lat="43.71334" lon="7.03767">
        <ele>583</ele>
        <time>2023-07-30T09:31:37.000Z</time>
      </trkpt>
      <trkpt lat="43.71334" lon="7.03767">
        <ele>583</ele>
        <time>2023-07-30T09:31:38.000Z</time>
      </trkpt>
      <trkpt lat="43.71334" lon="7.03768">
        <ele>583</ele>
        <time>2023-07-30T09:31:39.000Z</time>
      </trkpt>
      <trkpt lat="43.71334" lon="7.03768">
        <ele>583</ele>
        <time>2023-07-30T09:31:40.000Z</time>
      </trkpt>
      <trkpt lat="43.71334" lon="7.03768">
        <ele>583</ele>
        <time>2023-07-30T09:31:41.000Z</time>
      </trkpt>
      <trkpt lat="43.71334" lon="7.03768">
        <ele>583</ele>
        <time>2023-07-30T09:31:42.000Z</time>
      </trkpt>
      <trkpt lat="43.71334" lon="7.03768">
        <ele>583</ele>
        <time>2023-07-30T09:31:43.000Z</time>
      </trkpt>
      <trkpt lat="43.71334" lon="7.03768">
        <ele>582.79998779297</ele>
        <time>2023-07-30T09:31:44.000Z</time>
      </trkpt>
      <trkpt lat="43.71334" lon="7.03768">
        <ele>582.59997558594</ele>
        <time>2023-07-30T09:31:45.000Z</time>
      </trkpt>
      <trkpt lat="43.71334" lon="7.03768">
        <ele>582.79998779297</ele>
        <time>2023-07-30T09:31:46.000Z</time>
      </trkpt>
      <trkpt lat="43.71334" lon="7.03768">
        <ele>582.79998779297</ele>
        <time>2023-07-30T09:31:47.000Z</time>
      </trkpt>
      <trkpt lat="43.71334" lon="7.03768">
        <ele>583.40002441406</ele>
        <time>2023-07-30T09:31:48.000Z</time>
      </trkpt>
      <trkpt lat="43.71334" lon="7.03768">
        <ele>583.40002441406</ele>
        <time>2023-07-30T09:31:49.000Z</time>
      </trkpt>
      <trkpt lat="43.71334" lon="7.03768">
        <ele>583.20001220703</ele>
        <time>2023-07-30T09:31:50.000Z</time>
      </trkpt>
      <trkpt lat="43.71334" lon="7.03768">
        <ele>583.20001220703</ele>
        <time>2023-07-30T09:31:51.000Z</time>
      </trkpt>
      <trkpt lat="43.71334" lon="7.03767">
        <ele>583.20001220703</ele>
        <time>2023-07-30T09:31:52.000Z</time>
      </trkpt>
      <trkpt lat="43.71334" lon="7.03767">
        <ele>583.20001220703</ele>
        <time>2023-07-30T09:31:53.000Z</time>
      </trkpt>
      <trkpt lat="43.71335" lon="7.03767">
        <ele>583.20001220703</ele>
        <time>2023-07-30T09:31:54.000Z</time>
      </trkpt>
      <trkpt lat="43.71335" lon="7.03767">
        <ele>583.20001220703</ele>
        <time>2023-07-30T09:31:55.000Z</time>
      </trkpt>
      <trkpt lat="43.71337" lon="7.03767">
        <ele>583</ele>
        <time>2023-07-30T09:31:56.000Z</time>
      </trkpt>
      <trkpt lat="43.71339" lon="7.03767">
        <ele>583</ele>
        <time>2023-07-30T09:31:57.000Z</time>
      </trkpt>
      <trkpt lat="43.71341" lon="7.03766">
        <ele>583</ele>
        <time>2023-07-30T09:31:58.000Z</time>
      </trkpt>
      <trkpt lat="43.71342" lon="7.03765">
        <ele>582.79998779297</ele>
        <time>2023-07-30T09:31:59.000Z</time>
      </trkpt>
      <trkpt lat="43.71344" lon="7.03765">
        <ele>582.79998779297</ele>
        <time>2023-07-30T09:32:00.000Z</time>
      </trkpt>
      <trkpt lat="43.71346" lon="7.03764">
        <ele>582.59997558594</ele>
        <time>2023-07-30T09:32:01.000Z</time>
      </trkpt>
      <trkpt lat="43.71349" lon="7.03764">
        <ele>582.40002441406</ele>
        <time>2023-07-30T09:32:02.000Z</time>
      </trkpt>
      <trkpt lat="43.71352" lon="7.03765">
        <ele>582</ele>
        <time>2023-07-30T09:32:03.000Z</time>
      </trkpt>
      <trkpt lat="43.71355" lon="7.03765">
        <ele>581.40002441406</ele>
        <time>2023-07-30T09:32:04.000Z</time>
      </trkpt>
      <trkpt lat="43.71358" lon="7.03765">
        <ele>581.20001220703</ele>
        <time>2023-07-30T09:32:05.000Z</time>
      </trkpt>
      <trkpt lat="43.71361" lon="7.03764">
        <ele>580.59997558594</ele>
        <time>2023-07-30T09:32:06.000Z</time>
      </trkpt>
      <trkpt lat="43.71363" lon="7.03764">
        <ele>580.20001220703</ele>
        <time>2023-07-30T09:32:07.000Z</time>
      </trkpt>
      <trkpt lat="43.71365" lon="7.03763">
        <ele>579.79998779297</ele>
        <time>2023-07-30T09:32:08.000Z</time>
      </trkpt>
      <trkpt lat="43.71367" lon="7.03763">
        <ele>579.20001220703</ele>
        <time>2023-07-30T09:32:09.000Z</time>
      </trkpt>
      <trkpt lat="43.71369" lon="7.03763">
        <ele>578.20001220703</ele>
        <time>2023-07-30T09:32:10.000Z</time>
      </trkpt>
      <trkpt lat="43.71371" lon="7.03763">
        <ele>577.79998779297</ele>
        <time>2023-07-30T09:32:11.000Z</time>
      </trkpt>
      <trkpt lat="43.71373" lon="7.03764">
        <ele>577.59997558594</ele>
        <time>2023-07-30T09:32:12.000Z</time>
      </trkpt>
      <trkpt lat="43.71375" lon="7.03765">
        <ele>577</ele>
        <time>2023-07-30T09:32:13.000Z</time>
      </trkpt>
      <trkpt lat="43.71375" lon="7.03767">
        <ele>576.59997558594</ele>
        <time>2023-07-30T09:32:14.000Z</time>
      </trkpt>
      <trkpt lat="43.71375" lon="7.03767">
        <ele>576.20001220703</ele>
        <time>2023-07-30T09:32:15.000Z</time>
      </trkpt>
      <trkpt lat="43.71373" lon="7.03768">
        <ele>576</ele>
        <time>2023-07-30T09:32:16.000Z</time>
      </trkpt>
      <trkpt lat="43.71373" lon="7.03768">
        <ele>575.79998779297</ele>
        <time>2023-07-30T09:32:17.000Z</time>
      </trkpt>
      <trkpt lat="43.71372" lon="7.03769">
        <ele>575.40002441406</ele>
        <time>2023-07-30T09:32:18.000Z</time>
      </trkpt>
      <trkpt lat="43.71372" lon="7.0377">
        <ele>575</ele>
        <time>2023-07-30T09:32:19.000Z</time>
      </trkpt>
      <trkpt lat="43.71372" lon="7.03771">
        <ele>574.79998779297</ele>
        <time>2023-07-30T09:32:20.000Z</time>
      </trkpt>
      <trkpt lat="43.71372" lon="7.03771">
        <ele>574.59997558594</ele>
        <time>2023-07-30T09:32:21.000Z</time>
      </trkpt>
      <trkpt lat="43.71372" lon="7.03771">
        <ele>574.20001220703</ele>
        <time>2023-07-30T09:32:22.000Z</time>
      </trkpt>
      <trkpt lat="43.71372" lon="7.03772">
        <ele>574.20001220703</ele>
        <time>2023-07-30T09:32:23.000Z</time>
      </trkpt>
      <trkpt lat="43.71372" lon="7.03772">
        <ele>574</ele>
        <time>2023-07-30T09:32:24.000Z</time>
      </trkpt>
      <trkpt lat="43.71371" lon="7.03772">
        <ele>573.79998779297</ele>
        <time>2023-07-30T09:32:25.000Z</time>
      </trkpt>
      <trkpt lat="43.7137" lon="7.03774">
        <ele>573.79998779297</ele>
        <time>2023-07-30T09:32:26.000Z</time>
      </trkpt>
      <trkpt lat="43.71369" lon="7.03776">
        <ele>573.79998779297</ele>
        <time>2023-07-30T09:32:27.000Z</time>
      </trkpt>
      <trkpt lat="43.71367" lon="7.03779">
        <ele>573.79998779297</ele>
        <time>2023-07-30T09:32:28.000Z</time>
      </trkpt>
      <trkpt lat="43.71366" lon="7.03782">
        <ele>573.59997558594</ele>
        <time>2023-07-30T09:32:29.000Z</time>
      </trkpt>
      <trkpt lat="43.71365" lon="7.03784">
        <ele>573</ele>
        <time>2023-07-30T09:32:30.000Z</time>
      </trkpt>
      <trkpt lat="43.71363" lon="7.03785">
        <ele>573</ele>
        <time>2023-07-30T09:32:31.000Z</time>
      </trkpt>
      <trkpt lat="43.71362" lon="7.03786">
        <ele>572.40002441406</ele>
        <time>2023-07-30T09:32:32.000Z</time>
      </trkpt>
      <trkpt lat="43.7136" lon="7.03789">
        <ele>572</ele>
        <time>2023-07-30T09:32:33.000Z</time>
      </trkpt>
      <trkpt lat="43.7136" lon="7.03792">
        <ele>571.59997558594</ele>
        <time>2023-07-30T09:32:34.000Z</time>
      </trkpt>
      <trkpt lat="43.71362" lon="7.03793">
        <ele>570.79998779297</ele>
        <time>2023-07-30T09:32:35.000Z</time>
      </trkpt>
      <trkpt lat="43.71363" lon="7.03793">
        <ele>570.79998779297</ele>
        <time>2023-07-30T09:32:36.000Z</time>
      </trkpt>
      <trkpt lat="43.71364" lon="7.03791">
        <ele>570.20001220703</ele>
        <time>2023-07-30T09:32:37.000Z</time>
      </trkpt>
      <trkpt lat="43.71366" lon="7.0379">
        <ele>570.20001220703</ele>
        <time>2023-07-30T09:32:38.000Z</time>
      </trkpt>
      <trkpt lat="43.71367" lon="7.0379">
        <ele>569.79998779297</ele>
        <time>2023-07-30T09:32:39.000Z</time>
      </trkpt>
      <trkpt lat="43.71369" lon="7.0379">
        <ele>569.59997558594</ele>
        <time>2023-07-30T09:32:40.000Z</time>
      </trkpt>
      <trkpt lat="43.7137" lon="7.03789">
        <ele>569.20001220703</ele>
        <time>2023-07-30T09:32:41.000Z</time>
      </trkpt>
      <trkpt lat="43.71372" lon="7.03788">
        <ele>568.79998779297</ele>
        <time>2023-07-30T09:32:42.000Z</time>
      </trkpt>
      <trkpt lat="43.71374" lon="7.03788">
        <ele>568.59997558594</ele>
        <time>2023-07-30T09:32:43.000Z</time>
      </trkpt>
      <trkpt lat="43.71375" lon="7.03788">
        <ele>568.20001220703</ele>
        <time>2023-07-30T09:32:44.000Z</time>
      </trkpt>
      <trkpt lat="43.71378" lon="7.03787">
        <ele>567.59997558594</ele>
        <time>2023-07-30T09:32:45.000Z</time>
      </trkpt>
      <trkpt lat="43.71381" lon="7.03787">
        <ele>567.40002441406</ele>
        <time>2023-07-30T09:32:46.000Z</time>
      </trkpt>
      <trkpt lat="43.71384" lon="7.03787">
        <ele>566.79998779297</ele>
        <time>2023-07-30T09:32:47.000Z</time>
      </trkpt>
      <trkpt lat="43.71387" lon="7.03786">
        <ele>566.79998779297</ele>
        <time>2023-07-30T09:32:48.000Z</time>
      </trkpt>
      <trkpt lat="43.7139" lon="7.03785">
        <ele>566.40002441406</ele>
        <time>2023-07-30T09:32:49.000Z</time>
      </trkpt>
      <trkpt lat="43.71392" lon="7.03784">
        <ele>566</ele>
        <time>2023-07-30T09:32:50.000Z</time>
      </trkpt>
      <trkpt lat="43.71394" lon="7.03782">
        <ele>565.40002441406</ele>
        <time>2023-07-30T09:32:51.000Z</time>
      </trkpt>
      <trkpt lat="43.71397" lon="7.03781">
        <ele>565.20001220703</ele>
        <time>2023-07-30T09:32:52.000Z</time>
      </trkpt>
      <trkpt lat="43.714" lon="7.03781">
        <ele>564.59997558594</ele>
        <time>2023-07-30T09:32:53.000Z</time>
      </trkpt>
      <trkpt lat="43.71404" lon="7.03782">
        <ele>564</ele>
        <time>2023-07-30T09:32:54.000Z</time>
      </trkpt>
      <trkpt lat="43.71408" lon="7.03783">
        <ele>563.59997558594</ele>
        <time>2023-07-30T09:32:55.000Z</time>
      </trkpt>
      <trkpt lat="43.71412" lon="7.03785">
        <ele>563.59997558594</ele>
        <time>2023-07-30T09:32:56.000Z</time>
      </trkpt>
      <trkpt lat="43.71416" lon="7.03786">
        <ele>563.20001220703</ele>
        <time>2023-07-30T09:32:57.000Z</time>
      </trkpt>
      <trkpt lat="43.71419" lon="7.03788">
        <ele>562.79998779297</ele>
        <time>2023-07-30T09:32:58.000Z</time>
      </trkpt>
      <trkpt lat="43.7142" lon="7.03792">
        <ele>562</ele>
        <time>2023-07-30T09:32:59.000Z</time>
      </trkpt>
      <trkpt lat="43.7142" lon="7.03794">
        <ele>561.40002441406</ele>
        <time>2023-07-30T09:33:00.000Z</time>
      </trkpt>
      <trkpt lat="43.71419" lon="7.03796">
        <ele>561</ele>
        <time>2023-07-30T09:33:01.000Z</time>
      </trkpt>
      <trkpt lat="43.71419" lon="7.03797">
        <ele>560.79998779297</ele>
        <time>2023-07-30T09:33:02.000Z</time>
      </trkpt>
      <trkpt lat="43.7142" lon="7.03798">
        <ele>560.59997558594</ele>
        <time>2023-07-30T09:33:03.000Z</time>
      </trkpt>
      <trkpt lat="43.7142" lon="7.03798">
        <ele>560.40002441406</ele>
        <time>2023-07-30T09:33:04.000Z</time>
      </trkpt>
      <trkpt lat="43.7142" lon="7.03798">
        <ele>560.40002441406</ele>
        <time>2023-07-30T09:33:05.000Z</time>
      </trkpt>
      <trkpt lat="43.7142" lon="7.03798">
        <ele>560.40002441406</ele>
        <time>2023-07-30T09:33:06.000Z</time>
      </trkpt>
      <trkpt lat="43.7142" lon="7.03798">
        <ele>560.20001220703</ele>
        <time>2023-07-30T09:33:07.000Z</time>
      </trkpt>
      <trkpt lat="43.7142" lon="7.03798">
        <ele>560.20001220703</ele>
        <time>2023-07-30T09:33:08.000Z</time>
      </trkpt>
      <trkpt lat="43.7142" lon="7.03798">
        <ele>560.20001220703</ele>
        <time>2023-07-30T09:33:09.000Z</time>
      </trkpt>
      <trkpt lat="43.7142" lon="7.03798">
        <ele>560.20001220703</ele>
        <time>2023-07-30T09:33:10.000Z</time>
      </trkpt>
      <trkpt lat="43.7142" lon="7.03798">
        <ele>560.20001220703</ele>
        <time>2023-07-30T09:33:11.000Z</time>
      </trkpt>
      <trkpt lat="43.7142" lon="7.03798">
        <ele>560.20001220703</ele>
        <time>2023-07-30T09:33:12.000Z</time>
      </trkpt>
      <trkpt lat="43.7142" lon="7.03798">
        <ele>560.20001220703</ele>
        <time>2023-07-30T09:33:13.000Z</time>
      </trkpt>
      <trkpt lat="43.7142" lon="7.03798">
        <ele>560.20001220703</ele>
        <time>2023-07-30T09:33:14.000Z</time>
      </trkpt>
      <trkpt lat="43.7142" lon="7.03798">
        <ele>560.20001220703</ele>
        <time>2023-07-30T09:33:15.000Z</time>
      </trkpt>
      <trkpt lat="43.7142" lon="7.03798">
        <ele>560.20001220703</ele>
        <time>2023-07-30T09:33:16.000Z</time>
      </trkpt>
      <trkpt lat="43.7142" lon="7.03798">
        <ele>560.20001220703</ele>
        <time>2023-07-30T09:33:17.000Z</time>
      </trkpt>
      <trkpt lat="43.7142" lon="7.03798">
        <ele>560.20001220703</ele>
        <time>2023-07-30T09:33:18.000Z</time>
      </trkpt>
      <trkpt lat="43.7142" lon="7.03798">
        <ele>560</ele>
        <time>2023-07-30T09:33:19.000Z</time>
      </trkpt>
      <trkpt lat="43.7142" lon="7.03798">
        <ele>560</ele>
        <time>2023-07-30T09:33:20.000Z</time>
      </trkpt>
      <trkpt lat="43.7142" lon="7.03798">
        <ele>560</ele>
        <time>2023-07-30T09:33:21.000Z</time>
      </trkpt>
      <trkpt lat="43.7142" lon="7.03798">
        <ele>560</ele>
        <time>2023-07-30T09:33:22.000Z</time>
      </trkpt>
      <trkpt lat="43.7142" lon="7.03798">
        <ele>560</ele>
        <time>2023-07-30T09:33:23.000Z</time>
      </trkpt>
      <trkpt lat="43.7142" lon="7.03798">
        <ele>560</ele>
        <time>2023-07-30T09:33:24.000Z</time>
      </trkpt>
      <trkpt lat="43.7142" lon="7.03798">
        <ele>560</ele>
        <time>2023-07-30T09:33:25.000Z</time>
      </trkpt>
      <trkpt lat="43.7142" lon="7.03798">
        <ele>560</ele>
        <time>2023-07-30T09:33:26.000Z</time>
      </trkpt>
      <trkpt lat="43.7142" lon="7.03798">
        <ele>560</ele>
        <time>2023-07-30T09:33:27.000Z</time>
      </trkpt>
      <trkpt lat="43.7142" lon="7.03798">
        <ele>560</ele>
        <time>2023-07-30T09:33:28.000Z</time>
      </trkpt>
      <trkpt lat="43.7142" lon="7.03798">
        <ele>560</ele>
        <time>2023-07-30T09:33:29.000Z</time>
      </trkpt>
      <trkpt lat="43.7142" lon="7.03798">
        <ele>560</ele>
        <time>2023-07-30T09:33:30.000Z</time>
      </trkpt>
      <trkpt lat="43.7142" lon="7.03797">
        <ele>560</ele>
        <time>2023-07-30T09:33:31.000Z</time>
      </trkpt>
      <trkpt lat="43.7142" lon="7.03797">
        <ele>560</ele>
        <time>2023-07-30T09:33:32.000Z</time>
      </trkpt>
      <trkpt lat="43.7142" lon="7.03797">
        <ele>560</ele>
        <time>2023-07-30T09:33:33.000Z</time>
      </trkpt>
      <trkpt lat="43.7142" lon="7.03797">
        <ele>560</ele>
        <time>2023-07-30T09:33:34.000Z</time>
      </trkpt>
      <trkpt lat="43.7142" lon="7.03797">
        <ele>560</ele>
        <time>2023-07-30T09:33:35.000Z</time>
      </trkpt>
      <trkpt lat="43.7142" lon="7.03797">
        <ele>560</ele>
        <time>2023-07-30T09:33:36.000Z</time>
      </trkpt>
      <trkpt lat="43.7142" lon="7.03797">
        <ele>560</ele>
        <time>2023-07-30T09:33:37.000Z</time>
      </trkpt>
      <trkpt lat="43.7142" lon="7.03797">
        <ele>560</ele>
        <time>2023-07-30T09:33:38.000Z</time>
      </trkpt>
      <trkpt lat="43.7142" lon="7.03797">
        <ele>560</ele>
        <time>2023-07-30T09:33:39.000Z</time>
      </trkpt>
      <trkpt lat="43.7142" lon="7.03797">
        <ele>560</ele>
        <time>2023-07-30T09:33:40.000Z</time>
      </trkpt>
      <trkpt lat="43.7142" lon="7.03797">
        <ele>560</ele>
        <time>2023-07-30T09:33:41.000Z</time>
      </trkpt>
      <trkpt lat="43.7142" lon="7.03797">
        <ele>560</ele>
        <time>2023-07-30T09:33:42.000Z</time>
      </trkpt>
      <trkpt lat="43.7142" lon="7.03797">
        <ele>560.20001220703</ele>
        <time>2023-07-30T09:33:43.000Z</time>
      </trkpt>
      <trkpt lat="43.7142" lon="7.03797">
        <ele>560</ele>
        <time>2023-07-30T09:33:44.000Z</time>
      </trkpt>
      <trkpt lat="43.7142" lon="7.03797">
        <ele>560</ele>
        <time>2023-07-30T09:33:45.000Z</time>
      </trkpt>
      <trkpt lat="43.7142" lon="7.03797">
        <ele>560</ele>
        <time>2023-07-30T09:33:46.000Z</time>
      </trkpt>
      <trkpt lat="43.7142" lon="7.03798">
        <ele>560</ele>
        <time>2023-07-30T09:33:47.000Z</time>
      </trkpt>
      <trkpt lat="43.71421" lon="7.03798">
        <ele>560</ele>
        <time>2023-07-30T09:33:48.000Z</time>
      </trkpt>
      <trkpt lat="43.7142" lon="7.03797">
        <ele>560</ele>
        <time>2023-07-30T09:33:49.000Z</time>
      </trkpt>
      <trkpt lat="43.7142" lon="7.03797">
        <ele>560</ele>
        <time>2023-07-30T09:33:50.000Z</time>
      </trkpt>
      <trkpt lat="43.71421" lon="7.03797">
        <ele>560</ele>
        <time>2023-07-30T09:33:51.000Z</time>
      </trkpt>
      <trkpt lat="43.7142" lon="7.03798">
        <ele>560</ele>
        <time>2023-07-30T09:33:52.000Z</time>
      </trkpt>
      <trkpt lat="43.7142" lon="7.03798">
        <ele>560</ele>
        <time>2023-07-30T09:33:53.000Z</time>
      </trkpt>
      <trkpt lat="43.7142" lon="7.03798">
        <ele>560</ele>
        <time>2023-07-30T09:33:54.000Z</time>
      </trkpt>
      <trkpt lat="43.7142" lon="7.03798">
        <ele>560</ele>
        <time>2023-07-30T09:33:55.000Z</time>
      </trkpt>
      <trkpt lat="43.71421" lon="7.03798">
        <ele>560</ele>
        <time>2023-07-30T09:33:56.000Z</time>
      </trkpt>
      <trkpt lat="43.71421" lon="7.03798">
        <ele>560.20001220703</ele>
        <time>2023-07-30T09:33:57.000Z</time>
      </trkpt>
      <trkpt lat="43.71421" lon="7.03798">
        <ele>560.20001220703</ele>
        <time>2023-07-30T09:33:58.000Z</time>
      </trkpt>
      <trkpt lat="43.71421" lon="7.03798">
        <ele>560.20001220703</ele>
        <time>2023-07-30T09:33:59.000Z</time>
      </trkpt>
      <trkpt lat="43.71421" lon="7.03798">
        <ele>560.20001220703</ele>
        <time>2023-07-30T09:34:00.000Z</time>
      </trkpt>
      <trkpt lat="43.71421" lon="7.03798">
        <ele>560.20001220703</ele>
        <time>2023-07-30T09:34:01.000Z</time>
      </trkpt>
      <trkpt lat="43.71421" lon="7.03798">
        <ele>560.20001220703</ele>
        <time>2023-07-30T09:34:02.000Z</time>
      </trkpt>
      <trkpt lat="43.71421" lon="7.03798">
        <ele>560.20001220703</ele>
        <time>2023-07-30T09:34:03.000Z</time>
      </trkpt>
      <trkpt lat="43.71421" lon="7.03798">
        <ele>560.20001220703</ele>
        <time>2023-07-30T09:34:04.000Z</time>
      </trkpt>
      <trkpt lat="43.71421" lon="7.03798">
        <ele>560.20001220703</ele>
        <time>2023-07-30T09:34:05.000Z</time>
      </trkpt>
      <trkpt lat="43.71421" lon="7.03798">
        <ele>560.20001220703</ele>
        <time>2023-07-30T09:34:06.000Z</time>
      </trkpt>
      <trkpt lat="43.71421" lon="7.03798">
        <ele>560.20001220703</ele>
        <time>2023-07-30T09:34:07.000Z</time>
      </trkpt>
      <trkpt lat="43.71421" lon="7.03798">
        <ele>560.20001220703</ele>
        <time>2023-07-30T09:34:08.000Z</time>
      </trkpt>
      <trkpt lat="43.71421" lon="7.03798">
        <ele>560.20001220703</ele>
        <time>2023-07-30T09:34:09.000Z</time>
      </trkpt>
      <trkpt lat="43.71421" lon="7.03798">
        <ele>560.20001220703</ele>
        <time>2023-07-30T09:34:10.000Z</time>
      </trkpt>
      <trkpt lat="43.71421" lon="7.03798">
        <ele>560.20001220703</ele>
        <time>2023-07-30T09:34:11.000Z</time>
      </trkpt>
      <trkpt lat="43.71421" lon="7.03798">
        <ele>560.20001220703</ele>
        <time>2023-07-30T09:34:12.000Z</time>
      </trkpt>
      <trkpt lat="43.71421" lon="7.03798">
        <ele>560.20001220703</ele>
        <time>2023-07-30T09:34:13.000Z</time>
      </trkpt>
      <trkpt lat="43.71421" lon="7.03798">
        <ele>560.20001220703</ele>
        <time>2023-07-30T09:34:14.000Z</time>
      </trkpt>
      <trkpt lat="43.71421" lon="7.03798">
        <ele>560.20001220703</ele>
        <time>2023-07-30T09:34:15.000Z</time>
      </trkpt>
      <trkpt lat="43.71421" lon="7.03798">
        <ele>560.20001220703</ele>
        <time>2023-07-30T09:34:16.000Z</time>
      </trkpt>
      <trkpt lat="43.71421" lon="7.03798">
        <ele>560.20001220703</ele>
        <time>2023-07-30T09:34:17.000Z</time>
      </trkpt>
      <trkpt lat="43.71421" lon="7.03798">
        <ele>560.20001220703</ele>
        <time>2023-07-30T09:34:18.000Z</time>
      </trkpt>
      <trkpt lat="43.71421" lon="7.03798">
        <ele>560.20001220703</ele>
        <time>2023-07-30T09:34:19.000Z</time>
      </trkpt>
      <trkpt lat="43.71421" lon="7.03798">
        <ele>560.20001220703</ele>
        <time>2023-07-30T09:34:20.000Z</time>
      </trkpt>
      <trkpt lat="43.71421" lon="7.03798">
        <ele>560.20001220703</ele>
        <time>2023-07-30T09:34:21.000Z</time>
      </trkpt>
      <trkpt lat="43.71421" lon="7.03798">
        <ele>560.20001220703</ele>
        <time>2023-07-30T09:34:22.000Z</time>
      </trkpt>
      <trkpt lat="43.71421" lon="7.03798">
        <ele>560.20001220703</ele>
        <time>2023-07-30T09:34:23.000Z</time>
      </trkpt>
      <trkpt lat="43.71421" lon="7.03798">
        <ele>560.20001220703</ele>
        <time>2023-07-30T09:34:24.000Z</time>
      </trkpt>
      <trkpt lat="43.71421" lon="7.03798">
        <ele>560.20001220703</ele>
        <time>2023-07-30T09:34:25.000Z</time>
      </trkpt>
      <trkpt lat="43.71421" lon="7.03798">
        <ele>560.20001220703</ele>
        <time>2023-07-30T09:34:26.000Z</time>
      </trkpt>
      <trkpt lat="43.71421" lon="7.03798">
        <ele>560.20001220703</ele>
        <time>2023-07-30T09:34:27.000Z</time>
      </trkpt>
      <trkpt lat="43.71421" lon="7.03798">
        <ele>560.20001220703</ele>
        <time>2023-07-30T09:34:28.000Z</time>
      </trkpt>
      <trkpt lat="43.71421" lon="7.03798">
        <ele>560.20001220703</ele>
        <time>2023-07-30T09:34:29.000Z</time>
      </trkpt>
      <trkpt lat="43.71421" lon="7.03798">
        <ele>560.20001220703</ele>
        <time>2023-07-30T09:34:30.000Z</time>
      </trkpt>
      <trkpt lat="43.71421" lon="7.03798">
        <ele>560.20001220703</ele>
        <time>2023-07-30T09:34:31.000Z</time>
      </trkpt>
      <trkpt lat="43.71421" lon="7.03798">
        <ele>560.20001220703</ele>
        <time>2023-07-30T09:34:32.000Z</time>
      </trkpt>
      <trkpt lat="43.71421" lon="7.03798">
        <ele>560.20001220703</ele>
        <time>2023-07-30T09:34:33.000Z</time>
      </trkpt>
      <trkpt lat="43.71421" lon="7.03798">
        <ele>560.20001220703</ele>
        <time>2023-07-30T09:34:34.000Z</time>
      </trkpt>
      <trkpt lat="43.71421" lon="7.03798">
        <ele>560.20001220703</ele>
        <time>2023-07-30T09:34:35.000Z</time>
      </trkpt>
      <trkpt lat="43.71421" lon="7.03798">
        <ele>560.20001220703</ele>
        <time>2023-07-30T09:34:36.000Z</time>
      </trkpt>
      <trkpt lat="43.71421" lon="7.03798">
        <ele>560.20001220703</ele>
        <time>2023-07-30T09:34:37.000Z</time>
      </trkpt>
      <trkpt lat="43.71421" lon="7.03798">
        <ele>560.20001220703</ele>
        <time>2023-07-30T09:34:38.000Z</time>
      </trkpt>
      <trkpt lat="43.71421" lon="7.03798">
        <ele>560.20001220703</ele>
        <time>2023-07-30T09:34:39.000Z</time>
      </trkpt>
      <trkpt lat="43.71421" lon="7.03798">
        <ele>560.20001220703</ele>
        <time>2023-07-30T09:34:40.000Z</time>
      </trkpt>
      <trkpt lat="43.71421" lon="7.03798">
        <ele>560.20001220703</ele>
        <time>2023-07-30T09:34:41.000Z</time>
      </trkpt>
      <trkpt lat="43.71421" lon="7.03798">
        <ele>560.20001220703</ele>
        <time>2023-07-30T09:34:42.000Z</time>
      </trkpt>
      <trkpt lat="43.71421" lon="7.03798">
        <ele>560.20001220703</ele>
        <time>2023-07-30T09:34:43.000Z</time>
      </trkpt>
      <trkpt lat="43.71421" lon="7.03798">
        <ele>560.20001220703</ele>
        <time>2023-07-30T09:34:44.000Z</time>
      </trkpt>
      <trkpt lat="43.71421" lon="7.03798">
        <ele>560.20001220703</ele>
        <time>2023-07-30T09:34:45.000Z</time>
      </trkpt>
      <trkpt lat="43.71421" lon="7.03798">
        <ele>560.20001220703</ele>
        <time>2023-07-30T09:34:46.000Z</time>
      </trkpt>
      <trkpt lat="43.71421" lon="7.03798">
        <ele>560.20001220703</ele>
        <time>2023-07-30T09:34:47.000Z</time>
      </trkpt>
      <trkpt lat="43.71421" lon="7.03798">
        <ele>560.20001220703</ele>
        <time>2023-07-30T09:34:48.000Z</time>
      </trkpt>
      <trkpt lat="43.71421" lon="7.03798">
        <ele>560.20001220703</ele>
        <time>2023-07-30T09:34:49.000Z</time>
      </trkpt>
      <trkpt lat="43.71421" lon="7.03798">
        <ele>560.20001220703</ele>
        <time>2023-07-30T09:34:50.000Z</time>
      </trkpt>
      <trkpt lat="43.71421" lon="7.03798">
        <ele>560.20001220703</ele>
        <time>2023-07-30T09:34:51.000Z</time>
      </trkpt>
      <trkpt lat="43.71421" lon="7.03798">
        <ele>560.20001220703</ele>
        <time>2023-07-30T09:34:52.000Z</time>
      </trkpt>
      <trkpt lat="43.71421" lon="7.03798">
        <ele>560.20001220703</ele>
        <time>2023-07-30T09:34:53.000Z</time>
      </trkpt>
      <trkpt lat="43.71421" lon="7.03798">
        <ele>560.20001220703</ele>
        <time>2023-07-30T09:34:54.000Z</time>
      </trkpt>
      <trkpt lat="43.71421" lon="7.03798">
        <ele>560.20001220703</ele>
        <time>2023-07-30T09:34:55.000Z</time>
      </trkpt>
      <trkpt lat="43.71421" lon="7.03798">
        <ele>560.20001220703</ele>
        <time>2023-07-30T09:34:56.000Z</time>
      </trkpt>
      <trkpt lat="43.71421" lon="7.03798">
        <ele>560.20001220703</ele>
        <time>2023-07-30T09:34:57.000Z</time>
      </trkpt>
      <trkpt lat="43.71421" lon="7.03798">
        <ele>560.20001220703</ele>
        <time>2023-07-30T09:34:58.000Z</time>
      </trkpt>
      <trkpt lat="43.71421" lon="7.03798">
        <ele>560.20001220703</ele>
        <time>2023-07-30T09:34:59.000Z</time>
      </trkpt>
      <trkpt lat="43.71421" lon="7.03798">
        <ele>560.20001220703</ele>
        <time>2023-07-30T09:35:00.000Z</time>
      </trkpt>
      <trkpt lat="43.71421" lon="7.03798">
        <ele>560.40002441406</ele>
        <time>2023-07-30T09:35:01.000Z</time>
      </trkpt>
      <trkpt lat="43.71421" lon="7.03798">
        <ele>560.40002441406</ele>
        <time>2023-07-30T09:35:02.000Z</time>
      </trkpt>
      <trkpt lat="43.71421" lon="7.03798">
        <ele>560.40002441406</ele>
        <time>2023-07-30T09:35:03.000Z</time>
      </trkpt>
      <trkpt lat="43.71421" lon="7.03798">
        <ele>560.40002441406</ele>
        <time>2023-07-30T09:35:04.000Z</time>
      </trkpt>
      <trkpt lat="43.71421" lon="7.03798">
        <ele>560.40002441406</ele>
        <time>2023-07-30T09:35:05.000Z</time>
      </trkpt>
      <trkpt lat="43.71421" lon="7.03798">
        <ele>560.40002441406</ele>
        <time>2023-07-30T09:35:06.000Z</time>
      </trkpt>
      <trkpt lat="43.71421" lon="7.03798">
        <ele>560.40002441406</ele>
        <time>2023-07-30T09:35:07.000Z</time>
      </trkpt>
      <trkpt lat="43.71421" lon="7.03798">
        <ele>560.40002441406</ele>
        <time>2023-07-30T09:35:08.000Z</time>
      </trkpt>
      <trkpt lat="43.71421" lon="7.03798">
        <ele>560.40002441406</ele>
        <time>2023-07-30T09:35:09.000Z</time>
      </trkpt>
      <trkpt lat="43.71421" lon="7.03798">
        <ele>560.40002441406</ele>
        <time>2023-07-30T09:35:10.000Z</time>
      </trkpt>
      <trkpt lat="43.71421" lon="7.03798">
        <ele>560.40002441406</ele>
        <time>2023-07-30T09:35:11.000Z</time>
      </trkpt>
      <trkpt lat="43.71421" lon="7.03798">
        <ele>560.40002441406</ele>
        <time>2023-07-30T09:35:12.000Z</time>
      </trkpt>
      <trkpt lat="43.71421" lon="7.03798">
        <ele>560.40002441406</ele>
        <time>2023-07-30T09:35:13.000Z</time>
      </trkpt>
      <trkpt lat="43.71421" lon="7.03798">
        <ele>560.40002441406</ele>
        <time>2023-07-30T09:35:14.000Z</time>
      </trkpt>
      <trkpt lat="43.71421" lon="7.03798">
        <ele>560.40002441406</ele>
        <time>2023-07-30T09:35:15.000Z</time>
      </trkpt>
      <trkpt lat="43.71421" lon="7.03798">
        <ele>560.40002441406</ele>
        <time>2023-07-30T09:35:16.000Z</time>
      </trkpt>
      <trkpt lat="43.71421" lon="7.03798">
        <ele>560.40002441406</ele>
        <time>2023-07-30T09:35:17.000Z</time>
      </trkpt>
      <trkpt lat="43.71421" lon="7.03798">
        <ele>560.40002441406</ele>
        <time>2023-07-30T09:35:18.000Z</time>
      </trkpt>
      <trkpt lat="43.71421" lon="7.03798">
        <ele>560.40002441406</ele>
        <time>2023-07-30T09:35:19.000Z</time>
      </trkpt>
      <trkpt lat="43.71421" lon="7.03799">
        <ele>560.40002441406</ele>
        <time>2023-07-30T09:35:20.000Z</time>
      </trkpt>
      <trkpt lat="43.71421" lon="7.03799">
        <ele>560.40002441406</ele>
        <time>2023-07-30T09:35:21.000Z</time>
      </trkpt>
      <trkpt lat="43.71421" lon="7.038">
        <ele>560.59997558594</ele>
        <time>2023-07-30T09:35:22.000Z</time>
      </trkpt>
      <trkpt lat="43.7142" lon="7.038">
        <ele>560.59997558594</ele>
        <time>2023-07-30T09:35:23.000Z</time>
      </trkpt>
      <trkpt lat="43.71419" lon="7.03801">
        <ele>560.59997558594</ele>
        <time>2023-07-30T09:35:24.000Z</time>
      </trkpt>
      <trkpt lat="43.71417" lon="7.03802">
        <ele>560.59997558594</ele>
        <time>2023-07-30T09:35:25.000Z</time>
      </trkpt>
      <trkpt lat="43.71416" lon="7.03802">
        <ele>560.59997558594</ele>
        <time>2023-07-30T09:35:26.000Z</time>
      </trkpt>
      <trkpt lat="43.71415" lon="7.03803">
        <ele>560.59997558594</ele>
        <time>2023-07-30T09:35:27.000Z</time>
      </trkpt>
      <trkpt lat="43.71414" lon="7.03805">
        <ele>560.59997558594</ele>
        <time>2023-07-30T09:35:28.000Z</time>
      </trkpt>
      <trkpt lat="43.71412" lon="7.03806">
        <ele>560.59997558594</ele>
        <time>2023-07-30T09:35:29.000Z</time>
      </trkpt>
      <trkpt lat="43.71411" lon="7.03807">
        <ele>560.40002441406</ele>
        <time>2023-07-30T09:35:30.000Z</time>
      </trkpt>
      <trkpt lat="43.71409" lon="7.03809">
        <ele>560.20001220703</ele>
        <time>2023-07-30T09:35:31.000Z</time>
      </trkpt>
      <trkpt lat="43.71407" lon="7.03812">
        <ele>560.40002441406</ele>
        <time>2023-07-30T09:35:32.000Z</time>
      </trkpt>
      <trkpt lat="43.71405" lon="7.03816">
        <ele>560.20001220703</ele>
        <time>2023-07-30T09:35:33.000Z</time>
      </trkpt>
      <trkpt lat="43.71403" lon="7.0382">
        <ele>560</ele>
        <time>2023-07-30T09:35:34.000Z</time>
      </trkpt>
      <trkpt lat="43.714" lon="7.03824">
        <ele>560</ele>
        <time>2023-07-30T09:35:35.000Z</time>
      </trkpt>
      <trkpt lat="43.71397" lon="7.03828">
        <ele>559.79998779297</ele>
        <time>2023-07-30T09:35:36.000Z</time>
      </trkpt>
      <trkpt lat="43.71395" lon="7.03832">
        <ele>559.79998779297</ele>
        <time>2023-07-30T09:35:37.000Z</time>
      </trkpt>
      <trkpt lat="43.71394" lon="7.03837">
        <ele>559.79998779297</ele>
        <time>2023-07-30T09:35:38.000Z</time>
      </trkpt>
      <trkpt lat="43.71393" lon="7.03841">
        <ele>559.79998779297</ele>
        <time>2023-07-30T09:35:39.000Z</time>
      </trkpt>
      <trkpt lat="43.71392" lon="7.03844">
        <ele>559.79998779297</ele>
        <time>2023-07-30T09:35:40.000Z</time>
      </trkpt>
      <trkpt lat="43.71392" lon="7.03847">
        <ele>559.79998779297</ele>
        <time>2023-07-30T09:35:41.000Z</time>
      </trkpt>
      <trkpt lat="43.71392" lon="7.0385">
        <ele>560</ele>
        <time>2023-07-30T09:35:42.000Z</time>
      </trkpt>
      <trkpt lat="43.71392" lon="7.03853">
        <ele>560.20001220703</ele>
        <time>2023-07-30T09:35:43.000Z</time>
      </trkpt>
      <trkpt lat="43.71391" lon="7.03855">
        <ele>560.20001220703</ele>
        <time>2023-07-30T09:35:44.000Z</time>
      </trkpt>
      <trkpt lat="43.7139" lon="7.03856">
        <ele>560.20001220703</ele>
        <time>2023-07-30T09:35:45.000Z</time>
      </trkpt>
      <trkpt lat="43.71387" lon="7.03856">
        <ele>560.20001220703</ele>
        <time>2023-07-30T09:35:46.000Z</time>
      </trkpt>
      <trkpt lat="43.71386" lon="7.03858">
        <ele>560</ele>
        <time>2023-07-30T09:35:47.000Z</time>
      </trkpt>
      <trkpt lat="43.71385" lon="7.0386">
        <ele>560</ele>
        <time>2023-07-30T09:35:48.000Z</time>
      </trkpt>
      <trkpt lat="43.71384" lon="7.03863">
        <ele>560</ele>
        <time>2023-07-30T09:35:49.000Z</time>
      </trkpt>
      <trkpt lat="43.71384" lon="7.03865">
        <ele>560</ele>
        <time>2023-07-30T09:35:50.000Z</time>
      </trkpt>
      <trkpt lat="43.71383" lon="7.03868">
        <ele>560</ele>
        <time>2023-07-30T09:35:51.000Z</time>
      </trkpt>
      <trkpt lat="43.71382" lon="7.03872">
        <ele>559.40002441406</ele>
        <time>2023-07-30T09:35:52.000Z</time>
      </trkpt>
      <trkpt lat="43.71381" lon="7.03876">
        <ele>559.40002441406</ele>
        <time>2023-07-30T09:35:53.000Z</time>
      </trkpt>
      <trkpt lat="43.7138" lon="7.0388">
        <ele>559.20001220703</ele>
        <time>2023-07-30T09:35:54.000Z</time>
      </trkpt>
      <trkpt lat="43.71379" lon="7.03884">
        <ele>558.79998779297</ele>
        <time>2023-07-30T09:35:55.000Z</time>
      </trkpt>
      <trkpt lat="43.71378" lon="7.03888">
        <ele>558.79998779297</ele>
        <time>2023-07-30T09:35:56.000Z</time>
      </trkpt>
      <trkpt lat="43.71377" lon="7.03894">
        <ele>558.40002441406</ele>
        <time>2023-07-30T09:35:57.000Z</time>
      </trkpt>
      <trkpt lat="43.71375" lon="7.03899">
        <ele>558.40002441406</ele>
        <time>2023-07-30T09:35:58.000Z</time>
      </trkpt>
      <trkpt lat="43.71374" lon="7.03902">
        <ele>558.40002441406</ele>
        <time>2023-07-30T09:35:59.000Z</time>
      </trkpt>
      <trkpt lat="43.71372" lon="7.03905">
        <ele>558.79998779297</ele>
        <time>2023-07-30T09:36:00.000Z</time>
      </trkpt>
      <trkpt lat="43.7137" lon="7.03907">
        <ele>558.79998779297</ele>
        <time>2023-07-30T09:36:01.000Z</time>
      </trkpt>
      <trkpt lat="43.71367" lon="7.03909">
        <ele>558.79998779297</ele>
        <time>2023-07-30T09:36:02.000Z</time>
      </trkpt>
      <trkpt lat="43.71365" lon="7.03911">
        <ele>558.79998779297</ele>
        <time>2023-07-30T09:36:03.000Z</time>
      </trkpt>
      <trkpt lat="43.71363" lon="7.03915">
        <ele>558.79998779297</ele>
        <time>2023-07-30T09:36:04.000Z</time>
      </trkpt>
      <trkpt lat="43.71361" lon="7.03919">
        <ele>558.59997558594</ele>
        <time>2023-07-30T09:36:05.000Z</time>
      </trkpt>
      <trkpt lat="43.71359" lon="7.03923">
        <ele>558.40002441406</ele>
        <time>2023-07-30T09:36:06.000Z</time>
      </trkpt>
      <trkpt lat="43.71357" lon="7.03928">
        <ele>557.59997558594</ele>
        <time>2023-07-30T09:36:07.000Z</time>
      </trkpt>
      <trkpt lat="43.71356" lon="7.03934">
        <ele>556.79998779297</ele>
        <time>2023-07-30T09:36:08.000Z</time>
      </trkpt>
      <trkpt lat="43.71355" lon="7.0394">
        <ele>556</ele>
        <time>2023-07-30T09:36:09.000Z</time>
      </trkpt>
      <trkpt lat="43.71353" lon="7.03946">
        <ele>555.20001220703</ele>
        <time>2023-07-30T09:36:10.000Z</time>
      </trkpt>
      <trkpt lat="43.71352" lon="7.03951">
        <ele>554.79998779297</ele>
        <time>2023-07-30T09:36:11.000Z</time>
      </trkpt>
      <trkpt lat="43.71351" lon="7.03957">
        <ele>554.79998779297</ele>
        <time>2023-07-30T09:36:12.000Z</time>
      </trkpt>
      <trkpt lat="43.7135" lon="7.03961">
        <ele>554.20001220703</ele>
        <time>2023-07-30T09:36:13.000Z</time>
      </trkpt>
      <trkpt lat="43.7135" lon="7.03964">
        <ele>554.20001220703</ele>
        <time>2023-07-30T09:36:14.000Z</time>
      </trkpt>
      <trkpt lat="43.7135" lon="7.03964">
        <ele>554</ele>
        <time>2023-07-30T09:36:15.000Z</time>
      </trkpt>
      <trkpt lat="43.7135" lon="7.03964">
        <ele>554</ele>
        <time>2023-07-30T09:36:16.000Z</time>
      </trkpt>
      <trkpt lat="43.7135" lon="7.03964">
        <ele>554</ele>
        <time>2023-07-30T09:36:17.000Z</time>
      </trkpt>
      <trkpt lat="43.7135" lon="7.03964">
        <ele>553.79998779297</ele>
        <time>2023-07-30T09:36:18.000Z</time>
      </trkpt>
      <trkpt lat="43.7135" lon="7.03964">
        <ele>553.79998779297</ele>
        <time>2023-07-30T09:36:19.000Z</time>
      </trkpt>
      <trkpt lat="43.7135" lon="7.03964">
        <ele>553.79998779297</ele>
        <time>2023-07-30T09:36:20.000Z</time>
      </trkpt>
      <trkpt lat="43.7135" lon="7.03964">
        <ele>553.79998779297</ele>
        <time>2023-07-30T09:36:21.000Z</time>
      </trkpt>
      <trkpt lat="43.7135" lon="7.03964">
        <ele>553.79998779297</ele>
        <time>2023-07-30T09:36:22.000Z</time>
      </trkpt>
      <trkpt lat="43.7135" lon="7.03964">
        <ele>553.79998779297</ele>
        <time>2023-07-30T09:36:23.000Z</time>
      </trkpt>
      <trkpt lat="43.7135" lon="7.03964">
        <ele>553.79998779297</ele>
        <time>2023-07-30T09:36:24.000Z</time>
      </trkpt>
      <trkpt lat="43.7135" lon="7.03964">
        <ele>553.79998779297</ele>
        <time>2023-07-30T09:36:25.000Z</time>
      </trkpt>
      <trkpt lat="43.7135" lon="7.03964">
        <ele>553.79998779297</ele>
        <time>2023-07-30T09:36:26.000Z</time>
      </trkpt>
      <trkpt lat="43.7135" lon="7.03964">
        <ele>553.79998779297</ele>
        <time>2023-07-30T09:36:27.000Z</time>
      </trkpt>
      <trkpt lat="43.7135" lon="7.03964">
        <ele>553.79998779297</ele>
        <time>2023-07-30T09:36:28.000Z</time>
      </trkpt>
      <trkpt lat="43.7135" lon="7.03964">
        <ele>553.79998779297</ele>
        <time>2023-07-30T09:36:29.000Z</time>
      </trkpt>
      <trkpt lat="43.7135" lon="7.03964">
        <ele>553.79998779297</ele>
        <time>2023-07-30T09:36:30.000Z</time>
      </trkpt>
      <trkpt lat="43.7135" lon="7.03964">
        <ele>553.79998779297</ele>
        <time>2023-07-30T09:36:31.000Z</time>
      </trkpt>
      <trkpt lat="43.7135" lon="7.03964">
        <ele>553.79998779297</ele>
        <time>2023-07-30T09:36:32.000Z</time>
      </trkpt>
      <trkpt lat="43.7135" lon="7.03964">
        <ele>553.79998779297</ele>
        <time>2023-07-30T09:36:33.000Z</time>
      </trkpt>
      <trkpt lat="43.7135" lon="7.03964">
        <ele>553.79998779297</ele>
        <time>2023-07-30T09:36:34.000Z</time>
      </trkpt>
      <trkpt lat="43.7135" lon="7.03964">
        <ele>553.79998779297</ele>
        <time>2023-07-30T09:36:35.000Z</time>
      </trkpt>
      <trkpt lat="43.7135" lon="7.03964">
        <ele>553.79998779297</ele>
        <time>2023-07-30T09:36:36.000Z</time>
      </trkpt>
      <trkpt lat="43.7135" lon="7.03964">
        <ele>553.79998779297</ele>
        <time>2023-07-30T09:36:37.000Z</time>
      </trkpt>
      <trkpt lat="43.7135" lon="7.03964">
        <ele>553.79998779297</ele>
        <time>2023-07-30T09:36:38.000Z</time>
      </trkpt>
      <trkpt lat="43.7135" lon="7.03964">
        <ele>553.79998779297</ele>
        <time>2023-07-30T09:36:39.000Z</time>
      </trkpt>
      <trkpt lat="43.7135" lon="7.03964">
        <ele>553.79998779297</ele>
        <time>2023-07-30T09:36:40.000Z</time>
      </trkpt>
      <trkpt lat="43.7135" lon="7.03964">
        <ele>553.79998779297</ele>
        <time>2023-07-30T09:36:41.000Z</time>
      </trkpt>
      <trkpt lat="43.71349" lon="7.03963">
        <ele>553.79998779297</ele>
        <time>2023-07-30T09:36:42.000Z</time>
      </trkpt>
      <trkpt lat="43.71348" lon="7.03964">
        <ele>553.79998779297</ele>
        <time>2023-07-30T09:36:43.000Z</time>
      </trkpt>
      <trkpt lat="43.71348" lon="7.03966">
        <ele>553.79998779297</ele>
        <time>2023-07-30T09:36:44.000Z</time>
      </trkpt>
      <trkpt lat="43.71348" lon="7.03969">
        <ele>553.79998779297</ele>
        <time>2023-07-30T09:36:45.000Z</time>
      </trkpt>
      <trkpt lat="43.71347" lon="7.03972">
        <ele>553.79998779297</ele>
        <time>2023-07-30T09:36:46.000Z</time>
      </trkpt>
      <trkpt lat="43.71347" lon="7.03975">
        <ele>553.59997558594</ele>
        <time>2023-07-30T09:36:47.000Z</time>
      </trkpt>
      <trkpt lat="43.71346" lon="7.03979">
        <ele>553.59997558594</ele>
        <time>2023-07-30T09:36:48.000Z</time>
      </trkpt>
      <trkpt lat="43.71345" lon="7.03982">
        <ele>553.59997558594</ele>
        <time>2023-07-30T09:36:49.000Z</time>
      </trkpt>
      <trkpt lat="43.71345" lon="7.03986">
        <ele>553.59997558594</ele>
        <time>2023-07-30T09:36:50.000Z</time>
      </trkpt>
      <trkpt lat="43.71344" lon="7.0399">
        <ele>553.59997558594</ele>
        <time>2023-07-30T09:36:51.000Z</time>
      </trkpt>
      <trkpt lat="43.71343" lon="7.03994">
        <ele>553.59997558594</ele>
        <time>2023-07-30T09:36:52.000Z</time>
      </trkpt>
      <trkpt lat="43.71342" lon="7.03999">
        <ele>553.40002441406</ele>
        <time>2023-07-30T09:36:53.000Z</time>
      </trkpt>
      <trkpt lat="43.7134" lon="7.04004">
        <ele>553.20001220703</ele>
        <time>2023-07-30T09:36:54.000Z</time>
      </trkpt>
      <trkpt lat="43.71337" lon="7.04008">
        <ele>552.79998779297</ele>
        <time>2023-07-30T09:36:55.000Z</time>
      </trkpt>
      <trkpt lat="43.71335" lon="7.04013">
        <ele>552.79998779297</ele>
        <time>2023-07-30T09:36:56.000Z</time>
      </trkpt>
      <trkpt lat="43.71332" lon="7.04017">
        <ele>552.59997558594</ele>
        <time>2023-07-30T09:36:57.000Z</time>
      </trkpt>
      <trkpt lat="43.7133" lon="7.04021">
        <ele>552.20001220703</ele>
        <time>2023-07-30T09:36:58.000Z</time>
      </trkpt>
      <trkpt lat="43.71328" lon="7.04024">
        <ele>551.79998779297</ele>
        <time>2023-07-30T09:36:59.000Z</time>
      </trkpt>
      <trkpt lat="43.71327" lon="7.04027">
        <ele>551.40002441406</ele>
        <time>2023-07-30T09:37:00.000Z</time>
      </trkpt>
      <trkpt lat="43.71325" lon="7.04031">
        <ele>551</ele>
        <time>2023-07-30T09:37:01.000Z</time>
      </trkpt>
      <trkpt lat="43.71324" lon="7.04035">
        <ele>550.79998779297</ele>
        <time>2023-07-30T09:37:02.000Z</time>
      </trkpt>
      <trkpt lat="43.71322" lon="7.04039">
        <ele>550.40002441406</ele>
        <time>2023-07-30T09:37:03.000Z</time>
      </trkpt>
      <trkpt lat="43.7132" lon="7.04043">
        <ele>550.40002441406</ele>
        <time>2023-07-30T09:37:04.000Z</time>
      </trkpt>
      <trkpt lat="43.71318" lon="7.04048">
        <ele>549.79998779297</ele>
        <time>2023-07-30T09:37:05.000Z</time>
      </trkpt>
      <trkpt lat="43.71317" lon="7.04054">
        <ele>549.59997558594</ele>
        <time>2023-07-30T09:37:06.000Z</time>
      </trkpt>
      <trkpt lat="43.71315" lon="7.0406">
        <ele>549.40002441406</ele>
        <time>2023-07-30T09:37:07.000Z</time>
      </trkpt>
      <trkpt lat="43.71314" lon="7.04066">
        <ele>549.40002441406</ele>
        <time>2023-07-30T09:37:08.000Z</time>
      </trkpt>
      <trkpt lat="43.71313" lon="7.04071">
        <ele>549.20001220703</ele>
        <time>2023-07-30T09:37:09.000Z</time>
      </trkpt>
      <trkpt lat="43.71313" lon="7.04077">
        <ele>549</ele>
        <time>2023-07-30T09:37:10.000Z</time>
      </trkpt>
      <trkpt lat="43.71312" lon="7.04082">
        <ele>548.79998779297</ele>
        <time>2023-07-30T09:37:11.000Z</time>
      </trkpt>
      <trkpt lat="43.71312" lon="7.04087">
        <ele>548.59997558594</ele>
        <time>2023-07-30T09:37:12.000Z</time>
      </trkpt>
      <trkpt lat="43.71312" lon="7.0409">
        <ele>548.59997558594</ele>
        <time>2023-07-30T09:37:13.000Z</time>
      </trkpt>
      <trkpt lat="43.71311" lon="7.04094">
        <ele>548.59997558594</ele>
        <time>2023-07-30T09:37:14.000Z</time>
      </trkpt>
      <trkpt lat="43.7131" lon="7.04098">
        <ele>548.40002441406</ele>
        <time>2023-07-30T09:37:15.000Z</time>
      </trkpt>
      <trkpt lat="43.71308" lon="7.04102">
        <ele>548.40002441406</ele>
        <time>2023-07-30T09:37:16.000Z</time>
      </trkpt>
      <trkpt lat="43.71306" lon="7.04106">
        <ele>547.79998779297</ele>
        <time>2023-07-30T09:37:17.000Z</time>
      </trkpt>
      <trkpt lat="43.71305" lon="7.0411">
        <ele>547.40002441406</ele>
        <time>2023-07-30T09:37:18.000Z</time>
      </trkpt>
      <trkpt lat="43.71304" lon="7.04115">
        <ele>547.20001220703</ele>
        <time>2023-07-30T09:37:19.000Z</time>
      </trkpt>
      <trkpt lat="43.71303" lon="7.04119">
        <ele>546.40002441406</ele>
        <time>2023-07-30T09:37:20.000Z</time>
      </trkpt>
      <trkpt lat="43.71302" lon="7.04122">
        <ele>546</ele>
        <time>2023-07-30T09:37:21.000Z</time>
      </trkpt>
      <trkpt lat="43.71302" lon="7.04126">
        <ele>545.20001220703</ele>
        <time>2023-07-30T09:37:22.000Z</time>
      </trkpt>
      <trkpt lat="43.71301" lon="7.04129">
        <ele>544.79998779297</ele>
        <time>2023-07-30T09:37:23.000Z</time>
      </trkpt>
      <trkpt lat="43.713" lon="7.04132">
        <ele>544.40002441406</ele>
        <time>2023-07-30T09:37:24.000Z</time>
      </trkpt>
      <trkpt lat="43.713" lon="7.04136">
        <ele>544</ele>
        <time>2023-07-30T09:37:25.000Z</time>
      </trkpt>
      <trkpt lat="43.713" lon="7.04139">
        <ele>543.40002441406</ele>
        <time>2023-07-30T09:37:26.000Z</time>
      </trkpt>
      <trkpt lat="43.713" lon="7.04142">
        <ele>543</ele>
        <time>2023-07-30T09:37:27.000Z</time>
      </trkpt>
      <trkpt lat="43.713" lon="7.04145">
        <ele>542.79998779297</ele>
        <time>2023-07-30T09:37:28.000Z</time>
      </trkpt>
      <trkpt lat="43.71299" lon="7.04147">
        <ele>542</ele>
        <time>2023-07-30T09:37:29.000Z</time>
      </trkpt>
      <trkpt lat="43.71299" lon="7.0415">
        <ele>541.79998779297</ele>
        <time>2023-07-30T09:37:30.000Z</time>
      </trkpt>
      <trkpt lat="43.71298" lon="7.04153">
        <ele>541.40002441406</ele>
        <time>2023-07-30T09:37:31.000Z</time>
      </trkpt>
      <trkpt lat="43.71298" lon="7.04156">
        <ele>541.20001220703</ele>
        <time>2023-07-30T09:37:32.000Z</time>
      </trkpt>
      <trkpt lat="43.71298" lon="7.04161">
        <ele>540.79998779297</ele>
        <time>2023-07-30T09:37:33.000Z</time>
      </trkpt>
      <trkpt lat="43.71297" lon="7.04165">
        <ele>540.40002441406</ele>
        <time>2023-07-30T09:37:34.000Z</time>
      </trkpt>
      <trkpt lat="43.71295" lon="7.04169">
        <ele>539.79998779297</ele>
        <time>2023-07-30T09:37:35.000Z</time>
      </trkpt>
      <trkpt lat="43.71294" lon="7.04174">
        <ele>539.79998779297</ele>
        <time>2023-07-30T09:37:36.000Z</time>
      </trkpt>
      <trkpt lat="43.71294" lon="7.04177">
        <ele>539.40002441406</ele>
        <time>2023-07-30T09:37:37.000Z</time>
      </trkpt>
      <trkpt lat="43.71293" lon="7.0418">
        <ele>539.40002441406</ele>
        <time>2023-07-30T09:37:38.000Z</time>
      </trkpt>
      <trkpt lat="43.71292" lon="7.04183">
        <ele>538.59997558594</ele>
        <time>2023-07-30T09:37:39.000Z</time>
      </trkpt>
      <trkpt lat="43.7129" lon="7.04186">
        <ele>538.59997558594</ele>
        <time>2023-07-30T09:37:40.000Z</time>
      </trkpt>
      <trkpt lat="43.71289" lon="7.0419">
        <ele>538.20001220703</ele>
        <time>2023-07-30T09:37:41.000Z</time>
      </trkpt>
      <trkpt lat="43.71288" lon="7.04194">
        <ele>537.79998779297</ele>
        <time>2023-07-30T09:37:42.000Z</time>
      </trkpt>
      <trkpt lat="43.71288" lon="7.04197">
        <ele>537.59997558594</ele>
        <time>2023-07-30T09:37:43.000Z</time>
      </trkpt>
      <trkpt lat="43.71286" lon="7.04201">
        <ele>537.40002441406</ele>
        <time>2023-07-30T09:37:44.000Z</time>
      </trkpt>
      <trkpt lat="43.71284" lon="7.04204">
        <ele>537.20001220703</ele>
        <time>2023-07-30T09:37:45.000Z</time>
      </trkpt>
      <trkpt lat="43.71282" lon="7.04208">
        <ele>537</ele>
        <time>2023-07-30T09:37:46.000Z</time>
      </trkpt>
      <trkpt lat="43.71279" lon="7.04211">
        <ele>536.79998779297</ele>
        <time>2023-07-30T09:37:47.000Z</time>
      </trkpt>
      <trkpt lat="43.71278" lon="7.04215">
        <ele>536.40002441406</ele>
        <time>2023-07-30T09:37:48.000Z</time>
      </trkpt>
      <trkpt lat="43.71276" lon="7.04218">
        <ele>536</ele>
        <time>2023-07-30T09:37:49.000Z</time>
      </trkpt>
      <trkpt lat="43.71276" lon="7.04222">
        <ele>535.79998779297</ele>
        <time>2023-07-30T09:37:50.000Z</time>
      </trkpt>
      <trkpt lat="43.71275" lon="7.04226">
        <ele>535.59997558594</ele>
        <time>2023-07-30T09:37:51.000Z</time>
      </trkpt>
      <trkpt lat="43.71273" lon="7.0423">
        <ele>535.59997558594</ele>
        <time>2023-07-30T09:37:52.000Z</time>
      </trkpt>
      <trkpt lat="43.71272" lon="7.04233">
        <ele>535.59997558594</ele>
        <time>2023-07-30T09:37:53.000Z</time>
      </trkpt>
      <trkpt lat="43.71271" lon="7.04237">
        <ele>535.40002441406</ele>
        <time>2023-07-30T09:37:54.000Z</time>
      </trkpt>
      <trkpt lat="43.7127" lon="7.04241">
        <ele>535.40002441406</ele>
        <time>2023-07-30T09:37:55.000Z</time>
      </trkpt>
      <trkpt lat="43.71269" lon="7.04246">
        <ele>535.40002441406</ele>
        <time>2023-07-30T09:37:56.000Z</time>
      </trkpt>
      <trkpt lat="43.71268" lon="7.0425">
        <ele>535.40002441406</ele>
        <time>2023-07-30T09:37:57.000Z</time>
      </trkpt>
      <trkpt lat="43.71267" lon="7.04255">
        <ele>535.20001220703</ele>
        <time>2023-07-30T09:37:58.000Z</time>
      </trkpt>
      <trkpt lat="43.71266" lon="7.0426">
        <ele>535</ele>
        <time>2023-07-30T09:37:59.000Z</time>
      </trkpt>
      <trkpt lat="43.71265" lon="7.04264">
        <ele>535</ele>
        <time>2023-07-30T09:38:00.000Z</time>
      </trkpt>
      <trkpt lat="43.71265" lon="7.04269">
        <ele>535</ele>
        <time>2023-07-30T09:38:01.000Z</time>
      </trkpt>
      <trkpt lat="43.71265" lon="7.04274">
        <ele>535</ele>
        <time>2023-07-30T09:38:02.000Z</time>
      </trkpt>
      <trkpt lat="43.71264" lon="7.04279">
        <ele>534.79998779297</ele>
        <time>2023-07-30T09:38:03.000Z</time>
      </trkpt>
      <trkpt lat="43.71264" lon="7.04284">
        <ele>534.79998779297</ele>
        <time>2023-07-30T09:38:04.000Z</time>
      </trkpt>
      <trkpt lat="43.71264" lon="7.04289">
        <ele>534.79998779297</ele>
        <time>2023-07-30T09:38:05.000Z</time>
      </trkpt>
      <trkpt lat="43.71263" lon="7.04294">
        <ele>534.79998779297</ele>
        <time>2023-07-30T09:38:06.000Z</time>
      </trkpt>
      <trkpt lat="43.71263" lon="7.04299">
        <ele>535</ele>
        <time>2023-07-30T09:38:07.000Z</time>
      </trkpt>
      <trkpt lat="43.71263" lon="7.04304">
        <ele>534.79998779297</ele>
        <time>2023-07-30T09:38:08.000Z</time>
      </trkpt>
      <trkpt lat="43.71264" lon="7.04308">
        <ele>535</ele>
        <time>2023-07-30T09:38:09.000Z</time>
      </trkpt>
      <trkpt lat="43.71264" lon="7.04312">
        <ele>535</ele>
        <time>2023-07-30T09:38:10.000Z</time>
      </trkpt>
      <trkpt lat="43.71265" lon="7.04316">
        <ele>535</ele>
        <time>2023-07-30T09:38:11.000Z</time>
      </trkpt>
      <trkpt lat="43.71265" lon="7.0432">
        <ele>535.20001220703</ele>
        <time>2023-07-30T09:38:12.000Z</time>
      </trkpt>
      <trkpt lat="43.71265" lon="7.04323">
        <ele>535.20001220703</ele>
        <time>2023-07-30T09:38:13.000Z</time>
      </trkpt>
      <trkpt lat="43.71265" lon="7.04327">
        <ele>535.79998779297</ele>
        <time>2023-07-30T09:38:14.000Z</time>
      </trkpt>
      <trkpt lat="43.71264" lon="7.04331">
        <ele>536</ele>
        <time>2023-07-30T09:38:15.000Z</time>
      </trkpt>
      <trkpt lat="43.71264" lon="7.04334">
        <ele>536.20001220703</ele>
        <time>2023-07-30T09:38:16.000Z</time>
      </trkpt>
      <trkpt lat="43.71263" lon="7.04338">
        <ele>536.59997558594</ele>
        <time>2023-07-30T09:38:17.000Z</time>
      </trkpt>
      <trkpt lat="43.71262" lon="7.04341">
        <ele>536.59997558594</ele>
        <time>2023-07-30T09:38:18.000Z</time>
      </trkpt>
      <trkpt lat="43.71262" lon="7.04345">
        <ele>537</ele>
        <time>2023-07-30T09:38:19.000Z</time>
      </trkpt>
      <trkpt lat="43.71263" lon="7.04347">
        <ele>537</ele>
        <time>2023-07-30T09:38:20.000Z</time>
      </trkpt>
      <trkpt lat="43.71263" lon="7.04352">
        <ele>537</ele>
        <time>2023-07-30T09:38:21.000Z</time>
      </trkpt>
      <trkpt lat="43.71263" lon="7.04356">
        <ele>537</ele>
        <time>2023-07-30T09:38:22.000Z</time>
      </trkpt>
      <trkpt lat="43.71263" lon="7.04361">
        <ele>537</ele>
        <time>2023-07-30T09:38:23.000Z</time>
      </trkpt>
      <trkpt lat="43.71263" lon="7.04365">
        <ele>536.20001220703</ele>
        <time>2023-07-30T09:38:24.000Z</time>
      </trkpt>
      <trkpt lat="43.71264" lon="7.04368">
        <ele>535.79998779297</ele>
        <time>2023-07-30T09:38:25.000Z</time>
      </trkpt>
      <trkpt lat="43.71264" lon="7.04371">
        <ele>535.79998779297</ele>
        <time>2023-07-30T09:38:26.000Z</time>
      </trkpt>
      <trkpt lat="43.71264" lon="7.04374">
        <ele>535.79998779297</ele>
        <time>2023-07-30T09:38:27.000Z</time>
      </trkpt>
      <trkpt lat="43.71265" lon="7.04378">
        <ele>535.79998779297</ele>
        <time>2023-07-30T09:38:28.000Z</time>
      </trkpt>
      <trkpt lat="43.71264" lon="7.04382">
        <ele>535.59997558594</ele>
        <time>2023-07-30T09:38:29.000Z</time>
      </trkpt>
      <trkpt lat="43.71264" lon="7.04386">
        <ele>535.59997558594</ele>
        <time>2023-07-30T09:38:30.000Z</time>
      </trkpt>
      <trkpt lat="43.71264" lon="7.0439">
        <ele>535.59997558594</ele>
        <time>2023-07-30T09:38:31.000Z</time>
      </trkpt>
      <trkpt lat="43.71263" lon="7.04393">
        <ele>535.59997558594</ele>
        <time>2023-07-30T09:38:32.000Z</time>
      </trkpt>
      <trkpt lat="43.71263" lon="7.04397">
        <ele>535.20001220703</ele>
        <time>2023-07-30T09:38:33.000Z</time>
      </trkpt>
      <trkpt lat="43.71263" lon="7.04399">
        <ele>535.20001220703</ele>
        <time>2023-07-30T09:38:34.000Z</time>
      </trkpt>
      <trkpt lat="43.71264" lon="7.04401">
        <ele>535.20001220703</ele>
        <time>2023-07-30T09:38:35.000Z</time>
      </trkpt>
      <trkpt lat="43.71264" lon="7.04404">
        <ele>535.20001220703</ele>
        <time>2023-07-30T09:38:36.000Z</time>
      </trkpt>
      <trkpt lat="43.71264" lon="7.04406">
        <ele>535.20001220703</ele>
        <time>2023-07-30T09:38:37.000Z</time>
      </trkpt>
      <trkpt lat="43.71264" lon="7.04408">
        <ele>535.40002441406</ele>
        <time>2023-07-30T09:38:38.000Z</time>
      </trkpt>
      <trkpt lat="43.71264" lon="7.0441">
        <ele>535.40002441406</ele>
        <time>2023-07-30T09:38:39.000Z</time>
      </trkpt>
      <trkpt lat="43.71264" lon="7.04413">
        <ele>535.40002441406</ele>
        <time>2023-07-30T09:38:40.000Z</time>
      </trkpt>
      <trkpt lat="43.71265" lon="7.04416">
        <ele>535.40002441406</ele>
        <time>2023-07-30T09:38:41.000Z</time>
      </trkpt>
      <trkpt lat="43.71265" lon="7.0442">
        <ele>535.59997558594</ele>
        <time>2023-07-30T09:38:42.000Z</time>
      </trkpt>
      <trkpt lat="43.71266" lon="7.04424">
        <ele>535.59997558594</ele>
        <time>2023-07-30T09:38:43.000Z</time>
      </trkpt>
      <trkpt lat="43.71267" lon="7.04427">
        <ele>535.40002441406</ele>
        <time>2023-07-30T09:38:44.000Z</time>
      </trkpt>
      <trkpt lat="43.71269" lon="7.04431">
        <ele>535.40002441406</ele>
        <time>2023-07-30T09:38:45.000Z</time>
      </trkpt>
      <trkpt lat="43.71269" lon="7.04436">
        <ele>535.40002441406</ele>
        <time>2023-07-30T09:38:46.000Z</time>
      </trkpt>
      <trkpt lat="43.71271" lon="7.04441">
        <ele>535.20001220703</ele>
        <time>2023-07-30T09:38:47.000Z</time>
      </trkpt>
      <trkpt lat="43.71272" lon="7.04445">
        <ele>535.20001220703</ele>
        <time>2023-07-30T09:38:48.000Z</time>
      </trkpt>
      <trkpt lat="43.71274" lon="7.04449">
        <ele>535</ele>
        <time>2023-07-30T09:38:49.000Z</time>
      </trkpt>
      <trkpt lat="43.71276" lon="7.04452">
        <ele>534.79998779297</ele>
        <time>2023-07-30T09:38:50.000Z</time>
      </trkpt>
      <trkpt lat="43.71279" lon="7.04454">
        <ele>534.59997558594</ele>
        <time>2023-07-30T09:38:51.000Z</time>
      </trkpt>
      <trkpt lat="43.71281" lon="7.04456">
        <ele>534.40002441406</ele>
        <time>2023-07-30T09:38:52.000Z</time>
      </trkpt>
      <trkpt lat="43.71283" lon="7.04459">
        <ele>534.40002441406</ele>
        <time>2023-07-30T09:38:53.000Z</time>
      </trkpt>
      <trkpt lat="43.71286" lon="7.04461">
        <ele>534.40002441406</ele>
        <time>2023-07-30T09:38:54.000Z</time>
      </trkpt>
      <trkpt lat="43.71287" lon="7.04463">
        <ele>534.40002441406</ele>
        <time>2023-07-30T09:38:55.000Z</time>
      </trkpt>
      <trkpt lat="43.71289" lon="7.04466">
        <ele>534.40002441406</ele>
        <time>2023-07-30T09:38:56.000Z</time>
      </trkpt>
      <trkpt lat="43.71291" lon="7.04469">
        <ele>534.40002441406</ele>
        <time>2023-07-30T09:38:57.000Z</time>
      </trkpt>
      <trkpt lat="43.71292" lon="7.04473">
        <ele>534.40002441406</ele>
        <time>2023-07-30T09:38:58.000Z</time>
      </trkpt>
      <trkpt lat="43.71294" lon="7.04478">
        <ele>534.40002441406</ele>
        <time>2023-07-30T09:38:59.000Z</time>
      </trkpt>
      <trkpt lat="43.71295" lon="7.04483">
        <ele>534.40002441406</ele>
        <time>2023-07-30T09:39:00.000Z</time>
      </trkpt>
      <trkpt lat="43.71296" lon="7.04489">
        <ele>534.40002441406</ele>
        <time>2023-07-30T09:39:01.000Z</time>
      </trkpt>
      <trkpt lat="43.71297" lon="7.04494">
        <ele>534</ele>
        <time>2023-07-30T09:39:02.000Z</time>
      </trkpt>
      <trkpt lat="43.71298" lon="7.04499">
        <ele>533.59997558594</ele>
        <time>2023-07-30T09:39:03.000Z</time>
      </trkpt>
      <trkpt lat="43.71299" lon="7.04505">
        <ele>533.20001220703</ele>
        <time>2023-07-30T09:39:04.000Z</time>
      </trkpt>
      <trkpt lat="43.71301" lon="7.0451">
        <ele>532.59997558594</ele>
        <time>2023-07-30T09:39:05.000Z</time>
      </trkpt>
      <trkpt lat="43.71302" lon="7.04516">
        <ele>532.20001220703</ele>
        <time>2023-07-30T09:39:06.000Z</time>
      </trkpt>
      <trkpt lat="43.71304" lon="7.04523">
        <ele>531.40002441406</ele>
        <time>2023-07-30T09:39:07.000Z</time>
      </trkpt>
      <trkpt lat="43.71306" lon="7.0453">
        <ele>531</ele>
        <time>2023-07-30T09:39:08.000Z</time>
      </trkpt>
      <trkpt lat="43.71309" lon="7.04537">
        <ele>530.20001220703</ele>
        <time>2023-07-30T09:39:09.000Z</time>
      </trkpt>
      <trkpt lat="43.7131" lon="7.04544">
        <ele>529.40002441406</ele>
        <time>2023-07-30T09:39:10.000Z</time>
      </trkpt>
      <trkpt lat="43.71312" lon="7.0455">
        <ele>528.79998779297</ele>
        <time>2023-07-30T09:39:11.000Z</time>
      </trkpt>
      <trkpt lat="43.71314" lon="7.04555">
        <ele>528.40002441406</ele>
        <time>2023-07-30T09:39:12.000Z</time>
      </trkpt>
      <trkpt lat="43.71316" lon="7.0456">
        <ele>528.40002441406</ele>
        <time>2023-07-30T09:39:13.000Z</time>
      </trkpt>
      <trkpt lat="43.71319" lon="7.04565">
        <ele>528.20001220703</ele>
        <time>2023-07-30T09:39:14.000Z</time>
      </trkpt>
      <trkpt lat="43.71321" lon="7.04569">
        <ele>528.20001220703</ele>
        <time>2023-07-30T09:39:15.000Z</time>
      </trkpt>
      <trkpt lat="43.71323" lon="7.04574">
        <ele>528.20001220703</ele>
        <time>2023-07-30T09:39:16.000Z</time>
      </trkpt>
      <trkpt lat="43.71324" lon="7.04579">
        <ele>528.20001220703</ele>
        <time>2023-07-30T09:39:17.000Z</time>
      </trkpt>
      <trkpt lat="43.71325" lon="7.04584">
        <ele>528.20001220703</ele>
        <time>2023-07-30T09:39:18.000Z</time>
      </trkpt>
      <trkpt lat="43.71326" lon="7.04588">
        <ele>528.20001220703</ele>
        <time>2023-07-30T09:39:19.000Z</time>
      </trkpt>
      <trkpt lat="43.71327" lon="7.04592">
        <ele>528.20001220703</ele>
        <time>2023-07-30T09:39:20.000Z</time>
      </trkpt>
      <trkpt lat="43.71329" lon="7.04596">
        <ele>528.20001220703</ele>
        <time>2023-07-30T09:39:21.000Z</time>
      </trkpt>
      <trkpt lat="43.7133" lon="7.046">
        <ele>528.20001220703</ele>
        <time>2023-07-30T09:39:22.000Z</time>
      </trkpt>
      <trkpt lat="43.71332" lon="7.04604">
        <ele>528.20001220703</ele>
        <time>2023-07-30T09:39:23.000Z</time>
      </trkpt>
      <trkpt lat="43.71333" lon="7.04607">
        <ele>528.20001220703</ele>
        <time>2023-07-30T09:39:24.000Z</time>
      </trkpt>
      <trkpt lat="43.71333" lon="7.04611">
        <ele>528.20001220703</ele>
        <time>2023-07-30T09:39:25.000Z</time>
      </trkpt>
      <trkpt lat="43.71332" lon="7.04614">
        <ele>528.20001220703</ele>
        <time>2023-07-30T09:39:26.000Z</time>
      </trkpt>
      <trkpt lat="43.71332" lon="7.04617">
        <ele>528.20001220703</ele>
        <time>2023-07-30T09:39:27.000Z</time>
      </trkpt>
      <trkpt lat="43.71332" lon="7.04621">
        <ele>528.20001220703</ele>
        <time>2023-07-30T09:39:28.000Z</time>
      </trkpt>
      <trkpt lat="43.71332" lon="7.04623">
        <ele>528.20001220703</ele>
        <time>2023-07-30T09:39:29.000Z</time>
      </trkpt>
      <trkpt lat="43.71332" lon="7.04624">
        <ele>528.20001220703</ele>
        <time>2023-07-30T09:39:30.000Z</time>
      </trkpt>
      <trkpt lat="43.71332" lon="7.04624">
        <ele>528</ele>
        <time>2023-07-30T09:39:31.000Z</time>
      </trkpt>
      <trkpt lat="43.71332" lon="7.04624">
        <ele>528</ele>
        <time>2023-07-30T09:39:32.000Z</time>
      </trkpt>
      <trkpt lat="43.71332" lon="7.04624">
        <ele>528</ele>
        <time>2023-07-30T09:39:33.000Z</time>
      </trkpt>
      <trkpt lat="43.71332" lon="7.04624">
        <ele>528</ele>
        <time>2023-07-30T09:39:34.000Z</time>
      </trkpt>
      <trkpt lat="43.71332" lon="7.04624">
        <ele>528</ele>
        <time>2023-07-30T09:39:35.000Z</time>
      </trkpt>
      <trkpt lat="43.71332" lon="7.04624">
        <ele>528</ele>
        <time>2023-07-30T09:39:36.000Z</time>
      </trkpt>
      <trkpt lat="43.71332" lon="7.04624">
        <ele>528</ele>
        <time>2023-07-30T09:39:37.000Z</time>
      </trkpt>
      <trkpt lat="43.71332" lon="7.04624">
        <ele>528</ele>
        <time>2023-07-30T09:39:38.000Z</time>
      </trkpt>
      <trkpt lat="43.71332" lon="7.04624">
        <ele>528</ele>
        <time>2023-07-30T09:39:39.000Z</time>
      </trkpt>
      <trkpt lat="43.71332" lon="7.04624">
        <ele>527.79998779297</ele>
        <time>2023-07-30T09:39:40.000Z</time>
      </trkpt>
      <trkpt lat="43.71332" lon="7.04624">
        <ele>527.79998779297</ele>
        <time>2023-07-30T09:39:41.000Z</time>
      </trkpt>
      <trkpt lat="43.71332" lon="7.04624">
        <ele>527.40002441406</ele>
        <time>2023-07-30T09:39:42.000Z</time>
      </trkpt>
      <trkpt lat="43.71332" lon="7.04624">
        <ele>527.79998779297</ele>
        <time>2023-07-30T09:39:43.000Z</time>
      </trkpt>
      <trkpt lat="43.71332" lon="7.04624">
        <ele>527.79998779297</ele>
        <time>2023-07-30T09:39:44.000Z</time>
      </trkpt>
      <trkpt lat="43.71332" lon="7.04624">
        <ele>527.79998779297</ele>
        <time>2023-07-30T09:39:45.000Z</time>
      </trkpt>
      <trkpt lat="43.71332" lon="7.04624">
        <ele>527.59997558594</ele>
        <time>2023-07-30T09:39:46.000Z</time>
      </trkpt>
      <trkpt lat="43.71332" lon="7.04624">
        <ele>527.59997558594</ele>
        <time>2023-07-30T09:39:47.000Z</time>
      </trkpt>
      <trkpt lat="43.71332" lon="7.04624">
        <ele>528</ele>
        <time>2023-07-30T09:39:48.000Z</time>
      </trkpt>
      <trkpt lat="43.71332" lon="7.04624">
        <ele>528.20001220703</ele>
        <time>2023-07-30T09:39:49.000Z</time>
      </trkpt>
      <trkpt lat="43.71332" lon="7.04624">
        <ele>528.20001220703</ele>
        <time>2023-07-30T09:39:50.000Z</time>
      </trkpt>
      <trkpt lat="43.71332" lon="7.04624">
        <ele>528.20001220703</ele>
        <time>2023-07-30T09:39:51.000Z</time>
      </trkpt>
      <trkpt lat="43.71332" lon="7.04624">
        <ele>528.20001220703</ele>
        <time>2023-07-30T09:39:52.000Z</time>
      </trkpt>
      <trkpt lat="43.71332" lon="7.04624">
        <ele>528.20001220703</ele>
        <time>2023-07-30T09:39:53.000Z</time>
      </trkpt>
      <trkpt lat="43.71332" lon="7.04624">
        <ele>528.20001220703</ele>
        <time>2023-07-30T09:39:54.000Z</time>
      </trkpt>
      <trkpt lat="43.71332" lon="7.04624">
        <ele>528.20001220703</ele>
        <time>2023-07-30T09:39:55.000Z</time>
      </trkpt>
      <trkpt lat="43.71332" lon="7.04624">
        <ele>528.20001220703</ele>
        <time>2023-07-30T09:39:56.000Z</time>
      </trkpt>
      <trkpt lat="43.71332" lon="7.04624">
        <ele>528</ele>
        <time>2023-07-30T09:39:57.000Z</time>
      </trkpt>
      <trkpt lat="43.71332" lon="7.04623">
        <ele>527.79998779297</ele>
        <time>2023-07-30T09:39:58.000Z</time>
      </trkpt>
      <trkpt lat="43.71332" lon="7.04623">
        <ele>527.79998779297</ele>
        <time>2023-07-30T09:39:59.000Z</time>
      </trkpt>
      <trkpt lat="43.71332" lon="7.04623">
        <ele>527.59997558594</ele>
        <time>2023-07-30T09:40:00.000Z</time>
      </trkpt>
      <trkpt lat="43.71332" lon="7.04623">
        <ele>527.79998779297</ele>
        <time>2023-07-30T09:40:01.000Z</time>
      </trkpt>
      <trkpt lat="43.71332" lon="7.04623">
        <ele>527.79998779297</ele>
        <time>2023-07-30T09:40:02.000Z</time>
      </trkpt>
      <trkpt lat="43.71332" lon="7.04624">
        <ele>527.79998779297</ele>
        <time>2023-07-30T09:40:03.000Z</time>
      </trkpt>
      <trkpt lat="43.71332" lon="7.04624">
        <ele>528.20001220703</ele>
        <time>2023-07-30T09:40:04.000Z</time>
      </trkpt>
      <trkpt lat="43.71332" lon="7.04624">
        <ele>528.20001220703</ele>
        <time>2023-07-30T09:40:05.000Z</time>
      </trkpt>
      <trkpt lat="43.71332" lon="7.04624">
        <ele>528.20001220703</ele>
        <time>2023-07-30T09:40:06.000Z</time>
      </trkpt>
      <trkpt lat="43.71332" lon="7.04624">
        <ele>528.20001220703</ele>
        <time>2023-07-30T09:40:07.000Z</time>
      </trkpt>
      <trkpt lat="43.71332" lon="7.04624">
        <ele>528.20001220703</ele>
        <time>2023-07-30T09:40:08.000Z</time>
      </trkpt>
      <trkpt lat="43.71332" lon="7.04624">
        <ele>528</ele>
        <time>2023-07-30T09:40:09.000Z</time>
      </trkpt>
      <trkpt lat="43.71332" lon="7.04623">
        <ele>528</ele>
        <time>2023-07-30T09:40:10.000Z</time>
      </trkpt>
      <trkpt lat="43.71332" lon="7.04623">
        <ele>528</ele>
        <time>2023-07-30T09:40:11.000Z</time>
      </trkpt>
      <trkpt lat="43.71332" lon="7.04623">
        <ele>528</ele>
        <time>2023-07-30T09:40:12.000Z</time>
      </trkpt>
      <trkpt lat="43.71332" lon="7.04623">
        <ele>528</ele>
        <time>2023-07-30T09:40:13.000Z</time>
      </trkpt>
      <trkpt lat="43.71333" lon="7.04623">
        <ele>527.79998779297</ele>
        <time>2023-07-30T09:40:14.000Z</time>
      </trkpt>
      <trkpt lat="43.71333" lon="7.04623">
        <ele>527.79998779297</ele>
        <time>2023-07-30T09:40:15.000Z</time>
      </trkpt>
      <trkpt lat="43.71333" lon="7.04623">
        <ele>527.79998779297</ele>
        <time>2023-07-30T09:40:16.000Z</time>
      </trkpt>
      <trkpt lat="43.71333" lon="7.04623">
        <ele>527.79998779297</ele>
        <time>2023-07-30T09:40:17.000Z</time>
      </trkpt>
      <trkpt lat="43.71333" lon="7.04623">
        <ele>527.79998779297</ele>
        <time>2023-07-30T09:40:18.000Z</time>
      </trkpt>
      <trkpt lat="43.71333" lon="7.04624">
        <ele>527.79998779297</ele>
        <time>2023-07-30T09:40:19.000Z</time>
      </trkpt>
      <trkpt lat="43.71333" lon="7.04624">
        <ele>527.79998779297</ele>
        <time>2023-07-30T09:40:20.000Z</time>
      </trkpt>
      <trkpt lat="43.71334" lon="7.04624">
        <ele>527.79998779297</ele>
        <time>2023-07-30T09:40:21.000Z</time>
      </trkpt>
      <trkpt lat="43.71334" lon="7.04626">
        <ele>527.79998779297</ele>
        <time>2023-07-30T09:40:22.000Z</time>
      </trkpt>
      <trkpt lat="43.71335" lon="7.04629">
        <ele>527.79998779297</ele>
        <time>2023-07-30T09:40:23.000Z</time>
      </trkpt>
      <trkpt lat="43.71335" lon="7.04633">
        <ele>527.79998779297</ele>
        <time>2023-07-30T09:40:24.000Z</time>
      </trkpt>
      <trkpt lat="43.71335" lon="7.04638">
        <ele>527.79998779297</ele>
        <time>2023-07-30T09:40:25.000Z</time>
      </trkpt>
      <trkpt lat="43.71335" lon="7.04644">
        <ele>527.79998779297</ele>
        <time>2023-07-30T09:40:26.000Z</time>
      </trkpt>
      <trkpt lat="43.71336" lon="7.0465">
        <ele>527.59997558594</ele>
        <time>2023-07-30T09:40:27.000Z</time>
      </trkpt>
      <trkpt lat="43.71336" lon="7.04656">
        <ele>527</ele>
        <time>2023-07-30T09:40:28.000Z</time>
      </trkpt>
      <trkpt lat="43.71335" lon="7.04663">
        <ele>527</ele>
        <time>2023-07-30T09:40:29.000Z</time>
      </trkpt>
      <trkpt lat="43.71332" lon="7.04669">
        <ele>526.79998779297</ele>
        <time>2023-07-30T09:40:30.000Z</time>
      </trkpt>
      <trkpt lat="43.7133" lon="7.04674">
        <ele>526.59997558594</ele>
        <time>2023-07-30T09:40:31.000Z</time>
      </trkpt>
      <trkpt lat="43.7133" lon="7.0468">
        <ele>526.20001220703</ele>
        <time>2023-07-30T09:40:32.000Z</time>
      </trkpt>
      <trkpt lat="43.7133" lon="7.04685">
        <ele>526</ele>
        <time>2023-07-30T09:40:33.000Z</time>
      </trkpt>
      <trkpt lat="43.71332" lon="7.0469">
        <ele>526</ele>
        <time>2023-07-30T09:40:34.000Z</time>
      </trkpt>
      <trkpt lat="43.71335" lon="7.04696">
        <ele>525.79998779297</ele>
        <time>2023-07-30T09:40:35.000Z</time>
      </trkpt>
      <trkpt lat="43.71337" lon="7.04703">
        <ele>525.79998779297</ele>
        <time>2023-07-30T09:40:36.000Z</time>
      </trkpt>
      <trkpt lat="43.7134" lon="7.04709">
        <ele>525.40002441406</ele>
        <time>2023-07-30T09:40:37.000Z</time>
      </trkpt>
      <trkpt lat="43.71342" lon="7.04714">
        <ele>524.79998779297</ele>
        <time>2023-07-30T09:40:38.000Z</time>
      </trkpt>
      <trkpt lat="43.71344" lon="7.04718">
        <ele>524.20001220703</ele>
        <time>2023-07-30T09:40:39.000Z</time>
      </trkpt>
      <trkpt lat="43.71346" lon="7.04722">
        <ele>523.40002441406</ele>
        <time>2023-07-30T09:40:40.000Z</time>
      </trkpt>
      <trkpt lat="43.71346" lon="7.04727">
        <ele>523</ele>
        <time>2023-07-30T09:40:41.000Z</time>
      </trkpt>
      <trkpt lat="43.71344" lon="7.0473">
        <ele>522.40002441406</ele>
        <time>2023-07-30T09:40:42.000Z</time>
      </trkpt>
      <trkpt lat="43.71343" lon="7.04734">
        <ele>521.59997558594</ele>
        <time>2023-07-30T09:40:43.000Z</time>
      </trkpt>
      <trkpt lat="43.71342" lon="7.04737">
        <ele>521</ele>
        <time>2023-07-30T09:40:44.000Z</time>
      </trkpt>
      <trkpt lat="43.71341" lon="7.0474">
        <ele>520.59997558594</ele>
        <time>2023-07-30T09:40:45.000Z</time>
      </trkpt>
      <trkpt lat="43.71339" lon="7.04745">
        <ele>520.20001220703</ele>
        <time>2023-07-30T09:40:46.000Z</time>
      </trkpt>
      <trkpt lat="43.71338" lon="7.0475">
        <ele>519.79998779297</ele>
        <time>2023-07-30T09:40:47.000Z</time>
      </trkpt>
      <trkpt lat="43.71338" lon="7.04756">
        <ele>519.40002441406</ele>
        <time>2023-07-30T09:40:48.000Z</time>
      </trkpt>
      <trkpt lat="43.71337" lon="7.04763">
        <ele>518.59997558594</ele>
        <time>2023-07-30T09:40:49.000Z</time>
      </trkpt>
      <trkpt lat="43.71336" lon="7.04771">
        <ele>517.59997558594</ele>
        <time>2023-07-30T09:40:50.000Z</time>
      </trkpt>
      <trkpt lat="43.71335" lon="7.04779">
        <ele>517</ele>
        <time>2023-07-30T09:40:51.000Z</time>
      </trkpt>
      <trkpt lat="43.71337" lon="7.04786">
        <ele>517</ele>
        <time>2023-07-30T09:40:52.000Z</time>
      </trkpt>
      <trkpt lat="43.7134" lon="7.04793">
        <ele>515.79998779297</ele>
        <time>2023-07-30T09:40:53.000Z</time>
      </trkpt>
      <trkpt lat="43.71341" lon="7.04802">
        <ele>514.59997558594</ele>
        <time>2023-07-30T09:40:54.000Z</time>
      </trkpt>
      <trkpt lat="43.71342" lon="7.04813">
        <ele>513.79998779297</ele>
        <time>2023-07-30T09:40:55.000Z</time>
      </trkpt>
      <trkpt lat="43.71343" lon="7.04822">
        <ele>513.40002441406</ele>
        <time>2023-07-30T09:40:56.000Z</time>
      </trkpt>
      <trkpt lat="43.71345" lon="7.04831">
        <ele>512.59997558594</ele>
        <time>2023-07-30T09:40:57.000Z</time>
      </trkpt>
      <trkpt lat="43.71348" lon="7.04839">
        <ele>512</ele>
        <time>2023-07-30T09:40:58.000Z</time>
      </trkpt>
      <trkpt lat="43.71353" lon="7.04847">
        <ele>510.79998779297</ele>
        <time>2023-07-30T09:40:59.000Z</time>
      </trkpt>
      <trkpt lat="43.71358" lon="7.04856">
        <ele>510.20001220703</ele>
        <time>2023-07-30T09:41:00.000Z</time>
      </trkpt>
      <trkpt lat="43.71363" lon="7.04865">
        <ele>510</ele>
        <time>2023-07-30T09:41:01.000Z</time>
      </trkpt>
      <trkpt lat="43.71369" lon="7.04874">
        <ele>508.60000610352</ele>
        <time>2023-07-30T09:41:02.000Z</time>
      </trkpt>
      <trkpt lat="43.71374" lon="7.04882">
        <ele>508</ele>
        <time>2023-07-30T09:41:03.000Z</time>
      </trkpt>
      <trkpt lat="43.7138" lon="7.04891">
        <ele>507.20001220703</ele>
        <time>2023-07-30T09:41:04.000Z</time>
      </trkpt>
      <trkpt lat="43.71386" lon="7.04898">
        <ele>506.20001220703</ele>
        <time>2023-07-30T09:41:05.000Z</time>
      </trkpt>
      <trkpt lat="43.71393" lon="7.04907">
        <ele>505.39999389648</ele>
        <time>2023-07-30T09:41:06.000Z</time>
      </trkpt>
      <trkpt lat="43.71401" lon="7.04913">
        <ele>504</ele>
        <time>2023-07-30T09:41:07.000Z</time>
      </trkpt>
      <trkpt lat="43.71409" lon="7.04919">
        <ele>503.39999389648</ele>
        <time>2023-07-30T09:41:08.000Z</time>
      </trkpt>
      <trkpt lat="43.71417" lon="7.04926">
        <ele>502.39999389648</ele>
        <time>2023-07-30T09:41:09.000Z</time>
      </trkpt>
      <trkpt lat="43.71424" lon="7.04934">
        <ele>501.39999389648</ele>
        <time>2023-07-30T09:41:10.000Z</time>
      </trkpt>
      <trkpt lat="43.71431" lon="7.04942">
        <ele>500.39999389648</ele>
        <time>2023-07-30T09:41:11.000Z</time>
      </trkpt>
      <trkpt lat="43.71437" lon="7.04953">
        <ele>499.39999389648</ele>
        <time>2023-07-30T09:41:12.000Z</time>
      </trkpt>
      <trkpt lat="43.71441" lon="7.04964">
        <ele>498.39999389648</ele>
        <time>2023-07-30T09:41:13.000Z</time>
      </trkpt>
      <trkpt lat="43.71446" lon="7.04974">
        <ele>497.60000610352</ele>
        <time>2023-07-30T09:41:14.000Z</time>
      </trkpt>
      <trkpt lat="43.7145" lon="7.04983">
        <ele>496.60000610352</ele>
        <time>2023-07-30T09:41:15.000Z</time>
      </trkpt>
      <trkpt lat="43.71454" lon="7.04992">
        <ele>495.60000610352</ele>
        <time>2023-07-30T09:41:16.000Z</time>
      </trkpt>
      <trkpt lat="43.71458" lon="7.05">
        <ele>495</ele>
        <time>2023-07-30T09:41:17.000Z</time>
      </trkpt>
      <trkpt lat="43.71462" lon="7.05007">
        <ele>494.60000610352</ele>
        <time>2023-07-30T09:41:18.000Z</time>
      </trkpt>
      <trkpt lat="43.71464" lon="7.05013">
        <ele>493.79998779297</ele>
        <time>2023-07-30T09:41:19.000Z</time>
      </trkpt>
      <trkpt lat="43.71467" lon="7.05017">
        <ele>493.79998779297</ele>
        <time>2023-07-30T09:41:20.000Z</time>
      </trkpt>
      <trkpt lat="43.71469" lon="7.05021">
        <ele>492.79998779297</ele>
        <time>2023-07-30T09:41:21.000Z</time>
      </trkpt>
      <trkpt lat="43.7147" lon="7.05023">
        <ele>492.60000610352</ele>
        <time>2023-07-30T09:41:22.000Z</time>
      </trkpt>
      <trkpt lat="43.71471" lon="7.05024">
        <ele>492</ele>
        <time>2023-07-30T09:41:23.000Z</time>
      </trkpt>
      <trkpt lat="43.71471" lon="7.05024">
        <ele>491.60000610352</ele>
        <time>2023-07-30T09:41:24.000Z</time>
      </trkpt>
      <trkpt lat="43.71472" lon="7.05024">
        <ele>491.20001220703</ele>
        <time>2023-07-30T09:41:25.000Z</time>
      </trkpt>
      <trkpt lat="43.71471" lon="7.05024">
        <ele>490.79998779297</ele>
        <time>2023-07-30T09:41:26.000Z</time>
      </trkpt>
      <trkpt lat="43.71471" lon="7.05024">
        <ele>490.60000610352</ele>
        <time>2023-07-30T09:41:27.000Z</time>
      </trkpt>
      <trkpt lat="43.71471" lon="7.05024">
        <ele>490.20001220703</ele>
        <time>2023-07-30T09:41:28.000Z</time>
      </trkpt>
      <trkpt lat="43.71471" lon="7.05024">
        <ele>490.20001220703</ele>
        <time>2023-07-30T09:41:29.000Z</time>
      </trkpt>
      <trkpt lat="43.71471" lon="7.05024">
        <ele>490.20001220703</ele>
        <time>2023-07-30T09:41:30.000Z</time>
      </trkpt>
      <trkpt lat="43.71471" lon="7.05024">
        <ele>490.20001220703</ele>
        <time>2023-07-30T09:41:31.000Z</time>
      </trkpt>
      <trkpt lat="43.71471" lon="7.05024">
        <ele>490</ele>
        <time>2023-07-30T09:41:32.000Z</time>
      </trkpt>
      <trkpt lat="43.71471" lon="7.05024">
        <ele>490</ele>
        <time>2023-07-30T09:41:33.000Z</time>
      </trkpt>
      <trkpt lat="43.71471" lon="7.05024">
        <ele>489.79998779297</ele>
        <time>2023-07-30T09:41:34.000Z</time>
      </trkpt>
      <trkpt lat="43.71471" lon="7.05024">
        <ele>489.79998779297</ele>
        <time>2023-07-30T09:41:35.000Z</time>
      </trkpt>
      <trkpt lat="43.71471" lon="7.05024">
        <ele>489.79998779297</ele>
        <time>2023-07-30T09:41:36.000Z</time>
      </trkpt>
      <trkpt lat="43.71471" lon="7.05024">
        <ele>489.79998779297</ele>
        <time>2023-07-30T09:41:37.000Z</time>
      </trkpt>
      <trkpt lat="43.71471" lon="7.05024">
        <ele>489.79998779297</ele>
        <time>2023-07-30T09:41:38.000Z</time>
      </trkpt>
      <trkpt lat="43.7147" lon="7.05026">
        <ele>489.79998779297</ele>
        <time>2023-07-30T09:41:39.000Z</time>
      </trkpt>
      <trkpt lat="43.71469" lon="7.05029">
        <ele>489.79998779297</ele>
        <time>2023-07-30T09:41:40.000Z</time>
      </trkpt>
      <trkpt lat="43.71467" lon="7.05033">
        <ele>489.79998779297</ele>
        <time>2023-07-30T09:41:41.000Z</time>
      </trkpt>
      <trkpt lat="43.71464" lon="7.05039">
        <ele>489.79998779297</ele>
        <time>2023-07-30T09:41:42.000Z</time>
      </trkpt>
      <trkpt lat="43.71463" lon="7.05046">
        <ele>489.79998779297</ele>
        <time>2023-07-30T09:41:43.000Z</time>
      </trkpt>
      <trkpt lat="43.71461" lon="7.05052">
        <ele>489.39999389648</ele>
        <time>2023-07-30T09:41:44.000Z</time>
      </trkpt>
      <trkpt lat="43.7146" lon="7.05059">
        <ele>488.79998779297</ele>
        <time>2023-07-30T09:41:45.000Z</time>
      </trkpt>
      <trkpt lat="43.71459" lon="7.05066">
        <ele>488.39999389648</ele>
        <time>2023-07-30T09:41:46.000Z</time>
      </trkpt>
      <trkpt lat="43.71462" lon="7.05073">
        <ele>487.60000610352</ele>
        <time>2023-07-30T09:41:47.000Z</time>
      </trkpt>
      <trkpt lat="43.71466" lon="7.0508">
        <ele>487.60000610352</ele>
        <time>2023-07-30T09:41:48.000Z</time>
      </trkpt>
      <trkpt lat="43.71471" lon="7.05086">
        <ele>486.79998779297</ele>
        <time>2023-07-30T09:41:49.000Z</time>
      </trkpt>
      <trkpt lat="43.71476" lon="7.05093">
        <ele>486.39999389648</ele>
        <time>2023-07-30T09:41:50.000Z</time>
      </trkpt>
      <trkpt lat="43.71482" lon="7.051">
        <ele>486</ele>
        <time>2023-07-30T09:41:51.000Z</time>
      </trkpt>
      <trkpt lat="43.71488" lon="7.05107">
        <ele>485.60000610352</ele>
        <time>2023-07-30T09:41:52.000Z</time>
      </trkpt>
      <trkpt lat="43.71494" lon="7.05113">
        <ele>484.79998779297</ele>
        <time>2023-07-30T09:41:53.000Z</time>
      </trkpt>
      <trkpt lat="43.715" lon="7.05121">
        <ele>483.79998779297</ele>
        <time>2023-07-30T09:41:54.000Z</time>
      </trkpt>
      <trkpt lat="43.71506" lon="7.05127">
        <ele>483.20001220703</ele>
        <time>2023-07-30T09:41:55.000Z</time>
      </trkpt>
      <trkpt lat="43.71511" lon="7.05133">
        <ele>482</ele>
        <time>2023-07-30T09:41:56.000Z</time>
      </trkpt>
      <trkpt lat="43.71515" lon="7.0514">
        <ele>481</ele>
        <time>2023-07-30T09:41:57.000Z</time>
      </trkpt>
      <trkpt lat="43.71516" lon="7.05146">
        <ele>480.39999389648</ele>
        <time>2023-07-30T09:41:58.000Z</time>
      </trkpt>
      <trkpt lat="43.71516" lon="7.05155">
        <ele>479.39999389648</ele>
        <time>2023-07-30T09:41:59.000Z</time>
      </trkpt>
      <trkpt lat="43.71516" lon="7.05165">
        <ele>478.60000610352</ele>
        <time>2023-07-30T09:42:00.000Z</time>
      </trkpt>
      <trkpt lat="43.71516" lon="7.05176">
        <ele>477.60000610352</ele>
        <time>2023-07-30T09:42:01.000Z</time>
      </trkpt>
      <trkpt lat="43.71518" lon="7.05188">
        <ele>476.39999389648</ele>
        <time>2023-07-30T09:42:02.000Z</time>
      </trkpt>
      <trkpt lat="43.7152" lon="7.052">
        <ele>475.79998779297</ele>
        <time>2023-07-30T09:42:03.000Z</time>
      </trkpt>
      <trkpt lat="43.71524" lon="7.05211">
        <ele>475</ele>
        <time>2023-07-30T09:42:04.000Z</time>
      </trkpt>
      <trkpt lat="43.71529" lon="7.05221">
        <ele>473.79998779297</ele>
        <time>2023-07-30T09:42:05.000Z</time>
      </trkpt>
      <trkpt lat="43.71535" lon="7.05229">
        <ele>472.60000610352</ele>
        <time>2023-07-30T09:42:06.000Z</time>
      </trkpt>
      <trkpt lat="43.71542" lon="7.05236">
        <ele>471.60000610352</ele>
        <time>2023-07-30T09:42:07.000Z</time>
      </trkpt>
      <trkpt lat="43.7155" lon="7.05242">
        <ele>470.60000610352</ele>
        <time>2023-07-30T09:42:08.000Z</time>
      </trkpt>
      <trkpt lat="43.71556" lon="7.0525">
        <ele>469.79998779297</ele>
        <time>2023-07-30T09:42:09.000Z</time>
      </trkpt>
      <trkpt lat="43.71563" lon="7.05258">
        <ele>468.79998779297</ele>
        <time>2023-07-30T09:42:10.000Z</time>
      </trkpt>
      <trkpt lat="43.71568" lon="7.05269">
        <ele>468</ele>
        <time>2023-07-30T09:42:11.000Z</time>
      </trkpt>
      <trkpt lat="43.71573" lon="7.0528">
        <ele>467.79998779297</ele>
        <time>2023-07-30T09:42:12.000Z</time>
      </trkpt>
      <trkpt lat="43.7158" lon="7.05289">
        <ele>467.20001220703</ele>
        <time>2023-07-30T09:42:13.000Z</time>
      </trkpt>
      <trkpt lat="43.71588" lon="7.05297">
        <ele>465.79998779297</ele>
        <time>2023-07-30T09:42:14.000Z</time>
      </trkpt>
      <trkpt lat="43.71594" lon="7.05302">
        <ele>464.39999389648</ele>
        <time>2023-07-30T09:42:15.000Z</time>
      </trkpt>
      <trkpt lat="43.71596" lon="7.05306">
        <ele>464.39999389648</ele>
        <time>2023-07-30T09:42:16.000Z</time>
      </trkpt>
      <trkpt lat="43.71597" lon="7.05309">
        <ele>463</ele>
        <time>2023-07-30T09:42:17.000Z</time>
      </trkpt>
      <trkpt lat="43.71597" lon="7.05311">
        <ele>461.79998779297</ele>
        <time>2023-07-30T09:42:18.000Z</time>
      </trkpt>
      <trkpt lat="43.71596" lon="7.05315">
        <ele>460.60000610352</ele>
        <time>2023-07-30T09:42:19.000Z</time>
      </trkpt>
      <trkpt lat="43.71596" lon="7.05319">
        <ele>459.79998779297</ele>
        <time>2023-07-30T09:42:20.000Z</time>
      </trkpt>
      <trkpt lat="43.71595" lon="7.05324">
        <ele>459.60000610352</ele>
        <time>2023-07-30T09:42:21.000Z</time>
      </trkpt>
      <trkpt lat="43.71595" lon="7.05329">
        <ele>459</ele>
        <time>2023-07-30T09:42:22.000Z</time>
      </trkpt>
      <trkpt lat="43.71596" lon="7.05334">
        <ele>458.39999389648</ele>
        <time>2023-07-30T09:42:23.000Z</time>
      </trkpt>
      <trkpt lat="43.71597" lon="7.05338">
        <ele>457</ele>
        <time>2023-07-30T09:42:24.000Z</time>
      </trkpt>
      <trkpt lat="43.71598" lon="7.05341">
        <ele>456.20001220703</ele>
        <time>2023-07-30T09:42:25.000Z</time>
      </trkpt>
      <trkpt lat="43.71599" lon="7.05342">
        <ele>454.79998779297</ele>
        <time>2023-07-30T09:42:26.000Z</time>
      </trkpt>
      <trkpt lat="43.716" lon="7.05342">
        <ele>454</ele>
        <time>2023-07-30T09:42:27.000Z</time>
      </trkpt>
      <trkpt lat="43.71599" lon="7.05343">
        <ele>453</ele>
        <time>2023-07-30T09:42:28.000Z</time>
      </trkpt>
      <trkpt lat="43.71599" lon="7.05342">
        <ele>452.79998779297</ele>
        <time>2023-07-30T09:42:29.000Z</time>
      </trkpt>
      <trkpt lat="43.71599" lon="7.05342">
        <ele>452.39999389648</ele>
        <time>2023-07-30T09:42:30.000Z</time>
      </trkpt>
      <trkpt lat="43.71599" lon="7.05342">
        <ele>452.20001220703</ele>
        <time>2023-07-30T09:42:31.000Z</time>
      </trkpt>
      <trkpt lat="43.71599" lon="7.05342">
        <ele>452</ele>
        <time>2023-07-30T09:42:32.000Z</time>
      </trkpt>
      <trkpt lat="43.71599" lon="7.05342">
        <ele>452</ele>
        <time>2023-07-30T09:42:33.000Z</time>
      </trkpt>
      <trkpt lat="43.71599" lon="7.05342">
        <ele>452</ele>
        <time>2023-07-30T09:42:34.000Z</time>
      </trkpt>
      <trkpt lat="43.71599" lon="7.05342">
        <ele>452</ele>
        <time>2023-07-30T09:42:35.000Z</time>
      </trkpt>
      <trkpt lat="43.71599" lon="7.05342">
        <ele>452</ele>
        <time>2023-07-30T09:42:36.000Z</time>
      </trkpt>
      <trkpt lat="43.71599" lon="7.05342">
        <ele>451.79998779297</ele>
        <time>2023-07-30T09:42:37.000Z</time>
      </trkpt>
      <trkpt lat="43.71599" lon="7.05343">
        <ele>451.79998779297</ele>
        <time>2023-07-30T09:42:38.000Z</time>
      </trkpt>
      <trkpt lat="43.71601" lon="7.05344">
        <ele>451.79998779297</ele>
        <time>2023-07-30T09:42:39.000Z</time>
      </trkpt>
      <trkpt lat="43.71601" lon="7.05345">
        <ele>451.79998779297</ele>
        <time>2023-07-30T09:42:40.000Z</time>
      </trkpt>
      <trkpt lat="43.71603" lon="7.05347">
        <ele>451.79998779297</ele>
        <time>2023-07-30T09:42:41.000Z</time>
      </trkpt>
      <trkpt lat="43.71604" lon="7.0535">
        <ele>451.79998779297</ele>
        <time>2023-07-30T09:42:42.000Z</time>
      </trkpt>
      <trkpt lat="43.71607" lon="7.0535">
        <ele>451.60000610352</ele>
        <time>2023-07-30T09:42:43.000Z</time>
      </trkpt>
      <trkpt lat="43.7161" lon="7.05352">
        <ele>451.60000610352</ele>
        <time>2023-07-30T09:42:44.000Z</time>
      </trkpt>
      <trkpt lat="43.71613" lon="7.05355">
        <ele>451.60000610352</ele>
        <time>2023-07-30T09:42:45.000Z</time>
      </trkpt>
      <trkpt lat="43.71616" lon="7.05357">
        <ele>451.39999389648</ele>
        <time>2023-07-30T09:42:46.000Z</time>
      </trkpt>
      <trkpt lat="43.7162" lon="7.05358">
        <ele>451.39999389648</ele>
        <time>2023-07-30T09:42:47.000Z</time>
      </trkpt>
      <trkpt lat="43.71624" lon="7.0536">
        <ele>451.20001220703</ele>
        <time>2023-07-30T09:42:48.000Z</time>
      </trkpt>
      <trkpt lat="43.71628" lon="7.05361">
        <ele>451</ele>
        <time>2023-07-30T09:42:49.000Z</time>
      </trkpt>
      <trkpt lat="43.71632" lon="7.05363">
        <ele>451</ele>
        <time>2023-07-30T09:42:50.000Z</time>
      </trkpt>
      <trkpt lat="43.71636" lon="7.05364">
        <ele>450.60000610352</ele>
        <time>2023-07-30T09:42:51.000Z</time>
      </trkpt>
      <trkpt lat="43.7164" lon="7.05365">
        <ele>450.39999389648</ele>
        <time>2023-07-30T09:42:52.000Z</time>
      </trkpt>
      <trkpt lat="43.71644" lon="7.05365">
        <ele>450</ele>
        <time>2023-07-30T09:42:53.000Z</time>
      </trkpt>
      <trkpt lat="43.71646" lon="7.05366">
        <ele>449.79998779297</ele>
        <time>2023-07-30T09:42:54.000Z</time>
      </trkpt>
      <trkpt lat="43.71648" lon="7.05367">
        <ele>449.60000610352</ele>
        <time>2023-07-30T09:42:55.000Z</time>
      </trkpt>
      <trkpt lat="43.7165" lon="7.05369">
        <ele>449.60000610352</ele>
        <time>2023-07-30T09:42:56.000Z</time>
      </trkpt>
      <trkpt lat="43.71654" lon="7.05371">
        <ele>449.39999389648</ele>
        <time>2023-07-30T09:42:57.000Z</time>
      </trkpt>
      <trkpt lat="43.71658" lon="7.05374">
        <ele>449.39999389648</ele>
        <time>2023-07-30T09:42:58.000Z</time>
      </trkpt>
      <trkpt lat="43.71663" lon="7.05375">
        <ele>449.20001220703</ele>
        <time>2023-07-30T09:42:59.000Z</time>
      </trkpt>
      <trkpt lat="43.71667" lon="7.05376">
        <ele>448.60000610352</ele>
        <time>2023-07-30T09:43:00.000Z</time>
      </trkpt>
      <trkpt lat="43.71672" lon="7.05378">
        <ele>448.39999389648</ele>
        <time>2023-07-30T09:43:01.000Z</time>
      </trkpt>
      <trkpt lat="43.71677" lon="7.05378">
        <ele>448.20001220703</ele>
        <time>2023-07-30T09:43:02.000Z</time>
      </trkpt>
      <trkpt lat="43.71681" lon="7.0538">
        <ele>447.79998779297</ele>
        <time>2023-07-30T09:43:03.000Z</time>
      </trkpt>
      <trkpt lat="43.71685" lon="7.05381">
        <ele>447.60000610352</ele>
        <time>2023-07-30T09:43:04.000Z</time>
      </trkpt>
      <trkpt lat="43.71689" lon="7.05383">
        <ele>447.20001220703</ele>
        <time>2023-07-30T09:43:05.000Z</time>
      </trkpt>
      <trkpt lat="43.71694" lon="7.05383">
        <ele>447</ele>
        <time>2023-07-30T09:43:06.000Z</time>
      </trkpt>
      <trkpt lat="43.71699" lon="7.05384">
        <ele>446.79998779297</ele>
        <time>2023-07-30T09:43:07.000Z</time>
      </trkpt>
      <trkpt lat="43.71704" lon="7.05386">
        <ele>446.60000610352</ele>
        <time>2023-07-30T09:43:08.000Z</time>
      </trkpt>
      <trkpt lat="43.71709" lon="7.05387">
        <ele>446</ele>
        <time>2023-07-30T09:43:09.000Z</time>
      </trkpt>
      <trkpt lat="43.71715" lon="7.05388">
        <ele>445.60000610352</ele>
        <time>2023-07-30T09:43:10.000Z</time>
      </trkpt>
      <trkpt lat="43.71722" lon="7.05388">
        <ele>445.20001220703</ele>
        <time>2023-07-30T09:43:11.000Z</time>
      </trkpt>
      <trkpt lat="43.71728" lon="7.05389">
        <ele>445.20001220703</ele>
        <time>2023-07-30T09:43:12.000Z</time>
      </trkpt>
      <trkpt lat="43.71734" lon="7.0539">
        <ele>444.79998779297</ele>
        <time>2023-07-30T09:43:13.000Z</time>
      </trkpt>
      <trkpt lat="43.71741" lon="7.05391">
        <ele>444.39999389648</ele>
        <time>2023-07-30T09:43:14.000Z</time>
      </trkpt>
      <trkpt lat="43.71748" lon="7.05393">
        <ele>443.79998779297</ele>
        <time>2023-07-30T09:43:15.000Z</time>
      </trkpt>
      <trkpt lat="43.71756" lon="7.05395">
        <ele>443.39999389648</ele>
        <time>2023-07-30T09:43:16.000Z</time>
      </trkpt>
      <trkpt lat="43.71764" lon="7.05396">
        <ele>443</ele>
        <time>2023-07-30T09:43:17.000Z</time>
      </trkpt>
      <trkpt lat="43.71771" lon="7.05397">
        <ele>442.60000610352</ele>
        <time>2023-07-30T09:43:18.000Z</time>
      </trkpt>
      <trkpt lat="43.71778" lon="7.05398">
        <ele>442</ele>
        <time>2023-07-30T09:43:19.000Z</time>
      </trkpt>
      <trkpt lat="43.71784" lon="7.05399">
        <ele>441.39999389648</ele>
        <time>2023-07-30T09:43:20.000Z</time>
      </trkpt>
      <trkpt lat="43.71788" lon="7.05401">
        <ele>440.79998779297</ele>
        <time>2023-07-30T09:43:21.000Z</time>
      </trkpt>
      <trkpt lat="43.71793" lon="7.05403">
        <ele>440</ele>
        <time>2023-07-30T09:43:22.000Z</time>
      </trkpt>
      <trkpt lat="43.71798" lon="7.05404">
        <ele>439.39999389648</ele>
        <time>2023-07-30T09:43:23.000Z</time>
      </trkpt>
      <trkpt lat="43.71803" lon="7.05406">
        <ele>438.79998779297</ele>
        <time>2023-07-30T09:43:24.000Z</time>
      </trkpt>
      <trkpt lat="43.7181" lon="7.05407">
        <ele>438</ele>
        <time>2023-07-30T09:43:25.000Z</time>
      </trkpt>
      <trkpt lat="43.71817" lon="7.05409">
        <ele>437.60000610352</ele>
        <time>2023-07-30T09:43:26.000Z</time>
      </trkpt>
      <trkpt lat="43.71824" lon="7.0541">
        <ele>437.20001220703</ele>
        <time>2023-07-30T09:43:27.000Z</time>
      </trkpt>
      <trkpt lat="43.71831" lon="7.0541">
        <ele>436.60000610352</ele>
        <time>2023-07-30T09:43:28.000Z</time>
      </trkpt>
      <trkpt lat="43.71837" lon="7.05412">
        <ele>435.79998779297</ele>
        <time>2023-07-30T09:43:29.000Z</time>
      </trkpt>
      <trkpt lat="43.71842" lon="7.05417">
        <ele>435</ele>
        <time>2023-07-30T09:43:30.000Z</time>
      </trkpt>
      <trkpt lat="43.71846" lon="7.05424">
        <ele>434</ele>
        <time>2023-07-30T09:43:31.000Z</time>
      </trkpt>
      <trkpt lat="43.71846" lon="7.0543">
        <ele>433.20001220703</ele>
        <time>2023-07-30T09:43:32.000Z</time>
      </trkpt>
      <trkpt lat="43.71843" lon="7.05438">
        <ele>432.60000610352</ele>
        <time>2023-07-30T09:43:33.000Z</time>
      </trkpt>
      <trkpt lat="43.71838" lon="7.05443">
        <ele>431.60000610352</ele>
        <time>2023-07-30T09:43:34.000Z</time>
      </trkpt>
      <trkpt lat="43.71832" lon="7.05448">
        <ele>431.20001220703</ele>
        <time>2023-07-30T09:43:35.000Z</time>
      </trkpt>
      <trkpt lat="43.71826" lon="7.05455">
        <ele>430.20001220703</ele>
        <time>2023-07-30T09:43:36.000Z</time>
      </trkpt>
      <trkpt lat="43.7182" lon="7.05461">
        <ele>429.79998779297</ele>
        <time>2023-07-30T09:43:37.000Z</time>
      </trkpt>
      <trkpt lat="43.71814" lon="7.05468">
        <ele>429</ele>
        <time>2023-07-30T09:43:38.000Z</time>
      </trkpt>
      <trkpt lat="43.71809" lon="7.05475">
        <ele>428.60000610352</ele>
        <time>2023-07-30T09:43:39.000Z</time>
      </trkpt>
      <trkpt lat="43.71807" lon="7.05484">
        <ele>428.60000610352</ele>
        <time>2023-07-30T09:43:40.000Z</time>
      </trkpt>
      <trkpt lat="43.71804" lon="7.05493">
        <ele>427.39999389648</ele>
        <time>2023-07-30T09:43:41.000Z</time>
      </trkpt>
      <trkpt lat="43.71803" lon="7.05502">
        <ele>427</ele>
        <time>2023-07-30T09:43:42.000Z</time>
      </trkpt>
      <trkpt lat="43.71801" lon="7.05511">
        <ele>426.60000610352</ele>
        <time>2023-07-30T09:43:43.000Z</time>
      </trkpt>
      <trkpt lat="43.71799" lon="7.05519">
        <ele>426.39999389648</ele>
        <time>2023-07-30T09:43:44.000Z</time>
      </trkpt>
      <trkpt lat="43.71798" lon="7.05526">
        <ele>426.20001220703</ele>
        <time>2023-07-30T09:43:45.000Z</time>
      </trkpt>
      <trkpt lat="43.71796" lon="7.05534">
        <ele>426.20001220703</ele>
        <time>2023-07-30T09:43:46.000Z</time>
      </trkpt>
      <trkpt lat="43.71794" lon="7.05542">
        <ele>426</ele>
        <time>2023-07-30T09:43:47.000Z</time>
      </trkpt>
      <trkpt lat="43.71793" lon="7.05549">
        <ele>426</ele>
        <time>2023-07-30T09:43:48.000Z</time>
      </trkpt>
      <trkpt lat="43.71791" lon="7.05556">
        <ele>426</ele>
        <time>2023-07-30T09:43:49.000Z</time>
      </trkpt>
      <trkpt lat="43.71789" lon="7.05562">
        <ele>426</ele>
        <time>2023-07-30T09:43:50.000Z</time>
      </trkpt>
      <trkpt lat="43.71788" lon="7.05568">
        <ele>426</ele>
        <time>2023-07-30T09:43:51.000Z</time>
      </trkpt>
      <trkpt lat="43.71786" lon="7.05574">
        <ele>426</ele>
        <time>2023-07-30T09:43:52.000Z</time>
      </trkpt>
      <trkpt lat="43.71785" lon="7.05578">
        <ele>426</ele>
        <time>2023-07-30T09:43:53.000Z</time>
      </trkpt>
      <trkpt lat="43.71784" lon="7.05582">
        <ele>426.20001220703</ele>
        <time>2023-07-30T09:43:54.000Z</time>
      </trkpt>
      <trkpt lat="43.71782" lon="7.05586">
        <ele>426.39999389648</ele>
        <time>2023-07-30T09:43:55.000Z</time>
      </trkpt>
      <trkpt lat="43.7178" lon="7.05589">
        <ele>426.39999389648</ele>
        <time>2023-07-30T09:43:56.000Z</time>
      </trkpt>
      <trkpt lat="43.71779" lon="7.05594">
        <ele>426.79998779297</ele>
        <time>2023-07-30T09:43:57.000Z</time>
      </trkpt>
      <trkpt lat="43.71776" lon="7.05598">
        <ele>426.60000610352</ele>
        <time>2023-07-30T09:43:58.000Z</time>
      </trkpt>
      <trkpt lat="43.71774" lon="7.05602">
        <ele>426.60000610352</ele>
        <time>2023-07-30T09:43:59.000Z</time>
      </trkpt>
      <trkpt lat="43.71773" lon="7.05605">
        <ele>426.60000610352</ele>
        <time>2023-07-30T09:44:00.000Z</time>
      </trkpt>
      <trkpt lat="43.71773" lon="7.05608">
        <ele>426.60000610352</ele>
        <time>2023-07-30T09:44:01.000Z</time>
      </trkpt>
      <trkpt lat="43.71773" lon="7.05611">
        <ele>426.60000610352</ele>
        <time>2023-07-30T09:44:02.000Z</time>
      </trkpt>
      <trkpt lat="43.71774" lon="7.05613">
        <ele>426.60000610352</ele>
        <time>2023-07-30T09:44:03.000Z</time>
      </trkpt>
      <trkpt lat="43.71775" lon="7.05612">
        <ele>426.79998779297</ele>
        <time>2023-07-30T09:44:04.000Z</time>
      </trkpt>
      <trkpt lat="43.71777" lon="7.05611">
        <ele>426.79998779297</ele>
        <time>2023-07-30T09:44:05.000Z</time>
      </trkpt>
      <trkpt lat="43.71778" lon="7.05611">
        <ele>426.79998779297</ele>
        <time>2023-07-30T09:44:06.000Z</time>
      </trkpt>
      <trkpt lat="43.71779" lon="7.05611">
        <ele>427</ele>
        <time>2023-07-30T09:44:07.000Z</time>
      </trkpt>
      <trkpt lat="43.7178" lon="7.05611">
        <ele>427</ele>
        <time>2023-07-30T09:44:08.000Z</time>
      </trkpt>
      <trkpt lat="43.71781" lon="7.0561">
        <ele>427</ele>
        <time>2023-07-30T09:44:09.000Z</time>
      </trkpt>
      <trkpt lat="43.71782" lon="7.05609">
        <ele>427</ele>
        <time>2023-07-30T09:44:10.000Z</time>
      </trkpt>
      <trkpt lat="43.71783" lon="7.05609">
        <ele>427</ele>
        <time>2023-07-30T09:44:11.000Z</time>
      </trkpt>
      <trkpt lat="43.71784" lon="7.0561">
        <ele>427</ele>
        <time>2023-07-30T09:44:12.000Z</time>
      </trkpt>
      <trkpt lat="43.71785" lon="7.05612">
        <ele>427</ele>
        <time>2023-07-30T09:44:13.000Z</time>
      </trkpt>
      <trkpt lat="43.71786" lon="7.05612">
        <ele>427.20001220703</ele>
        <time>2023-07-30T09:44:14.000Z</time>
      </trkpt>
      <trkpt lat="43.71787" lon="7.0561">
        <ele>427.20001220703</ele>
        <time>2023-07-30T09:44:15.000Z</time>
      </trkpt>
      <trkpt lat="43.71786" lon="7.05608">
        <ele>427.20001220703</ele>
        <time>2023-07-30T09:44:16.000Z</time>
      </trkpt>
      <trkpt lat="43.71783" lon="7.05608">
        <ele>427.20001220703</ele>
        <time>2023-07-30T09:44:17.000Z</time>
      </trkpt>
      <trkpt lat="43.7178" lon="7.05608">
        <ele>427.20001220703</ele>
        <time>2023-07-30T09:44:18.000Z</time>
      </trkpt>
      <trkpt lat="43.71777" lon="7.05609">
        <ele>427.20001220703</ele>
        <time>2023-07-30T09:44:19.000Z</time>
      </trkpt>
      <trkpt lat="43.71774" lon="7.05611">
        <ele>427.20001220703</ele>
        <time>2023-07-30T09:44:20.000Z</time>
      </trkpt>
      <trkpt lat="43.71772" lon="7.05612">
        <ele>427.20001220703</ele>
        <time>2023-07-30T09:44:21.000Z</time>
      </trkpt>
      <trkpt lat="43.71769" lon="7.05613">
        <ele>427</ele>
        <time>2023-07-30T09:44:22.000Z</time>
      </trkpt>
      <trkpt lat="43.71768" lon="7.05615">
        <ele>426.60000610352</ele>
        <time>2023-07-30T09:44:23.000Z</time>
      </trkpt>
      <trkpt lat="43.71766" lon="7.05618">
        <ele>426.39999389648</ele>
        <time>2023-07-30T09:44:24.000Z</time>
      </trkpt>
      <trkpt lat="43.71765" lon="7.05621">
        <ele>426.20001220703</ele>
        <time>2023-07-30T09:44:25.000Z</time>
      </trkpt>
      <trkpt lat="43.71763" lon="7.05624">
        <ele>426.20001220703</ele>
        <time>2023-07-30T09:44:26.000Z</time>
      </trkpt>
      <trkpt lat="43.71762" lon="7.05627">
        <ele>426.20001220703</ele>
        <time>2023-07-30T09:44:27.000Z</time>
      </trkpt>
      <trkpt lat="43.7176" lon="7.05632">
        <ele>426.20001220703</ele>
        <time>2023-07-30T09:44:28.000Z</time>
      </trkpt>
      <trkpt lat="43.71759" lon="7.05637">
        <ele>426.20001220703</ele>
        <time>2023-07-30T09:44:29.000Z</time>
      </trkpt>
      <trkpt lat="43.71757" lon="7.05642">
        <ele>426.20001220703</ele>
        <time>2023-07-30T09:44:30.000Z</time>
      </trkpt>
      <trkpt lat="43.71755" lon="7.05647">
        <ele>426.20001220703</ele>
        <time>2023-07-30T09:44:31.000Z</time>
      </trkpt>
      <trkpt lat="43.71754" lon="7.05651">
        <ele>426.20001220703</ele>
        <time>2023-07-30T09:44:32.000Z</time>
      </trkpt>
      <trkpt lat="43.71754" lon="7.05656">
        <ele>426.20001220703</ele>
        <time>2023-07-30T09:44:33.000Z</time>
      </trkpt>
      <trkpt lat="43.71755" lon="7.05661">
        <ele>426.20001220703</ele>
        <time>2023-07-30T09:44:34.000Z</time>
      </trkpt>
      <trkpt lat="43.71757" lon="7.05665">
        <ele>426.20001220703</ele>
        <time>2023-07-30T09:44:35.000Z</time>
      </trkpt>
      <trkpt lat="43.71759" lon="7.05667">
        <ele>426.20001220703</ele>
        <time>2023-07-30T09:44:36.000Z</time>
      </trkpt>
      <trkpt lat="43.71761" lon="7.05668">
        <ele>426.20001220703</ele>
        <time>2023-07-30T09:44:37.000Z</time>
      </trkpt>
      <trkpt lat="43.71762" lon="7.05668">
        <ele>426.39999389648</ele>
        <time>2023-07-30T09:44:38.000Z</time>
      </trkpt>
      <trkpt lat="43.71764" lon="7.05669">
        <ele>426.79998779297</ele>
        <time>2023-07-30T09:44:39.000Z</time>
      </trkpt>
      <trkpt lat="43.71767" lon="7.0567">
        <ele>427.60000610352</ele>
        <time>2023-07-30T09:44:40.000Z</time>
      </trkpt>
      <trkpt lat="43.71769" lon="7.05671">
        <ele>428</ele>
        <time>2023-07-30T09:44:41.000Z</time>
      </trkpt>
      <trkpt lat="43.71772" lon="7.05671">
        <ele>428.20001220703</ele>
        <time>2023-07-30T09:44:42.000Z</time>
      </trkpt>
      <trkpt lat="43.71776" lon="7.05672">
        <ele>428.39999389648</ele>
        <time>2023-07-30T09:44:43.000Z</time>
      </trkpt>
      <trkpt lat="43.71779" lon="7.05673">
        <ele>428.60000610352</ele>
        <time>2023-07-30T09:44:44.000Z</time>
      </trkpt>
      <trkpt lat="43.71783" lon="7.05674">
        <ele>428.60000610352</ele>
        <time>2023-07-30T09:44:45.000Z</time>
      </trkpt>
      <trkpt lat="43.71787" lon="7.05674">
        <ele>428.60000610352</ele>
        <time>2023-07-30T09:44:46.000Z</time>
      </trkpt>
      <trkpt lat="43.71791" lon="7.05676">
        <ele>428.79998779297</ele>
        <time>2023-07-30T09:44:47.000Z</time>
      </trkpt>
      <trkpt lat="43.71795" lon="7.05679">
        <ele>429</ele>
        <time>2023-07-30T09:44:48.000Z</time>
      </trkpt>
      <trkpt lat="43.71798" lon="7.05682">
        <ele>429.20001220703</ele>
        <time>2023-07-30T09:44:49.000Z</time>
      </trkpt>
      <trkpt lat="43.71801" lon="7.05685">
        <ele>429.60000610352</ele>
        <time>2023-07-30T09:44:50.000Z</time>
      </trkpt>
      <trkpt lat="43.71803" lon="7.05688">
        <ele>430</ele>
        <time>2023-07-30T09:44:51.000Z</time>
      </trkpt>
      <trkpt lat="43.71804" lon="7.05691">
        <ele>430.39999389648</ele>
        <time>2023-07-30T09:44:52.000Z</time>
      </trkpt>
      <trkpt lat="43.71806" lon="7.05695">
        <ele>431.20001220703</ele>
        <time>2023-07-30T09:44:53.000Z</time>
      </trkpt>
      <trkpt lat="43.71808" lon="7.05698">
        <ele>431.79998779297</ele>
        <time>2023-07-30T09:44:54.000Z</time>
      </trkpt>
      <trkpt lat="43.7181" lon="7.05701">
        <ele>432.20001220703</ele>
        <time>2023-07-30T09:44:55.000Z</time>
      </trkpt>
      <trkpt lat="43.71811" lon="7.05704">
        <ele>432.79998779297</ele>
        <time>2023-07-30T09:44:56.000Z</time>
      </trkpt>
      <trkpt lat="43.71813" lon="7.05707">
        <ele>433</ele>
        <time>2023-07-30T09:44:57.000Z</time>
      </trkpt>
      <trkpt lat="43.71815" lon="7.0571">
        <ele>433.20001220703</ele>
        <time>2023-07-30T09:44:58.000Z</time>
      </trkpt>
      <trkpt lat="43.71817" lon="7.05713">
        <ele>433.39999389648</ele>
        <time>2023-07-30T09:44:59.000Z</time>
      </trkpt>
      <trkpt lat="43.71818" lon="7.05717">
        <ele>433.79998779297</ele>
        <time>2023-07-30T09:45:00.000Z</time>
      </trkpt>
      <trkpt lat="43.7182" lon="7.0572">
        <ele>434.20001220703</ele>
        <time>2023-07-30T09:45:01.000Z</time>
      </trkpt>
      <trkpt lat="43.71821" lon="7.05723">
        <ele>434.39999389648</ele>
        <time>2023-07-30T09:45:02.000Z</time>
      </trkpt>
      <trkpt lat="43.71823" lon="7.05726">
        <ele>434.79998779297</ele>
        <time>2023-07-30T09:45:03.000Z</time>
      </trkpt>
      <trkpt lat="43.71824" lon="7.05728">
        <ele>435</ele>
        <time>2023-07-30T09:45:04.000Z</time>
      </trkpt>
      <trkpt lat="43.71825" lon="7.05728">
        <ele>435.39999389648</ele>
        <time>2023-07-30T09:45:05.000Z</time>
      </trkpt>
      <trkpt lat="43.71827" lon="7.05728">
        <ele>435.39999389648</ele>
        <time>2023-07-30T09:45:06.000Z</time>
      </trkpt>
      <trkpt lat="43.71829" lon="7.0573">
        <ele>435.39999389648</ele>
        <time>2023-07-30T09:45:07.000Z</time>
      </trkpt>
      <trkpt lat="43.7183" lon="7.05732">
        <ele>435.60000610352</ele>
        <time>2023-07-30T09:45:08.000Z</time>
      </trkpt>
      <trkpt lat="43.71831" lon="7.05732">
        <ele>435.60000610352</ele>
        <time>2023-07-30T09:45:09.000Z</time>
      </trkpt>
      <trkpt lat="43.71832" lon="7.05733">
        <ele>435.60000610352</ele>
        <time>2023-07-30T09:45:10.000Z</time>
      </trkpt>
      <trkpt lat="43.71834" lon="7.05734">
        <ele>435.60000610352</ele>
        <time>2023-07-30T09:45:11.000Z</time>
      </trkpt>
      <trkpt lat="43.71837" lon="7.05734">
        <ele>435.60000610352</ele>
        <time>2023-07-30T09:45:12.000Z</time>
      </trkpt>
      <trkpt lat="43.71839" lon="7.05735">
        <ele>435.79998779297</ele>
        <time>2023-07-30T09:45:13.000Z</time>
      </trkpt>
      <trkpt lat="43.71841" lon="7.05734">
        <ele>436</ele>
        <time>2023-07-30T09:45:14.000Z</time>
      </trkpt>
      <trkpt lat="43.71844" lon="7.05734">
        <ele>436</ele>
        <time>2023-07-30T09:45:15.000Z</time>
      </trkpt>
      <trkpt lat="43.71846" lon="7.05734">
        <ele>436.20001220703</ele>
        <time>2023-07-30T09:45:16.000Z</time>
      </trkpt>
      <trkpt lat="43.71849" lon="7.05734">
        <ele>436.39999389648</ele>
        <time>2023-07-30T09:45:17.000Z</time>
      </trkpt>
      <trkpt lat="43.71852" lon="7.05734">
        <ele>436.39999389648</ele>
        <time>2023-07-30T09:45:18.000Z</time>
      </trkpt>
      <trkpt lat="43.71854" lon="7.05734">
        <ele>436.79998779297</ele>
        <time>2023-07-30T09:45:19.000Z</time>
      </trkpt>
      <trkpt lat="43.71857" lon="7.05734">
        <ele>437</ele>
        <time>2023-07-30T09:45:20.000Z</time>
      </trkpt>
      <trkpt lat="43.71859" lon="7.05735">
        <ele>437.60000610352</ele>
        <time>2023-07-30T09:45:21.000Z</time>
      </trkpt>
      <trkpt lat="43.71862" lon="7.05735">
        <ele>437.79998779297</ele>
        <time>2023-07-30T09:45:22.000Z</time>
      </trkpt>
      <trkpt lat="43.71864" lon="7.05735">
        <ele>438.20001220703</ele>
        <time>2023-07-30T09:45:23.000Z</time>
      </trkpt>
      <trkpt lat="43.71867" lon="7.05735">
        <ele>438.60000610352</ele>
        <time>2023-07-30T09:45:24.000Z</time>
      </trkpt>
      <trkpt lat="43.7187" lon="7.05735">
        <ele>438.79998779297</ele>
        <time>2023-07-30T09:45:25.000Z</time>
      </trkpt>
      <trkpt lat="43.71872" lon="7.05735">
        <ele>439.39999389648</ele>
        <time>2023-07-30T09:45:26.000Z</time>
      </trkpt>
      <trkpt lat="43.71875" lon="7.05735">
        <ele>439.79998779297</ele>
        <time>2023-07-30T09:45:27.000Z</time>
      </trkpt>
      <trkpt lat="43.71878" lon="7.05736">
        <ele>439.79998779297</ele>
        <time>2023-07-30T09:45:28.000Z</time>
      </trkpt>
      <trkpt lat="43.7188" lon="7.05737">
        <ele>440</ele>
        <time>2023-07-30T09:45:29.000Z</time>
      </trkpt>
      <trkpt lat="43.71883" lon="7.05738">
        <ele>440.79998779297</ele>
        <time>2023-07-30T09:45:30.000Z</time>
      </trkpt>
      <trkpt lat="43.71885" lon="7.05738">
        <ele>440.79998779297</ele>
        <time>2023-07-30T09:45:31.000Z</time>
      </trkpt>
      <trkpt lat="43.71888" lon="7.05738">
        <ele>441</ele>
        <time>2023-07-30T09:45:32.000Z</time>
      </trkpt>
      <trkpt lat="43.7189" lon="7.05737">
        <ele>441</ele>
        <time>2023-07-30T09:45:33.000Z</time>
      </trkpt>
      <trkpt lat="43.71893" lon="7.05737">
        <ele>441</ele>
        <time>2023-07-30T09:45:34.000Z</time>
      </trkpt>
      <trkpt lat="43.71895" lon="7.05738">
        <ele>441.20001220703</ele>
        <time>2023-07-30T09:45:35.000Z</time>
      </trkpt>
      <trkpt lat="43.71898" lon="7.05739">
        <ele>441.79998779297</ele>
        <time>2023-07-30T09:45:36.000Z</time>
      </trkpt>
      <trkpt lat="43.719" lon="7.05739">
        <ele>443.20001220703</ele>
        <time>2023-07-30T09:45:37.000Z</time>
      </trkpt>
      <trkpt lat="43.71903" lon="7.05738">
        <ele>443.20001220703</ele>
        <time>2023-07-30T09:45:38.000Z</time>
      </trkpt>
      <trkpt lat="43.71906" lon="7.05737">
        <ele>443.39999389648</ele>
        <time>2023-07-30T09:45:39.000Z</time>
      </trkpt>
      <trkpt lat="43.71909" lon="7.05737">
        <ele>443.79998779297</ele>
        <time>2023-07-30T09:45:40.000Z</time>
      </trkpt>
      <trkpt lat="43.71911" lon="7.05736">
        <ele>444.20001220703</ele>
        <time>2023-07-30T09:45:41.000Z</time>
      </trkpt>
      <trkpt lat="43.71914" lon="7.05734">
        <ele>444.60000610352</ele>
        <time>2023-07-30T09:45:42.000Z</time>
      </trkpt>
      <trkpt lat="43.71917" lon="7.05733">
        <ele>445</ele>
        <time>2023-07-30T09:45:43.000Z</time>
      </trkpt>
      <trkpt lat="43.71919" lon="7.05732">
        <ele>445.60000610352</ele>
        <time>2023-07-30T09:45:44.000Z</time>
      </trkpt>
      <trkpt lat="43.71922" lon="7.05731">
        <ele>446</ele>
        <time>2023-07-30T09:45:45.000Z</time>
      </trkpt>
      <trkpt lat="43.71925" lon="7.05731">
        <ele>446.60000610352</ele>
        <time>2023-07-30T09:45:46.000Z</time>
      </trkpt>
      <trkpt lat="43.71928" lon="7.05732">
        <ele>446.79998779297</ele>
        <time>2023-07-30T09:45:47.000Z</time>
      </trkpt>
      <trkpt lat="43.71931" lon="7.05732">
        <ele>447.39999389648</ele>
        <time>2023-07-30T09:45:48.000Z</time>
      </trkpt>
      <trkpt lat="43.71933" lon="7.05733">
        <ele>448.20001220703</ele>
        <time>2023-07-30T09:45:49.000Z</time>
      </trkpt>
      <trkpt lat="43.71936" lon="7.05734">
        <ele>449</ele>
        <time>2023-07-30T09:45:50.000Z</time>
      </trkpt>
      <trkpt lat="43.71939" lon="7.05735">
        <ele>449.60000610352</ele>
        <time>2023-07-30T09:45:51.000Z</time>
      </trkpt>
      <trkpt lat="43.71942" lon="7.05735">
        <ele>450.20001220703</ele>
        <time>2023-07-30T09:45:52.000Z</time>
      </trkpt>
      <trkpt lat="43.71945" lon="7.05736">
        <ele>450.39999389648</ele>
        <time>2023-07-30T09:45:53.000Z</time>
      </trkpt>
      <trkpt lat="43.71947" lon="7.05736">
        <ele>451</ele>
        <time>2023-07-30T09:45:54.000Z</time>
      </trkpt>
      <trkpt lat="43.7195" lon="7.05737">
        <ele>451.60000610352</ele>
        <time>2023-07-30T09:45:55.000Z</time>
      </trkpt>
      <trkpt lat="43.71953" lon="7.05737">
        <ele>452.20001220703</ele>
        <time>2023-07-30T09:45:56.000Z</time>
      </trkpt>
      <trkpt lat="43.71956" lon="7.05738">
        <ele>452.60000610352</ele>
        <time>2023-07-30T09:45:57.000Z</time>
      </trkpt>
      <trkpt lat="43.71958" lon="7.05738">
        <ele>453.20001220703</ele>
        <time>2023-07-30T09:45:58.000Z</time>
      </trkpt>
      <trkpt lat="43.7196" lon="7.05739">
        <ele>453.79998779297</ele>
        <time>2023-07-30T09:45:59.000Z</time>
      </trkpt>
      <trkpt lat="43.71963" lon="7.05739">
        <ele>454.39999389648</ele>
        <time>2023-07-30T09:46:00.000Z</time>
      </trkpt>
      <trkpt lat="43.71966" lon="7.0574">
        <ele>455</ele>
        <time>2023-07-30T09:46:01.000Z</time>
      </trkpt>
      <trkpt lat="43.71969" lon="7.05741">
        <ele>455.60000610352</ele>
        <time>2023-07-30T09:46:02.000Z</time>
      </trkpt>
      <trkpt lat="43.71971" lon="7.05742">
        <ele>455.60000610352</ele>
        <time>2023-07-30T09:46:03.000Z</time>
      </trkpt>
      <trkpt lat="43.71974" lon="7.05743">
        <ele>456.20001220703</ele>
        <time>2023-07-30T09:46:04.000Z</time>
      </trkpt>
      <trkpt lat="43.71976" lon="7.05745">
        <ele>456.60000610352</ele>
        <time>2023-07-30T09:46:05.000Z</time>
      </trkpt>
      <trkpt lat="43.71978" lon="7.05746">
        <ele>457.39999389648</ele>
        <time>2023-07-30T09:46:06.000Z</time>
      </trkpt>
      <trkpt lat="43.7198" lon="7.05747">
        <ele>457.79998779297</ele>
        <time>2023-07-30T09:46:07.000Z</time>
      </trkpt>
      <trkpt lat="43.71982" lon="7.05748">
        <ele>458</ele>
        <time>2023-07-30T09:46:08.000Z</time>
      </trkpt>
      <trkpt lat="43.71984" lon="7.05749">
        <ele>459.20001220703</ele>
        <time>2023-07-30T09:46:09.000Z</time>
      </trkpt>
      <trkpt lat="43.71986" lon="7.05751">
        <ele>459.79998779297</ele>
        <time>2023-07-30T09:46:10.000Z</time>
      </trkpt>
      <trkpt lat="43.71988" lon="7.05753">
        <ele>460.20001220703</ele>
        <time>2023-07-30T09:46:11.000Z</time>
      </trkpt>
      <trkpt lat="43.7199" lon="7.05754">
        <ele>460.39999389648</ele>
        <time>2023-07-30T09:46:12.000Z</time>
      </trkpt>
      <trkpt lat="43.71992" lon="7.05755">
        <ele>461</ele>
        <time>2023-07-30T09:46:13.000Z</time>
      </trkpt>
      <trkpt lat="43.71993" lon="7.05756">
        <ele>461.60000610352</ele>
        <time>2023-07-30T09:46:14.000Z</time>
      </trkpt>
      <trkpt lat="43.71996" lon="7.05756">
        <ele>462.60000610352</ele>
        <time>2023-07-30T09:46:15.000Z</time>
      </trkpt>
      <trkpt lat="43.71998" lon="7.05757">
        <ele>463.20001220703</ele>
        <time>2023-07-30T09:46:16.000Z</time>
      </trkpt>
      <trkpt lat="43.72" lon="7.05757">
        <ele>463.60000610352</ele>
        <time>2023-07-30T09:46:17.000Z</time>
      </trkpt>
      <trkpt lat="43.72002" lon="7.05757">
        <ele>464.20001220703</ele>
        <time>2023-07-30T09:46:18.000Z</time>
      </trkpt>
      <trkpt lat="43.72005" lon="7.05758">
        <ele>464.60000610352</ele>
        <time>2023-07-30T09:46:19.000Z</time>
      </trkpt>
      <trkpt lat="43.72008" lon="7.05758">
        <ele>465.39999389648</ele>
        <time>2023-07-30T09:46:20.000Z</time>
      </trkpt>
      <trkpt lat="43.7201" lon="7.05758">
        <ele>466</ele>
        <time>2023-07-30T09:46:21.000Z</time>
      </trkpt>
      <trkpt lat="43.72012" lon="7.0576">
        <ele>466.79998779297</ele>
        <time>2023-07-30T09:46:22.000Z</time>
      </trkpt>
      <trkpt lat="43.72014" lon="7.05761">
        <ele>467.39999389648</ele>
        <time>2023-07-30T09:46:23.000Z</time>
      </trkpt>
      <trkpt lat="43.72017" lon="7.05762">
        <ele>467.79998779297</ele>
        <time>2023-07-30T09:46:24.000Z</time>
      </trkpt>
      <trkpt lat="43.72019" lon="7.05762">
        <ele>468.39999389648</ele>
        <time>2023-07-30T09:46:25.000Z</time>
      </trkpt>
      <trkpt lat="43.72021" lon="7.05763">
        <ele>469</ele>
        <time>2023-07-30T09:46:26.000Z</time>
      </trkpt>
      <trkpt lat="43.72023" lon="7.05764">
        <ele>469.60000610352</ele>
        <time>2023-07-30T09:46:27.000Z</time>
      </trkpt>
      <trkpt lat="43.72025" lon="7.05766">
        <ele>470</ele>
        <time>2023-07-30T09:46:28.000Z</time>
      </trkpt>
      <trkpt lat="43.72027" lon="7.05766">
        <ele>470.39999389648</ele>
        <time>2023-07-30T09:46:29.000Z</time>
      </trkpt>
      <trkpt lat="43.72029" lon="7.05767">
        <ele>471</ele>
        <time>2023-07-30T09:46:30.000Z</time>
      </trkpt>
      <trkpt lat="43.72032" lon="7.05767">
        <ele>471.39999389648</ele>
        <time>2023-07-30T09:46:31.000Z</time>
      </trkpt>
      <trkpt lat="43.72034" lon="7.05767">
        <ele>471.39999389648</ele>
        <time>2023-07-30T09:46:32.000Z</time>
      </trkpt>
      <trkpt lat="43.72036" lon="7.05768">
        <ele>471.79998779297</ele>
        <time>2023-07-30T09:46:33.000Z</time>
      </trkpt>
      <trkpt lat="43.72038" lon="7.05769">
        <ele>472.20001220703</ele>
        <time>2023-07-30T09:46:34.000Z</time>
      </trkpt>
      <trkpt lat="43.7204" lon="7.0577">
        <ele>472.60000610352</ele>
        <time>2023-07-30T09:46:35.000Z</time>
      </trkpt>
      <trkpt lat="43.72043" lon="7.05771">
        <ele>473.20001220703</ele>
        <time>2023-07-30T09:46:36.000Z</time>
      </trkpt>
      <trkpt lat="43.72045" lon="7.05771">
        <ele>473.39999389648</ele>
        <time>2023-07-30T09:46:37.000Z</time>
      </trkpt>
      <trkpt lat="43.72047" lon="7.05772">
        <ele>474</ele>
        <time>2023-07-30T09:46:38.000Z</time>
      </trkpt>
      <trkpt lat="43.72049" lon="7.05772">
        <ele>474.39999389648</ele>
        <time>2023-07-30T09:46:39.000Z</time>
      </trkpt>
      <trkpt lat="43.72051" lon="7.05772">
        <ele>474.60000610352</ele>
        <time>2023-07-30T09:46:40.000Z</time>
      </trkpt>
      <trkpt lat="43.72053" lon="7.05773">
        <ele>475.20001220703</ele>
        <time>2023-07-30T09:46:41.000Z</time>
      </trkpt>
      <trkpt lat="43.72056" lon="7.05773">
        <ele>475.79998779297</ele>
        <time>2023-07-30T09:46:42.000Z</time>
      </trkpt>
      <trkpt lat="43.72058" lon="7.05773">
        <ele>476</ele>
        <time>2023-07-30T09:46:43.000Z</time>
      </trkpt>
      <trkpt lat="43.72061" lon="7.05773">
        <ele>476.60000610352</ele>
        <time>2023-07-30T09:46:44.000Z</time>
      </trkpt>
      <trkpt lat="43.72063" lon="7.05773">
        <ele>476.79998779297</ele>
        <time>2023-07-30T09:46:45.000Z</time>
      </trkpt>
      <trkpt lat="43.72066" lon="7.05773">
        <ele>477</ele>
        <time>2023-07-30T09:46:46.000Z</time>
      </trkpt>
      <trkpt lat="43.72068" lon="7.05774">
        <ele>478</ele>
        <time>2023-07-30T09:46:47.000Z</time>
      </trkpt>
      <trkpt lat="43.7207" lon="7.05774">
        <ele>478.20001220703</ele>
        <time>2023-07-30T09:46:48.000Z</time>
      </trkpt>
      <trkpt lat="43.72073" lon="7.05774">
        <ele>478.39999389648</ele>
        <time>2023-07-30T09:46:49.000Z</time>
      </trkpt>
      <trkpt lat="43.72075" lon="7.05775">
        <ele>478.60000610352</ele>
        <time>2023-07-30T09:46:50.000Z</time>
      </trkpt>
      <trkpt lat="43.72077" lon="7.05775">
        <ele>479</ele>
        <time>2023-07-30T09:46:51.000Z</time>
      </trkpt>
      <trkpt lat="43.72079" lon="7.05775">
        <ele>479.39999389648</ele>
        <time>2023-07-30T09:46:52.000Z</time>
      </trkpt>
      <trkpt lat="43.72082" lon="7.05776">
        <ele>479.79998779297</ele>
        <time>2023-07-30T09:46:53.000Z</time>
      </trkpt>
      <trkpt lat="43.72084" lon="7.05776">
        <ele>480.20001220703</ele>
        <time>2023-07-30T09:46:54.000Z</time>
      </trkpt>
      <trkpt lat="43.72087" lon="7.05776">
        <ele>480.60000610352</ele>
        <time>2023-07-30T09:46:55.000Z</time>
      </trkpt>
      <trkpt lat="43.72088" lon="7.05775">
        <ele>481.20001220703</ele>
        <time>2023-07-30T09:46:56.000Z</time>
      </trkpt>
      <trkpt lat="43.7209" lon="7.05774">
        <ele>481.60000610352</ele>
        <time>2023-07-30T09:46:57.000Z</time>
      </trkpt>
      <trkpt lat="43.72092" lon="7.05773">
        <ele>482</ele>
        <time>2023-07-30T09:46:58.000Z</time>
      </trkpt>
      <trkpt lat="43.72095" lon="7.05773">
        <ele>482.39999389648</ele>
        <time>2023-07-30T09:46:59.000Z</time>
      </trkpt>
      <trkpt lat="43.72097" lon="7.05772">
        <ele>482.79998779297</ele>
        <time>2023-07-30T09:47:00.000Z</time>
      </trkpt>
      <trkpt lat="43.72098" lon="7.05771">
        <ele>482.79998779297</ele>
        <time>2023-07-30T09:47:01.000Z</time>
      </trkpt>
      <trkpt lat="43.721" lon="7.0577">
        <ele>483.20001220703</ele>
        <time>2023-07-30T09:47:02.000Z</time>
      </trkpt>
      <trkpt lat="43.72102" lon="7.05769">
        <ele>483.60000610352</ele>
        <time>2023-07-30T09:47:03.000Z</time>
      </trkpt>
      <trkpt lat="43.72104" lon="7.05768">
        <ele>484</ele>
        <time>2023-07-30T09:47:04.000Z</time>
      </trkpt>
      <trkpt lat="43.72106" lon="7.05767">
        <ele>484.60000610352</ele>
        <time>2023-07-30T09:47:05.000Z</time>
      </trkpt>
      <trkpt lat="43.72108" lon="7.05766">
        <ele>485.20001220703</ele>
        <time>2023-07-30T09:47:06.000Z</time>
      </trkpt>
      <trkpt lat="43.7211" lon="7.05766">
        <ele>485.60000610352</ele>
        <time>2023-07-30T09:47:07.000Z</time>
      </trkpt>
      <trkpt lat="43.72112" lon="7.05766">
        <ele>486.20001220703</ele>
        <time>2023-07-30T09:47:08.000Z</time>
      </trkpt>
      <trkpt lat="43.72115" lon="7.05765">
        <ele>486.60000610352</ele>
        <time>2023-07-30T09:47:09.000Z</time>
      </trkpt>
      <trkpt lat="43.72117" lon="7.05764">
        <ele>487.20001220703</ele>
        <time>2023-07-30T09:47:10.000Z</time>
      </trkpt>
      <trkpt lat="43.72119" lon="7.05763">
        <ele>487.60000610352</ele>
        <time>2023-07-30T09:47:11.000Z</time>
      </trkpt>
      <trkpt lat="43.72121" lon="7.05763">
        <ele>488.20001220703</ele>
        <time>2023-07-30T09:47:12.000Z</time>
      </trkpt>
      <trkpt lat="43.72123" lon="7.05763">
        <ele>488.60000610352</ele>
        <time>2023-07-30T09:47:13.000Z</time>
      </trkpt>
      <trkpt lat="43.72125" lon="7.05763">
        <ele>489.20001220703</ele>
        <time>2023-07-30T09:47:14.000Z</time>
      </trkpt>
      <trkpt lat="43.72127" lon="7.05762">
        <ele>489.79998779297</ele>
        <time>2023-07-30T09:47:15.000Z</time>
      </trkpt>
      <trkpt lat="43.72129" lon="7.05762">
        <ele>490.39999389648</ele>
        <time>2023-07-30T09:47:16.000Z</time>
      </trkpt>
      <trkpt lat="43.72131" lon="7.05762">
        <ele>490.79998779297</ele>
        <time>2023-07-30T09:47:17.000Z</time>
      </trkpt>
      <trkpt lat="43.72133" lon="7.05762">
        <ele>491.39999389648</ele>
        <time>2023-07-30T09:47:18.000Z</time>
      </trkpt>
      <trkpt lat="43.72135" lon="7.05762">
        <ele>492</ele>
        <time>2023-07-30T09:47:19.000Z</time>
      </trkpt>
      <trkpt lat="43.72137" lon="7.05761">
        <ele>492.60000610352</ele>
        <time>2023-07-30T09:47:20.000Z</time>
      </trkpt>
      <trkpt lat="43.72139" lon="7.05761">
        <ele>493.20001220703</ele>
        <time>2023-07-30T09:47:21.000Z</time>
      </trkpt>
      <trkpt lat="43.7214" lon="7.05761">
        <ele>494</ele>
        <time>2023-07-30T09:47:22.000Z</time>
      </trkpt>
      <trkpt lat="43.72143" lon="7.05761">
        <ele>494.39999389648</ele>
        <time>2023-07-30T09:47:23.000Z</time>
      </trkpt>
      <trkpt lat="43.72145" lon="7.05761">
        <ele>495</ele>
        <time>2023-07-30T09:47:24.000Z</time>
      </trkpt>
      <trkpt lat="43.72147" lon="7.05761">
        <ele>495.60000610352</ele>
        <time>2023-07-30T09:47:25.000Z</time>
      </trkpt>
      <trkpt lat="43.72149" lon="7.0576">
        <ele>496</ele>
        <time>2023-07-30T09:47:26.000Z</time>
      </trkpt>
      <trkpt lat="43.72151" lon="7.0576">
        <ele>496.60000610352</ele>
        <time>2023-07-30T09:47:27.000Z</time>
      </trkpt>
      <trkpt lat="43.72153" lon="7.05761">
        <ele>497.20001220703</ele>
        <time>2023-07-30T09:47:28.000Z</time>
      </trkpt>
      <trkpt lat="43.72154" lon="7.05762">
        <ele>497.79998779297</ele>
        <time>2023-07-30T09:47:29.000Z</time>
      </trkpt>
      <trkpt lat="43.72157" lon="7.05763">
        <ele>497.79998779297</ele>
        <time>2023-07-30T09:47:30.000Z</time>
      </trkpt>
      <trkpt lat="43.72159" lon="7.05764">
        <ele>498.39999389648</ele>
        <time>2023-07-30T09:47:31.000Z</time>
      </trkpt>
      <trkpt lat="43.72161" lon="7.05764">
        <ele>499</ele>
        <time>2023-07-30T09:47:32.000Z</time>
      </trkpt>
      <trkpt lat="43.72163" lon="7.05764">
        <ele>499.39999389648</ele>
        <time>2023-07-30T09:47:33.000Z</time>
      </trkpt>
      <trkpt lat="43.72166" lon="7.05765">
        <ele>500</ele>
        <time>2023-07-30T09:47:34.000Z</time>
      </trkpt>
      <trkpt lat="43.72168" lon="7.05766">
        <ele>500.60000610352</ele>
        <time>2023-07-30T09:47:35.000Z</time>
      </trkpt>
      <trkpt lat="43.7217" lon="7.05767">
        <ele>501.20001220703</ele>
        <time>2023-07-30T09:47:36.000Z</time>
      </trkpt>
      <trkpt lat="43.72172" lon="7.05768">
        <ele>502</ele>
        <time>2023-07-30T09:47:37.000Z</time>
      </trkpt>
      <trkpt lat="43.72173" lon="7.05769">
        <ele>502.79998779297</ele>
        <time>2023-07-30T09:47:38.000Z</time>
      </trkpt>
      <trkpt lat="43.72176" lon="7.0577">
        <ele>503.39999389648</ele>
        <time>2023-07-30T09:47:39.000Z</time>
      </trkpt>
      <trkpt lat="43.72178" lon="7.0577">
        <ele>504.20001220703</ele>
        <time>2023-07-30T09:47:40.000Z</time>
      </trkpt>
      <trkpt lat="43.7218" lon="7.05771">
        <ele>504.60000610352</ele>
        <time>2023-07-30T09:47:41.000Z</time>
      </trkpt>
      <trkpt lat="43.72182" lon="7.05771">
        <ele>505.20001220703</ele>
        <time>2023-07-30T09:47:42.000Z</time>
      </trkpt>
      <trkpt lat="43.72185" lon="7.05771">
        <ele>505.79998779297</ele>
        <time>2023-07-30T09:47:43.000Z</time>
      </trkpt>
      <trkpt lat="43.72187" lon="7.05772">
        <ele>506.39999389648</ele>
        <time>2023-07-30T09:47:44.000Z</time>
      </trkpt>
      <trkpt lat="43.72189" lon="7.05772">
        <ele>506.79998779297</ele>
        <time>2023-07-30T09:47:45.000Z</time>
      </trkpt>
      <trkpt lat="43.72191" lon="7.05773">
        <ele>507.39999389648</ele>
        <time>2023-07-30T09:47:46.000Z</time>
      </trkpt>
      <trkpt lat="43.72193" lon="7.05774">
        <ele>508</ele>
        <time>2023-07-30T09:47:47.000Z</time>
      </trkpt>
      <trkpt lat="43.72194" lon="7.05774">
        <ele>508.39999389648</ele>
        <time>2023-07-30T09:47:48.000Z</time>
      </trkpt>
      <trkpt lat="43.72196" lon="7.05775">
        <ele>509</ele>
        <time>2023-07-30T09:47:49.000Z</time>
      </trkpt>
      <trkpt lat="43.72198" lon="7.05775">
        <ele>509.79998779297</ele>
        <time>2023-07-30T09:47:50.000Z</time>
      </trkpt>
      <trkpt lat="43.722" lon="7.05776">
        <ele>510.39999389648</ele>
        <time>2023-07-30T09:47:51.000Z</time>
      </trkpt>
      <trkpt lat="43.72202" lon="7.05776">
        <ele>511.39999389648</ele>
        <time>2023-07-30T09:47:52.000Z</time>
      </trkpt>
      <trkpt lat="43.72204" lon="7.05776">
        <ele>511.79998779297</ele>
        <time>2023-07-30T09:47:53.000Z</time>
      </trkpt>
      <trkpt lat="43.72206" lon="7.05776">
        <ele>512.20001220703</ele>
        <time>2023-07-30T09:47:54.000Z</time>
      </trkpt>
      <trkpt lat="43.72209" lon="7.05776">
        <ele>512.59997558594</ele>
        <time>2023-07-30T09:47:55.000Z</time>
      </trkpt>
      <trkpt lat="43.72211" lon="7.05776">
        <ele>513.20001220703</ele>
        <time>2023-07-30T09:47:56.000Z</time>
      </trkpt>
      <trkpt lat="43.72213" lon="7.05777">
        <ele>513.59997558594</ele>
        <time>2023-07-30T09:47:57.000Z</time>
      </trkpt>
      <trkpt lat="43.72216" lon="7.05777">
        <ele>514.20001220703</ele>
        <time>2023-07-30T09:47:58.000Z</time>
      </trkpt>
      <trkpt lat="43.72218" lon="7.05778">
        <ele>514.20001220703</ele>
        <time>2023-07-30T09:47:59.000Z</time>
      </trkpt>
      <trkpt lat="43.7222" lon="7.05778">
        <ele>514.79998779297</ele>
        <time>2023-07-30T09:48:00.000Z</time>
      </trkpt>
      <trkpt lat="43.72223" lon="7.05779">
        <ele>515.40002441406</ele>
        <time>2023-07-30T09:48:01.000Z</time>
      </trkpt>
      <trkpt lat="43.72225" lon="7.0578">
        <ele>516</ele>
        <time>2023-07-30T09:48:02.000Z</time>
      </trkpt>
      <trkpt lat="43.72227" lon="7.05781">
        <ele>516.40002441406</ele>
        <time>2023-07-30T09:48:03.000Z</time>
      </trkpt>
      <trkpt lat="43.72229" lon="7.05781">
        <ele>517</ele>
        <time>2023-07-30T09:48:04.000Z</time>
      </trkpt>
      <trkpt lat="43.72231" lon="7.05782">
        <ele>517.40002441406</ele>
        <time>2023-07-30T09:48:05.000Z</time>
      </trkpt>
      <trkpt lat="43.72233" lon="7.05783">
        <ele>517.79998779297</ele>
        <time>2023-07-30T09:48:06.000Z</time>
      </trkpt>
      <trkpt lat="43.72235" lon="7.05784">
        <ele>518.20001220703</ele>
        <time>2023-07-30T09:48:07.000Z</time>
      </trkpt>
      <trkpt lat="43.72237" lon="7.05785">
        <ele>519</ele>
        <time>2023-07-30T09:48:08.000Z</time>
      </trkpt>
      <trkpt lat="43.72239" lon="7.05786">
        <ele>519.59997558594</ele>
        <time>2023-07-30T09:48:09.000Z</time>
      </trkpt>
      <trkpt lat="43.72242" lon="7.05787">
        <ele>520</ele>
        <time>2023-07-30T09:48:10.000Z</time>
      </trkpt>
      <trkpt lat="43.72244" lon="7.05789">
        <ele>520.40002441406</ele>
        <time>2023-07-30T09:48:11.000Z</time>
      </trkpt>
      <trkpt lat="43.72247" lon="7.05789">
        <ele>520.79998779297</ele>
        <time>2023-07-30T09:48:12.000Z</time>
      </trkpt>
      <trkpt lat="43.72249" lon="7.05791">
        <ele>521.40002441406</ele>
        <time>2023-07-30T09:48:13.000Z</time>
      </trkpt>
      <trkpt lat="43.72251" lon="7.05792">
        <ele>521.79998779297</ele>
        <time>2023-07-30T09:48:14.000Z</time>
      </trkpt>
      <trkpt lat="43.72253" lon="7.05794">
        <ele>522.40002441406</ele>
        <time>2023-07-30T09:48:15.000Z</time>
      </trkpt>
      <trkpt lat="43.72255" lon="7.05794">
        <ele>522.79998779297</ele>
        <time>2023-07-30T09:48:16.000Z</time>
      </trkpt>
      <trkpt lat="43.72257" lon="7.05795">
        <ele>523.40002441406</ele>
        <time>2023-07-30T09:48:17.000Z</time>
      </trkpt>
      <trkpt lat="43.7226" lon="7.05796">
        <ele>524</ele>
        <time>2023-07-30T09:48:18.000Z</time>
      </trkpt>
      <trkpt lat="43.72262" lon="7.05798">
        <ele>524.59997558594</ele>
        <time>2023-07-30T09:48:19.000Z</time>
      </trkpt>
      <trkpt lat="43.72264" lon="7.05799">
        <ele>525</ele>
        <time>2023-07-30T09:48:20.000Z</time>
      </trkpt>
      <trkpt lat="43.72266" lon="7.05801">
        <ele>525.79998779297</ele>
        <time>2023-07-30T09:48:21.000Z</time>
      </trkpt>
      <trkpt lat="43.72269" lon="7.05802">
        <ele>526.20001220703</ele>
        <time>2023-07-30T09:48:22.000Z</time>
      </trkpt>
      <trkpt lat="43.72271" lon="7.05803">
        <ele>526.59997558594</ele>
        <time>2023-07-30T09:48:23.000Z</time>
      </trkpt>
      <trkpt lat="43.72273" lon="7.05804">
        <ele>527.20001220703</ele>
        <time>2023-07-30T09:48:24.000Z</time>
      </trkpt>
      <trkpt lat="43.72276" lon="7.05806">
        <ele>527.59997558594</ele>
        <time>2023-07-30T09:48:25.000Z</time>
      </trkpt>
      <trkpt lat="43.72278" lon="7.05807">
        <ele>528.20001220703</ele>
        <time>2023-07-30T09:48:26.000Z</time>
      </trkpt>
      <trkpt lat="43.7228" lon="7.05808">
        <ele>528.79998779297</ele>
        <time>2023-07-30T09:48:27.000Z</time>
      </trkpt>
      <trkpt lat="43.72282" lon="7.05808">
        <ele>529</ele>
        <time>2023-07-30T09:48:28.000Z</time>
      </trkpt>
      <trkpt lat="43.72285" lon="7.05808">
        <ele>529</ele>
        <time>2023-07-30T09:48:29.000Z</time>
      </trkpt>
      <trkpt lat="43.72287" lon="7.05809">
        <ele>529.20001220703</ele>
        <time>2023-07-30T09:48:30.000Z</time>
      </trkpt>
      <trkpt lat="43.72289" lon="7.0581">
        <ele>529.40002441406</ele>
        <time>2023-07-30T09:48:31.000Z</time>
      </trkpt>
      <trkpt lat="43.72291" lon="7.05811">
        <ele>529.79998779297</ele>
        <time>2023-07-30T09:48:32.000Z</time>
      </trkpt>
      <trkpt lat="43.72293" lon="7.05812">
        <ele>530</ele>
        <time>2023-07-30T09:48:33.000Z</time>
      </trkpt>
      <trkpt lat="43.72295" lon="7.05813">
        <ele>530.20001220703</ele>
        <time>2023-07-30T09:48:34.000Z</time>
      </trkpt>
      <trkpt lat="43.72298" lon="7.05814">
        <ele>530.40002441406</ele>
        <time>2023-07-30T09:48:35.000Z</time>
      </trkpt>
      <trkpt lat="43.723" lon="7.05816">
        <ele>530.59997558594</ele>
        <time>2023-07-30T09:48:36.000Z</time>
      </trkpt>
      <trkpt lat="43.72302" lon="7.05817">
        <ele>530.59997558594</ele>
        <time>2023-07-30T09:48:37.000Z</time>
      </trkpt>
      <trkpt lat="43.72305" lon="7.05818">
        <ele>530.79998779297</ele>
        <time>2023-07-30T09:48:38.000Z</time>
      </trkpt>
      <trkpt lat="43.72307" lon="7.05818">
        <ele>531</ele>
        <time>2023-07-30T09:48:39.000Z</time>
      </trkpt>
      <trkpt lat="43.7231" lon="7.05817">
        <ele>531</ele>
        <time>2023-07-30T09:48:40.000Z</time>
      </trkpt>
      <trkpt lat="43.72313" lon="7.05817">
        <ele>531.20001220703</ele>
        <time>2023-07-30T09:48:41.000Z</time>
      </trkpt>
      <trkpt lat="43.72315" lon="7.05817">
        <ele>531.20001220703</ele>
        <time>2023-07-30T09:48:42.000Z</time>
      </trkpt>
      <trkpt lat="43.72318" lon="7.05818">
        <ele>531.59997558594</ele>
        <time>2023-07-30T09:48:43.000Z</time>
      </trkpt>
      <trkpt lat="43.7232" lon="7.05818">
        <ele>531.79998779297</ele>
        <time>2023-07-30T09:48:44.000Z</time>
      </trkpt>
      <trkpt lat="43.72323" lon="7.05818">
        <ele>532</ele>
        <time>2023-07-30T09:48:45.000Z</time>
      </trkpt>
      <trkpt lat="43.72325" lon="7.05818">
        <ele>532.20001220703</ele>
        <time>2023-07-30T09:48:46.000Z</time>
      </trkpt>
      <trkpt lat="43.72327" lon="7.05819">
        <ele>532.79998779297</ele>
        <time>2023-07-30T09:48:47.000Z</time>
      </trkpt>
      <trkpt lat="43.72329" lon="7.0582">
        <ele>533.40002441406</ele>
        <time>2023-07-30T09:48:48.000Z</time>
      </trkpt>
      <trkpt lat="43.72332" lon="7.0582">
        <ele>533.79998779297</ele>
        <time>2023-07-30T09:48:49.000Z</time>
      </trkpt>
      <trkpt lat="43.72335" lon="7.05821">
        <ele>534.40002441406</ele>
        <time>2023-07-30T09:48:50.000Z</time>
      </trkpt>
      <trkpt lat="43.72337" lon="7.0582">
        <ele>535</ele>
        <time>2023-07-30T09:48:51.000Z</time>
      </trkpt>
      <trkpt lat="43.7234" lon="7.0582">
        <ele>535.40002441406</ele>
        <time>2023-07-30T09:48:52.000Z</time>
      </trkpt>
      <trkpt lat="43.72342" lon="7.0582">
        <ele>535.79998779297</ele>
        <time>2023-07-30T09:48:53.000Z</time>
      </trkpt>
      <trkpt lat="43.72345" lon="7.05821">
        <ele>536.40002441406</ele>
        <time>2023-07-30T09:48:54.000Z</time>
      </trkpt>
      <trkpt lat="43.72347" lon="7.05821">
        <ele>536.79998779297</ele>
        <time>2023-07-30T09:48:55.000Z</time>
      </trkpt>
      <trkpt lat="43.7235" lon="7.05821">
        <ele>537</ele>
        <time>2023-07-30T09:48:56.000Z</time>
      </trkpt>
      <trkpt lat="43.72353" lon="7.0582">
        <ele>537.20001220703</ele>
        <time>2023-07-30T09:48:57.000Z</time>
      </trkpt>
      <trkpt lat="43.72356" lon="7.0582">
        <ele>537.59997558594</ele>
        <time>2023-07-30T09:48:58.000Z</time>
      </trkpt>
      <trkpt lat="43.72358" lon="7.0582">
        <ele>537.59997558594</ele>
        <time>2023-07-30T09:48:59.000Z</time>
      </trkpt>
      <trkpt lat="43.72361" lon="7.0582">
        <ele>538</ele>
        <time>2023-07-30T09:49:00.000Z</time>
      </trkpt>
      <trkpt lat="43.72364" lon="7.05819">
        <ele>538.20001220703</ele>
        <time>2023-07-30T09:49:01.000Z</time>
      </trkpt>
      <trkpt lat="43.72366" lon="7.05818">
        <ele>538.79998779297</ele>
        <time>2023-07-30T09:49:02.000Z</time>
      </trkpt>
      <trkpt lat="43.72369" lon="7.05817">
        <ele>539</ele>
        <time>2023-07-30T09:49:03.000Z</time>
      </trkpt>
      <trkpt lat="43.72371" lon="7.05816">
        <ele>539.59997558594</ele>
        <time>2023-07-30T09:49:04.000Z</time>
      </trkpt>
      <trkpt lat="43.72373" lon="7.05815">
        <ele>540.20001220703</ele>
        <time>2023-07-30T09:49:05.000Z</time>
      </trkpt>
      <trkpt lat="43.72376" lon="7.05814">
        <ele>540.40002441406</ele>
        <time>2023-07-30T09:49:06.000Z</time>
      </trkpt>
      <trkpt lat="43.72378" lon="7.05813">
        <ele>541</ele>
        <time>2023-07-30T09:49:07.000Z</time>
      </trkpt>
      <trkpt lat="43.7238" lon="7.05812">
        <ele>541.59997558594</ele>
        <time>2023-07-30T09:49:08.000Z</time>
      </trkpt>
      <trkpt lat="43.72382" lon="7.05811">
        <ele>542</ele>
        <time>2023-07-30T09:49:09.000Z</time>
      </trkpt>
      <trkpt lat="43.72384" lon="7.05809">
        <ele>542.40002441406</ele>
        <time>2023-07-30T09:49:10.000Z</time>
      </trkpt>
      <trkpt lat="43.72386" lon="7.05807">
        <ele>543</ele>
        <time>2023-07-30T09:49:11.000Z</time>
      </trkpt>
      <trkpt lat="43.72388" lon="7.05806">
        <ele>543.40002441406</ele>
        <time>2023-07-30T09:49:12.000Z</time>
      </trkpt>
      <trkpt lat="43.7239" lon="7.05805">
        <ele>544</ele>
        <time>2023-07-30T09:49:13.000Z</time>
      </trkpt>
      <trkpt lat="43.72392" lon="7.05803">
        <ele>544.59997558594</ele>
        <time>2023-07-30T09:49:14.000Z</time>
      </trkpt>
      <trkpt lat="43.72394" lon="7.05802">
        <ele>545.20001220703</ele>
        <time>2023-07-30T09:49:15.000Z</time>
      </trkpt>
      <trkpt lat="43.72396" lon="7.058">
        <ele>545.79998779297</ele>
        <time>2023-07-30T09:49:16.000Z</time>
      </trkpt>
      <trkpt lat="43.72398" lon="7.05799">
        <ele>546.40002441406</ele>
        <time>2023-07-30T09:49:17.000Z</time>
      </trkpt>
      <trkpt lat="43.724" lon="7.05797">
        <ele>547.20001220703</ele>
        <time>2023-07-30T09:49:18.000Z</time>
      </trkpt>
      <trkpt lat="43.72403" lon="7.05796">
        <ele>547.59997558594</ele>
        <time>2023-07-30T09:49:19.000Z</time>
      </trkpt>
      <trkpt lat="43.72405" lon="7.05794">
        <ele>548.20001220703</ele>
        <time>2023-07-30T09:49:20.000Z</time>
      </trkpt>
      <trkpt lat="43.72407" lon="7.05792">
        <ele>548.59997558594</ele>
        <time>2023-07-30T09:49:21.000Z</time>
      </trkpt>
      <trkpt lat="43.72409" lon="7.05791">
        <ele>549.20001220703</ele>
        <time>2023-07-30T09:49:22.000Z</time>
      </trkpt>
      <trkpt lat="43.72412" lon="7.05789">
        <ele>549.79998779297</ele>
        <time>2023-07-30T09:49:23.000Z</time>
      </trkpt>
      <trkpt lat="43.72414" lon="7.05787">
        <ele>550.20001220703</ele>
        <time>2023-07-30T09:49:24.000Z</time>
      </trkpt>
      <trkpt lat="43.72416" lon="7.05785">
        <ele>550.79998779297</ele>
        <time>2023-07-30T09:49:25.000Z</time>
      </trkpt>
      <trkpt lat="43.72418" lon="7.05783">
        <ele>551.40002441406</ele>
        <time>2023-07-30T09:49:26.000Z</time>
      </trkpt>
      <trkpt lat="43.7242" lon="7.05781">
        <ele>551.79998779297</ele>
        <time>2023-07-30T09:49:27.000Z</time>
      </trkpt>
      <trkpt lat="43.72422" lon="7.05779">
        <ele>552.20001220703</ele>
        <time>2023-07-30T09:49:28.000Z</time>
      </trkpt>
      <trkpt lat="43.72424" lon="7.05776">
        <ele>552.20001220703</ele>
        <time>2023-07-30T09:49:29.000Z</time>
      </trkpt>
      <trkpt lat="43.72425" lon="7.05775">
        <ele>552.79998779297</ele>
        <time>2023-07-30T09:49:30.000Z</time>
      </trkpt>
      <trkpt lat="43.72427" lon="7.05773">
        <ele>553.59997558594</ele>
        <time>2023-07-30T09:49:31.000Z</time>
      </trkpt>
      <trkpt lat="43.72429" lon="7.05771">
        <ele>554.20001220703</ele>
        <time>2023-07-30T09:49:32.000Z</time>
      </trkpt>
      <trkpt lat="43.72431" lon="7.05769">
        <ele>554.79998779297</ele>
        <time>2023-07-30T09:49:33.000Z</time>
      </trkpt>
      <trkpt lat="43.72433" lon="7.05767">
        <ele>555.20001220703</ele>
        <time>2023-07-30T09:49:34.000Z</time>
      </trkpt>
      <trkpt lat="43.72435" lon="7.05765">
        <ele>555.59997558594</ele>
        <time>2023-07-30T09:49:35.000Z</time>
      </trkpt>
      <trkpt lat="43.72436" lon="7.05763">
        <ele>556</ele>
        <time>2023-07-30T09:49:36.000Z</time>
      </trkpt>
      <trkpt lat="43.72438" lon="7.05761">
        <ele>556.59997558594</ele>
        <time>2023-07-30T09:49:37.000Z</time>
      </trkpt>
      <trkpt lat="43.72439" lon="7.05758">
        <ele>557.20001220703</ele>
        <time>2023-07-30T09:49:38.000Z</time>
      </trkpt>
      <trkpt lat="43.72439" lon="7.05754">
        <ele>557.59997558594</ele>
        <time>2023-07-30T09:49:39.000Z</time>
      </trkpt>
      <trkpt lat="43.72438" lon="7.05752">
        <ele>558.20001220703</ele>
        <time>2023-07-30T09:49:40.000Z</time>
      </trkpt>
      <trkpt lat="43.72435" lon="7.0575">
        <ele>558.59997558594</ele>
        <time>2023-07-30T09:49:41.000Z</time>
      </trkpt>
      <trkpt lat="43.72433" lon="7.0575">
        <ele>559</ele>
        <time>2023-07-30T09:49:42.000Z</time>
      </trkpt>
      <trkpt lat="43.72431" lon="7.05752">
        <ele>559.40002441406</ele>
        <time>2023-07-30T09:49:43.000Z</time>
      </trkpt>
      <trkpt lat="43.72428" lon="7.05753">
        <ele>559.59997558594</ele>
        <time>2023-07-30T09:49:44.000Z</time>
      </trkpt>
      <trkpt lat="43.72426" lon="7.05753">
        <ele>560</ele>
        <time>2023-07-30T09:49:45.000Z</time>
      </trkpt>
      <trkpt lat="43.72423" lon="7.05754">
        <ele>560.40002441406</ele>
        <time>2023-07-30T09:49:46.000Z</time>
      </trkpt>
      <trkpt lat="43.72421" lon="7.05755">
        <ele>561</ele>
        <time>2023-07-30T09:49:47.000Z</time>
      </trkpt>
      <trkpt lat="43.72419" lon="7.05756">
        <ele>561.59997558594</ele>
        <time>2023-07-30T09:49:48.000Z</time>
      </trkpt>
      <trkpt lat="43.72416" lon="7.05756">
        <ele>562.20001220703</ele>
        <time>2023-07-30T09:49:49.000Z</time>
      </trkpt>
      <trkpt lat="43.72414" lon="7.05757">
        <ele>562.79998779297</ele>
        <time>2023-07-30T09:49:50.000Z</time>
      </trkpt>
      <trkpt lat="43.72411" lon="7.05758">
        <ele>563.20001220703</ele>
        <time>2023-07-30T09:49:51.000Z</time>
      </trkpt>
      <trkpt lat="43.72409" lon="7.05755">
        <ele>563.40002441406</ele>
        <time>2023-07-30T09:49:52.000Z</time>
      </trkpt>
      <trkpt lat="43.72409" lon="7.05752">
        <ele>563.79998779297</ele>
        <time>2023-07-30T09:49:53.000Z</time>
      </trkpt>
      <trkpt lat="43.7241" lon="7.05749">
        <ele>564.20001220703</ele>
        <time>2023-07-30T09:49:54.000Z</time>
      </trkpt>
      <trkpt lat="43.72412" lon="7.05746">
        <ele>565</ele>
        <time>2023-07-30T09:49:55.000Z</time>
      </trkpt>
      <trkpt lat="43.72413" lon="7.05744">
        <ele>565.40002441406</ele>
        <time>2023-07-30T09:49:56.000Z</time>
      </trkpt>
      <trkpt lat="43.72415" lon="7.05743">
        <ele>566.20001220703</ele>
        <time>2023-07-30T09:49:57.000Z</time>
      </trkpt>
      <trkpt lat="43.72417" lon="7.05741">
        <ele>566.59997558594</ele>
        <time>2023-07-30T09:49:58.000Z</time>
      </trkpt>
      <trkpt lat="43.72418" lon="7.0574">
        <ele>567.40002441406</ele>
        <time>2023-07-30T09:49:59.000Z</time>
      </trkpt>
      <trkpt lat="43.7242" lon="7.05739">
        <ele>567.40002441406</ele>
        <time>2023-07-30T09:50:00.000Z</time>
      </trkpt>
      <trkpt lat="43.72422" lon="7.05737">
        <ele>568</ele>
        <time>2023-07-30T09:50:01.000Z</time>
      </trkpt>
      <trkpt lat="43.72424" lon="7.05736">
        <ele>568.40002441406</ele>
        <time>2023-07-30T09:50:02.000Z</time>
      </trkpt>
      <trkpt lat="43.72425" lon="7.05734">
        <ele>568.59997558594</ele>
        <time>2023-07-30T09:50:03.000Z</time>
      </trkpt>
      <trkpt lat="43.72427" lon="7.05732">
        <ele>569</ele>
        <time>2023-07-30T09:50:04.000Z</time>
      </trkpt>
      <trkpt lat="43.72429" lon="7.05731">
        <ele>569.59997558594</ele>
        <time>2023-07-30T09:50:05.000Z</time>
      </trkpt>
      <trkpt lat="43.72431" lon="7.05729">
        <ele>570.20001220703</ele>
        <time>2023-07-30T09:50:06.000Z</time>
      </trkpt>
      <trkpt lat="43.72432" lon="7.05727">
        <ele>570.59997558594</ele>
        <time>2023-07-30T09:50:07.000Z</time>
      </trkpt>
      <trkpt lat="43.72434" lon="7.05724">
        <ele>570.79998779297</ele>
        <time>2023-07-30T09:50:08.000Z</time>
      </trkpt>
      <trkpt lat="43.72435" lon="7.05722">
        <ele>571.40002441406</ele>
        <time>2023-07-30T09:50:09.000Z</time>
      </trkpt>
      <trkpt lat="43.72437" lon="7.0572">
        <ele>571.79998779297</ele>
        <time>2023-07-30T09:50:10.000Z</time>
      </trkpt>
      <trkpt lat="43.72438" lon="7.05718">
        <ele>572.40002441406</ele>
        <time>2023-07-30T09:50:11.000Z</time>
      </trkpt>
      <trkpt lat="43.7244" lon="7.05716">
        <ele>573</ele>
        <time>2023-07-30T09:50:12.000Z</time>
      </trkpt>
      <trkpt lat="43.72441" lon="7.05713">
        <ele>573.59997558594</ele>
        <time>2023-07-30T09:50:13.000Z</time>
      </trkpt>
      <trkpt lat="43.72443" lon="7.05711">
        <ele>574.20001220703</ele>
        <time>2023-07-30T09:50:14.000Z</time>
      </trkpt>
      <trkpt lat="43.72445" lon="7.05708">
        <ele>574.59997558594</ele>
        <time>2023-07-30T09:50:15.000Z</time>
      </trkpt>
      <trkpt lat="43.72446" lon="7.05705">
        <ele>575.20001220703</ele>
        <time>2023-07-30T09:50:16.000Z</time>
      </trkpt>
      <trkpt lat="43.72447" lon="7.05703">
        <ele>575.59997558594</ele>
        <time>2023-07-30T09:50:17.000Z</time>
      </trkpt>
      <trkpt lat="43.72448" lon="7.057">
        <ele>576</ele>
        <time>2023-07-30T09:50:18.000Z</time>
      </trkpt>
      <trkpt lat="43.72449" lon="7.05698">
        <ele>576.59997558594</ele>
        <time>2023-07-30T09:50:19.000Z</time>
      </trkpt>
      <trkpt lat="43.7245" lon="7.05696">
        <ele>577</ele>
        <time>2023-07-30T09:50:20.000Z</time>
      </trkpt>
      <trkpt lat="43.72451" lon="7.05693">
        <ele>577.40002441406</ele>
        <time>2023-07-30T09:50:21.000Z</time>
      </trkpt>
      <trkpt lat="43.72452" lon="7.05691">
        <ele>578</ele>
        <time>2023-07-30T09:50:22.000Z</time>
      </trkpt>
      <trkpt lat="43.72454" lon="7.05689">
        <ele>578.40002441406</ele>
        <time>2023-07-30T09:50:23.000Z</time>
      </trkpt>
      <trkpt lat="43.72456" lon="7.05687">
        <ele>578.59997558594</ele>
        <time>2023-07-30T09:50:24.000Z</time>
      </trkpt>
      <trkpt lat="43.72457" lon="7.05685">
        <ele>578.79998779297</ele>
        <time>2023-07-30T09:50:25.000Z</time>
      </trkpt>
      <trkpt lat="43.72458" lon="7.05683">
        <ele>579</ele>
        <time>2023-07-30T09:50:26.000Z</time>
      </trkpt>
      <trkpt lat="43.72459" lon="7.05681">
        <ele>579.40002441406</ele>
        <time>2023-07-30T09:50:27.000Z</time>
      </trkpt>
      <trkpt lat="43.72461" lon="7.0568">
        <ele>579.59997558594</ele>
        <time>2023-07-30T09:50:28.000Z</time>
      </trkpt>
      <trkpt lat="43.72463" lon="7.05679">
        <ele>579.79998779297</ele>
        <time>2023-07-30T09:50:29.000Z</time>
      </trkpt>
      <trkpt lat="43.72465" lon="7.05678">
        <ele>580</ele>
        <time>2023-07-30T09:50:30.000Z</time>
      </trkpt>
      <trkpt lat="43.72465" lon="7.05677">
        <ele>580</ele>
        <time>2023-07-30T09:50:31.000Z</time>
      </trkpt>
      <trkpt lat="43.72465" lon="7.05677">
        <ele>580.20001220703</ele>
        <time>2023-07-30T09:50:32.000Z</time>
      </trkpt>
      <trkpt lat="43.72465" lon="7.05677">
        <ele>580.40002441406</ele>
        <time>2023-07-30T09:50:33.000Z</time>
      </trkpt>
      <trkpt lat="43.72466" lon="7.05677">
        <ele>580.59997558594</ele>
        <time>2023-07-30T09:50:34.000Z</time>
      </trkpt>
      <trkpt lat="43.72465" lon="7.05677">
        <ele>580.79998779297</ele>
        <time>2023-07-30T09:50:35.000Z</time>
      </trkpt>
      <trkpt lat="43.72466" lon="7.05677">
        <ele>580.79998779297</ele>
        <time>2023-07-30T09:50:36.000Z</time>
      </trkpt>
      <trkpt lat="43.72466" lon="7.05677">
        <ele>580.79998779297</ele>
        <time>2023-07-30T09:50:37.000Z</time>
      </trkpt>
      <trkpt lat="43.72466" lon="7.05677">
        <ele>580.79998779297</ele>
        <time>2023-07-30T09:50:38.000Z</time>
      </trkpt>
      <trkpt lat="43.72466" lon="7.05677">
        <ele>580.79998779297</ele>
        <time>2023-07-30T09:50:39.000Z</time>
      </trkpt>
      <trkpt lat="43.72466" lon="7.05677">
        <ele>580.79998779297</ele>
        <time>2023-07-30T09:50:40.000Z</time>
      </trkpt>
      <trkpt lat="43.72466" lon="7.05677">
        <ele>580.79998779297</ele>
        <time>2023-07-30T09:50:41.000Z</time>
      </trkpt>
      <trkpt lat="43.72466" lon="7.05677">
        <ele>580.79998779297</ele>
        <time>2023-07-30T09:50:42.000Z</time>
      </trkpt>
      <trkpt lat="43.72466" lon="7.05677">
        <ele>581</ele>
        <time>2023-07-30T09:50:43.000Z</time>
      </trkpt>
      <trkpt lat="43.72466" lon="7.05677">
        <ele>581</ele>
        <time>2023-07-30T09:50:44.000Z</time>
      </trkpt>
      <trkpt lat="43.72466" lon="7.05677">
        <ele>581.20001220703</ele>
        <time>2023-07-30T09:50:45.000Z</time>
      </trkpt>
      <trkpt lat="43.72466" lon="7.05677">
        <ele>581.40002441406</ele>
        <time>2023-07-30T09:50:46.000Z</time>
      </trkpt>
      <trkpt lat="43.72466" lon="7.05677">
        <ele>581.40002441406</ele>
        <time>2023-07-30T09:50:47.000Z</time>
      </trkpt>
      <trkpt lat="43.72466" lon="7.05677">
        <ele>581.40002441406</ele>
        <time>2023-07-30T09:50:48.000Z</time>
      </trkpt>
      <trkpt lat="43.72466" lon="7.05677">
        <ele>581.59997558594</ele>
        <time>2023-07-30T09:50:49.000Z</time>
      </trkpt>
      <trkpt lat="43.72466" lon="7.05677">
        <ele>581.40002441406</ele>
        <time>2023-07-30T09:50:50.000Z</time>
      </trkpt>
      <trkpt lat="43.72466" lon="7.05677">
        <ele>581.20001220703</ele>
        <time>2023-07-30T09:50:51.000Z</time>
      </trkpt>
      <trkpt lat="43.72466" lon="7.05677">
        <ele>581.20001220703</ele>
        <time>2023-07-30T09:50:52.000Z</time>
      </trkpt>
      <trkpt lat="43.72466" lon="7.05677">
        <ele>581.20001220703</ele>
        <time>2023-07-30T09:50:53.000Z</time>
      </trkpt>
      <trkpt lat="43.72466" lon="7.05677">
        <ele>581.20001220703</ele>
        <time>2023-07-30T09:50:54.000Z</time>
      </trkpt>
      <trkpt lat="43.72466" lon="7.05677">
        <ele>581.20001220703</ele>
        <time>2023-07-30T09:50:55.000Z</time>
      </trkpt>
      <trkpt lat="43.72466" lon="7.05677">
        <ele>581.20001220703</ele>
        <time>2023-07-30T09:50:56.000Z</time>
      </trkpt>
      <trkpt lat="43.72466" lon="7.05677">
        <ele>581.20001220703</ele>
        <time>2023-07-30T09:50:57.000Z</time>
      </trkpt>
      <trkpt lat="43.72466" lon="7.05677">
        <ele>581.20001220703</ele>
        <time>2023-07-30T09:50:58.000Z</time>
      </trkpt>
      <trkpt lat="43.72466" lon="7.05677">
        <ele>581.20001220703</ele>
        <time>2023-07-30T09:50:59.000Z</time>
      </trkpt>
      <trkpt lat="43.72466" lon="7.05677">
        <ele>581.40002441406</ele>
        <time>2023-07-30T09:51:00.000Z</time>
      </trkpt>
      <trkpt lat="43.72466" lon="7.05677">
        <ele>581.40002441406</ele>
        <time>2023-07-30T09:51:01.000Z</time>
      </trkpt>
      <trkpt lat="43.72466" lon="7.05677">
        <ele>581.40002441406</ele>
        <time>2023-07-30T09:51:02.000Z</time>
      </trkpt>
      <trkpt lat="43.72466" lon="7.05678">
        <ele>581.59997558594</ele>
        <time>2023-07-30T09:51:03.000Z</time>
      </trkpt>
      <trkpt lat="43.72466" lon="7.05678">
        <ele>581.59997558594</ele>
        <time>2023-07-30T09:51:04.000Z</time>
      </trkpt>
      <trkpt lat="43.72466" lon="7.05678">
        <ele>581.59997558594</ele>
        <time>2023-07-30T09:51:05.000Z</time>
      </trkpt>
      <trkpt lat="43.72466" lon="7.05678">
        <ele>581.59997558594</ele>
        <time>2023-07-30T09:51:06.000Z</time>
      </trkpt>
      <trkpt lat="43.72466" lon="7.05678">
        <ele>581.59997558594</ele>
        <time>2023-07-30T09:51:07.000Z</time>
      </trkpt>
      <trkpt lat="43.72466" lon="7.05678">
        <ele>581.59997558594</ele>
        <time>2023-07-30T09:51:08.000Z</time>
      </trkpt>
      <trkpt lat="43.72466" lon="7.05678">
        <ele>581.59997558594</ele>
        <time>2023-07-30T09:51:09.000Z</time>
      </trkpt>
      <trkpt lat="43.72466" lon="7.05678">
        <ele>581.59997558594</ele>
        <time>2023-07-30T09:51:10.000Z</time>
      </trkpt>
      <trkpt lat="43.72466" lon="7.05678">
        <ele>581.59997558594</ele>
        <time>2023-07-30T09:51:11.000Z</time>
      </trkpt>
      <trkpt lat="43.72465" lon="7.0568">
        <ele>581.59997558594</ele>
        <time>2023-07-30T09:51:12.000Z</time>
      </trkpt>
      <trkpt lat="43.72465" lon="7.0568">
        <ele>581.59997558594</ele>
        <time>2023-07-30T09:51:13.000Z</time>
      </trkpt>
      <trkpt lat="43.72465" lon="7.0568">
        <ele>581.59997558594</ele>
        <time>2023-07-30T09:51:14.000Z</time>
      </trkpt>
      <trkpt lat="43.72465" lon="7.0568">
        <ele>581.59997558594</ele>
        <time>2023-07-30T09:51:15.000Z</time>
      </trkpt>
      <trkpt lat="43.72465" lon="7.0568">
        <ele>581.79998779297</ele>
        <time>2023-07-30T09:51:16.000Z</time>
      </trkpt>
      <trkpt lat="43.72465" lon="7.0568">
        <ele>581.79998779297</ele>
        <time>2023-07-30T09:51:17.000Z</time>
      </trkpt>
      <trkpt lat="43.72465" lon="7.0568">
        <ele>581.79998779297</ele>
        <time>2023-07-30T09:51:18.000Z</time>
      </trkpt>
      <trkpt lat="43.72465" lon="7.0568">
        <ele>581.79998779297</ele>
        <time>2023-07-30T09:51:19.000Z</time>
      </trkpt>
      <trkpt lat="43.72465" lon="7.0568">
        <ele>581.79998779297</ele>
        <time>2023-07-30T09:51:20.000Z</time>
      </trkpt>
      <trkpt lat="43.72465" lon="7.0568">
        <ele>581.79998779297</ele>
        <time>2023-07-30T09:51:21.000Z</time>
      </trkpt>
      <trkpt lat="43.72465" lon="7.0568">
        <ele>581.79998779297</ele>
        <time>2023-07-30T09:51:22.000Z</time>
      </trkpt>
      <trkpt lat="43.72465" lon="7.0568">
        <ele>581.79998779297</ele>
        <time>2023-07-30T09:51:23.000Z</time>
      </trkpt>
      <trkpt lat="43.72465" lon="7.0568">
        <ele>581.79998779297</ele>
        <time>2023-07-30T09:51:24.000Z</time>
      </trkpt>
      <trkpt lat="43.72465" lon="7.0568">
        <ele>581.79998779297</ele>
        <time>2023-07-30T09:51:25.000Z</time>
      </trkpt>
      <trkpt lat="43.72465" lon="7.0568">
        <ele>581.79998779297</ele>
        <time>2023-07-30T09:51:26.000Z</time>
      </trkpt>
      <trkpt lat="43.72465" lon="7.0568">
        <ele>582</ele>
        <time>2023-07-30T09:51:27.000Z</time>
      </trkpt>
      <trkpt lat="43.72465" lon="7.0568">
        <ele>582</ele>
        <time>2023-07-30T09:51:28.000Z</time>
      </trkpt>
      <trkpt lat="43.72465" lon="7.05679">
        <ele>582</ele>
        <time>2023-07-30T09:51:29.000Z</time>
      </trkpt>
      <trkpt lat="43.72465" lon="7.05679">
        <ele>582.20001220703</ele>
        <time>2023-07-30T09:51:30.000Z</time>
      </trkpt>
      <trkpt lat="43.72465" lon="7.05679">
        <ele>582.20001220703</ele>
        <time>2023-07-30T09:51:31.000Z</time>
      </trkpt>
      <trkpt lat="43.72465" lon="7.05679">
        <ele>582.20001220703</ele>
        <time>2023-07-30T09:51:32.000Z</time>
      </trkpt>
      <trkpt lat="43.72465" lon="7.05679">
        <ele>582.20001220703</ele>
        <time>2023-07-30T09:51:33.000Z</time>
      </trkpt>
      <trkpt lat="43.72465" lon="7.0568">
        <ele>582.20001220703</ele>
        <time>2023-07-30T09:51:34.000Z</time>
      </trkpt>
      <trkpt lat="43.72465" lon="7.05679">
        <ele>582.20001220703</ele>
        <time>2023-07-30T09:51:35.000Z</time>
      </trkpt>
      <trkpt lat="43.72465" lon="7.0568">
        <ele>582.20001220703</ele>
        <time>2023-07-30T09:51:36.000Z</time>
      </trkpt>
      <trkpt lat="43.72465" lon="7.0568">
        <ele>582.20001220703</ele>
        <time>2023-07-30T09:51:37.000Z</time>
      </trkpt>
      <trkpt lat="43.72465" lon="7.0568">
        <ele>582.20001220703</ele>
        <time>2023-07-30T09:51:38.000Z</time>
      </trkpt>
      <trkpt lat="43.72465" lon="7.0568">
        <ele>582.20001220703</ele>
        <time>2023-07-30T09:51:39.000Z</time>
      </trkpt>
      <trkpt lat="43.72465" lon="7.0568">
        <ele>582.20001220703</ele>
        <time>2023-07-30T09:51:40.000Z</time>
      </trkpt>
      <trkpt lat="43.72465" lon="7.0568">
        <ele>582.20001220703</ele>
        <time>2023-07-30T09:51:41.000Z</time>
      </trkpt>
      <trkpt lat="43.72465" lon="7.0568">
        <ele>582.20001220703</ele>
        <time>2023-07-30T09:51:42.000Z</time>
      </trkpt>
      <trkpt lat="43.72465" lon="7.0568">
        <ele>582.20001220703</ele>
        <time>2023-07-30T09:51:43.000Z</time>
      </trkpt>
      <trkpt lat="43.72465" lon="7.0568">
        <ele>582.20001220703</ele>
        <time>2023-07-30T09:51:44.000Z</time>
      </trkpt>
      <trkpt lat="43.72465" lon="7.0568">
        <ele>582.40002441406</ele>
        <time>2023-07-30T09:51:45.000Z</time>
      </trkpt>
      <trkpt lat="43.72465" lon="7.0568">
        <ele>582.40002441406</ele>
        <time>2023-07-30T09:51:46.000Z</time>
      </trkpt>
      <trkpt lat="43.72465" lon="7.0568">
        <ele>582.40002441406</ele>
        <time>2023-07-30T09:51:47.000Z</time>
      </trkpt>
      <trkpt lat="43.72465" lon="7.0568">
        <ele>582.40002441406</ele>
        <time>2023-07-30T09:51:48.000Z</time>
      </trkpt>
      <trkpt lat="43.72465" lon="7.0568">
        <ele>582.40002441406</ele>
        <time>2023-07-30T09:51:49.000Z</time>
      </trkpt>
      <trkpt lat="43.72465" lon="7.0568">
        <ele>582.40002441406</ele>
        <time>2023-07-30T09:51:50.000Z</time>
      </trkpt>
      <trkpt lat="43.72465" lon="7.0568">
        <ele>582.40002441406</ele>
        <time>2023-07-30T09:51:51.000Z</time>
      </trkpt>
      <trkpt lat="43.72465" lon="7.0568">
        <ele>582.40002441406</ele>
        <time>2023-07-30T09:51:52.000Z</time>
      </trkpt>
      <trkpt lat="43.72466" lon="7.05681">
        <ele>582.40002441406</ele>
        <time>2023-07-30T09:51:53.000Z</time>
      </trkpt>
      <trkpt lat="43.72466" lon="7.05682">
        <ele>582.40002441406</ele>
        <time>2023-07-30T09:51:54.000Z</time>
      </trkpt>
      <trkpt lat="43.72466" lon="7.05682">
        <ele>582.40002441406</ele>
        <time>2023-07-30T09:51:55.000Z</time>
      </trkpt>
      <trkpt lat="43.72466" lon="7.05682">
        <ele>582.40002441406</ele>
        <time>2023-07-30T09:51:56.000Z</time>
      </trkpt>
      <trkpt lat="43.72466" lon="7.05682">
        <ele>582.40002441406</ele>
        <time>2023-07-30T09:51:57.000Z</time>
      </trkpt>
      <trkpt lat="43.72466" lon="7.05682">
        <ele>582.40002441406</ele>
        <time>2023-07-30T09:51:58.000Z</time>
      </trkpt>
      <trkpt lat="43.72466" lon="7.05682">
        <ele>582.40002441406</ele>
        <time>2023-07-30T09:51:59.000Z</time>
      </trkpt>
      <trkpt lat="43.72466" lon="7.05682">
        <ele>582.20001220703</ele>
        <time>2023-07-30T09:52:00.000Z</time>
      </trkpt>
      <trkpt lat="43.72466" lon="7.05682">
        <ele>582.20001220703</ele>
        <time>2023-07-30T09:52:01.000Z</time>
      </trkpt>
      <trkpt lat="43.72466" lon="7.05682">
        <ele>582.20001220703</ele>
        <time>2023-07-30T09:52:02.000Z</time>
      </trkpt>
      <trkpt lat="43.72466" lon="7.05682">
        <ele>582.20001220703</ele>
        <time>2023-07-30T09:52:03.000Z</time>
      </trkpt>
      <trkpt lat="43.72466" lon="7.05682">
        <ele>582.20001220703</ele>
        <time>2023-07-30T09:52:04.000Z</time>
      </trkpt>
      <trkpt lat="43.72466" lon="7.05682">
        <ele>582.20001220703</ele>
        <time>2023-07-30T09:52:05.000Z</time>
      </trkpt>
      <trkpt lat="43.72466" lon="7.05682">
        <ele>582.20001220703</ele>
        <time>2023-07-30T09:52:06.000Z</time>
      </trkpt>
      <trkpt lat="43.72466" lon="7.05682">
        <ele>582.20001220703</ele>
        <time>2023-07-30T09:52:07.000Z</time>
      </trkpt>
      <trkpt lat="43.72466" lon="7.05682">
        <ele>582.20001220703</ele>
        <time>2023-07-30T09:52:08.000Z</time>
      </trkpt>
      <trkpt lat="43.72466" lon="7.05682">
        <ele>582.40002441406</ele>
        <time>2023-07-30T09:52:09.000Z</time>
      </trkpt>
      <trkpt lat="43.72466" lon="7.05682">
        <ele>582.40002441406</ele>
        <time>2023-07-30T09:52:10.000Z</time>
      </trkpt>
      <trkpt lat="43.72466" lon="7.05682">
        <ele>582.40002441406</ele>
        <time>2023-07-30T09:52:11.000Z</time>
      </trkpt>
      <trkpt lat="43.72466" lon="7.05682">
        <ele>582.40002441406</ele>
        <time>2023-07-30T09:52:12.000Z</time>
      </trkpt>
      <trkpt lat="43.72466" lon="7.05682">
        <ele>582.40002441406</ele>
        <time>2023-07-30T09:52:13.000Z</time>
      </trkpt>
      <trkpt lat="43.72466" lon="7.05682">
        <ele>582.40002441406</ele>
        <time>2023-07-30T09:52:14.000Z</time>
      </trkpt>
      <trkpt lat="43.72466" lon="7.05682">
        <ele>582.40002441406</ele>
        <time>2023-07-30T09:52:15.000Z</time>
      </trkpt>
      <trkpt lat="43.72466" lon="7.05682">
        <ele>582.40002441406</ele>
        <time>2023-07-30T09:52:16.000Z</time>
      </trkpt>
      <trkpt lat="43.72466" lon="7.05682">
        <ele>582.40002441406</ele>
        <time>2023-07-30T09:52:17.000Z</time>
      </trkpt>
      <trkpt lat="43.72466" lon="7.05682">
        <ele>582.59997558594</ele>
        <time>2023-07-30T09:52:18.000Z</time>
      </trkpt>
      <trkpt lat="43.72467" lon="7.05682">
        <ele>582.59997558594</ele>
        <time>2023-07-30T09:52:19.000Z</time>
      </trkpt>
      <trkpt lat="43.72468" lon="7.05682">
        <ele>582.59997558594</ele>
        <time>2023-07-30T09:52:20.000Z</time>
      </trkpt>
      <trkpt lat="43.72469" lon="7.05681">
        <ele>582.59997558594</ele>
        <time>2023-07-30T09:52:21.000Z</time>
      </trkpt>
      <trkpt lat="43.72471" lon="7.0568">
        <ele>582.59997558594</ele>
        <time>2023-07-30T09:52:22.000Z</time>
      </trkpt>
      <trkpt lat="43.72472" lon="7.05678">
        <ele>582.59997558594</ele>
        <time>2023-07-30T09:52:23.000Z</time>
      </trkpt>
      <trkpt lat="43.72474" lon="7.05677">
        <ele>582.59997558594</ele>
        <time>2023-07-30T09:52:24.000Z</time>
      </trkpt>
      <trkpt lat="43.72476" lon="7.05676">
        <ele>582.59997558594</ele>
        <time>2023-07-30T09:52:25.000Z</time>
      </trkpt>
      <trkpt lat="43.72478" lon="7.05675">
        <ele>582.79998779297</ele>
        <time>2023-07-30T09:52:26.000Z</time>
      </trkpt>
      <trkpt lat="43.72479" lon="7.05674">
        <ele>583</ele>
        <time>2023-07-30T09:52:27.000Z</time>
      </trkpt>
      <trkpt lat="43.72481" lon="7.05672">
        <ele>583.40002441406</ele>
        <time>2023-07-30T09:52:28.000Z</time>
      </trkpt>
      <trkpt lat="43.72482" lon="7.05671">
        <ele>583.40002441406</ele>
        <time>2023-07-30T09:52:29.000Z</time>
      </trkpt>
      <trkpt lat="43.72483" lon="7.05669">
        <ele>583.59997558594</ele>
        <time>2023-07-30T09:52:30.000Z</time>
      </trkpt>
      <trkpt lat="43.72485" lon="7.05667">
        <ele>583.79998779297</ele>
        <time>2023-07-30T09:52:31.000Z</time>
      </trkpt>
      <trkpt lat="43.72487" lon="7.05665">
        <ele>584.20001220703</ele>
        <time>2023-07-30T09:52:32.000Z</time>
      </trkpt>
      <trkpt lat="43.72489" lon="7.05663">
        <ele>584.20001220703</ele>
        <time>2023-07-30T09:52:33.000Z</time>
      </trkpt>
      <trkpt lat="43.72491" lon="7.0566">
        <ele>584.59997558594</ele>
        <time>2023-07-30T09:52:34.000Z</time>
      </trkpt>
      <trkpt lat="43.72494" lon="7.05659">
        <ele>585</ele>
        <time>2023-07-30T09:52:35.000Z</time>
      </trkpt>
      <trkpt lat="43.72495" lon="7.05657">
        <ele>585</ele>
        <time>2023-07-30T09:52:36.000Z</time>
      </trkpt>
      <trkpt lat="43.72497" lon="7.05655">
        <ele>585.20001220703</ele>
        <time>2023-07-30T09:52:37.000Z</time>
      </trkpt>
      <trkpt lat="43.72499" lon="7.05654">
        <ele>585.40002441406</ele>
        <time>2023-07-30T09:52:38.000Z</time>
      </trkpt>
      <trkpt lat="43.72501" lon="7.05652">
        <ele>585.79998779297</ele>
        <time>2023-07-30T09:52:39.000Z</time>
      </trkpt>
      <trkpt lat="43.72503" lon="7.05651">
        <ele>587</ele>
        <time>2023-07-30T09:52:40.000Z</time>
      </trkpt>
      <trkpt lat="43.72505" lon="7.0565">
        <ele>587</ele>
        <time>2023-07-30T09:52:41.000Z</time>
      </trkpt>
      <trkpt lat="43.72507" lon="7.05648">
        <ele>587.20001220703</ele>
        <time>2023-07-30T09:52:42.000Z</time>
      </trkpt>
      <trkpt lat="43.72509" lon="7.05646">
        <ele>587.40002441406</ele>
        <time>2023-07-30T09:52:43.000Z</time>
      </trkpt>
      <trkpt lat="43.7251" lon="7.05644">
        <ele>587.79998779297</ele>
        <time>2023-07-30T09:52:44.000Z</time>
      </trkpt>
      <trkpt lat="43.72511" lon="7.05641">
        <ele>588</ele>
        <time>2023-07-30T09:52:45.000Z</time>
      </trkpt>
      <trkpt lat="43.72513" lon="7.05638">
        <ele>588.40002441406</ele>
        <time>2023-07-30T09:52:46.000Z</time>
      </trkpt>
      <trkpt lat="43.72515" lon="7.05637">
        <ele>589</ele>
        <time>2023-07-30T09:52:47.000Z</time>
      </trkpt>
      <trkpt lat="43.72517" lon="7.05636">
        <ele>589.40002441406</ele>
        <time>2023-07-30T09:52:48.000Z</time>
      </trkpt>
      <trkpt lat="43.72519" lon="7.05634">
        <ele>589.79998779297</ele>
        <time>2023-07-30T09:52:49.000Z</time>
      </trkpt>
      <trkpt lat="43.72521" lon="7.05633">
        <ele>590.40002441406</ele>
        <time>2023-07-30T09:52:50.000Z</time>
      </trkpt>
      <trkpt lat="43.72522" lon="7.05631">
        <ele>590.79998779297</ele>
        <time>2023-07-30T09:52:51.000Z</time>
      </trkpt>
      <trkpt lat="43.72525" lon="7.05629">
        <ele>591.20001220703</ele>
        <time>2023-07-30T09:52:52.000Z</time>
      </trkpt>
      <trkpt lat="43.72527" lon="7.05628">
        <ele>591.59997558594</ele>
        <time>2023-07-30T09:52:53.000Z</time>
      </trkpt>
      <trkpt lat="43.72529" lon="7.05627">
        <ele>592.40002441406</ele>
        <time>2023-07-30T09:52:54.000Z</time>
      </trkpt>
      <trkpt lat="43.72531" lon="7.05627">
        <ele>593</ele>
        <time>2023-07-30T09:52:55.000Z</time>
      </trkpt>
      <trkpt lat="43.72534" lon="7.05627">
        <ele>593.59997558594</ele>
        <time>2023-07-30T09:52:56.000Z</time>
      </trkpt>
      <trkpt lat="43.72536" lon="7.05627">
        <ele>594.20001220703</ele>
        <time>2023-07-30T09:52:57.000Z</time>
      </trkpt>
      <trkpt lat="43.72539" lon="7.05627">
        <ele>594.59997558594</ele>
        <time>2023-07-30T09:52:58.000Z</time>
      </trkpt>
      <trkpt lat="43.72541" lon="7.05629">
        <ele>595</ele>
        <time>2023-07-30T09:52:59.000Z</time>
      </trkpt>
      <trkpt lat="43.72542" lon="7.05631">
        <ele>595.40002441406</ele>
        <time>2023-07-30T09:53:00.000Z</time>
      </trkpt>
      <trkpt lat="43.72543" lon="7.05632">
        <ele>595.79998779297</ele>
        <time>2023-07-30T09:53:01.000Z</time>
      </trkpt>
      <trkpt lat="43.72544" lon="7.05634">
        <ele>596.59997558594</ele>
        <time>2023-07-30T09:53:02.000Z</time>
      </trkpt>
      <trkpt lat="43.72545" lon="7.05636">
        <ele>596.59997558594</ele>
        <time>2023-07-30T09:53:03.000Z</time>
      </trkpt>
      <trkpt lat="43.72546" lon="7.05639">
        <ele>597</ele>
        <time>2023-07-30T09:53:04.000Z</time>
      </trkpt>
      <trkpt lat="43.72547" lon="7.05641">
        <ele>597.40002441406</ele>
        <time>2023-07-30T09:53:05.000Z</time>
      </trkpt>
      <trkpt lat="43.72548" lon="7.05643">
        <ele>597.79998779297</ele>
        <time>2023-07-30T09:53:06.000Z</time>
      </trkpt>
      <trkpt lat="43.72548" lon="7.05645">
        <ele>598</ele>
        <time>2023-07-30T09:53:07.000Z</time>
      </trkpt>
      <trkpt lat="43.72548" lon="7.05646">
        <ele>598.20001220703</ele>
        <time>2023-07-30T09:53:08.000Z</time>
      </trkpt>
      <trkpt lat="43.72548" lon="7.05648">
        <ele>598.59997558594</ele>
        <time>2023-07-30T09:53:09.000Z</time>
      </trkpt>
      <trkpt lat="43.72548" lon="7.0565">
        <ele>598.59997558594</ele>
        <time>2023-07-30T09:53:10.000Z</time>
      </trkpt>
      <trkpt lat="43.72549" lon="7.05653">
        <ele>598.79998779297</ele>
        <time>2023-07-30T09:53:11.000Z</time>
      </trkpt>
      <trkpt lat="43.7255" lon="7.05655">
        <ele>598.79998779297</ele>
        <time>2023-07-30T09:53:12.000Z</time>
      </trkpt>
      <trkpt lat="43.72551" lon="7.05658">
        <ele>598.79998779297</ele>
        <time>2023-07-30T09:53:13.000Z</time>
      </trkpt>
      <trkpt lat="43.72552" lon="7.0566">
        <ele>598.79998779297</ele>
        <time>2023-07-30T09:53:14.000Z</time>
      </trkpt>
      <trkpt lat="43.72553" lon="7.05662">
        <ele>599</ele>
        <time>2023-07-30T09:53:15.000Z</time>
      </trkpt>
      <trkpt lat="43.72554" lon="7.05663">
        <ele>599</ele>
        <time>2023-07-30T09:53:16.000Z</time>
      </trkpt>
      <trkpt lat="43.72556" lon="7.05663">
        <ele>599.59997558594</ele>
        <time>2023-07-30T09:53:17.000Z</time>
      </trkpt>
      <trkpt lat="43.72557" lon="7.05663">
        <ele>600</ele>
        <time>2023-07-30T09:53:18.000Z</time>
      </trkpt>
      <trkpt lat="43.72558" lon="7.05663">
        <ele>600.20001220703</ele>
        <time>2023-07-30T09:53:19.000Z</time>
      </trkpt>
      <trkpt lat="43.72559" lon="7.05664">
        <ele>600.79998779297</ele>
        <time>2023-07-30T09:53:20.000Z</time>
      </trkpt>
      <trkpt lat="43.72559" lon="7.05665">
        <ele>601.20001220703</ele>
        <time>2023-07-30T09:53:21.000Z</time>
      </trkpt>
      <trkpt lat="43.72559" lon="7.05665">
        <ele>601.59997558594</ele>
        <time>2023-07-30T09:53:22.000Z</time>
      </trkpt>
      <trkpt lat="43.72559" lon="7.05665">
        <ele>601.59997558594</ele>
        <time>2023-07-30T09:53:23.000Z</time>
      </trkpt>
      <trkpt lat="43.72559" lon="7.05664">
        <ele>601.79998779297</ele>
        <time>2023-07-30T09:53:24.000Z</time>
      </trkpt>
      <trkpt lat="43.72559" lon="7.05664">
        <ele>602</ele>
        <time>2023-07-30T09:53:25.000Z</time>
      </trkpt>
      <trkpt lat="43.72559" lon="7.05664">
        <ele>602</ele>
        <time>2023-07-30T09:53:26.000Z</time>
      </trkpt>
      <trkpt lat="43.72559" lon="7.05664">
        <ele>602</ele>
        <time>2023-07-30T09:53:27.000Z</time>
      </trkpt>
      <trkpt lat="43.72559" lon="7.05664">
        <ele>602</ele>
        <time>2023-07-30T09:53:28.000Z</time>
      </trkpt>
      <trkpt lat="43.72559" lon="7.05664">
        <ele>602</ele>
        <time>2023-07-30T09:53:29.000Z</time>
      </trkpt>
      <trkpt lat="43.72559" lon="7.05665">
        <ele>602</ele>
        <time>2023-07-30T09:53:30.000Z</time>
      </trkpt>
      <trkpt lat="43.72559" lon="7.05663">
        <ele>602</ele>
        <time>2023-07-30T09:53:31.000Z</time>
      </trkpt>
      <trkpt lat="43.7256" lon="7.05664">
        <ele>602</ele>
        <time>2023-07-30T09:53:32.000Z</time>
      </trkpt>
      <trkpt lat="43.7256" lon="7.05664">
        <ele>602</ele>
        <time>2023-07-30T09:53:33.000Z</time>
      </trkpt>
      <trkpt lat="43.72561" lon="7.05665">
        <ele>602</ele>
        <time>2023-07-30T09:53:34.000Z</time>
      </trkpt>
      <trkpt lat="43.72562" lon="7.05665">
        <ele>602</ele>
        <time>2023-07-30T09:53:35.000Z</time>
      </trkpt>
      <trkpt lat="43.72562" lon="7.05665">
        <ele>602</ele>
        <time>2023-07-30T09:53:36.000Z</time>
      </trkpt>
      <trkpt lat="43.72562" lon="7.05665">
        <ele>602.20001220703</ele>
        <time>2023-07-30T09:53:37.000Z</time>
      </trkpt>
      <trkpt lat="43.72562" lon="7.05665">
        <ele>602.40002441406</ele>
        <time>2023-07-30T09:53:38.000Z</time>
      </trkpt>
      <trkpt lat="43.72562" lon="7.05665">
        <ele>602.40002441406</ele>
        <time>2023-07-30T09:53:39.000Z</time>
      </trkpt>
      <trkpt lat="43.72563" lon="7.05665">
        <ele>602.59997558594</ele>
        <time>2023-07-30T09:53:40.000Z</time>
      </trkpt>
      <trkpt lat="43.72564" lon="7.05665">
        <ele>602.59997558594</ele>
        <time>2023-07-30T09:53:41.000Z</time>
      </trkpt>
      <trkpt lat="43.72565" lon="7.05665">
        <ele>602.59997558594</ele>
        <time>2023-07-30T09:53:42.000Z</time>
      </trkpt>
      <trkpt lat="43.72565" lon="7.05665">
        <ele>602.59997558594</ele>
        <time>2023-07-30T09:53:43.000Z</time>
      </trkpt>
      <trkpt lat="43.72565" lon="7.05665">
        <ele>602.59997558594</ele>
        <time>2023-07-30T09:53:44.000Z</time>
      </trkpt>
      <trkpt lat="43.72565" lon="7.05665">
        <ele>602.59997558594</ele>
        <time>2023-07-30T09:53:45.000Z</time>
      </trkpt>
      <trkpt lat="43.72565" lon="7.05665">
        <ele>602.40002441406</ele>
        <time>2023-07-30T09:53:46.000Z</time>
      </trkpt>
      <trkpt lat="43.72565" lon="7.05665">
        <ele>602.40002441406</ele>
        <time>2023-07-30T09:53:47.000Z</time>
      </trkpt>
      <trkpt lat="43.72565" lon="7.05665">
        <ele>602.40002441406</ele>
        <time>2023-07-30T09:53:48.000Z</time>
      </trkpt>
      <trkpt lat="43.72565" lon="7.05665">
        <ele>602.40002441406</ele>
        <time>2023-07-30T09:53:49.000Z</time>
      </trkpt>
      <trkpt lat="43.72565" lon="7.05665">
        <ele>602.40002441406</ele>
        <time>2023-07-30T09:53:50.000Z</time>
      </trkpt>
      <trkpt lat="43.72565" lon="7.05665">
        <ele>602.40002441406</ele>
        <time>2023-07-30T09:53:51.000Z</time>
      </trkpt>
      <trkpt lat="43.72565" lon="7.05665">
        <ele>602.40002441406</ele>
        <time>2023-07-30T09:53:52.000Z</time>
      </trkpt>
      <trkpt lat="43.72565" lon="7.05665">
        <ele>602.40002441406</ele>
        <time>2023-07-30T09:53:53.000Z</time>
      </trkpt>
      <trkpt lat="43.72565" lon="7.05665">
        <ele>602.40002441406</ele>
        <time>2023-07-30T09:53:54.000Z</time>
      </trkpt>
      <trkpt lat="43.72565" lon="7.05665">
        <ele>602.40002441406</ele>
        <time>2023-07-30T09:53:55.000Z</time>
      </trkpt>
      <trkpt lat="43.72565" lon="7.05667">
        <ele>602.40002441406</ele>
        <time>2023-07-30T09:53:56.000Z</time>
      </trkpt>
      <trkpt lat="43.72565" lon="7.05667">
        <ele>602.40002441406</ele>
        <time>2023-07-30T09:53:57.000Z</time>
      </trkpt>
      <trkpt lat="43.72565" lon="7.05666">
        <ele>602.40002441406</ele>
        <time>2023-07-30T09:53:58.000Z</time>
      </trkpt>
      <trkpt lat="43.72565" lon="7.05666">
        <ele>602.40002441406</ele>
        <time>2023-07-30T09:53:59.000Z</time>
      </trkpt>
      <trkpt lat="43.72565" lon="7.05666">
        <ele>602.40002441406</ele>
        <time>2023-07-30T09:54:00.000Z</time>
      </trkpt>
      <trkpt lat="43.72565" lon="7.05666">
        <ele>602.40002441406</ele>
        <time>2023-07-30T09:54:01.000Z</time>
      </trkpt>
      <trkpt lat="43.72565" lon="7.05666">
        <ele>602.40002441406</ele>
        <time>2023-07-30T09:54:02.000Z</time>
      </trkpt>
      <trkpt lat="43.72565" lon="7.05666">
        <ele>602.40002441406</ele>
        <time>2023-07-30T09:54:03.000Z</time>
      </trkpt>
      <trkpt lat="43.72565" lon="7.05666">
        <ele>602.40002441406</ele>
        <time>2023-07-30T09:54:04.000Z</time>
      </trkpt>
      <trkpt lat="43.72565" lon="7.05666">
        <ele>602.40002441406</ele>
        <time>2023-07-30T09:54:05.000Z</time>
      </trkpt>
      <trkpt lat="43.72565" lon="7.05666">
        <ele>602.40002441406</ele>
        <time>2023-07-30T09:54:06.000Z</time>
      </trkpt>
      <trkpt lat="43.72565" lon="7.05666">
        <ele>602.40002441406</ele>
        <time>2023-07-30T09:54:07.000Z</time>
      </trkpt>
      <trkpt lat="43.72565" lon="7.05666">
        <ele>602.40002441406</ele>
        <time>2023-07-30T09:54:08.000Z</time>
      </trkpt>
      <trkpt lat="43.72565" lon="7.05666">
        <ele>602.40002441406</ele>
        <time>2023-07-30T09:54:09.000Z</time>
      </trkpt>
      <trkpt lat="43.72565" lon="7.05665">
        <ele>602.40002441406</ele>
        <time>2023-07-30T09:54:10.000Z</time>
      </trkpt>
      <trkpt lat="43.72565" lon="7.05664">
        <ele>602.40002441406</ele>
        <time>2023-07-30T09:54:11.000Z</time>
      </trkpt>
      <trkpt lat="43.72565" lon="7.05664">
        <ele>602.40002441406</ele>
        <time>2023-07-30T09:54:12.000Z</time>
      </trkpt>
      <trkpt lat="43.72564" lon="7.05664">
        <ele>602.40002441406</ele>
        <time>2023-07-30T09:54:13.000Z</time>
      </trkpt>
      <trkpt lat="43.72564" lon="7.05664">
        <ele>602.40002441406</ele>
        <time>2023-07-30T09:54:14.000Z</time>
      </trkpt>
      <trkpt lat="43.72564" lon="7.05664">
        <ele>602.40002441406</ele>
        <time>2023-07-30T09:54:15.000Z</time>
      </trkpt>
      <trkpt lat="43.72564" lon="7.05664">
        <ele>602.40002441406</ele>
        <time>2023-07-30T09:54:16.000Z</time>
      </trkpt>
      <trkpt lat="43.72564" lon="7.05664">
        <ele>602.40002441406</ele>
        <time>2023-07-30T09:54:17.000Z</time>
      </trkpt>
      <trkpt lat="43.72564" lon="7.05664">
        <ele>602.20001220703</ele>
        <time>2023-07-30T09:54:18.000Z</time>
      </trkpt>
      <trkpt lat="43.72564" lon="7.05664">
        <ele>602</ele>
        <time>2023-07-30T09:54:19.000Z</time>
      </trkpt>
      <trkpt lat="43.72564" lon="7.05664">
        <ele>601.79998779297</ele>
        <time>2023-07-30T09:54:20.000Z</time>
      </trkpt>
      <trkpt lat="43.72564" lon="7.05664">
        <ele>601.79998779297</ele>
        <time>2023-07-30T09:54:21.000Z</time>
      </trkpt>
      <trkpt lat="43.72564" lon="7.05664">
        <ele>601.59997558594</ele>
        <time>2023-07-30T09:54:22.000Z</time>
      </trkpt>
      <trkpt lat="43.72564" lon="7.05664">
        <ele>601.59997558594</ele>
        <time>2023-07-30T09:54:23.000Z</time>
      </trkpt>
      <trkpt lat="43.72564" lon="7.05664">
        <ele>601.59997558594</ele>
        <time>2023-07-30T09:54:24.000Z</time>
      </trkpt>
      <trkpt lat="43.72564" lon="7.05664">
        <ele>601.40002441406</ele>
        <time>2023-07-30T09:54:25.000Z</time>
      </trkpt>
      <trkpt lat="43.72564" lon="7.05664">
        <ele>601.40002441406</ele>
        <time>2023-07-30T09:54:26.000Z</time>
      </trkpt>
      <trkpt lat="43.72564" lon="7.05664">
        <ele>601.40002441406</ele>
        <time>2023-07-30T09:54:27.000Z</time>
      </trkpt>
      <trkpt lat="43.72564" lon="7.05664">
        <ele>601.40002441406</ele>
        <time>2023-07-30T09:54:28.000Z</time>
      </trkpt>
      <trkpt lat="43.72564" lon="7.05664">
        <ele>601.59997558594</ele>
        <time>2023-07-30T09:54:29.000Z</time>
      </trkpt>
      <trkpt lat="43.72564" lon="7.05664">
        <ele>601.59997558594</ele>
        <time>2023-07-30T09:54:30.000Z</time>
      </trkpt>
      <trkpt lat="43.72564" lon="7.05664">
        <ele>601.59997558594</ele>
        <time>2023-07-30T09:54:31.000Z</time>
      </trkpt>
      <trkpt lat="43.72564" lon="7.05664">
        <ele>601.59997558594</ele>
        <time>2023-07-30T09:54:32.000Z</time>
      </trkpt>
      <trkpt lat="43.72564" lon="7.05664">
        <ele>601.59997558594</ele>
        <time>2023-07-30T09:54:33.000Z</time>
      </trkpt>
      <trkpt lat="43.72564" lon="7.05664">
        <ele>601.59997558594</ele>
        <time>2023-07-30T09:54:34.000Z</time>
      </trkpt>
      <trkpt lat="43.72564" lon="7.05664">
        <ele>601.59997558594</ele>
        <time>2023-07-30T09:54:35.000Z</time>
      </trkpt>
      <trkpt lat="43.72564" lon="7.05664">
        <ele>601.59997558594</ele>
        <time>2023-07-30T09:54:36.000Z</time>
      </trkpt>
      <trkpt lat="43.72564" lon="7.05664">
        <ele>601.40002441406</ele>
        <time>2023-07-30T09:54:37.000Z</time>
      </trkpt>
      <trkpt lat="43.72564" lon="7.05664">
        <ele>601.40002441406</ele>
        <time>2023-07-30T09:54:38.000Z</time>
      </trkpt>
      <trkpt lat="43.72564" lon="7.05664">
        <ele>601.40002441406</ele>
        <time>2023-07-30T09:54:39.000Z</time>
      </trkpt>
      <trkpt lat="43.72564" lon="7.05664">
        <ele>601.40002441406</ele>
        <time>2023-07-30T09:54:40.000Z</time>
      </trkpt>
      <trkpt lat="43.72564" lon="7.05664">
        <ele>601.40002441406</ele>
        <time>2023-07-30T09:54:41.000Z</time>
      </trkpt>
      <trkpt lat="43.72564" lon="7.05664">
        <ele>601.40002441406</ele>
        <time>2023-07-30T09:54:42.000Z</time>
      </trkpt>
      <trkpt lat="43.72564" lon="7.05664">
        <ele>601.40002441406</ele>
        <time>2023-07-30T09:54:43.000Z</time>
      </trkpt>
      <trkpt lat="43.72564" lon="7.05664">
        <ele>601.40002441406</ele>
        <time>2023-07-30T09:54:44.000Z</time>
      </trkpt>
      <trkpt lat="43.72564" lon="7.05664">
        <ele>601.20001220703</ele>
        <time>2023-07-30T09:54:45.000Z</time>
      </trkpt>
      <trkpt lat="43.72564" lon="7.05664">
        <ele>601.20001220703</ele>
        <time>2023-07-30T09:54:46.000Z</time>
      </trkpt>
      <trkpt lat="43.72565" lon="7.05664">
        <ele>601.20001220703</ele>
        <time>2023-07-30T09:54:47.000Z</time>
      </trkpt>
      <trkpt lat="43.72565" lon="7.05664">
        <ele>601.20001220703</ele>
        <time>2023-07-30T09:54:48.000Z</time>
      </trkpt>
      <trkpt lat="43.72565" lon="7.05664">
        <ele>601.40002441406</ele>
        <time>2023-07-30T09:54:49.000Z</time>
      </trkpt>
      <trkpt lat="43.72565" lon="7.05664">
        <ele>601.40002441406</ele>
        <time>2023-07-30T09:54:50.000Z</time>
      </trkpt>
      <trkpt lat="43.72565" lon="7.05664">
        <ele>601.40002441406</ele>
        <time>2023-07-30T09:54:51.000Z</time>
      </trkpt>
      <trkpt lat="43.72565" lon="7.05665">
        <ele>601.59997558594</ele>
        <time>2023-07-30T09:54:52.000Z</time>
      </trkpt>
      <trkpt lat="43.72564" lon="7.05664">
        <ele>601.59997558594</ele>
        <time>2023-07-30T09:54:53.000Z</time>
      </trkpt>
      <trkpt lat="43.72564" lon="7.05665">
        <ele>601.59997558594</ele>
        <time>2023-07-30T09:54:54.000Z</time>
      </trkpt>
      <trkpt lat="43.72565" lon="7.05664">
        <ele>601.59997558594</ele>
        <time>2023-07-30T09:54:55.000Z</time>
      </trkpt>
      <trkpt lat="43.72566" lon="7.05664">
        <ele>601.59997558594</ele>
        <time>2023-07-30T09:54:56.000Z</time>
      </trkpt>
      <trkpt lat="43.72567" lon="7.05664">
        <ele>601.59997558594</ele>
        <time>2023-07-30T09:54:57.000Z</time>
      </trkpt>
      <trkpt lat="43.72567" lon="7.05662">
        <ele>601.59997558594</ele>
        <time>2023-07-30T09:54:58.000Z</time>
      </trkpt>
      <trkpt lat="43.72568" lon="7.05661">
        <ele>601.59997558594</ele>
        <time>2023-07-30T09:54:59.000Z</time>
      </trkpt>
      <trkpt lat="43.72569" lon="7.05659">
        <ele>601.59997558594</ele>
        <time>2023-07-30T09:55:00.000Z</time>
      </trkpt>
      <trkpt lat="43.7257" lon="7.05657">
        <ele>601.59997558594</ele>
        <time>2023-07-30T09:55:01.000Z</time>
      </trkpt>
      <trkpt lat="43.72571" lon="7.05654">
        <ele>601.79998779297</ele>
        <time>2023-07-30T09:55:02.000Z</time>
      </trkpt>
      <trkpt lat="43.72573" lon="7.05651">
        <ele>601.79998779297</ele>
        <time>2023-07-30T09:55:03.000Z</time>
      </trkpt>
      <trkpt lat="43.72574" lon="7.05648">
        <ele>601.79998779297</ele>
        <time>2023-07-30T09:55:04.000Z</time>
      </trkpt>
      <trkpt lat="43.72575" lon="7.05647">
        <ele>602.20001220703</ele>
        <time>2023-07-30T09:55:05.000Z</time>
      </trkpt>
      <trkpt lat="43.72577" lon="7.05646">
        <ele>602.40002441406</ele>
        <time>2023-07-30T09:55:06.000Z</time>
      </trkpt>
      <trkpt lat="43.72579" lon="7.05648">
        <ele>603</ele>
        <time>2023-07-30T09:55:07.000Z</time>
      </trkpt>
      <trkpt lat="43.7258" lon="7.05648">
        <ele>603</ele>
        <time>2023-07-30T09:55:08.000Z</time>
      </trkpt>
      <trkpt lat="43.72582" lon="7.05648">
        <ele>603</ele>
        <time>2023-07-30T09:55:09.000Z</time>
      </trkpt>
      <trkpt lat="43.72585" lon="7.05648">
        <ele>603</ele>
        <time>2023-07-30T09:55:10.000Z</time>
      </trkpt>
      <trkpt lat="43.72588" lon="7.05647">
        <ele>603</ele>
        <time>2023-07-30T09:55:11.000Z</time>
      </trkpt>
      <trkpt lat="43.72591" lon="7.05647">
        <ele>603</ele>
        <time>2023-07-30T09:55:12.000Z</time>
      </trkpt>
      <trkpt lat="43.72593" lon="7.05646">
        <ele>602.79998779297</ele>
        <time>2023-07-30T09:55:13.000Z</time>
      </trkpt>
      <trkpt lat="43.72596" lon="7.05645">
        <ele>602.79998779297</ele>
        <time>2023-07-30T09:55:14.000Z</time>
      </trkpt>
      <trkpt lat="43.72599" lon="7.05645">
        <ele>602.79998779297</ele>
        <time>2023-07-30T09:55:15.000Z</time>
      </trkpt>
      <trkpt lat="43.72601" lon="7.05646">
        <ele>602.79998779297</ele>
        <time>2023-07-30T09:55:16.000Z</time>
      </trkpt>
      <trkpt lat="43.72602" lon="7.05648">
        <ele>603</ele>
        <time>2023-07-30T09:55:17.000Z</time>
      </trkpt>
      <trkpt lat="43.72604" lon="7.05649">
        <ele>603.20001220703</ele>
        <time>2023-07-30T09:55:18.000Z</time>
      </trkpt>
      <trkpt lat="43.72606" lon="7.05649">
        <ele>603.20001220703</ele>
        <time>2023-07-30T09:55:19.000Z</time>
      </trkpt>
      <trkpt lat="43.72608" lon="7.0565">
        <ele>603.59997558594</ele>
        <time>2023-07-30T09:55:20.000Z</time>
      </trkpt>
      <trkpt lat="43.72609" lon="7.0565">
        <ele>603.59997558594</ele>
        <time>2023-07-30T09:55:21.000Z</time>
      </trkpt>
      <trkpt lat="43.72612" lon="7.0565">
        <ele>604.20001220703</ele>
        <time>2023-07-30T09:55:22.000Z</time>
      </trkpt>
      <trkpt lat="43.72615" lon="7.05651">
        <ele>604.20001220703</ele>
        <time>2023-07-30T09:55:23.000Z</time>
      </trkpt>
      <trkpt lat="43.72617" lon="7.05652">
        <ele>604.20001220703</ele>
        <time>2023-07-30T09:55:24.000Z</time>
      </trkpt>
      <trkpt lat="43.72619" lon="7.05652">
        <ele>604.20001220703</ele>
        <time>2023-07-30T09:55:25.000Z</time>
      </trkpt>
      <trkpt lat="43.72621" lon="7.05652">
        <ele>604</ele>
        <time>2023-07-30T09:55:26.000Z</time>
      </trkpt>
      <trkpt lat="43.72622" lon="7.05652">
        <ele>603.79998779297</ele>
        <time>2023-07-30T09:55:27.000Z</time>
      </trkpt>
      <trkpt lat="43.72624" lon="7.05652">
        <ele>603.79998779297</ele>
        <time>2023-07-30T09:55:28.000Z</time>
      </trkpt>
      <trkpt lat="43.72626" lon="7.05653">
        <ele>603.79998779297</ele>
        <time>2023-07-30T09:55:29.000Z</time>
      </trkpt>
      <trkpt lat="43.72628" lon="7.05653">
        <ele>603.79998779297</ele>
        <time>2023-07-30T09:55:30.000Z</time>
      </trkpt>
      <trkpt lat="43.72629" lon="7.05655">
        <ele>603.79998779297</ele>
        <time>2023-07-30T09:55:31.000Z</time>
      </trkpt>
      <trkpt lat="43.7263" lon="7.05657">
        <ele>603.79998779297</ele>
        <time>2023-07-30T09:55:32.000Z</time>
      </trkpt>
      <trkpt lat="43.72632" lon="7.0566">
        <ele>603.59997558594</ele>
        <time>2023-07-30T09:55:33.000Z</time>
      </trkpt>
      <trkpt lat="43.72633" lon="7.05661">
        <ele>603.79998779297</ele>
        <time>2023-07-30T09:55:34.000Z</time>
      </trkpt>
      <trkpt lat="43.72635" lon="7.05662">
        <ele>603.79998779297</ele>
        <time>2023-07-30T09:55:35.000Z</time>
      </trkpt>
      <trkpt lat="43.72636" lon="7.05665">
        <ele>603.79998779297</ele>
        <time>2023-07-30T09:55:36.000Z</time>
      </trkpt>
      <trkpt lat="43.72637" lon="7.05668">
        <ele>604.40002441406</ele>
        <time>2023-07-30T09:55:37.000Z</time>
      </trkpt>
      <trkpt lat="43.72637" lon="7.05668">
        <ele>604.40002441406</ele>
        <time>2023-07-30T09:55:38.000Z</time>
      </trkpt>
      <trkpt lat="43.72637" lon="7.05668">
        <ele>604.59997558594</ele>
        <time>2023-07-30T09:55:39.000Z</time>
      </trkpt>
      <trkpt lat="43.72637" lon="7.05669">
        <ele>604.79998779297</ele>
        <time>2023-07-30T09:55:40.000Z</time>
      </trkpt>
      <trkpt lat="43.72637" lon="7.05669">
        <ele>604.79998779297</ele>
        <time>2023-07-30T09:55:41.000Z</time>
      </trkpt>
      <trkpt lat="43.72637" lon="7.05669">
        <ele>604.79998779297</ele>
        <time>2023-07-30T09:55:42.000Z</time>
      </trkpt>
      <trkpt lat="43.72637" lon="7.05669">
        <ele>605</ele>
        <time>2023-07-30T09:55:43.000Z</time>
      </trkpt>
      <trkpt lat="43.72637" lon="7.05669">
        <ele>605</ele>
        <time>2023-07-30T09:55:44.000Z</time>
      </trkpt>
      <trkpt lat="43.72637" lon="7.05669">
        <ele>604.79998779297</ele>
        <time>2023-07-30T09:55:45.000Z</time>
      </trkpt>
      <trkpt lat="43.72637" lon="7.05669">
        <ele>604.59997558594</ele>
        <time>2023-07-30T09:55:46.000Z</time>
      </trkpt>
      <trkpt lat="43.72637" lon="7.05669">
        <ele>604.59997558594</ele>
        <time>2023-07-30T09:55:47.000Z</time>
      </trkpt>
      <trkpt lat="43.72637" lon="7.05669">
        <ele>604.59997558594</ele>
        <time>2023-07-30T09:55:48.000Z</time>
      </trkpt>
      <trkpt lat="43.72637" lon="7.05669">
        <ele>604.59997558594</ele>
        <time>2023-07-30T09:55:49.000Z</time>
      </trkpt>
      <trkpt lat="43.72637" lon="7.05669">
        <ele>604.59997558594</ele>
        <time>2023-07-30T09:55:50.000Z</time>
      </trkpt>
      <trkpt lat="43.72637" lon="7.05669">
        <ele>604.40002441406</ele>
        <time>2023-07-30T09:55:51.000Z</time>
      </trkpt>
      <trkpt lat="43.72637" lon="7.05669">
        <ele>604.40002441406</ele>
        <time>2023-07-30T09:55:52.000Z</time>
      </trkpt>
      <trkpt lat="43.72637" lon="7.05669">
        <ele>604.40002441406</ele>
        <time>2023-07-30T09:55:53.000Z</time>
      </trkpt>
      <trkpt lat="43.72637" lon="7.05669">
        <ele>604.40002441406</ele>
        <time>2023-07-30T09:55:54.000Z</time>
      </trkpt>
      <trkpt lat="43.72637" lon="7.05669">
        <ele>604.40002441406</ele>
        <time>2023-07-30T09:55:55.000Z</time>
      </trkpt>
      <trkpt lat="43.72637" lon="7.05669">
        <ele>604.40002441406</ele>
        <time>2023-07-30T09:55:56.000Z</time>
      </trkpt>
      <trkpt lat="43.72637" lon="7.05669">
        <ele>604.40002441406</ele>
        <time>2023-07-30T09:55:57.000Z</time>
      </trkpt>
      <trkpt lat="43.72637" lon="7.05669">
        <ele>604.40002441406</ele>
        <time>2023-07-30T09:55:58.000Z</time>
      </trkpt>
      <trkpt lat="43.72637" lon="7.05669">
        <ele>604.40002441406</ele>
        <time>2023-07-30T09:55:59.000Z</time>
      </trkpt>
      <trkpt lat="43.72637" lon="7.05669">
        <ele>604.40002441406</ele>
        <time>2023-07-30T09:56:00.000Z</time>
      </trkpt>
      <trkpt lat="43.72637" lon="7.05669">
        <ele>604.40002441406</ele>
        <time>2023-07-30T09:56:01.000Z</time>
      </trkpt>
      <trkpt lat="43.72637" lon="7.05669">
        <ele>604.40002441406</ele>
        <time>2023-07-30T09:56:02.000Z</time>
      </trkpt>
      <trkpt lat="43.72637" lon="7.05669">
        <ele>604.40002441406</ele>
        <time>2023-07-30T09:56:03.000Z</time>
      </trkpt>
      <trkpt lat="43.72637" lon="7.05669">
        <ele>604.40002441406</ele>
        <time>2023-07-30T09:56:04.000Z</time>
      </trkpt>
      <trkpt lat="43.72637" lon="7.05669">
        <ele>604.40002441406</ele>
        <time>2023-07-30T09:56:05.000Z</time>
      </trkpt>
      <trkpt lat="43.72637" lon="7.05669">
        <ele>604.40002441406</ele>
        <time>2023-07-30T09:56:06.000Z</time>
      </trkpt>
      <trkpt lat="43.72637" lon="7.05669">
        <ele>604.40002441406</ele>
        <time>2023-07-30T09:56:07.000Z</time>
      </trkpt>
      <trkpt lat="43.72637" lon="7.05669">
        <ele>604.40002441406</ele>
        <time>2023-07-30T09:56:08.000Z</time>
      </trkpt>
      <trkpt lat="43.72637" lon="7.05669">
        <ele>604.40002441406</ele>
        <time>2023-07-30T09:56:09.000Z</time>
      </trkpt>
      <trkpt lat="43.72637" lon="7.05669">
        <ele>604.40002441406</ele>
        <time>2023-07-30T09:56:10.000Z</time>
      </trkpt>
      <trkpt lat="43.72637" lon="7.05669">
        <ele>604.40002441406</ele>
        <time>2023-07-30T09:56:11.000Z</time>
      </trkpt>
      <trkpt lat="43.72637" lon="7.05669">
        <ele>604.40002441406</ele>
        <time>2023-07-30T09:56:12.000Z</time>
      </trkpt>
      <trkpt lat="43.72637" lon="7.05669">
        <ele>604.40002441406</ele>
        <time>2023-07-30T09:56:13.000Z</time>
      </trkpt>
      <trkpt lat="43.72637" lon="7.05669">
        <ele>604.40002441406</ele>
        <time>2023-07-30T09:56:14.000Z</time>
      </trkpt>
      <trkpt lat="43.72637" lon="7.05669">
        <ele>604.59997558594</ele>
        <time>2023-07-30T09:56:15.000Z</time>
      </trkpt>
      <trkpt lat="43.72637" lon="7.05669">
        <ele>604.59997558594</ele>
        <time>2023-07-30T09:56:16.000Z</time>
      </trkpt>
      <trkpt lat="43.72637" lon="7.05669">
        <ele>604.59997558594</ele>
        <time>2023-07-30T09:56:17.000Z</time>
      </trkpt>
      <trkpt lat="43.72637" lon="7.05669">
        <ele>604.59997558594</ele>
        <time>2023-07-30T09:56:18.000Z</time>
      </trkpt>
      <trkpt lat="43.72637" lon="7.05669">
        <ele>604.59997558594</ele>
        <time>2023-07-30T09:56:19.000Z</time>
      </trkpt>
      <trkpt lat="43.72637" lon="7.05669">
        <ele>604.59997558594</ele>
        <time>2023-07-30T09:56:20.000Z</time>
      </trkpt>
      <trkpt lat="43.72637" lon="7.05669">
        <ele>604.59997558594</ele>
        <time>2023-07-30T09:56:21.000Z</time>
      </trkpt>
      <trkpt lat="43.72637" lon="7.05669">
        <ele>604.59997558594</ele>
        <time>2023-07-30T09:56:22.000Z</time>
      </trkpt>
      <trkpt lat="43.72637" lon="7.05669">
        <ele>604.59997558594</ele>
        <time>2023-07-30T09:56:23.000Z</time>
      </trkpt>
      <trkpt lat="43.72637" lon="7.05669">
        <ele>604.59997558594</ele>
        <time>2023-07-30T09:56:24.000Z</time>
      </trkpt>
      <trkpt lat="43.72637" lon="7.05669">
        <ele>604.59997558594</ele>
        <time>2023-07-30T09:56:25.000Z</time>
      </trkpt>
      <trkpt lat="43.72637" lon="7.05669">
        <ele>604.59997558594</ele>
        <time>2023-07-30T09:56:26.000Z</time>
      </trkpt>
      <trkpt lat="43.72637" lon="7.05669">
        <ele>604.79998779297</ele>
        <time>2023-07-30T09:56:27.000Z</time>
      </trkpt>
      <trkpt lat="43.72637" lon="7.05669">
        <ele>604.79998779297</ele>
        <time>2023-07-30T09:56:28.000Z</time>
      </trkpt>
      <trkpt lat="43.72637" lon="7.05669">
        <ele>604.79998779297</ele>
        <time>2023-07-30T09:56:29.000Z</time>
      </trkpt>
      <trkpt lat="43.72637" lon="7.05669">
        <ele>604.79998779297</ele>
        <time>2023-07-30T09:56:30.000Z</time>
      </trkpt>
      <trkpt lat="43.72637" lon="7.05669">
        <ele>605</ele>
        <time>2023-07-30T09:56:31.000Z</time>
      </trkpt>
      <trkpt lat="43.72637" lon="7.05669">
        <ele>605</ele>
        <time>2023-07-30T09:56:32.000Z</time>
      </trkpt>
      <trkpt lat="43.72637" lon="7.05669">
        <ele>605</ele>
        <time>2023-07-30T09:56:33.000Z</time>
      </trkpt>
      <trkpt lat="43.72637" lon="7.05669">
        <ele>605</ele>
        <time>2023-07-30T09:56:34.000Z</time>
      </trkpt>
      <trkpt lat="43.72637" lon="7.05669">
        <ele>605</ele>
        <time>2023-07-30T09:56:35.000Z</time>
      </trkpt>
      <trkpt lat="43.72637" lon="7.05669">
        <ele>605</ele>
        <time>2023-07-30T09:56:36.000Z</time>
      </trkpt>
      <trkpt lat="43.72637" lon="7.05669">
        <ele>605</ele>
        <time>2023-07-30T09:56:37.000Z</time>
      </trkpt>
      <trkpt lat="43.72637" lon="7.05669">
        <ele>605</ele>
        <time>2023-07-30T09:56:38.000Z</time>
      </trkpt>
      <trkpt lat="43.72637" lon="7.05669">
        <ele>605</ele>
        <time>2023-07-30T09:56:39.000Z</time>
      </trkpt>
      <trkpt lat="43.72637" lon="7.05669">
        <ele>605</ele>
        <time>2023-07-30T09:56:40.000Z</time>
      </trkpt>
      <trkpt lat="43.72637" lon="7.05669">
        <ele>605</ele>
        <time>2023-07-30T09:56:41.000Z</time>
      </trkpt>
      <trkpt lat="43.72637" lon="7.05669">
        <ele>605.20001220703</ele>
        <time>2023-07-30T09:56:42.000Z</time>
      </trkpt>
      <trkpt lat="43.72637" lon="7.05669">
        <ele>605.20001220703</ele>
        <time>2023-07-30T09:56:43.000Z</time>
      </trkpt>
      <trkpt lat="43.72637" lon="7.05669">
        <ele>605.20001220703</ele>
        <time>2023-07-30T09:56:44.000Z</time>
      </trkpt>
      <trkpt lat="43.72637" lon="7.05669">
        <ele>605.20001220703</ele>
        <time>2023-07-30T09:56:45.000Z</time>
      </trkpt>
      <trkpt lat="43.72637" lon="7.05669">
        <ele>605.20001220703</ele>
        <time>2023-07-30T09:56:46.000Z</time>
      </trkpt>
      <trkpt lat="43.72637" lon="7.05669">
        <ele>605.20001220703</ele>
        <time>2023-07-30T09:56:47.000Z</time>
      </trkpt>
      <trkpt lat="43.72637" lon="7.05669">
        <ele>605.20001220703</ele>
        <time>2023-07-30T09:56:48.000Z</time>
      </trkpt>
      <trkpt lat="43.72637" lon="7.05669">
        <ele>605.20001220703</ele>
        <time>2023-07-30T09:56:49.000Z</time>
      </trkpt>
      <trkpt lat="43.72637" lon="7.05669">
        <ele>605.20001220703</ele>
        <time>2023-07-30T09:56:50.000Z</time>
      </trkpt>
      <trkpt lat="43.72637" lon="7.05669">
        <ele>605.40002441406</ele>
        <time>2023-07-30T09:56:51.000Z</time>
      </trkpt>
      <trkpt lat="43.72637" lon="7.05669">
        <ele>605.40002441406</ele>
        <time>2023-07-30T09:56:52.000Z</time>
      </trkpt>
      <trkpt lat="43.72637" lon="7.05669">
        <ele>605.40002441406</ele>
        <time>2023-07-30T09:56:53.000Z</time>
      </trkpt>
      <trkpt lat="43.72637" lon="7.05669">
        <ele>605.40002441406</ele>
        <time>2023-07-30T09:56:54.000Z</time>
      </trkpt>
      <trkpt lat="43.72637" lon="7.05669">
        <ele>605.40002441406</ele>
        <time>2023-07-30T09:56:55.000Z</time>
      </trkpt>
      <trkpt lat="43.72637" lon="7.05669">
        <ele>605.59997558594</ele>
        <time>2023-07-30T09:56:56.000Z</time>
      </trkpt>
      <trkpt lat="43.72637" lon="7.05669">
        <ele>605.59997558594</ele>
        <time>2023-07-30T09:56:57.000Z</time>
      </trkpt>
      <trkpt lat="43.72637" lon="7.05669">
        <ele>605.59997558594</ele>
        <time>2023-07-30T09:56:58.000Z</time>
      </trkpt>
      <trkpt lat="43.72637" lon="7.05669">
        <ele>605.59997558594</ele>
        <time>2023-07-30T09:56:59.000Z</time>
      </trkpt>
      <trkpt lat="43.72637" lon="7.05669">
        <ele>605.59997558594</ele>
        <time>2023-07-30T09:57:00.000Z</time>
      </trkpt>
      <trkpt lat="43.72637" lon="7.05669">
        <ele>605.59997558594</ele>
        <time>2023-07-30T09:57:01.000Z</time>
      </trkpt>
      <trkpt lat="43.72637" lon="7.05669">
        <ele>605.59997558594</ele>
        <time>2023-07-30T09:57:02.000Z</time>
      </trkpt>
      <trkpt lat="43.72637" lon="7.05669">
        <ele>605.59997558594</ele>
        <time>2023-07-30T09:57:03.000Z</time>
      </trkpt>
      <trkpt lat="43.72637" lon="7.05669">
        <ele>605.79998779297</ele>
        <time>2023-07-30T09:57:04.000Z</time>
      </trkpt>
      <trkpt lat="43.72637" lon="7.05669">
        <ele>605.79998779297</ele>
        <time>2023-07-30T09:57:05.000Z</time>
      </trkpt>
      <trkpt lat="43.72637" lon="7.05669">
        <ele>605.79998779297</ele>
        <time>2023-07-30T09:57:06.000Z</time>
      </trkpt>
      <trkpt lat="43.72637" lon="7.05669">
        <ele>605.79998779297</ele>
        <time>2023-07-30T09:57:07.000Z</time>
      </trkpt>
      <trkpt lat="43.72637" lon="7.05669">
        <ele>605.79998779297</ele>
        <time>2023-07-30T09:57:08.000Z</time>
      </trkpt>
      <trkpt lat="43.72637" lon="7.05669">
        <ele>605.79998779297</ele>
        <time>2023-07-30T09:57:09.000Z</time>
      </trkpt>
      <trkpt lat="43.72638" lon="7.05666">
        <ele>605.79998779297</ele>
        <time>2023-07-30T09:57:10.000Z</time>
      </trkpt>
      <trkpt lat="43.72638" lon="7.05666">
        <ele>605.79998779297</ele>
        <time>2023-07-30T09:57:11.000Z</time>
      </trkpt>
      <trkpt lat="43.72638" lon="7.05666">
        <ele>605.79998779297</ele>
        <time>2023-07-30T09:57:12.000Z</time>
      </trkpt>
      <trkpt lat="43.72638" lon="7.05666">
        <ele>606</ele>
        <time>2023-07-30T09:57:13.000Z</time>
      </trkpt>
      <trkpt lat="43.72639" lon="7.05666">
        <ele>606.20001220703</ele>
        <time>2023-07-30T09:57:14.000Z</time>
      </trkpt>
      <trkpt lat="43.72639" lon="7.05666">
        <ele>606.20001220703</ele>
        <time>2023-07-30T09:57:15.000Z</time>
      </trkpt>
      <trkpt lat="43.72639" lon="7.05666">
        <ele>606.59997558594</ele>
        <time>2023-07-30T09:57:16.000Z</time>
      </trkpt>
      <trkpt lat="43.72639" lon="7.05666">
        <ele>606.59997558594</ele>
        <time>2023-07-30T09:57:17.000Z</time>
      </trkpt>
      <trkpt lat="43.72639" lon="7.05666">
        <ele>606.59997558594</ele>
        <time>2023-07-30T09:57:18.000Z</time>
      </trkpt>
      <trkpt lat="43.72639" lon="7.05666">
        <ele>606.59997558594</ele>
        <time>2023-07-30T09:57:19.000Z</time>
      </trkpt>
      <trkpt lat="43.7264" lon="7.05668">
        <ele>606.59997558594</ele>
        <time>2023-07-30T09:57:20.000Z</time>
      </trkpt>
      <trkpt lat="43.72641" lon="7.0567">
        <ele>606.59997558594</ele>
        <time>2023-07-30T09:57:21.000Z</time>
      </trkpt>
      <trkpt lat="43.72642" lon="7.05672">
        <ele>606.59997558594</ele>
        <time>2023-07-30T09:57:22.000Z</time>
      </trkpt>
      <trkpt lat="43.72642" lon="7.05675">
        <ele>606.59997558594</ele>
        <time>2023-07-30T09:57:23.000Z</time>
      </trkpt>
      <trkpt lat="43.72643" lon="7.05677">
        <ele>606.40002441406</ele>
        <time>2023-07-30T09:57:24.000Z</time>
      </trkpt>
      <trkpt lat="43.72643" lon="7.0568">
        <ele>606.59997558594</ele>
        <time>2023-07-30T09:57:25.000Z</time>
      </trkpt>
      <trkpt lat="43.72643" lon="7.05683">
        <ele>606.59997558594</ele>
        <time>2023-07-30T09:57:26.000Z</time>
      </trkpt>
      <trkpt lat="43.72643" lon="7.05685">
        <ele>606.40002441406</ele>
        <time>2023-07-30T09:57:27.000Z</time>
      </trkpt>
      <trkpt lat="43.72643" lon="7.05689">
        <ele>606.40002441406</ele>
        <time>2023-07-30T09:57:28.000Z</time>
      </trkpt>
      <trkpt lat="43.72643" lon="7.05692">
        <ele>606.40002441406</ele>
        <time>2023-07-30T09:57:29.000Z</time>
      </trkpt>
      <trkpt lat="43.72644" lon="7.05695">
        <ele>606.40002441406</ele>
        <time>2023-07-30T09:57:30.000Z</time>
      </trkpt>
      <trkpt lat="43.72644" lon="7.05699">
        <ele>606.59997558594</ele>
        <time>2023-07-30T09:57:31.000Z</time>
      </trkpt>
      <trkpt lat="43.72645" lon="7.05702">
        <ele>607</ele>
        <time>2023-07-30T09:57:32.000Z</time>
      </trkpt>
      <trkpt lat="43.72646" lon="7.05705">
        <ele>607</ele>
        <time>2023-07-30T09:57:33.000Z</time>
      </trkpt>
      <trkpt lat="43.72646" lon="7.05709">
        <ele>607</ele>
        <time>2023-07-30T09:57:34.000Z</time>
      </trkpt>
      <trkpt lat="43.72646" lon="7.05713">
        <ele>607</ele>
        <time>2023-07-30T09:57:35.000Z</time>
      </trkpt>
      <trkpt lat="43.72647" lon="7.05717">
        <ele>607</ele>
        <time>2023-07-30T09:57:36.000Z</time>
      </trkpt>
      <trkpt lat="43.72647" lon="7.05723">
        <ele>607.20001220703</ele>
        <time>2023-07-30T09:57:37.000Z</time>
      </trkpt>
      <trkpt lat="43.72647" lon="7.05728">
        <ele>607.20001220703</ele>
        <time>2023-07-30T09:57:38.000Z</time>
      </trkpt>
      <trkpt lat="43.72647" lon="7.05732">
        <ele>607.20001220703</ele>
        <time>2023-07-30T09:57:39.000Z</time>
      </trkpt>
      <trkpt lat="43.72649" lon="7.05736">
        <ele>607.20001220703</ele>
        <time>2023-07-30T09:57:40.000Z</time>
      </trkpt>
      <trkpt lat="43.7265" lon="7.0574">
        <ele>607.20001220703</ele>
        <time>2023-07-30T09:57:41.000Z</time>
      </trkpt>
      <trkpt lat="43.72651" lon="7.05744">
        <ele>607.40002441406</ele>
        <time>2023-07-30T09:57:42.000Z</time>
      </trkpt>
      <trkpt lat="43.72652" lon="7.05748">
        <ele>607.40002441406</ele>
        <time>2023-07-30T09:57:43.000Z</time>
      </trkpt>
      <trkpt lat="43.72653" lon="7.05752">
        <ele>607.40002441406</ele>
        <time>2023-07-30T09:57:44.000Z</time>
      </trkpt>
      <trkpt lat="43.72654" lon="7.05757">
        <ele>607.20001220703</ele>
        <time>2023-07-30T09:57:45.000Z</time>
      </trkpt>
      <trkpt lat="43.72653" lon="7.05761">
        <ele>607.20001220703</ele>
        <time>2023-07-30T09:57:46.000Z</time>
      </trkpt>
      <trkpt lat="43.72653" lon="7.05766">
        <ele>607.20001220703</ele>
        <time>2023-07-30T09:57:47.000Z</time>
      </trkpt>
      <trkpt lat="43.72654" lon="7.05772">
        <ele>607.20001220703</ele>
        <time>2023-07-30T09:57:48.000Z</time>
      </trkpt>
      <trkpt lat="43.72655" lon="7.05777">
        <ele>607.20001220703</ele>
        <time>2023-07-30T09:57:49.000Z</time>
      </trkpt>
      <trkpt lat="43.72655" lon="7.05783">
        <ele>607.20001220703</ele>
        <time>2023-07-30T09:57:50.000Z</time>
      </trkpt>
      <trkpt lat="43.72656" lon="7.05789">
        <ele>607.20001220703</ele>
        <time>2023-07-30T09:57:51.000Z</time>
      </trkpt>
      <trkpt lat="43.72658" lon="7.05794">
        <ele>607.20001220703</ele>
        <time>2023-07-30T09:57:52.000Z</time>
      </trkpt>
      <trkpt lat="43.72661" lon="7.05799">
        <ele>606.59997558594</ele>
        <time>2023-07-30T09:57:53.000Z</time>
      </trkpt>
      <trkpt lat="43.72663" lon="7.05804">
        <ele>606.59997558594</ele>
        <time>2023-07-30T09:57:54.000Z</time>
      </trkpt>
      <trkpt lat="43.72667" lon="7.05809">
        <ele>606.59997558594</ele>
        <time>2023-07-30T09:57:55.000Z</time>
      </trkpt>
      <trkpt lat="43.7267" lon="7.05813">
        <ele>606.59997558594</ele>
        <time>2023-07-30T09:57:56.000Z</time>
      </trkpt>
      <trkpt lat="43.72672" lon="7.05815">
        <ele>605.79998779297</ele>
        <time>2023-07-30T09:57:57.000Z</time>
      </trkpt>
      <trkpt lat="43.72674" lon="7.05816">
        <ele>605.40002441406</ele>
        <time>2023-07-30T09:57:58.000Z</time>
      </trkpt>
      <trkpt lat="43.72675" lon="7.05818">
        <ele>605</ele>
        <time>2023-07-30T09:57:59.000Z</time>
      </trkpt>
      <trkpt lat="43.72676" lon="7.05819">
        <ele>604.79998779297</ele>
        <time>2023-07-30T09:58:00.000Z</time>
      </trkpt>
      <trkpt lat="43.72677" lon="7.05821">
        <ele>604.79998779297</ele>
        <time>2023-07-30T09:58:01.000Z</time>
      </trkpt>
      <trkpt lat="43.72678" lon="7.05825">
        <ele>604.79998779297</ele>
        <time>2023-07-30T09:58:02.000Z</time>
      </trkpt>
      <trkpt lat="43.7268" lon="7.05829">
        <ele>604.59997558594</ele>
        <time>2023-07-30T09:58:03.000Z</time>
      </trkpt>
      <trkpt lat="43.72681" lon="7.05832">
        <ele>604.40002441406</ele>
        <time>2023-07-30T09:58:04.000Z</time>
      </trkpt>
      <trkpt lat="43.72683" lon="7.05835">
        <ele>604.40002441406</ele>
        <time>2023-07-30T09:58:05.000Z</time>
      </trkpt>
      <trkpt lat="43.72685" lon="7.05839">
        <ele>603.79998779297</ele>
        <time>2023-07-30T09:58:06.000Z</time>
      </trkpt>
      <trkpt lat="43.72686" lon="7.05843">
        <ele>603.40002441406</ele>
        <time>2023-07-30T09:58:07.000Z</time>
      </trkpt>
      <trkpt lat="43.72688" lon="7.05848">
        <ele>603.20001220703</ele>
        <time>2023-07-30T09:58:08.000Z</time>
      </trkpt>
      <trkpt lat="43.72689" lon="7.05853">
        <ele>603</ele>
        <time>2023-07-30T09:58:09.000Z</time>
      </trkpt>
      <trkpt lat="43.72691" lon="7.05859">
        <ele>602.79998779297</ele>
        <time>2023-07-30T09:58:10.000Z</time>
      </trkpt>
      <trkpt lat="43.72693" lon="7.05864">
        <ele>602.79998779297</ele>
        <time>2023-07-30T09:58:11.000Z</time>
      </trkpt>
      <trkpt lat="43.72695" lon="7.0587">
        <ele>602.20001220703</ele>
        <time>2023-07-30T09:58:12.000Z</time>
      </trkpt>
      <trkpt lat="43.72697" lon="7.05877">
        <ele>602.20001220703</ele>
        <time>2023-07-30T09:58:13.000Z</time>
      </trkpt>
      <trkpt lat="43.72699" lon="7.05883">
        <ele>601.79998779297</ele>
        <time>2023-07-30T09:58:14.000Z</time>
      </trkpt>
      <trkpt lat="43.727" lon="7.0589">
        <ele>601.59997558594</ele>
        <time>2023-07-30T09:58:15.000Z</time>
      </trkpt>
      <trkpt lat="43.72702" lon="7.05897">
        <ele>601.20001220703</ele>
        <time>2023-07-30T09:58:16.000Z</time>
      </trkpt>
      <trkpt lat="43.72705" lon="7.05903">
        <ele>600.20001220703</ele>
        <time>2023-07-30T09:58:17.000Z</time>
      </trkpt>
      <trkpt lat="43.72708" lon="7.05908">
        <ele>600</ele>
        <time>2023-07-30T09:58:18.000Z</time>
      </trkpt>
      <trkpt lat="43.72711" lon="7.05914">
        <ele>600</ele>
        <time>2023-07-30T09:58:19.000Z</time>
      </trkpt>
      <trkpt lat="43.72713" lon="7.05919">
        <ele>599.79998779297</ele>
        <time>2023-07-30T09:58:20.000Z</time>
      </trkpt>
      <trkpt lat="43.72714" lon="7.05924">
        <ele>599.79998779297</ele>
        <time>2023-07-30T09:58:21.000Z</time>
      </trkpt>
      <trkpt lat="43.72715" lon="7.0593">
        <ele>599.79998779297</ele>
        <time>2023-07-30T09:58:22.000Z</time>
      </trkpt>
      <trkpt lat="43.72714" lon="7.05936">
        <ele>599.79998779297</ele>
        <time>2023-07-30T09:58:23.000Z</time>
      </trkpt>
      <trkpt lat="43.72714" lon="7.05943">
        <ele>599.79998779297</ele>
        <time>2023-07-30T09:58:24.000Z</time>
      </trkpt>
      <trkpt lat="43.72713" lon="7.05948">
        <ele>600</ele>
        <time>2023-07-30T09:58:25.000Z</time>
      </trkpt>
      <trkpt lat="43.72712" lon="7.05954">
        <ele>599.79998779297</ele>
        <time>2023-07-30T09:58:26.000Z</time>
      </trkpt>
      <trkpt lat="43.72712" lon="7.05959">
        <ele>599.79998779297</ele>
        <time>2023-07-30T09:58:27.000Z</time>
      </trkpt>
      <trkpt lat="43.72713" lon="7.05964">
        <ele>599.79998779297</ele>
        <time>2023-07-30T09:58:28.000Z</time>
      </trkpt>
      <trkpt lat="43.72714" lon="7.05968">
        <ele>599.79998779297</ele>
        <time>2023-07-30T09:58:29.000Z</time>
      </trkpt>
      <trkpt lat="43.72713" lon="7.05973">
        <ele>598.79998779297</ele>
        <time>2023-07-30T09:58:30.000Z</time>
      </trkpt>
      <trkpt lat="43.72713" lon="7.05977">
        <ele>598.20001220703</ele>
        <time>2023-07-30T09:58:31.000Z</time>
      </trkpt>
      <trkpt lat="43.72712" lon="7.05983">
        <ele>597.79998779297</ele>
        <time>2023-07-30T09:58:32.000Z</time>
      </trkpt>
      <trkpt lat="43.72712" lon="7.05989">
        <ele>597.59997558594</ele>
        <time>2023-07-30T09:58:33.000Z</time>
      </trkpt>
      <trkpt lat="43.72712" lon="7.05995">
        <ele>597.40002441406</ele>
        <time>2023-07-30T09:58:34.000Z</time>
      </trkpt>
      <trkpt lat="43.72711" lon="7.06">
        <ele>597.40002441406</ele>
        <time>2023-07-30T09:58:35.000Z</time>
      </trkpt>
      <trkpt lat="43.7271" lon="7.06005">
        <ele>597.40002441406</ele>
        <time>2023-07-30T09:58:36.000Z</time>
      </trkpt>
      <trkpt lat="43.72709" lon="7.06009">
        <ele>596</ele>
        <time>2023-07-30T09:58:37.000Z</time>
      </trkpt>
      <trkpt lat="43.72709" lon="7.06013">
        <ele>595.59997558594</ele>
        <time>2023-07-30T09:58:38.000Z</time>
      </trkpt>
      <trkpt lat="43.72709" lon="7.06018">
        <ele>595.59997558594</ele>
        <time>2023-07-30T09:58:39.000Z</time>
      </trkpt>
      <trkpt lat="43.72708" lon="7.06024">
        <ele>594.79998779297</ele>
        <time>2023-07-30T09:58:40.000Z</time>
      </trkpt>
      <trkpt lat="43.72708" lon="7.06029">
        <ele>594.40002441406</ele>
        <time>2023-07-30T09:58:41.000Z</time>
      </trkpt>
      <trkpt lat="43.72706" lon="7.06034">
        <ele>593.40002441406</ele>
        <time>2023-07-30T09:58:42.000Z</time>
      </trkpt>
      <trkpt lat="43.72705" lon="7.06039">
        <ele>593.20001220703</ele>
        <time>2023-07-30T09:58:43.000Z</time>
      </trkpt>
      <trkpt lat="43.72704" lon="7.06043">
        <ele>593.20001220703</ele>
        <time>2023-07-30T09:58:44.000Z</time>
      </trkpt>
      <trkpt lat="43.72703" lon="7.06048">
        <ele>592.79998779297</ele>
        <time>2023-07-30T09:58:45.000Z</time>
      </trkpt>
      <trkpt lat="43.72704" lon="7.06051">
        <ele>591.79998779297</ele>
        <time>2023-07-30T09:58:46.000Z</time>
      </trkpt>
      <trkpt lat="43.72704" lon="7.06056">
        <ele>590.79998779297</ele>
        <time>2023-07-30T09:58:47.000Z</time>
      </trkpt>
      <trkpt lat="43.72704" lon="7.0606">
        <ele>590.40002441406</ele>
        <time>2023-07-30T09:58:48.000Z</time>
      </trkpt>
      <trkpt lat="43.72704" lon="7.06065">
        <ele>590</ele>
        <time>2023-07-30T09:58:49.000Z</time>
      </trkpt>
      <trkpt lat="43.72705" lon="7.06068">
        <ele>589.59997558594</ele>
        <time>2023-07-30T09:58:50.000Z</time>
      </trkpt>
      <trkpt lat="43.72705" lon="7.06072">
        <ele>589.40002441406</ele>
        <time>2023-07-30T09:58:51.000Z</time>
      </trkpt>
      <trkpt lat="43.72706" lon="7.06077">
        <ele>588.79998779297</ele>
        <time>2023-07-30T09:58:52.000Z</time>
      </trkpt>
      <trkpt lat="43.72707" lon="7.06081">
        <ele>588.79998779297</ele>
        <time>2023-07-30T09:58:53.000Z</time>
      </trkpt>
      <trkpt lat="43.72707" lon="7.06084">
        <ele>588.79998779297</ele>
        <time>2023-07-30T09:58:54.000Z</time>
      </trkpt>
      <trkpt lat="43.72708" lon="7.06087">
        <ele>588.59997558594</ele>
        <time>2023-07-30T09:58:55.000Z</time>
      </trkpt>
      <trkpt lat="43.7271" lon="7.0609">
        <ele>587.79998779297</ele>
        <time>2023-07-30T09:58:56.000Z</time>
      </trkpt>
      <trkpt lat="43.72712" lon="7.06092">
        <ele>587.59997558594</ele>
        <time>2023-07-30T09:58:57.000Z</time>
      </trkpt>
      <trkpt lat="43.72715" lon="7.06095">
        <ele>587</ele>
        <time>2023-07-30T09:58:58.000Z</time>
      </trkpt>
      <trkpt lat="43.72717" lon="7.06099">
        <ele>586.59997558594</ele>
        <time>2023-07-30T09:58:59.000Z</time>
      </trkpt>
      <trkpt lat="43.7272" lon="7.06102">
        <ele>586.20001220703</ele>
        <time>2023-07-30T09:59:00.000Z</time>
      </trkpt>
      <trkpt lat="43.72722" lon="7.06105">
        <ele>585.79998779297</ele>
        <time>2023-07-30T09:59:01.000Z</time>
      </trkpt>
      <trkpt lat="43.72726" lon="7.0611">
        <ele>585.79998779297</ele>
        <time>2023-07-30T09:59:02.000Z</time>
      </trkpt>
      <trkpt lat="43.72729" lon="7.06114">
        <ele>585.59997558594</ele>
        <time>2023-07-30T09:59:03.000Z</time>
      </trkpt>
      <trkpt lat="43.7273" lon="7.06117">
        <ele>585.40002441406</ele>
        <time>2023-07-30T09:59:04.000Z</time>
      </trkpt>
      <trkpt lat="43.72731" lon="7.06119">
        <ele>585.20001220703</ele>
        <time>2023-07-30T09:59:05.000Z</time>
      </trkpt>
      <trkpt lat="43.72731" lon="7.06122">
        <ele>584.40002441406</ele>
        <time>2023-07-30T09:59:06.000Z</time>
      </trkpt>
      <trkpt lat="43.72732" lon="7.06125">
        <ele>583.79998779297</ele>
        <time>2023-07-30T09:59:07.000Z</time>
      </trkpt>
      <trkpt lat="43.72732" lon="7.06128">
        <ele>583.59997558594</ele>
        <time>2023-07-30T09:59:08.000Z</time>
      </trkpt>
      <trkpt lat="43.72733" lon="7.0613">
        <ele>583.20001220703</ele>
        <time>2023-07-30T09:59:09.000Z</time>
      </trkpt>
      <trkpt lat="43.72735" lon="7.06131">
        <ele>583</ele>
        <time>2023-07-30T09:59:10.000Z</time>
      </trkpt>
      <trkpt lat="43.72735" lon="7.06132">
        <ele>582.79998779297</ele>
        <time>2023-07-30T09:59:11.000Z</time>
      </trkpt>
      <trkpt lat="43.72735" lon="7.06132">
        <ele>582.20001220703</ele>
        <time>2023-07-30T09:59:12.000Z</time>
      </trkpt>
      <trkpt lat="43.72736" lon="7.06132">
        <ele>582</ele>
        <time>2023-07-30T09:59:13.000Z</time>
      </trkpt>
      <trkpt lat="43.72736" lon="7.06133">
        <ele>582</ele>
        <time>2023-07-30T09:59:14.000Z</time>
      </trkpt>
      <trkpt lat="43.72737" lon="7.06133">
        <ele>581.79998779297</ele>
        <time>2023-07-30T09:59:15.000Z</time>
      </trkpt>
      <trkpt lat="43.72738" lon="7.06134">
        <ele>581.59997558594</ele>
        <time>2023-07-30T09:59:16.000Z</time>
      </trkpt>
      <trkpt lat="43.72739" lon="7.06135">
        <ele>581.59997558594</ele>
        <time>2023-07-30T09:59:17.000Z</time>
      </trkpt>
      <trkpt lat="43.7274" lon="7.06135">
        <ele>581.40002441406</ele>
        <time>2023-07-30T09:59:18.000Z</time>
      </trkpt>
      <trkpt lat="43.72741" lon="7.06137">
        <ele>581.40002441406</ele>
        <time>2023-07-30T09:59:19.000Z</time>
      </trkpt>
      <trkpt lat="43.72742" lon="7.06138">
        <ele>581</ele>
        <time>2023-07-30T09:59:20.000Z</time>
      </trkpt>
      <trkpt lat="43.72743" lon="7.06138">
        <ele>580.79998779297</ele>
        <time>2023-07-30T09:59:21.000Z</time>
      </trkpt>
      <trkpt lat="43.72743" lon="7.06139">
        <ele>580.79998779297</ele>
        <time>2023-07-30T09:59:22.000Z</time>
      </trkpt>
      <trkpt lat="43.72743" lon="7.06139">
        <ele>580.20001220703</ele>
        <time>2023-07-30T09:59:23.000Z</time>
      </trkpt>
      <trkpt lat="43.72744" lon="7.0614">
        <ele>580</ele>
        <time>2023-07-30T09:59:24.000Z</time>
      </trkpt>
      <trkpt lat="43.72745" lon="7.06141">
        <ele>579.79998779297</ele>
        <time>2023-07-30T09:59:25.000Z</time>
      </trkpt>
      <trkpt lat="43.72745" lon="7.06141">
        <ele>579.40002441406</ele>
        <time>2023-07-30T09:59:26.000Z</time>
      </trkpt>
      <trkpt lat="43.72745" lon="7.06141">
        <ele>579</ele>
        <time>2023-07-30T09:59:27.000Z</time>
      </trkpt>
      <trkpt lat="43.72745" lon="7.06141">
        <ele>578.59997558594</ele>
        <time>2023-07-30T09:59:28.000Z</time>
      </trkpt>
      <trkpt lat="43.72745" lon="7.06142">
        <ele>578.40002441406</ele>
        <time>2023-07-30T09:59:29.000Z</time>
      </trkpt>
      <trkpt lat="43.72746" lon="7.06142">
        <ele>578</ele>
        <time>2023-07-30T09:59:30.000Z</time>
      </trkpt>
      <trkpt lat="43.72747" lon="7.06143">
        <ele>577.79998779297</ele>
        <time>2023-07-30T09:59:31.000Z</time>
      </trkpt>
      <trkpt lat="43.72748" lon="7.06143">
        <ele>577.59997558594</ele>
        <time>2023-07-30T09:59:32.000Z</time>
      </trkpt>
      <trkpt lat="43.72749" lon="7.06143">
        <ele>577.40002441406</ele>
        <time>2023-07-30T09:59:33.000Z</time>
      </trkpt>
      <trkpt lat="43.72749" lon="7.06143">
        <ele>577.40002441406</ele>
        <time>2023-07-30T09:59:34.000Z</time>
      </trkpt>
      <trkpt lat="43.7275" lon="7.06143">
        <ele>577.20001220703</ele>
        <time>2023-07-30T09:59:35.000Z</time>
      </trkpt>
      <trkpt lat="43.72752" lon="7.06143">
        <ele>577</ele>
        <time>2023-07-30T09:59:36.000Z</time>
      </trkpt>
      <trkpt lat="43.72753" lon="7.06143">
        <ele>576.79998779297</ele>
        <time>2023-07-30T09:59:37.000Z</time>
      </trkpt>
      <trkpt lat="43.72755" lon="7.06144">
        <ele>576.79998779297</ele>
        <time>2023-07-30T09:59:38.000Z</time>
      </trkpt>
      <trkpt lat="43.72755" lon="7.06144">
        <ele>576.59997558594</ele>
        <time>2023-07-30T09:59:39.000Z</time>
      </trkpt>
      <trkpt lat="43.72757" lon="7.06144">
        <ele>576.20001220703</ele>
        <time>2023-07-30T09:59:40.000Z</time>
      </trkpt>
      <trkpt lat="43.72758" lon="7.06144">
        <ele>576</ele>
        <time>2023-07-30T09:59:41.000Z</time>
      </trkpt>
      <trkpt lat="43.72759" lon="7.06144">
        <ele>575.59997558594</ele>
        <time>2023-07-30T09:59:42.000Z</time>
      </trkpt>
      <trkpt lat="43.7276" lon="7.06145">
        <ele>575.20001220703</ele>
        <time>2023-07-30T09:59:43.000Z</time>
      </trkpt>
      <trkpt lat="43.7276" lon="7.06145">
        <ele>575.20001220703</ele>
        <time>2023-07-30T09:59:44.000Z</time>
      </trkpt>
      <trkpt lat="43.72759" lon="7.06146">
        <ele>575</ele>
        <time>2023-07-30T09:59:45.000Z</time>
      </trkpt>
      <trkpt lat="43.72759" lon="7.06146">
        <ele>575</ele>
        <time>2023-07-30T09:59:46.000Z</time>
      </trkpt>
      <trkpt lat="43.72759" lon="7.06146">
        <ele>574.79998779297</ele>
        <time>2023-07-30T09:59:47.000Z</time>
      </trkpt>
      <trkpt lat="43.72759" lon="7.06146">
        <ele>574.79998779297</ele>
        <time>2023-07-30T09:59:48.000Z</time>
      </trkpt>
      <trkpt lat="43.7276" lon="7.06146">
        <ele>574.79998779297</ele>
        <time>2023-07-30T09:59:49.000Z</time>
      </trkpt>
      <trkpt lat="43.7276" lon="7.06146">
        <ele>574.59997558594</ele>
        <time>2023-07-30T09:59:50.000Z</time>
      </trkpt>
      <trkpt lat="43.7276" lon="7.06146">
        <ele>574.59997558594</ele>
        <time>2023-07-30T09:59:51.000Z</time>
      </trkpt>
      <trkpt lat="43.72761" lon="7.06146">
        <ele>574.59997558594</ele>
        <time>2023-07-30T09:59:52.000Z</time>
      </trkpt>
      <trkpt lat="43.72761" lon="7.06147">
        <ele>574.59997558594</ele>
        <time>2023-07-30T09:59:53.000Z</time>
      </trkpt>
      <trkpt lat="43.72761" lon="7.06147">
        <ele>574.59997558594</ele>
        <time>2023-07-30T09:59:54.000Z</time>
      </trkpt>
      <trkpt lat="43.72761" lon="7.06148">
        <ele>574.59997558594</ele>
        <time>2023-07-30T09:59:55.000Z</time>
      </trkpt>
      <trkpt lat="43.72762" lon="7.06149">
        <ele>574.59997558594</ele>
        <time>2023-07-30T09:59:56.000Z</time>
      </trkpt>
      <trkpt lat="43.72762" lon="7.06151">
        <ele>574.59997558594</ele>
        <time>2023-07-30T09:59:57.000Z</time>
      </trkpt>
      <trkpt lat="43.72762" lon="7.06152">
        <ele>574.59997558594</ele>
        <time>2023-07-30T09:59:58.000Z</time>
      </trkpt>
      <trkpt lat="43.72762" lon="7.06154">
        <ele>574.59997558594</ele>
        <time>2023-07-30T09:59:59.000Z</time>
      </trkpt>
      <trkpt lat="43.72762" lon="7.06156">
        <ele>574.59997558594</ele>
        <time>2023-07-30T10:00:00.000Z</time>
      </trkpt>
      <trkpt lat="43.72763" lon="7.06158">
        <ele>574.79998779297</ele>
        <time>2023-07-30T10:00:01.000Z</time>
      </trkpt>
      <trkpt lat="43.72762" lon="7.0616">
        <ele>575</ele>
        <time>2023-07-30T10:00:02.000Z</time>
      </trkpt>
      <trkpt lat="43.72762" lon="7.06162">
        <ele>575.59997558594</ele>
        <time>2023-07-30T10:00:03.000Z</time>
      </trkpt>
      <trkpt lat="43.72762" lon="7.06165">
        <ele>576</ele>
        <time>2023-07-30T10:00:04.000Z</time>
      </trkpt>
      <trkpt lat="43.72762" lon="7.06167">
        <ele>576.20001220703</ele>
        <time>2023-07-30T10:00:05.000Z</time>
      </trkpt>
      <trkpt lat="43.72763" lon="7.06167">
        <ele>577</ele>
        <time>2023-07-30T10:00:06.000Z</time>
      </trkpt>
      <trkpt lat="43.72763" lon="7.06167">
        <ele>577</ele>
        <time>2023-07-30T10:00:07.000Z</time>
      </trkpt>
      <trkpt lat="43.72763" lon="7.06167">
        <ele>577.20001220703</ele>
        <time>2023-07-30T10:00:08.000Z</time>
      </trkpt>
      <trkpt lat="43.72763" lon="7.06167">
        <ele>577.59997558594</ele>
        <time>2023-07-30T10:00:09.000Z</time>
      </trkpt>
      <trkpt lat="43.72763" lon="7.06167">
        <ele>577.59997558594</ele>
        <time>2023-07-30T10:00:10.000Z</time>
      </trkpt>
      <trkpt lat="43.72763" lon="7.06168">
        <ele>577.59997558594</ele>
        <time>2023-07-30T10:00:11.000Z</time>
      </trkpt>
      <trkpt lat="43.72763" lon="7.06168">
        <ele>577.79998779297</ele>
        <time>2023-07-30T10:00:12.000Z</time>
      </trkpt>
      <trkpt lat="43.72764" lon="7.06168">
        <ele>577.79998779297</ele>
        <time>2023-07-30T10:00:13.000Z</time>
      </trkpt>
      <trkpt lat="43.72764" lon="7.06168">
        <ele>577.79998779297</ele>
        <time>2023-07-30T10:00:14.000Z</time>
      </trkpt>
      <trkpt lat="43.72763" lon="7.06168">
        <ele>577.79998779297</ele>
        <time>2023-07-30T10:00:15.000Z</time>
      </trkpt>
      <trkpt lat="43.72763" lon="7.06168">
        <ele>577.79998779297</ele>
        <time>2023-07-30T10:00:16.000Z</time>
      </trkpt>
      <trkpt lat="43.72763" lon="7.06168">
        <ele>577.79998779297</ele>
        <time>2023-07-30T10:00:17.000Z</time>
      </trkpt>
      <trkpt lat="43.72764" lon="7.06168">
        <ele>578</ele>
        <time>2023-07-30T10:00:18.000Z</time>
      </trkpt>
      <trkpt lat="43.72764" lon="7.06167">
        <ele>578.20001220703</ele>
        <time>2023-07-30T10:00:19.000Z</time>
      </trkpt>
      <trkpt lat="43.72764" lon="7.06167">
        <ele>578.20001220703</ele>
        <time>2023-07-30T10:00:20.000Z</time>
      </trkpt>
      <trkpt lat="43.72765" lon="7.06167">
        <ele>578.40002441406</ele>
        <time>2023-07-30T10:00:21.000Z</time>
      </trkpt>
      <trkpt lat="43.72765" lon="7.06167">
        <ele>578.40002441406</ele>
        <time>2023-07-30T10:00:22.000Z</time>
      </trkpt>
      <trkpt lat="43.72766" lon="7.06167">
        <ele>578.40002441406</ele>
        <time>2023-07-30T10:00:23.000Z</time>
      </trkpt>
      <trkpt lat="43.72767" lon="7.06167">
        <ele>578.59997558594</ele>
        <time>2023-07-30T10:00:24.000Z</time>
      </trkpt>
      <trkpt lat="43.72768" lon="7.06167">
        <ele>578.79998779297</ele>
        <time>2023-07-30T10:00:25.000Z</time>
      </trkpt>
      <trkpt lat="43.72768" lon="7.06167">
        <ele>578.79998779297</ele>
        <time>2023-07-30T10:00:26.000Z</time>
      </trkpt>
      <trkpt lat="43.72768" lon="7.06168">
        <ele>579</ele>
        <time>2023-07-30T10:00:27.000Z</time>
      </trkpt>
      <trkpt lat="43.72769" lon="7.06169">
        <ele>579</ele>
        <time>2023-07-30T10:00:28.000Z</time>
      </trkpt>
      <trkpt lat="43.72769" lon="7.06169">
        <ele>579.40002441406</ele>
        <time>2023-07-30T10:00:29.000Z</time>
      </trkpt>
      <trkpt lat="43.72769" lon="7.0617">
        <ele>579.59997558594</ele>
        <time>2023-07-30T10:00:30.000Z</time>
      </trkpt>
      <trkpt lat="43.72769" lon="7.06171">
        <ele>579.59997558594</ele>
        <time>2023-07-30T10:00:31.000Z</time>
      </trkpt>
      <trkpt lat="43.72769" lon="7.06172">
        <ele>579.79998779297</ele>
        <time>2023-07-30T10:00:32.000Z</time>
      </trkpt>
      <trkpt lat="43.7277" lon="7.06173">
        <ele>580</ele>
        <time>2023-07-30T10:00:33.000Z</time>
      </trkpt>
      <trkpt lat="43.7277" lon="7.06174">
        <ele>580.20001220703</ele>
        <time>2023-07-30T10:00:34.000Z</time>
      </trkpt>
      <trkpt lat="43.7277" lon="7.06174">
        <ele>580.20001220703</ele>
        <time>2023-07-30T10:00:35.000Z</time>
      </trkpt>
      <trkpt lat="43.7277" lon="7.06174">
        <ele>580.20001220703</ele>
        <time>2023-07-30T10:00:36.000Z</time>
      </trkpt>
      <trkpt lat="43.7277" lon="7.06176">
        <ele>580.20001220703</ele>
        <time>2023-07-30T10:00:37.000Z</time>
      </trkpt>
      <trkpt lat="43.72769" lon="7.06178">
        <ele>580.20001220703</ele>
        <time>2023-07-30T10:00:38.000Z</time>
      </trkpt>
      <trkpt lat="43.72769" lon="7.06179">
        <ele>580.20001220703</ele>
        <time>2023-07-30T10:00:39.000Z</time>
      </trkpt>
      <trkpt lat="43.72769" lon="7.06181">
        <ele>580.20001220703</ele>
        <time>2023-07-30T10:00:40.000Z</time>
      </trkpt>
      <trkpt lat="43.72769" lon="7.06182">
        <ele>580.20001220703</ele>
        <time>2023-07-30T10:00:41.000Z</time>
      </trkpt>
      <trkpt lat="43.7277" lon="7.06182">
        <ele>580.20001220703</ele>
        <time>2023-07-30T10:00:42.000Z</time>
      </trkpt>
      <trkpt lat="43.7277" lon="7.06182">
        <ele>580.20001220703</ele>
        <time>2023-07-30T10:00:43.000Z</time>
      </trkpt>
      <trkpt lat="43.7277" lon="7.06182">
        <ele>580.20001220703</ele>
        <time>2023-07-30T10:00:44.000Z</time>
      </trkpt>
      <trkpt lat="43.72769" lon="7.06182">
        <ele>580.40002441406</ele>
        <time>2023-07-30T10:00:45.000Z</time>
      </trkpt>
      <trkpt lat="43.72769" lon="7.06182">
        <ele>580.40002441406</ele>
        <time>2023-07-30T10:00:46.000Z</time>
      </trkpt>
      <trkpt lat="43.72769" lon="7.06182">
        <ele>580.40002441406</ele>
        <time>2023-07-30T10:00:47.000Z</time>
      </trkpt>
      <trkpt lat="43.72769" lon="7.06182">
        <ele>580.40002441406</ele>
        <time>2023-07-30T10:00:48.000Z</time>
      </trkpt>
      <trkpt lat="43.72769" lon="7.06182">
        <ele>580.40002441406</ele>
        <time>2023-07-30T10:00:49.000Z</time>
      </trkpt>
      <trkpt lat="43.72769" lon="7.06182">
        <ele>580.40002441406</ele>
        <time>2023-07-30T10:00:50.000Z</time>
      </trkpt>
      <trkpt lat="43.72769" lon="7.06182">
        <ele>580.40002441406</ele>
        <time>2023-07-30T10:00:51.000Z</time>
      </trkpt>
      <trkpt lat="43.72769" lon="7.06182">
        <ele>580.40002441406</ele>
        <time>2023-07-30T10:00:52.000Z</time>
      </trkpt>
      <trkpt lat="43.72769" lon="7.06182">
        <ele>580.40002441406</ele>
        <time>2023-07-30T10:00:53.000Z</time>
      </trkpt>
      <trkpt lat="43.72769" lon="7.06182">
        <ele>580.40002441406</ele>
        <time>2023-07-30T10:00:54.000Z</time>
      </trkpt>
      <trkpt lat="43.72769" lon="7.06182">
        <ele>580.59997558594</ele>
        <time>2023-07-30T10:00:55.000Z</time>
      </trkpt>
      <trkpt lat="43.72769" lon="7.06182">
        <ele>580.59997558594</ele>
        <time>2023-07-30T10:00:56.000Z</time>
      </trkpt>
      <trkpt lat="43.72769" lon="7.06182">
        <ele>580.59997558594</ele>
        <time>2023-07-30T10:00:57.000Z</time>
      </trkpt>
      <trkpt lat="43.72769" lon="7.06182">
        <ele>580.59997558594</ele>
        <time>2023-07-30T10:00:58.000Z</time>
      </trkpt>
      <trkpt lat="43.7277" lon="7.06182">
        <ele>580.59997558594</ele>
        <time>2023-07-30T10:00:59.000Z</time>
      </trkpt>
      <trkpt lat="43.72771" lon="7.06182">
        <ele>580.59997558594</ele>
        <time>2023-07-30T10:01:00.000Z</time>
      </trkpt>
      <trkpt lat="43.72771" lon="7.06182">
        <ele>580.59997558594</ele>
        <time>2023-07-30T10:01:01.000Z</time>
      </trkpt>
      <trkpt lat="43.72771" lon="7.06182">
        <ele>580.59997558594</ele>
        <time>2023-07-30T10:01:02.000Z</time>
      </trkpt>
      <trkpt lat="43.72771" lon="7.06182">
        <ele>580.59997558594</ele>
        <time>2023-07-30T10:01:03.000Z</time>
      </trkpt>
      <trkpt lat="43.72771" lon="7.06182">
        <ele>580.59997558594</ele>
        <time>2023-07-30T10:01:04.000Z</time>
      </trkpt>
      <trkpt lat="43.72771" lon="7.06182">
        <ele>580.59997558594</ele>
        <time>2023-07-30T10:01:05.000Z</time>
      </trkpt>
      <trkpt lat="43.72771" lon="7.06182">
        <ele>580.59997558594</ele>
        <time>2023-07-30T10:01:06.000Z</time>
      </trkpt>
      <trkpt lat="43.72771" lon="7.06182">
        <ele>580.59997558594</ele>
        <time>2023-07-30T10:01:07.000Z</time>
      </trkpt>
      <trkpt lat="43.72771" lon="7.06182">
        <ele>580.59997558594</ele>
        <time>2023-07-30T10:01:08.000Z</time>
      </trkpt>
      <trkpt lat="43.72771" lon="7.06182">
        <ele>580.59997558594</ele>
        <time>2023-07-30T10:01:09.000Z</time>
      </trkpt>
      <trkpt lat="43.72771" lon="7.06182">
        <ele>580.59997558594</ele>
        <time>2023-07-30T10:01:10.000Z</time>
      </trkpt>
      <trkpt lat="43.72771" lon="7.06182">
        <ele>580.59997558594</ele>
        <time>2023-07-30T10:01:11.000Z</time>
      </trkpt>
      <trkpt lat="43.72771" lon="7.06182">
        <ele>580.59997558594</ele>
        <time>2023-07-30T10:01:12.000Z</time>
      </trkpt>
      <trkpt lat="43.72771" lon="7.06182">
        <ele>580.79998779297</ele>
        <time>2023-07-30T10:01:13.000Z</time>
      </trkpt>
      <trkpt lat="43.72771" lon="7.06182">
        <ele>580.79998779297</ele>
        <time>2023-07-30T10:01:14.000Z</time>
      </trkpt>
      <trkpt lat="43.72771" lon="7.06182">
        <ele>580.79998779297</ele>
        <time>2023-07-30T10:01:15.000Z</time>
      </trkpt>
      <trkpt lat="43.72771" lon="7.06182">
        <ele>580.79998779297</ele>
        <time>2023-07-30T10:01:16.000Z</time>
      </trkpt>
      <trkpt lat="43.72771" lon="7.06182">
        <ele>580.79998779297</ele>
        <time>2023-07-30T10:01:17.000Z</time>
      </trkpt>
      <trkpt lat="43.72771" lon="7.06182">
        <ele>580.79998779297</ele>
        <time>2023-07-30T10:01:18.000Z</time>
      </trkpt>
      <trkpt lat="43.72771" lon="7.06182">
        <ele>580.79998779297</ele>
        <time>2023-07-30T10:01:19.000Z</time>
      </trkpt>
      <trkpt lat="43.72771" lon="7.06182">
        <ele>580.79998779297</ele>
        <time>2023-07-30T10:01:20.000Z</time>
      </trkpt>
      <trkpt lat="43.72771" lon="7.06182">
        <ele>580.79998779297</ele>
        <time>2023-07-30T10:01:21.000Z</time>
      </trkpt>
      <trkpt lat="43.72771" lon="7.06182">
        <ele>580.79998779297</ele>
        <time>2023-07-30T10:01:22.000Z</time>
      </trkpt>
      <trkpt lat="43.72771" lon="7.06182">
        <ele>580.79998779297</ele>
        <time>2023-07-30T10:01:23.000Z</time>
      </trkpt>
      <trkpt lat="43.72771" lon="7.06182">
        <ele>580.79998779297</ele>
        <time>2023-07-30T10:01:24.000Z</time>
      </trkpt>
      <trkpt lat="43.72771" lon="7.06182">
        <ele>580.40002441406</ele>
        <time>2023-07-30T10:01:25.000Z</time>
      </trkpt>
      <trkpt lat="43.72771" lon="7.06182">
        <ele>580.40002441406</ele>
        <time>2023-07-30T10:01:26.000Z</time>
      </trkpt>
      <trkpt lat="43.72771" lon="7.06182">
        <ele>580.40002441406</ele>
        <time>2023-07-30T10:01:27.000Z</time>
      </trkpt>
      <trkpt lat="43.72771" lon="7.06182">
        <ele>580.40002441406</ele>
        <time>2023-07-30T10:01:28.000Z</time>
      </trkpt>
      <trkpt lat="43.72771" lon="7.06182">
        <ele>580.40002441406</ele>
        <time>2023-07-30T10:01:29.000Z</time>
      </trkpt>
      <trkpt lat="43.72771" lon="7.06182">
        <ele>580.79998779297</ele>
        <time>2023-07-30T10:01:30.000Z</time>
      </trkpt>
      <trkpt lat="43.72771" lon="7.06182">
        <ele>580.79998779297</ele>
        <time>2023-07-30T10:01:31.000Z</time>
      </trkpt>
      <trkpt lat="43.72771" lon="7.06182">
        <ele>580.79998779297</ele>
        <time>2023-07-30T10:01:32.000Z</time>
      </trkpt>
      <trkpt lat="43.72771" lon="7.06182">
        <ele>580.79998779297</ele>
        <time>2023-07-30T10:01:33.000Z</time>
      </trkpt>
      <trkpt lat="43.72771" lon="7.06182">
        <ele>580.79998779297</ele>
        <time>2023-07-30T10:01:34.000Z</time>
      </trkpt>
      <trkpt lat="43.72771" lon="7.06182">
        <ele>580.79998779297</ele>
        <time>2023-07-30T10:01:35.000Z</time>
      </trkpt>
      <trkpt lat="43.72771" lon="7.06182">
        <ele>580.59997558594</ele>
        <time>2023-07-30T10:01:36.000Z</time>
      </trkpt>
      <trkpt lat="43.72771" lon="7.06182">
        <ele>580.59997558594</ele>
        <time>2023-07-30T10:01:37.000Z</time>
      </trkpt>
      <trkpt lat="43.72771" lon="7.06182">
        <ele>580.59997558594</ele>
        <time>2023-07-30T10:01:38.000Z</time>
      </trkpt>
      <trkpt lat="43.72771" lon="7.06182">
        <ele>580.59997558594</ele>
        <time>2023-07-30T10:01:39.000Z</time>
      </trkpt>
      <trkpt lat="43.72771" lon="7.06182">
        <ele>580.59997558594</ele>
        <time>2023-07-30T10:01:40.000Z</time>
      </trkpt>
      <trkpt lat="43.72771" lon="7.06182">
        <ele>580.59997558594</ele>
        <time>2023-07-30T10:01:41.000Z</time>
      </trkpt>
      <trkpt lat="43.72771" lon="7.06182">
        <ele>580.59997558594</ele>
        <time>2023-07-30T10:01:42.000Z</time>
      </trkpt>
      <trkpt lat="43.72771" lon="7.06182">
        <ele>580.59997558594</ele>
        <time>2023-07-30T10:01:43.000Z</time>
      </trkpt>
      <trkpt lat="43.72771" lon="7.06182">
        <ele>580.59997558594</ele>
        <time>2023-07-30T10:01:44.000Z</time>
      </trkpt>
      <trkpt lat="43.72771" lon="7.06182">
        <ele>580.59997558594</ele>
        <time>2023-07-30T10:01:45.000Z</time>
      </trkpt>
      <trkpt lat="43.7277" lon="7.06182">
        <ele>580.59997558594</ele>
        <time>2023-07-30T10:01:46.000Z</time>
      </trkpt>
      <trkpt lat="43.7277" lon="7.06182">
        <ele>580.59997558594</ele>
        <time>2023-07-30T10:01:47.000Z</time>
      </trkpt>
      <trkpt lat="43.7277" lon="7.06182">
        <ele>580.59997558594</ele>
        <time>2023-07-30T10:01:48.000Z</time>
      </trkpt>
      <trkpt lat="43.7277" lon="7.06182">
        <ele>580.59997558594</ele>
        <time>2023-07-30T10:01:49.000Z</time>
      </trkpt>
      <trkpt lat="43.7277" lon="7.06182">
        <ele>580.59997558594</ele>
        <time>2023-07-30T10:01:50.000Z</time>
      </trkpt>
      <trkpt lat="43.7277" lon="7.06182">
        <ele>580.59997558594</ele>
        <time>2023-07-30T10:01:51.000Z</time>
      </trkpt>
      <trkpt lat="43.7277" lon="7.06182">
        <ele>580.59997558594</ele>
        <time>2023-07-30T10:01:52.000Z</time>
      </trkpt>
      <trkpt lat="43.7277" lon="7.06182">
        <ele>580.59997558594</ele>
        <time>2023-07-30T10:01:53.000Z</time>
      </trkpt>
      <trkpt lat="43.7277" lon="7.06182">
        <ele>580.59997558594</ele>
        <time>2023-07-30T10:01:54.000Z</time>
      </trkpt>
      <trkpt lat="43.7277" lon="7.06182">
        <ele>580.59997558594</ele>
        <time>2023-07-30T10:01:55.000Z</time>
      </trkpt>
      <trkpt lat="43.7277" lon="7.06182">
        <ele>580.59997558594</ele>
        <time>2023-07-30T10:01:56.000Z</time>
      </trkpt>
      <trkpt lat="43.7277" lon="7.06182">
        <ele>580.59997558594</ele>
        <time>2023-07-30T10:01:57.000Z</time>
      </trkpt>
      <trkpt lat="43.7277" lon="7.06182">
        <ele>580.59997558594</ele>
        <time>2023-07-30T10:01:58.000Z</time>
      </trkpt>
      <trkpt lat="43.7277" lon="7.06182">
        <ele>580.59997558594</ele>
        <time>2023-07-30T10:01:59.000Z</time>
      </trkpt>
      <trkpt lat="43.7277" lon="7.06182">
        <ele>580.59997558594</ele>
        <time>2023-07-30T10:02:00.000Z</time>
      </trkpt>
      <trkpt lat="43.7277" lon="7.06182">
        <ele>580.59997558594</ele>
        <time>2023-07-30T10:02:01.000Z</time>
      </trkpt>
      <trkpt lat="43.7277" lon="7.06182">
        <ele>580.79998779297</ele>
        <time>2023-07-30T10:02:02.000Z</time>
      </trkpt>
      <trkpt lat="43.7277" lon="7.06182">
        <ele>580.79998779297</ele>
        <time>2023-07-30T10:02:03.000Z</time>
      </trkpt>
      <trkpt lat="43.7277" lon="7.06182">
        <ele>580.79998779297</ele>
        <time>2023-07-30T10:02:04.000Z</time>
      </trkpt>
      <trkpt lat="43.7277" lon="7.06182">
        <ele>580.79998779297</ele>
        <time>2023-07-30T10:02:05.000Z</time>
      </trkpt>
      <trkpt lat="43.7277" lon="7.06181">
        <ele>580.79998779297</ele>
        <time>2023-07-30T10:02:06.000Z</time>
      </trkpt>
      <trkpt lat="43.7277" lon="7.06182">
        <ele>580.79998779297</ele>
        <time>2023-07-30T10:02:07.000Z</time>
      </trkpt>
      <trkpt lat="43.7277" lon="7.06182">
        <ele>580.79998779297</ele>
        <time>2023-07-30T10:02:08.000Z</time>
      </trkpt>
      <trkpt lat="43.7277" lon="7.06182">
        <ele>580.79998779297</ele>
        <time>2023-07-30T10:02:09.000Z</time>
      </trkpt>
      <trkpt lat="43.7277" lon="7.06182">
        <ele>581</ele>
        <time>2023-07-30T10:02:10.000Z</time>
      </trkpt>
      <trkpt lat="43.7277" lon="7.06182">
        <ele>581</ele>
        <time>2023-07-30T10:02:11.000Z</time>
      </trkpt>
      <trkpt lat="43.7277" lon="7.06182">
        <ele>581</ele>
        <time>2023-07-30T10:02:12.000Z</time>
      </trkpt>
      <trkpt lat="43.7277" lon="7.06182">
        <ele>581</ele>
        <time>2023-07-30T10:02:13.000Z</time>
      </trkpt>
      <trkpt lat="43.7277" lon="7.06182">
        <ele>581</ele>
        <time>2023-07-30T10:02:14.000Z</time>
      </trkpt>
      <trkpt lat="43.7277" lon="7.06182">
        <ele>581</ele>
        <time>2023-07-30T10:02:15.000Z</time>
      </trkpt>
      <trkpt lat="43.7277" lon="7.06182">
        <ele>581</ele>
        <time>2023-07-30T10:02:16.000Z</time>
      </trkpt>
      <trkpt lat="43.7277" lon="7.06182">
        <ele>581</ele>
        <time>2023-07-30T10:02:17.000Z</time>
      </trkpt>
      <trkpt lat="43.7277" lon="7.06182">
        <ele>581</ele>
        <time>2023-07-30T10:02:18.000Z</time>
      </trkpt>
      <trkpt lat="43.7277" lon="7.06182">
        <ele>581</ele>
        <time>2023-07-30T10:02:19.000Z</time>
      </trkpt>
      <trkpt lat="43.7277" lon="7.06182">
        <ele>581</ele>
        <time>2023-07-30T10:02:20.000Z</time>
      </trkpt>
      <trkpt lat="43.7277" lon="7.06182">
        <ele>581</ele>
        <time>2023-07-30T10:02:21.000Z</time>
      </trkpt>
      <trkpt lat="43.7277" lon="7.06182">
        <ele>581</ele>
        <time>2023-07-30T10:02:22.000Z</time>
      </trkpt>
      <trkpt lat="43.7277" lon="7.06182">
        <ele>581</ele>
        <time>2023-07-30T10:02:23.000Z</time>
      </trkpt>
      <trkpt lat="43.7277" lon="7.06182">
        <ele>581</ele>
        <time>2023-07-30T10:02:24.000Z</time>
      </trkpt>
      <trkpt lat="43.7277" lon="7.06182">
        <ele>581</ele>
        <time>2023-07-30T10:02:25.000Z</time>
      </trkpt>
      <trkpt lat="43.7277" lon="7.06182">
        <ele>581</ele>
        <time>2023-07-30T10:02:26.000Z</time>
      </trkpt>
      <trkpt lat="43.7277" lon="7.06182">
        <ele>581</ele>
        <time>2023-07-30T10:02:27.000Z</time>
      </trkpt>
      <trkpt lat="43.7277" lon="7.06182">
        <ele>581</ele>
        <time>2023-07-30T10:02:28.000Z</time>
      </trkpt>
      <trkpt lat="43.7277" lon="7.06182">
        <ele>581</ele>
        <time>2023-07-30T10:02:29.000Z</time>
      </trkpt>
      <trkpt lat="43.7277" lon="7.06182">
        <ele>581</ele>
        <time>2023-07-30T10:02:30.000Z</time>
      </trkpt>
      <trkpt lat="43.7277" lon="7.06182">
        <ele>581</ele>
        <time>2023-07-30T10:02:31.000Z</time>
      </trkpt>
      <trkpt lat="43.7277" lon="7.06182">
        <ele>581</ele>
        <time>2023-07-30T10:02:32.000Z</time>
      </trkpt>
      <trkpt lat="43.7277" lon="7.06182">
        <ele>581</ele>
        <time>2023-07-30T10:02:33.000Z</time>
      </trkpt>
      <trkpt lat="43.7277" lon="7.06182">
        <ele>581</ele>
        <time>2023-07-30T10:02:34.000Z</time>
      </trkpt>
      <trkpt lat="43.7277" lon="7.06182">
        <ele>581</ele>
        <time>2023-07-30T10:02:35.000Z</time>
      </trkpt>
      <trkpt lat="43.7277" lon="7.06182">
        <ele>581</ele>
        <time>2023-07-30T10:02:36.000Z</time>
      </trkpt>
      <trkpt lat="43.7277" lon="7.06182">
        <ele>581</ele>
        <time>2023-07-30T10:02:37.000Z</time>
      </trkpt>
      <trkpt lat="43.7277" lon="7.06182">
        <ele>581</ele>
        <time>2023-07-30T10:02:38.000Z</time>
      </trkpt>
      <trkpt lat="43.7277" lon="7.06182">
        <ele>581</ele>
        <time>2023-07-30T10:02:39.000Z</time>
      </trkpt>
      <trkpt lat="43.7277" lon="7.06182">
        <ele>581</ele>
        <time>2023-07-30T10:02:40.000Z</time>
      </trkpt>
      <trkpt lat="43.7277" lon="7.06182">
        <ele>581</ele>
        <time>2023-07-30T10:02:41.000Z</time>
      </trkpt>
      <trkpt lat="43.7277" lon="7.06182">
        <ele>581</ele>
        <time>2023-07-30T10:02:42.000Z</time>
      </trkpt>
      <trkpt lat="43.7277" lon="7.06182">
        <ele>581</ele>
        <time>2023-07-30T10:02:43.000Z</time>
      </trkpt>
      <trkpt lat="43.7277" lon="7.06182">
        <ele>581</ele>
        <time>2023-07-30T10:02:44.000Z</time>
      </trkpt>
      <trkpt lat="43.7277" lon="7.06182">
        <ele>581</ele>
        <time>2023-07-30T10:02:45.000Z</time>
      </trkpt>
      <trkpt lat="43.7277" lon="7.06182">
        <ele>581</ele>
        <time>2023-07-30T10:02:46.000Z</time>
      </trkpt>
      <trkpt lat="43.7277" lon="7.06182">
        <ele>581</ele>
        <time>2023-07-30T10:02:47.000Z</time>
      </trkpt>
      <trkpt lat="43.7277" lon="7.06182">
        <ele>581</ele>
        <time>2023-07-30T10:02:48.000Z</time>
      </trkpt>
      <trkpt lat="43.7277" lon="7.06182">
        <ele>581</ele>
        <time>2023-07-30T10:02:49.000Z</time>
      </trkpt>
      <trkpt lat="43.7277" lon="7.06182">
        <ele>581</ele>
        <time>2023-07-30T10:02:50.000Z</time>
      </trkpt>
      <trkpt lat="43.7277" lon="7.06181">
        <ele>581</ele>
        <time>2023-07-30T10:02:51.000Z</time>
      </trkpt>
      <trkpt lat="43.7277" lon="7.06181">
        <ele>581</ele>
        <time>2023-07-30T10:02:52.000Z</time>
      </trkpt>
      <trkpt lat="43.7277" lon="7.06181">
        <ele>581</ele>
        <time>2023-07-30T10:02:53.000Z</time>
      </trkpt>
      <trkpt lat="43.7277" lon="7.06181">
        <ele>581</ele>
        <time>2023-07-30T10:02:54.000Z</time>
      </trkpt>
      <trkpt lat="43.7277" lon="7.06181">
        <ele>581</ele>
        <time>2023-07-30T10:02:55.000Z</time>
      </trkpt>
      <trkpt lat="43.7277" lon="7.06182">
        <ele>581</ele>
        <time>2023-07-30T10:02:56.000Z</time>
      </trkpt>
      <trkpt lat="43.7277" lon="7.06182">
        <ele>581</ele>
        <time>2023-07-30T10:02:57.000Z</time>
      </trkpt>
      <trkpt lat="43.7277" lon="7.06182">
        <ele>581</ele>
        <time>2023-07-30T10:02:58.000Z</time>
      </trkpt>
      <trkpt lat="43.7277" lon="7.06182">
        <ele>581</ele>
        <time>2023-07-30T10:02:59.000Z</time>
      </trkpt>
      <trkpt lat="43.7277" lon="7.06182">
        <ele>581</ele>
        <time>2023-07-30T10:03:00.000Z</time>
      </trkpt>
      <trkpt lat="43.7277" lon="7.06182">
        <ele>581</ele>
        <time>2023-07-30T10:03:01.000Z</time>
      </trkpt>
      <trkpt lat="43.7277" lon="7.06182">
        <ele>581</ele>
        <time>2023-07-30T10:03:02.000Z</time>
      </trkpt>
      <trkpt lat="43.7277" lon="7.06182">
        <ele>581</ele>
        <time>2023-07-30T10:03:03.000Z</time>
      </trkpt>
      <trkpt lat="43.7277" lon="7.06182">
        <ele>581</ele>
        <time>2023-07-30T10:03:04.000Z</time>
      </trkpt>
      <trkpt lat="43.7277" lon="7.06182">
        <ele>581</ele>
        <time>2023-07-30T10:03:05.000Z</time>
      </trkpt>
      <trkpt lat="43.7277" lon="7.06182">
        <ele>581</ele>
        <time>2023-07-30T10:03:06.000Z</time>
      </trkpt>
      <trkpt lat="43.7277" lon="7.06182">
        <ele>581</ele>
        <time>2023-07-30T10:03:07.000Z</time>
      </trkpt>
      <trkpt lat="43.7277" lon="7.06182">
        <ele>581</ele>
        <time>2023-07-30T10:03:08.000Z</time>
      </trkpt>
      <trkpt lat="43.7277" lon="7.06182">
        <ele>581</ele>
        <time>2023-07-30T10:03:09.000Z</time>
      </trkpt>
      <trkpt lat="43.7277" lon="7.06182">
        <ele>581</ele>
        <time>2023-07-30T10:03:10.000Z</time>
      </trkpt>
      <trkpt lat="43.7277" lon="7.06182">
        <ele>581</ele>
        <time>2023-07-30T10:03:11.000Z</time>
      </trkpt>
      <trkpt lat="43.7277" lon="7.06182">
        <ele>581</ele>
        <time>2023-07-30T10:03:12.000Z</time>
      </trkpt>
      <trkpt lat="43.7277" lon="7.06182">
        <ele>581</ele>
        <time>2023-07-30T10:03:13.000Z</time>
      </trkpt>
      <trkpt lat="43.7277" lon="7.06182">
        <ele>581</ele>
        <time>2023-07-30T10:03:14.000Z</time>
      </trkpt>
      <trkpt lat="43.7277" lon="7.06182">
        <ele>581</ele>
        <time>2023-07-30T10:03:15.000Z</time>
      </trkpt>
      <trkpt lat="43.7277" lon="7.06182">
        <ele>581</ele>
        <time>2023-07-30T10:03:16.000Z</time>
      </trkpt>
      <trkpt lat="43.7277" lon="7.06182">
        <ele>581</ele>
        <time>2023-07-30T10:03:17.000Z</time>
      </trkpt>
      <trkpt lat="43.7277" lon="7.06182">
        <ele>581</ele>
        <time>2023-07-30T10:03:18.000Z</time>
      </trkpt>
      <trkpt lat="43.7277" lon="7.06182">
        <ele>581</ele>
        <time>2023-07-30T10:03:19.000Z</time>
      </trkpt>
      <trkpt lat="43.7277" lon="7.06182">
        <ele>581</ele>
        <time>2023-07-30T10:03:20.000Z</time>
      </trkpt>
      <trkpt lat="43.7277" lon="7.06182">
        <ele>581</ele>
        <time>2023-07-30T10:03:21.000Z</time>
      </trkpt>
      <trkpt lat="43.7277" lon="7.06182">
        <ele>581</ele>
        <time>2023-07-30T10:03:22.000Z</time>
      </trkpt>
      <trkpt lat="43.7277" lon="7.06182">
        <ele>581</ele>
        <time>2023-07-30T10:03:23.000Z</time>
      </trkpt>
      <trkpt lat="43.7277" lon="7.06182">
        <ele>581</ele>
        <time>2023-07-30T10:03:24.000Z</time>
      </trkpt>
      <trkpt lat="43.7277" lon="7.06182">
        <ele>581</ele>
        <time>2023-07-30T10:03:25.000Z</time>
      </trkpt>
      <trkpt lat="43.7277" lon="7.06182">
        <ele>581</ele>
        <time>2023-07-30T10:03:26.000Z</time>
      </trkpt>
      <trkpt lat="43.7277" lon="7.06182">
        <ele>581</ele>
        <time>2023-07-30T10:03:27.000Z</time>
      </trkpt>
      <trkpt lat="43.7277" lon="7.06181">
        <ele>581</ele>
        <time>2023-07-30T10:03:28.000Z</time>
      </trkpt>
      <trkpt lat="43.7277" lon="7.06181">
        <ele>581</ele>
        <time>2023-07-30T10:03:29.000Z</time>
      </trkpt>
      <trkpt lat="43.7277" lon="7.06181">
        <ele>581</ele>
        <time>2023-07-30T10:03:30.000Z</time>
      </trkpt>
      <trkpt lat="43.7277" lon="7.06181">
        <ele>581</ele>
        <time>2023-07-30T10:03:31.000Z</time>
      </trkpt>
      <trkpt lat="43.7277" lon="7.06182">
        <ele>581</ele>
        <time>2023-07-30T10:03:32.000Z</time>
      </trkpt>
      <trkpt lat="43.7277" lon="7.06181">
        <ele>581</ele>
        <time>2023-07-30T10:03:33.000Z</time>
      </trkpt>
      <trkpt lat="43.7277" lon="7.06181">
        <ele>581</ele>
        <time>2023-07-30T10:03:34.000Z</time>
      </trkpt>
      <trkpt lat="43.7277" lon="7.06181">
        <ele>581</ele>
        <time>2023-07-30T10:03:35.000Z</time>
      </trkpt>
      <trkpt lat="43.7277" lon="7.06182">
        <ele>581</ele>
        <time>2023-07-30T10:03:36.000Z</time>
      </trkpt>
      <trkpt lat="43.7277" lon="7.06182">
        <ele>581</ele>
        <time>2023-07-30T10:03:37.000Z</time>
      </trkpt>
      <trkpt lat="43.7277" lon="7.06182">
        <ele>581</ele>
        <time>2023-07-30T10:03:38.000Z</time>
      </trkpt>
      <trkpt lat="43.72769" lon="7.06183">
        <ele>581</ele>
        <time>2023-07-30T10:03:39.000Z</time>
      </trkpt>
      <trkpt lat="43.72768" lon="7.06185">
        <ele>581</ele>
        <time>2023-07-30T10:03:40.000Z</time>
      </trkpt>
      <trkpt lat="43.72767" lon="7.06187">
        <ele>581</ele>
        <time>2023-07-30T10:03:41.000Z</time>
      </trkpt>
      <trkpt lat="43.72766" lon="7.06189">
        <ele>581</ele>
        <time>2023-07-30T10:03:42.000Z</time>
      </trkpt>
      <trkpt lat="43.72766" lon="7.06191">
        <ele>581</ele>
        <time>2023-07-30T10:03:43.000Z</time>
      </trkpt>
      <trkpt lat="43.72767" lon="7.06194">
        <ele>581</ele>
        <time>2023-07-30T10:03:44.000Z</time>
      </trkpt>
      <trkpt lat="43.72767" lon="7.06197">
        <ele>581</ele>
        <time>2023-07-30T10:03:45.000Z</time>
      </trkpt>
      <trkpt lat="43.72768" lon="7.062">
        <ele>581</ele>
        <time>2023-07-30T10:03:46.000Z</time>
      </trkpt>
      <trkpt lat="43.72768" lon="7.06203">
        <ele>581</ele>
        <time>2023-07-30T10:03:47.000Z</time>
      </trkpt>
      <trkpt lat="43.72768" lon="7.06207">
        <ele>581</ele>
        <time>2023-07-30T10:03:48.000Z</time>
      </trkpt>
      <trkpt lat="43.72769" lon="7.0621">
        <ele>581</ele>
        <time>2023-07-30T10:03:49.000Z</time>
      </trkpt>
      <trkpt lat="43.72769" lon="7.06213">
        <ele>581</ele>
        <time>2023-07-30T10:03:50.000Z</time>
      </trkpt>
      <trkpt lat="43.72769" lon="7.06216">
        <ele>581</ele>
        <time>2023-07-30T10:03:51.000Z</time>
      </trkpt>
      <trkpt lat="43.72769" lon="7.06219">
        <ele>581</ele>
        <time>2023-07-30T10:03:52.000Z</time>
      </trkpt>
      <trkpt lat="43.72769" lon="7.06221">
        <ele>581</ele>
        <time>2023-07-30T10:03:53.000Z</time>
      </trkpt>
      <trkpt lat="43.72769" lon="7.06222">
        <ele>581</ele>
        <time>2023-07-30T10:03:54.000Z</time>
      </trkpt>
      <trkpt lat="43.72769" lon="7.06222">
        <ele>581</ele>
        <time>2023-07-30T10:03:55.000Z</time>
      </trkpt>
      <trkpt lat="43.72769" lon="7.06222">
        <ele>581</ele>
        <time>2023-07-30T10:03:56.000Z</time>
      </trkpt>
      <trkpt lat="43.72769" lon="7.06222">
        <ele>581</ele>
        <time>2023-07-30T10:03:57.000Z</time>
      </trkpt>
      <trkpt lat="43.72769" lon="7.06222">
        <ele>581</ele>
        <time>2023-07-30T10:03:58.000Z</time>
      </trkpt>
      <trkpt lat="43.72769" lon="7.06222">
        <ele>581</ele>
        <time>2023-07-30T10:03:59.000Z</time>
      </trkpt>
      <trkpt lat="43.72769" lon="7.06222">
        <ele>581</ele>
        <time>2023-07-30T10:04:00.000Z</time>
      </trkpt>
      <trkpt lat="43.72769" lon="7.06222">
        <ele>581</ele>
        <time>2023-07-30T10:04:01.000Z</time>
      </trkpt>
      <trkpt lat="43.72769" lon="7.06222">
        <ele>581</ele>
        <time>2023-07-30T10:04:02.000Z</time>
      </trkpt>
      <trkpt lat="43.72769" lon="7.06222">
        <ele>581</ele>
        <time>2023-07-30T10:04:03.000Z</time>
      </trkpt>
      <trkpt lat="43.72769" lon="7.06222">
        <ele>581</ele>
        <time>2023-07-30T10:04:04.000Z</time>
      </trkpt>
      <trkpt lat="43.72769" lon="7.06222">
        <ele>581</ele>
        <time>2023-07-30T10:04:05.000Z</time>
      </trkpt>
      <trkpt lat="43.72769" lon="7.06222">
        <ele>581</ele>
        <time>2023-07-30T10:04:06.000Z</time>
      </trkpt>
      <trkpt lat="43.72769" lon="7.06222">
        <ele>581</ele>
        <time>2023-07-30T10:04:07.000Z</time>
      </trkpt>
      <trkpt lat="43.72769" lon="7.06222">
        <ele>581</ele>
        <time>2023-07-30T10:04:08.000Z</time>
      </trkpt>
      <trkpt lat="43.72769" lon="7.06222">
        <ele>581</ele>
        <time>2023-07-30T10:04:09.000Z</time>
      </trkpt>
      <trkpt lat="43.72769" lon="7.06222">
        <ele>581.20001220703</ele>
        <time>2023-07-30T10:04:10.000Z</time>
      </trkpt>
      <trkpt lat="43.72769" lon="7.06222">
        <ele>581.40002441406</ele>
        <time>2023-07-30T10:04:11.000Z</time>
      </trkpt>
      <trkpt lat="43.72769" lon="7.06222">
        <ele>581.40002441406</ele>
        <time>2023-07-30T10:04:12.000Z</time>
      </trkpt>
      <trkpt lat="43.72768" lon="7.06224">
        <ele>581.40002441406</ele>
        <time>2023-07-30T10:04:13.000Z</time>
      </trkpt>
      <trkpt lat="43.72767" lon="7.06225">
        <ele>581.59997558594</ele>
        <time>2023-07-30T10:04:14.000Z</time>
      </trkpt>
      <trkpt lat="43.72767" lon="7.06226">
        <ele>581.59997558594</ele>
        <time>2023-07-30T10:04:15.000Z</time>
      </trkpt>
      <trkpt lat="43.72766" lon="7.06226">
        <ele>581.40002441406</ele>
        <time>2023-07-30T10:04:16.000Z</time>
      </trkpt>
      <trkpt lat="43.72766" lon="7.06227">
        <ele>581.40002441406</ele>
        <time>2023-07-30T10:04:17.000Z</time>
      </trkpt>
      <trkpt lat="43.72765" lon="7.06227">
        <ele>581.40002441406</ele>
        <time>2023-07-30T10:04:18.000Z</time>
      </trkpt>
      <trkpt lat="43.72766" lon="7.06227">
        <ele>581</ele>
        <time>2023-07-30T10:04:19.000Z</time>
      </trkpt>
      <trkpt lat="43.72765" lon="7.06227">
        <ele>581</ele>
        <time>2023-07-30T10:04:20.000Z</time>
      </trkpt>
      <trkpt lat="43.72765" lon="7.06227">
        <ele>580.79998779297</ele>
        <time>2023-07-30T10:04:21.000Z</time>
      </trkpt>
      <trkpt lat="43.72765" lon="7.06227">
        <ele>580.79998779297</ele>
        <time>2023-07-30T10:04:22.000Z</time>
      </trkpt>
      <trkpt lat="43.72765" lon="7.06227">
        <ele>580.59997558594</ele>
        <time>2023-07-30T10:04:23.000Z</time>
      </trkpt>
      <trkpt lat="43.72765" lon="7.06227">
        <ele>580.59997558594</ele>
        <time>2023-07-30T10:04:24.000Z</time>
      </trkpt>
      <trkpt lat="43.72764" lon="7.06226">
        <ele>580.59997558594</ele>
        <time>2023-07-30T10:04:25.000Z</time>
      </trkpt>
      <trkpt lat="43.72764" lon="7.06225">
        <ele>580.59997558594</ele>
        <time>2023-07-30T10:04:26.000Z</time>
      </trkpt>
      <trkpt lat="43.72764" lon="7.06224">
        <ele>580.59997558594</ele>
        <time>2023-07-30T10:04:27.000Z</time>
      </trkpt>
      <trkpt lat="43.72764" lon="7.06223">
        <ele>580.59997558594</ele>
        <time>2023-07-30T10:04:28.000Z</time>
      </trkpt>
      <trkpt lat="43.72763" lon="7.06223">
        <ele>580.40002441406</ele>
        <time>2023-07-30T10:04:29.000Z</time>
      </trkpt>
      <trkpt lat="43.72763" lon="7.06222">
        <ele>580.40002441406</ele>
        <time>2023-07-30T10:04:30.000Z</time>
      </trkpt>
      <trkpt lat="43.72763" lon="7.06223">
        <ele>580.20001220703</ele>
        <time>2023-07-30T10:04:31.000Z</time>
      </trkpt>
      <trkpt lat="43.72762" lon="7.06223">
        <ele>580.20001220703</ele>
        <time>2023-07-30T10:04:32.000Z</time>
      </trkpt>
      <trkpt lat="43.72762" lon="7.06224">
        <ele>580</ele>
        <time>2023-07-30T10:04:33.000Z</time>
      </trkpt>
      <trkpt lat="43.72762" lon="7.06225">
        <ele>580</ele>
        <time>2023-07-30T10:04:34.000Z</time>
      </trkpt>
      <trkpt lat="43.72762" lon="7.06225">
        <ele>579.79998779297</ele>
        <time>2023-07-30T10:04:35.000Z</time>
      </trkpt>
      <trkpt lat="43.72762" lon="7.06226">
        <ele>579.79998779297</ele>
        <time>2023-07-30T10:04:36.000Z</time>
      </trkpt>
      <trkpt lat="43.72762" lon="7.06225">
        <ele>579.59997558594</ele>
        <time>2023-07-30T10:04:37.000Z</time>
      </trkpt>
      <trkpt lat="43.72762" lon="7.06225">
        <ele>579.59997558594</ele>
        <time>2023-07-30T10:04:38.000Z</time>
      </trkpt>
      <trkpt lat="43.72762" lon="7.06225">
        <ele>579.40002441406</ele>
        <time>2023-07-30T10:04:39.000Z</time>
      </trkpt>
      <trkpt lat="43.72762" lon="7.06225">
        <ele>579.20001220703</ele>
        <time>2023-07-30T10:04:40.000Z</time>
      </trkpt>
      <trkpt lat="43.72762" lon="7.06225">
        <ele>579.20001220703</ele>
        <time>2023-07-30T10:04:41.000Z</time>
      </trkpt>
      <trkpt lat="43.72762" lon="7.06225">
        <ele>579</ele>
        <time>2023-07-30T10:04:42.000Z</time>
      </trkpt>
      <trkpt lat="43.72762" lon="7.06225">
        <ele>579</ele>
        <time>2023-07-30T10:04:43.000Z</time>
      </trkpt>
      <trkpt lat="43.72762" lon="7.06225">
        <ele>579</ele>
        <time>2023-07-30T10:04:44.000Z</time>
      </trkpt>
      <trkpt lat="43.72762" lon="7.06225">
        <ele>579</ele>
        <time>2023-07-30T10:04:45.000Z</time>
      </trkpt>
      <trkpt lat="43.72762" lon="7.06225">
        <ele>579</ele>
        <time>2023-07-30T10:04:46.000Z</time>
      </trkpt>
      <trkpt lat="43.72762" lon="7.06225">
        <ele>579</ele>
        <time>2023-07-30T10:04:47.000Z</time>
      </trkpt>
      <trkpt lat="43.72762" lon="7.06225">
        <ele>578.59997558594</ele>
        <time>2023-07-30T10:04:48.000Z</time>
      </trkpt>
      <trkpt lat="43.72762" lon="7.06225">
        <ele>578.59997558594</ele>
        <time>2023-07-30T10:04:49.000Z</time>
      </trkpt>
      <trkpt lat="43.72762" lon="7.06225">
        <ele>578.59997558594</ele>
        <time>2023-07-30T10:04:50.000Z</time>
      </trkpt>
      <trkpt lat="43.72762" lon="7.06225">
        <ele>578.59997558594</ele>
        <time>2023-07-30T10:04:51.000Z</time>
      </trkpt>
      <trkpt lat="43.72762" lon="7.06225">
        <ele>578.59997558594</ele>
        <time>2023-07-30T10:04:52.000Z</time>
      </trkpt>
      <trkpt lat="43.72762" lon="7.06225">
        <ele>578.59997558594</ele>
        <time>2023-07-30T10:04:53.000Z</time>
      </trkpt>
      <trkpt lat="43.72762" lon="7.06225">
        <ele>578.59997558594</ele>
        <time>2023-07-30T10:04:54.000Z</time>
      </trkpt>
      <trkpt lat="43.72762" lon="7.06225">
        <ele>578.79998779297</ele>
        <time>2023-07-30T10:04:55.000Z</time>
      </trkpt>
      <trkpt lat="43.72762" lon="7.06225">
        <ele>578.79998779297</ele>
        <time>2023-07-30T10:04:56.000Z</time>
      </trkpt>
      <trkpt lat="43.72762" lon="7.06226">
        <ele>578.79998779297</ele>
        <time>2023-07-30T10:04:57.000Z</time>
      </trkpt>
      <trkpt lat="43.72762" lon="7.06228">
        <ele>578.79998779297</ele>
        <time>2023-07-30T10:04:58.000Z</time>
      </trkpt>
      <trkpt lat="43.72762" lon="7.0623">
        <ele>578.79998779297</ele>
        <time>2023-07-30T10:04:59.000Z</time>
      </trkpt>
      <trkpt lat="43.72761" lon="7.06232">
        <ele>578.79998779297</ele>
        <time>2023-07-30T10:05:00.000Z</time>
      </trkpt>
      <trkpt lat="43.72761" lon="7.06234">
        <ele>578.79998779297</ele>
        <time>2023-07-30T10:05:01.000Z</time>
      </trkpt>
      <trkpt lat="43.7276" lon="7.06237">
        <ele>578.79998779297</ele>
        <time>2023-07-30T10:05:02.000Z</time>
      </trkpt>
      <trkpt lat="43.72759" lon="7.0624">
        <ele>578.79998779297</ele>
        <time>2023-07-30T10:05:03.000Z</time>
      </trkpt>
      <trkpt lat="43.72758" lon="7.06242">
        <ele>578.59997558594</ele>
        <time>2023-07-30T10:05:04.000Z</time>
      </trkpt>
      <trkpt lat="43.72757" lon="7.06246">
        <ele>578.59997558594</ele>
        <time>2023-07-30T10:05:05.000Z</time>
      </trkpt>
      <trkpt lat="43.72758" lon="7.06249">
        <ele>578.59997558594</ele>
        <time>2023-07-30T10:05:06.000Z</time>
      </trkpt>
      <trkpt lat="43.72758" lon="7.06251">
        <ele>578.59997558594</ele>
        <time>2023-07-30T10:05:07.000Z</time>
      </trkpt>
      <trkpt lat="43.72758" lon="7.06254">
        <ele>578.59997558594</ele>
        <time>2023-07-30T10:05:08.000Z</time>
      </trkpt>
      <trkpt lat="43.72757" lon="7.06258">
        <ele>578.79998779297</ele>
        <time>2023-07-30T10:05:09.000Z</time>
      </trkpt>
      <trkpt lat="43.72757" lon="7.06262">
        <ele>578.79998779297</ele>
        <time>2023-07-30T10:05:10.000Z</time>
      </trkpt>
      <trkpt lat="43.72757" lon="7.06265">
        <ele>578.79998779297</ele>
        <time>2023-07-30T10:05:11.000Z</time>
      </trkpt>
      <trkpt lat="43.72757" lon="7.06269">
        <ele>578.79998779297</ele>
        <time>2023-07-30T10:05:12.000Z</time>
      </trkpt>
      <trkpt lat="43.72756" lon="7.06273">
        <ele>578.79998779297</ele>
        <time>2023-07-30T10:05:13.000Z</time>
      </trkpt>
      <trkpt lat="43.72756" lon="7.06277">
        <ele>578.79998779297</ele>
        <time>2023-07-30T10:05:14.000Z</time>
      </trkpt>
      <trkpt lat="43.72756" lon="7.0628">
        <ele>578.79998779297</ele>
        <time>2023-07-30T10:05:15.000Z</time>
      </trkpt>
      <trkpt lat="43.72756" lon="7.06284">
        <ele>579.20001220703</ele>
        <time>2023-07-30T10:05:16.000Z</time>
      </trkpt>
      <trkpt lat="43.72756" lon="7.06288">
        <ele>579.40002441406</ele>
        <time>2023-07-30T10:05:17.000Z</time>
      </trkpt>
      <trkpt lat="43.72756" lon="7.06293">
        <ele>579.40002441406</ele>
        <time>2023-07-30T10:05:18.000Z</time>
      </trkpt>
      <trkpt lat="43.72755" lon="7.06297">
        <ele>579.40002441406</ele>
        <time>2023-07-30T10:05:19.000Z</time>
      </trkpt>
      <trkpt lat="43.72755" lon="7.06302">
        <ele>579.40002441406</ele>
        <time>2023-07-30T10:05:20.000Z</time>
      </trkpt>
      <trkpt lat="43.72756" lon="7.06306">
        <ele>579.20001220703</ele>
        <time>2023-07-30T10:05:21.000Z</time>
      </trkpt>
      <trkpt lat="43.72756" lon="7.0631">
        <ele>579.20001220703</ele>
        <time>2023-07-30T10:05:22.000Z</time>
      </trkpt>
      <trkpt lat="43.72757" lon="7.06314">
        <ele>579.20001220703</ele>
        <time>2023-07-30T10:05:23.000Z</time>
      </trkpt>
      <trkpt lat="43.72758" lon="7.06318">
        <ele>579.20001220703</ele>
        <time>2023-07-30T10:05:24.000Z</time>
      </trkpt>
      <trkpt lat="43.7276" lon="7.06321">
        <ele>579.20001220703</ele>
        <time>2023-07-30T10:05:25.000Z</time>
      </trkpt>
      <trkpt lat="43.72763" lon="7.06324">
        <ele>579.20001220703</ele>
        <time>2023-07-30T10:05:26.000Z</time>
      </trkpt>
      <trkpt lat="43.72765" lon="7.06326">
        <ele>579.20001220703</ele>
        <time>2023-07-30T10:05:27.000Z</time>
      </trkpt>
      <trkpt lat="43.72766" lon="7.06328">
        <ele>579.20001220703</ele>
        <time>2023-07-30T10:05:28.000Z</time>
      </trkpt>
      <trkpt lat="43.72766" lon="7.0633">
        <ele>579.20001220703</ele>
        <time>2023-07-30T10:05:29.000Z</time>
      </trkpt>
      <trkpt lat="43.72766" lon="7.06332">
        <ele>579.59997558594</ele>
        <time>2023-07-30T10:05:30.000Z</time>
      </trkpt>
      <trkpt lat="43.72765" lon="7.06333">
        <ele>580</ele>
        <time>2023-07-30T10:05:31.000Z</time>
      </trkpt>
      <trkpt lat="43.72764" lon="7.06335">
        <ele>580.20001220703</ele>
        <time>2023-07-30T10:05:32.000Z</time>
      </trkpt>
      <trkpt lat="43.72763" lon="7.06338">
        <ele>580.40002441406</ele>
        <time>2023-07-30T10:05:33.000Z</time>
      </trkpt>
      <trkpt lat="43.72762" lon="7.06339">
        <ele>580.40002441406</ele>
        <time>2023-07-30T10:05:34.000Z</time>
      </trkpt>
      <trkpt lat="43.72763" lon="7.0634">
        <ele>580.40002441406</ele>
        <time>2023-07-30T10:05:35.000Z</time>
      </trkpt>
      <trkpt lat="43.72763" lon="7.0634">
        <ele>580.40002441406</ele>
        <time>2023-07-30T10:05:36.000Z</time>
      </trkpt>
      <trkpt lat="43.72763" lon="7.0634">
        <ele>580.20001220703</ele>
        <time>2023-07-30T10:05:37.000Z</time>
      </trkpt>
      <trkpt lat="43.72763" lon="7.0634">
        <ele>580.20001220703</ele>
        <time>2023-07-30T10:05:38.000Z</time>
      </trkpt>
      <trkpt lat="43.72763" lon="7.0634">
        <ele>580.20001220703</ele>
        <time>2023-07-30T10:05:39.000Z</time>
      </trkpt>
      <trkpt lat="43.72763" lon="7.0634">
        <ele>580.20001220703</ele>
        <time>2023-07-30T10:05:40.000Z</time>
      </trkpt>
      <trkpt lat="43.72763" lon="7.0634">
        <ele>580.20001220703</ele>
        <time>2023-07-30T10:05:41.000Z</time>
      </trkpt>
      <trkpt lat="43.72763" lon="7.0634">
        <ele>580.20001220703</ele>
        <time>2023-07-30T10:05:42.000Z</time>
      </trkpt>
      <trkpt lat="43.72763" lon="7.0634">
        <ele>580.20001220703</ele>
        <time>2023-07-30T10:05:43.000Z</time>
      </trkpt>
      <trkpt lat="43.72763" lon="7.0634">
        <ele>580.20001220703</ele>
        <time>2023-07-30T10:05:44.000Z</time>
      </trkpt>
      <trkpt lat="43.72763" lon="7.0634">
        <ele>580.20001220703</ele>
        <time>2023-07-30T10:05:45.000Z</time>
      </trkpt>
      <trkpt lat="43.72763" lon="7.0634">
        <ele>580.20001220703</ele>
        <time>2023-07-30T10:05:46.000Z</time>
      </trkpt>
      <trkpt lat="43.72763" lon="7.0634">
        <ele>580.20001220703</ele>
        <time>2023-07-30T10:05:47.000Z</time>
      </trkpt>
      <trkpt lat="43.72763" lon="7.0634">
        <ele>580.20001220703</ele>
        <time>2023-07-30T10:05:48.000Z</time>
      </trkpt>
      <trkpt lat="43.72763" lon="7.0634">
        <ele>580.20001220703</ele>
        <time>2023-07-30T10:05:49.000Z</time>
      </trkpt>
      <trkpt lat="43.72763" lon="7.0634">
        <ele>580.20001220703</ele>
        <time>2023-07-30T10:05:50.000Z</time>
      </trkpt>
      <trkpt lat="43.72763" lon="7.0634">
        <ele>580.20001220703</ele>
        <time>2023-07-30T10:05:51.000Z</time>
      </trkpt>
      <trkpt lat="43.72763" lon="7.0634">
        <ele>580.20001220703</ele>
        <time>2023-07-30T10:05:52.000Z</time>
      </trkpt>
      <trkpt lat="43.72763" lon="7.0634">
        <ele>580.20001220703</ele>
        <time>2023-07-30T10:05:53.000Z</time>
      </trkpt>
      <trkpt lat="43.72763" lon="7.0634">
        <ele>580.20001220703</ele>
        <time>2023-07-30T10:05:54.000Z</time>
      </trkpt>
      <trkpt lat="43.72763" lon="7.0634">
        <ele>580.20001220703</ele>
        <time>2023-07-30T10:05:55.000Z</time>
      </trkpt>
      <trkpt lat="43.72763" lon="7.0634">
        <ele>580.20001220703</ele>
        <time>2023-07-30T10:05:56.000Z</time>
      </trkpt>
      <trkpt lat="43.72763" lon="7.0634">
        <ele>580.20001220703</ele>
        <time>2023-07-30T10:05:57.000Z</time>
      </trkpt>
      <trkpt lat="43.72763" lon="7.0634">
        <ele>580.20001220703</ele>
        <time>2023-07-30T10:05:58.000Z</time>
      </trkpt>
      <trkpt lat="43.72763" lon="7.0634">
        <ele>580.20001220703</ele>
        <time>2023-07-30T10:05:59.000Z</time>
      </trkpt>
      <trkpt lat="43.72763" lon="7.0634">
        <ele>580.20001220703</ele>
        <time>2023-07-30T10:06:00.000Z</time>
      </trkpt>
      <trkpt lat="43.72763" lon="7.0634">
        <ele>580.20001220703</ele>
        <time>2023-07-30T10:06:01.000Z</time>
      </trkpt>
      <trkpt lat="43.72763" lon="7.0634">
        <ele>580.20001220703</ele>
        <time>2023-07-30T10:06:02.000Z</time>
      </trkpt>
      <trkpt lat="43.72763" lon="7.0634">
        <ele>580.20001220703</ele>
        <time>2023-07-30T10:06:03.000Z</time>
      </trkpt>
      <trkpt lat="43.72763" lon="7.0634">
        <ele>580.20001220703</ele>
        <time>2023-07-30T10:06:04.000Z</time>
      </trkpt>
      <trkpt lat="43.72763" lon="7.0634">
        <ele>580.20001220703</ele>
        <time>2023-07-30T10:06:05.000Z</time>
      </trkpt>
      <trkpt lat="43.72763" lon="7.0634">
        <ele>580.20001220703</ele>
        <time>2023-07-30T10:06:06.000Z</time>
      </trkpt>
      <trkpt lat="43.72763" lon="7.0634">
        <ele>580.20001220703</ele>
        <time>2023-07-30T10:06:07.000Z</time>
      </trkpt>
      <trkpt lat="43.72763" lon="7.0634">
        <ele>580.20001220703</ele>
        <time>2023-07-30T10:06:08.000Z</time>
      </trkpt>
      <trkpt lat="43.72763" lon="7.0634">
        <ele>580.20001220703</ele>
        <time>2023-07-30T10:06:09.000Z</time>
      </trkpt>
      <trkpt lat="43.72763" lon="7.06341">
        <ele>580.20001220703</ele>
        <time>2023-07-30T10:06:10.000Z</time>
      </trkpt>
      <trkpt lat="43.72764" lon="7.06345">
        <ele>580.20001220703</ele>
        <time>2023-07-30T10:06:11.000Z</time>
      </trkpt>
      <trkpt lat="43.72764" lon="7.06349">
        <ele>580.20001220703</ele>
        <time>2023-07-30T10:06:12.000Z</time>
      </trkpt>
      <trkpt lat="43.72764" lon="7.06353">
        <ele>580.20001220703</ele>
        <time>2023-07-30T10:06:13.000Z</time>
      </trkpt>
      <trkpt lat="43.72764" lon="7.06357">
        <ele>580.20001220703</ele>
        <time>2023-07-30T10:06:14.000Z</time>
      </trkpt>
      <trkpt lat="43.72765" lon="7.06361">
        <ele>580.20001220703</ele>
        <time>2023-07-30T10:06:15.000Z</time>
      </trkpt>
      <trkpt lat="43.72765" lon="7.06365">
        <ele>580.20001220703</ele>
        <time>2023-07-30T10:06:16.000Z</time>
      </trkpt>
      <trkpt lat="43.72765" lon="7.06368">
        <ele>579.59997558594</ele>
        <time>2023-07-30T10:06:17.000Z</time>
      </trkpt>
      <trkpt lat="43.72766" lon="7.06372">
        <ele>579.79998779297</ele>
        <time>2023-07-30T10:06:18.000Z</time>
      </trkpt>
      <trkpt lat="43.72766" lon="7.06376">
        <ele>580.20001220703</ele>
        <time>2023-07-30T10:06:19.000Z</time>
      </trkpt>
      <trkpt lat="43.72766" lon="7.0638">
        <ele>580.20001220703</ele>
        <time>2023-07-30T10:06:20.000Z</time>
      </trkpt>
      <trkpt lat="43.72766" lon="7.06383">
        <ele>580.59997558594</ele>
        <time>2023-07-30T10:06:21.000Z</time>
      </trkpt>
      <trkpt lat="43.72766" lon="7.06387">
        <ele>580.79998779297</ele>
        <time>2023-07-30T10:06:22.000Z</time>
      </trkpt>
      <trkpt lat="43.72766" lon="7.0639">
        <ele>581.20001220703</ele>
        <time>2023-07-30T10:06:23.000Z</time>
      </trkpt>
      <trkpt lat="43.72766" lon="7.06393">
        <ele>581.20001220703</ele>
        <time>2023-07-30T10:06:24.000Z</time>
      </trkpt>
      <trkpt lat="43.72766" lon="7.06396">
        <ele>581.40002441406</ele>
        <time>2023-07-30T10:06:25.000Z</time>
      </trkpt>
      <trkpt lat="43.72765" lon="7.06401">
        <ele>581.40002441406</ele>
        <time>2023-07-30T10:06:26.000Z</time>
      </trkpt>
      <trkpt lat="43.72765" lon="7.06405">
        <ele>581.40002441406</ele>
        <time>2023-07-30T10:06:27.000Z</time>
      </trkpt>
      <trkpt lat="43.72765" lon="7.0641">
        <ele>581.20001220703</ele>
        <time>2023-07-30T10:06:28.000Z</time>
      </trkpt>
      <trkpt lat="43.72765" lon="7.06414">
        <ele>581</ele>
        <time>2023-07-30T10:06:29.000Z</time>
      </trkpt>
      <trkpt lat="43.72765" lon="7.06417">
        <ele>581</ele>
        <time>2023-07-30T10:06:30.000Z</time>
      </trkpt>
      <trkpt lat="43.72764" lon="7.0642">
        <ele>580.79998779297</ele>
        <time>2023-07-30T10:06:31.000Z</time>
      </trkpt>
      <trkpt lat="43.72765" lon="7.06423">
        <ele>580.79998779297</ele>
        <time>2023-07-30T10:06:32.000Z</time>
      </trkpt>
      <trkpt lat="43.72765" lon="7.06426">
        <ele>580.79998779297</ele>
        <time>2023-07-30T10:06:33.000Z</time>
      </trkpt>
      <trkpt lat="43.72764" lon="7.06428">
        <ele>580.79998779297</ele>
        <time>2023-07-30T10:06:34.000Z</time>
      </trkpt>
      <trkpt lat="43.72763" lon="7.06431">
        <ele>580.79998779297</ele>
        <time>2023-07-30T10:06:35.000Z</time>
      </trkpt>
      <trkpt lat="43.72762" lon="7.06434">
        <ele>580.79998779297</ele>
        <time>2023-07-30T10:06:36.000Z</time>
      </trkpt>
      <trkpt lat="43.7276" lon="7.06437">
        <ele>580.79998779297</ele>
        <time>2023-07-30T10:06:37.000Z</time>
      </trkpt>
      <trkpt lat="43.72758" lon="7.06442">
        <ele>580.79998779297</ele>
        <time>2023-07-30T10:06:38.000Z</time>
      </trkpt>
      <trkpt lat="43.72756" lon="7.06445">
        <ele>580.79998779297</ele>
        <time>2023-07-30T10:06:39.000Z</time>
      </trkpt>
      <trkpt lat="43.72755" lon="7.06448">
        <ele>580.79998779297</ele>
        <time>2023-07-30T10:06:40.000Z</time>
      </trkpt>
      <trkpt lat="43.72753" lon="7.06451">
        <ele>580.79998779297</ele>
        <time>2023-07-30T10:06:41.000Z</time>
      </trkpt>
      <trkpt lat="43.72752" lon="7.06454">
        <ele>580.79998779297</ele>
        <time>2023-07-30T10:06:42.000Z</time>
      </trkpt>
      <trkpt lat="43.72751" lon="7.06457">
        <ele>580.79998779297</ele>
        <time>2023-07-30T10:06:43.000Z</time>
      </trkpt>
      <trkpt lat="43.7275" lon="7.0646">
        <ele>581.59997558594</ele>
        <time>2023-07-30T10:06:44.000Z</time>
      </trkpt>
      <trkpt lat="43.7275" lon="7.06463">
        <ele>581.79998779297</ele>
        <time>2023-07-30T10:06:45.000Z</time>
      </trkpt>
      <trkpt lat="43.72749" lon="7.06466">
        <ele>582.20001220703</ele>
        <time>2023-07-30T10:06:46.000Z</time>
      </trkpt>
      <trkpt lat="43.72748" lon="7.06471">
        <ele>582.59997558594</ele>
        <time>2023-07-30T10:06:47.000Z</time>
      </trkpt>
      <trkpt lat="43.72747" lon="7.06474">
        <ele>582.59997558594</ele>
        <time>2023-07-30T10:06:48.000Z</time>
      </trkpt>
      <trkpt lat="43.72745" lon="7.06477">
        <ele>582.79998779297</ele>
        <time>2023-07-30T10:06:49.000Z</time>
      </trkpt>
      <trkpt lat="43.72745" lon="7.06481">
        <ele>582.79998779297</ele>
        <time>2023-07-30T10:06:50.000Z</time>
      </trkpt>
      <trkpt lat="43.72744" lon="7.06484">
        <ele>582.79998779297</ele>
        <time>2023-07-30T10:06:51.000Z</time>
      </trkpt>
      <trkpt lat="43.72743" lon="7.06486">
        <ele>582.79998779297</ele>
        <time>2023-07-30T10:06:52.000Z</time>
      </trkpt>
      <trkpt lat="43.72742" lon="7.06487">
        <ele>582.79998779297</ele>
        <time>2023-07-30T10:06:53.000Z</time>
      </trkpt>
      <trkpt lat="43.72742" lon="7.06488">
        <ele>582.40002441406</ele>
        <time>2023-07-30T10:06:54.000Z</time>
      </trkpt>
      <trkpt lat="43.72741" lon="7.06491">
        <ele>582.40002441406</ele>
        <time>2023-07-30T10:06:55.000Z</time>
      </trkpt>
      <trkpt lat="43.72741" lon="7.06495">
        <ele>582.20001220703</ele>
        <time>2023-07-30T10:06:56.000Z</time>
      </trkpt>
      <trkpt lat="43.72741" lon="7.06498">
        <ele>582.20001220703</ele>
        <time>2023-07-30T10:06:57.000Z</time>
      </trkpt>
      <trkpt lat="43.7274" lon="7.06501">
        <ele>582.20001220703</ele>
        <time>2023-07-30T10:06:58.000Z</time>
      </trkpt>
      <trkpt lat="43.7274" lon="7.06504">
        <ele>582.20001220703</ele>
        <time>2023-07-30T10:06:59.000Z</time>
      </trkpt>
      <trkpt lat="43.72739" lon="7.06506">
        <ele>582.40002441406</ele>
        <time>2023-07-30T10:07:00.000Z</time>
      </trkpt>
      <trkpt lat="43.72739" lon="7.06506">
        <ele>582.40002441406</ele>
        <time>2023-07-30T10:07:01.000Z</time>
      </trkpt>
      <trkpt lat="43.72739" lon="7.06506">
        <ele>582.40002441406</ele>
        <time>2023-07-30T10:07:02.000Z</time>
      </trkpt>
      <trkpt lat="43.72739" lon="7.06506">
        <ele>582.40002441406</ele>
        <time>2023-07-30T10:07:03.000Z</time>
      </trkpt>
      <trkpt lat="43.72739" lon="7.06506">
        <ele>582.40002441406</ele>
        <time>2023-07-30T10:07:04.000Z</time>
      </trkpt>
      <trkpt lat="43.72739" lon="7.06506">
        <ele>582.40002441406</ele>
        <time>2023-07-30T10:07:05.000Z</time>
      </trkpt>
      <trkpt lat="43.72739" lon="7.06506">
        <ele>582.20001220703</ele>
        <time>2023-07-30T10:07:06.000Z</time>
      </trkpt>
      <trkpt lat="43.72739" lon="7.06506">
        <ele>582.20001220703</ele>
        <time>2023-07-30T10:07:07.000Z</time>
      </trkpt>
      <trkpt lat="43.72739" lon="7.06506">
        <ele>582.20001220703</ele>
        <time>2023-07-30T10:07:08.000Z</time>
      </trkpt>
      <trkpt lat="43.72739" lon="7.06506">
        <ele>582.20001220703</ele>
        <time>2023-07-30T10:07:09.000Z</time>
      </trkpt>
      <trkpt lat="43.72739" lon="7.06506">
        <ele>582.20001220703</ele>
        <time>2023-07-30T10:07:10.000Z</time>
      </trkpt>
      <trkpt lat="43.72739" lon="7.06506">
        <ele>582.20001220703</ele>
        <time>2023-07-30T10:07:11.000Z</time>
      </trkpt>
      <trkpt lat="43.72739" lon="7.06506">
        <ele>582.20001220703</ele>
        <time>2023-07-30T10:07:12.000Z</time>
      </trkpt>
      <trkpt lat="43.72739" lon="7.06506">
        <ele>582.20001220703</ele>
        <time>2023-07-30T10:07:13.000Z</time>
      </trkpt>
      <trkpt lat="43.72739" lon="7.06506">
        <ele>582.20001220703</ele>
        <time>2023-07-30T10:07:14.000Z</time>
      </trkpt>
      <trkpt lat="43.72739" lon="7.06506">
        <ele>582.20001220703</ele>
        <time>2023-07-30T10:07:15.000Z</time>
      </trkpt>
      <trkpt lat="43.72739" lon="7.06506">
        <ele>582.20001220703</ele>
        <time>2023-07-30T10:07:16.000Z</time>
      </trkpt>
      <trkpt lat="43.72739" lon="7.06506">
        <ele>582.20001220703</ele>
        <time>2023-07-30T10:07:17.000Z</time>
      </trkpt>
      <trkpt lat="43.72739" lon="7.06506">
        <ele>582</ele>
        <time>2023-07-30T10:07:18.000Z</time>
      </trkpt>
      <trkpt lat="43.72739" lon="7.06506">
        <ele>582</ele>
        <time>2023-07-30T10:07:19.000Z</time>
      </trkpt>
      <trkpt lat="43.72739" lon="7.06506">
        <ele>582</ele>
        <time>2023-07-30T10:07:20.000Z</time>
      </trkpt>
      <trkpt lat="43.72739" lon="7.06506">
        <ele>582</ele>
        <time>2023-07-30T10:07:21.000Z</time>
      </trkpt>
      <trkpt lat="43.72739" lon="7.06506">
        <ele>582</ele>
        <time>2023-07-30T10:07:22.000Z</time>
      </trkpt>
      <trkpt lat="43.72738" lon="7.06507">
        <ele>582</ele>
        <time>2023-07-30T10:07:23.000Z</time>
      </trkpt>
      <trkpt lat="43.72737" lon="7.06509">
        <ele>582</ele>
        <time>2023-07-30T10:07:24.000Z</time>
      </trkpt>
      <trkpt lat="43.72735" lon="7.06513">
        <ele>582</ele>
        <time>2023-07-30T10:07:25.000Z</time>
      </trkpt>
      <trkpt lat="43.72732" lon="7.06517">
        <ele>581.79998779297</ele>
        <time>2023-07-30T10:07:26.000Z</time>
      </trkpt>
      <trkpt lat="43.72728" lon="7.06522">
        <ele>581.79998779297</ele>
        <time>2023-07-30T10:07:27.000Z</time>
      </trkpt>
      <trkpt lat="43.72726" lon="7.06529">
        <ele>581.40002441406</ele>
        <time>2023-07-30T10:07:28.000Z</time>
      </trkpt>
      <trkpt lat="43.72722" lon="7.06536">
        <ele>581</ele>
        <time>2023-07-30T10:07:29.000Z</time>
      </trkpt>
      <trkpt lat="43.7272" lon="7.06543">
        <ele>580.59997558594</ele>
        <time>2023-07-30T10:07:30.000Z</time>
      </trkpt>
      <trkpt lat="43.72718" lon="7.06551">
        <ele>580</ele>
        <time>2023-07-30T10:07:31.000Z</time>
      </trkpt>
      <trkpt lat="43.72718" lon="7.06561">
        <ele>579.20001220703</ele>
        <time>2023-07-30T10:07:32.000Z</time>
      </trkpt>
      <trkpt lat="43.72719" lon="7.06571">
        <ele>578.59997558594</ele>
        <time>2023-07-30T10:07:33.000Z</time>
      </trkpt>
      <trkpt lat="43.72718" lon="7.06581">
        <ele>577.20001220703</ele>
        <time>2023-07-30T10:07:34.000Z</time>
      </trkpt>
      <trkpt lat="43.72717" lon="7.06594">
        <ele>576</ele>
        <time>2023-07-30T10:07:35.000Z</time>
      </trkpt>
      <trkpt lat="43.72715" lon="7.06607">
        <ele>575</ele>
        <time>2023-07-30T10:07:36.000Z</time>
      </trkpt>
      <trkpt lat="43.72714" lon="7.06621">
        <ele>573</ele>
        <time>2023-07-30T10:07:37.000Z</time>
      </trkpt>
      <trkpt lat="43.72713" lon="7.06634">
        <ele>571.59997558594</ele>
        <time>2023-07-30T10:07:38.000Z</time>
      </trkpt>
      <trkpt lat="43.72712" lon="7.06645">
        <ele>570.20001220703</ele>
        <time>2023-07-30T10:07:39.000Z</time>
      </trkpt>
      <trkpt lat="43.72711" lon="7.06656">
        <ele>569.79998779297</ele>
        <time>2023-07-30T10:07:40.000Z</time>
      </trkpt>
      <trkpt lat="43.7271" lon="7.06665">
        <ele>569.20001220703</ele>
        <time>2023-07-30T10:07:41.000Z</time>
      </trkpt>
      <trkpt lat="43.72709" lon="7.06675">
        <ele>569.20001220703</ele>
        <time>2023-07-30T10:07:42.000Z</time>
      </trkpt>
      <trkpt lat="43.72707" lon="7.06686">
        <ele>568.79998779297</ele>
        <time>2023-07-30T10:07:43.000Z</time>
      </trkpt>
      <trkpt lat="43.72705" lon="7.06697">
        <ele>568.40002441406</ele>
        <time>2023-07-30T10:07:44.000Z</time>
      </trkpt>
      <trkpt lat="43.72705" lon="7.06707">
        <ele>568</ele>
        <time>2023-07-30T10:07:45.000Z</time>
      </trkpt>
      <trkpt lat="43.72706" lon="7.06719">
        <ele>567</ele>
        <time>2023-07-30T10:07:46.000Z</time>
      </trkpt>
      <trkpt lat="43.72707" lon="7.06731">
        <ele>565.59997558594</ele>
        <time>2023-07-30T10:07:47.000Z</time>
      </trkpt>
      <trkpt lat="43.7271" lon="7.06744">
        <ele>564.40002441406</ele>
        <time>2023-07-30T10:07:48.000Z</time>
      </trkpt>
      <trkpt lat="43.72715" lon="7.06754">
        <ele>562.79998779297</ele>
        <time>2023-07-30T10:07:49.000Z</time>
      </trkpt>
      <trkpt lat="43.72719" lon="7.06765">
        <ele>560.59997558594</ele>
        <time>2023-07-30T10:07:50.000Z</time>
      </trkpt>
      <trkpt lat="43.7272" lon="7.06775">
        <ele>559</ele>
        <time>2023-07-30T10:07:51.000Z</time>
      </trkpt>
      <trkpt lat="43.7272" lon="7.06786">
        <ele>557.79998779297</ele>
        <time>2023-07-30T10:07:52.000Z</time>
      </trkpt>
      <trkpt lat="43.72719" lon="7.06797">
        <ele>556.59997558594</ele>
        <time>2023-07-30T10:07:53.000Z</time>
      </trkpt>
      <trkpt lat="43.72717" lon="7.06807">
        <ele>555.79998779297</ele>
        <time>2023-07-30T10:07:54.000Z</time>
      </trkpt>
      <trkpt lat="43.72714" lon="7.06814">
        <ele>555.40002441406</ele>
        <time>2023-07-30T10:07:55.000Z</time>
      </trkpt>
      <trkpt lat="43.72709" lon="7.06819">
        <ele>554.20001220703</ele>
        <time>2023-07-30T10:07:56.000Z</time>
      </trkpt>
      <trkpt lat="43.72702" lon="7.06823">
        <ele>552.59997558594</ele>
        <time>2023-07-30T10:07:57.000Z</time>
      </trkpt>
      <trkpt lat="43.72695" lon="7.06826">
        <ele>552</ele>
        <time>2023-07-30T10:07:58.000Z</time>
      </trkpt>
      <trkpt lat="43.72687" lon="7.0683">
        <ele>550.79998779297</ele>
        <time>2023-07-30T10:07:59.000Z</time>
      </trkpt>
      <trkpt lat="43.72681" lon="7.06833">
        <ele>549.40002441406</ele>
        <time>2023-07-30T10:08:00.000Z</time>
      </trkpt>
      <trkpt lat="43.72675" lon="7.06836">
        <ele>547.59997558594</ele>
        <time>2023-07-30T10:08:01.000Z</time>
      </trkpt>
      <trkpt lat="43.72672" lon="7.06841">
        <ele>545.40002441406</ele>
        <time>2023-07-30T10:08:02.000Z</time>
      </trkpt>
      <trkpt lat="43.72671" lon="7.06847">
        <ele>543.59997558594</ele>
        <time>2023-07-30T10:08:03.000Z</time>
      </trkpt>
      <trkpt lat="43.7267" lon="7.06852">
        <ele>541.79998779297</ele>
        <time>2023-07-30T10:08:04.000Z</time>
      </trkpt>
      <trkpt lat="43.72668" lon="7.06855">
        <ele>540.40002441406</ele>
        <time>2023-07-30T10:08:05.000Z</time>
      </trkpt>
      <trkpt lat="43.72664" lon="7.06854">
        <ele>539</ele>
        <time>2023-07-30T10:08:06.000Z</time>
      </trkpt>
      <trkpt lat="43.72663" lon="7.06851">
        <ele>538.40002441406</ele>
        <time>2023-07-30T10:08:07.000Z</time>
      </trkpt>
      <trkpt lat="43.72662" lon="7.06847">
        <ele>537.20001220703</ele>
        <time>2023-07-30T10:08:08.000Z</time>
      </trkpt>
      <trkpt lat="43.72661" lon="7.06842">
        <ele>536.20001220703</ele>
        <time>2023-07-30T10:08:09.000Z</time>
      </trkpt>
      <trkpt lat="43.72658" lon="7.06835">
        <ele>535.40002441406</ele>
        <time>2023-07-30T10:08:10.000Z</time>
      </trkpt>
      <trkpt lat="43.72655" lon="7.06828">
        <ele>534.79998779297</ele>
        <time>2023-07-30T10:08:11.000Z</time>
      </trkpt>
      <trkpt lat="43.7265" lon="7.06822">
        <ele>534.79998779297</ele>
        <time>2023-07-30T10:08:12.000Z</time>
      </trkpt>
      <trkpt lat="43.72645" lon="7.06817">
        <ele>534</ele>
        <time>2023-07-30T10:08:13.000Z</time>
      </trkpt>
      <trkpt lat="43.72638" lon="7.06814">
        <ele>532.59997558594</ele>
        <time>2023-07-30T10:08:14.000Z</time>
      </trkpt>
      <trkpt lat="43.72631" lon="7.06814">
        <ele>531.20001220703</ele>
        <time>2023-07-30T10:08:15.000Z</time>
      </trkpt>
      <trkpt lat="43.72623" lon="7.06814">
        <ele>530.20001220703</ele>
        <time>2023-07-30T10:08:16.000Z</time>
      </trkpt>
      <trkpt lat="43.72614" lon="7.06815">
        <ele>529</ele>
        <time>2023-07-30T10:08:17.000Z</time>
      </trkpt>
      <trkpt lat="43.72607" lon="7.06817">
        <ele>527.79998779297</ele>
        <time>2023-07-30T10:08:18.000Z</time>
      </trkpt>
      <trkpt lat="43.72599" lon="7.06816">
        <ele>525.40002441406</ele>
        <time>2023-07-30T10:08:19.000Z</time>
      </trkpt>
      <trkpt lat="43.72591" lon="7.06813">
        <ele>524.20001220703</ele>
        <time>2023-07-30T10:08:20.000Z</time>
      </trkpt>
      <trkpt lat="43.72585" lon="7.06807">
        <ele>523</ele>
        <time>2023-07-30T10:08:21.000Z</time>
      </trkpt>
      <trkpt lat="43.72579" lon="7.068">
        <ele>522.20001220703</ele>
        <time>2023-07-30T10:08:22.000Z</time>
      </trkpt>
      <trkpt lat="43.72574" lon="7.06794">
        <ele>521.40002441406</ele>
        <time>2023-07-30T10:08:23.000Z</time>
      </trkpt>
      <trkpt lat="43.72569" lon="7.06788">
        <ele>520.79998779297</ele>
        <time>2023-07-30T10:08:24.000Z</time>
      </trkpt>
      <trkpt lat="43.72565" lon="7.06782">
        <ele>520.40002441406</ele>
        <time>2023-07-30T10:08:25.000Z</time>
      </trkpt>
      <trkpt lat="43.72561" lon="7.06775">
        <ele>520.40002441406</ele>
        <time>2023-07-30T10:08:26.000Z</time>
      </trkpt>
      <trkpt lat="43.72557" lon="7.06768">
        <ele>520.40002441406</ele>
        <time>2023-07-30T10:08:27.000Z</time>
      </trkpt>
      <trkpt lat="43.72552" lon="7.06761">
        <ele>520.20001220703</ele>
        <time>2023-07-30T10:08:28.000Z</time>
      </trkpt>
      <trkpt lat="43.72547" lon="7.06754">
        <ele>520</ele>
        <time>2023-07-30T10:08:29.000Z</time>
      </trkpt>
      <trkpt lat="43.72543" lon="7.06748">
        <ele>519.79998779297</ele>
        <time>2023-07-30T10:08:30.000Z</time>
      </trkpt>
      <trkpt lat="43.72538" lon="7.0674">
        <ele>519</ele>
        <time>2023-07-30T10:08:31.000Z</time>
      </trkpt>
      <trkpt lat="43.72531" lon="7.06735">
        <ele>518.59997558594</ele>
        <time>2023-07-30T10:08:32.000Z</time>
      </trkpt>
      <trkpt lat="43.72524" lon="7.06731">
        <ele>518.20001220703</ele>
        <time>2023-07-30T10:08:33.000Z</time>
      </trkpt>
      <trkpt lat="43.72515" lon="7.06728">
        <ele>516.59997558594</ele>
        <time>2023-07-30T10:08:34.000Z</time>
      </trkpt>
      <trkpt lat="43.72505" lon="7.06727">
        <ele>515</ele>
        <time>2023-07-30T10:08:35.000Z</time>
      </trkpt>
      <trkpt lat="43.72496" lon="7.06728">
        <ele>513</ele>
        <time>2023-07-30T10:08:36.000Z</time>
      </trkpt>
      <trkpt lat="43.72488" lon="7.06728">
        <ele>511</ele>
        <time>2023-07-30T10:08:37.000Z</time>
      </trkpt>
      <trkpt lat="43.7248" lon="7.06728">
        <ele>508.20001220703</ele>
        <time>2023-07-30T10:08:38.000Z</time>
      </trkpt>
      <trkpt lat="43.7247" lon="7.06727">
        <ele>505.79998779297</ele>
        <time>2023-07-30T10:08:39.000Z</time>
      </trkpt>
      <trkpt lat="43.72461" lon="7.06724">
        <ele>503.20001220703</ele>
        <time>2023-07-30T10:08:40.000Z</time>
      </trkpt>
      <trkpt lat="43.72451" lon="7.06721">
        <ele>503.20001220703</ele>
        <time>2023-07-30T10:08:41.000Z</time>
      </trkpt>
      <trkpt lat="43.72441" lon="7.06719">
        <ele>501.20001220703</ele>
        <time>2023-07-30T10:08:42.000Z</time>
      </trkpt>
      <trkpt lat="43.72431" lon="7.06718">
        <ele>498.60000610352</ele>
        <time>2023-07-30T10:08:43.000Z</time>
      </trkpt>
      <trkpt lat="43.72421" lon="7.06717">
        <ele>496.60000610352</ele>
        <time>2023-07-30T10:08:44.000Z</time>
      </trkpt>
      <trkpt lat="43.72411" lon="7.06716">
        <ele>494.39999389648</ele>
        <time>2023-07-30T10:08:45.000Z</time>
      </trkpt>
      <trkpt lat="43.724" lon="7.06714">
        <ele>492.39999389648</ele>
        <time>2023-07-30T10:08:46.000Z</time>
      </trkpt>
      <trkpt lat="43.72389" lon="7.06714">
        <ele>490.60000610352</ele>
        <time>2023-07-30T10:08:47.000Z</time>
      </trkpt>
      <trkpt lat="43.7238" lon="7.06713">
        <ele>488.79998779297</ele>
        <time>2023-07-30T10:08:48.000Z</time>
      </trkpt>
      <trkpt lat="43.72372" lon="7.06715">
        <ele>486.79998779297</ele>
        <time>2023-07-30T10:08:49.000Z</time>
      </trkpt>
      <trkpt lat="43.72365" lon="7.06716">
        <ele>485</ele>
        <time>2023-07-30T10:08:50.000Z</time>
      </trkpt>
      <trkpt lat="43.72357" lon="7.06717">
        <ele>483</ele>
        <time>2023-07-30T10:08:51.000Z</time>
      </trkpt>
      <trkpt lat="43.7235" lon="7.06719">
        <ele>481.39999389648</ele>
        <time>2023-07-30T10:08:52.000Z</time>
      </trkpt>
      <trkpt lat="43.72342" lon="7.06722">
        <ele>479.60000610352</ele>
        <time>2023-07-30T10:08:53.000Z</time>
      </trkpt>
      <trkpt lat="43.72333" lon="7.06726">
        <ele>478.20001220703</ele>
        <time>2023-07-30T10:08:54.000Z</time>
      </trkpt>
      <trkpt lat="43.72324" lon="7.06729">
        <ele>476.79998779297</ele>
        <time>2023-07-30T10:08:55.000Z</time>
      </trkpt>
      <trkpt lat="43.72315" lon="7.06732">
        <ele>474.79998779297</ele>
        <time>2023-07-30T10:08:56.000Z</time>
      </trkpt>
      <trkpt lat="43.72306" lon="7.06733">
        <ele>473.39999389648</ele>
        <time>2023-07-30T10:08:57.000Z</time>
      </trkpt>
      <trkpt lat="43.72296" lon="7.06733">
        <ele>472.20001220703</ele>
        <time>2023-07-30T10:08:58.000Z</time>
      </trkpt>
      <trkpt lat="43.72287" lon="7.06733">
        <ele>470.79998779297</ele>
        <time>2023-07-30T10:08:59.000Z</time>
      </trkpt>
      <trkpt lat="43.72278" lon="7.06734">
        <ele>469.39999389648</ele>
        <time>2023-07-30T10:09:00.000Z</time>
      </trkpt>
      <trkpt lat="43.72269" lon="7.06734">
        <ele>467.79998779297</ele>
        <time>2023-07-30T10:09:01.000Z</time>
      </trkpt>
      <trkpt lat="43.72261" lon="7.06733">
        <ele>466.20001220703</ele>
        <time>2023-07-30T10:09:02.000Z</time>
      </trkpt>
      <trkpt lat="43.72252" lon="7.06731">
        <ele>464.20001220703</ele>
        <time>2023-07-30T10:09:03.000Z</time>
      </trkpt>
      <trkpt lat="43.72245" lon="7.06729">
        <ele>462.79998779297</ele>
        <time>2023-07-30T10:09:04.000Z</time>
      </trkpt>
      <trkpt lat="43.72237" lon="7.06727">
        <ele>461.79998779297</ele>
        <time>2023-07-30T10:09:05.000Z</time>
      </trkpt>
      <trkpt lat="43.7223" lon="7.06725">
        <ele>461</ele>
        <time>2023-07-30T10:09:06.000Z</time>
      </trkpt>
      <trkpt lat="43.72222" lon="7.06723">
        <ele>459.60000610352</ele>
        <time>2023-07-30T10:09:07.000Z</time>
      </trkpt>
      <trkpt lat="43.72213" lon="7.06721">
        <ele>458.39999389648</ele>
        <time>2023-07-30T10:09:08.000Z</time>
      </trkpt>
      <trkpt lat="43.72205" lon="7.0672">
        <ele>457.39999389648</ele>
        <time>2023-07-30T10:09:09.000Z</time>
      </trkpt>
      <trkpt lat="43.72197" lon="7.06718">
        <ele>457.39999389648</ele>
        <time>2023-07-30T10:09:10.000Z</time>
      </trkpt>
      <trkpt lat="43.72192" lon="7.06716">
        <ele>456.20001220703</ele>
        <time>2023-07-30T10:09:11.000Z</time>
      </trkpt>
      <trkpt lat="43.7219" lon="7.06717">
        <ele>455</ele>
        <time>2023-07-30T10:09:12.000Z</time>
      </trkpt>
      <trkpt lat="43.72188" lon="7.06718">
        <ele>454</ele>
        <time>2023-07-30T10:09:13.000Z</time>
      </trkpt>
      <trkpt lat="43.72187" lon="7.06719">
        <ele>453</ele>
        <time>2023-07-30T10:09:14.000Z</time>
      </trkpt>
      <trkpt lat="43.72187" lon="7.06718">
        <ele>452.20001220703</ele>
        <time>2023-07-30T10:09:15.000Z</time>
      </trkpt>
      <trkpt lat="43.72187" lon="7.06718">
        <ele>451.60000610352</ele>
        <time>2023-07-30T10:09:16.000Z</time>
      </trkpt>
      <trkpt lat="43.72187" lon="7.06718">
        <ele>451.20001220703</ele>
        <time>2023-07-30T10:09:17.000Z</time>
      </trkpt>
      <trkpt lat="43.72187" lon="7.06718">
        <ele>451</ele>
        <time>2023-07-30T10:09:18.000Z</time>
      </trkpt>
      <trkpt lat="43.72187" lon="7.06719">
        <ele>450.79998779297</ele>
        <time>2023-07-30T10:09:19.000Z</time>
      </trkpt>
      <trkpt lat="43.72185" lon="7.06719">
        <ele>450.79998779297</ele>
        <time>2023-07-30T10:09:20.000Z</time>
      </trkpt>
      <trkpt lat="43.72185" lon="7.06722">
        <ele>450.79998779297</ele>
        <time>2023-07-30T10:09:21.000Z</time>
      </trkpt>
      <trkpt lat="43.72185" lon="7.06725">
        <ele>450.60000610352</ele>
        <time>2023-07-30T10:09:22.000Z</time>
      </trkpt>
      <trkpt lat="43.72186" lon="7.06729">
        <ele>450.60000610352</ele>
        <time>2023-07-30T10:09:23.000Z</time>
      </trkpt>
      <trkpt lat="43.72187" lon="7.06734">
        <ele>450.60000610352</ele>
        <time>2023-07-30T10:09:24.000Z</time>
      </trkpt>
      <trkpt lat="43.72187" lon="7.06738">
        <ele>450.60000610352</ele>
        <time>2023-07-30T10:09:25.000Z</time>
      </trkpt>
      <trkpt lat="43.72188" lon="7.06742">
        <ele>450.79998779297</ele>
        <time>2023-07-30T10:09:26.000Z</time>
      </trkpt>
      <trkpt lat="43.72189" lon="7.06746">
        <ele>451.20001220703</ele>
        <time>2023-07-30T10:09:27.000Z</time>
      </trkpt>
      <trkpt lat="43.7219" lon="7.0675">
        <ele>451.20001220703</ele>
        <time>2023-07-30T10:09:28.000Z</time>
      </trkpt>
      <trkpt lat="43.72191" lon="7.06755">
        <ele>451.60000610352</ele>
        <time>2023-07-30T10:09:29.000Z</time>
      </trkpt>
      <trkpt lat="43.72191" lon="7.06759">
        <ele>451.79998779297</ele>
        <time>2023-07-30T10:09:30.000Z</time>
      </trkpt>
      <trkpt lat="43.72192" lon="7.06763">
        <ele>452</ele>
        <time>2023-07-30T10:09:31.000Z</time>
      </trkpt>
      <trkpt lat="43.72192" lon="7.06767">
        <ele>452</ele>
        <time>2023-07-30T10:09:32.000Z</time>
      </trkpt>
      <trkpt lat="43.72193" lon="7.06771">
        <ele>452</ele>
        <time>2023-07-30T10:09:33.000Z</time>
      </trkpt>
      <trkpt lat="43.72194" lon="7.06775">
        <ele>452.20001220703</ele>
        <time>2023-07-30T10:09:34.000Z</time>
      </trkpt>
      <trkpt lat="43.72195" lon="7.06778">
        <ele>452.20001220703</ele>
        <time>2023-07-30T10:09:35.000Z</time>
      </trkpt>
      <trkpt lat="43.72196" lon="7.06782">
        <ele>452.39999389648</ele>
        <time>2023-07-30T10:09:36.000Z</time>
      </trkpt>
      <trkpt lat="43.72197" lon="7.06786">
        <ele>452.39999389648</ele>
        <time>2023-07-30T10:09:37.000Z</time>
      </trkpt>
      <trkpt lat="43.72198" lon="7.0679">
        <ele>452.39999389648</ele>
        <time>2023-07-30T10:09:38.000Z</time>
      </trkpt>
      <trkpt lat="43.72198" lon="7.06794">
        <ele>452.39999389648</ele>
        <time>2023-07-30T10:09:39.000Z</time>
      </trkpt>
      <trkpt lat="43.72199" lon="7.06798">
        <ele>454.20001220703</ele>
        <time>2023-07-30T10:09:40.000Z</time>
      </trkpt>
      <trkpt lat="43.722" lon="7.06803">
        <ele>454.20001220703</ele>
        <time>2023-07-30T10:09:41.000Z</time>
      </trkpt>
      <trkpt lat="43.722" lon="7.06806">
        <ele>454.20001220703</ele>
        <time>2023-07-30T10:09:42.000Z</time>
      </trkpt>
      <trkpt lat="43.72201" lon="7.06811">
        <ele>454.39999389648</ele>
        <time>2023-07-30T10:09:43.000Z</time>
      </trkpt>
      <trkpt lat="43.72202" lon="7.06815">
        <ele>454.39999389648</ele>
        <time>2023-07-30T10:09:44.000Z</time>
      </trkpt>
      <trkpt lat="43.72202" lon="7.06819">
        <ele>454.20001220703</ele>
        <time>2023-07-30T10:09:45.000Z</time>
      </trkpt>
      <trkpt lat="43.72203" lon="7.06824">
        <ele>454.39999389648</ele>
        <time>2023-07-30T10:09:46.000Z</time>
      </trkpt>
      <trkpt lat="43.72203" lon="7.06829">
        <ele>454.39999389648</ele>
        <time>2023-07-30T10:09:47.000Z</time>
      </trkpt>
      <trkpt lat="43.72204" lon="7.06835">
        <ele>454.39999389648</ele>
        <time>2023-07-30T10:09:48.000Z</time>
      </trkpt>
      <trkpt lat="43.72204" lon="7.06841">
        <ele>454.39999389648</ele>
        <time>2023-07-30T10:09:49.000Z</time>
      </trkpt>
      <trkpt lat="43.72205" lon="7.06846">
        <ele>454.39999389648</ele>
        <time>2023-07-30T10:09:50.000Z</time>
      </trkpt>
      <trkpt lat="43.72207" lon="7.06852">
        <ele>454.39999389648</ele>
        <time>2023-07-30T10:09:51.000Z</time>
      </trkpt>
      <trkpt lat="43.72207" lon="7.06857">
        <ele>454.39999389648</ele>
        <time>2023-07-30T10:09:52.000Z</time>
      </trkpt>
      <trkpt lat="43.72208" lon="7.06863">
        <ele>454.39999389648</ele>
        <time>2023-07-30T10:09:53.000Z</time>
      </trkpt>
      <trkpt lat="43.72209" lon="7.06868">
        <ele>454.39999389648</ele>
        <time>2023-07-30T10:09:54.000Z</time>
      </trkpt>
      <trkpt lat="43.7221" lon="7.06874">
        <ele>454.20001220703</ele>
        <time>2023-07-30T10:09:55.000Z</time>
      </trkpt>
      <trkpt lat="43.72212" lon="7.06879">
        <ele>454.20001220703</ele>
        <time>2023-07-30T10:09:56.000Z</time>
      </trkpt>
      <trkpt lat="43.72213" lon="7.06883">
        <ele>454.39999389648</ele>
        <time>2023-07-30T10:09:57.000Z</time>
      </trkpt>
      <trkpt lat="43.72215" lon="7.06888">
        <ele>454.39999389648</ele>
        <time>2023-07-30T10:09:58.000Z</time>
      </trkpt>
      <trkpt lat="43.72218" lon="7.06892">
        <ele>454.39999389648</ele>
        <time>2023-07-30T10:09:59.000Z</time>
      </trkpt>
      <trkpt lat="43.72221" lon="7.06895">
        <ele>454.39999389648</ele>
        <time>2023-07-30T10:10:00.000Z</time>
      </trkpt>
      <trkpt lat="43.72223" lon="7.06898">
        <ele>454.39999389648</ele>
        <time>2023-07-30T10:10:01.000Z</time>
      </trkpt>
      <trkpt lat="43.72226" lon="7.069">
        <ele>454.79998779297</ele>
        <time>2023-07-30T10:10:02.000Z</time>
      </trkpt>
      <trkpt lat="43.72229" lon="7.06903">
        <ele>454.79998779297</ele>
        <time>2023-07-30T10:10:03.000Z</time>
      </trkpt>
      <trkpt lat="43.72232" lon="7.06905">
        <ele>455</ele>
        <time>2023-07-30T10:10:04.000Z</time>
      </trkpt>
      <trkpt lat="43.72235" lon="7.06906">
        <ele>455.20001220703</ele>
        <time>2023-07-30T10:10:05.000Z</time>
      </trkpt>
      <trkpt lat="43.72237" lon="7.06908">
        <ele>455.79998779297</ele>
        <time>2023-07-30T10:10:06.000Z</time>
      </trkpt>
      <trkpt lat="43.7224" lon="7.06909">
        <ele>456.39999389648</ele>
        <time>2023-07-30T10:10:07.000Z</time>
      </trkpt>
      <trkpt lat="43.72242" lon="7.0691">
        <ele>456.39999389648</ele>
        <time>2023-07-30T10:10:08.000Z</time>
      </trkpt>
      <trkpt lat="43.72245" lon="7.06911">
        <ele>456.79998779297</ele>
        <time>2023-07-30T10:10:09.000Z</time>
      </trkpt>
      <trkpt lat="43.72248" lon="7.06912">
        <ele>457</ele>
        <time>2023-07-30T10:10:10.000Z</time>
      </trkpt>
      <trkpt lat="43.7225" lon="7.06913">
        <ele>457.79998779297</ele>
        <time>2023-07-30T10:10:11.000Z</time>
      </trkpt>
      <trkpt lat="43.72253" lon="7.06914">
        <ele>458.39999389648</ele>
        <time>2023-07-30T10:10:12.000Z</time>
      </trkpt>
      <trkpt lat="43.72256" lon="7.06916">
        <ele>459</ele>
        <time>2023-07-30T10:10:13.000Z</time>
      </trkpt>
      <trkpt lat="43.72258" lon="7.06917">
        <ele>459.39999389648</ele>
        <time>2023-07-30T10:10:14.000Z</time>
      </trkpt>
      <trkpt lat="43.72261" lon="7.06919">
        <ele>459.79998779297</ele>
        <time>2023-07-30T10:10:15.000Z</time>
      </trkpt>
      <trkpt lat="43.72264" lon="7.0692">
        <ele>460.39999389648</ele>
        <time>2023-07-30T10:10:16.000Z</time>
      </trkpt>
      <trkpt lat="43.72268" lon="7.06921">
        <ele>460.79998779297</ele>
        <time>2023-07-30T10:10:17.000Z</time>
      </trkpt>
      <trkpt lat="43.72271" lon="7.06922">
        <ele>461.39999389648</ele>
        <time>2023-07-30T10:10:18.000Z</time>
      </trkpt>
      <trkpt lat="43.72274" lon="7.06924">
        <ele>461.79998779297</ele>
        <time>2023-07-30T10:10:19.000Z</time>
      </trkpt>
      <trkpt lat="43.72277" lon="7.06925">
        <ele>462.20001220703</ele>
        <time>2023-07-30T10:10:20.000Z</time>
      </trkpt>
      <trkpt lat="43.7228" lon="7.06927">
        <ele>462.20001220703</ele>
        <time>2023-07-30T10:10:21.000Z</time>
      </trkpt>
      <trkpt lat="43.72283" lon="7.06929">
        <ele>462.79998779297</ele>
        <time>2023-07-30T10:10:22.000Z</time>
      </trkpt>
      <trkpt lat="43.72286" lon="7.06931">
        <ele>463.39999389648</ele>
        <time>2023-07-30T10:10:23.000Z</time>
      </trkpt>
      <trkpt lat="43.72289" lon="7.06933">
        <ele>463.60000610352</ele>
        <time>2023-07-30T10:10:24.000Z</time>
      </trkpt>
      <trkpt lat="43.72291" lon="7.06934">
        <ele>464.20001220703</ele>
        <time>2023-07-30T10:10:25.000Z</time>
      </trkpt>
      <trkpt lat="43.72294" lon="7.06936">
        <ele>464.39999389648</ele>
        <time>2023-07-30T10:10:26.000Z</time>
      </trkpt>
      <trkpt lat="43.72297" lon="7.06939">
        <ele>464.79998779297</ele>
        <time>2023-07-30T10:10:27.000Z</time>
      </trkpt>
      <trkpt lat="43.72299" lon="7.06941">
        <ele>465</ele>
        <time>2023-07-30T10:10:28.000Z</time>
      </trkpt>
      <trkpt lat="43.72301" lon="7.06944">
        <ele>465.39999389648</ele>
        <time>2023-07-30T10:10:29.000Z</time>
      </trkpt>
      <trkpt lat="43.72303" lon="7.06948">
        <ele>465.79998779297</ele>
        <time>2023-07-30T10:10:30.000Z</time>
      </trkpt>
      <trkpt lat="43.72305" lon="7.06951">
        <ele>466.20001220703</ele>
        <time>2023-07-30T10:10:31.000Z</time>
      </trkpt>
      <trkpt lat="43.72307" lon="7.06954">
        <ele>466.79998779297</ele>
        <time>2023-07-30T10:10:32.000Z</time>
      </trkpt>
      <trkpt lat="43.72309" lon="7.06958">
        <ele>467.20001220703</ele>
        <time>2023-07-30T10:10:33.000Z</time>
      </trkpt>
      <trkpt lat="43.72311" lon="7.06961">
        <ele>467.39999389648</ele>
        <time>2023-07-30T10:10:34.000Z</time>
      </trkpt>
      <trkpt lat="43.72313" lon="7.06964">
        <ele>467.79998779297</ele>
        <time>2023-07-30T10:10:35.000Z</time>
      </trkpt>
      <trkpt lat="43.72314" lon="7.06967">
        <ele>467.79998779297</ele>
        <time>2023-07-30T10:10:36.000Z</time>
      </trkpt>
      <trkpt lat="43.72316" lon="7.06969">
        <ele>468</ele>
        <time>2023-07-30T10:10:37.000Z</time>
      </trkpt>
      <trkpt lat="43.72318" lon="7.06972">
        <ele>468.20001220703</ele>
        <time>2023-07-30T10:10:38.000Z</time>
      </trkpt>
      <trkpt lat="43.7232" lon="7.06975">
        <ele>468.39999389648</ele>
        <time>2023-07-30T10:10:39.000Z</time>
      </trkpt>
      <trkpt lat="43.72322" lon="7.06978">
        <ele>468.60000610352</ele>
        <time>2023-07-30T10:10:40.000Z</time>
      </trkpt>
      <trkpt lat="43.72325" lon="7.06981">
        <ele>468.60000610352</ele>
        <time>2023-07-30T10:10:41.000Z</time>
      </trkpt>
      <trkpt lat="43.72329" lon="7.06984">
        <ele>468.60000610352</ele>
        <time>2023-07-30T10:10:42.000Z</time>
      </trkpt>
      <trkpt lat="43.72334" lon="7.06987">
        <ele>468.60000610352</ele>
        <time>2023-07-30T10:10:43.000Z</time>
      </trkpt>
      <trkpt lat="43.72339" lon="7.0699">
        <ele>468.39999389648</ele>
        <time>2023-07-30T10:10:44.000Z</time>
      </trkpt>
      <trkpt lat="43.72346" lon="7.06994">
        <ele>468.20001220703</ele>
        <time>2023-07-30T10:10:45.000Z</time>
      </trkpt>
      <trkpt lat="43.72352" lon="7.06998">
        <ele>467.79998779297</ele>
        <time>2023-07-30T10:10:46.000Z</time>
      </trkpt>
      <trkpt lat="43.72359" lon="7.07001">
        <ele>467.20001220703</ele>
        <time>2023-07-30T10:10:47.000Z</time>
      </trkpt>
      <trkpt lat="43.72365" lon="7.07005">
        <ele>466.60000610352</ele>
        <time>2023-07-30T10:10:48.000Z</time>
      </trkpt>
      <trkpt lat="43.72372" lon="7.07009">
        <ele>465.79998779297</ele>
        <time>2023-07-30T10:10:49.000Z</time>
      </trkpt>
      <trkpt lat="43.72379" lon="7.07014">
        <ele>465.60000610352</ele>
        <time>2023-07-30T10:10:50.000Z</time>
      </trkpt>
      <trkpt lat="43.72385" lon="7.0702">
        <ele>465</ele>
        <time>2023-07-30T10:10:51.000Z</time>
      </trkpt>
      <trkpt lat="43.72391" lon="7.07026">
        <ele>464.79998779297</ele>
        <time>2023-07-30T10:10:52.000Z</time>
      </trkpt>
      <trkpt lat="43.72395" lon="7.07034">
        <ele>464</ele>
        <time>2023-07-30T10:10:53.000Z</time>
      </trkpt>
      <trkpt lat="43.72399" lon="7.07043">
        <ele>464</ele>
        <time>2023-07-30T10:10:54.000Z</time>
      </trkpt>
      <trkpt lat="43.72401" lon="7.07053">
        <ele>463.39999389648</ele>
        <time>2023-07-30T10:10:55.000Z</time>
      </trkpt>
      <trkpt lat="43.72405" lon="7.07064">
        <ele>462.79998779297</ele>
        <time>2023-07-30T10:10:56.000Z</time>
      </trkpt>
      <trkpt lat="43.72404" lon="7.07075">
        <ele>462.39999389648</ele>
        <time>2023-07-30T10:10:57.000Z</time>
      </trkpt>
      <trkpt lat="43.72403" lon="7.07083">
        <ele>462</ele>
        <time>2023-07-30T10:10:58.000Z</time>
      </trkpt>
      <trkpt lat="43.72402" lon="7.07089">
        <ele>462</ele>
        <time>2023-07-30T10:10:59.000Z</time>
      </trkpt>
      <trkpt lat="43.72401" lon="7.07095">
        <ele>462</ele>
        <time>2023-07-30T10:11:00.000Z</time>
      </trkpt>
      <trkpt lat="43.72401" lon="7.071">
        <ele>462</ele>
        <time>2023-07-30T10:11:01.000Z</time>
      </trkpt>
      <trkpt lat="43.72402" lon="7.07105">
        <ele>462.60000610352</ele>
        <time>2023-07-30T10:11:02.000Z</time>
      </trkpt>
      <trkpt lat="43.72402" lon="7.07109">
        <ele>462.60000610352</ele>
        <time>2023-07-30T10:11:03.000Z</time>
      </trkpt>
      <trkpt lat="43.72403" lon="7.07113">
        <ele>463.39999389648</ele>
        <time>2023-07-30T10:11:04.000Z</time>
      </trkpt>
      <trkpt lat="43.72404" lon="7.07118">
        <ele>463.39999389648</ele>
        <time>2023-07-30T10:11:05.000Z</time>
      </trkpt>
      <trkpt lat="43.72406" lon="7.07121">
        <ele>464</ele>
        <time>2023-07-30T10:11:06.000Z</time>
      </trkpt>
      <trkpt lat="43.72408" lon="7.07123">
        <ele>464.60000610352</ele>
        <time>2023-07-30T10:11:07.000Z</time>
      </trkpt>
      <trkpt lat="43.72411" lon="7.07124">
        <ele>465</ele>
        <time>2023-07-30T10:11:08.000Z</time>
      </trkpt>
      <trkpt lat="43.72414" lon="7.07124">
        <ele>465.39999389648</ele>
        <time>2023-07-30T10:11:09.000Z</time>
      </trkpt>
      <trkpt lat="43.72417" lon="7.07121">
        <ele>465.60000610352</ele>
        <time>2023-07-30T10:11:10.000Z</time>
      </trkpt>
      <trkpt lat="43.72419" lon="7.0712">
        <ele>465.79998779297</ele>
        <time>2023-07-30T10:11:11.000Z</time>
      </trkpt>
      <trkpt lat="43.72422" lon="7.07119">
        <ele>466.79998779297</ele>
        <time>2023-07-30T10:11:12.000Z</time>
      </trkpt>
      <trkpt lat="43.72423" lon="7.07118">
        <ele>467.20001220703</ele>
        <time>2023-07-30T10:11:13.000Z</time>
      </trkpt>
      <trkpt lat="43.72425" lon="7.07116">
        <ele>467.60000610352</ele>
        <time>2023-07-30T10:11:14.000Z</time>
      </trkpt>
      <trkpt lat="43.72426" lon="7.07115">
        <ele>468.60000610352</ele>
        <time>2023-07-30T10:11:15.000Z</time>
      </trkpt>
      <trkpt lat="43.72427" lon="7.07114">
        <ele>468.79998779297</ele>
        <time>2023-07-30T10:11:16.000Z</time>
      </trkpt>
      <trkpt lat="43.72427" lon="7.07112">
        <ele>469</ele>
        <time>2023-07-30T10:11:17.000Z</time>
      </trkpt>
      <trkpt lat="43.72428" lon="7.07111">
        <ele>469.39999389648</ele>
        <time>2023-07-30T10:11:18.000Z</time>
      </trkpt>
      <trkpt lat="43.72427" lon="7.07109">
        <ele>469.39999389648</ele>
        <time>2023-07-30T10:11:19.000Z</time>
      </trkpt>
      <trkpt lat="43.72426" lon="7.07108">
        <ele>469.39999389648</ele>
        <time>2023-07-30T10:11:20.000Z</time>
      </trkpt>
      <trkpt lat="43.72424" lon="7.07108">
        <ele>469.39999389648</ele>
        <time>2023-07-30T10:11:21.000Z</time>
      </trkpt>
      <trkpt lat="43.72423" lon="7.07109">
        <ele>469.39999389648</ele>
        <time>2023-07-30T10:11:22.000Z</time>
      </trkpt>
      <trkpt lat="43.72422" lon="7.07111">
        <ele>469.20001220703</ele>
        <time>2023-07-30T10:11:23.000Z</time>
      </trkpt>
      <trkpt lat="43.72422" lon="7.07113">
        <ele>469.20001220703</ele>
        <time>2023-07-30T10:11:24.000Z</time>
      </trkpt>
      <trkpt lat="43.72422" lon="7.07116">
        <ele>469.20001220703</ele>
        <time>2023-07-30T10:11:25.000Z</time>
      </trkpt>
      <trkpt lat="43.72422" lon="7.07117">
        <ele>469.20001220703</ele>
        <time>2023-07-30T10:11:26.000Z</time>
      </trkpt>
      <trkpt lat="43.72422" lon="7.07117">
        <ele>469.20001220703</ele>
        <time>2023-07-30T10:11:27.000Z</time>
      </trkpt>
      <trkpt lat="43.72422" lon="7.07117">
        <ele>469.20001220703</ele>
        <time>2023-07-30T10:11:28.000Z</time>
      </trkpt>
      <trkpt lat="43.72422" lon="7.07117">
        <ele>469.20001220703</ele>
        <time>2023-07-30T10:11:29.000Z</time>
      </trkpt>
      <trkpt lat="43.72422" lon="7.07117">
        <ele>469.20001220703</ele>
        <time>2023-07-30T10:11:30.000Z</time>
      </trkpt>
      <trkpt lat="43.72422" lon="7.07117">
        <ele>469.20001220703</ele>
        <time>2023-07-30T10:11:31.000Z</time>
      </trkpt>
      <trkpt lat="43.72422" lon="7.07117">
        <ele>469.20001220703</ele>
        <time>2023-07-30T10:11:32.000Z</time>
      </trkpt>
      <trkpt lat="43.72423" lon="7.07117">
        <ele>469</ele>
        <time>2023-07-30T10:11:33.000Z</time>
      </trkpt>
      <trkpt lat="43.72423" lon="7.07117">
        <ele>469</ele>
        <time>2023-07-30T10:11:34.000Z</time>
      </trkpt>
      <trkpt lat="43.72423" lon="7.07117">
        <ele>469</ele>
        <time>2023-07-30T10:11:35.000Z</time>
      </trkpt>
      <trkpt lat="43.72423" lon="7.07117">
        <ele>469</ele>
        <time>2023-07-30T10:11:36.000Z</time>
      </trkpt>
      <trkpt lat="43.72423" lon="7.07117">
        <ele>469</ele>
        <time>2023-07-30T10:11:37.000Z</time>
      </trkpt>
      <trkpt lat="43.72423" lon="7.07117">
        <ele>469</ele>
        <time>2023-07-30T10:11:38.000Z</time>
      </trkpt>
      <trkpt lat="43.72423" lon="7.07117">
        <ele>469</ele>
        <time>2023-07-30T10:11:39.000Z</time>
      </trkpt>
      <trkpt lat="43.72423" lon="7.07117">
        <ele>469</ele>
        <time>2023-07-30T10:11:40.000Z</time>
      </trkpt>
      <trkpt lat="43.72423" lon="7.07117">
        <ele>469</ele>
        <time>2023-07-30T10:11:41.000Z</time>
      </trkpt>
      <trkpt lat="43.72423" lon="7.07117">
        <ele>469</ele>
        <time>2023-07-30T10:11:42.000Z</time>
      </trkpt>
      <trkpt lat="43.72423" lon="7.07117">
        <ele>469</ele>
        <time>2023-07-30T10:11:43.000Z</time>
      </trkpt>
      <trkpt lat="43.72423" lon="7.07117">
        <ele>469</ele>
        <time>2023-07-30T10:11:44.000Z</time>
      </trkpt>
      <trkpt lat="43.72423" lon="7.07117">
        <ele>469</ele>
        <time>2023-07-30T10:11:45.000Z</time>
      </trkpt>
      <trkpt lat="43.72423" lon="7.07117">
        <ele>469</ele>
        <time>2023-07-30T10:11:46.000Z</time>
      </trkpt>
      <trkpt lat="43.72421" lon="7.07119">
        <ele>469</ele>
        <time>2023-07-30T10:11:47.000Z</time>
      </trkpt>
      <trkpt lat="43.72419" lon="7.07121">
        <ele>469</ele>
        <time>2023-07-30T10:11:48.000Z</time>
      </trkpt>
      <trkpt lat="43.72415" lon="7.07123">
        <ele>468.79998779297</ele>
        <time>2023-07-30T10:11:49.000Z</time>
      </trkpt>
      <trkpt lat="43.72412" lon="7.07124">
        <ele>468.79998779297</ele>
        <time>2023-07-30T10:11:50.000Z</time>
      </trkpt>
      <trkpt lat="43.72409" lon="7.07123">
        <ele>468.60000610352</ele>
        <time>2023-07-30T10:11:51.000Z</time>
      </trkpt>
      <trkpt lat="43.72406" lon="7.07122">
        <ele>468</ele>
        <time>2023-07-30T10:11:52.000Z</time>
      </trkpt>
      <trkpt lat="43.72404" lon="7.0712">
        <ele>467.79998779297</ele>
        <time>2023-07-30T10:11:53.000Z</time>
      </trkpt>
      <trkpt lat="43.72403" lon="7.07119">
        <ele>467</ele>
        <time>2023-07-30T10:11:54.000Z</time>
      </trkpt>
      <trkpt lat="43.72403" lon="7.07117">
        <ele>466.39999389648</ele>
        <time>2023-07-30T10:11:55.000Z</time>
      </trkpt>
      <trkpt lat="43.72402" lon="7.07112">
        <ele>466.20001220703</ele>
        <time>2023-07-30T10:11:56.000Z</time>
      </trkpt>
      <trkpt lat="43.72402" lon="7.07106">
        <ele>466</ele>
        <time>2023-07-30T10:11:57.000Z</time>
      </trkpt>
      <trkpt lat="43.72402" lon="7.071">
        <ele>465.60000610352</ele>
        <time>2023-07-30T10:11:58.000Z</time>
      </trkpt>
      <trkpt lat="43.72401" lon="7.07094">
        <ele>465</ele>
        <time>2023-07-30T10:11:59.000Z</time>
      </trkpt>
      <trkpt lat="43.72402" lon="7.07089">
        <ele>464.20001220703</ele>
        <time>2023-07-30T10:12:00.000Z</time>
      </trkpt>
      <trkpt lat="43.72403" lon="7.07083">
        <ele>463.60000610352</ele>
        <time>2023-07-30T10:12:01.000Z</time>
      </trkpt>
      <trkpt lat="43.72404" lon="7.07076">
        <ele>463</ele>
        <time>2023-07-30T10:12:02.000Z</time>
      </trkpt>
      <trkpt lat="43.72404" lon="7.0707">
        <ele>463</ele>
        <time>2023-07-30T10:12:03.000Z</time>
      </trkpt>
      <trkpt lat="43.72404" lon="7.07065">
        <ele>462.60000610352</ele>
        <time>2023-07-30T10:12:04.000Z</time>
      </trkpt>
      <trkpt lat="43.72403" lon="7.07061">
        <ele>461.39999389648</ele>
        <time>2023-07-30T10:12:05.000Z</time>
      </trkpt>
      <trkpt lat="43.72402" lon="7.07061">
        <ele>461</ele>
        <time>2023-07-30T10:12:06.000Z</time>
      </trkpt>
      <trkpt lat="43.72402" lon="7.0706">
        <ele>460.39999389648</ele>
        <time>2023-07-30T10:12:07.000Z</time>
      </trkpt>
      <trkpt lat="43.72402" lon="7.0706">
        <ele>459.60000610352</ele>
        <time>2023-07-30T10:12:08.000Z</time>
      </trkpt>
      <trkpt lat="43.72402" lon="7.0706">
        <ele>459.20001220703</ele>
        <time>2023-07-30T10:12:09.000Z</time>
      </trkpt>
      <trkpt lat="43.72402" lon="7.0706">
        <ele>459.20001220703</ele>
        <time>2023-07-30T10:12:10.000Z</time>
      </trkpt>
      <trkpt lat="43.72402" lon="7.0706">
        <ele>459</ele>
        <time>2023-07-30T10:12:11.000Z</time>
      </trkpt>
      <trkpt lat="43.72402" lon="7.0706">
        <ele>459</ele>
        <time>2023-07-30T10:12:12.000Z</time>
      </trkpt>
      <trkpt lat="43.72402" lon="7.0706">
        <ele>458.79998779297</ele>
        <time>2023-07-30T10:12:13.000Z</time>
      </trkpt>
      <trkpt lat="43.72402" lon="7.0706">
        <ele>458.79998779297</ele>
        <time>2023-07-30T10:12:14.000Z</time>
      </trkpt>
      <trkpt lat="43.72402" lon="7.0706">
        <ele>458.79998779297</ele>
        <time>2023-07-30T10:12:15.000Z</time>
      </trkpt>
      <trkpt lat="43.72401" lon="7.0706">
        <ele>458.79998779297</ele>
        <time>2023-07-30T10:12:16.000Z</time>
      </trkpt>
      <trkpt lat="43.72401" lon="7.07062">
        <ele>458.79998779297</ele>
        <time>2023-07-30T10:12:17.000Z</time>
      </trkpt>
      <trkpt lat="43.724" lon="7.07064">
        <ele>458.79998779297</ele>
        <time>2023-07-30T10:12:18.000Z</time>
      </trkpt>
      <trkpt lat="43.724" lon="7.07067">
        <ele>458.60000610352</ele>
        <time>2023-07-30T10:12:19.000Z</time>
      </trkpt>
      <trkpt lat="43.72399" lon="7.07071">
        <ele>458.60000610352</ele>
        <time>2023-07-30T10:12:20.000Z</time>
      </trkpt>
      <trkpt lat="43.72399" lon="7.07075">
        <ele>458.60000610352</ele>
        <time>2023-07-30T10:12:21.000Z</time>
      </trkpt>
      <trkpt lat="43.72398" lon="7.07079">
        <ele>458.60000610352</ele>
        <time>2023-07-30T10:12:22.000Z</time>
      </trkpt>
      <trkpt lat="43.72398" lon="7.07084">
        <ele>458.60000610352</ele>
        <time>2023-07-30T10:12:23.000Z</time>
      </trkpt>
      <trkpt lat="43.72397" lon="7.07089">
        <ele>458.60000610352</ele>
        <time>2023-07-30T10:12:24.000Z</time>
      </trkpt>
      <trkpt lat="43.72397" lon="7.07093">
        <ele>458.79998779297</ele>
        <time>2023-07-30T10:12:25.000Z</time>
      </trkpt>
      <trkpt lat="43.72396" lon="7.07097">
        <ele>459</ele>
        <time>2023-07-30T10:12:26.000Z</time>
      </trkpt>
      <trkpt lat="43.72397" lon="7.07102">
        <ele>459.39999389648</ele>
        <time>2023-07-30T10:12:27.000Z</time>
      </trkpt>
      <trkpt lat="43.72397" lon="7.07106">
        <ele>459.60000610352</ele>
        <time>2023-07-30T10:12:28.000Z</time>
      </trkpt>
      <trkpt lat="43.72398" lon="7.0711">
        <ele>460.20001220703</ele>
        <time>2023-07-30T10:12:29.000Z</time>
      </trkpt>
      <trkpt lat="43.72399" lon="7.07114">
        <ele>460.79998779297</ele>
        <time>2023-07-30T10:12:30.000Z</time>
      </trkpt>
      <trkpt lat="43.72399" lon="7.07118">
        <ele>460.79998779297</ele>
        <time>2023-07-30T10:12:31.000Z</time>
      </trkpt>
      <trkpt lat="43.724" lon="7.07122">
        <ele>460.79998779297</ele>
        <time>2023-07-30T10:12:32.000Z</time>
      </trkpt>
      <trkpt lat="43.72401" lon="7.07126">
        <ele>460.79998779297</ele>
        <time>2023-07-30T10:12:33.000Z</time>
      </trkpt>
      <trkpt lat="43.72402" lon="7.0713">
        <ele>461.60000610352</ele>
        <time>2023-07-30T10:12:34.000Z</time>
      </trkpt>
      <trkpt lat="43.72403" lon="7.07134">
        <ele>462.39999389648</ele>
        <time>2023-07-30T10:12:35.000Z</time>
      </trkpt>
      <trkpt lat="43.72404" lon="7.07138">
        <ele>462.60000610352</ele>
        <time>2023-07-30T10:12:36.000Z</time>
      </trkpt>
      <trkpt lat="43.72406" lon="7.07141">
        <ele>462.79998779297</ele>
        <time>2023-07-30T10:12:37.000Z</time>
      </trkpt>
      <trkpt lat="43.72407" lon="7.07145">
        <ele>463</ele>
        <time>2023-07-30T10:12:38.000Z</time>
      </trkpt>
      <trkpt lat="43.72408" lon="7.07148">
        <ele>463</ele>
        <time>2023-07-30T10:12:39.000Z</time>
      </trkpt>
      <trkpt lat="43.72409" lon="7.07152">
        <ele>463.39999389648</ele>
        <time>2023-07-30T10:12:40.000Z</time>
      </trkpt>
      <trkpt lat="43.7241" lon="7.07156">
        <ele>464</ele>
        <time>2023-07-30T10:12:41.000Z</time>
      </trkpt>
      <trkpt lat="43.72411" lon="7.07159">
        <ele>464.39999389648</ele>
        <time>2023-07-30T10:12:42.000Z</time>
      </trkpt>
      <trkpt lat="43.72412" lon="7.07163">
        <ele>465</ele>
        <time>2023-07-30T10:12:43.000Z</time>
      </trkpt>
      <trkpt lat="43.72413" lon="7.07167">
        <ele>465.20001220703</ele>
        <time>2023-07-30T10:12:44.000Z</time>
      </trkpt>
      <trkpt lat="43.72414" lon="7.07171">
        <ele>465.20001220703</ele>
        <time>2023-07-30T10:12:45.000Z</time>
      </trkpt>
      <trkpt lat="43.72415" lon="7.07175">
        <ele>465.60000610352</ele>
        <time>2023-07-30T10:12:46.000Z</time>
      </trkpt>
      <trkpt lat="43.72417" lon="7.07179">
        <ele>466</ele>
        <time>2023-07-30T10:12:47.000Z</time>
      </trkpt>
      <trkpt lat="43.72417" lon="7.07183">
        <ele>466.39999389648</ele>
        <time>2023-07-30T10:12:48.000Z</time>
      </trkpt>
      <trkpt lat="43.72418" lon="7.07187">
        <ele>466.60000610352</ele>
        <time>2023-07-30T10:12:49.000Z</time>
      </trkpt>
      <trkpt lat="43.7242" lon="7.0719">
        <ele>466.79998779297</ele>
        <time>2023-07-30T10:12:50.000Z</time>
      </trkpt>
      <trkpt lat="43.72421" lon="7.07194">
        <ele>466.79998779297</ele>
        <time>2023-07-30T10:12:51.000Z</time>
      </trkpt>
      <trkpt lat="43.72423" lon="7.07197">
        <ele>467</ele>
        <time>2023-07-30T10:12:52.000Z</time>
      </trkpt>
      <trkpt lat="43.72425" lon="7.072">
        <ele>467.39999389648</ele>
        <time>2023-07-30T10:12:53.000Z</time>
      </trkpt>
      <trkpt lat="43.72426" lon="7.07201">
        <ele>467.60000610352</ele>
        <time>2023-07-30T10:12:54.000Z</time>
      </trkpt>
      <trkpt lat="43.72427" lon="7.07204">
        <ele>468</ele>
        <time>2023-07-30T10:12:55.000Z</time>
      </trkpt>
      <trkpt lat="43.72427" lon="7.07206">
        <ele>469</ele>
        <time>2023-07-30T10:12:56.000Z</time>
      </trkpt>
      <trkpt lat="43.72428" lon="7.07209">
        <ele>469</ele>
        <time>2023-07-30T10:12:57.000Z</time>
      </trkpt>
      <trkpt lat="43.7243" lon="7.07211">
        <ele>469.39999389648</ele>
        <time>2023-07-30T10:12:58.000Z</time>
      </trkpt>
      <trkpt lat="43.72431" lon="7.07213">
        <ele>469.60000610352</ele>
        <time>2023-07-30T10:12:59.000Z</time>
      </trkpt>
      <trkpt lat="43.72432" lon="7.07215">
        <ele>469.79998779297</ele>
        <time>2023-07-30T10:13:00.000Z</time>
      </trkpt>
      <trkpt lat="43.72433" lon="7.07218">
        <ele>469.79998779297</ele>
        <time>2023-07-30T10:13:01.000Z</time>
      </trkpt>
      <trkpt lat="43.72434" lon="7.0722">
        <ele>470.20001220703</ele>
        <time>2023-07-30T10:13:02.000Z</time>
      </trkpt>
      <trkpt lat="43.72435" lon="7.07223">
        <ele>470.39999389648</ele>
        <time>2023-07-30T10:13:03.000Z</time>
      </trkpt>
      <trkpt lat="43.72437" lon="7.07226">
        <ele>470.79998779297</ele>
        <time>2023-07-30T10:13:04.000Z</time>
      </trkpt>
      <trkpt lat="43.72439" lon="7.0723">
        <ele>471</ele>
        <time>2023-07-30T10:13:05.000Z</time>
      </trkpt>
      <trkpt lat="43.7244" lon="7.07233">
        <ele>471.20001220703</ele>
        <time>2023-07-30T10:13:06.000Z</time>
      </trkpt>
      <trkpt lat="43.72441" lon="7.07236">
        <ele>471.79998779297</ele>
        <time>2023-07-30T10:13:07.000Z</time>
      </trkpt>
      <trkpt lat="43.72443" lon="7.07239">
        <ele>472.20001220703</ele>
        <time>2023-07-30T10:13:08.000Z</time>
      </trkpt>
      <trkpt lat="43.72444" lon="7.07243">
        <ele>472.60000610352</ele>
        <time>2023-07-30T10:13:09.000Z</time>
      </trkpt>
      <trkpt lat="43.72445" lon="7.07247">
        <ele>472.79998779297</ele>
        <time>2023-07-30T10:13:10.000Z</time>
      </trkpt>
      <trkpt lat="43.72447" lon="7.07251">
        <ele>473.39999389648</ele>
        <time>2023-07-30T10:13:11.000Z</time>
      </trkpt>
      <trkpt lat="43.72448" lon="7.07255">
        <ele>474.20001220703</ele>
        <time>2023-07-30T10:13:12.000Z</time>
      </trkpt>
      <trkpt lat="43.72449" lon="7.07259">
        <ele>474.20001220703</ele>
        <time>2023-07-30T10:13:13.000Z</time>
      </trkpt>
      <trkpt lat="43.7245" lon="7.07262">
        <ele>474.79998779297</ele>
        <time>2023-07-30T10:13:14.000Z</time>
      </trkpt>
      <trkpt lat="43.72451" lon="7.07265">
        <ele>475.20001220703</ele>
        <time>2023-07-30T10:13:15.000Z</time>
      </trkpt>
      <trkpt lat="43.72453" lon="7.07268">
        <ele>476</ele>
        <time>2023-07-30T10:13:16.000Z</time>
      </trkpt>
      <trkpt lat="43.72454" lon="7.07272">
        <ele>476.39999389648</ele>
        <time>2023-07-30T10:13:17.000Z</time>
      </trkpt>
      <trkpt lat="43.72456" lon="7.07275">
        <ele>477.20001220703</ele>
        <time>2023-07-30T10:13:18.000Z</time>
      </trkpt>
      <trkpt lat="43.72457" lon="7.07279">
        <ele>477.79998779297</ele>
        <time>2023-07-30T10:13:19.000Z</time>
      </trkpt>
      <trkpt lat="43.72458" lon="7.07283">
        <ele>478.20001220703</ele>
        <time>2023-07-30T10:13:20.000Z</time>
      </trkpt>
      <trkpt lat="43.72459" lon="7.07286">
        <ele>478.39999389648</ele>
        <time>2023-07-30T10:13:21.000Z</time>
      </trkpt>
      <trkpt lat="43.7246" lon="7.0729">
        <ele>478.79998779297</ele>
        <time>2023-07-30T10:13:22.000Z</time>
      </trkpt>
      <trkpt lat="43.72461" lon="7.07293">
        <ele>479</ele>
        <time>2023-07-30T10:13:23.000Z</time>
      </trkpt>
      <trkpt lat="43.72462" lon="7.07296">
        <ele>479.39999389648</ele>
        <time>2023-07-30T10:13:24.000Z</time>
      </trkpt>
      <trkpt lat="43.72464" lon="7.07299">
        <ele>479.79998779297</ele>
        <time>2023-07-30T10:13:25.000Z</time>
      </trkpt>
      <trkpt lat="43.72465" lon="7.07302">
        <ele>480.20001220703</ele>
        <time>2023-07-30T10:13:26.000Z</time>
      </trkpt>
      <trkpt lat="43.72466" lon="7.07305">
        <ele>480.79998779297</ele>
        <time>2023-07-30T10:13:27.000Z</time>
      </trkpt>
      <trkpt lat="43.72468" lon="7.07308">
        <ele>481.20001220703</ele>
        <time>2023-07-30T10:13:28.000Z</time>
      </trkpt>
      <trkpt lat="43.72469" lon="7.07311">
        <ele>481.79998779297</ele>
        <time>2023-07-30T10:13:29.000Z</time>
      </trkpt>
      <trkpt lat="43.7247" lon="7.07315">
        <ele>481.79998779297</ele>
        <time>2023-07-30T10:13:30.000Z</time>
      </trkpt>
      <trkpt lat="43.72472" lon="7.07317">
        <ele>482.39999389648</ele>
        <time>2023-07-30T10:13:31.000Z</time>
      </trkpt>
      <trkpt lat="43.72474" lon="7.0732">
        <ele>482.79998779297</ele>
        <time>2023-07-30T10:13:32.000Z</time>
      </trkpt>
      <trkpt lat="43.72475" lon="7.07323">
        <ele>483.20001220703</ele>
        <time>2023-07-30T10:13:33.000Z</time>
      </trkpt>
      <trkpt lat="43.72477" lon="7.07326">
        <ele>483.60000610352</ele>
        <time>2023-07-30T10:13:34.000Z</time>
      </trkpt>
      <trkpt lat="43.72479" lon="7.07329">
        <ele>483.79998779297</ele>
        <time>2023-07-30T10:13:35.000Z</time>
      </trkpt>
      <trkpt lat="43.7248" lon="7.07331">
        <ele>484.20001220703</ele>
        <time>2023-07-30T10:13:36.000Z</time>
      </trkpt>
      <trkpt lat="43.72482" lon="7.07334">
        <ele>484.39999389648</ele>
        <time>2023-07-30T10:13:37.000Z</time>
      </trkpt>
      <trkpt lat="43.72483" lon="7.07337">
        <ele>484.79998779297</ele>
        <time>2023-07-30T10:13:38.000Z</time>
      </trkpt>
      <trkpt lat="43.72485" lon="7.0734">
        <ele>485</ele>
        <time>2023-07-30T10:13:39.000Z</time>
      </trkpt>
      <trkpt lat="43.72487" lon="7.07343">
        <ele>485.20001220703</ele>
        <time>2023-07-30T10:13:40.000Z</time>
      </trkpt>
      <trkpt lat="43.72488" lon="7.07347">
        <ele>485.20001220703</ele>
        <time>2023-07-30T10:13:41.000Z</time>
      </trkpt>
      <trkpt lat="43.7249" lon="7.0735">
        <ele>485.60000610352</ele>
        <time>2023-07-30T10:13:42.000Z</time>
      </trkpt>
      <trkpt lat="43.72492" lon="7.07353">
        <ele>485.79998779297</ele>
        <time>2023-07-30T10:13:43.000Z</time>
      </trkpt>
      <trkpt lat="43.72494" lon="7.07356">
        <ele>486</ele>
        <time>2023-07-30T10:13:44.000Z</time>
      </trkpt>
      <trkpt lat="43.72495" lon="7.07359">
        <ele>486.20001220703</ele>
        <time>2023-07-30T10:13:45.000Z</time>
      </trkpt>
      <trkpt lat="43.72497" lon="7.07362">
        <ele>486.39999389648</ele>
        <time>2023-07-30T10:13:46.000Z</time>
      </trkpt>
      <trkpt lat="43.72499" lon="7.07366">
        <ele>486.60000610352</ele>
        <time>2023-07-30T10:13:47.000Z</time>
      </trkpt>
      <trkpt lat="43.72501" lon="7.07369">
        <ele>486.79998779297</ele>
        <time>2023-07-30T10:13:48.000Z</time>
      </trkpt>
      <trkpt lat="43.72503" lon="7.07372">
        <ele>487</ele>
        <time>2023-07-30T10:13:49.000Z</time>
      </trkpt>
      <trkpt lat="43.72504" lon="7.07376">
        <ele>487</ele>
        <time>2023-07-30T10:13:50.000Z</time>
      </trkpt>
      <trkpt lat="43.72507" lon="7.07379">
        <ele>487.20001220703</ele>
        <time>2023-07-30T10:13:51.000Z</time>
      </trkpt>
      <trkpt lat="43.72508" lon="7.07382">
        <ele>487.39999389648</ele>
        <time>2023-07-30T10:13:52.000Z</time>
      </trkpt>
      <trkpt lat="43.7251" lon="7.07385">
        <ele>487.39999389648</ele>
        <time>2023-07-30T10:13:53.000Z</time>
      </trkpt>
      <trkpt lat="43.72513" lon="7.07388">
        <ele>487.60000610352</ele>
        <time>2023-07-30T10:13:54.000Z</time>
      </trkpt>
      <trkpt lat="43.72515" lon="7.07391">
        <ele>487.60000610352</ele>
        <time>2023-07-30T10:13:55.000Z</time>
      </trkpt>
      <trkpt lat="43.72517" lon="7.07394">
        <ele>487.79998779297</ele>
        <time>2023-07-30T10:13:56.000Z</time>
      </trkpt>
      <trkpt lat="43.72519" lon="7.07397">
        <ele>487.79998779297</ele>
        <time>2023-07-30T10:13:57.000Z</time>
      </trkpt>
      <trkpt lat="43.72521" lon="7.07401">
        <ele>487.79998779297</ele>
        <time>2023-07-30T10:13:58.000Z</time>
      </trkpt>
      <trkpt lat="43.72523" lon="7.07405">
        <ele>487.79998779297</ele>
        <time>2023-07-30T10:13:59.000Z</time>
      </trkpt>
      <trkpt lat="43.72525" lon="7.07409">
        <ele>487.79998779297</ele>
        <time>2023-07-30T10:14:00.000Z</time>
      </trkpt>
      <trkpt lat="43.72527" lon="7.07412">
        <ele>487.79998779297</ele>
        <time>2023-07-30T10:14:01.000Z</time>
      </trkpt>
      <trkpt lat="43.72529" lon="7.07417">
        <ele>487.79998779297</ele>
        <time>2023-07-30T10:14:02.000Z</time>
      </trkpt>
      <trkpt lat="43.72531" lon="7.07421">
        <ele>487.79998779297</ele>
        <time>2023-07-30T10:14:03.000Z</time>
      </trkpt>
      <trkpt lat="43.72534" lon="7.07425">
        <ele>487.79998779297</ele>
        <time>2023-07-30T10:14:04.000Z</time>
      </trkpt>
      <trkpt lat="43.72536" lon="7.0743">
        <ele>487.60000610352</ele>
        <time>2023-07-30T10:14:05.000Z</time>
      </trkpt>
      <trkpt lat="43.72538" lon="7.07434">
        <ele>487.60000610352</ele>
        <time>2023-07-30T10:14:06.000Z</time>
      </trkpt>
      <trkpt lat="43.7254" lon="7.07438">
        <ele>487.60000610352</ele>
        <time>2023-07-30T10:14:07.000Z</time>
      </trkpt>
      <trkpt lat="43.72542" lon="7.07442">
        <ele>487.60000610352</ele>
        <time>2023-07-30T10:14:08.000Z</time>
      </trkpt>
      <trkpt lat="43.72544" lon="7.07446">
        <ele>487.39999389648</ele>
        <time>2023-07-30T10:14:09.000Z</time>
      </trkpt>
      <trkpt lat="43.72547" lon="7.0745">
        <ele>487.39999389648</ele>
        <time>2023-07-30T10:14:10.000Z</time>
      </trkpt>
      <trkpt lat="43.72549" lon="7.07454">
        <ele>487.39999389648</ele>
        <time>2023-07-30T10:14:11.000Z</time>
      </trkpt>
      <trkpt lat="43.72551" lon="7.07457">
        <ele>487.39999389648</ele>
        <time>2023-07-30T10:14:12.000Z</time>
      </trkpt>
      <trkpt lat="43.72553" lon="7.0746">
        <ele>487.39999389648</ele>
        <time>2023-07-30T10:14:13.000Z</time>
      </trkpt>
      <trkpt lat="43.72554" lon="7.07463">
        <ele>487.39999389648</ele>
        <time>2023-07-30T10:14:14.000Z</time>
      </trkpt>
      <trkpt lat="43.72556" lon="7.07466">
        <ele>487.39999389648</ele>
        <time>2023-07-30T10:14:15.000Z</time>
      </trkpt>
      <trkpt lat="43.72558" lon="7.07468">
        <ele>487.39999389648</ele>
        <time>2023-07-30T10:14:16.000Z</time>
      </trkpt>
      <trkpt lat="43.7256" lon="7.07471">
        <ele>487.60000610352</ele>
        <time>2023-07-30T10:14:17.000Z</time>
      </trkpt>
      <trkpt lat="43.72562" lon="7.07475">
        <ele>487.60000610352</ele>
        <time>2023-07-30T10:14:18.000Z</time>
      </trkpt>
      <trkpt lat="43.72563" lon="7.07479">
        <ele>487.60000610352</ele>
        <time>2023-07-30T10:14:19.000Z</time>
      </trkpt>
      <trkpt lat="43.72565" lon="7.07483">
        <ele>487.60000610352</ele>
        <time>2023-07-30T10:14:20.000Z</time>
      </trkpt>
      <trkpt lat="43.72567" lon="7.07486">
        <ele>487.60000610352</ele>
        <time>2023-07-30T10:14:21.000Z</time>
      </trkpt>
      <trkpt lat="43.72569" lon="7.07489">
        <ele>487.60000610352</ele>
        <time>2023-07-30T10:14:22.000Z</time>
      </trkpt>
      <trkpt lat="43.72572" lon="7.07491">
        <ele>487.60000610352</ele>
        <time>2023-07-30T10:14:23.000Z</time>
      </trkpt>
      <trkpt lat="43.72573" lon="7.07494">
        <ele>487.60000610352</ele>
        <time>2023-07-30T10:14:24.000Z</time>
      </trkpt>
      <trkpt lat="43.72575" lon="7.07497">
        <ele>487.60000610352</ele>
        <time>2023-07-30T10:14:25.000Z</time>
      </trkpt>
      <trkpt lat="43.72577" lon="7.075">
        <ele>487.60000610352</ele>
        <time>2023-07-30T10:14:26.000Z</time>
      </trkpt>
      <trkpt lat="43.7258" lon="7.07502">
        <ele>487.79998779297</ele>
        <time>2023-07-30T10:14:27.000Z</time>
      </trkpt>
      <trkpt lat="43.72583" lon="7.07503">
        <ele>488</ele>
        <time>2023-07-30T10:14:28.000Z</time>
      </trkpt>
      <trkpt lat="43.72586" lon="7.07505">
        <ele>488</ele>
        <time>2023-07-30T10:14:29.000Z</time>
      </trkpt>
      <trkpt lat="43.72588" lon="7.07506">
        <ele>488</ele>
        <time>2023-07-30T10:14:30.000Z</time>
      </trkpt>
      <trkpt lat="43.72591" lon="7.07507">
        <ele>488.20001220703</ele>
        <time>2023-07-30T10:14:31.000Z</time>
      </trkpt>
      <trkpt lat="43.72593" lon="7.07508">
        <ele>488.60000610352</ele>
        <time>2023-07-30T10:14:32.000Z</time>
      </trkpt>
      <trkpt lat="43.72596" lon="7.07509">
        <ele>489.20001220703</ele>
        <time>2023-07-30T10:14:33.000Z</time>
      </trkpt>
      <trkpt lat="43.72599" lon="7.0751">
        <ele>489.60000610352</ele>
        <time>2023-07-30T10:14:34.000Z</time>
      </trkpt>
      <trkpt lat="43.72601" lon="7.07511">
        <ele>490.20001220703</ele>
        <time>2023-07-30T10:14:35.000Z</time>
      </trkpt>
      <trkpt lat="43.72603" lon="7.07512">
        <ele>490.79998779297</ele>
        <time>2023-07-30T10:14:36.000Z</time>
      </trkpt>
      <trkpt lat="43.72605" lon="7.07513">
        <ele>491.39999389648</ele>
        <time>2023-07-30T10:14:37.000Z</time>
      </trkpt>
      <trkpt lat="43.72607" lon="7.07513">
        <ele>491.79998779297</ele>
        <time>2023-07-30T10:14:38.000Z</time>
      </trkpt>
      <trkpt lat="43.72609" lon="7.07514">
        <ele>492.39999389648</ele>
        <time>2023-07-30T10:14:39.000Z</time>
      </trkpt>
      <trkpt lat="43.72612" lon="7.07513">
        <ele>492.79998779297</ele>
        <time>2023-07-30T10:14:40.000Z</time>
      </trkpt>
      <trkpt lat="43.72615" lon="7.07513">
        <ele>493</ele>
        <time>2023-07-30T10:14:41.000Z</time>
      </trkpt>
      <trkpt lat="43.72618" lon="7.07513">
        <ele>493.39999389648</ele>
        <time>2023-07-30T10:14:42.000Z</time>
      </trkpt>
      <trkpt lat="43.72621" lon="7.07514">
        <ele>493.60000610352</ele>
        <time>2023-07-30T10:14:43.000Z</time>
      </trkpt>
      <trkpt lat="43.72625" lon="7.07514">
        <ele>493.79998779297</ele>
        <time>2023-07-30T10:14:44.000Z</time>
      </trkpt>
      <trkpt lat="43.72628" lon="7.07514">
        <ele>494</ele>
        <time>2023-07-30T10:14:45.000Z</time>
      </trkpt>
      <trkpt lat="43.72632" lon="7.07515">
        <ele>494</ele>
        <time>2023-07-30T10:14:46.000Z</time>
      </trkpt>
      <trkpt lat="43.72635" lon="7.07515">
        <ele>494.20001220703</ele>
        <time>2023-07-30T10:14:47.000Z</time>
      </trkpt>
      <trkpt lat="43.72639" lon="7.07515">
        <ele>494.39999389648</ele>
        <time>2023-07-30T10:14:48.000Z</time>
      </trkpt>
      <trkpt lat="43.72642" lon="7.07515">
        <ele>494.60000610352</ele>
        <time>2023-07-30T10:14:49.000Z</time>
      </trkpt>
      <trkpt lat="43.72646" lon="7.07515">
        <ele>494.60000610352</ele>
        <time>2023-07-30T10:14:50.000Z</time>
      </trkpt>
      <trkpt lat="43.72649" lon="7.07515">
        <ele>494.60000610352</ele>
        <time>2023-07-30T10:14:51.000Z</time>
      </trkpt>
      <trkpt lat="43.72652" lon="7.07516">
        <ele>494.79998779297</ele>
        <time>2023-07-30T10:14:52.000Z</time>
      </trkpt>
      <trkpt lat="43.72656" lon="7.07517">
        <ele>494.79998779297</ele>
        <time>2023-07-30T10:14:53.000Z</time>
      </trkpt>
      <trkpt lat="43.72659" lon="7.07517">
        <ele>495</ele>
        <time>2023-07-30T10:14:54.000Z</time>
      </trkpt>
      <trkpt lat="43.72662" lon="7.07517">
        <ele>495.39999389648</ele>
        <time>2023-07-30T10:14:55.000Z</time>
      </trkpt>
      <trkpt lat="43.72665" lon="7.07518">
        <ele>495.39999389648</ele>
        <time>2023-07-30T10:14:56.000Z</time>
      </trkpt>
      <trkpt lat="43.72668" lon="7.07518">
        <ele>495.79998779297</ele>
        <time>2023-07-30T10:14:57.000Z</time>
      </trkpt>
      <trkpt lat="43.7267" lon="7.07518">
        <ele>495.79998779297</ele>
        <time>2023-07-30T10:14:58.000Z</time>
      </trkpt>
      <trkpt lat="43.72672" lon="7.07518">
        <ele>496</ele>
        <time>2023-07-30T10:14:59.000Z</time>
      </trkpt>
      <trkpt lat="43.72675" lon="7.07517">
        <ele>496.20001220703</ele>
        <time>2023-07-30T10:15:00.000Z</time>
      </trkpt>
      <trkpt lat="43.72677" lon="7.07516">
        <ele>496.60000610352</ele>
        <time>2023-07-30T10:15:01.000Z</time>
      </trkpt>
      <trkpt lat="43.7268" lon="7.07516">
        <ele>497.20001220703</ele>
        <time>2023-07-30T10:15:02.000Z</time>
      </trkpt>
      <trkpt lat="43.72683" lon="7.07516">
        <ele>497.39999389648</ele>
        <time>2023-07-30T10:15:03.000Z</time>
      </trkpt>
      <trkpt lat="43.72686" lon="7.07515">
        <ele>497.79998779297</ele>
        <time>2023-07-30T10:15:04.000Z</time>
      </trkpt>
      <trkpt lat="43.72688" lon="7.07515">
        <ele>498.20001220703</ele>
        <time>2023-07-30T10:15:05.000Z</time>
      </trkpt>
      <trkpt lat="43.7269" lon="7.07515">
        <ele>498.60000610352</ele>
        <time>2023-07-30T10:15:06.000Z</time>
      </trkpt>
      <trkpt lat="43.72693" lon="7.07515">
        <ele>499</ele>
        <time>2023-07-30T10:15:07.000Z</time>
      </trkpt>
      <trkpt lat="43.72695" lon="7.07515">
        <ele>499.60000610352</ele>
        <time>2023-07-30T10:15:08.000Z</time>
      </trkpt>
      <trkpt lat="43.72697" lon="7.07515">
        <ele>500</ele>
        <time>2023-07-30T10:15:09.000Z</time>
      </trkpt>
      <trkpt lat="43.72699" lon="7.07515">
        <ele>500.20001220703</ele>
        <time>2023-07-30T10:15:10.000Z</time>
      </trkpt>
      <trkpt lat="43.72701" lon="7.07514">
        <ele>500.20001220703</ele>
        <time>2023-07-30T10:15:11.000Z</time>
      </trkpt>
      <trkpt lat="43.72703" lon="7.07514">
        <ele>500.20001220703</ele>
        <time>2023-07-30T10:15:12.000Z</time>
      </trkpt>
      <trkpt lat="43.72704" lon="7.07514">
        <ele>500.20001220703</ele>
        <time>2023-07-30T10:15:13.000Z</time>
      </trkpt>
      <trkpt lat="43.72706" lon="7.07514">
        <ele>500.20001220703</ele>
        <time>2023-07-30T10:15:14.000Z</time>
      </trkpt>
      <trkpt lat="43.72709" lon="7.07514">
        <ele>500.20001220703</ele>
        <time>2023-07-30T10:15:15.000Z</time>
      </trkpt>
      <trkpt lat="43.72711" lon="7.07513">
        <ele>500</ele>
        <time>2023-07-30T10:15:16.000Z</time>
      </trkpt>
      <trkpt lat="43.72714" lon="7.07513">
        <ele>499.39999389648</ele>
        <time>2023-07-30T10:15:17.000Z</time>
      </trkpt>
      <trkpt lat="43.72717" lon="7.07513">
        <ele>499.39999389648</ele>
        <time>2023-07-30T10:15:18.000Z</time>
      </trkpt>
      <trkpt lat="43.7272" lon="7.07512">
        <ele>500</ele>
        <time>2023-07-30T10:15:19.000Z</time>
      </trkpt>
      <trkpt lat="43.72723" lon="7.07512">
        <ele>500.39999389648</ele>
        <time>2023-07-30T10:15:20.000Z</time>
      </trkpt>
      <trkpt lat="43.72727" lon="7.07512">
        <ele>500.39999389648</ele>
        <time>2023-07-30T10:15:21.000Z</time>
      </trkpt>
      <trkpt lat="43.7273" lon="7.07511">
        <ele>500</ele>
        <time>2023-07-30T10:15:22.000Z</time>
      </trkpt>
      <trkpt lat="43.72734" lon="7.0751">
        <ele>500</ele>
        <time>2023-07-30T10:15:23.000Z</time>
      </trkpt>
      <trkpt lat="43.72738" lon="7.07509">
        <ele>500</ele>
        <time>2023-07-30T10:15:24.000Z</time>
      </trkpt>
      <trkpt lat="43.72742" lon="7.07507">
        <ele>499.79998779297</ele>
        <time>2023-07-30T10:15:25.000Z</time>
      </trkpt>
      <trkpt lat="43.72746" lon="7.07505">
        <ele>499.60000610352</ele>
        <time>2023-07-30T10:15:26.000Z</time>
      </trkpt>
      <trkpt lat="43.72749" lon="7.07503">
        <ele>499.60000610352</ele>
        <time>2023-07-30T10:15:27.000Z</time>
      </trkpt>
      <trkpt lat="43.72752" lon="7.075">
        <ele>499.60000610352</ele>
        <time>2023-07-30T10:15:28.000Z</time>
      </trkpt>
      <trkpt lat="43.72754" lon="7.07497">
        <ele>499.60000610352</ele>
        <time>2023-07-30T10:15:29.000Z</time>
      </trkpt>
      <trkpt lat="43.72757" lon="7.07495">
        <ele>499.60000610352</ele>
        <time>2023-07-30T10:15:30.000Z</time>
      </trkpt>
      <trkpt lat="43.72759" lon="7.07494">
        <ele>499.79998779297</ele>
        <time>2023-07-30T10:15:31.000Z</time>
      </trkpt>
      <trkpt lat="43.72761" lon="7.07493">
        <ele>499.79998779297</ele>
        <time>2023-07-30T10:15:32.000Z</time>
      </trkpt>
      <trkpt lat="43.72763" lon="7.07492">
        <ele>500</ele>
        <time>2023-07-30T10:15:33.000Z</time>
      </trkpt>
      <trkpt lat="43.72764" lon="7.07491">
        <ele>500</ele>
        <time>2023-07-30T10:15:34.000Z</time>
      </trkpt>
      <trkpt lat="43.72765" lon="7.07489">
        <ele>500</ele>
        <time>2023-07-30T10:15:35.000Z</time>
      </trkpt>
      <trkpt lat="43.72765" lon="7.0749">
        <ele>500.20001220703</ele>
        <time>2023-07-30T10:15:36.000Z</time>
      </trkpt>
      <trkpt lat="43.72766" lon="7.0749">
        <ele>500.20001220703</ele>
        <time>2023-07-30T10:15:37.000Z</time>
      </trkpt>
      <trkpt lat="43.72766" lon="7.0749">
        <ele>500.20001220703</ele>
        <time>2023-07-30T10:15:38.000Z</time>
      </trkpt>
      <trkpt lat="43.72766" lon="7.0749">
        <ele>500.20001220703</ele>
        <time>2023-07-30T10:15:39.000Z</time>
      </trkpt>
      <trkpt lat="43.72766" lon="7.0749">
        <ele>500.20001220703</ele>
        <time>2023-07-30T10:15:40.000Z</time>
      </trkpt>
      <trkpt lat="43.72766" lon="7.0749">
        <ele>500.20001220703</ele>
        <time>2023-07-30T10:15:41.000Z</time>
      </trkpt>
      <trkpt lat="43.72766" lon="7.0749">
        <ele>500.20001220703</ele>
        <time>2023-07-30T10:15:42.000Z</time>
      </trkpt>
      <trkpt lat="43.72766" lon="7.0749">
        <ele>500.20001220703</ele>
        <time>2023-07-30T10:15:43.000Z</time>
      </trkpt>
      <trkpt lat="43.72766" lon="7.0749">
        <ele>500.20001220703</ele>
        <time>2023-07-30T10:15:44.000Z</time>
      </trkpt>
      <trkpt lat="43.72766" lon="7.0749">
        <ele>500.20001220703</ele>
        <time>2023-07-30T10:15:45.000Z</time>
      </trkpt>
      <trkpt lat="43.72766" lon="7.0749">
        <ele>500.20001220703</ele>
        <time>2023-07-30T10:15:46.000Z</time>
      </trkpt>
      <trkpt lat="43.72766" lon="7.0749">
        <ele>500.20001220703</ele>
        <time>2023-07-30T10:15:47.000Z</time>
      </trkpt>
      <trkpt lat="43.72766" lon="7.0749">
        <ele>500.39999389648</ele>
        <time>2023-07-30T10:15:48.000Z</time>
      </trkpt>
      <trkpt lat="43.72766" lon="7.0749">
        <ele>500.20001220703</ele>
        <time>2023-07-30T10:15:49.000Z</time>
      </trkpt>
      <trkpt lat="43.72766" lon="7.0749">
        <ele>500.39999389648</ele>
        <time>2023-07-30T10:15:50.000Z</time>
      </trkpt>
      <trkpt lat="43.72766" lon="7.0749">
        <ele>500.39999389648</ele>
        <time>2023-07-30T10:15:51.000Z</time>
      </trkpt>
      <trkpt lat="43.72766" lon="7.0749">
        <ele>500.39999389648</ele>
        <time>2023-07-30T10:15:52.000Z</time>
      </trkpt>
      <trkpt lat="43.72766" lon="7.0749">
        <ele>500.39999389648</ele>
        <time>2023-07-30T10:15:53.000Z</time>
      </trkpt>
      <trkpt lat="43.72766" lon="7.0749">
        <ele>500.20001220703</ele>
        <time>2023-07-30T10:15:54.000Z</time>
      </trkpt>
      <trkpt lat="43.72766" lon="7.0749">
        <ele>500.20001220703</ele>
        <time>2023-07-30T10:15:55.000Z</time>
      </trkpt>
      <trkpt lat="43.72766" lon="7.0749">
        <ele>500.20001220703</ele>
        <time>2023-07-30T10:15:56.000Z</time>
      </trkpt>
      <trkpt lat="43.72766" lon="7.0749">
        <ele>500.20001220703</ele>
        <time>2023-07-30T10:15:57.000Z</time>
      </trkpt>
      <trkpt lat="43.72766" lon="7.0749">
        <ele>500.20001220703</ele>
        <time>2023-07-30T10:15:58.000Z</time>
      </trkpt>
      <trkpt lat="43.72766" lon="7.0749">
        <ele>500</ele>
        <time>2023-07-30T10:15:59.000Z</time>
      </trkpt>
      <trkpt lat="43.72766" lon="7.0749">
        <ele>500</ele>
        <time>2023-07-30T10:16:00.000Z</time>
      </trkpt>
      <trkpt lat="43.72766" lon="7.0749">
        <ele>500</ele>
        <time>2023-07-30T10:16:01.000Z</time>
      </trkpt>
      <trkpt lat="43.72766" lon="7.0749">
        <ele>500</ele>
        <time>2023-07-30T10:16:02.000Z</time>
      </trkpt>
      <trkpt lat="43.72766" lon="7.0749">
        <ele>500</ele>
        <time>2023-07-30T10:16:03.000Z</time>
      </trkpt>
      <trkpt lat="43.72766" lon="7.0749">
        <ele>500</ele>
        <time>2023-07-30T10:16:04.000Z</time>
      </trkpt>
      <trkpt lat="43.72766" lon="7.0749">
        <ele>500</ele>
        <time>2023-07-30T10:16:05.000Z</time>
      </trkpt>
      <trkpt lat="43.72766" lon="7.0749">
        <ele>500.39999389648</ele>
        <time>2023-07-30T10:16:06.000Z</time>
      </trkpt>
      <trkpt lat="43.72766" lon="7.0749">
        <ele>500.39999389648</ele>
        <time>2023-07-30T10:16:07.000Z</time>
      </trkpt>
      <trkpt lat="43.72766" lon="7.0749">
        <ele>500.39999389648</ele>
        <time>2023-07-30T10:16:08.000Z</time>
      </trkpt>
      <trkpt lat="43.72766" lon="7.0749">
        <ele>500.39999389648</ele>
        <time>2023-07-30T10:16:09.000Z</time>
      </trkpt>
      <trkpt lat="43.72766" lon="7.0749">
        <ele>499.79998779297</ele>
        <time>2023-07-30T10:16:10.000Z</time>
      </trkpt>
      <trkpt lat="43.72766" lon="7.0749">
        <ele>499.79998779297</ele>
        <time>2023-07-30T10:16:11.000Z</time>
      </trkpt>
      <trkpt lat="43.72766" lon="7.0749">
        <ele>499.79998779297</ele>
        <time>2023-07-30T10:16:12.000Z</time>
      </trkpt>
      <trkpt lat="43.72766" lon="7.0749">
        <ele>499.79998779297</ele>
        <time>2023-07-30T10:16:13.000Z</time>
      </trkpt>
      <trkpt lat="43.72766" lon="7.0749">
        <ele>500</ele>
        <time>2023-07-30T10:16:14.000Z</time>
      </trkpt>
      <trkpt lat="43.72766" lon="7.0749">
        <ele>500</ele>
        <time>2023-07-30T10:16:15.000Z</time>
      </trkpt>
      <trkpt lat="43.72766" lon="7.0749">
        <ele>500</ele>
        <time>2023-07-30T10:16:16.000Z</time>
      </trkpt>
      <trkpt lat="43.72766" lon="7.0749">
        <ele>500</ele>
        <time>2023-07-30T10:16:17.000Z</time>
      </trkpt>
      <trkpt lat="43.72766" lon="7.0749">
        <ele>500</ele>
        <time>2023-07-30T10:16:18.000Z</time>
      </trkpt>
      <trkpt lat="43.72766" lon="7.0749">
        <ele>500</ele>
        <time>2023-07-30T10:16:19.000Z</time>
      </trkpt>
      <trkpt lat="43.72766" lon="7.0749">
        <ele>500</ele>
        <time>2023-07-30T10:16:20.000Z</time>
      </trkpt>
      <trkpt lat="43.72766" lon="7.0749">
        <ele>500</ele>
        <time>2023-07-30T10:16:21.000Z</time>
      </trkpt>
      <trkpt lat="43.72766" lon="7.0749">
        <ele>500</ele>
        <time>2023-07-30T10:16:22.000Z</time>
      </trkpt>
      <trkpt lat="43.72766" lon="7.0749">
        <ele>500</ele>
        <time>2023-07-30T10:16:23.000Z</time>
      </trkpt>
      <trkpt lat="43.72766" lon="7.0749">
        <ele>500</ele>
        <time>2023-07-30T10:16:24.000Z</time>
      </trkpt>
      <trkpt lat="43.72766" lon="7.0749">
        <ele>500</ele>
        <time>2023-07-30T10:16:25.000Z</time>
      </trkpt>
      <trkpt lat="43.72766" lon="7.0749">
        <ele>500</ele>
        <time>2023-07-30T10:16:26.000Z</time>
      </trkpt>
      <trkpt lat="43.72766" lon="7.0749">
        <ele>500</ele>
        <time>2023-07-30T10:16:27.000Z</time>
      </trkpt>
      <trkpt lat="43.72766" lon="7.0749">
        <ele>500</ele>
        <time>2023-07-30T10:16:28.000Z</time>
      </trkpt>
      <trkpt lat="43.72766" lon="7.0749">
        <ele>500.20001220703</ele>
        <time>2023-07-30T10:16:29.000Z</time>
      </trkpt>
      <trkpt lat="43.72766" lon="7.0749">
        <ele>500</ele>
        <time>2023-07-30T10:16:30.000Z</time>
      </trkpt>
      <trkpt lat="43.72766" lon="7.0749">
        <ele>500.20001220703</ele>
        <time>2023-07-30T10:16:31.000Z</time>
      </trkpt>
      <trkpt lat="43.72766" lon="7.0749">
        <ele>500.20001220703</ele>
        <time>2023-07-30T10:16:32.000Z</time>
      </trkpt>
      <trkpt lat="43.72766" lon="7.0749">
        <ele>500.20001220703</ele>
        <time>2023-07-30T10:16:33.000Z</time>
      </trkpt>
      <trkpt lat="43.72767" lon="7.07489">
        <ele>500.20001220703</ele>
        <time>2023-07-30T10:16:34.000Z</time>
      </trkpt>
      <trkpt lat="43.72767" lon="7.07488">
        <ele>500.39999389648</ele>
        <time>2023-07-30T10:16:35.000Z</time>
      </trkpt>
      <trkpt lat="43.72768" lon="7.07487">
        <ele>500.39999389648</ele>
        <time>2023-07-30T10:16:36.000Z</time>
      </trkpt>
      <trkpt lat="43.72771" lon="7.07486">
        <ele>500.60000610352</ele>
        <time>2023-07-30T10:16:37.000Z</time>
      </trkpt>
      <trkpt lat="43.72774" lon="7.07484">
        <ele>500.60000610352</ele>
        <time>2023-07-30T10:16:38.000Z</time>
      </trkpt>
      <trkpt lat="43.72777" lon="7.07483">
        <ele>500.79998779297</ele>
        <time>2023-07-30T10:16:39.000Z</time>
      </trkpt>
      <trkpt lat="43.7278" lon="7.07482">
        <ele>500.79998779297</ele>
        <time>2023-07-30T10:16:40.000Z</time>
      </trkpt>
      <trkpt lat="43.72782" lon="7.07481">
        <ele>501</ele>
        <time>2023-07-30T10:16:41.000Z</time>
      </trkpt>
      <trkpt lat="43.72784" lon="7.07481">
        <ele>501.20001220703</ele>
        <time>2023-07-30T10:16:42.000Z</time>
      </trkpt>
      <trkpt lat="43.72786" lon="7.07483">
        <ele>501.39999389648</ele>
        <time>2023-07-30T10:16:43.000Z</time>
      </trkpt>
      <trkpt lat="43.72787" lon="7.07485">
        <ele>501.79998779297</ele>
        <time>2023-07-30T10:16:44.000Z</time>
      </trkpt>
      <trkpt lat="43.72788" lon="7.07487">
        <ele>502.20001220703</ele>
        <time>2023-07-30T10:16:45.000Z</time>
      </trkpt>
      <trkpt lat="43.72788" lon="7.07489">
        <ele>502.60000610352</ele>
        <time>2023-07-30T10:16:46.000Z</time>
      </trkpt>
      <trkpt lat="43.72788" lon="7.07492">
        <ele>502.60000610352</ele>
        <time>2023-07-30T10:16:47.000Z</time>
      </trkpt>
      <trkpt lat="43.72787" lon="7.07496">
        <ele>502.60000610352</ele>
        <time>2023-07-30T10:16:48.000Z</time>
      </trkpt>
      <trkpt lat="43.72786" lon="7.07499">
        <ele>502.79998779297</ele>
        <time>2023-07-30T10:16:49.000Z</time>
      </trkpt>
      <trkpt lat="43.72785" lon="7.07503">
        <ele>502.79998779297</ele>
        <time>2023-07-30T10:16:50.000Z</time>
      </trkpt>
      <trkpt lat="43.72785" lon="7.07508">
        <ele>503</ele>
        <time>2023-07-30T10:16:51.000Z</time>
      </trkpt>
      <trkpt lat="43.72784" lon="7.07512">
        <ele>503.39999389648</ele>
        <time>2023-07-30T10:16:52.000Z</time>
      </trkpt>
      <trkpt lat="43.72785" lon="7.07515">
        <ele>503.39999389648</ele>
        <time>2023-07-30T10:16:53.000Z</time>
      </trkpt>
      <trkpt lat="43.72785" lon="7.07519">
        <ele>503.39999389648</ele>
        <time>2023-07-30T10:16:54.000Z</time>
      </trkpt>
      <trkpt lat="43.72785" lon="7.07522">
        <ele>503.60000610352</ele>
        <time>2023-07-30T10:16:55.000Z</time>
      </trkpt>
      <trkpt lat="43.72786" lon="7.07525">
        <ele>503.60000610352</ele>
        <time>2023-07-30T10:16:56.000Z</time>
      </trkpt>
      <trkpt lat="43.72786" lon="7.07528">
        <ele>504</ele>
        <time>2023-07-30T10:16:57.000Z</time>
      </trkpt>
      <trkpt lat="43.72788" lon="7.0753">
        <ele>504.60000610352</ele>
        <time>2023-07-30T10:16:58.000Z</time>
      </trkpt>
      <trkpt lat="43.7279" lon="7.07532">
        <ele>504.79998779297</ele>
        <time>2023-07-30T10:16:59.000Z</time>
      </trkpt>
      <trkpt lat="43.72793" lon="7.07533">
        <ele>505</ele>
        <time>2023-07-30T10:17:00.000Z</time>
      </trkpt>
      <trkpt lat="43.72795" lon="7.07535">
        <ele>505.39999389648</ele>
        <time>2023-07-30T10:17:01.000Z</time>
      </trkpt>
      <trkpt lat="43.72797" lon="7.07538">
        <ele>506</ele>
        <time>2023-07-30T10:17:02.000Z</time>
      </trkpt>
      <trkpt lat="43.728" lon="7.0754">
        <ele>506.39999389648</ele>
        <time>2023-07-30T10:17:03.000Z</time>
      </trkpt>
      <trkpt lat="43.72802" lon="7.07542">
        <ele>506.79998779297</ele>
        <time>2023-07-30T10:17:04.000Z</time>
      </trkpt>
      <trkpt lat="43.72804" lon="7.07546">
        <ele>507</ele>
        <time>2023-07-30T10:17:05.000Z</time>
      </trkpt>
      <trkpt lat="43.72806" lon="7.07549">
        <ele>507.39999389648</ele>
        <time>2023-07-30T10:17:06.000Z</time>
      </trkpt>
      <trkpt lat="43.72808" lon="7.07551">
        <ele>507.60000610352</ele>
        <time>2023-07-30T10:17:07.000Z</time>
      </trkpt>
      <trkpt lat="43.72811" lon="7.07552">
        <ele>508.60000610352</ele>
        <time>2023-07-30T10:17:08.000Z</time>
      </trkpt>
      <trkpt lat="43.72814" lon="7.07554">
        <ele>508.79998779297</ele>
        <time>2023-07-30T10:17:09.000Z</time>
      </trkpt>
      <trkpt lat="43.72816" lon="7.07556">
        <ele>509</ele>
        <time>2023-07-30T10:17:10.000Z</time>
      </trkpt>
      <trkpt lat="43.72819" lon="7.07557">
        <ele>509.79998779297</ele>
        <time>2023-07-30T10:17:11.000Z</time>
      </trkpt>
      <trkpt lat="43.72822" lon="7.07558">
        <ele>510.20001220703</ele>
        <time>2023-07-30T10:17:12.000Z</time>
      </trkpt>
      <trkpt lat="43.72824" lon="7.0756">
        <ele>510.39999389648</ele>
        <time>2023-07-30T10:17:13.000Z</time>
      </trkpt>
      <trkpt lat="43.72826" lon="7.07563">
        <ele>511</ele>
        <time>2023-07-30T10:17:14.000Z</time>
      </trkpt>
      <trkpt lat="43.72828" lon="7.07565">
        <ele>511</ele>
        <time>2023-07-30T10:17:15.000Z</time>
      </trkpt>
      <trkpt lat="43.7283" lon="7.07568">
        <ele>511.79998779297</ele>
        <time>2023-07-30T10:17:16.000Z</time>
      </trkpt>
      <trkpt lat="43.72832" lon="7.0757">
        <ele>512.20001220703</ele>
        <time>2023-07-30T10:17:17.000Z</time>
      </trkpt>
      <trkpt lat="43.72834" lon="7.07573">
        <ele>512.79998779297</ele>
        <time>2023-07-30T10:17:18.000Z</time>
      </trkpt>
      <trkpt lat="43.72835" lon="7.07576">
        <ele>513.59997558594</ele>
        <time>2023-07-30T10:17:19.000Z</time>
      </trkpt>
      <trkpt lat="43.72836" lon="7.0758">
        <ele>513.59997558594</ele>
        <time>2023-07-30T10:17:20.000Z</time>
      </trkpt>
      <trkpt lat="43.72838" lon="7.07582">
        <ele>513.59997558594</ele>
        <time>2023-07-30T10:17:21.000Z</time>
      </trkpt>
      <trkpt lat="43.72839" lon="7.07584">
        <ele>514.20001220703</ele>
        <time>2023-07-30T10:17:22.000Z</time>
      </trkpt>
      <trkpt lat="43.72841" lon="7.07588">
        <ele>514.20001220703</ele>
        <time>2023-07-30T10:17:23.000Z</time>
      </trkpt>
      <trkpt lat="43.72842" lon="7.0759">
        <ele>514.20001220703</ele>
        <time>2023-07-30T10:17:24.000Z</time>
      </trkpt>
      <trkpt lat="43.72843" lon="7.07593">
        <ele>514.20001220703</ele>
        <time>2023-07-30T10:17:25.000Z</time>
      </trkpt>
      <trkpt lat="43.72845" lon="7.07595">
        <ele>514.79998779297</ele>
        <time>2023-07-30T10:17:26.000Z</time>
      </trkpt>
      <trkpt lat="43.72846" lon="7.07598">
        <ele>515.20001220703</ele>
        <time>2023-07-30T10:17:27.000Z</time>
      </trkpt>
      <trkpt lat="43.72847" lon="7.076">
        <ele>515.40002441406</ele>
        <time>2023-07-30T10:17:28.000Z</time>
      </trkpt>
      <trkpt lat="43.72847" lon="7.07602">
        <ele>516.40002441406</ele>
        <time>2023-07-30T10:17:29.000Z</time>
      </trkpt>
      <trkpt lat="43.72848" lon="7.07604">
        <ele>516.40002441406</ele>
        <time>2023-07-30T10:17:30.000Z</time>
      </trkpt>
      <trkpt lat="43.72849" lon="7.07607">
        <ele>516.79998779297</ele>
        <time>2023-07-30T10:17:31.000Z</time>
      </trkpt>
      <trkpt lat="43.7285" lon="7.07609">
        <ele>516.79998779297</ele>
        <time>2023-07-30T10:17:32.000Z</time>
      </trkpt>
      <trkpt lat="43.72851" lon="7.07612">
        <ele>516.79998779297</ele>
        <time>2023-07-30T10:17:33.000Z</time>
      </trkpt>
      <trkpt lat="43.72853" lon="7.07615">
        <ele>517</ele>
        <time>2023-07-30T10:17:34.000Z</time>
      </trkpt>
      <trkpt lat="43.72854" lon="7.07617">
        <ele>517</ele>
        <time>2023-07-30T10:17:35.000Z</time>
      </trkpt>
      <trkpt lat="43.72855" lon="7.0762">
        <ele>517.40002441406</ele>
        <time>2023-07-30T10:17:36.000Z</time>
      </trkpt>
      <trkpt lat="43.72855" lon="7.07623">
        <ele>517.79998779297</ele>
        <time>2023-07-30T10:17:37.000Z</time>
      </trkpt>
      <trkpt lat="43.72857" lon="7.07624">
        <ele>518</ele>
        <time>2023-07-30T10:17:38.000Z</time>
      </trkpt>
      <trkpt lat="43.72857" lon="7.07627">
        <ele>518.59997558594</ele>
        <time>2023-07-30T10:17:39.000Z</time>
      </trkpt>
      <trkpt lat="43.72858" lon="7.07629">
        <ele>518.59997558594</ele>
        <time>2023-07-30T10:17:40.000Z</time>
      </trkpt>
      <trkpt lat="43.72859" lon="7.07631">
        <ele>518.79998779297</ele>
        <time>2023-07-30T10:17:41.000Z</time>
      </trkpt>
      <trkpt lat="43.7286" lon="7.07634">
        <ele>519</ele>
        <time>2023-07-30T10:17:42.000Z</time>
      </trkpt>
      <trkpt lat="43.72861" lon="7.07637">
        <ele>519</ele>
        <time>2023-07-30T10:17:43.000Z</time>
      </trkpt>
      <trkpt lat="43.72863" lon="7.0764">
        <ele>519.40002441406</ele>
        <time>2023-07-30T10:17:44.000Z</time>
      </trkpt>
      <trkpt lat="43.72864" lon="7.07642">
        <ele>519.59997558594</ele>
        <time>2023-07-30T10:17:45.000Z</time>
      </trkpt>
      <trkpt lat="43.72865" lon="7.07644">
        <ele>520</ele>
        <time>2023-07-30T10:17:46.000Z</time>
      </trkpt>
      <trkpt lat="43.72867" lon="7.07647">
        <ele>520.20001220703</ele>
        <time>2023-07-30T10:17:47.000Z</time>
      </trkpt>
      <trkpt lat="43.72869" lon="7.07649">
        <ele>520.40002441406</ele>
        <time>2023-07-30T10:17:48.000Z</time>
      </trkpt>
      <trkpt lat="43.72871" lon="7.07651">
        <ele>520.59997558594</ele>
        <time>2023-07-30T10:17:49.000Z</time>
      </trkpt>
      <trkpt lat="43.72872" lon="7.07653">
        <ele>520.79998779297</ele>
        <time>2023-07-30T10:17:50.000Z</time>
      </trkpt>
      <trkpt lat="43.72874" lon="7.07655">
        <ele>521</ele>
        <time>2023-07-30T10:17:51.000Z</time>
      </trkpt>
      <trkpt lat="43.72877" lon="7.07656">
        <ele>521.40002441406</ele>
        <time>2023-07-30T10:17:52.000Z</time>
      </trkpt>
      <trkpt lat="43.72879" lon="7.07658">
        <ele>521.40002441406</ele>
        <time>2023-07-30T10:17:53.000Z</time>
      </trkpt>
      <trkpt lat="43.7288" lon="7.07659">
        <ele>521.59997558594</ele>
        <time>2023-07-30T10:17:54.000Z</time>
      </trkpt>
      <trkpt lat="43.72882" lon="7.07661">
        <ele>521.59997558594</ele>
        <time>2023-07-30T10:17:55.000Z</time>
      </trkpt>
      <trkpt lat="43.72883" lon="7.07663">
        <ele>521.79998779297</ele>
        <time>2023-07-30T10:17:56.000Z</time>
      </trkpt>
      <trkpt lat="43.72885" lon="7.07664">
        <ele>522</ele>
        <time>2023-07-30T10:17:57.000Z</time>
      </trkpt>
      <trkpt lat="43.72887" lon="7.07667">
        <ele>522.20001220703</ele>
        <time>2023-07-30T10:17:58.000Z</time>
      </trkpt>
      <trkpt lat="43.72888" lon="7.07669">
        <ele>522.40002441406</ele>
        <time>2023-07-30T10:17:59.000Z</time>
      </trkpt>
      <trkpt lat="43.72888" lon="7.07672">
        <ele>522.59997558594</ele>
        <time>2023-07-30T10:18:00.000Z</time>
      </trkpt>
      <trkpt lat="43.72889" lon="7.07675">
        <ele>522.59997558594</ele>
        <time>2023-07-30T10:18:01.000Z</time>
      </trkpt>
      <trkpt lat="43.7289" lon="7.07678">
        <ele>522.59997558594</ele>
        <time>2023-07-30T10:18:02.000Z</time>
      </trkpt>
      <trkpt lat="43.72892" lon="7.07682">
        <ele>522.59997558594</ele>
        <time>2023-07-30T10:18:03.000Z</time>
      </trkpt>
      <trkpt lat="43.72893" lon="7.07685">
        <ele>522.79998779297</ele>
        <time>2023-07-30T10:18:04.000Z</time>
      </trkpt>
      <trkpt lat="43.72895" lon="7.07688">
        <ele>522.79998779297</ele>
        <time>2023-07-30T10:18:05.000Z</time>
      </trkpt>
      <trkpt lat="43.72897" lon="7.07692">
        <ele>523</ele>
        <time>2023-07-30T10:18:06.000Z</time>
      </trkpt>
      <trkpt lat="43.72898" lon="7.07696">
        <ele>523</ele>
        <time>2023-07-30T10:18:07.000Z</time>
      </trkpt>
      <trkpt lat="43.72899" lon="7.07699">
        <ele>523</ele>
        <time>2023-07-30T10:18:08.000Z</time>
      </trkpt>
      <trkpt lat="43.72899" lon="7.07702">
        <ele>523.20001220703</ele>
        <time>2023-07-30T10:18:09.000Z</time>
      </trkpt>
      <trkpt lat="43.729" lon="7.07706">
        <ele>523.20001220703</ele>
        <time>2023-07-30T10:18:10.000Z</time>
      </trkpt>
      <trkpt lat="43.72901" lon="7.07709">
        <ele>523.20001220703</ele>
        <time>2023-07-30T10:18:11.000Z</time>
      </trkpt>
      <trkpt lat="43.72901" lon="7.07713">
        <ele>523.20001220703</ele>
        <time>2023-07-30T10:18:12.000Z</time>
      </trkpt>
      <trkpt lat="43.72902" lon="7.07717">
        <ele>523.20001220703</ele>
        <time>2023-07-30T10:18:13.000Z</time>
      </trkpt>
      <trkpt lat="43.72903" lon="7.07721">
        <ele>523.20001220703</ele>
        <time>2023-07-30T10:18:14.000Z</time>
      </trkpt>
      <trkpt lat="43.72903" lon="7.07725">
        <ele>523.20001220703</ele>
        <time>2023-07-30T10:18:15.000Z</time>
      </trkpt>
      <trkpt lat="43.72904" lon="7.07729">
        <ele>523.20001220703</ele>
        <time>2023-07-30T10:18:16.000Z</time>
      </trkpt>
      <trkpt lat="43.72904" lon="7.07733">
        <ele>523.20001220703</ele>
        <time>2023-07-30T10:18:17.000Z</time>
      </trkpt>
      <trkpt lat="43.72906" lon="7.07737">
        <ele>523.40002441406</ele>
        <time>2023-07-30T10:18:18.000Z</time>
      </trkpt>
      <trkpt lat="43.72907" lon="7.0774">
        <ele>523.59997558594</ele>
        <time>2023-07-30T10:18:19.000Z</time>
      </trkpt>
      <trkpt lat="43.72908" lon="7.07744">
        <ele>523.59997558594</ele>
        <time>2023-07-30T10:18:20.000Z</time>
      </trkpt>
      <trkpt lat="43.7291" lon="7.07748">
        <ele>523.59997558594</ele>
        <time>2023-07-30T10:18:21.000Z</time>
      </trkpt>
      <trkpt lat="43.72911" lon="7.07752">
        <ele>523.59997558594</ele>
        <time>2023-07-30T10:18:22.000Z</time>
      </trkpt>
      <trkpt lat="43.72913" lon="7.07756">
        <ele>523.59997558594</ele>
        <time>2023-07-30T10:18:23.000Z</time>
      </trkpt>
      <trkpt lat="43.72915" lon="7.07759">
        <ele>523.59997558594</ele>
        <time>2023-07-30T10:18:24.000Z</time>
      </trkpt>
      <trkpt lat="43.72916" lon="7.07763">
        <ele>523.59997558594</ele>
        <time>2023-07-30T10:18:25.000Z</time>
      </trkpt>
      <trkpt lat="43.72918" lon="7.07765">
        <ele>523.59997558594</ele>
        <time>2023-07-30T10:18:26.000Z</time>
      </trkpt>
      <trkpt lat="43.7292" lon="7.07768">
        <ele>523.79998779297</ele>
        <time>2023-07-30T10:18:27.000Z</time>
      </trkpt>
      <trkpt lat="43.72922" lon="7.07771">
        <ele>523.79998779297</ele>
        <time>2023-07-30T10:18:28.000Z</time>
      </trkpt>
      <trkpt lat="43.72924" lon="7.07773">
        <ele>524.40002441406</ele>
        <time>2023-07-30T10:18:29.000Z</time>
      </trkpt>
      <trkpt lat="43.72926" lon="7.07776">
        <ele>524.40002441406</ele>
        <time>2023-07-30T10:18:30.000Z</time>
      </trkpt>
      <trkpt lat="43.72928" lon="7.07779">
        <ele>524.40002441406</ele>
        <time>2023-07-30T10:18:31.000Z</time>
      </trkpt>
      <trkpt lat="43.72929" lon="7.07783">
        <ele>524.59997558594</ele>
        <time>2023-07-30T10:18:32.000Z</time>
      </trkpt>
      <trkpt lat="43.72931" lon="7.07786">
        <ele>524.59997558594</ele>
        <time>2023-07-30T10:18:33.000Z</time>
      </trkpt>
      <trkpt lat="43.72933" lon="7.0779">
        <ele>524.59997558594</ele>
        <time>2023-07-30T10:18:34.000Z</time>
      </trkpt>
      <trkpt lat="43.72934" lon="7.07793">
        <ele>524.59997558594</ele>
        <time>2023-07-30T10:18:35.000Z</time>
      </trkpt>
      <trkpt lat="43.72935" lon="7.07795">
        <ele>524.59997558594</ele>
        <time>2023-07-30T10:18:36.000Z</time>
      </trkpt>
      <trkpt lat="43.72936" lon="7.07798">
        <ele>524.59997558594</ele>
        <time>2023-07-30T10:18:37.000Z</time>
      </trkpt>
      <trkpt lat="43.72936" lon="7.07803">
        <ele>524.59997558594</ele>
        <time>2023-07-30T10:18:38.000Z</time>
      </trkpt>
      <trkpt lat="43.72937" lon="7.07807">
        <ele>524.79998779297</ele>
        <time>2023-07-30T10:18:39.000Z</time>
      </trkpt>
      <trkpt lat="43.72937" lon="7.07811">
        <ele>524.79998779297</ele>
        <time>2023-07-30T10:18:40.000Z</time>
      </trkpt>
      <trkpt lat="43.72938" lon="7.07814">
        <ele>524.59997558594</ele>
        <time>2023-07-30T10:18:41.000Z</time>
      </trkpt>
      <trkpt lat="43.72938" lon="7.07815">
        <ele>524.40002441406</ele>
        <time>2023-07-30T10:18:42.000Z</time>
      </trkpt>
      <trkpt lat="43.72938" lon="7.07817">
        <ele>524.40002441406</ele>
        <time>2023-07-30T10:18:43.000Z</time>
      </trkpt>
      <trkpt lat="43.72939" lon="7.07818">
        <ele>524.40002441406</ele>
        <time>2023-07-30T10:18:44.000Z</time>
      </trkpt>
      <trkpt lat="43.72939" lon="7.07819">
        <ele>524.20001220703</ele>
        <time>2023-07-30T10:18:45.000Z</time>
      </trkpt>
      <trkpt lat="43.72939" lon="7.0782">
        <ele>524</ele>
        <time>2023-07-30T10:18:46.000Z</time>
      </trkpt>
      <trkpt lat="43.72939" lon="7.07821">
        <ele>524</ele>
        <time>2023-07-30T10:18:47.000Z</time>
      </trkpt>
      <trkpt lat="43.72939" lon="7.07821">
        <ele>524</ele>
        <time>2023-07-30T10:18:48.000Z</time>
      </trkpt>
      <trkpt lat="43.72939" lon="7.07821">
        <ele>523.79998779297</ele>
        <time>2023-07-30T10:18:49.000Z</time>
      </trkpt>
      <trkpt lat="43.72939" lon="7.07821">
        <ele>523.79998779297</ele>
        <time>2023-07-30T10:18:50.000Z</time>
      </trkpt>
      <trkpt lat="43.72939" lon="7.07821">
        <ele>523.79998779297</ele>
        <time>2023-07-30T10:18:51.000Z</time>
      </trkpt>
      <trkpt lat="43.72939" lon="7.07821">
        <ele>523.79998779297</ele>
        <time>2023-07-30T10:18:52.000Z</time>
      </trkpt>
      <trkpt lat="43.72939" lon="7.07821">
        <ele>523.79998779297</ele>
        <time>2023-07-30T10:18:53.000Z</time>
      </trkpt>
      <trkpt lat="43.7294" lon="7.07822">
        <ele>523.79998779297</ele>
        <time>2023-07-30T10:18:54.000Z</time>
      </trkpt>
      <trkpt lat="43.7294" lon="7.07822">
        <ele>523.79998779297</ele>
        <time>2023-07-30T10:18:55.000Z</time>
      </trkpt>
      <trkpt lat="43.7294" lon="7.07822">
        <ele>523.79998779297</ele>
        <time>2023-07-30T10:18:56.000Z</time>
      </trkpt>
      <trkpt lat="43.7294" lon="7.07822">
        <ele>523.79998779297</ele>
        <time>2023-07-30T10:18:57.000Z</time>
      </trkpt>
      <trkpt lat="43.7294" lon="7.07822">
        <ele>523.79998779297</ele>
        <time>2023-07-30T10:18:58.000Z</time>
      </trkpt>
      <trkpt lat="43.7294" lon="7.07822">
        <ele>523.79998779297</ele>
        <time>2023-07-30T10:18:59.000Z</time>
      </trkpt>
      <trkpt lat="43.7294" lon="7.07822">
        <ele>523.79998779297</ele>
        <time>2023-07-30T10:19:00.000Z</time>
      </trkpt>
      <trkpt lat="43.72941" lon="7.07823">
        <ele>523.79998779297</ele>
        <time>2023-07-30T10:19:01.000Z</time>
      </trkpt>
      <trkpt lat="43.72942" lon="7.07825">
        <ele>523.79998779297</ele>
        <time>2023-07-30T10:19:02.000Z</time>
      </trkpt>
      <trkpt lat="43.72943" lon="7.07828">
        <ele>523.79998779297</ele>
        <time>2023-07-30T10:19:03.000Z</time>
      </trkpt>
      <trkpt lat="43.72944" lon="7.07829">
        <ele>523.59997558594</ele>
        <time>2023-07-30T10:19:04.000Z</time>
      </trkpt>
      <trkpt lat="43.72946" lon="7.07832">
        <ele>523.59997558594</ele>
        <time>2023-07-30T10:19:05.000Z</time>
      </trkpt>
      <trkpt lat="43.72947" lon="7.07836">
        <ele>523.40002441406</ele>
        <time>2023-07-30T10:19:06.000Z</time>
      </trkpt>
      <trkpt lat="43.72949" lon="7.0784">
        <ele>523.40002441406</ele>
        <time>2023-07-30T10:19:07.000Z</time>
      </trkpt>
      <trkpt lat="43.7295" lon="7.07842">
        <ele>523.40002441406</ele>
        <time>2023-07-30T10:19:08.000Z</time>
      </trkpt>
      <trkpt lat="43.7295" lon="7.07844">
        <ele>523.20001220703</ele>
        <time>2023-07-30T10:19:09.000Z</time>
      </trkpt>
      <trkpt lat="43.7295" lon="7.07846">
        <ele>522.59997558594</ele>
        <time>2023-07-30T10:19:10.000Z</time>
      </trkpt>
      <trkpt lat="43.7295" lon="7.07847">
        <ele>522.40002441406</ele>
        <time>2023-07-30T10:19:11.000Z</time>
      </trkpt>
      <trkpt lat="43.7295" lon="7.07847">
        <ele>522.40002441406</ele>
        <time>2023-07-30T10:19:12.000Z</time>
      </trkpt>
      <trkpt lat="43.7295" lon="7.07846">
        <ele>522.20001220703</ele>
        <time>2023-07-30T10:19:13.000Z</time>
      </trkpt>
      <trkpt lat="43.7295" lon="7.07846">
        <ele>522.20001220703</ele>
        <time>2023-07-30T10:19:14.000Z</time>
      </trkpt>
      <trkpt lat="43.7295" lon="7.07846">
        <ele>522.20001220703</ele>
        <time>2023-07-30T10:19:15.000Z</time>
      </trkpt>
      <trkpt lat="43.7295" lon="7.07846">
        <ele>522</ele>
        <time>2023-07-30T10:19:16.000Z</time>
      </trkpt>
      <trkpt lat="43.7295" lon="7.07846">
        <ele>522</ele>
        <time>2023-07-30T10:19:17.000Z</time>
      </trkpt>
      <trkpt lat="43.7295" lon="7.07846">
        <ele>522</ele>
        <time>2023-07-30T10:19:18.000Z</time>
      </trkpt>
      <trkpt lat="43.7295" lon="7.07846">
        <ele>522</ele>
        <time>2023-07-30T10:19:19.000Z</time>
      </trkpt>
      <trkpt lat="43.7295" lon="7.07847">
        <ele>522</ele>
        <time>2023-07-30T10:19:20.000Z</time>
      </trkpt>
      <trkpt lat="43.7295" lon="7.07848">
        <ele>522</ele>
        <time>2023-07-30T10:19:21.000Z</time>
      </trkpt>
      <trkpt lat="43.7295" lon="7.0785">
        <ele>522</ele>
        <time>2023-07-30T10:19:22.000Z</time>
      </trkpt>
      <trkpt lat="43.72949" lon="7.07853">
        <ele>522</ele>
        <time>2023-07-30T10:19:23.000Z</time>
      </trkpt>
      <trkpt lat="43.72948" lon="7.07856">
        <ele>522</ele>
        <time>2023-07-30T10:19:24.000Z</time>
      </trkpt>
      <trkpt lat="43.72946" lon="7.07859">
        <ele>522</ele>
        <time>2023-07-30T10:19:25.000Z</time>
      </trkpt>
      <trkpt lat="43.72946" lon="7.07863">
        <ele>521.79998779297</ele>
        <time>2023-07-30T10:19:26.000Z</time>
      </trkpt>
      <trkpt lat="43.72947" lon="7.07868">
        <ele>521.79998779297</ele>
        <time>2023-07-30T10:19:27.000Z</time>
      </trkpt>
      <trkpt lat="43.72947" lon="7.07872">
        <ele>521.20001220703</ele>
        <time>2023-07-30T10:19:28.000Z</time>
      </trkpt>
      <trkpt lat="43.72947" lon="7.07874">
        <ele>521</ele>
        <time>2023-07-30T10:19:29.000Z</time>
      </trkpt>
      <trkpt lat="43.72948" lon="7.07877">
        <ele>520.59997558594</ele>
        <time>2023-07-30T10:19:30.000Z</time>
      </trkpt>
      <trkpt lat="43.72949" lon="7.0788">
        <ele>519.59997558594</ele>
        <time>2023-07-30T10:19:31.000Z</time>
      </trkpt>
      <trkpt lat="43.72951" lon="7.07883">
        <ele>519.40002441406</ele>
        <time>2023-07-30T10:19:32.000Z</time>
      </trkpt>
      <trkpt lat="43.72954" lon="7.07887">
        <ele>519.20001220703</ele>
        <time>2023-07-30T10:19:33.000Z</time>
      </trkpt>
      <trkpt lat="43.72955" lon="7.07891">
        <ele>518.40002441406</ele>
        <time>2023-07-30T10:19:34.000Z</time>
      </trkpt>
      <trkpt lat="43.72956" lon="7.07897">
        <ele>518</ele>
        <time>2023-07-30T10:19:35.000Z</time>
      </trkpt>
      <trkpt lat="43.72956" lon="7.07904">
        <ele>518</ele>
        <time>2023-07-30T10:19:36.000Z</time>
      </trkpt>
      <trkpt lat="43.72957" lon="7.07911">
        <ele>516.79998779297</ele>
        <time>2023-07-30T10:19:37.000Z</time>
      </trkpt>
      <trkpt lat="43.72958" lon="7.07918">
        <ele>516.40002441406</ele>
        <time>2023-07-30T10:19:38.000Z</time>
      </trkpt>
      <trkpt lat="43.7296" lon="7.07924">
        <ele>515.59997558594</ele>
        <time>2023-07-30T10:19:39.000Z</time>
      </trkpt>
      <trkpt lat="43.72962" lon="7.07933">
        <ele>515.40002441406</ele>
        <time>2023-07-30T10:19:40.000Z</time>
      </trkpt>
      <trkpt lat="43.72965" lon="7.07941">
        <ele>514.59997558594</ele>
        <time>2023-07-30T10:19:41.000Z</time>
      </trkpt>
      <trkpt lat="43.72969" lon="7.07949">
        <ele>513.20001220703</ele>
        <time>2023-07-30T10:19:42.000Z</time>
      </trkpt>
      <trkpt lat="43.72971" lon="7.07956">
        <ele>512</ele>
        <time>2023-07-30T10:19:43.000Z</time>
      </trkpt>
      <trkpt lat="43.72973" lon="7.07962">
        <ele>510.79998779297</ele>
        <time>2023-07-30T10:19:44.000Z</time>
      </trkpt>
      <trkpt lat="43.72974" lon="7.07967">
        <ele>510.60000610352</ele>
        <time>2023-07-30T10:19:45.000Z</time>
      </trkpt>
      <trkpt lat="43.72974" lon="7.0797">
        <ele>509.79998779297</ele>
        <time>2023-07-30T10:19:46.000Z</time>
      </trkpt>
      <trkpt lat="43.72974" lon="7.07972">
        <ele>509</ele>
        <time>2023-07-30T10:19:47.000Z</time>
      </trkpt>
      <trkpt lat="43.72974" lon="7.07972">
        <ele>509</ele>
        <time>2023-07-30T10:19:48.000Z</time>
      </trkpt>
      <trkpt lat="43.72975" lon="7.07972">
        <ele>508.39999389648</ele>
        <time>2023-07-30T10:19:49.000Z</time>
      </trkpt>
      <trkpt lat="43.72975" lon="7.07972">
        <ele>508</ele>
        <time>2023-07-30T10:19:50.000Z</time>
      </trkpt>
      <trkpt lat="43.72975" lon="7.07973">
        <ele>507.79998779297</ele>
        <time>2023-07-30T10:19:51.000Z</time>
      </trkpt>
      <trkpt lat="43.72975" lon="7.07973">
        <ele>507.60000610352</ele>
        <time>2023-07-30T10:19:52.000Z</time>
      </trkpt>
      <trkpt lat="43.72975" lon="7.07975">
        <ele>507.60000610352</ele>
        <time>2023-07-30T10:19:53.000Z</time>
      </trkpt>
      <trkpt lat="43.72976" lon="7.07978">
        <ele>507.60000610352</ele>
        <time>2023-07-30T10:19:54.000Z</time>
      </trkpt>
      <trkpt lat="43.72976" lon="7.07982">
        <ele>507.60000610352</ele>
        <time>2023-07-30T10:19:55.000Z</time>
      </trkpt>
      <trkpt lat="43.72976" lon="7.07986">
        <ele>507.60000610352</ele>
        <time>2023-07-30T10:19:56.000Z</time>
      </trkpt>
      <trkpt lat="43.72975" lon="7.07991">
        <ele>507.39999389648</ele>
        <time>2023-07-30T10:19:57.000Z</time>
      </trkpt>
      <trkpt lat="43.72974" lon="7.07994">
        <ele>506.60000610352</ele>
        <time>2023-07-30T10:19:58.000Z</time>
      </trkpt>
      <trkpt lat="43.72972" lon="7.07998">
        <ele>506.20001220703</ele>
        <time>2023-07-30T10:19:59.000Z</time>
      </trkpt>
      <trkpt lat="43.72971" lon="7.08001">
        <ele>505.60000610352</ele>
        <time>2023-07-30T10:20:00.000Z</time>
      </trkpt>
      <trkpt lat="43.72968" lon="7.08003">
        <ele>505</ele>
        <time>2023-07-30T10:20:01.000Z</time>
      </trkpt>
      <trkpt lat="43.72966" lon="7.08006">
        <ele>504.39999389648</ele>
        <time>2023-07-30T10:20:02.000Z</time>
      </trkpt>
      <trkpt lat="43.72963" lon="7.08009">
        <ele>504.20001220703</ele>
        <time>2023-07-30T10:20:03.000Z</time>
      </trkpt>
      <trkpt lat="43.7296" lon="7.0801">
        <ele>503.39999389648</ele>
        <time>2023-07-30T10:20:04.000Z</time>
      </trkpt>
      <trkpt lat="43.72957" lon="7.08009">
        <ele>502.79998779297</ele>
        <time>2023-07-30T10:20:05.000Z</time>
      </trkpt>
      <trkpt lat="43.72953" lon="7.08008">
        <ele>501.39999389648</ele>
        <time>2023-07-30T10:20:06.000Z</time>
      </trkpt>
      <trkpt lat="43.72949" lon="7.08006">
        <ele>501.20001220703</ele>
        <time>2023-07-30T10:20:07.000Z</time>
      </trkpt>
      <trkpt lat="43.72945" lon="7.08005">
        <ele>499.79998779297</ele>
        <time>2023-07-30T10:20:08.000Z</time>
      </trkpt>
      <trkpt lat="43.72941" lon="7.08002">
        <ele>499.60000610352</ele>
        <time>2023-07-30T10:20:09.000Z</time>
      </trkpt>
      <trkpt lat="43.72937" lon="7.07999">
        <ele>498.60000610352</ele>
        <time>2023-07-30T10:20:10.000Z</time>
      </trkpt>
      <trkpt lat="43.72934" lon="7.07997">
        <ele>497.79998779297</ele>
        <time>2023-07-30T10:20:11.000Z</time>
      </trkpt>
      <trkpt lat="43.72933" lon="7.07999">
        <ele>497.60000610352</ele>
        <time>2023-07-30T10:20:12.000Z</time>
      </trkpt>
      <trkpt lat="43.72933" lon="7.07999">
        <ele>496.60000610352</ele>
        <time>2023-07-30T10:20:13.000Z</time>
      </trkpt>
      <trkpt lat="43.72934" lon="7.08">
        <ele>496.39999389648</ele>
        <time>2023-07-30T10:20:14.000Z</time>
      </trkpt>
      <trkpt lat="43.72934" lon="7.08">
        <ele>496.20001220703</ele>
        <time>2023-07-30T10:20:15.000Z</time>
      </trkpt>
      <trkpt lat="43.72934" lon="7.08">
        <ele>496.20001220703</ele>
        <time>2023-07-30T10:20:16.000Z</time>
      </trkpt>
      <trkpt lat="43.72934" lon="7.08">
        <ele>496.20001220703</ele>
        <time>2023-07-30T10:20:17.000Z</time>
      </trkpt>
      <trkpt lat="43.72934" lon="7.08">
        <ele>496</ele>
        <time>2023-07-30T10:20:18.000Z</time>
      </trkpt>
      <trkpt lat="43.72933" lon="7.08">
        <ele>495.79998779297</ele>
        <time>2023-07-30T10:20:19.000Z</time>
      </trkpt>
      <trkpt lat="43.72933" lon="7.08">
        <ele>495.60000610352</ele>
        <time>2023-07-30T10:20:20.000Z</time>
      </trkpt>
      <trkpt lat="43.72933" lon="7.08">
        <ele>495.60000610352</ele>
        <time>2023-07-30T10:20:21.000Z</time>
      </trkpt>
      <trkpt lat="43.72934" lon="7.08">
        <ele>495.60000610352</ele>
        <time>2023-07-30T10:20:22.000Z</time>
      </trkpt>
      <trkpt lat="43.72934" lon="7.07999">
        <ele>495.60000610352</ele>
        <time>2023-07-30T10:20:23.000Z</time>
      </trkpt>
      <trkpt lat="43.72934" lon="7.07999">
        <ele>495.60000610352</ele>
        <time>2023-07-30T10:20:24.000Z</time>
      </trkpt>
      <trkpt lat="43.72934" lon="7.07999">
        <ele>495.60000610352</ele>
        <time>2023-07-30T10:20:25.000Z</time>
      </trkpt>
      <trkpt lat="43.72934" lon="7.07999">
        <ele>495.39999389648</ele>
        <time>2023-07-30T10:20:26.000Z</time>
      </trkpt>
      <trkpt lat="43.72934" lon="7.07999">
        <ele>495.20001220703</ele>
        <time>2023-07-30T10:20:27.000Z</time>
      </trkpt>
      <trkpt lat="43.72934" lon="7.07999">
        <ele>495.20001220703</ele>
        <time>2023-07-30T10:20:28.000Z</time>
      </trkpt>
      <trkpt lat="43.72934" lon="7.07999">
        <ele>495.20001220703</ele>
        <time>2023-07-30T10:20:29.000Z</time>
      </trkpt>
      <trkpt lat="43.72934" lon="7.07999">
        <ele>495.20001220703</ele>
        <time>2023-07-30T10:20:30.000Z</time>
      </trkpt>
      <trkpt lat="43.72934" lon="7.07999">
        <ele>495.20001220703</ele>
        <time>2023-07-30T10:20:31.000Z</time>
      </trkpt>
      <trkpt lat="43.72934" lon="7.07999">
        <ele>495.20001220703</ele>
        <time>2023-07-30T10:20:32.000Z</time>
      </trkpt>
      <trkpt lat="43.72934" lon="7.07999">
        <ele>495</ele>
        <time>2023-07-30T10:20:33.000Z</time>
      </trkpt>
      <trkpt lat="43.72934" lon="7.07999">
        <ele>495</ele>
        <time>2023-07-30T10:20:34.000Z</time>
      </trkpt>
      <trkpt lat="43.72934" lon="7.07999">
        <ele>495</ele>
        <time>2023-07-30T10:20:35.000Z</time>
      </trkpt>
      <trkpt lat="43.72934" lon="7.07999">
        <ele>495</ele>
        <time>2023-07-30T10:20:36.000Z</time>
      </trkpt>
      <trkpt lat="43.72934" lon="7.07999">
        <ele>495</ele>
        <time>2023-07-30T10:20:37.000Z</time>
      </trkpt>
      <trkpt lat="43.72934" lon="7.07999">
        <ele>495</ele>
        <time>2023-07-30T10:20:38.000Z</time>
      </trkpt>
      <trkpt lat="43.72934" lon="7.07999">
        <ele>494.79998779297</ele>
        <time>2023-07-30T10:20:39.000Z</time>
      </trkpt>
      <trkpt lat="43.72934" lon="7.07999">
        <ele>494.79998779297</ele>
        <time>2023-07-30T10:20:40.000Z</time>
      </trkpt>
      <trkpt lat="43.72934" lon="7.07999">
        <ele>494.79998779297</ele>
        <time>2023-07-30T10:20:41.000Z</time>
      </trkpt>
      <trkpt lat="43.72934" lon="7.07999">
        <ele>494.79998779297</ele>
        <time>2023-07-30T10:20:42.000Z</time>
      </trkpt>
      <trkpt lat="43.72934" lon="7.07999">
        <ele>494.79998779297</ele>
        <time>2023-07-30T10:20:43.000Z</time>
      </trkpt>
      <trkpt lat="43.72935" lon="7.07999">
        <ele>494.79998779297</ele>
        <time>2023-07-30T10:20:44.000Z</time>
      </trkpt>
      <trkpt lat="43.72935" lon="7.07998">
        <ele>494.79998779297</ele>
        <time>2023-07-30T10:20:45.000Z</time>
      </trkpt>
      <trkpt lat="43.72935" lon="7.07998">
        <ele>494.79998779297</ele>
        <time>2023-07-30T10:20:46.000Z</time>
      </trkpt>
      <trkpt lat="43.72935" lon="7.07998">
        <ele>494.79998779297</ele>
        <time>2023-07-30T10:20:47.000Z</time>
      </trkpt>
      <trkpt lat="43.72935" lon="7.07998">
        <ele>494.60000610352</ele>
        <time>2023-07-30T10:20:48.000Z</time>
      </trkpt>
      <trkpt lat="43.72935" lon="7.07997">
        <ele>494.60000610352</ele>
        <time>2023-07-30T10:20:49.000Z</time>
      </trkpt>
      <trkpt lat="43.72935" lon="7.07996">
        <ele>494.60000610352</ele>
        <time>2023-07-30T10:20:50.000Z</time>
      </trkpt>
      <trkpt lat="43.72934" lon="7.07996">
        <ele>494.60000610352</ele>
        <time>2023-07-30T10:20:51.000Z</time>
      </trkpt>
      <trkpt lat="43.72934" lon="7.07995">
        <ele>494.60000610352</ele>
        <time>2023-07-30T10:20:52.000Z</time>
      </trkpt>
      <trkpt lat="43.72934" lon="7.07995">
        <ele>494.60000610352</ele>
        <time>2023-07-30T10:20:53.000Z</time>
      </trkpt>
      <trkpt lat="43.72933" lon="7.07994">
        <ele>494.79998779297</ele>
        <time>2023-07-30T10:20:54.000Z</time>
      </trkpt>
      <trkpt lat="43.72933" lon="7.07992">
        <ele>495</ele>
        <time>2023-07-30T10:20:55.000Z</time>
      </trkpt>
      <trkpt lat="43.72933" lon="7.0799">
        <ele>495.20001220703</ele>
        <time>2023-07-30T10:20:56.000Z</time>
      </trkpt>
      <trkpt lat="43.72934" lon="7.07989">
        <ele>495.20001220703</ele>
        <time>2023-07-30T10:20:57.000Z</time>
      </trkpt>
      <trkpt lat="43.72933" lon="7.07988">
        <ele>495.20001220703</ele>
        <time>2023-07-30T10:20:58.000Z</time>
      </trkpt>
      <trkpt lat="43.72933" lon="7.07987">
        <ele>495.39999389648</ele>
        <time>2023-07-30T10:20:59.000Z</time>
      </trkpt>
      <trkpt lat="43.72933" lon="7.07987">
        <ele>495.39999389648</ele>
        <time>2023-07-30T10:21:00.000Z</time>
      </trkpt>
      <trkpt lat="43.72933" lon="7.07987">
        <ele>495.60000610352</ele>
        <time>2023-07-30T10:21:01.000Z</time>
      </trkpt>
      <trkpt lat="43.72933" lon="7.07987">
        <ele>495.60000610352</ele>
        <time>2023-07-30T10:21:02.000Z</time>
      </trkpt>
      <trkpt lat="43.72933" lon="7.07987">
        <ele>495.60000610352</ele>
        <time>2023-07-30T10:21:03.000Z</time>
      </trkpt>
      <trkpt lat="43.72933" lon="7.07986">
        <ele>495.79998779297</ele>
        <time>2023-07-30T10:21:04.000Z</time>
      </trkpt>
      <trkpt lat="43.72933" lon="7.07987">
        <ele>495.79998779297</ele>
        <time>2023-07-30T10:21:05.000Z</time>
      </trkpt>
      <trkpt lat="43.72933" lon="7.07987">
        <ele>496</ele>
        <time>2023-07-30T10:21:06.000Z</time>
      </trkpt>
      <trkpt lat="43.72933" lon="7.07986">
        <ele>496.20001220703</ele>
        <time>2023-07-30T10:21:07.000Z</time>
      </trkpt>
      <trkpt lat="43.72933" lon="7.07986">
        <ele>496.20001220703</ele>
        <time>2023-07-30T10:21:08.000Z</time>
      </trkpt>
      <trkpt lat="43.72933" lon="7.07986">
        <ele>496.20001220703</ele>
        <time>2023-07-30T10:21:09.000Z</time>
      </trkpt>
      <trkpt lat="43.72933" lon="7.07986">
        <ele>496.20001220703</ele>
        <time>2023-07-30T10:21:10.000Z</time>
      </trkpt>
      <trkpt lat="43.72933" lon="7.07986">
        <ele>496.20001220703</ele>
        <time>2023-07-30T10:21:11.000Z</time>
      </trkpt>
      <trkpt lat="43.72933" lon="7.07986">
        <ele>496.20001220703</ele>
        <time>2023-07-30T10:21:12.000Z</time>
      </trkpt>
      <trkpt lat="43.72933" lon="7.07986">
        <ele>496.20001220703</ele>
        <time>2023-07-30T10:21:13.000Z</time>
      </trkpt>
      <trkpt lat="43.72933" lon="7.07986">
        <ele>496</ele>
        <time>2023-07-30T10:21:14.000Z</time>
      </trkpt>
      <trkpt lat="43.72932" lon="7.07986">
        <ele>496</ele>
        <time>2023-07-30T10:21:15.000Z</time>
      </trkpt>
      <trkpt lat="43.72932" lon="7.07986">
        <ele>496</ele>
        <time>2023-07-30T10:21:16.000Z</time>
      </trkpt>
      <trkpt lat="43.72932" lon="7.07986">
        <ele>496</ele>
        <time>2023-07-30T10:21:17.000Z</time>
      </trkpt>
      <trkpt lat="43.72932" lon="7.07987">
        <ele>496</ele>
        <time>2023-07-30T10:21:18.000Z</time>
      </trkpt>
      <trkpt lat="43.72932" lon="7.07988">
        <ele>496</ele>
        <time>2023-07-30T10:21:19.000Z</time>
      </trkpt>
      <trkpt lat="43.72932" lon="7.07987">
        <ele>496</ele>
        <time>2023-07-30T10:21:20.000Z</time>
      </trkpt>
      <trkpt lat="43.72933" lon="7.07988">
        <ele>496</ele>
        <time>2023-07-30T10:21:21.000Z</time>
      </trkpt>
      <trkpt lat="43.72933" lon="7.07989">
        <ele>496</ele>
        <time>2023-07-30T10:21:22.000Z</time>
      </trkpt>
      <trkpt lat="43.72932" lon="7.07991">
        <ele>496</ele>
        <time>2023-07-30T10:21:23.000Z</time>
      </trkpt>
      <trkpt lat="43.72932" lon="7.07994">
        <ele>496</ele>
        <time>2023-07-30T10:21:24.000Z</time>
      </trkpt>
      <trkpt lat="43.72933" lon="7.07996">
        <ele>496</ele>
        <time>2023-07-30T10:21:25.000Z</time>
      </trkpt>
      <trkpt lat="43.72934" lon="7.08">
        <ele>496</ele>
        <time>2023-07-30T10:21:26.000Z</time>
      </trkpt>
      <trkpt lat="43.72936" lon="7.08004">
        <ele>496</ele>
        <time>2023-07-30T10:21:27.000Z</time>
      </trkpt>
      <trkpt lat="43.72938" lon="7.08009">
        <ele>496</ele>
        <time>2023-07-30T10:21:28.000Z</time>
      </trkpt>
      <trkpt lat="43.72941" lon="7.08013">
        <ele>496</ele>
        <time>2023-07-30T10:21:29.000Z</time>
      </trkpt>
      <trkpt lat="43.72945" lon="7.08016">
        <ele>495.20001220703</ele>
        <time>2023-07-30T10:21:30.000Z</time>
      </trkpt>
      <trkpt lat="43.72948" lon="7.08019">
        <ele>494.39999389648</ele>
        <time>2023-07-30T10:21:31.000Z</time>
      </trkpt>
      <trkpt lat="43.72951" lon="7.08023">
        <ele>494.20001220703</ele>
        <time>2023-07-30T10:21:32.000Z</time>
      </trkpt>
      <trkpt lat="43.72954" lon="7.08027">
        <ele>493.39999389648</ele>
        <time>2023-07-30T10:21:33.000Z</time>
      </trkpt>
      <trkpt lat="43.72957" lon="7.0803">
        <ele>492.60000610352</ele>
        <time>2023-07-30T10:21:34.000Z</time>
      </trkpt>
      <trkpt lat="43.7296" lon="7.08034">
        <ele>492.20001220703</ele>
        <time>2023-07-30T10:21:35.000Z</time>
      </trkpt>
      <trkpt lat="43.72964" lon="7.08039">
        <ele>491</ele>
        <time>2023-07-30T10:21:36.000Z</time>
      </trkpt>
      <trkpt lat="43.72967" lon="7.08044">
        <ele>490.60000610352</ele>
        <time>2023-07-30T10:21:37.000Z</time>
      </trkpt>
      <trkpt lat="43.72968" lon="7.08049">
        <ele>489.20001220703</ele>
        <time>2023-07-30T10:21:38.000Z</time>
      </trkpt>
      <trkpt lat="43.72967" lon="7.08053">
        <ele>489.20001220703</ele>
        <time>2023-07-30T10:21:39.000Z</time>
      </trkpt>
      <trkpt lat="43.72966" lon="7.08054">
        <ele>488</ele>
        <time>2023-07-30T10:21:40.000Z</time>
      </trkpt>
      <trkpt lat="43.72964" lon="7.08054">
        <ele>487.39999389648</ele>
        <time>2023-07-30T10:21:41.000Z</time>
      </trkpt>
      <trkpt lat="43.72962" lon="7.08052">
        <ele>487.39999389648</ele>
        <time>2023-07-30T10:21:42.000Z</time>
      </trkpt>
      <trkpt lat="43.72959" lon="7.08049">
        <ele>487</ele>
        <time>2023-07-30T10:21:43.000Z</time>
      </trkpt>
      <trkpt lat="43.72956" lon="7.08046">
        <ele>486.60000610352</ele>
        <time>2023-07-30T10:21:44.000Z</time>
      </trkpt>
      <trkpt lat="43.72951" lon="7.08044">
        <ele>486.20001220703</ele>
        <time>2023-07-30T10:21:45.000Z</time>
      </trkpt>
      <trkpt lat="43.72947" lon="7.08043">
        <ele>485.60000610352</ele>
        <time>2023-07-30T10:21:46.000Z</time>
      </trkpt>
      <trkpt lat="43.72943" lon="7.08043">
        <ele>485.20001220703</ele>
        <time>2023-07-30T10:21:47.000Z</time>
      </trkpt>
      <trkpt lat="43.72938" lon="7.08043">
        <ele>484.60000610352</ele>
        <time>2023-07-30T10:21:48.000Z</time>
      </trkpt>
      <trkpt lat="43.72934" lon="7.08043">
        <ele>483.60000610352</ele>
        <time>2023-07-30T10:21:49.000Z</time>
      </trkpt>
      <trkpt lat="43.72931" lon="7.08042">
        <ele>483</ele>
        <time>2023-07-30T10:21:50.000Z</time>
      </trkpt>
      <trkpt lat="43.72927" lon="7.0804">
        <ele>483</ele>
        <time>2023-07-30T10:21:51.000Z</time>
      </trkpt>
      <trkpt lat="43.72924" lon="7.08038">
        <ele>482</ele>
        <time>2023-07-30T10:21:52.000Z</time>
      </trkpt>
      <trkpt lat="43.72922" lon="7.08035">
        <ele>481.60000610352</ele>
        <time>2023-07-30T10:21:53.000Z</time>
      </trkpt>
      <trkpt lat="43.7292" lon="7.08033">
        <ele>481.20001220703</ele>
        <time>2023-07-30T10:21:54.000Z</time>
      </trkpt>
      <trkpt lat="43.7292" lon="7.08034">
        <ele>480.79998779297</ele>
        <time>2023-07-30T10:21:55.000Z</time>
      </trkpt>
      <trkpt lat="43.7292" lon="7.08034">
        <ele>480.60000610352</ele>
        <time>2023-07-30T10:21:56.000Z</time>
      </trkpt>
      <trkpt lat="43.7292" lon="7.08034">
        <ele>480.39999389648</ele>
        <time>2023-07-30T10:21:57.000Z</time>
      </trkpt>
      <trkpt lat="43.72918" lon="7.08033">
        <ele>480.20001220703</ele>
        <time>2023-07-30T10:21:58.000Z</time>
      </trkpt>
      <trkpt lat="43.72917" lon="7.08031">
        <ele>480.20001220703</ele>
        <time>2023-07-30T10:21:59.000Z</time>
      </trkpt>
      <trkpt lat="43.72914" lon="7.0803">
        <ele>480</ele>
        <time>2023-07-30T10:22:00.000Z</time>
      </trkpt>
      <trkpt lat="43.72912" lon="7.08028">
        <ele>480</ele>
        <time>2023-07-30T10:22:01.000Z</time>
      </trkpt>
      <trkpt lat="43.72909" lon="7.08025">
        <ele>480</ele>
        <time>2023-07-30T10:22:02.000Z</time>
      </trkpt>
      <trkpt lat="43.72906" lon="7.08021">
        <ele>479.60000610352</ele>
        <time>2023-07-30T10:22:03.000Z</time>
      </trkpt>
      <trkpt lat="43.72902" lon="7.08017">
        <ele>479.39999389648</ele>
        <time>2023-07-30T10:22:04.000Z</time>
      </trkpt>
      <trkpt lat="43.72897" lon="7.08012">
        <ele>479</ele>
        <time>2023-07-30T10:22:05.000Z</time>
      </trkpt>
      <trkpt lat="43.72892" lon="7.08006">
        <ele>478.39999389648</ele>
        <time>2023-07-30T10:22:06.000Z</time>
      </trkpt>
      <trkpt lat="43.72887" lon="7.07999">
        <ele>478.39999389648</ele>
        <time>2023-07-30T10:22:07.000Z</time>
      </trkpt>
      <trkpt lat="43.72882" lon="7.07991">
        <ele>477.39999389648</ele>
        <time>2023-07-30T10:22:08.000Z</time>
      </trkpt>
      <trkpt lat="43.72876" lon="7.07983">
        <ele>477.20001220703</ele>
        <time>2023-07-30T10:22:09.000Z</time>
      </trkpt>
      <trkpt lat="43.72869" lon="7.07977">
        <ele>477.20001220703</ele>
        <time>2023-07-30T10:22:10.000Z</time>
      </trkpt>
      <trkpt lat="43.72861" lon="7.07972">
        <ele>476</ele>
        <time>2023-07-30T10:22:11.000Z</time>
      </trkpt>
      <trkpt lat="43.72853" lon="7.07969">
        <ele>475</ele>
        <time>2023-07-30T10:22:12.000Z</time>
      </trkpt>
      <trkpt lat="43.72844" lon="7.07968">
        <ele>474.60000610352</ele>
        <time>2023-07-30T10:22:13.000Z</time>
      </trkpt>
      <trkpt lat="43.72837" lon="7.07968">
        <ele>474</ele>
        <time>2023-07-30T10:22:14.000Z</time>
      </trkpt>
      <trkpt lat="43.72831" lon="7.07969">
        <ele>472.20001220703</ele>
        <time>2023-07-30T10:22:15.000Z</time>
      </trkpt>
      <trkpt lat="43.72824" lon="7.07972">
        <ele>471.39999389648</ele>
        <time>2023-07-30T10:22:16.000Z</time>
      </trkpt>
      <trkpt lat="43.72818" lon="7.07973">
        <ele>470.79998779297</ele>
        <time>2023-07-30T10:22:17.000Z</time>
      </trkpt>
      <trkpt lat="43.72812" lon="7.07976">
        <ele>469.60000610352</ele>
        <time>2023-07-30T10:22:18.000Z</time>
      </trkpt>
      <trkpt lat="43.72806" lon="7.07977">
        <ele>469</ele>
        <time>2023-07-30T10:22:19.000Z</time>
      </trkpt>
      <trkpt lat="43.72801" lon="7.07977">
        <ele>467.60000610352</ele>
        <time>2023-07-30T10:22:20.000Z</time>
      </trkpt>
      <trkpt lat="43.72795" lon="7.07978">
        <ele>467</ele>
        <time>2023-07-30T10:22:21.000Z</time>
      </trkpt>
      <trkpt lat="43.72788" lon="7.07979">
        <ele>466</ele>
        <time>2023-07-30T10:22:22.000Z</time>
      </trkpt>
      <trkpt lat="43.72781" lon="7.0798">
        <ele>464.79998779297</ele>
        <time>2023-07-30T10:22:23.000Z</time>
      </trkpt>
      <trkpt lat="43.72775" lon="7.0798">
        <ele>463.20001220703</ele>
        <time>2023-07-30T10:22:24.000Z</time>
      </trkpt>
      <trkpt lat="43.7277" lon="7.0798">
        <ele>462.79998779297</ele>
        <time>2023-07-30T10:22:25.000Z</time>
      </trkpt>
      <trkpt lat="43.72766" lon="7.07978">
        <ele>461.60000610352</ele>
        <time>2023-07-30T10:22:26.000Z</time>
      </trkpt>
      <trkpt lat="43.72763" lon="7.07977">
        <ele>461.39999389648</ele>
        <time>2023-07-30T10:22:27.000Z</time>
      </trkpt>
      <trkpt lat="43.7276" lon="7.07976">
        <ele>461.20001220703</ele>
        <time>2023-07-30T10:22:28.000Z</time>
      </trkpt>
      <trkpt lat="43.72758" lon="7.07975">
        <ele>460.79998779297</ele>
        <time>2023-07-30T10:22:29.000Z</time>
      </trkpt>
      <trkpt lat="43.72757" lon="7.07974">
        <ele>459.79998779297</ele>
        <time>2023-07-30T10:22:30.000Z</time>
      </trkpt>
      <trkpt lat="43.72756" lon="7.07972">
        <ele>459.60000610352</ele>
        <time>2023-07-30T10:22:31.000Z</time>
      </trkpt>
      <trkpt lat="43.72756" lon="7.07972">
        <ele>459.60000610352</ele>
        <time>2023-07-30T10:22:32.000Z</time>
      </trkpt>
      <trkpt lat="43.72756" lon="7.07973">
        <ele>459.20001220703</ele>
        <time>2023-07-30T10:22:33.000Z</time>
      </trkpt>
      <trkpt lat="43.72756" lon="7.07972">
        <ele>458.79998779297</ele>
        <time>2023-07-30T10:22:34.000Z</time>
      </trkpt>
      <trkpt lat="43.72756" lon="7.07973">
        <ele>458.60000610352</ele>
        <time>2023-07-30T10:22:35.000Z</time>
      </trkpt>
      <trkpt lat="43.72755" lon="7.07973">
        <ele>458.60000610352</ele>
        <time>2023-07-30T10:22:36.000Z</time>
      </trkpt>
      <trkpt lat="43.72755" lon="7.07973">
        <ele>458.39999389648</ele>
        <time>2023-07-30T10:22:37.000Z</time>
      </trkpt>
      <trkpt lat="43.72755" lon="7.07973">
        <ele>458.20001220703</ele>
        <time>2023-07-30T10:22:38.000Z</time>
      </trkpt>
      <trkpt lat="43.72755" lon="7.07973">
        <ele>458.20001220703</ele>
        <time>2023-07-30T10:22:39.000Z</time>
      </trkpt>
      <trkpt lat="43.72755" lon="7.07973">
        <ele>458.20001220703</ele>
        <time>2023-07-30T10:22:40.000Z</time>
      </trkpt>
      <trkpt lat="43.72755" lon="7.07973">
        <ele>458</ele>
        <time>2023-07-30T10:22:41.000Z</time>
      </trkpt>
      <trkpt lat="43.72756" lon="7.07973">
        <ele>458</ele>
        <time>2023-07-30T10:22:42.000Z</time>
      </trkpt>
      <trkpt lat="43.72755" lon="7.07972">
        <ele>458</ele>
        <time>2023-07-30T10:22:43.000Z</time>
      </trkpt>
      <trkpt lat="43.72755" lon="7.07971">
        <ele>458</ele>
        <time>2023-07-30T10:22:44.000Z</time>
      </trkpt>
      <trkpt lat="43.72754" lon="7.0797">
        <ele>457.79998779297</ele>
        <time>2023-07-30T10:22:45.000Z</time>
      </trkpt>
      <trkpt lat="43.72753" lon="7.07967">
        <ele>457.79998779297</ele>
        <time>2023-07-30T10:22:46.000Z</time>
      </trkpt>
      <trkpt lat="43.72751" lon="7.07964">
        <ele>457.79998779297</ele>
        <time>2023-07-30T10:22:47.000Z</time>
      </trkpt>
      <trkpt lat="43.72748" lon="7.0796">
        <ele>457.79998779297</ele>
        <time>2023-07-30T10:22:48.000Z</time>
      </trkpt>
      <trkpt lat="43.72745" lon="7.07955">
        <ele>457.60000610352</ele>
        <time>2023-07-30T10:22:49.000Z</time>
      </trkpt>
      <trkpt lat="43.72742" lon="7.07948">
        <ele>457.39999389648</ele>
        <time>2023-07-30T10:22:50.000Z</time>
      </trkpt>
      <trkpt lat="43.72739" lon="7.07942">
        <ele>457.39999389648</ele>
        <time>2023-07-30T10:22:51.000Z</time>
      </trkpt>
      <trkpt lat="43.72736" lon="7.07938">
        <ele>456.39999389648</ele>
        <time>2023-07-30T10:22:52.000Z</time>
      </trkpt>
      <trkpt lat="43.72733" lon="7.07937">
        <ele>456</ele>
        <time>2023-07-30T10:22:53.000Z</time>
      </trkpt>
      <trkpt lat="43.7273" lon="7.07938">
        <ele>455.20001220703</ele>
        <time>2023-07-30T10:22:54.000Z</time>
      </trkpt>
      <trkpt lat="43.72728" lon="7.07941">
        <ele>454.60000610352</ele>
        <time>2023-07-30T10:22:55.000Z</time>
      </trkpt>
      <trkpt lat="43.72727" lon="7.07946">
        <ele>453.79998779297</ele>
        <time>2023-07-30T10:22:56.000Z</time>
      </trkpt>
      <trkpt lat="43.72726" lon="7.07951">
        <ele>453</ele>
        <time>2023-07-30T10:22:57.000Z</time>
      </trkpt>
      <trkpt lat="43.72726" lon="7.07956">
        <ele>452.20001220703</ele>
        <time>2023-07-30T10:22:58.000Z</time>
      </trkpt>
      <trkpt lat="43.72725" lon="7.07963">
        <ele>451</ele>
        <time>2023-07-30T10:22:59.000Z</time>
      </trkpt>
      <trkpt lat="43.72725" lon="7.07971">
        <ele>450.39999389648</ele>
        <time>2023-07-30T10:23:00.000Z</time>
      </trkpt>
      <trkpt lat="43.72724" lon="7.07979">
        <ele>449.60000610352</ele>
        <time>2023-07-30T10:23:01.000Z</time>
      </trkpt>
      <trkpt lat="43.72722" lon="7.07988">
        <ele>448.60000610352</ele>
        <time>2023-07-30T10:23:02.000Z</time>
      </trkpt>
      <trkpt lat="43.72722" lon="7.07997">
        <ele>448.60000610352</ele>
        <time>2023-07-30T10:23:03.000Z</time>
      </trkpt>
      <trkpt lat="43.72721" lon="7.08006">
        <ele>447.39999389648</ele>
        <time>2023-07-30T10:23:04.000Z</time>
      </trkpt>
      <trkpt lat="43.72721" lon="7.08015">
        <ele>447</ele>
        <time>2023-07-30T10:23:05.000Z</time>
      </trkpt>
      <trkpt lat="43.72721" lon="7.08024">
        <ele>445.60000610352</ele>
        <time>2023-07-30T10:23:06.000Z</time>
      </trkpt>
      <trkpt lat="43.72721" lon="7.08032">
        <ele>444.39999389648</ele>
        <time>2023-07-30T10:23:07.000Z</time>
      </trkpt>
      <trkpt lat="43.72719" lon="7.08041">
        <ele>444.39999389648</ele>
        <time>2023-07-30T10:23:08.000Z</time>
      </trkpt>
      <trkpt lat="43.72717" lon="7.08049">
        <ele>443.79998779297</ele>
        <time>2023-07-30T10:23:09.000Z</time>
      </trkpt>
      <trkpt lat="43.72714" lon="7.08057">
        <ele>441.60000610352</ele>
        <time>2023-07-30T10:23:10.000Z</time>
      </trkpt>
      <trkpt lat="43.72711" lon="7.08063">
        <ele>441.20001220703</ele>
        <time>2023-07-30T10:23:11.000Z</time>
      </trkpt>
      <trkpt lat="43.72708" lon="7.0807">
        <ele>439.39999389648</ele>
        <time>2023-07-30T10:23:12.000Z</time>
      </trkpt>
      <trkpt lat="43.72705" lon="7.08076">
        <ele>438.60000610352</ele>
        <time>2023-07-30T10:23:13.000Z</time>
      </trkpt>
      <trkpt lat="43.72704" lon="7.08082">
        <ele>437.39999389648</ele>
        <time>2023-07-30T10:23:14.000Z</time>
      </trkpt>
      <trkpt lat="43.72703" lon="7.08087">
        <ele>436.39999389648</ele>
        <time>2023-07-30T10:23:15.000Z</time>
      </trkpt>
      <trkpt lat="43.72704" lon="7.08092">
        <ele>435.20001220703</ele>
        <time>2023-07-30T10:23:16.000Z</time>
      </trkpt>
      <trkpt lat="43.72703" lon="7.08098">
        <ele>434.20001220703</ele>
        <time>2023-07-30T10:23:17.000Z</time>
      </trkpt>
      <trkpt lat="43.72702" lon="7.08101">
        <ele>433.20001220703</ele>
        <time>2023-07-30T10:23:18.000Z</time>
      </trkpt>
      <trkpt lat="43.727" lon="7.08104">
        <ele>431.79998779297</ele>
        <time>2023-07-30T10:23:19.000Z</time>
      </trkpt>
      <trkpt lat="43.72697" lon="7.08104">
        <ele>430.20001220703</ele>
        <time>2023-07-30T10:23:20.000Z</time>
      </trkpt>
      <trkpt lat="43.72694" lon="7.08104">
        <ele>429.60000610352</ele>
        <time>2023-07-30T10:23:21.000Z</time>
      </trkpt>
      <trkpt lat="43.7269" lon="7.08103">
        <ele>428.60000610352</ele>
        <time>2023-07-30T10:23:22.000Z</time>
      </trkpt>
      <trkpt lat="43.72687" lon="7.081">
        <ele>428</ele>
        <time>2023-07-30T10:23:23.000Z</time>
      </trkpt>
      <trkpt lat="43.72685" lon="7.08097">
        <ele>427.20001220703</ele>
        <time>2023-07-30T10:23:24.000Z</time>
      </trkpt>
      <trkpt lat="43.72682" lon="7.08095">
        <ele>426.39999389648</ele>
        <time>2023-07-30T10:23:25.000Z</time>
      </trkpt>
      <trkpt lat="43.72679" lon="7.08094">
        <ele>426.39999389648</ele>
        <time>2023-07-30T10:23:26.000Z</time>
      </trkpt>
      <trkpt lat="43.72678" lon="7.08093">
        <ele>425.79998779297</ele>
        <time>2023-07-30T10:23:27.000Z</time>
      </trkpt>
      <trkpt lat="43.72677" lon="7.08092">
        <ele>425.39999389648</ele>
        <time>2023-07-30T10:23:28.000Z</time>
      </trkpt>
      <trkpt lat="43.72675" lon="7.08091">
        <ele>424.79998779297</ele>
        <time>2023-07-30T10:23:29.000Z</time>
      </trkpt>
      <trkpt lat="43.72671" lon="7.08089">
        <ele>424.39999389648</ele>
        <time>2023-07-30T10:23:30.000Z</time>
      </trkpt>
      <trkpt lat="43.72667" lon="7.08086">
        <ele>424</ele>
        <time>2023-07-30T10:23:31.000Z</time>
      </trkpt>
      <trkpt lat="43.72662" lon="7.08083">
        <ele>423.39999389648</ele>
        <time>2023-07-30T10:23:32.000Z</time>
      </trkpt>
      <trkpt lat="43.72657" lon="7.08078">
        <ele>423.39999389648</ele>
        <time>2023-07-30T10:23:33.000Z</time>
      </trkpt>
      <trkpt lat="43.72651" lon="7.08074">
        <ele>421.79998779297</ele>
        <time>2023-07-30T10:23:34.000Z</time>
      </trkpt>
      <trkpt lat="43.72645" lon="7.08072">
        <ele>421.20001220703</ele>
        <time>2023-07-30T10:23:35.000Z</time>
      </trkpt>
      <trkpt lat="43.72639" lon="7.0807">
        <ele>421.20001220703</ele>
        <time>2023-07-30T10:23:36.000Z</time>
      </trkpt>
      <trkpt lat="43.72632" lon="7.0807">
        <ele>419.39999389648</ele>
        <time>2023-07-30T10:23:37.000Z</time>
      </trkpt>
      <trkpt lat="43.72625" lon="7.08069">
        <ele>418.20001220703</ele>
        <time>2023-07-30T10:23:38.000Z</time>
      </trkpt>
      <trkpt lat="43.72618" lon="7.08069">
        <ele>417.20001220703</ele>
        <time>2023-07-30T10:23:39.000Z</time>
      </trkpt>
      <trkpt lat="43.72614" lon="7.08069">
        <ele>415.79998779297</ele>
        <time>2023-07-30T10:23:40.000Z</time>
      </trkpt>
      <trkpt lat="43.7261" lon="7.08069">
        <ele>415.20001220703</ele>
        <time>2023-07-30T10:23:41.000Z</time>
      </trkpt>
      <trkpt lat="43.72606" lon="7.08069">
        <ele>413.60000610352</ele>
        <time>2023-07-30T10:23:42.000Z</time>
      </trkpt>
      <trkpt lat="43.72601" lon="7.08068">
        <ele>412.60000610352</ele>
        <time>2023-07-30T10:23:43.000Z</time>
      </trkpt>
      <trkpt lat="43.72596" lon="7.08068">
        <ele>411.79998779297</ele>
        <time>2023-07-30T10:23:44.000Z</time>
      </trkpt>
      <trkpt lat="43.72591" lon="7.08068">
        <ele>411</ele>
        <time>2023-07-30T10:23:45.000Z</time>
      </trkpt>
      <trkpt lat="43.72587" lon="7.08068">
        <ele>410.20001220703</ele>
        <time>2023-07-30T10:23:46.000Z</time>
      </trkpt>
      <trkpt lat="43.72583" lon="7.08068">
        <ele>409.60000610352</ele>
        <time>2023-07-30T10:23:47.000Z</time>
      </trkpt>
      <trkpt lat="43.7258" lon="7.08067">
        <ele>408.60000610352</ele>
        <time>2023-07-30T10:23:48.000Z</time>
      </trkpt>
      <trkpt lat="43.72577" lon="7.08069">
        <ele>407.60000610352</ele>
        <time>2023-07-30T10:23:49.000Z</time>
      </trkpt>
      <trkpt lat="43.72576" lon="7.08072">
        <ele>406.60000610352</ele>
        <time>2023-07-30T10:23:50.000Z</time>
      </trkpt>
      <trkpt lat="43.72576" lon="7.08075">
        <ele>406</ele>
        <time>2023-07-30T10:23:51.000Z</time>
      </trkpt>
      <trkpt lat="43.72577" lon="7.08079">
        <ele>405.39999389648</ele>
        <time>2023-07-30T10:23:52.000Z</time>
      </trkpt>
      <trkpt lat="43.72577" lon="7.08084">
        <ele>404.79998779297</ele>
        <time>2023-07-30T10:23:53.000Z</time>
      </trkpt>
      <trkpt lat="43.72576" lon="7.08088">
        <ele>404.39999389648</ele>
        <time>2023-07-30T10:23:54.000Z</time>
      </trkpt>
      <trkpt lat="43.72576" lon="7.08092">
        <ele>404</ele>
        <time>2023-07-30T10:23:55.000Z</time>
      </trkpt>
      <trkpt lat="43.72575" lon="7.08094">
        <ele>403.60000610352</ele>
        <time>2023-07-30T10:23:56.000Z</time>
      </trkpt>
      <trkpt lat="43.72575" lon="7.08094">
        <ele>403.20001220703</ele>
        <time>2023-07-30T10:23:57.000Z</time>
      </trkpt>
      <trkpt lat="43.72575" lon="7.08094">
        <ele>403</ele>
        <time>2023-07-30T10:23:58.000Z</time>
      </trkpt>
      <trkpt lat="43.72575" lon="7.08094">
        <ele>403</ele>
        <time>2023-07-30T10:23:59.000Z</time>
      </trkpt>
      <trkpt lat="43.72575" lon="7.08094">
        <ele>402.79998779297</ele>
        <time>2023-07-30T10:24:00.000Z</time>
      </trkpt>
      <trkpt lat="43.72575" lon="7.08094">
        <ele>402.79998779297</ele>
        <time>2023-07-30T10:24:01.000Z</time>
      </trkpt>
      <trkpt lat="43.72575" lon="7.08094">
        <ele>402.60000610352</ele>
        <time>2023-07-30T10:24:02.000Z</time>
      </trkpt>
      <trkpt lat="43.72575" lon="7.08094">
        <ele>402.60000610352</ele>
        <time>2023-07-30T10:24:03.000Z</time>
      </trkpt>
      <trkpt lat="43.72575" lon="7.08094">
        <ele>402.39999389648</ele>
        <time>2023-07-30T10:24:04.000Z</time>
      </trkpt>
      <trkpt lat="43.72575" lon="7.08094">
        <ele>402.39999389648</ele>
        <time>2023-07-30T10:24:05.000Z</time>
      </trkpt>
      <trkpt lat="43.72575" lon="7.08094">
        <ele>402.39999389648</ele>
        <time>2023-07-30T10:24:06.000Z</time>
      </trkpt>
      <trkpt lat="43.72575" lon="7.08094">
        <ele>402.39999389648</ele>
        <time>2023-07-30T10:24:07.000Z</time>
      </trkpt>
      <trkpt lat="43.72575" lon="7.08094">
        <ele>402.20001220703</ele>
        <time>2023-07-30T10:24:08.000Z</time>
      </trkpt>
      <trkpt lat="43.72575" lon="7.08094">
        <ele>402.20001220703</ele>
        <time>2023-07-30T10:24:09.000Z</time>
      </trkpt>
      <trkpt lat="43.72575" lon="7.08094">
        <ele>402</ele>
        <time>2023-07-30T10:24:10.000Z</time>
      </trkpt>
      <trkpt lat="43.72575" lon="7.08094">
        <ele>402</ele>
        <time>2023-07-30T10:24:11.000Z</time>
      </trkpt>
      <trkpt lat="43.72575" lon="7.08094">
        <ele>402.20001220703</ele>
        <time>2023-07-30T10:24:12.000Z</time>
      </trkpt>
      <trkpt lat="43.72575" lon="7.08094">
        <ele>402.20001220703</ele>
        <time>2023-07-30T10:24:13.000Z</time>
      </trkpt>
      <trkpt lat="43.72575" lon="7.08094">
        <ele>402.20001220703</ele>
        <time>2023-07-30T10:24:14.000Z</time>
      </trkpt>
      <trkpt lat="43.72575" lon="7.08094">
        <ele>402.20001220703</ele>
        <time>2023-07-30T10:24:15.000Z</time>
      </trkpt>
      <trkpt lat="43.72575" lon="7.08094">
        <ele>402.20001220703</ele>
        <time>2023-07-30T10:24:16.000Z</time>
      </trkpt>
      <trkpt lat="43.72575" lon="7.08094">
        <ele>402.20001220703</ele>
        <time>2023-07-30T10:24:17.000Z</time>
      </trkpt>
      <trkpt lat="43.72575" lon="7.08094">
        <ele>402.20001220703</ele>
        <time>2023-07-30T10:24:18.000Z</time>
      </trkpt>
      <trkpt lat="43.72575" lon="7.08094">
        <ele>402.20001220703</ele>
        <time>2023-07-30T10:24:19.000Z</time>
      </trkpt>
      <trkpt lat="43.72575" lon="7.08094">
        <ele>402.20001220703</ele>
        <time>2023-07-30T10:24:20.000Z</time>
      </trkpt>
      <trkpt lat="43.72575" lon="7.08094">
        <ele>402.20001220703</ele>
        <time>2023-07-30T10:24:21.000Z</time>
      </trkpt>
      <trkpt lat="43.72575" lon="7.08094">
        <ele>402.20001220703</ele>
        <time>2023-07-30T10:24:22.000Z</time>
      </trkpt>
      <trkpt lat="43.72575" lon="7.08094">
        <ele>402.20001220703</ele>
        <time>2023-07-30T10:24:23.000Z</time>
      </trkpt>
      <trkpt lat="43.72575" lon="7.08094">
        <ele>402.20001220703</ele>
        <time>2023-07-30T10:24:24.000Z</time>
      </trkpt>
      <trkpt lat="43.72575" lon="7.08094">
        <ele>402.20001220703</ele>
        <time>2023-07-30T10:24:25.000Z</time>
      </trkpt>
      <trkpt lat="43.72575" lon="7.08094">
        <ele>402.20001220703</ele>
        <time>2023-07-30T10:24:26.000Z</time>
      </trkpt>
      <trkpt lat="43.72575" lon="7.08094">
        <ele>402.20001220703</ele>
        <time>2023-07-30T10:24:27.000Z</time>
      </trkpt>
      <trkpt lat="43.72575" lon="7.08094">
        <ele>402.20001220703</ele>
        <time>2023-07-30T10:24:28.000Z</time>
      </trkpt>
      <trkpt lat="43.72575" lon="7.08094">
        <ele>402.20001220703</ele>
        <time>2023-07-30T10:24:29.000Z</time>
      </trkpt>
      <trkpt lat="43.72575" lon="7.08094">
        <ele>402.20001220703</ele>
        <time>2023-07-30T10:24:30.000Z</time>
      </trkpt>
      <trkpt lat="43.72575" lon="7.08094">
        <ele>402.20001220703</ele>
        <time>2023-07-30T10:24:31.000Z</time>
      </trkpt>
      <trkpt lat="43.72575" lon="7.08094">
        <ele>402.20001220703</ele>
        <time>2023-07-30T10:24:32.000Z</time>
      </trkpt>
      <trkpt lat="43.72575" lon="7.08094">
        <ele>402.20001220703</ele>
        <time>2023-07-30T10:24:33.000Z</time>
      </trkpt>
      <trkpt lat="43.72575" lon="7.08095">
        <ele>402.20001220703</ele>
        <time>2023-07-30T10:24:34.000Z</time>
      </trkpt>
      <trkpt lat="43.72575" lon="7.08097">
        <ele>402.20001220703</ele>
        <time>2023-07-30T10:24:35.000Z</time>
      </trkpt>
      <trkpt lat="43.72575" lon="7.08097">
        <ele>402.39999389648</ele>
        <time>2023-07-30T10:24:36.000Z</time>
      </trkpt>
      <trkpt lat="43.72575" lon="7.08097">
        <ele>402.39999389648</ele>
        <time>2023-07-30T10:24:37.000Z</time>
      </trkpt>
      <trkpt lat="43.72575" lon="7.08097">
        <ele>402.39999389648</ele>
        <time>2023-07-30T10:24:38.000Z</time>
      </trkpt>
      <trkpt lat="43.72573" lon="7.08099">
        <ele>402.39999389648</ele>
        <time>2023-07-30T10:24:39.000Z</time>
      </trkpt>
      <trkpt lat="43.72571" lon="7.081">
        <ele>402.20001220703</ele>
        <time>2023-07-30T10:24:40.000Z</time>
      </trkpt>
      <trkpt lat="43.72567" lon="7.08099">
        <ele>402.20001220703</ele>
        <time>2023-07-30T10:24:41.000Z</time>
      </trkpt>
      <trkpt lat="43.72564" lon="7.08096">
        <ele>402</ele>
        <time>2023-07-30T10:24:42.000Z</time>
      </trkpt>
      <trkpt lat="43.72559" lon="7.08094">
        <ele>401.60000610352</ele>
        <time>2023-07-30T10:24:43.000Z</time>
      </trkpt>
      <trkpt lat="43.72555" lon="7.08093">
        <ele>401.39999389648</ele>
        <time>2023-07-30T10:24:44.000Z</time>
      </trkpt>
      <trkpt lat="43.7255" lon="7.08093">
        <ele>401.20001220703</ele>
        <time>2023-07-30T10:24:45.000Z</time>
      </trkpt>
      <trkpt lat="43.72545" lon="7.08094">
        <ele>400.79998779297</ele>
        <time>2023-07-30T10:24:46.000Z</time>
      </trkpt>
      <trkpt lat="43.72539" lon="7.08094">
        <ele>400.20001220703</ele>
        <time>2023-07-30T10:24:47.000Z</time>
      </trkpt>
      <trkpt lat="43.72532" lon="7.08096">
        <ele>400</ele>
        <time>2023-07-30T10:24:48.000Z</time>
      </trkpt>
      <trkpt lat="43.72525" lon="7.08098">
        <ele>399.60000610352</ele>
        <time>2023-07-30T10:24:49.000Z</time>
      </trkpt>
      <trkpt lat="43.72519" lon="7.08102">
        <ele>399.39999389648</ele>
        <time>2023-07-30T10:24:50.000Z</time>
      </trkpt>
      <trkpt lat="43.72512" lon="7.08106">
        <ele>398.79998779297</ele>
        <time>2023-07-30T10:24:51.000Z</time>
      </trkpt>
      <trkpt lat="43.72505" lon="7.0811">
        <ele>398.39999389648</ele>
        <time>2023-07-30T10:24:52.000Z</time>
      </trkpt>
      <trkpt lat="43.72498" lon="7.08116">
        <ele>397.39999389648</ele>
        <time>2023-07-30T10:24:53.000Z</time>
      </trkpt>
      <trkpt lat="43.72491" lon="7.0812">
        <ele>396.79998779297</ele>
        <time>2023-07-30T10:24:54.000Z</time>
      </trkpt>
      <trkpt lat="43.72483" lon="7.08125">
        <ele>396.39999389648</ele>
        <time>2023-07-30T10:24:55.000Z</time>
      </trkpt>
      <trkpt lat="43.72475" lon="7.08131">
        <ele>395.60000610352</ele>
        <time>2023-07-30T10:24:56.000Z</time>
      </trkpt>
      <trkpt lat="43.72467" lon="7.08137">
        <ele>394.39999389648</ele>
        <time>2023-07-30T10:24:57.000Z</time>
      </trkpt>
      <trkpt lat="43.72458" lon="7.08143">
        <ele>393.39999389648</ele>
        <time>2023-07-30T10:24:58.000Z</time>
      </trkpt>
      <trkpt lat="43.72449" lon="7.08149">
        <ele>392.39999389648</ele>
        <time>2023-07-30T10:24:59.000Z</time>
      </trkpt>
      <trkpt lat="43.72439" lon="7.08154">
        <ele>391.60000610352</ele>
        <time>2023-07-30T10:25:00.000Z</time>
      </trkpt>
      <trkpt lat="43.72429" lon="7.0816">
        <ele>391.60000610352</ele>
        <time>2023-07-30T10:25:01.000Z</time>
      </trkpt>
      <trkpt lat="43.72419" lon="7.08166">
        <ele>390.39999389648</ele>
        <time>2023-07-30T10:25:02.000Z</time>
      </trkpt>
      <trkpt lat="43.72409" lon="7.08173">
        <ele>389.20001220703</ele>
        <time>2023-07-30T10:25:03.000Z</time>
      </trkpt>
      <trkpt lat="43.724" lon="7.08179">
        <ele>388</ele>
        <time>2023-07-30T10:25:04.000Z</time>
      </trkpt>
      <trkpt lat="43.72393" lon="7.08184">
        <ele>386.39999389648</ele>
        <time>2023-07-30T10:25:05.000Z</time>
      </trkpt>
      <trkpt lat="43.72385" lon="7.08188">
        <ele>385</ele>
        <time>2023-07-30T10:25:06.000Z</time>
      </trkpt>
      <trkpt lat="43.72378" lon="7.08189">
        <ele>383.60000610352</ele>
        <time>2023-07-30T10:25:07.000Z</time>
      </trkpt>
      <trkpt lat="43.72371" lon="7.08186">
        <ele>382</ele>
        <time>2023-07-30T10:25:08.000Z</time>
      </trkpt>
      <trkpt lat="43.72366" lon="7.08181">
        <ele>380.79998779297</ele>
        <time>2023-07-30T10:25:09.000Z</time>
      </trkpt>
      <trkpt lat="43.72362" lon="7.08174">
        <ele>380</ele>
        <time>2023-07-30T10:25:10.000Z</time>
      </trkpt>
      <trkpt lat="43.72359" lon="7.08165">
        <ele>378.79998779297</ele>
        <time>2023-07-30T10:25:11.000Z</time>
      </trkpt>
      <trkpt lat="43.72357" lon="7.08156">
        <ele>378.20001220703</ele>
        <time>2023-07-30T10:25:12.000Z</time>
      </trkpt>
      <trkpt lat="43.72355" lon="7.08146">
        <ele>377.60000610352</ele>
        <time>2023-07-30T10:25:13.000Z</time>
      </trkpt>
      <trkpt lat="43.72353" lon="7.08136">
        <ele>377.20001220703</ele>
        <time>2023-07-30T10:25:14.000Z</time>
      </trkpt>
      <trkpt lat="43.72353" lon="7.08124">
        <ele>376.79998779297</ele>
        <time>2023-07-30T10:25:15.000Z</time>
      </trkpt>
      <trkpt lat="43.72355" lon="7.08113">
        <ele>376.20001220703</ele>
        <time>2023-07-30T10:25:16.000Z</time>
      </trkpt>
      <trkpt lat="43.72357" lon="7.08101">
        <ele>375.20001220703</ele>
        <time>2023-07-30T10:25:17.000Z</time>
      </trkpt>
      <trkpt lat="43.7236" lon="7.08089">
        <ele>374.79998779297</ele>
        <time>2023-07-30T10:25:18.000Z</time>
      </trkpt>
      <trkpt lat="43.72364" lon="7.08078">
        <ele>374.39999389648</ele>
        <time>2023-07-30T10:25:19.000Z</time>
      </trkpt>
      <trkpt lat="43.72367" lon="7.08065">
        <ele>373.79998779297</ele>
        <time>2023-07-30T10:25:20.000Z</time>
      </trkpt>
      <trkpt lat="43.72368" lon="7.08053">
        <ele>373.39999389648</ele>
        <time>2023-07-30T10:25:21.000Z</time>
      </trkpt>
      <trkpt lat="43.72366" lon="7.08043">
        <ele>372.39999389648</ele>
        <time>2023-07-30T10:25:22.000Z</time>
      </trkpt>
      <trkpt lat="43.72363" lon="7.08037">
        <ele>371.79998779297</ele>
        <time>2023-07-30T10:25:23.000Z</time>
      </trkpt>
      <trkpt lat="43.72359" lon="7.08034">
        <ele>371.39999389648</ele>
        <time>2023-07-30T10:25:24.000Z</time>
      </trkpt>
      <trkpt lat="43.72357" lon="7.08035">
        <ele>370.20001220703</ele>
        <time>2023-07-30T10:25:25.000Z</time>
      </trkpt>
      <trkpt lat="43.72355" lon="7.08035">
        <ele>370</ele>
        <time>2023-07-30T10:25:26.000Z</time>
      </trkpt>
      <trkpt lat="43.72353" lon="7.08035">
        <ele>369.79998779297</ele>
        <time>2023-07-30T10:25:27.000Z</time>
      </trkpt>
      <trkpt lat="43.7235" lon="7.08035">
        <ele>369.79998779297</ele>
        <time>2023-07-30T10:25:28.000Z</time>
      </trkpt>
      <trkpt lat="43.72347" lon="7.08037">
        <ele>369.39999389648</ele>
        <time>2023-07-30T10:25:29.000Z</time>
      </trkpt>
      <trkpt lat="43.72344" lon="7.08039">
        <ele>369.39999389648</ele>
        <time>2023-07-30T10:25:30.000Z</time>
      </trkpt>
      <trkpt lat="43.72342" lon="7.08044">
        <ele>369.39999389648</ele>
        <time>2023-07-30T10:25:31.000Z</time>
      </trkpt>
      <trkpt lat="43.7234" lon="7.08049">
        <ele>369.39999389648</ele>
        <time>2023-07-30T10:25:32.000Z</time>
      </trkpt>
      <trkpt lat="43.72338" lon="7.08054">
        <ele>369.39999389648</ele>
        <time>2023-07-30T10:25:33.000Z</time>
      </trkpt>
      <trkpt lat="43.72336" lon="7.08059">
        <ele>369.20001220703</ele>
        <time>2023-07-30T10:25:34.000Z</time>
      </trkpt>
      <trkpt lat="43.72334" lon="7.08065">
        <ele>369.20001220703</ele>
        <time>2023-07-30T10:25:35.000Z</time>
      </trkpt>
      <trkpt lat="43.72332" lon="7.0807">
        <ele>369.20001220703</ele>
        <time>2023-07-30T10:25:36.000Z</time>
      </trkpt>
      <trkpt lat="43.7233" lon="7.08075">
        <ele>369.20001220703</ele>
        <time>2023-07-30T10:25:37.000Z</time>
      </trkpt>
      <trkpt lat="43.72328" lon="7.08081">
        <ele>369.20001220703</ele>
        <time>2023-07-30T10:25:38.000Z</time>
      </trkpt>
      <trkpt lat="43.72326" lon="7.08087">
        <ele>369.20001220703</ele>
        <time>2023-07-30T10:25:39.000Z</time>
      </trkpt>
      <trkpt lat="43.72324" lon="7.08093">
        <ele>369.20001220703</ele>
        <time>2023-07-30T10:25:40.000Z</time>
      </trkpt>
      <trkpt lat="43.72322" lon="7.08099">
        <ele>369.20001220703</ele>
        <time>2023-07-30T10:25:41.000Z</time>
      </trkpt>
      <trkpt lat="43.7232" lon="7.08105">
        <ele>369</ele>
        <time>2023-07-30T10:25:42.000Z</time>
      </trkpt>
      <trkpt lat="43.72317" lon="7.08111">
        <ele>369</ele>
        <time>2023-07-30T10:25:43.000Z</time>
      </trkpt>
      <trkpt lat="43.72315" lon="7.08117">
        <ele>369</ele>
        <time>2023-07-30T10:25:44.000Z</time>
      </trkpt>
      <trkpt lat="43.72313" lon="7.08124">
        <ele>369</ele>
        <time>2023-07-30T10:25:45.000Z</time>
      </trkpt>
      <trkpt lat="43.72311" lon="7.0813">
        <ele>369</ele>
        <time>2023-07-30T10:25:46.000Z</time>
      </trkpt>
      <trkpt lat="43.72309" lon="7.08137">
        <ele>369</ele>
        <time>2023-07-30T10:25:47.000Z</time>
      </trkpt>
      <trkpt lat="43.72308" lon="7.08143">
        <ele>369</ele>
        <time>2023-07-30T10:25:48.000Z</time>
      </trkpt>
      <trkpt lat="43.72306" lon="7.0815">
        <ele>368.79998779297</ele>
        <time>2023-07-30T10:25:49.000Z</time>
      </trkpt>
      <trkpt lat="43.72305" lon="7.08157">
        <ele>368.79998779297</ele>
        <time>2023-07-30T10:25:50.000Z</time>
      </trkpt>
      <trkpt lat="43.72303" lon="7.08163">
        <ele>368.79998779297</ele>
        <time>2023-07-30T10:25:51.000Z</time>
      </trkpt>
      <trkpt lat="43.72301" lon="7.08169">
        <ele>368.79998779297</ele>
        <time>2023-07-30T10:25:52.000Z</time>
      </trkpt>
      <trkpt lat="43.723" lon="7.08175">
        <ele>368.79998779297</ele>
        <time>2023-07-30T10:25:53.000Z</time>
      </trkpt>
      <trkpt lat="43.72299" lon="7.08182">
        <ele>368.79998779297</ele>
        <time>2023-07-30T10:25:54.000Z</time>
      </trkpt>
      <trkpt lat="43.72299" lon="7.08189">
        <ele>368.60000610352</ele>
        <time>2023-07-30T10:25:55.000Z</time>
      </trkpt>
      <trkpt lat="43.72299" lon="7.08196">
        <ele>368.39999389648</ele>
        <time>2023-07-30T10:25:56.000Z</time>
      </trkpt>
      <trkpt lat="43.72298" lon="7.08202">
        <ele>368.39999389648</ele>
        <time>2023-07-30T10:25:57.000Z</time>
      </trkpt>
      <trkpt lat="43.72299" lon="7.08209">
        <ele>368.39999389648</ele>
        <time>2023-07-30T10:25:58.000Z</time>
      </trkpt>
      <trkpt lat="43.72299" lon="7.08217">
        <ele>368.20001220703</ele>
        <time>2023-07-30T10:25:59.000Z</time>
      </trkpt>
      <trkpt lat="43.72299" lon="7.08223">
        <ele>368</ele>
        <time>2023-07-30T10:26:00.000Z</time>
      </trkpt>
      <trkpt lat="43.72298" lon="7.08229">
        <ele>367.79998779297</ele>
        <time>2023-07-30T10:26:01.000Z</time>
      </trkpt>
      <trkpt lat="43.72296" lon="7.08234">
        <ele>367.39999389648</ele>
        <time>2023-07-30T10:26:02.000Z</time>
      </trkpt>
      <trkpt lat="43.72293" lon="7.08239">
        <ele>367.39999389648</ele>
        <time>2023-07-30T10:26:03.000Z</time>
      </trkpt>
      <trkpt lat="43.72289" lon="7.08244">
        <ele>366.79998779297</ele>
        <time>2023-07-30T10:26:04.000Z</time>
      </trkpt>
      <trkpt lat="43.72284" lon="7.08247">
        <ele>366.79998779297</ele>
        <time>2023-07-30T10:26:05.000Z</time>
      </trkpt>
      <trkpt lat="43.72278" lon="7.0825">
        <ele>366.60000610352</ele>
        <time>2023-07-30T10:26:06.000Z</time>
      </trkpt>
      <trkpt lat="43.72273" lon="7.08254">
        <ele>366.60000610352</ele>
        <time>2023-07-30T10:26:07.000Z</time>
      </trkpt>
      <trkpt lat="43.72267" lon="7.08259">
        <ele>366</ele>
        <time>2023-07-30T10:26:08.000Z</time>
      </trkpt>
      <trkpt lat="43.7226" lon="7.08264">
        <ele>365.39999389648</ele>
        <time>2023-07-30T10:26:09.000Z</time>
      </trkpt>
      <trkpt lat="43.72253" lon="7.08271">
        <ele>365.20001220703</ele>
        <time>2023-07-30T10:26:10.000Z</time>
      </trkpt>
      <trkpt lat="43.72245" lon="7.08276">
        <ele>364.39999389648</ele>
        <time>2023-07-30T10:26:11.000Z</time>
      </trkpt>
      <trkpt lat="43.72236" lon="7.08282">
        <ele>364</ele>
        <time>2023-07-30T10:26:12.000Z</time>
      </trkpt>
      <trkpt lat="43.72227" lon="7.08288">
        <ele>363.20001220703</ele>
        <time>2023-07-30T10:26:13.000Z</time>
      </trkpt>
      <trkpt lat="43.72217" lon="7.08293">
        <ele>362.39999389648</ele>
        <time>2023-07-30T10:26:14.000Z</time>
      </trkpt>
      <trkpt lat="43.72207" lon="7.083">
        <ele>361.60000610352</ele>
        <time>2023-07-30T10:26:15.000Z</time>
      </trkpt>
      <trkpt lat="43.72197" lon="7.08306">
        <ele>360.60000610352</ele>
        <time>2023-07-30T10:26:16.000Z</time>
      </trkpt>
      <trkpt lat="43.72187" lon="7.08313">
        <ele>359.60000610352</ele>
        <time>2023-07-30T10:26:17.000Z</time>
      </trkpt>
      <trkpt lat="43.72177" lon="7.08319">
        <ele>358.39999389648</ele>
        <time>2023-07-30T10:26:18.000Z</time>
      </trkpt>
      <trkpt lat="43.72167" lon="7.08325">
        <ele>357.20001220703</ele>
        <time>2023-07-30T10:26:19.000Z</time>
      </trkpt>
      <trkpt lat="43.72156" lon="7.08331">
        <ele>356.20001220703</ele>
        <time>2023-07-30T10:26:20.000Z</time>
      </trkpt>
      <trkpt lat="43.72146" lon="7.08338">
        <ele>355.20001220703</ele>
        <time>2023-07-30T10:26:21.000Z</time>
      </trkpt>
      <trkpt lat="43.72136" lon="7.08345">
        <ele>354.60000610352</ele>
        <time>2023-07-30T10:26:22.000Z</time>
      </trkpt>
      <trkpt lat="43.72125" lon="7.08352">
        <ele>353.39999389648</ele>
        <time>2023-07-30T10:26:23.000Z</time>
      </trkpt>
      <trkpt lat="43.72114" lon="7.08359">
        <ele>352.39999389648</ele>
        <time>2023-07-30T10:26:24.000Z</time>
      </trkpt>
      <trkpt lat="43.72105" lon="7.08366">
        <ele>351.79998779297</ele>
        <time>2023-07-30T10:26:25.000Z</time>
      </trkpt>
      <trkpt lat="43.72096" lon="7.08372">
        <ele>351.79998779297</ele>
        <time>2023-07-30T10:26:26.000Z</time>
      </trkpt>
      <trkpt lat="43.72087" lon="7.08378">
        <ele>350.39999389648</ele>
        <time>2023-07-30T10:26:27.000Z</time>
      </trkpt>
      <trkpt lat="43.72079" lon="7.08382">
        <ele>349.39999389648</ele>
        <time>2023-07-30T10:26:28.000Z</time>
      </trkpt>
      <trkpt lat="43.72071" lon="7.08385">
        <ele>348.60000610352</ele>
        <time>2023-07-30T10:26:29.000Z</time>
      </trkpt>
      <trkpt lat="43.72064" lon="7.08387">
        <ele>347.60000610352</ele>
        <time>2023-07-30T10:26:30.000Z</time>
      </trkpt>
      <trkpt lat="43.72058" lon="7.08392">
        <ele>346.60000610352</ele>
        <time>2023-07-30T10:26:31.000Z</time>
      </trkpt>
      <trkpt lat="43.72055" lon="7.08401">
        <ele>345.39999389648</ele>
        <time>2023-07-30T10:26:32.000Z</time>
      </trkpt>
      <trkpt lat="43.7205" lon="7.08408">
        <ele>344.60000610352</ele>
        <time>2023-07-30T10:26:33.000Z</time>
      </trkpt>
      <trkpt lat="43.72043" lon="7.08414">
        <ele>344</ele>
        <time>2023-07-30T10:26:34.000Z</time>
      </trkpt>
      <trkpt lat="43.72036" lon="7.0842">
        <ele>343.79998779297</ele>
        <time>2023-07-30T10:26:35.000Z</time>
      </trkpt>
      <trkpt lat="43.72029" lon="7.08425">
        <ele>343</ele>
        <time>2023-07-30T10:26:36.000Z</time>
      </trkpt>
      <trkpt lat="43.72022" lon="7.08433">
        <ele>342.60000610352</ele>
        <time>2023-07-30T10:26:37.000Z</time>
      </trkpt>
      <trkpt lat="43.72015" lon="7.08441">
        <ele>342</ele>
        <time>2023-07-30T10:26:38.000Z</time>
      </trkpt>
      <trkpt lat="43.72009" lon="7.08451">
        <ele>341.39999389648</ele>
        <time>2023-07-30T10:26:39.000Z</time>
      </trkpt>
      <trkpt lat="43.72002" lon="7.08461">
        <ele>340.60000610352</ele>
        <time>2023-07-30T10:26:40.000Z</time>
      </trkpt>
      <trkpt lat="43.71995" lon="7.08471">
        <ele>339.79998779297</ele>
        <time>2023-07-30T10:26:41.000Z</time>
      </trkpt>
      <trkpt lat="43.71986" lon="7.08477">
        <ele>338.79998779297</ele>
        <time>2023-07-30T10:26:42.000Z</time>
      </trkpt>
      <trkpt lat="43.71977" lon="7.0848">
        <ele>338</ele>
        <time>2023-07-30T10:26:43.000Z</time>
      </trkpt>
      <trkpt lat="43.71968" lon="7.08479">
        <ele>337.20001220703</ele>
        <time>2023-07-30T10:26:44.000Z</time>
      </trkpt>
      <trkpt lat="43.71959" lon="7.08474">
        <ele>336</ele>
        <time>2023-07-30T10:26:45.000Z</time>
      </trkpt>
      <trkpt lat="43.71951" lon="7.0847">
        <ele>336</ele>
        <time>2023-07-30T10:26:46.000Z</time>
      </trkpt>
      <trkpt lat="43.71943" lon="7.08466">
        <ele>335.20001220703</ele>
        <time>2023-07-30T10:26:47.000Z</time>
      </trkpt>
      <trkpt lat="43.71935" lon="7.08462">
        <ele>335</ele>
        <time>2023-07-30T10:26:48.000Z</time>
      </trkpt>
      <trkpt lat="43.71926" lon="7.08458">
        <ele>335</ele>
        <time>2023-07-30T10:26:49.000Z</time>
      </trkpt>
      <trkpt lat="43.71918" lon="7.08453">
        <ele>334.60000610352</ele>
        <time>2023-07-30T10:26:50.000Z</time>
      </trkpt>
      <trkpt lat="43.71909" lon="7.08449">
        <ele>334.60000610352</ele>
        <time>2023-07-30T10:26:51.000Z</time>
      </trkpt>
      <trkpt lat="43.71901" lon="7.08444">
        <ele>334.20001220703</ele>
        <time>2023-07-30T10:26:52.000Z</time>
      </trkpt>
      <trkpt lat="43.71892" lon="7.0844">
        <ele>333.79998779297</ele>
        <time>2023-07-30T10:26:53.000Z</time>
      </trkpt>
      <trkpt lat="43.71882" lon="7.08436">
        <ele>333.79998779297</ele>
        <time>2023-07-30T10:26:54.000Z</time>
      </trkpt>
      <trkpt lat="43.71873" lon="7.08432">
        <ele>333.79998779297</ele>
        <time>2023-07-30T10:26:55.000Z</time>
      </trkpt>
      <trkpt lat="43.71863" lon="7.08429">
        <ele>333.39999389648</ele>
        <time>2023-07-30T10:26:56.000Z</time>
      </trkpt>
      <trkpt lat="43.71853" lon="7.08427">
        <ele>332.79998779297</ele>
        <time>2023-07-30T10:26:57.000Z</time>
      </trkpt>
      <trkpt lat="43.71844" lon="7.08426">
        <ele>332</ele>
        <time>2023-07-30T10:26:58.000Z</time>
      </trkpt>
      <trkpt lat="43.71834" lon="7.08428">
        <ele>331.79998779297</ele>
        <time>2023-07-30T10:26:59.000Z</time>
      </trkpt>
      <trkpt lat="43.71826" lon="7.0843">
        <ele>331.39999389648</ele>
        <time>2023-07-30T10:27:00.000Z</time>
      </trkpt>
      <trkpt lat="43.71817" lon="7.08434">
        <ele>331.20001220703</ele>
        <time>2023-07-30T10:27:01.000Z</time>
      </trkpt>
      <trkpt lat="43.71809" lon="7.08438">
        <ele>330.79998779297</ele>
        <time>2023-07-30T10:27:02.000Z</time>
      </trkpt>
      <trkpt lat="43.71801" lon="7.08442">
        <ele>330.60000610352</ele>
        <time>2023-07-30T10:27:03.000Z</time>
      </trkpt>
      <trkpt lat="43.71793" lon="7.08447">
        <ele>330.60000610352</ele>
        <time>2023-07-30T10:27:04.000Z</time>
      </trkpt>
      <trkpt lat="43.71787" lon="7.08451">
        <ele>330.39999389648</ele>
        <time>2023-07-30T10:27:05.000Z</time>
      </trkpt>
      <trkpt lat="43.71779" lon="7.08454">
        <ele>330.39999389648</ele>
        <time>2023-07-30T10:27:06.000Z</time>
      </trkpt>
      <trkpt lat="43.71772" lon="7.08456">
        <ele>330.20001220703</ele>
        <time>2023-07-30T10:27:07.000Z</time>
      </trkpt>
      <trkpt lat="43.71766" lon="7.0846">
        <ele>330.20001220703</ele>
        <time>2023-07-30T10:27:08.000Z</time>
      </trkpt>
      <trkpt lat="43.7176" lon="7.08462">
        <ele>330.20001220703</ele>
        <time>2023-07-30T10:27:09.000Z</time>
      </trkpt>
      <trkpt lat="43.71753" lon="7.08465">
        <ele>330.20001220703</ele>
        <time>2023-07-30T10:27:10.000Z</time>
      </trkpt>
      <trkpt lat="43.71747" lon="7.08467">
        <ele>330.20001220703</ele>
        <time>2023-07-30T10:27:11.000Z</time>
      </trkpt>
      <trkpt lat="43.71741" lon="7.08469">
        <ele>330.20001220703</ele>
        <time>2023-07-30T10:27:12.000Z</time>
      </trkpt>
      <trkpt lat="43.71736" lon="7.08472">
        <ele>330</ele>
        <time>2023-07-30T10:27:13.000Z</time>
      </trkpt>
      <trkpt lat="43.71732" lon="7.08474">
        <ele>330</ele>
        <time>2023-07-30T10:27:14.000Z</time>
      </trkpt>
      <trkpt lat="43.7173" lon="7.08477">
        <ele>330</ele>
        <time>2023-07-30T10:27:15.000Z</time>
      </trkpt>
      <trkpt lat="43.71729" lon="7.08478">
        <ele>330.20001220703</ele>
        <time>2023-07-30T10:27:16.000Z</time>
      </trkpt>
      <trkpt lat="43.71726" lon="7.08478">
        <ele>330.20001220703</ele>
        <time>2023-07-30T10:27:17.000Z</time>
      </trkpt>
      <trkpt lat="43.71726" lon="7.08478">
        <ele>330</ele>
        <time>2023-07-30T10:27:18.000Z</time>
      </trkpt>
      <trkpt lat="43.71727" lon="7.08479">
        <ele>330</ele>
        <time>2023-07-30T10:27:19.000Z</time>
      </trkpt>
      <trkpt lat="43.71727" lon="7.08479">
        <ele>330</ele>
        <time>2023-07-30T10:27:20.000Z</time>
      </trkpt>
      <trkpt lat="43.71727" lon="7.08478">
        <ele>330</ele>
        <time>2023-07-30T10:27:21.000Z</time>
      </trkpt>
      <trkpt lat="43.71727" lon="7.08478">
        <ele>330</ele>
        <time>2023-07-30T10:27:22.000Z</time>
      </trkpt>
      <trkpt lat="43.71727" lon="7.08478">
        <ele>330</ele>
        <time>2023-07-30T10:27:23.000Z</time>
      </trkpt>
      <trkpt lat="43.71726" lon="7.08478">
        <ele>330</ele>
        <time>2023-07-30T10:27:24.000Z</time>
      </trkpt>
      <trkpt lat="43.71725" lon="7.08477">
        <ele>330</ele>
        <time>2023-07-30T10:27:25.000Z</time>
      </trkpt>
      <trkpt lat="43.71724" lon="7.08478">
        <ele>330</ele>
        <time>2023-07-30T10:27:26.000Z</time>
      </trkpt>
      <trkpt lat="43.71722" lon="7.08478">
        <ele>329.79998779297</ele>
        <time>2023-07-30T10:27:27.000Z</time>
      </trkpt>
      <trkpt lat="43.71721" lon="7.08479">
        <ele>329.60000610352</ele>
        <time>2023-07-30T10:27:28.000Z</time>
      </trkpt>
      <trkpt lat="43.71718" lon="7.08479">
        <ele>329.60000610352</ele>
        <time>2023-07-30T10:27:29.000Z</time>
      </trkpt>
      <trkpt lat="43.71715" lon="7.08479">
        <ele>329.60000610352</ele>
        <time>2023-07-30T10:27:30.000Z</time>
      </trkpt>
      <trkpt lat="43.71712" lon="7.08479">
        <ele>329.60000610352</ele>
        <time>2023-07-30T10:27:31.000Z</time>
      </trkpt>
      <trkpt lat="43.71709" lon="7.0848">
        <ele>329.39999389648</ele>
        <time>2023-07-30T10:27:32.000Z</time>
      </trkpt>
      <trkpt lat="43.71706" lon="7.08479">
        <ele>329.39999389648</ele>
        <time>2023-07-30T10:27:33.000Z</time>
      </trkpt>
      <trkpt lat="43.71704" lon="7.08478">
        <ele>329.60000610352</ele>
        <time>2023-07-30T10:27:34.000Z</time>
      </trkpt>
      <trkpt lat="43.71702" lon="7.08478">
        <ele>329.60000610352</ele>
        <time>2023-07-30T10:27:35.000Z</time>
      </trkpt>
      <trkpt lat="43.71701" lon="7.08478">
        <ele>329.60000610352</ele>
        <time>2023-07-30T10:27:36.000Z</time>
      </trkpt>
      <trkpt lat="43.717" lon="7.08479">
        <ele>329.39999389648</ele>
        <time>2023-07-30T10:27:37.000Z</time>
      </trkpt>
      <trkpt lat="43.71701" lon="7.08478">
        <ele>329.39999389648</ele>
        <time>2023-07-30T10:27:38.000Z</time>
      </trkpt>
      <trkpt lat="43.71701" lon="7.08479">
        <ele>329.39999389648</ele>
        <time>2023-07-30T10:27:39.000Z</time>
      </trkpt>
      <trkpt lat="43.717" lon="7.08479">
        <ele>329.39999389648</ele>
        <time>2023-07-30T10:27:40.000Z</time>
      </trkpt>
      <trkpt lat="43.71701" lon="7.08479">
        <ele>329.39999389648</ele>
        <time>2023-07-30T10:27:41.000Z</time>
      </trkpt>
      <trkpt lat="43.717" lon="7.08479">
        <ele>329.39999389648</ele>
        <time>2023-07-30T10:27:42.000Z</time>
      </trkpt>
      <trkpt lat="43.71701" lon="7.08479">
        <ele>329.39999389648</ele>
        <time>2023-07-30T10:27:43.000Z</time>
      </trkpt>
      <trkpt lat="43.71701" lon="7.08479">
        <ele>329.39999389648</ele>
        <time>2023-07-30T10:27:44.000Z</time>
      </trkpt>
      <trkpt lat="43.717" lon="7.08478">
        <ele>329.39999389648</ele>
        <time>2023-07-30T10:27:45.000Z</time>
      </trkpt>
      <trkpt lat="43.71699" lon="7.08477">
        <ele>329.20001220703</ele>
        <time>2023-07-30T10:27:46.000Z</time>
      </trkpt>
      <trkpt lat="43.71699" lon="7.08476">
        <ele>329.20001220703</ele>
        <time>2023-07-30T10:27:47.000Z</time>
      </trkpt>
      <trkpt lat="43.71699" lon="7.08472">
        <ele>329.20001220703</ele>
        <time>2023-07-30T10:27:48.000Z</time>
      </trkpt>
      <trkpt lat="43.71699" lon="7.08468">
        <ele>329.20001220703</ele>
        <time>2023-07-30T10:27:49.000Z</time>
      </trkpt>
      <trkpt lat="43.71699" lon="7.08463">
        <ele>329.20001220703</ele>
        <time>2023-07-30T10:27:50.000Z</time>
      </trkpt>
      <trkpt lat="43.71698" lon="7.08459">
        <ele>329.20001220703</ele>
        <time>2023-07-30T10:27:51.000Z</time>
      </trkpt>
      <trkpt lat="43.71697" lon="7.08454">
        <ele>329</ele>
        <time>2023-07-30T10:27:52.000Z</time>
      </trkpt>
      <trkpt lat="43.71697" lon="7.08448">
        <ele>328.79998779297</ele>
        <time>2023-07-30T10:27:53.000Z</time>
      </trkpt>
      <trkpt lat="43.71696" lon="7.08444">
        <ele>328.60000610352</ele>
        <time>2023-07-30T10:27:54.000Z</time>
      </trkpt>
      <trkpt lat="43.71695" lon="7.08439">
        <ele>328.60000610352</ele>
        <time>2023-07-30T10:27:55.000Z</time>
      </trkpt>
      <trkpt lat="43.71695" lon="7.08434">
        <ele>328.60000610352</ele>
        <time>2023-07-30T10:27:56.000Z</time>
      </trkpt>
      <trkpt lat="43.71694" lon="7.08429">
        <ele>328.60000610352</ele>
        <time>2023-07-30T10:27:57.000Z</time>
      </trkpt>
      <trkpt lat="43.71693" lon="7.08425">
        <ele>328.60000610352</ele>
        <time>2023-07-30T10:27:58.000Z</time>
      </trkpt>
      <trkpt lat="43.71692" lon="7.0842">
        <ele>328.60000610352</ele>
        <time>2023-07-30T10:27:59.000Z</time>
      </trkpt>
      <trkpt lat="43.71692" lon="7.08416">
        <ele>328.60000610352</ele>
        <time>2023-07-30T10:28:00.000Z</time>
      </trkpt>
      <trkpt lat="43.71693" lon="7.08411">
        <ele>328.60000610352</ele>
        <time>2023-07-30T10:28:01.000Z</time>
      </trkpt>
      <trkpt lat="43.71693" lon="7.08407">
        <ele>328.39999389648</ele>
        <time>2023-07-30T10:28:02.000Z</time>
      </trkpt>
      <trkpt lat="43.71695" lon="7.08402">
        <ele>328.20001220703</ele>
        <time>2023-07-30T10:28:03.000Z</time>
      </trkpt>
      <trkpt lat="43.71697" lon="7.08399">
        <ele>328.20001220703</ele>
        <time>2023-07-30T10:28:04.000Z</time>
      </trkpt>
      <trkpt lat="43.71698" lon="7.08395">
        <ele>328.20001220703</ele>
        <time>2023-07-30T10:28:05.000Z</time>
      </trkpt>
      <trkpt lat="43.71699" lon="7.08392">
        <ele>328.20001220703</ele>
        <time>2023-07-30T10:28:06.000Z</time>
      </trkpt>
      <trkpt lat="43.71701" lon="7.08389">
        <ele>328</ele>
        <time>2023-07-30T10:28:07.000Z</time>
      </trkpt>
      <trkpt lat="43.71702" lon="7.08386">
        <ele>328</ele>
        <time>2023-07-30T10:28:08.000Z</time>
      </trkpt>
      <trkpt lat="43.71703" lon="7.08383">
        <ele>328</ele>
        <time>2023-07-30T10:28:09.000Z</time>
      </trkpt>
      <trkpt lat="43.71705" lon="7.08379">
        <ele>328</ele>
        <time>2023-07-30T10:28:10.000Z</time>
      </trkpt>
      <trkpt lat="43.71707" lon="7.08376">
        <ele>328</ele>
        <time>2023-07-30T10:28:11.000Z</time>
      </trkpt>
      <trkpt lat="43.71709" lon="7.08372">
        <ele>328</ele>
        <time>2023-07-30T10:28:12.000Z</time>
      </trkpt>
      <trkpt lat="43.71711" lon="7.08368">
        <ele>328</ele>
        <time>2023-07-30T10:28:13.000Z</time>
      </trkpt>
      <trkpt lat="43.71713" lon="7.08365">
        <ele>328</ele>
        <time>2023-07-30T10:28:14.000Z</time>
      </trkpt>
      <trkpt lat="43.71715" lon="7.08362">
        <ele>328</ele>
        <time>2023-07-30T10:28:15.000Z</time>
      </trkpt>
      <trkpt lat="43.71717" lon="7.08359">
        <ele>328</ele>
        <time>2023-07-30T10:28:16.000Z</time>
      </trkpt>
      <trkpt lat="43.71719" lon="7.08356">
        <ele>328</ele>
        <time>2023-07-30T10:28:17.000Z</time>
      </trkpt>
      <trkpt lat="43.7172" lon="7.08353">
        <ele>328</ele>
        <time>2023-07-30T10:28:18.000Z</time>
      </trkpt>
      <trkpt lat="43.71723" lon="7.0835">
        <ele>328</ele>
        <time>2023-07-30T10:28:19.000Z</time>
      </trkpt>
      <trkpt lat="43.71724" lon="7.08346">
        <ele>328.20001220703</ele>
        <time>2023-07-30T10:28:20.000Z</time>
      </trkpt>
      <trkpt lat="43.71727" lon="7.08343">
        <ele>328.20001220703</ele>
        <time>2023-07-30T10:28:21.000Z</time>
      </trkpt>
      <trkpt lat="43.71729" lon="7.0834">
        <ele>328.39999389648</ele>
        <time>2023-07-30T10:28:22.000Z</time>
      </trkpt>
      <trkpt lat="43.71731" lon="7.08336">
        <ele>328.39999389648</ele>
        <time>2023-07-30T10:28:23.000Z</time>
      </trkpt>
      <trkpt lat="43.71732" lon="7.08331">
        <ele>328.39999389648</ele>
        <time>2023-07-30T10:28:24.000Z</time>
      </trkpt>
      <trkpt lat="43.71734" lon="7.08326">
        <ele>328.39999389648</ele>
        <time>2023-07-30T10:28:25.000Z</time>
      </trkpt>
      <trkpt lat="43.71735" lon="7.08321">
        <ele>328.39999389648</ele>
        <time>2023-07-30T10:28:26.000Z</time>
      </trkpt>
      <trkpt lat="43.71737" lon="7.08315">
        <ele>328.39999389648</ele>
        <time>2023-07-30T10:28:27.000Z</time>
      </trkpt>
      <trkpt lat="43.71739" lon="7.0831">
        <ele>328.20001220703</ele>
        <time>2023-07-30T10:28:28.000Z</time>
      </trkpt>
      <trkpt lat="43.71742" lon="7.08303">
        <ele>328.20001220703</ele>
        <time>2023-07-30T10:28:29.000Z</time>
      </trkpt>
      <trkpt lat="43.71745" lon="7.08296">
        <ele>327.79998779297</ele>
        <time>2023-07-30T10:28:30.000Z</time>
      </trkpt>
      <trkpt lat="43.71749" lon="7.08289">
        <ele>327.60000610352</ele>
        <time>2023-07-30T10:28:31.000Z</time>
      </trkpt>
      <trkpt lat="43.71752" lon="7.08283">
        <ele>327.20001220703</ele>
        <time>2023-07-30T10:28:32.000Z</time>
      </trkpt>
      <trkpt lat="43.71753" lon="7.08276">
        <ele>327</ele>
        <time>2023-07-30T10:28:33.000Z</time>
      </trkpt>
      <trkpt lat="43.71751" lon="7.08268">
        <ele>326.39999389648</ele>
        <time>2023-07-30T10:28:34.000Z</time>
      </trkpt>
      <trkpt lat="43.71748" lon="7.0826">
        <ele>326.20001220703</ele>
        <time>2023-07-30T10:28:35.000Z</time>
      </trkpt>
      <trkpt lat="43.71745" lon="7.08252">
        <ele>326.20001220703</ele>
        <time>2023-07-30T10:28:36.000Z</time>
      </trkpt>
      <trkpt lat="43.71741" lon="7.08243">
        <ele>326</ele>
        <time>2023-07-30T10:28:37.000Z</time>
      </trkpt>
      <trkpt lat="43.71737" lon="7.08234">
        <ele>325.20001220703</ele>
        <time>2023-07-30T10:28:38.000Z</time>
      </trkpt>
      <trkpt lat="43.71733" lon="7.08225">
        <ele>324.39999389648</ele>
        <time>2023-07-30T10:28:39.000Z</time>
      </trkpt>
      <trkpt lat="43.71729" lon="7.08216">
        <ele>323</ele>
        <time>2023-07-30T10:28:40.000Z</time>
      </trkpt>
      <trkpt lat="43.71726" lon="7.08209">
        <ele>321.79998779297</ele>
        <time>2023-07-30T10:28:41.000Z</time>
      </trkpt>
      <trkpt lat="43.71723" lon="7.08202">
        <ele>320.60000610352</ele>
        <time>2023-07-30T10:28:42.000Z</time>
      </trkpt>
      <trkpt lat="43.71719" lon="7.08195">
        <ele>319.79998779297</ele>
        <time>2023-07-30T10:28:43.000Z</time>
      </trkpt>
      <trkpt lat="43.71714" lon="7.08186">
        <ele>318.60000610352</ele>
        <time>2023-07-30T10:28:44.000Z</time>
      </trkpt>
      <trkpt lat="43.71711" lon="7.08179">
        <ele>317.39999389648</ele>
        <time>2023-07-30T10:28:45.000Z</time>
      </trkpt>
      <trkpt lat="43.71706" lon="7.08172">
        <ele>316.60000610352</ele>
        <time>2023-07-30T10:28:46.000Z</time>
      </trkpt>
      <trkpt lat="43.71701" lon="7.08169">
        <ele>315.39999389648</ele>
        <time>2023-07-30T10:28:47.000Z</time>
      </trkpt>
      <trkpt lat="43.71697" lon="7.08166">
        <ele>315.39999389648</ele>
        <time>2023-07-30T10:28:48.000Z</time>
      </trkpt>
      <trkpt lat="43.71693" lon="7.08162">
        <ele>313.60000610352</ele>
        <time>2023-07-30T10:28:49.000Z</time>
      </trkpt>
      <trkpt lat="43.7169" lon="7.08158">
        <ele>312.60000610352</ele>
        <time>2023-07-30T10:28:50.000Z</time>
      </trkpt>
      <trkpt lat="43.71687" lon="7.08154">
        <ele>311.39999389648</ele>
        <time>2023-07-30T10:28:51.000Z</time>
      </trkpt>
      <trkpt lat="43.71683" lon="7.0815">
        <ele>310.39999389648</ele>
        <time>2023-07-30T10:28:52.000Z</time>
      </trkpt>
      <trkpt lat="43.7168" lon="7.08145">
        <ele>309.39999389648</ele>
        <time>2023-07-30T10:28:53.000Z</time>
      </trkpt>
      <trkpt lat="43.71676" lon="7.0814">
        <ele>308.39999389648</ele>
        <time>2023-07-30T10:28:54.000Z</time>
      </trkpt>
      <trkpt lat="43.71674" lon="7.08135">
        <ele>307.60000610352</ele>
        <time>2023-07-30T10:28:55.000Z</time>
      </trkpt>
      <trkpt lat="43.71673" lon="7.08127">
        <ele>306.60000610352</ele>
        <time>2023-07-30T10:28:56.000Z</time>
      </trkpt>
      <trkpt lat="43.71673" lon="7.08118">
        <ele>305.60000610352</ele>
        <time>2023-07-30T10:28:57.000Z</time>
      </trkpt>
      <trkpt lat="43.71673" lon="7.08109">
        <ele>304.60000610352</ele>
        <time>2023-07-30T10:28:58.000Z</time>
      </trkpt>
      <trkpt lat="43.71672" lon="7.08099">
        <ele>303.39999389648</ele>
        <time>2023-07-30T10:28:59.000Z</time>
      </trkpt>
      <trkpt lat="43.71667" lon="7.0809">
        <ele>303.20001220703</ele>
        <time>2023-07-30T10:29:00.000Z</time>
      </trkpt>
      <trkpt lat="43.71662" lon="7.0808">
        <ele>302.20001220703</ele>
        <time>2023-07-30T10:29:01.000Z</time>
      </trkpt>
      <trkpt lat="43.71658" lon="7.08071">
        <ele>301.20001220703</ele>
        <time>2023-07-30T10:29:02.000Z</time>
      </trkpt>
      <trkpt lat="43.71655" lon="7.08062">
        <ele>300.79998779297</ele>
        <time>2023-07-30T10:29:03.000Z</time>
      </trkpt>
      <trkpt lat="43.71653" lon="7.08054">
        <ele>299.60000610352</ele>
        <time>2023-07-30T10:29:04.000Z</time>
      </trkpt>
      <trkpt lat="43.71651" lon="7.08046">
        <ele>298.39999389648</ele>
        <time>2023-07-30T10:29:05.000Z</time>
      </trkpt>
      <trkpt lat="43.71649" lon="7.08038">
        <ele>297.39999389648</ele>
        <time>2023-07-30T10:29:06.000Z</time>
      </trkpt>
      <trkpt lat="43.71647" lon="7.08033">
        <ele>297.20001220703</ele>
        <time>2023-07-30T10:29:07.000Z</time>
      </trkpt>
      <trkpt lat="43.71646" lon="7.08029">
        <ele>296.79998779297</ele>
        <time>2023-07-30T10:29:08.000Z</time>
      </trkpt>
      <trkpt lat="43.71644" lon="7.08028">
        <ele>296.60000610352</ele>
        <time>2023-07-30T10:29:09.000Z</time>
      </trkpt>
      <trkpt lat="43.71642" lon="7.08027">
        <ele>296.60000610352</ele>
        <time>2023-07-30T10:29:10.000Z</time>
      </trkpt>
      <trkpt lat="43.71641" lon="7.08026">
        <ele>296.60000610352</ele>
        <time>2023-07-30T10:29:11.000Z</time>
      </trkpt>
      <trkpt lat="43.7164" lon="7.08026">
        <ele>296.39999389648</ele>
        <time>2023-07-30T10:29:12.000Z</time>
      </trkpt>
      <trkpt lat="43.71641" lon="7.08026">
        <ele>296.20001220703</ele>
        <time>2023-07-30T10:29:13.000Z</time>
      </trkpt>
      <trkpt lat="43.7164" lon="7.08026">
        <ele>296.20001220703</ele>
        <time>2023-07-30T10:29:14.000Z</time>
      </trkpt>
      <trkpt lat="43.7164" lon="7.08026">
        <ele>296</ele>
        <time>2023-07-30T10:29:15.000Z</time>
      </trkpt>
      <trkpt lat="43.71639" lon="7.08026">
        <ele>296</ele>
        <time>2023-07-30T10:29:16.000Z</time>
      </trkpt>
      <trkpt lat="43.71639" lon="7.08026">
        <ele>296</ele>
        <time>2023-07-30T10:29:17.000Z</time>
      </trkpt>
      <trkpt lat="43.71639" lon="7.08026">
        <ele>296</ele>
        <time>2023-07-30T10:29:18.000Z</time>
      </trkpt>
      <trkpt lat="43.71639" lon="7.08025">
        <ele>296</ele>
        <time>2023-07-30T10:29:19.000Z</time>
      </trkpt>
      <trkpt lat="43.71638" lon="7.08025">
        <ele>295.79998779297</ele>
        <time>2023-07-30T10:29:20.000Z</time>
      </trkpt>
      <trkpt lat="43.71638" lon="7.08024">
        <ele>295.79998779297</ele>
        <time>2023-07-30T10:29:21.000Z</time>
      </trkpt>
      <trkpt lat="43.71637" lon="7.08022">
        <ele>295.60000610352</ele>
        <time>2023-07-30T10:29:22.000Z</time>
      </trkpt>
      <trkpt lat="43.71636" lon="7.0802">
        <ele>295.60000610352</ele>
        <time>2023-07-30T10:29:23.000Z</time>
      </trkpt>
      <trkpt lat="43.71635" lon="7.08018">
        <ele>295.39999389648</ele>
        <time>2023-07-30T10:29:24.000Z</time>
      </trkpt>
      <trkpt lat="43.71635" lon="7.08018">
        <ele>295.20001220703</ele>
        <time>2023-07-30T10:29:25.000Z</time>
      </trkpt>
      <trkpt lat="43.71635" lon="7.08018">
        <ele>295.20001220703</ele>
        <time>2023-07-30T10:29:26.000Z</time>
      </trkpt>
      <trkpt lat="43.71635" lon="7.08018">
        <ele>295.20001220703</ele>
        <time>2023-07-30T10:29:27.000Z</time>
      </trkpt>
      <trkpt lat="43.71635" lon="7.08018">
        <ele>295</ele>
        <time>2023-07-30T10:29:28.000Z</time>
      </trkpt>
      <trkpt lat="43.71635" lon="7.08018">
        <ele>295</ele>
        <time>2023-07-30T10:29:29.000Z</time>
      </trkpt>
      <trkpt lat="43.71635" lon="7.08018">
        <ele>295</ele>
        <time>2023-07-30T10:29:30.000Z</time>
      </trkpt>
      <trkpt lat="43.71635" lon="7.08018">
        <ele>295</ele>
        <time>2023-07-30T10:29:31.000Z</time>
      </trkpt>
      <trkpt lat="43.71635" lon="7.08018">
        <ele>295</ele>
        <time>2023-07-30T10:29:32.000Z</time>
      </trkpt>
      <trkpt lat="43.71635" lon="7.08018">
        <ele>295</ele>
        <time>2023-07-30T10:29:33.000Z</time>
      </trkpt>
      <trkpt lat="43.71635" lon="7.08018">
        <ele>295</ele>
        <time>2023-07-30T10:29:34.000Z</time>
      </trkpt>
      <trkpt lat="43.71635" lon="7.08018">
        <ele>295</ele>
        <time>2023-07-30T10:29:35.000Z</time>
      </trkpt>
      <trkpt lat="43.71635" lon="7.08018">
        <ele>294.79998779297</ele>
        <time>2023-07-30T10:29:36.000Z</time>
      </trkpt>
      <trkpt lat="43.71635" lon="7.08018">
        <ele>294.79998779297</ele>
        <time>2023-07-30T10:29:37.000Z</time>
      </trkpt>
      <trkpt lat="43.71634" lon="7.08016">
        <ele>294.79998779297</ele>
        <time>2023-07-30T10:29:38.000Z</time>
      </trkpt>
      <trkpt lat="43.71634" lon="7.08013">
        <ele>294.79998779297</ele>
        <time>2023-07-30T10:29:39.000Z</time>
      </trkpt>
      <trkpt lat="43.71635" lon="7.08009">
        <ele>294.79998779297</ele>
        <time>2023-07-30T10:29:40.000Z</time>
      </trkpt>
      <trkpt lat="43.71636" lon="7.08004">
        <ele>294.60000610352</ele>
        <time>2023-07-30T10:29:41.000Z</time>
      </trkpt>
      <trkpt lat="43.71638" lon="7.07999">
        <ele>294.39999389648</ele>
        <time>2023-07-30T10:29:42.000Z</time>
      </trkpt>
      <trkpt lat="43.71638" lon="7.07993">
        <ele>294.20001220703</ele>
        <time>2023-07-30T10:29:43.000Z</time>
      </trkpt>
      <trkpt lat="43.71639" lon="7.07987">
        <ele>294.20001220703</ele>
        <time>2023-07-30T10:29:44.000Z</time>
      </trkpt>
      <trkpt lat="43.71638" lon="7.07983">
        <ele>294.20001220703</ele>
        <time>2023-07-30T10:29:45.000Z</time>
      </trkpt>
      <trkpt lat="43.71637" lon="7.0798">
        <ele>293.60000610352</ele>
        <time>2023-07-30T10:29:46.000Z</time>
      </trkpt>
      <trkpt lat="43.71635" lon="7.07978">
        <ele>292.79998779297</ele>
        <time>2023-07-30T10:29:47.000Z</time>
      </trkpt>
      <trkpt lat="43.71633" lon="7.07979">
        <ele>292</ele>
        <time>2023-07-30T10:29:48.000Z</time>
      </trkpt>
      <trkpt lat="43.71632" lon="7.07981">
        <ele>291.39999389648</ele>
        <time>2023-07-30T10:29:49.000Z</time>
      </trkpt>
      <trkpt lat="43.71631" lon="7.07982">
        <ele>291.20001220703</ele>
        <time>2023-07-30T10:29:50.000Z</time>
      </trkpt>
      <trkpt lat="43.71631" lon="7.07982">
        <ele>291</ele>
        <time>2023-07-30T10:29:51.000Z</time>
      </trkpt>
      <trkpt lat="43.71631" lon="7.07982">
        <ele>290.60000610352</ele>
        <time>2023-07-30T10:29:52.000Z</time>
      </trkpt>
      <trkpt lat="43.71631" lon="7.07982">
        <ele>290.60000610352</ele>
        <time>2023-07-30T10:29:53.000Z</time>
      </trkpt>
      <trkpt lat="43.71631" lon="7.07981">
        <ele>290.60000610352</ele>
        <time>2023-07-30T10:29:54.000Z</time>
      </trkpt>
      <trkpt lat="43.71631" lon="7.07982">
        <ele>290.60000610352</ele>
        <time>2023-07-30T10:29:55.000Z</time>
      </trkpt>
      <trkpt lat="43.71631" lon="7.07981">
        <ele>290.60000610352</ele>
        <time>2023-07-30T10:29:56.000Z</time>
      </trkpt>
      <trkpt lat="43.71631" lon="7.0798">
        <ele>290.60000610352</ele>
        <time>2023-07-30T10:29:57.000Z</time>
      </trkpt>
      <trkpt lat="43.71631" lon="7.0798">
        <ele>290.60000610352</ele>
        <time>2023-07-30T10:29:58.000Z</time>
      </trkpt>
      <trkpt lat="43.71631" lon="7.07979">
        <ele>290.39999389648</ele>
        <time>2023-07-30T10:29:59.000Z</time>
      </trkpt>
      <trkpt lat="43.71631" lon="7.07979">
        <ele>290.39999389648</ele>
        <time>2023-07-30T10:30:00.000Z</time>
      </trkpt>
      <trkpt lat="43.71632" lon="7.07979">
        <ele>290.20001220703</ele>
        <time>2023-07-30T10:30:01.000Z</time>
      </trkpt>
      <trkpt lat="43.71632" lon="7.07979">
        <ele>290.20001220703</ele>
        <time>2023-07-30T10:30:02.000Z</time>
      </trkpt>
      <trkpt lat="43.71632" lon="7.07979">
        <ele>290.20001220703</ele>
        <time>2023-07-30T10:30:03.000Z</time>
      </trkpt>
      <trkpt lat="43.71632" lon="7.07979">
        <ele>290.20001220703</ele>
        <time>2023-07-30T10:30:04.000Z</time>
      </trkpt>
      <trkpt lat="43.71632" lon="7.07979">
        <ele>290.20001220703</ele>
        <time>2023-07-30T10:30:05.000Z</time>
      </trkpt>
      <trkpt lat="43.71632" lon="7.07979">
        <ele>290</ele>
        <time>2023-07-30T10:30:06.000Z</time>
      </trkpt>
      <trkpt lat="43.71631" lon="7.07979">
        <ele>290</ele>
        <time>2023-07-30T10:30:07.000Z</time>
      </trkpt>
      <trkpt lat="43.71632" lon="7.07979">
        <ele>290</ele>
        <time>2023-07-30T10:30:08.000Z</time>
      </trkpt>
      <trkpt lat="43.71631" lon="7.07979">
        <ele>290</ele>
        <time>2023-07-30T10:30:09.000Z</time>
      </trkpt>
      <trkpt lat="43.71631" lon="7.07979">
        <ele>290</ele>
        <time>2023-07-30T10:30:10.000Z</time>
      </trkpt>
      <trkpt lat="43.71631" lon="7.07979">
        <ele>290</ele>
        <time>2023-07-30T10:30:11.000Z</time>
      </trkpt>
      <trkpt lat="43.71631" lon="7.0798">
        <ele>290</ele>
        <time>2023-07-30T10:30:12.000Z</time>
      </trkpt>
      <trkpt lat="43.71631" lon="7.0798">
        <ele>290.20001220703</ele>
        <time>2023-07-30T10:30:13.000Z</time>
      </trkpt>
      <trkpt lat="43.71631" lon="7.0798">
        <ele>290.20001220703</ele>
        <time>2023-07-30T10:30:14.000Z</time>
      </trkpt>
      <trkpt lat="43.71631" lon="7.0798">
        <ele>290</ele>
        <time>2023-07-30T10:30:15.000Z</time>
      </trkpt>
      <trkpt lat="43.71631" lon="7.07979">
        <ele>290</ele>
        <time>2023-07-30T10:30:16.000Z</time>
      </trkpt>
      <trkpt lat="43.71631" lon="7.07978">
        <ele>290</ele>
        <time>2023-07-30T10:30:17.000Z</time>
      </trkpt>
      <trkpt lat="43.71631" lon="7.07977">
        <ele>290.20001220703</ele>
        <time>2023-07-30T10:30:18.000Z</time>
      </trkpt>
      <trkpt lat="43.7163" lon="7.07977">
        <ele>290.39999389648</ele>
        <time>2023-07-30T10:30:19.000Z</time>
      </trkpt>
      <trkpt lat="43.7163" lon="7.07977">
        <ele>290.39999389648</ele>
        <time>2023-07-30T10:30:20.000Z</time>
      </trkpt>
      <trkpt lat="43.71631" lon="7.07976">
        <ele>290.39999389648</ele>
        <time>2023-07-30T10:30:21.000Z</time>
      </trkpt>
      <trkpt lat="43.71632" lon="7.07976">
        <ele>290.39999389648</ele>
        <time>2023-07-30T10:30:22.000Z</time>
      </trkpt>
      <trkpt lat="43.71632" lon="7.07977">
        <ele>290.39999389648</ele>
        <time>2023-07-30T10:30:23.000Z</time>
      </trkpt>
      <trkpt lat="43.71632" lon="7.07977">
        <ele>290.39999389648</ele>
        <time>2023-07-30T10:30:24.000Z</time>
      </trkpt>
      <trkpt lat="43.71633" lon="7.07978">
        <ele>290.20001220703</ele>
        <time>2023-07-30T10:30:25.000Z</time>
      </trkpt>
      <trkpt lat="43.71633" lon="7.07978">
        <ele>290.20001220703</ele>
        <time>2023-07-30T10:30:26.000Z</time>
      </trkpt>
      <trkpt lat="43.71633" lon="7.07979">
        <ele>290</ele>
        <time>2023-07-30T10:30:27.000Z</time>
      </trkpt>
      <trkpt lat="43.71634" lon="7.07979">
        <ele>290</ele>
        <time>2023-07-30T10:30:28.000Z</time>
      </trkpt>
      <trkpt lat="43.71634" lon="7.07979">
        <ele>289.79998779297</ele>
        <time>2023-07-30T10:30:29.000Z</time>
      </trkpt>
      <trkpt lat="43.71633" lon="7.0798">
        <ele>289.79998779297</ele>
        <time>2023-07-30T10:30:30.000Z</time>
      </trkpt>
      <trkpt lat="43.71633" lon="7.0798">
        <ele>289.79998779297</ele>
        <time>2023-07-30T10:30:31.000Z</time>
      </trkpt>
      <trkpt lat="43.71633" lon="7.0798">
        <ele>289.79998779297</ele>
        <time>2023-07-30T10:30:32.000Z</time>
      </trkpt>
      <trkpt lat="43.71633" lon="7.0798">
        <ele>289.79998779297</ele>
        <time>2023-07-30T10:30:33.000Z</time>
      </trkpt>
      <trkpt lat="43.71633" lon="7.07981">
        <ele>289.79998779297</ele>
        <time>2023-07-30T10:30:34.000Z</time>
      </trkpt>
      <trkpt lat="43.71633" lon="7.07981">
        <ele>289.79998779297</ele>
        <time>2023-07-30T10:30:35.000Z</time>
      </trkpt>
      <trkpt lat="43.71633" lon="7.07982">
        <ele>289.79998779297</ele>
        <time>2023-07-30T10:30:36.000Z</time>
      </trkpt>
      <trkpt lat="43.71632" lon="7.07982">
        <ele>289.79998779297</ele>
        <time>2023-07-30T10:30:37.000Z</time>
      </trkpt>
      <trkpt lat="43.71633" lon="7.07982">
        <ele>289.79998779297</ele>
        <time>2023-07-30T10:30:38.000Z</time>
      </trkpt>
      <trkpt lat="43.71633" lon="7.07982">
        <ele>289.79998779297</ele>
        <time>2023-07-30T10:30:39.000Z</time>
      </trkpt>
      <trkpt lat="43.71633" lon="7.07982">
        <ele>289.79998779297</ele>
        <time>2023-07-30T10:30:40.000Z</time>
      </trkpt>
      <trkpt lat="43.71633" lon="7.07982">
        <ele>289.79998779297</ele>
        <time>2023-07-30T10:30:41.000Z</time>
      </trkpt>
      <trkpt lat="43.71634" lon="7.07981">
        <ele>290.39999389648</ele>
        <time>2023-07-30T10:30:42.000Z</time>
      </trkpt>
      <trkpt lat="43.71634" lon="7.07981">
        <ele>290.39999389648</ele>
        <time>2023-07-30T10:30:43.000Z</time>
      </trkpt>
      <trkpt lat="43.71634" lon="7.07981">
        <ele>290.39999389648</ele>
        <time>2023-07-30T10:30:44.000Z</time>
      </trkpt>
      <trkpt lat="43.71634" lon="7.07981">
        <ele>290</ele>
        <time>2023-07-30T10:30:45.000Z</time>
      </trkpt>
      <trkpt lat="43.71634" lon="7.07981">
        <ele>290</ele>
        <time>2023-07-30T10:30:46.000Z</time>
      </trkpt>
      <trkpt lat="43.71634" lon="7.07981">
        <ele>290</ele>
        <time>2023-07-30T10:30:47.000Z</time>
      </trkpt>
      <trkpt lat="43.71634" lon="7.07981">
        <ele>290</ele>
        <time>2023-07-30T10:30:48.000Z</time>
      </trkpt>
      <trkpt lat="43.71634" lon="7.07982">
        <ele>290</ele>
        <time>2023-07-30T10:30:49.000Z</time>
      </trkpt>
      <trkpt lat="43.71633" lon="7.07982">
        <ele>289.79998779297</ele>
        <time>2023-07-30T10:30:50.000Z</time>
      </trkpt>
      <trkpt lat="43.71632" lon="7.07982">
        <ele>289.79998779297</ele>
        <time>2023-07-30T10:30:51.000Z</time>
      </trkpt>
      <trkpt lat="43.71631" lon="7.07982">
        <ele>289.60000610352</ele>
        <time>2023-07-30T10:30:52.000Z</time>
      </trkpt>
      <trkpt lat="43.7163" lon="7.07982">
        <ele>289.60000610352</ele>
        <time>2023-07-30T10:30:53.000Z</time>
      </trkpt>
      <trkpt lat="43.71628" lon="7.07982">
        <ele>289.60000610352</ele>
        <time>2023-07-30T10:30:54.000Z</time>
      </trkpt>
      <trkpt lat="43.71627" lon="7.07982">
        <ele>289.60000610352</ele>
        <time>2023-07-30T10:30:55.000Z</time>
      </trkpt>
      <trkpt lat="43.71626" lon="7.07983">
        <ele>289.60000610352</ele>
        <time>2023-07-30T10:30:56.000Z</time>
      </trkpt>
      <trkpt lat="43.71625" lon="7.07983">
        <ele>289.39999389648</ele>
        <time>2023-07-30T10:30:57.000Z</time>
      </trkpt>
      <trkpt lat="43.71624" lon="7.07983">
        <ele>289.39999389648</ele>
        <time>2023-07-30T10:30:58.000Z</time>
      </trkpt>
      <trkpt lat="43.71623" lon="7.07983">
        <ele>289.39999389648</ele>
        <time>2023-07-30T10:30:59.000Z</time>
      </trkpt>
      <trkpt lat="43.71623" lon="7.07983">
        <ele>289.39999389648</ele>
        <time>2023-07-30T10:31:00.000Z</time>
      </trkpt>
      <trkpt lat="43.71623" lon="7.07983">
        <ele>289.39999389648</ele>
        <time>2023-07-30T10:31:01.000Z</time>
      </trkpt>
      <trkpt lat="43.71622" lon="7.07983">
        <ele>289.39999389648</ele>
        <time>2023-07-30T10:31:02.000Z</time>
      </trkpt>
      <trkpt lat="43.71621" lon="7.07983">
        <ele>289.39999389648</ele>
        <time>2023-07-30T10:31:03.000Z</time>
      </trkpt>
      <trkpt lat="43.71621" lon="7.07984">
        <ele>289.39999389648</ele>
        <time>2023-07-30T10:31:04.000Z</time>
      </trkpt>
      <trkpt lat="43.7162" lon="7.07984">
        <ele>289.60000610352</ele>
        <time>2023-07-30T10:31:05.000Z</time>
      </trkpt>
      <trkpt lat="43.7162" lon="7.07984">
        <ele>289.79998779297</ele>
        <time>2023-07-30T10:31:06.000Z</time>
      </trkpt>
      <trkpt lat="43.7162" lon="7.07985">
        <ele>290</ele>
        <time>2023-07-30T10:31:07.000Z</time>
      </trkpt>
      <trkpt lat="43.7162" lon="7.07986">
        <ele>290.39999389648</ele>
        <time>2023-07-30T10:31:08.000Z</time>
      </trkpt>
      <trkpt lat="43.71621" lon="7.07987">
        <ele>290.39999389648</ele>
        <time>2023-07-30T10:31:09.000Z</time>
      </trkpt>
      <trkpt lat="43.71621" lon="7.07987">
        <ele>290.79998779297</ele>
        <time>2023-07-30T10:31:10.000Z</time>
      </trkpt>
      <trkpt lat="43.71622" lon="7.07988">
        <ele>291</ele>
        <time>2023-07-30T10:31:11.000Z</time>
      </trkpt>
      <trkpt lat="43.71623" lon="7.07989">
        <ele>291.39999389648</ele>
        <time>2023-07-30T10:31:12.000Z</time>
      </trkpt>
      <trkpt lat="43.71624" lon="7.07989">
        <ele>291.39999389648</ele>
        <time>2023-07-30T10:31:13.000Z</time>
      </trkpt>
      <trkpt lat="43.71624" lon="7.0799">
        <ele>291.79998779297</ele>
        <time>2023-07-30T10:31:14.000Z</time>
      </trkpt>
      <trkpt lat="43.71625" lon="7.07991">
        <ele>291.79998779297</ele>
        <time>2023-07-30T10:31:15.000Z</time>
      </trkpt>
      <trkpt lat="43.71626" lon="7.07992">
        <ele>291.79998779297</ele>
        <time>2023-07-30T10:31:16.000Z</time>
      </trkpt>
      <trkpt lat="43.71626" lon="7.07992">
        <ele>292</ele>
        <time>2023-07-30T10:31:17.000Z</time>
      </trkpt>
      <trkpt lat="43.71626" lon="7.07992">
        <ele>292</ele>
        <time>2023-07-30T10:31:18.000Z</time>
      </trkpt>
      <trkpt lat="43.71625" lon="7.07993">
        <ele>292.20001220703</ele>
        <time>2023-07-30T10:31:19.000Z</time>
      </trkpt>
      <trkpt lat="43.71625" lon="7.07994">
        <ele>292.39999389648</ele>
        <time>2023-07-30T10:31:20.000Z</time>
      </trkpt>
      <trkpt lat="43.71626" lon="7.07994">
        <ele>292.39999389648</ele>
        <time>2023-07-30T10:31:21.000Z</time>
      </trkpt>
      <trkpt lat="43.71626" lon="7.07995">
        <ele>292.60000610352</ele>
        <time>2023-07-30T10:31:22.000Z</time>
      </trkpt>
      <trkpt lat="43.71626" lon="7.07996">
        <ele>292.60000610352</ele>
        <time>2023-07-30T10:31:23.000Z</time>
      </trkpt>
      <trkpt lat="43.71626" lon="7.07996">
        <ele>292.60000610352</ele>
        <time>2023-07-30T10:31:24.000Z</time>
      </trkpt>
      <trkpt lat="43.71626" lon="7.07997">
        <ele>292.79998779297</ele>
        <time>2023-07-30T10:31:25.000Z</time>
      </trkpt>
      <trkpt lat="43.71627" lon="7.07996">
        <ele>292.79998779297</ele>
        <time>2023-07-30T10:31:26.000Z</time>
      </trkpt>
      <trkpt lat="43.71627" lon="7.07996">
        <ele>293.20001220703</ele>
        <time>2023-07-30T10:31:27.000Z</time>
      </trkpt>
      <trkpt lat="43.71628" lon="7.07996">
        <ele>293.20001220703</ele>
        <time>2023-07-30T10:31:28.000Z</time>
      </trkpt>
      <trkpt lat="43.71629" lon="7.07996">
        <ele>293.20001220703</ele>
        <time>2023-07-30T10:31:29.000Z</time>
      </trkpt>
      <trkpt lat="43.71629" lon="7.07996">
        <ele>293.20001220703</ele>
        <time>2023-07-30T10:31:30.000Z</time>
      </trkpt>
      <trkpt lat="43.71629" lon="7.07997">
        <ele>293.20001220703</ele>
        <time>2023-07-30T10:31:31.000Z</time>
      </trkpt>
      <trkpt lat="43.71629" lon="7.07997">
        <ele>293</ele>
        <time>2023-07-30T10:31:32.000Z</time>
      </trkpt>
      <trkpt lat="43.71629" lon="7.07998">
        <ele>293</ele>
        <time>2023-07-30T10:31:33.000Z</time>
      </trkpt>
      <trkpt lat="43.71629" lon="7.07997">
        <ele>292.79998779297</ele>
        <time>2023-07-30T10:31:34.000Z</time>
      </trkpt>
      <trkpt lat="43.7163" lon="7.07997">
        <ele>292.79998779297</ele>
        <time>2023-07-30T10:31:35.000Z</time>
      </trkpt>
      <trkpt lat="43.71631" lon="7.07997">
        <ele>292.79998779297</ele>
        <time>2023-07-30T10:31:36.000Z</time>
      </trkpt>
      <trkpt lat="43.71631" lon="7.07998">
        <ele>292.79998779297</ele>
        <time>2023-07-30T10:31:37.000Z</time>
      </trkpt>
      <trkpt lat="43.71631" lon="7.07997">
        <ele>293</ele>
        <time>2023-07-30T10:31:38.000Z</time>
      </trkpt>
      <trkpt lat="43.71631" lon="7.07997">
        <ele>293</ele>
        <time>2023-07-30T10:31:39.000Z</time>
      </trkpt>
      <trkpt lat="43.7163" lon="7.07997">
        <ele>292.79998779297</ele>
        <time>2023-07-30T10:31:40.000Z</time>
      </trkpt>
      <trkpt lat="43.7163" lon="7.07997">
        <ele>292.79998779297</ele>
        <time>2023-07-30T10:31:41.000Z</time>
      </trkpt>
      <trkpt lat="43.7163" lon="7.07997">
        <ele>292.79998779297</ele>
        <time>2023-07-30T10:31:42.000Z</time>
      </trkpt>
      <trkpt lat="43.71629" lon="7.07997">
        <ele>292.79998779297</ele>
        <time>2023-07-30T10:31:43.000Z</time>
      </trkpt>
      <trkpt lat="43.71629" lon="7.07996">
        <ele>293</ele>
        <time>2023-07-30T10:31:44.000Z</time>
      </trkpt>
      <trkpt lat="43.71628" lon="7.07995">
        <ele>292.79998779297</ele>
        <time>2023-07-30T10:31:45.000Z</time>
      </trkpt>
      <trkpt lat="43.71628" lon="7.07995">
        <ele>292.79998779297</ele>
        <time>2023-07-30T10:31:46.000Z</time>
      </trkpt>
      <trkpt lat="43.71627" lon="7.07995">
        <ele>292.79998779297</ele>
        <time>2023-07-30T10:31:47.000Z</time>
      </trkpt>
      <trkpt lat="43.71627" lon="7.07995">
        <ele>292.79998779297</ele>
        <time>2023-07-30T10:31:48.000Z</time>
      </trkpt>
      <trkpt lat="43.71627" lon="7.07994">
        <ele>292.79998779297</ele>
        <time>2023-07-30T10:31:49.000Z</time>
      </trkpt>
      <trkpt lat="43.71627" lon="7.07994">
        <ele>292.79998779297</ele>
        <time>2023-07-30T10:31:50.000Z</time>
      </trkpt>
      <trkpt lat="43.71628" lon="7.07994">
        <ele>292.79998779297</ele>
        <time>2023-07-30T10:31:51.000Z</time>
      </trkpt>
      <trkpt lat="43.71628" lon="7.07994">
        <ele>292.60000610352</ele>
        <time>2023-07-30T10:31:52.000Z</time>
      </trkpt>
      <trkpt lat="43.71627" lon="7.07993">
        <ele>292.79998779297</ele>
        <time>2023-07-30T10:31:53.000Z</time>
      </trkpt>
      <trkpt lat="43.71627" lon="7.07994">
        <ele>292.79998779297</ele>
        <time>2023-07-30T10:31:54.000Z</time>
      </trkpt>
      <trkpt lat="43.71627" lon="7.07994">
        <ele>292.79998779297</ele>
        <time>2023-07-30T10:31:55.000Z</time>
      </trkpt>
      <trkpt lat="43.71627" lon="7.07994">
        <ele>292.79998779297</ele>
        <time>2023-07-30T10:31:56.000Z</time>
      </trkpt>
      <trkpt lat="43.71627" lon="7.07994">
        <ele>292.79998779297</ele>
        <time>2023-07-30T10:31:57.000Z</time>
      </trkpt>
      <trkpt lat="43.71628" lon="7.07995">
        <ele>292.79998779297</ele>
        <time>2023-07-30T10:31:58.000Z</time>
      </trkpt>
      <trkpt lat="43.71627" lon="7.07995">
        <ele>292.79998779297</ele>
        <time>2023-07-30T10:31:59.000Z</time>
      </trkpt>
      <trkpt lat="43.71627" lon="7.07995">
        <ele>292.79998779297</ele>
        <time>2023-07-30T10:32:00.000Z</time>
      </trkpt>
      <trkpt lat="43.71626" lon="7.07994">
        <ele>292.79998779297</ele>
        <time>2023-07-30T10:32:01.000Z</time>
      </trkpt>
      <trkpt lat="43.71626" lon="7.07995">
        <ele>292.79998779297</ele>
        <time>2023-07-30T10:32:02.000Z</time>
      </trkpt>
      <trkpt lat="43.71626" lon="7.07995">
        <ele>292.79998779297</ele>
        <time>2023-07-30T10:32:03.000Z</time>
      </trkpt>
      <trkpt lat="43.71626" lon="7.07994">
        <ele>292.79998779297</ele>
        <time>2023-07-30T10:32:04.000Z</time>
      </trkpt>
      <trkpt lat="43.71626" lon="7.07994">
        <ele>292.79998779297</ele>
        <time>2023-07-30T10:32:05.000Z</time>
      </trkpt>
      <trkpt lat="43.71626" lon="7.07994">
        <ele>292.79998779297</ele>
        <time>2023-07-30T10:32:06.000Z</time>
      </trkpt>
      <trkpt lat="43.71626" lon="7.07993">
        <ele>292.79998779297</ele>
        <time>2023-07-30T10:32:07.000Z</time>
      </trkpt>
      <trkpt lat="43.71625" lon="7.07992">
        <ele>292.79998779297</ele>
        <time>2023-07-30T10:32:08.000Z</time>
      </trkpt>
      <trkpt lat="43.71625" lon="7.07992">
        <ele>292.79998779297</ele>
        <time>2023-07-30T10:32:09.000Z</time>
      </trkpt>
      <trkpt lat="43.71625" lon="7.07992">
        <ele>292.79998779297</ele>
        <time>2023-07-30T10:32:10.000Z</time>
      </trkpt>
      <trkpt lat="43.71625" lon="7.07992">
        <ele>292.79998779297</ele>
        <time>2023-07-30T10:32:11.000Z</time>
      </trkpt>
      <trkpt lat="43.71624" lon="7.07991">
        <ele>292.79998779297</ele>
        <time>2023-07-30T10:32:12.000Z</time>
      </trkpt>
      <trkpt lat="43.71624" lon="7.07991">
        <ele>292.79998779297</ele>
        <time>2023-07-30T10:32:13.000Z</time>
      </trkpt>
      <trkpt lat="43.71624" lon="7.07991">
        <ele>292.79998779297</ele>
        <time>2023-07-30T10:32:14.000Z</time>
      </trkpt>
      <trkpt lat="43.71624" lon="7.07991">
        <ele>292.60000610352</ele>
        <time>2023-07-30T10:32:15.000Z</time>
      </trkpt>
      <trkpt lat="43.71624" lon="7.07991">
        <ele>292.60000610352</ele>
        <time>2023-07-30T10:32:16.000Z</time>
      </trkpt>
      <trkpt lat="43.71624" lon="7.07991">
        <ele>292.60000610352</ele>
        <time>2023-07-30T10:32:17.000Z</time>
      </trkpt>
      <trkpt lat="43.71624" lon="7.07991">
        <ele>292.60000610352</ele>
        <time>2023-07-30T10:32:18.000Z</time>
      </trkpt>
      <trkpt lat="43.71624" lon="7.07991">
        <ele>292.60000610352</ele>
        <time>2023-07-30T10:32:19.000Z</time>
      </trkpt>
      <trkpt lat="43.71624" lon="7.07992">
        <ele>292.39999389648</ele>
        <time>2023-07-30T10:32:20.000Z</time>
      </trkpt>
      <trkpt lat="43.71624" lon="7.07992">
        <ele>292.39999389648</ele>
        <time>2023-07-30T10:32:21.000Z</time>
      </trkpt>
      <trkpt lat="43.71623" lon="7.07993">
        <ele>292.39999389648</ele>
        <time>2023-07-30T10:32:22.000Z</time>
      </trkpt>
      <trkpt lat="43.71623" lon="7.07993">
        <ele>292.39999389648</ele>
        <time>2023-07-30T10:32:23.000Z</time>
      </trkpt>
      <trkpt lat="43.71624" lon="7.07993">
        <ele>292.39999389648</ele>
        <time>2023-07-30T10:32:24.000Z</time>
      </trkpt>
      <trkpt lat="43.71624" lon="7.07993">
        <ele>292.39999389648</ele>
        <time>2023-07-30T10:32:25.000Z</time>
      </trkpt>
      <trkpt lat="43.71624" lon="7.07993">
        <ele>292.39999389648</ele>
        <time>2023-07-30T10:32:26.000Z</time>
      </trkpt>
      <trkpt lat="43.71624" lon="7.07993">
        <ele>292.39999389648</ele>
        <time>2023-07-30T10:32:27.000Z</time>
      </trkpt>
      <trkpt lat="43.71624" lon="7.07993">
        <ele>292.39999389648</ele>
        <time>2023-07-30T10:32:28.000Z</time>
      </trkpt>
      <trkpt lat="43.71624" lon="7.07993">
        <ele>292.39999389648</ele>
        <time>2023-07-30T10:32:29.000Z</time>
      </trkpt>
      <trkpt lat="43.71624" lon="7.07993">
        <ele>292.39999389648</ele>
        <time>2023-07-30T10:32:30.000Z</time>
      </trkpt>
      <trkpt lat="43.71624" lon="7.07993">
        <ele>292.39999389648</ele>
        <time>2023-07-30T10:32:31.000Z</time>
      </trkpt>
      <trkpt lat="43.71624" lon="7.07993">
        <ele>292.39999389648</ele>
        <time>2023-07-30T10:32:32.000Z</time>
      </trkpt>
      <trkpt lat="43.71624" lon="7.07994">
        <ele>292.39999389648</ele>
        <time>2023-07-30T10:32:33.000Z</time>
      </trkpt>
      <trkpt lat="43.71624" lon="7.07994">
        <ele>292.39999389648</ele>
        <time>2023-07-30T10:32:34.000Z</time>
      </trkpt>
      <trkpt lat="43.71624" lon="7.07993">
        <ele>292.39999389648</ele>
        <time>2023-07-30T10:32:35.000Z</time>
      </trkpt>
      <trkpt lat="43.71624" lon="7.07993">
        <ele>292.39999389648</ele>
        <time>2023-07-30T10:32:36.000Z</time>
      </trkpt>
      <trkpt lat="43.71624" lon="7.07993">
        <ele>292.39999389648</ele>
        <time>2023-07-30T10:32:37.000Z</time>
      </trkpt>
      <trkpt lat="43.71624" lon="7.07993">
        <ele>292.39999389648</ele>
        <time>2023-07-30T10:32:38.000Z</time>
      </trkpt>
      <trkpt lat="43.71625" lon="7.07994">
        <ele>292.39999389648</ele>
        <time>2023-07-30T10:32:39.000Z</time>
      </trkpt>
      <trkpt lat="43.71625" lon="7.07994">
        <ele>292.39999389648</ele>
        <time>2023-07-30T10:32:40.000Z</time>
      </trkpt>
      <trkpt lat="43.71625" lon="7.07994">
        <ele>292.39999389648</ele>
        <time>2023-07-30T10:32:41.000Z</time>
      </trkpt>
      <trkpt lat="43.71625" lon="7.07995">
        <ele>292.39999389648</ele>
        <time>2023-07-30T10:32:42.000Z</time>
      </trkpt>
      <trkpt lat="43.71625" lon="7.07995">
        <ele>292.39999389648</ele>
        <time>2023-07-30T10:32:43.000Z</time>
      </trkpt>
      <trkpt lat="43.71625" lon="7.07995">
        <ele>292.39999389648</ele>
        <time>2023-07-30T10:32:44.000Z</time>
      </trkpt>
      <trkpt lat="43.71625" lon="7.07995">
        <ele>292.39999389648</ele>
        <time>2023-07-30T10:32:45.000Z</time>
      </trkpt>
      <trkpt lat="43.71625" lon="7.07995">
        <ele>292.39999389648</ele>
        <time>2023-07-30T10:32:46.000Z</time>
      </trkpt>
      <trkpt lat="43.71625" lon="7.07995">
        <ele>292.39999389648</ele>
        <time>2023-07-30T10:32:47.000Z</time>
      </trkpt>
      <trkpt lat="43.71626" lon="7.07995">
        <ele>292.39999389648</ele>
        <time>2023-07-30T10:32:48.000Z</time>
      </trkpt>
      <trkpt lat="43.71626" lon="7.07995">
        <ele>292.39999389648</ele>
        <time>2023-07-30T10:32:49.000Z</time>
      </trkpt>
      <trkpt lat="43.71626" lon="7.07995">
        <ele>292.39999389648</ele>
        <time>2023-07-30T10:32:50.000Z</time>
      </trkpt>
      <trkpt lat="43.71626" lon="7.07995">
        <ele>292.39999389648</ele>
        <time>2023-07-30T10:32:51.000Z</time>
      </trkpt>
      <trkpt lat="43.71626" lon="7.07995">
        <ele>292.39999389648</ele>
        <time>2023-07-30T10:32:52.000Z</time>
      </trkpt>
      <trkpt lat="43.71625" lon="7.07995">
        <ele>292.39999389648</ele>
        <time>2023-07-30T10:32:53.000Z</time>
      </trkpt>
      <trkpt lat="43.71625" lon="7.07995">
        <ele>292.39999389648</ele>
        <time>2023-07-30T10:32:54.000Z</time>
      </trkpt>
      <trkpt lat="43.71625" lon="7.07995">
        <ele>292.39999389648</ele>
        <time>2023-07-30T10:32:55.000Z</time>
      </trkpt>
      <trkpt lat="43.71625" lon="7.07995">
        <ele>292.39999389648</ele>
        <time>2023-07-30T10:32:56.000Z</time>
      </trkpt>
      <trkpt lat="43.71625" lon="7.07995">
        <ele>292.39999389648</ele>
        <time>2023-07-30T10:32:57.000Z</time>
      </trkpt>
      <trkpt lat="43.71625" lon="7.07995">
        <ele>292.39999389648</ele>
        <time>2023-07-30T10:32:58.000Z</time>
      </trkpt>
      <trkpt lat="43.71625" lon="7.07995">
        <ele>292.39999389648</ele>
        <time>2023-07-30T10:32:59.000Z</time>
      </trkpt>
      <trkpt lat="43.71625" lon="7.07995">
        <ele>292.39999389648</ele>
        <time>2023-07-30T10:33:00.000Z</time>
      </trkpt>
      <trkpt lat="43.71625" lon="7.07995">
        <ele>292.39999389648</ele>
        <time>2023-07-30T10:33:01.000Z</time>
      </trkpt>
      <trkpt lat="43.71625" lon="7.07995">
        <ele>292.39999389648</ele>
        <time>2023-07-30T10:33:02.000Z</time>
      </trkpt>
      <trkpt lat="43.71625" lon="7.07995">
        <ele>292.39999389648</ele>
        <time>2023-07-30T10:33:03.000Z</time>
      </trkpt>
      <trkpt lat="43.71625" lon="7.07995">
        <ele>292.39999389648</ele>
        <time>2023-07-30T10:33:04.000Z</time>
      </trkpt>
      <trkpt lat="43.71625" lon="7.07995">
        <ele>292.39999389648</ele>
        <time>2023-07-30T10:33:05.000Z</time>
      </trkpt>
      <trkpt lat="43.71625" lon="7.07996">
        <ele>292.39999389648</ele>
        <time>2023-07-30T10:33:06.000Z</time>
      </trkpt>
      <trkpt lat="43.71625" lon="7.07995">
        <ele>292.39999389648</ele>
        <time>2023-07-30T10:33:07.000Z</time>
      </trkpt>
      <trkpt lat="43.71625" lon="7.07995">
        <ele>292.39999389648</ele>
        <time>2023-07-30T10:33:08.000Z</time>
      </trkpt>
      <trkpt lat="43.71625" lon="7.07995">
        <ele>292.39999389648</ele>
        <time>2023-07-30T10:33:09.000Z</time>
      </trkpt>
      <trkpt lat="43.71625" lon="7.07995">
        <ele>292.39999389648</ele>
        <time>2023-07-30T10:33:10.000Z</time>
      </trkpt>
      <trkpt lat="43.71625" lon="7.07994">
        <ele>292.39999389648</ele>
        <time>2023-07-30T10:33:11.000Z</time>
      </trkpt>
      <trkpt lat="43.71625" lon="7.07994">
        <ele>292.39999389648</ele>
        <time>2023-07-30T10:33:12.000Z</time>
      </trkpt>
      <trkpt lat="43.71625" lon="7.07994">
        <ele>292.39999389648</ele>
        <time>2023-07-30T10:33:13.000Z</time>
      </trkpt>
      <trkpt lat="43.71624" lon="7.07994">
        <ele>292.39999389648</ele>
        <time>2023-07-30T10:33:14.000Z</time>
      </trkpt>
      <trkpt lat="43.71624" lon="7.07994">
        <ele>292.39999389648</ele>
        <time>2023-07-30T10:33:15.000Z</time>
      </trkpt>
      <trkpt lat="43.71624" lon="7.07993">
        <ele>292.39999389648</ele>
        <time>2023-07-30T10:33:16.000Z</time>
      </trkpt>
      <trkpt lat="43.71624" lon="7.07993">
        <ele>292.39999389648</ele>
        <time>2023-07-30T10:33:17.000Z</time>
      </trkpt>
      <trkpt lat="43.71624" lon="7.07993">
        <ele>292.39999389648</ele>
        <time>2023-07-30T10:33:18.000Z</time>
      </trkpt>
      <trkpt lat="43.71624" lon="7.07993">
        <ele>292.39999389648</ele>
        <time>2023-07-30T10:33:19.000Z</time>
      </trkpt>
      <trkpt lat="43.71624" lon="7.07993">
        <ele>292.39999389648</ele>
        <time>2023-07-30T10:33:20.000Z</time>
      </trkpt>
      <trkpt lat="43.71624" lon="7.07993">
        <ele>292.39999389648</ele>
        <time>2023-07-30T10:33:21.000Z</time>
      </trkpt>
      <trkpt lat="43.71624" lon="7.07992">
        <ele>292.39999389648</ele>
        <time>2023-07-30T10:33:22.000Z</time>
      </trkpt>
      <trkpt lat="43.71624" lon="7.07993">
        <ele>292.39999389648</ele>
        <time>2023-07-30T10:33:23.000Z</time>
      </trkpt>
      <trkpt lat="43.71624" lon="7.07993">
        <ele>292.39999389648</ele>
        <time>2023-07-30T10:33:24.000Z</time>
      </trkpt>
      <trkpt lat="43.71624" lon="7.07993">
        <ele>292.39999389648</ele>
        <time>2023-07-30T10:33:25.000Z</time>
      </trkpt>
      <trkpt lat="43.71624" lon="7.07993">
        <ele>292.39999389648</ele>
        <time>2023-07-30T10:33:26.000Z</time>
      </trkpt>
      <trkpt lat="43.71624" lon="7.07993">
        <ele>292.39999389648</ele>
        <time>2023-07-30T10:33:27.000Z</time>
      </trkpt>
      <trkpt lat="43.71624" lon="7.07993">
        <ele>292.39999389648</ele>
        <time>2023-07-30T10:33:28.000Z</time>
      </trkpt>
      <trkpt lat="43.71624" lon="7.07993">
        <ele>292.39999389648</ele>
        <time>2023-07-30T10:33:29.000Z</time>
      </trkpt>
      <trkpt lat="43.71624" lon="7.07993">
        <ele>292.39999389648</ele>
        <time>2023-07-30T10:33:30.000Z</time>
      </trkpt>
      <trkpt lat="43.71624" lon="7.07992">
        <ele>292.39999389648</ele>
        <time>2023-07-30T10:33:31.000Z</time>
      </trkpt>
      <trkpt lat="43.71624" lon="7.07992">
        <ele>292.39999389648</ele>
        <time>2023-07-30T10:33:32.000Z</time>
      </trkpt>
      <trkpt lat="43.71624" lon="7.07992">
        <ele>292.39999389648</ele>
        <time>2023-07-30T10:33:33.000Z</time>
      </trkpt>
      <trkpt lat="43.71624" lon="7.07992">
        <ele>292.39999389648</ele>
        <time>2023-07-30T10:33:34.000Z</time>
      </trkpt>
      <trkpt lat="43.71624" lon="7.07993">
        <ele>292.39999389648</ele>
        <time>2023-07-30T10:33:35.000Z</time>
      </trkpt>
      <trkpt lat="43.71623" lon="7.07993">
        <ele>292.39999389648</ele>
        <time>2023-07-30T10:33:36.000Z</time>
      </trkpt>
      <trkpt lat="43.71623" lon="7.07993">
        <ele>292.39999389648</ele>
        <time>2023-07-30T10:33:37.000Z</time>
      </trkpt>
      <trkpt lat="43.71623" lon="7.07993">
        <ele>292.39999389648</ele>
        <time>2023-07-30T10:33:38.000Z</time>
      </trkpt>
      <trkpt lat="43.71623" lon="7.07993">
        <ele>292.39999389648</ele>
        <time>2023-07-30T10:33:39.000Z</time>
      </trkpt>
      <trkpt lat="43.71623" lon="7.07992">
        <ele>292.39999389648</ele>
        <time>2023-07-30T10:33:40.000Z</time>
      </trkpt>
      <trkpt lat="43.71623" lon="7.07992">
        <ele>292.39999389648</ele>
        <time>2023-07-30T10:33:41.000Z</time>
      </trkpt>
      <trkpt lat="43.71623" lon="7.07992">
        <ele>292.39999389648</ele>
        <time>2023-07-30T10:33:42.000Z</time>
      </trkpt>
      <trkpt lat="43.71623" lon="7.07992">
        <ele>292.39999389648</ele>
        <time>2023-07-30T10:33:43.000Z</time>
      </trkpt>
      <trkpt lat="43.71623" lon="7.07992">
        <ele>292.39999389648</ele>
        <time>2023-07-30T10:33:44.000Z</time>
      </trkpt>
      <trkpt lat="43.71623" lon="7.07992">
        <ele>292.39999389648</ele>
        <time>2023-07-30T10:33:45.000Z</time>
      </trkpt>
      <trkpt lat="43.71623" lon="7.07992">
        <ele>292.39999389648</ele>
        <time>2023-07-30T10:33:46.000Z</time>
      </trkpt>
      <trkpt lat="43.71623" lon="7.07992">
        <ele>292.39999389648</ele>
        <time>2023-07-30T10:33:47.000Z</time>
      </trkpt>
      <trkpt lat="43.71623" lon="7.07992">
        <ele>292.39999389648</ele>
        <time>2023-07-30T10:33:48.000Z</time>
      </trkpt>
      <trkpt lat="43.71623" lon="7.07992">
        <ele>292.39999389648</ele>
        <time>2023-07-30T10:33:49.000Z</time>
      </trkpt>
      <trkpt lat="43.71623" lon="7.07992">
        <ele>292.39999389648</ele>
        <time>2023-07-30T10:33:50.000Z</time>
      </trkpt>
      <trkpt lat="43.71624" lon="7.07992">
        <ele>292.39999389648</ele>
        <time>2023-07-30T10:33:51.000Z</time>
      </trkpt>
      <trkpt lat="43.71623" lon="7.07993">
        <ele>292.39999389648</ele>
        <time>2023-07-30T10:33:52.000Z</time>
      </trkpt>
      <trkpt lat="43.71623" lon="7.07992">
        <ele>292.39999389648</ele>
        <time>2023-07-30T10:33:53.000Z</time>
      </trkpt>
      <trkpt lat="43.71623" lon="7.07993">
        <ele>292.39999389648</ele>
        <time>2023-07-30T10:33:54.000Z</time>
      </trkpt>
      <trkpt lat="43.71623" lon="7.07992">
        <ele>292.39999389648</ele>
        <time>2023-07-30T10:33:55.000Z</time>
      </trkpt>
      <trkpt lat="43.71623" lon="7.07992">
        <ele>292.39999389648</ele>
        <time>2023-07-30T10:33:56.000Z</time>
      </trkpt>
      <trkpt lat="43.71623" lon="7.07992">
        <ele>292.39999389648</ele>
        <time>2023-07-30T10:33:57.000Z</time>
      </trkpt>
      <trkpt lat="43.71623" lon="7.07992">
        <ele>292.39999389648</ele>
        <time>2023-07-30T10:33:58.000Z</time>
      </trkpt>
      <trkpt lat="43.71623" lon="7.07992">
        <ele>292.39999389648</ele>
        <time>2023-07-30T10:33:59.000Z</time>
      </trkpt>
      <trkpt lat="43.71623" lon="7.07992">
        <ele>292.39999389648</ele>
        <time>2023-07-30T10:34:00.000Z</time>
      </trkpt>
      <trkpt lat="43.71623" lon="7.07993">
        <ele>292.39999389648</ele>
        <time>2023-07-30T10:34:01.000Z</time>
      </trkpt>
      <trkpt lat="43.71623" lon="7.07993">
        <ele>292.39999389648</ele>
        <time>2023-07-30T10:34:02.000Z</time>
      </trkpt>
      <trkpt lat="43.71623" lon="7.07993">
        <ele>292.39999389648</ele>
        <time>2023-07-30T10:34:03.000Z</time>
      </trkpt>
      <trkpt lat="43.71624" lon="7.07993">
        <ele>292.39999389648</ele>
        <time>2023-07-30T10:34:04.000Z</time>
      </trkpt>
      <trkpt lat="43.71624" lon="7.07993">
        <ele>292.39999389648</ele>
        <time>2023-07-30T10:34:05.000Z</time>
      </trkpt>
      <trkpt lat="43.71624" lon="7.07993">
        <ele>292.39999389648</ele>
        <time>2023-07-30T10:34:06.000Z</time>
      </trkpt>
      <trkpt lat="43.71623" lon="7.07993">
        <ele>292.39999389648</ele>
        <time>2023-07-30T10:34:07.000Z</time>
      </trkpt>
      <trkpt lat="43.71623" lon="7.07993">
        <ele>292.39999389648</ele>
        <time>2023-07-30T10:34:08.000Z</time>
      </trkpt>
      <trkpt lat="43.71623" lon="7.07993">
        <ele>292.39999389648</ele>
        <time>2023-07-30T10:34:09.000Z</time>
      </trkpt>
      <trkpt lat="43.71623" lon="7.07993">
        <ele>292.39999389648</ele>
        <time>2023-07-30T10:34:10.000Z</time>
      </trkpt>
      <trkpt lat="43.71623" lon="7.07993">
        <ele>292.39999389648</ele>
        <time>2023-07-30T10:34:11.000Z</time>
      </trkpt>
      <trkpt lat="43.71623" lon="7.07993">
        <ele>292.39999389648</ele>
        <time>2023-07-30T10:34:12.000Z</time>
      </trkpt>
      <trkpt lat="43.71623" lon="7.07993">
        <ele>292.39999389648</ele>
        <time>2023-07-30T10:34:13.000Z</time>
      </trkpt>
      <trkpt lat="43.71623" lon="7.07993">
        <ele>292.39999389648</ele>
        <time>2023-07-30T10:34:14.000Z</time>
      </trkpt>
      <trkpt lat="43.71623" lon="7.07993">
        <ele>292.39999389648</ele>
        <time>2023-07-30T10:34:15.000Z</time>
      </trkpt>
      <trkpt lat="43.71623" lon="7.07993">
        <ele>292.39999389648</ele>
        <time>2023-07-30T10:34:16.000Z</time>
      </trkpt>
      <trkpt lat="43.71623" lon="7.07993">
        <ele>292.39999389648</ele>
        <time>2023-07-30T10:34:17.000Z</time>
      </trkpt>
      <trkpt lat="43.71623" lon="7.07993">
        <ele>292.39999389648</ele>
        <time>2023-07-30T10:34:18.000Z</time>
      </trkpt>
      <trkpt lat="43.71623" lon="7.07993">
        <ele>292.39999389648</ele>
        <time>2023-07-30T10:34:19.000Z</time>
      </trkpt>
      <trkpt lat="43.71624" lon="7.07993">
        <ele>292.39999389648</ele>
        <time>2023-07-30T10:34:20.000Z</time>
      </trkpt>
      <trkpt lat="43.71624" lon="7.07992">
        <ele>292.39999389648</ele>
        <time>2023-07-30T10:34:21.000Z</time>
      </trkpt>
      <trkpt lat="43.71624" lon="7.07992">
        <ele>292.39999389648</ele>
        <time>2023-07-30T10:34:22.000Z</time>
      </trkpt>
      <trkpt lat="43.71624" lon="7.07992">
        <ele>292.39999389648</ele>
        <time>2023-07-30T10:34:23.000Z</time>
      </trkpt>
      <trkpt lat="43.71624" lon="7.07992">
        <ele>292.39999389648</ele>
        <time>2023-07-30T10:34:24.000Z</time>
      </trkpt>
      <trkpt lat="43.71624" lon="7.07992">
        <ele>292.39999389648</ele>
        <time>2023-07-30T10:34:25.000Z</time>
      </trkpt>
      <trkpt lat="43.71624" lon="7.07992">
        <ele>292.39999389648</ele>
        <time>2023-07-30T10:34:26.000Z</time>
      </trkpt>
      <trkpt lat="43.71624" lon="7.07993">
        <ele>292.39999389648</ele>
        <time>2023-07-30T10:34:27.000Z</time>
      </trkpt>
      <trkpt lat="43.71624" lon="7.07993">
        <ele>292.39999389648</ele>
        <time>2023-07-30T10:34:28.000Z</time>
      </trkpt>
      <trkpt lat="43.71624" lon="7.07992">
        <ele>292.39999389648</ele>
        <time>2023-07-30T10:34:29.000Z</time>
      </trkpt>
      <trkpt lat="43.71624" lon="7.07992">
        <ele>292.39999389648</ele>
        <time>2023-07-30T10:34:30.000Z</time>
      </trkpt>
      <trkpt lat="43.71624" lon="7.07993">
        <ele>292.39999389648</ele>
        <time>2023-07-30T10:34:31.000Z</time>
      </trkpt>
      <trkpt lat="43.71624" lon="7.07993">
        <ele>292.39999389648</ele>
        <time>2023-07-30T10:34:32.000Z</time>
      </trkpt>
      <trkpt lat="43.71624" lon="7.07993">
        <ele>292.39999389648</ele>
        <time>2023-07-30T10:34:33.000Z</time>
      </trkpt>
      <trkpt lat="43.71624" lon="7.07993">
        <ele>292.39999389648</ele>
        <time>2023-07-30T10:34:34.000Z</time>
      </trkpt>
      <trkpt lat="43.71624" lon="7.07993">
        <ele>292.39999389648</ele>
        <time>2023-07-30T10:34:35.000Z</time>
      </trkpt>
      <trkpt lat="43.71624" lon="7.07993">
        <ele>292.39999389648</ele>
        <time>2023-07-30T10:34:36.000Z</time>
      </trkpt>
      <trkpt lat="43.71625" lon="7.07993">
        <ele>292.39999389648</ele>
        <time>2023-07-30T10:34:37.000Z</time>
      </trkpt>
      <trkpt lat="43.71625" lon="7.07993">
        <ele>292.39999389648</ele>
        <time>2023-07-30T10:34:38.000Z</time>
      </trkpt>
      <trkpt lat="43.71625" lon="7.07993">
        <ele>292.39999389648</ele>
        <time>2023-07-30T10:34:39.000Z</time>
      </trkpt>
      <trkpt lat="43.71625" lon="7.07992">
        <ele>292.39999389648</ele>
        <time>2023-07-30T10:34:40.000Z</time>
      </trkpt>
      <trkpt lat="43.71625" lon="7.07992">
        <ele>292.39999389648</ele>
        <time>2023-07-30T10:34:41.000Z</time>
      </trkpt>
      <trkpt lat="43.71625" lon="7.07992">
        <ele>292.39999389648</ele>
        <time>2023-07-30T10:34:42.000Z</time>
      </trkpt>
      <trkpt lat="43.71624" lon="7.07992">
        <ele>292.39999389648</ele>
        <time>2023-07-30T10:34:43.000Z</time>
      </trkpt>
      <trkpt lat="43.71625" lon="7.07993">
        <ele>292.39999389648</ele>
        <time>2023-07-30T10:34:44.000Z</time>
      </trkpt>
      <trkpt lat="43.71624" lon="7.07992">
        <ele>292.39999389648</ele>
        <time>2023-07-30T10:34:45.000Z</time>
      </trkpt>
      <trkpt lat="43.71624" lon="7.07993">
        <ele>292.39999389648</ele>
        <time>2023-07-30T10:34:46.000Z</time>
      </trkpt>
      <trkpt lat="43.71625" lon="7.07993">
        <ele>292.39999389648</ele>
        <time>2023-07-30T10:34:47.000Z</time>
      </trkpt>
      <trkpt lat="43.71625" lon="7.07993">
        <ele>292.39999389648</ele>
        <time>2023-07-30T10:34:48.000Z</time>
      </trkpt>
      <trkpt lat="43.71625" lon="7.07993">
        <ele>292.39999389648</ele>
        <time>2023-07-30T10:34:49.000Z</time>
      </trkpt>
      <trkpt lat="43.71625" lon="7.07993">
        <ele>292.39999389648</ele>
        <time>2023-07-30T10:34:50.000Z</time>
      </trkpt>
      <trkpt lat="43.71625" lon="7.07993">
        <ele>292.39999389648</ele>
        <time>2023-07-30T10:34:51.000Z</time>
      </trkpt>
      <trkpt lat="43.71625" lon="7.07993">
        <ele>292.39999389648</ele>
        <time>2023-07-30T10:34:52.000Z</time>
      </trkpt>
      <trkpt lat="43.71625" lon="7.07993">
        <ele>292.39999389648</ele>
        <time>2023-07-30T10:34:53.000Z</time>
      </trkpt>
      <trkpt lat="43.71625" lon="7.07993">
        <ele>292.39999389648</ele>
        <time>2023-07-30T10:34:54.000Z</time>
      </trkpt>
      <trkpt lat="43.71625" lon="7.07993">
        <ele>292.39999389648</ele>
        <time>2023-07-30T10:34:55.000Z</time>
      </trkpt>
      <trkpt lat="43.71625" lon="7.07993">
        <ele>292.39999389648</ele>
        <time>2023-07-30T10:34:56.000Z</time>
      </trkpt>
      <trkpt lat="43.71625" lon="7.07994">
        <ele>292.39999389648</ele>
        <time>2023-07-30T10:34:57.000Z</time>
      </trkpt>
      <trkpt lat="43.71625" lon="7.07994">
        <ele>292.39999389648</ele>
        <time>2023-07-30T10:34:58.000Z</time>
      </trkpt>
      <trkpt lat="43.71625" lon="7.07994">
        <ele>292.39999389648</ele>
        <time>2023-07-30T10:34:59.000Z</time>
      </trkpt>
      <trkpt lat="43.71625" lon="7.07993">
        <ele>292.39999389648</ele>
        <time>2023-07-30T10:35:00.000Z</time>
      </trkpt>
      <trkpt lat="43.71625" lon="7.07993">
        <ele>292.39999389648</ele>
        <time>2023-07-30T10:35:01.000Z</time>
      </trkpt>
      <trkpt lat="43.71625" lon="7.07993">
        <ele>292.39999389648</ele>
        <time>2023-07-30T10:35:02.000Z</time>
      </trkpt>
      <trkpt lat="43.71625" lon="7.07993">
        <ele>292.39999389648</ele>
        <time>2023-07-30T10:35:03.000Z</time>
      </trkpt>
      <trkpt lat="43.71625" lon="7.07993">
        <ele>292.39999389648</ele>
        <time>2023-07-30T10:35:04.000Z</time>
      </trkpt>
      <trkpt lat="43.71625" lon="7.07993">
        <ele>292.39999389648</ele>
        <time>2023-07-30T10:35:05.000Z</time>
      </trkpt>
      <trkpt lat="43.71625" lon="7.07994">
        <ele>292.39999389648</ele>
        <time>2023-07-30T10:35:06.000Z</time>
      </trkpt>
      <trkpt lat="43.71626" lon="7.07994">
        <ele>292.39999389648</ele>
        <time>2023-07-30T10:35:07.000Z</time>
      </trkpt>
      <trkpt lat="43.71626" lon="7.07994">
        <ele>292.39999389648</ele>
        <time>2023-07-30T10:35:08.000Z</time>
      </trkpt>
      <trkpt lat="43.71625" lon="7.07994">
        <ele>292.39999389648</ele>
        <time>2023-07-30T10:35:09.000Z</time>
      </trkpt>
      <trkpt lat="43.71625" lon="7.07994">
        <ele>292.39999389648</ele>
        <time>2023-07-30T10:35:10.000Z</time>
      </trkpt>
      <trkpt lat="43.71625" lon="7.07994">
        <ele>292.39999389648</ele>
        <time>2023-07-30T10:35:11.000Z</time>
      </trkpt>
      <trkpt lat="43.71625" lon="7.07994">
        <ele>292.39999389648</ele>
        <time>2023-07-30T10:35:12.000Z</time>
      </trkpt>
      <trkpt lat="43.71625" lon="7.07994">
        <ele>292.39999389648</ele>
        <time>2023-07-30T10:35:13.000Z</time>
      </trkpt>
      <trkpt lat="43.71624" lon="7.07994">
        <ele>292.39999389648</ele>
        <time>2023-07-30T10:35:14.000Z</time>
      </trkpt>
      <trkpt lat="43.71624" lon="7.07993">
        <ele>292.39999389648</ele>
        <time>2023-07-30T10:35:15.000Z</time>
      </trkpt>
      <trkpt lat="43.71624" lon="7.07993">
        <ele>292.39999389648</ele>
        <time>2023-07-30T10:35:16.000Z</time>
      </trkpt>
      <trkpt lat="43.71624" lon="7.07993">
        <ele>292.39999389648</ele>
        <time>2023-07-30T10:35:17.000Z</time>
      </trkpt>
      <trkpt lat="43.71624" lon="7.07993">
        <ele>292.39999389648</ele>
        <time>2023-07-30T10:35:18.000Z</time>
      </trkpt>
      <trkpt lat="43.71624" lon="7.07993">
        <ele>292.39999389648</ele>
        <time>2023-07-30T10:35:19.000Z</time>
      </trkpt>
      <trkpt lat="43.71624" lon="7.07993">
        <ele>292.39999389648</ele>
        <time>2023-07-30T10:35:20.000Z</time>
      </trkpt>
      <trkpt lat="43.71625" lon="7.07993">
        <ele>292.39999389648</ele>
        <time>2023-07-30T10:35:21.000Z</time>
      </trkpt>
      <trkpt lat="43.71625" lon="7.07994">
        <ele>292.39999389648</ele>
        <time>2023-07-30T10:35:22.000Z</time>
      </trkpt>
      <trkpt lat="43.71625" lon="7.07994">
        <ele>292.39999389648</ele>
        <time>2023-07-30T10:35:23.000Z</time>
      </trkpt>
      <trkpt lat="43.71626" lon="7.07994">
        <ele>292.39999389648</ele>
        <time>2023-07-30T10:35:24.000Z</time>
      </trkpt>
      <trkpt lat="43.71626" lon="7.07994">
        <ele>292.39999389648</ele>
        <time>2023-07-30T10:35:25.000Z</time>
      </trkpt>
      <trkpt lat="43.71626" lon="7.07994">
        <ele>292.39999389648</ele>
        <time>2023-07-30T10:35:26.000Z</time>
      </trkpt>
      <trkpt lat="43.71626" lon="7.07994">
        <ele>292.39999389648</ele>
        <time>2023-07-30T10:35:27.000Z</time>
      </trkpt>
      <trkpt lat="43.71626" lon="7.07994">
        <ele>292.39999389648</ele>
        <time>2023-07-30T10:35:28.000Z</time>
      </trkpt>
      <trkpt lat="43.71627" lon="7.07994">
        <ele>292.39999389648</ele>
        <time>2023-07-30T10:35:29.000Z</time>
      </trkpt>
      <trkpt lat="43.71627" lon="7.07994">
        <ele>292.39999389648</ele>
        <time>2023-07-30T10:35:30.000Z</time>
      </trkpt>
      <trkpt lat="43.71627" lon="7.07993">
        <ele>292.39999389648</ele>
        <time>2023-07-30T10:35:31.000Z</time>
      </trkpt>
      <trkpt lat="43.71627" lon="7.07993">
        <ele>292.39999389648</ele>
        <time>2023-07-30T10:35:32.000Z</time>
      </trkpt>
      <trkpt lat="43.71627" lon="7.07994">
        <ele>292.39999389648</ele>
        <time>2023-07-30T10:35:33.000Z</time>
      </trkpt>
      <trkpt lat="43.71626" lon="7.07993">
        <ele>292.39999389648</ele>
        <time>2023-07-30T10:35:34.000Z</time>
      </trkpt>
      <trkpt lat="43.71626" lon="7.07994">
        <ele>292.39999389648</ele>
        <time>2023-07-30T10:35:35.000Z</time>
      </trkpt>
      <trkpt lat="43.71626" lon="7.07994">
        <ele>292.39999389648</ele>
        <time>2023-07-30T10:35:36.000Z</time>
      </trkpt>
      <trkpt lat="43.71626" lon="7.07994">
        <ele>292.39999389648</ele>
        <time>2023-07-30T10:35:37.000Z</time>
      </trkpt>
      <trkpt lat="43.71626" lon="7.07994">
        <ele>292.39999389648</ele>
        <time>2023-07-30T10:35:38.000Z</time>
      </trkpt>
      <trkpt lat="43.71626" lon="7.07994">
        <ele>292.39999389648</ele>
        <time>2023-07-30T10:35:39.000Z</time>
      </trkpt>
      <trkpt lat="43.71626" lon="7.07994">
        <ele>292.39999389648</ele>
        <time>2023-07-30T10:35:40.000Z</time>
      </trkpt>
      <trkpt lat="43.71626" lon="7.07994">
        <ele>292.39999389648</ele>
        <time>2023-07-30T10:35:41.000Z</time>
      </trkpt>
      <trkpt lat="43.71626" lon="7.07993">
        <ele>292.39999389648</ele>
        <time>2023-07-30T10:35:42.000Z</time>
      </trkpt>
      <trkpt lat="43.71626" lon="7.07993">
        <ele>292.39999389648</ele>
        <time>2023-07-30T10:35:43.000Z</time>
      </trkpt>
      <trkpt lat="43.71626" lon="7.07993">
        <ele>292.39999389648</ele>
        <time>2023-07-30T10:35:44.000Z</time>
      </trkpt>
      <trkpt lat="43.71626" lon="7.07993">
        <ele>292.39999389648</ele>
        <time>2023-07-30T10:35:45.000Z</time>
      </trkpt>
      <trkpt lat="43.71626" lon="7.07993">
        <ele>292.39999389648</ele>
        <time>2023-07-30T10:35:46.000Z</time>
      </trkpt>
      <trkpt lat="43.71627" lon="7.07993">
        <ele>292.39999389648</ele>
        <time>2023-07-30T10:35:47.000Z</time>
      </trkpt>
      <trkpt lat="43.71627" lon="7.07993">
        <ele>292.39999389648</ele>
        <time>2023-07-30T10:35:48.000Z</time>
      </trkpt>
      <trkpt lat="43.71627" lon="7.07993">
        <ele>292.39999389648</ele>
        <time>2023-07-30T10:35:49.000Z</time>
      </trkpt>
      <trkpt lat="43.71627" lon="7.07993">
        <ele>292.39999389648</ele>
        <time>2023-07-30T10:35:50.000Z</time>
      </trkpt>
      <trkpt lat="43.71627" lon="7.07993">
        <ele>292.39999389648</ele>
        <time>2023-07-30T10:35:51.000Z</time>
      </trkpt>
      <trkpt lat="43.71627" lon="7.07994">
        <ele>292.39999389648</ele>
        <time>2023-07-30T10:35:52.000Z</time>
      </trkpt>
      <trkpt lat="43.71627" lon="7.07994">
        <ele>292.39999389648</ele>
        <time>2023-07-30T10:35:53.000Z</time>
      </trkpt>
      <trkpt lat="43.71627" lon="7.07994">
        <ele>292.39999389648</ele>
        <time>2023-07-30T10:35:54.000Z</time>
      </trkpt>
      <trkpt lat="43.71627" lon="7.07994">
        <ele>292.39999389648</ele>
        <time>2023-07-30T10:35:55.000Z</time>
      </trkpt>
      <trkpt lat="43.71628" lon="7.07994">
        <ele>292.39999389648</ele>
        <time>2023-07-30T10:35:56.000Z</time>
      </trkpt>
      <trkpt lat="43.71628" lon="7.07994">
        <ele>292.39999389648</ele>
        <time>2023-07-30T10:35:57.000Z</time>
      </trkpt>
      <trkpt lat="43.71628" lon="7.07993">
        <ele>292.39999389648</ele>
        <time>2023-07-30T10:35:58.000Z</time>
      </trkpt>
      <trkpt lat="43.71628" lon="7.07993">
        <ele>292.39999389648</ele>
        <time>2023-07-30T10:35:59.000Z</time>
      </trkpt>
      <trkpt lat="43.71628" lon="7.07994">
        <ele>292.39999389648</ele>
        <time>2023-07-30T10:36:00.000Z</time>
      </trkpt>
      <trkpt lat="43.71628" lon="7.07994">
        <ele>292.39999389648</ele>
        <time>2023-07-30T10:36:01.000Z</time>
      </trkpt>
      <trkpt lat="43.71628" lon="7.07994">
        <ele>292.39999389648</ele>
        <time>2023-07-30T10:36:02.000Z</time>
      </trkpt>
      <trkpt lat="43.71627" lon="7.07993">
        <ele>292.39999389648</ele>
        <time>2023-07-30T10:36:03.000Z</time>
      </trkpt>
      <trkpt lat="43.71627" lon="7.07993">
        <ele>292.39999389648</ele>
        <time>2023-07-30T10:36:04.000Z</time>
      </trkpt>
      <trkpt lat="43.71627" lon="7.07994">
        <ele>292.39999389648</ele>
        <time>2023-07-30T10:36:05.000Z</time>
      </trkpt>
      <trkpt lat="43.71627" lon="7.07994">
        <ele>292.39999389648</ele>
        <time>2023-07-30T10:36:06.000Z</time>
      </trkpt>
      <trkpt lat="43.71627" lon="7.07994">
        <ele>292.39999389648</ele>
        <time>2023-07-30T10:36:07.000Z</time>
      </trkpt>
      <trkpt lat="43.71627" lon="7.07994">
        <ele>292.39999389648</ele>
        <time>2023-07-30T10:36:08.000Z</time>
      </trkpt>
      <trkpt lat="43.71627" lon="7.07994">
        <ele>292.39999389648</ele>
        <time>2023-07-30T10:36:09.000Z</time>
      </trkpt>
      <trkpt lat="43.71627" lon="7.07994">
        <ele>292.39999389648</ele>
        <time>2023-07-30T10:36:10.000Z</time>
      </trkpt>
      <trkpt lat="43.71627" lon="7.07994">
        <ele>292.39999389648</ele>
        <time>2023-07-30T10:36:11.000Z</time>
      </trkpt>
      <trkpt lat="43.71627" lon="7.07994">
        <ele>292.39999389648</ele>
        <time>2023-07-30T10:36:12.000Z</time>
      </trkpt>
      <trkpt lat="43.71627" lon="7.07994">
        <ele>292.39999389648</ele>
        <time>2023-07-30T10:36:13.000Z</time>
      </trkpt>
      <trkpt lat="43.71627" lon="7.07995">
        <ele>292.39999389648</ele>
        <time>2023-07-30T10:36:14.000Z</time>
      </trkpt>
      <trkpt lat="43.71627" lon="7.07995">
        <ele>292.39999389648</ele>
        <time>2023-07-30T10:36:15.000Z</time>
      </trkpt>
      <trkpt lat="43.71627" lon="7.07995">
        <ele>292.39999389648</ele>
        <time>2023-07-30T10:36:16.000Z</time>
      </trkpt>
      <trkpt lat="43.71627" lon="7.07995">
        <ele>292.39999389648</ele>
        <time>2023-07-30T10:36:17.000Z</time>
      </trkpt>
      <trkpt lat="43.71627" lon="7.07995">
        <ele>292.39999389648</ele>
        <time>2023-07-30T10:36:18.000Z</time>
      </trkpt>
      <trkpt lat="43.71627" lon="7.07995">
        <ele>292.39999389648</ele>
        <time>2023-07-30T10:36:19.000Z</time>
      </trkpt>
      <trkpt lat="43.71627" lon="7.07995">
        <ele>292.39999389648</ele>
        <time>2023-07-30T10:36:20.000Z</time>
      </trkpt>
      <trkpt lat="43.71627" lon="7.07995">
        <ele>292.39999389648</ele>
        <time>2023-07-30T10:36:21.000Z</time>
      </trkpt>
      <trkpt lat="43.71627" lon="7.07995">
        <ele>292.39999389648</ele>
        <time>2023-07-30T10:36:22.000Z</time>
      </trkpt>
      <trkpt lat="43.71627" lon="7.07994">
        <ele>292.39999389648</ele>
        <time>2023-07-30T10:36:23.000Z</time>
      </trkpt>
      <trkpt lat="43.71627" lon="7.07994">
        <ele>292.39999389648</ele>
        <time>2023-07-30T10:36:24.000Z</time>
      </trkpt>
      <trkpt lat="43.71627" lon="7.07994">
        <ele>292.39999389648</ele>
        <time>2023-07-30T10:36:25.000Z</time>
      </trkpt>
      <trkpt lat="43.71627" lon="7.07994">
        <ele>292.39999389648</ele>
        <time>2023-07-30T10:36:26.000Z</time>
      </trkpt>
      <trkpt lat="43.71627" lon="7.07994">
        <ele>292.39999389648</ele>
        <time>2023-07-30T10:36:27.000Z</time>
      </trkpt>
      <trkpt lat="43.71627" lon="7.07994">
        <ele>292.39999389648</ele>
        <time>2023-07-30T10:36:28.000Z</time>
      </trkpt>
      <trkpt lat="43.71627" lon="7.07994">
        <ele>292.39999389648</ele>
        <time>2023-07-30T10:36:29.000Z</time>
      </trkpt>
      <trkpt lat="43.71628" lon="7.07995">
        <ele>292.39999389648</ele>
        <time>2023-07-30T10:36:30.000Z</time>
      </trkpt>
      <trkpt lat="43.71627" lon="7.07994">
        <ele>292.39999389648</ele>
        <time>2023-07-30T10:36:31.000Z</time>
      </trkpt>
      <trkpt lat="43.71627" lon="7.07995">
        <ele>292.39999389648</ele>
        <time>2023-07-30T10:36:32.000Z</time>
      </trkpt>
      <trkpt lat="43.71627" lon="7.07995">
        <ele>292.39999389648</ele>
        <time>2023-07-30T10:36:33.000Z</time>
      </trkpt>
      <trkpt lat="43.71627" lon="7.07995">
        <ele>292.39999389648</ele>
        <time>2023-07-30T10:36:34.000Z</time>
      </trkpt>
      <trkpt lat="43.71627" lon="7.07995">
        <ele>292.39999389648</ele>
        <time>2023-07-30T10:36:35.000Z</time>
      </trkpt>
      <trkpt lat="43.71627" lon="7.07995">
        <ele>292.39999389648</ele>
        <time>2023-07-30T10:36:36.000Z</time>
      </trkpt>
      <trkpt lat="43.71627" lon="7.07995">
        <ele>292.39999389648</ele>
        <time>2023-07-30T10:36:37.000Z</time>
      </trkpt>
      <trkpt lat="43.71627" lon="7.07995">
        <ele>292.39999389648</ele>
        <time>2023-07-30T10:36:38.000Z</time>
      </trkpt>
      <trkpt lat="43.71627" lon="7.07995">
        <ele>292.39999389648</ele>
        <time>2023-07-30T10:36:39.000Z</time>
      </trkpt>
      <trkpt lat="43.71627" lon="7.07995">
        <ele>292.39999389648</ele>
        <time>2023-07-30T10:36:40.000Z</time>
      </trkpt>
      <trkpt lat="43.71627" lon="7.07995">
        <ele>292.39999389648</ele>
        <time>2023-07-30T10:36:41.000Z</time>
      </trkpt>
      <trkpt lat="43.71627" lon="7.07995">
        <ele>292.39999389648</ele>
        <time>2023-07-30T10:36:42.000Z</time>
      </trkpt>
      <trkpt lat="43.71627" lon="7.07995">
        <ele>292.39999389648</ele>
        <time>2023-07-30T10:36:43.000Z</time>
      </trkpt>
      <trkpt lat="43.71626" lon="7.07995">
        <ele>292.39999389648</ele>
        <time>2023-07-30T10:36:44.000Z</time>
      </trkpt>
      <trkpt lat="43.71626" lon="7.07995">
        <ele>292.39999389648</ele>
        <time>2023-07-30T10:36:45.000Z</time>
      </trkpt>
      <trkpt lat="43.71626" lon="7.07995">
        <ele>292.39999389648</ele>
        <time>2023-07-30T10:36:46.000Z</time>
      </trkpt>
      <trkpt lat="43.71626" lon="7.07996">
        <ele>292.39999389648</ele>
        <time>2023-07-30T10:36:47.000Z</time>
      </trkpt>
      <trkpt lat="43.71626" lon="7.07996">
        <ele>292.39999389648</ele>
        <time>2023-07-30T10:36:48.000Z</time>
      </trkpt>
      <trkpt lat="43.71626" lon="7.07996">
        <ele>292.39999389648</ele>
        <time>2023-07-30T10:36:49.000Z</time>
      </trkpt>
      <trkpt lat="43.71626" lon="7.07996">
        <ele>292.39999389648</ele>
        <time>2023-07-30T10:36:50.000Z</time>
      </trkpt>
      <trkpt lat="43.71626" lon="7.07996">
        <ele>292.39999389648</ele>
        <time>2023-07-30T10:36:51.000Z</time>
      </trkpt>
      <trkpt lat="43.71626" lon="7.07996">
        <ele>292.39999389648</ele>
        <time>2023-07-30T10:36:52.000Z</time>
      </trkpt>
      <trkpt lat="43.71626" lon="7.07996">
        <ele>292.39999389648</ele>
        <time>2023-07-30T10:36:53.000Z</time>
      </trkpt>
      <trkpt lat="43.71626" lon="7.07995">
        <ele>292.39999389648</ele>
        <time>2023-07-30T10:36:54.000Z</time>
      </trkpt>
      <trkpt lat="43.71626" lon="7.07995">
        <ele>292.39999389648</ele>
        <time>2023-07-30T10:36:55.000Z</time>
      </trkpt>
      <trkpt lat="43.71626" lon="7.07995">
        <ele>292.39999389648</ele>
        <time>2023-07-30T10:36:56.000Z</time>
      </trkpt>
      <trkpt lat="43.71626" lon="7.07995">
        <ele>292.39999389648</ele>
        <time>2023-07-30T10:36:57.000Z</time>
      </trkpt>
      <trkpt lat="43.71626" lon="7.07996">
        <ele>292.39999389648</ele>
        <time>2023-07-30T10:36:58.000Z</time>
      </trkpt>
      <trkpt lat="43.71626" lon="7.07996">
        <ele>292.39999389648</ele>
        <time>2023-07-30T10:36:59.000Z</time>
      </trkpt>
      <trkpt lat="43.71626" lon="7.07996">
        <ele>292.39999389648</ele>
        <time>2023-07-30T10:37:00.000Z</time>
      </trkpt>
      <trkpt lat="43.71626" lon="7.07996">
        <ele>292.39999389648</ele>
        <time>2023-07-30T10:37:01.000Z</time>
      </trkpt>
      <trkpt lat="43.71626" lon="7.07996">
        <ele>292.39999389648</ele>
        <time>2023-07-30T10:37:02.000Z</time>
      </trkpt>
      <trkpt lat="43.71626" lon="7.07996">
        <ele>292.39999389648</ele>
        <time>2023-07-30T10:37:03.000Z</time>
      </trkpt>
      <trkpt lat="43.71626" lon="7.07996">
        <ele>292.39999389648</ele>
        <time>2023-07-30T10:37:04.000Z</time>
      </trkpt>
      <trkpt lat="43.71626" lon="7.07996">
        <ele>292.39999389648</ele>
        <time>2023-07-30T10:37:05.000Z</time>
      </trkpt>
      <trkpt lat="43.71626" lon="7.07996">
        <ele>292.39999389648</ele>
        <time>2023-07-30T10:37:06.000Z</time>
      </trkpt>
      <trkpt lat="43.71626" lon="7.07996">
        <ele>292.39999389648</ele>
        <time>2023-07-30T10:37:07.000Z</time>
      </trkpt>
      <trkpt lat="43.71626" lon="7.07996">
        <ele>292.39999389648</ele>
        <time>2023-07-30T10:37:08.000Z</time>
      </trkpt>
      <trkpt lat="43.71626" lon="7.07996">
        <ele>292.39999389648</ele>
        <time>2023-07-30T10:37:09.000Z</time>
      </trkpt>
      <trkpt lat="43.71626" lon="7.07996">
        <ele>292.39999389648</ele>
        <time>2023-07-30T10:37:10.000Z</time>
      </trkpt>
      <trkpt lat="43.71626" lon="7.07996">
        <ele>292.39999389648</ele>
        <time>2023-07-30T10:37:11.000Z</time>
      </trkpt>
      <trkpt lat="43.71626" lon="7.07996">
        <ele>292.39999389648</ele>
        <time>2023-07-30T10:37:12.000Z</time>
      </trkpt>
      <trkpt lat="43.71626" lon="7.07996">
        <ele>292.39999389648</ele>
        <time>2023-07-30T10:37:13.000Z</time>
      </trkpt>
      <trkpt lat="43.71626" lon="7.07996">
        <ele>292.39999389648</ele>
        <time>2023-07-30T10:37:14.000Z</time>
      </trkpt>
      <trkpt lat="43.71627" lon="7.07996">
        <ele>292.39999389648</ele>
        <time>2023-07-30T10:37:15.000Z</time>
      </trkpt>
      <trkpt lat="43.71627" lon="7.07995">
        <ele>292.39999389648</ele>
        <time>2023-07-30T10:37:16.000Z</time>
      </trkpt>
      <trkpt lat="43.71627" lon="7.07995">
        <ele>292.39999389648</ele>
        <time>2023-07-30T10:37:17.000Z</time>
      </trkpt>
      <trkpt lat="43.71627" lon="7.07995">
        <ele>292.39999389648</ele>
        <time>2023-07-30T10:37:18.000Z</time>
      </trkpt>
      <trkpt lat="43.71627" lon="7.07995">
        <ele>292.39999389648</ele>
        <time>2023-07-30T10:37:19.000Z</time>
      </trkpt>
      <trkpt lat="43.71627" lon="7.07995">
        <ele>292.39999389648</ele>
        <time>2023-07-30T10:37:20.000Z</time>
      </trkpt>
      <trkpt lat="43.71627" lon="7.07996">
        <ele>292.39999389648</ele>
        <time>2023-07-30T10:37:21.000Z</time>
      </trkpt>
      <trkpt lat="43.71627" lon="7.07996">
        <ele>292.39999389648</ele>
        <time>2023-07-30T10:37:22.000Z</time>
      </trkpt>
      <trkpt lat="43.71627" lon="7.07996">
        <ele>292.39999389648</ele>
        <time>2023-07-30T10:37:23.000Z</time>
      </trkpt>
      <trkpt lat="43.71627" lon="7.07996">
        <ele>292.39999389648</ele>
        <time>2023-07-30T10:37:24.000Z</time>
      </trkpt>
      <trkpt lat="43.71627" lon="7.07996">
        <ele>292.39999389648</ele>
        <time>2023-07-30T10:37:25.000Z</time>
      </trkpt>
      <trkpt lat="43.71627" lon="7.07996">
        <ele>292.39999389648</ele>
        <time>2023-07-30T10:37:26.000Z</time>
      </trkpt>
      <trkpt lat="43.71627" lon="7.07996">
        <ele>292.39999389648</ele>
        <time>2023-07-30T10:37:27.000Z</time>
      </trkpt>
      <trkpt lat="43.71627" lon="7.07996">
        <ele>292.39999389648</ele>
        <time>2023-07-30T10:37:28.000Z</time>
      </trkpt>
      <trkpt lat="43.71627" lon="7.07996">
        <ele>292.39999389648</ele>
        <time>2023-07-30T10:37:29.000Z</time>
      </trkpt>
      <trkpt lat="43.71627" lon="7.07996">
        <ele>292.39999389648</ele>
        <time>2023-07-30T10:37:30.000Z</time>
      </trkpt>
      <trkpt lat="43.71627" lon="7.07996">
        <ele>292.39999389648</ele>
        <time>2023-07-30T10:37:31.000Z</time>
      </trkpt>
      <trkpt lat="43.71627" lon="7.07997">
        <ele>292.39999389648</ele>
        <time>2023-07-30T10:37:32.000Z</time>
      </trkpt>
      <trkpt lat="43.71627" lon="7.07996">
        <ele>292.39999389648</ele>
        <time>2023-07-30T10:37:33.000Z</time>
      </trkpt>
      <trkpt lat="43.71627" lon="7.07996">
        <ele>292.39999389648</ele>
        <time>2023-07-30T10:37:34.000Z</time>
      </trkpt>
      <trkpt lat="43.71628" lon="7.07996">
        <ele>292.39999389648</ele>
        <time>2023-07-30T10:37:35.000Z</time>
      </trkpt>
      <trkpt lat="43.71628" lon="7.07996">
        <ele>292.39999389648</ele>
        <time>2023-07-30T10:37:36.000Z</time>
      </trkpt>
      <trkpt lat="43.71628" lon="7.07996">
        <ele>292.39999389648</ele>
        <time>2023-07-30T10:37:37.000Z</time>
      </trkpt>
      <trkpt lat="43.71628" lon="7.07996">
        <ele>292.39999389648</ele>
        <time>2023-07-30T10:37:38.000Z</time>
      </trkpt>
      <trkpt lat="43.71628" lon="7.07996">
        <ele>292.39999389648</ele>
        <time>2023-07-30T10:37:39.000Z</time>
      </trkpt>
      <trkpt lat="43.71628" lon="7.07996">
        <ele>292.39999389648</ele>
        <time>2023-07-30T10:37:40.000Z</time>
      </trkpt>
      <trkpt lat="43.71628" lon="7.07996">
        <ele>292.39999389648</ele>
        <time>2023-07-30T10:37:41.000Z</time>
      </trkpt>
      <trkpt lat="43.71628" lon="7.07996">
        <ele>292.39999389648</ele>
        <time>2023-07-30T10:37:42.000Z</time>
      </trkpt>
      <trkpt lat="43.71628" lon="7.07995">
        <ele>292.39999389648</ele>
        <time>2023-07-30T10:37:43.000Z</time>
      </trkpt>
      <trkpt lat="43.71628" lon="7.07996">
        <ele>292.39999389648</ele>
        <time>2023-07-30T10:37:44.000Z</time>
      </trkpt>
      <trkpt lat="43.71628" lon="7.07996">
        <ele>292.39999389648</ele>
        <time>2023-07-30T10:37:45.000Z</time>
      </trkpt>
      <trkpt lat="43.71628" lon="7.07996">
        <ele>292.39999389648</ele>
        <time>2023-07-30T10:37:46.000Z</time>
      </trkpt>
      <trkpt lat="43.71628" lon="7.07996">
        <ele>292.39999389648</ele>
        <time>2023-07-30T10:37:47.000Z</time>
      </trkpt>
      <trkpt lat="43.71628" lon="7.07997">
        <ele>292.39999389648</ele>
        <time>2023-07-30T10:37:48.000Z</time>
      </trkpt>
      <trkpt lat="43.71628" lon="7.07997">
        <ele>292.39999389648</ele>
        <time>2023-07-30T10:37:49.000Z</time>
      </trkpt>
      <trkpt lat="43.71628" lon="7.07997">
        <ele>292.39999389648</ele>
        <time>2023-07-30T10:37:50.000Z</time>
      </trkpt>
      <trkpt lat="43.71628" lon="7.07997">
        <ele>292.39999389648</ele>
        <time>2023-07-30T10:37:51.000Z</time>
      </trkpt>
      <trkpt lat="43.71628" lon="7.07997">
        <ele>292.39999389648</ele>
        <time>2023-07-30T10:37:52.000Z</time>
      </trkpt>
      <trkpt lat="43.71629" lon="7.07997">
        <ele>292.39999389648</ele>
        <time>2023-07-30T10:37:53.000Z</time>
      </trkpt>
      <trkpt lat="43.71629" lon="7.07997">
        <ele>292.39999389648</ele>
        <time>2023-07-30T10:37:54.000Z</time>
      </trkpt>
      <trkpt lat="43.71629" lon="7.07997">
        <ele>292.39999389648</ele>
        <time>2023-07-30T10:37:55.000Z</time>
      </trkpt>
      <trkpt lat="43.71629" lon="7.07997">
        <ele>292.39999389648</ele>
        <time>2023-07-30T10:37:56.000Z</time>
      </trkpt>
      <trkpt lat="43.71629" lon="7.07997">
        <ele>292.39999389648</ele>
        <time>2023-07-30T10:37:57.000Z</time>
      </trkpt>
      <trkpt lat="43.71629" lon="7.07997">
        <ele>292.39999389648</ele>
        <time>2023-07-30T10:37:58.000Z</time>
      </trkpt>
      <trkpt lat="43.71629" lon="7.07997">
        <ele>292.39999389648</ele>
        <time>2023-07-30T10:37:59.000Z</time>
      </trkpt>
      <trkpt lat="43.71629" lon="7.07997">
        <ele>292.39999389648</ele>
        <time>2023-07-30T10:38:00.000Z</time>
      </trkpt>
      <trkpt lat="43.71629" lon="7.07997">
        <ele>292.39999389648</ele>
        <time>2023-07-30T10:38:01.000Z</time>
      </trkpt>
      <trkpt lat="43.71629" lon="7.07997">
        <ele>292.39999389648</ele>
        <time>2023-07-30T10:38:02.000Z</time>
      </trkpt>
      <trkpt lat="43.71629" lon="7.07997">
        <ele>292.39999389648</ele>
        <time>2023-07-30T10:38:03.000Z</time>
      </trkpt>
      <trkpt lat="43.71629" lon="7.07997">
        <ele>292.39999389648</ele>
        <time>2023-07-30T10:38:04.000Z</time>
      </trkpt>
      <trkpt lat="43.71629" lon="7.07997">
        <ele>292.39999389648</ele>
        <time>2023-07-30T10:38:05.000Z</time>
      </trkpt>
      <trkpt lat="43.71628" lon="7.07997">
        <ele>292.39999389648</ele>
        <time>2023-07-30T10:38:06.000Z</time>
      </trkpt>
      <trkpt lat="43.71628" lon="7.07997">
        <ele>292.39999389648</ele>
        <time>2023-07-30T10:38:07.000Z</time>
      </trkpt>
      <trkpt lat="43.71628" lon="7.07997">
        <ele>292.39999389648</ele>
        <time>2023-07-30T10:38:08.000Z</time>
      </trkpt>
      <trkpt lat="43.71629" lon="7.07997">
        <ele>292.39999389648</ele>
        <time>2023-07-30T10:38:09.000Z</time>
      </trkpt>
      <trkpt lat="43.71628" lon="7.07997">
        <ele>292.39999389648</ele>
        <time>2023-07-30T10:38:10.000Z</time>
      </trkpt>
      <trkpt lat="43.71628" lon="7.07997">
        <ele>292.39999389648</ele>
        <time>2023-07-30T10:38:11.000Z</time>
      </trkpt>
      <trkpt lat="43.71629" lon="7.07997">
        <ele>292.39999389648</ele>
        <time>2023-07-30T10:38:12.000Z</time>
      </trkpt>
      <trkpt lat="43.71629" lon="7.07996">
        <ele>292.39999389648</ele>
        <time>2023-07-30T10:38:13.000Z</time>
      </trkpt>
      <trkpt lat="43.71629" lon="7.07996">
        <ele>292.39999389648</ele>
        <time>2023-07-30T10:38:14.000Z</time>
      </trkpt>
      <trkpt lat="43.71629" lon="7.07996">
        <ele>292.39999389648</ele>
        <time>2023-07-30T10:38:15.000Z</time>
      </trkpt>
      <trkpt lat="43.71628" lon="7.07996">
        <ele>292.39999389648</ele>
        <time>2023-07-30T10:38:16.000Z</time>
      </trkpt>
      <trkpt lat="43.71629" lon="7.07996">
        <ele>292.39999389648</ele>
        <time>2023-07-30T10:38:17.000Z</time>
      </trkpt>
      <trkpt lat="43.71629" lon="7.07996">
        <ele>292.39999389648</ele>
        <time>2023-07-30T10:38:18.000Z</time>
      </trkpt>
      <trkpt lat="43.71629" lon="7.07996">
        <ele>292.39999389648</ele>
        <time>2023-07-30T10:38:19.000Z</time>
      </trkpt>
      <trkpt lat="43.71628" lon="7.07996">
        <ele>292.39999389648</ele>
        <time>2023-07-30T10:38:20.000Z</time>
      </trkpt>
      <trkpt lat="43.71628" lon="7.07996">
        <ele>292.39999389648</ele>
        <time>2023-07-30T10:38:21.000Z</time>
      </trkpt>
      <trkpt lat="43.71628" lon="7.07995">
        <ele>292.39999389648</ele>
        <time>2023-07-30T10:38:22.000Z</time>
      </trkpt>
      <trkpt lat="43.71628" lon="7.07995">
        <ele>292.39999389648</ele>
        <time>2023-07-30T10:38:23.000Z</time>
      </trkpt>
      <trkpt lat="43.71628" lon="7.07995">
        <ele>292.39999389648</ele>
        <time>2023-07-30T10:38:24.000Z</time>
      </trkpt>
      <trkpt lat="43.71628" lon="7.07996">
        <ele>292.39999389648</ele>
        <time>2023-07-30T10:38:25.000Z</time>
      </trkpt>
      <trkpt lat="43.71628" lon="7.07996">
        <ele>292.39999389648</ele>
        <time>2023-07-30T10:38:26.000Z</time>
      </trkpt>
      <trkpt lat="43.71628" lon="7.07996">
        <ele>292.39999389648</ele>
        <time>2023-07-30T10:38:27.000Z</time>
      </trkpt>
      <trkpt lat="43.71628" lon="7.07996">
        <ele>292.39999389648</ele>
        <time>2023-07-30T10:38:28.000Z</time>
      </trkpt>
      <trkpt lat="43.71628" lon="7.07996">
        <ele>292.39999389648</ele>
        <time>2023-07-30T10:38:29.000Z</time>
      </trkpt>
      <trkpt lat="43.71628" lon="7.07996">
        <ele>292.39999389648</ele>
        <time>2023-07-30T10:38:30.000Z</time>
      </trkpt>
      <trkpt lat="43.71628" lon="7.07996">
        <ele>292.39999389648</ele>
        <time>2023-07-30T10:38:31.000Z</time>
      </trkpt>
      <trkpt lat="43.71628" lon="7.07996">
        <ele>292.39999389648</ele>
        <time>2023-07-30T10:38:32.000Z</time>
      </trkpt>
      <trkpt lat="43.71628" lon="7.07996">
        <ele>292.39999389648</ele>
        <time>2023-07-30T10:38:33.000Z</time>
      </trkpt>
      <trkpt lat="43.71628" lon="7.07996">
        <ele>292.39999389648</ele>
        <time>2023-07-30T10:38:34.000Z</time>
      </trkpt>
      <trkpt lat="43.71628" lon="7.07996">
        <ele>292.39999389648</ele>
        <time>2023-07-30T10:38:35.000Z</time>
      </trkpt>
      <trkpt lat="43.71628" lon="7.07996">
        <ele>292.39999389648</ele>
        <time>2023-07-30T10:38:36.000Z</time>
      </trkpt>
      <trkpt lat="43.71628" lon="7.07996">
        <ele>292.39999389648</ele>
        <time>2023-07-30T10:38:37.000Z</time>
      </trkpt>
      <trkpt lat="43.71628" lon="7.07996">
        <ele>292.39999389648</ele>
        <time>2023-07-30T10:38:38.000Z</time>
      </trkpt>
      <trkpt lat="43.71628" lon="7.07996">
        <ele>292.39999389648</ele>
        <time>2023-07-30T10:38:39.000Z</time>
      </trkpt>
      <trkpt lat="43.71628" lon="7.07997">
        <ele>292.39999389648</ele>
        <time>2023-07-30T10:38:40.000Z</time>
      </trkpt>
      <trkpt lat="43.71628" lon="7.07997">
        <ele>292.39999389648</ele>
        <time>2023-07-30T10:38:41.000Z</time>
      </trkpt>
      <trkpt lat="43.71628" lon="7.07997">
        <ele>292.39999389648</ele>
        <time>2023-07-30T10:38:42.000Z</time>
      </trkpt>
      <trkpt lat="43.71628" lon="7.07996">
        <ele>292.39999389648</ele>
        <time>2023-07-30T10:38:43.000Z</time>
      </trkpt>
      <trkpt lat="43.71628" lon="7.07996">
        <ele>292.39999389648</ele>
        <time>2023-07-30T10:38:44.000Z</time>
      </trkpt>
      <trkpt lat="43.71627" lon="7.07996">
        <ele>292.39999389648</ele>
        <time>2023-07-30T10:38:45.000Z</time>
      </trkpt>
      <trkpt lat="43.71627" lon="7.07997">
        <ele>292.39999389648</ele>
        <time>2023-07-30T10:38:46.000Z</time>
      </trkpt>
      <trkpt lat="43.71627" lon="7.07996">
        <ele>292.39999389648</ele>
        <time>2023-07-30T10:38:47.000Z</time>
      </trkpt>
      <trkpt lat="43.71627" lon="7.07996">
        <ele>292.39999389648</ele>
        <time>2023-07-30T10:38:48.000Z</time>
      </trkpt>
      <trkpt lat="43.71627" lon="7.07996">
        <ele>292.39999389648</ele>
        <time>2023-07-30T10:38:49.000Z</time>
      </trkpt>
      <trkpt lat="43.71627" lon="7.07996">
        <ele>292.39999389648</ele>
        <time>2023-07-30T10:38:50.000Z</time>
      </trkpt>
      <trkpt lat="43.71627" lon="7.07996">
        <ele>292.39999389648</ele>
        <time>2023-07-30T10:38:51.000Z</time>
      </trkpt>
      <trkpt lat="43.71627" lon="7.07997">
        <ele>292.39999389648</ele>
        <time>2023-07-30T10:38:52.000Z</time>
      </trkpt>
      <trkpt lat="43.71627" lon="7.07997">
        <ele>292.39999389648</ele>
        <time>2023-07-30T10:38:53.000Z</time>
      </trkpt>
      <trkpt lat="43.71627" lon="7.07997">
        <ele>292.39999389648</ele>
        <time>2023-07-30T10:38:54.000Z</time>
      </trkpt>
      <trkpt lat="43.71627" lon="7.07997">
        <ele>292.39999389648</ele>
        <time>2023-07-30T10:38:55.000Z</time>
      </trkpt>
      <trkpt lat="43.71627" lon="7.07997">
        <ele>292.39999389648</ele>
        <time>2023-07-30T10:38:56.000Z</time>
      </trkpt>
      <trkpt lat="43.71627" lon="7.07997">
        <ele>292.39999389648</ele>
        <time>2023-07-30T10:38:57.000Z</time>
      </trkpt>
      <trkpt lat="43.71627" lon="7.07996">
        <ele>292.39999389648</ele>
        <time>2023-07-30T10:38:58.000Z</time>
      </trkpt>
      <trkpt lat="43.71627" lon="7.07996">
        <ele>292.39999389648</ele>
        <time>2023-07-30T10:38:59.000Z</time>
      </trkpt>
      <trkpt lat="43.71627" lon="7.07996">
        <ele>292.39999389648</ele>
        <time>2023-07-30T10:39:00.000Z</time>
      </trkpt>
      <trkpt lat="43.71627" lon="7.07996">
        <ele>292.39999389648</ele>
        <time>2023-07-30T10:39:01.000Z</time>
      </trkpt>
      <trkpt lat="43.71627" lon="7.07996">
        <ele>292.39999389648</ele>
        <time>2023-07-30T10:39:02.000Z</time>
      </trkpt>
      <trkpt lat="43.71627" lon="7.07996">
        <ele>292.39999389648</ele>
        <time>2023-07-30T10:39:03.000Z</time>
      </trkpt>
      <trkpt lat="43.71626" lon="7.07996">
        <ele>292.39999389648</ele>
        <time>2023-07-30T10:39:04.000Z</time>
      </trkpt>
      <trkpt lat="43.71626" lon="7.07996">
        <ele>292.39999389648</ele>
        <time>2023-07-30T10:39:05.000Z</time>
      </trkpt>
      <trkpt lat="43.71626" lon="7.07996">
        <ele>292.39999389648</ele>
        <time>2023-07-30T10:39:06.000Z</time>
      </trkpt>
      <trkpt lat="43.71626" lon="7.07996">
        <ele>292.39999389648</ele>
        <time>2023-07-30T10:39:07.000Z</time>
      </trkpt>
      <trkpt lat="43.71626" lon="7.07996">
        <ele>292.39999389648</ele>
        <time>2023-07-30T10:39:08.000Z</time>
      </trkpt>
      <trkpt lat="43.71626" lon="7.07995">
        <ele>292.39999389648</ele>
        <time>2023-07-30T10:39:09.000Z</time>
      </trkpt>
      <trkpt lat="43.71626" lon="7.07995">
        <ele>292.39999389648</ele>
        <time>2023-07-30T10:39:10.000Z</time>
      </trkpt>
      <trkpt lat="43.71626" lon="7.07995">
        <ele>292.39999389648</ele>
        <time>2023-07-30T10:39:11.000Z</time>
      </trkpt>
      <trkpt lat="43.71626" lon="7.07995">
        <ele>292.39999389648</ele>
        <time>2023-07-30T10:39:12.000Z</time>
      </trkpt>
      <trkpt lat="43.71626" lon="7.07995">
        <ele>292.39999389648</ele>
        <time>2023-07-30T10:39:13.000Z</time>
      </trkpt>
      <trkpt lat="43.71626" lon="7.07995">
        <ele>292.39999389648</ele>
        <time>2023-07-30T10:39:14.000Z</time>
      </trkpt>
      <trkpt lat="43.71626" lon="7.07996">
        <ele>292.39999389648</ele>
        <time>2023-07-30T10:39:15.000Z</time>
      </trkpt>
      <trkpt lat="43.71626" lon="7.07996">
        <ele>292.39999389648</ele>
        <time>2023-07-30T10:39:16.000Z</time>
      </trkpt>
      <trkpt lat="43.71626" lon="7.07996">
        <ele>292.39999389648</ele>
        <time>2023-07-30T10:39:17.000Z</time>
      </trkpt>
      <trkpt lat="43.71626" lon="7.07996">
        <ele>292.39999389648</ele>
        <time>2023-07-30T10:39:18.000Z</time>
      </trkpt>
      <trkpt lat="43.71626" lon="7.07996">
        <ele>292.39999389648</ele>
        <time>2023-07-30T10:39:19.000Z</time>
      </trkpt>
      <trkpt lat="43.71626" lon="7.07996">
        <ele>292.39999389648</ele>
        <time>2023-07-30T10:39:20.000Z</time>
      </trkpt>
      <trkpt lat="43.71625" lon="7.07996">
        <ele>292.39999389648</ele>
        <time>2023-07-30T10:39:21.000Z</time>
      </trkpt>
      <trkpt lat="43.71625" lon="7.07996">
        <ele>292.39999389648</ele>
        <time>2023-07-30T10:39:22.000Z</time>
      </trkpt>
      <trkpt lat="43.71625" lon="7.07996">
        <ele>292.39999389648</ele>
        <time>2023-07-30T10:39:23.000Z</time>
      </trkpt>
      <trkpt lat="43.71625" lon="7.07996">
        <ele>292.39999389648</ele>
        <time>2023-07-30T10:39:24.000Z</time>
      </trkpt>
      <trkpt lat="43.71625" lon="7.07996">
        <ele>292.39999389648</ele>
        <time>2023-07-30T10:39:25.000Z</time>
      </trkpt>
      <trkpt lat="43.71625" lon="7.07996">
        <ele>292.39999389648</ele>
        <time>2023-07-30T10:39:26.000Z</time>
      </trkpt>
      <trkpt lat="43.71625" lon="7.07996">
        <ele>292.39999389648</ele>
        <time>2023-07-30T10:39:27.000Z</time>
      </trkpt>
      <trkpt lat="43.71625" lon="7.07996">
        <ele>292.39999389648</ele>
        <time>2023-07-30T10:39:28.000Z</time>
      </trkpt>
      <trkpt lat="43.71625" lon="7.07996">
        <ele>292.39999389648</ele>
        <time>2023-07-30T10:39:29.000Z</time>
      </trkpt>
      <trkpt lat="43.71625" lon="7.07996">
        <ele>292.39999389648</ele>
        <time>2023-07-30T10:39:30.000Z</time>
      </trkpt>
      <trkpt lat="43.71625" lon="7.07996">
        <ele>292.39999389648</ele>
        <time>2023-07-30T10:39:31.000Z</time>
      </trkpt>
      <trkpt lat="43.71625" lon="7.07996">
        <ele>292.39999389648</ele>
        <time>2023-07-30T10:39:32.000Z</time>
      </trkpt>
      <trkpt lat="43.71625" lon="7.07996">
        <ele>292.39999389648</ele>
        <time>2023-07-30T10:39:33.000Z</time>
      </trkpt>
      <trkpt lat="43.71625" lon="7.07996">
        <ele>292.39999389648</ele>
        <time>2023-07-30T10:39:34.000Z</time>
      </trkpt>
      <trkpt lat="43.71625" lon="7.07995">
        <ele>292.39999389648</ele>
        <time>2023-07-30T10:39:35.000Z</time>
      </trkpt>
      <trkpt lat="43.71625" lon="7.07995">
        <ele>292.39999389648</ele>
        <time>2023-07-30T10:39:36.000Z</time>
      </trkpt>
      <trkpt lat="43.71625" lon="7.07995">
        <ele>292.39999389648</ele>
        <time>2023-07-30T10:39:37.000Z</time>
      </trkpt>
      <trkpt lat="43.71625" lon="7.07996">
        <ele>292.39999389648</ele>
        <time>2023-07-30T10:39:38.000Z</time>
      </trkpt>
      <trkpt lat="43.71626" lon="7.07996">
        <ele>292.39999389648</ele>
        <time>2023-07-30T10:39:39.000Z</time>
      </trkpt>
      <trkpt lat="43.71626" lon="7.07995">
        <ele>292.39999389648</ele>
        <time>2023-07-30T10:39:40.000Z</time>
      </trkpt>
      <trkpt lat="43.71626" lon="7.07995">
        <ele>292.39999389648</ele>
        <time>2023-07-30T10:39:41.000Z</time>
      </trkpt>
      <trkpt lat="43.71626" lon="7.07995">
        <ele>292.39999389648</ele>
        <time>2023-07-30T10:39:42.000Z</time>
      </trkpt>
      <trkpt lat="43.71625" lon="7.07995">
        <ele>292.39999389648</ele>
        <time>2023-07-30T10:39:43.000Z</time>
      </trkpt>
      <trkpt lat="43.71625" lon="7.07995">
        <ele>292.39999389648</ele>
        <time>2023-07-30T10:39:44.000Z</time>
      </trkpt>
      <trkpt lat="43.71626" lon="7.07995">
        <ele>292.39999389648</ele>
        <time>2023-07-30T10:39:45.000Z</time>
      </trkpt>
      <trkpt lat="43.71625" lon="7.07994">
        <ele>292.39999389648</ele>
        <time>2023-07-30T10:39:46.000Z</time>
      </trkpt>
      <trkpt lat="43.71625" lon="7.07994">
        <ele>292.39999389648</ele>
        <time>2023-07-30T10:39:47.000Z</time>
      </trkpt>
      <trkpt lat="43.71625" lon="7.07994">
        <ele>292.39999389648</ele>
        <time>2023-07-30T10:39:48.000Z</time>
      </trkpt>
      <trkpt lat="43.71625" lon="7.07994">
        <ele>292.39999389648</ele>
        <time>2023-07-30T10:39:49.000Z</time>
      </trkpt>
      <trkpt lat="43.71625" lon="7.07994">
        <ele>292.39999389648</ele>
        <time>2023-07-30T10:39:50.000Z</time>
      </trkpt>
      <trkpt lat="43.71625" lon="7.07994">
        <ele>292.39999389648</ele>
        <time>2023-07-30T10:39:51.000Z</time>
      </trkpt>
      <trkpt lat="43.71625" lon="7.07995">
        <ele>292.39999389648</ele>
        <time>2023-07-30T10:39:52.000Z</time>
      </trkpt>
      <trkpt lat="43.71625" lon="7.07995">
        <ele>292.39999389648</ele>
        <time>2023-07-30T10:39:53.000Z</time>
      </trkpt>
      <trkpt lat="43.71625" lon="7.07995">
        <ele>292.39999389648</ele>
        <time>2023-07-30T10:39:54.000Z</time>
      </trkpt>
      <trkpt lat="43.71625" lon="7.07995">
        <ele>292.39999389648</ele>
        <time>2023-07-30T10:39:55.000Z</time>
      </trkpt>
      <trkpt lat="43.71625" lon="7.07995">
        <ele>292.39999389648</ele>
        <time>2023-07-30T10:39:56.000Z</time>
      </trkpt>
      <trkpt lat="43.71625" lon="7.07995">
        <ele>292.39999389648</ele>
        <time>2023-07-30T10:39:57.000Z</time>
      </trkpt>
      <trkpt lat="43.71625" lon="7.07995">
        <ele>292.39999389648</ele>
        <time>2023-07-30T10:39:58.000Z</time>
      </trkpt>
      <trkpt lat="43.71625" lon="7.07995">
        <ele>292.39999389648</ele>
        <time>2023-07-30T10:39:59.000Z</time>
      </trkpt>
      <trkpt lat="43.71625" lon="7.07995">
        <ele>292.39999389648</ele>
        <time>2023-07-30T10:40:00.000Z</time>
      </trkpt>
      <trkpt lat="43.71625" lon="7.07995">
        <ele>292.39999389648</ele>
        <time>2023-07-30T10:40:01.000Z</time>
      </trkpt>
      <trkpt lat="43.71625" lon="7.07995">
        <ele>292.39999389648</ele>
        <time>2023-07-30T10:40:02.000Z</time>
      </trkpt>
      <trkpt lat="43.71625" lon="7.07995">
        <ele>292.39999389648</ele>
        <time>2023-07-30T10:40:03.000Z</time>
      </trkpt>
      <trkpt lat="43.71625" lon="7.07995">
        <ele>292.39999389648</ele>
        <time>2023-07-30T10:40:04.000Z</time>
      </trkpt>
      <trkpt lat="43.71625" lon="7.07995">
        <ele>292.39999389648</ele>
        <time>2023-07-30T10:40:05.000Z</time>
      </trkpt>
      <trkpt lat="43.71626" lon="7.07995">
        <ele>292.39999389648</ele>
        <time>2023-07-30T10:40:06.000Z</time>
      </trkpt>
      <trkpt lat="43.71626" lon="7.07995">
        <ele>292.39999389648</ele>
        <time>2023-07-30T10:40:07.000Z</time>
      </trkpt>
      <trkpt lat="43.71625" lon="7.07995">
        <ele>292.39999389648</ele>
        <time>2023-07-30T10:40:08.000Z</time>
      </trkpt>
      <trkpt lat="43.71626" lon="7.07995">
        <ele>292.39999389648</ele>
        <time>2023-07-30T10:40:09.000Z</time>
      </trkpt>
      <trkpt lat="43.71626" lon="7.07995">
        <ele>292.39999389648</ele>
        <time>2023-07-30T10:40:10.000Z</time>
      </trkpt>
      <trkpt lat="43.71626" lon="7.07996">
        <ele>292.39999389648</ele>
        <time>2023-07-30T10:40:11.000Z</time>
      </trkpt>
      <trkpt lat="43.71626" lon="7.07996">
        <ele>292.39999389648</ele>
        <time>2023-07-30T10:40:12.000Z</time>
      </trkpt>
      <trkpt lat="43.71626" lon="7.07996">
        <ele>292.39999389648</ele>
        <time>2023-07-30T10:40:13.000Z</time>
      </trkpt>
      <trkpt lat="43.71626" lon="7.07996">
        <ele>292.39999389648</ele>
        <time>2023-07-30T10:40:14.000Z</time>
      </trkpt>
      <trkpt lat="43.71626" lon="7.07996">
        <ele>292.39999389648</ele>
        <time>2023-07-30T10:40:15.000Z</time>
      </trkpt>
      <trkpt lat="43.71626" lon="7.07996">
        <ele>292.39999389648</ele>
        <time>2023-07-30T10:40:16.000Z</time>
      </trkpt>
      <trkpt lat="43.71626" lon="7.07996">
        <ele>292.39999389648</ele>
        <time>2023-07-30T10:40:17.000Z</time>
      </trkpt>
      <trkpt lat="43.71626" lon="7.07996">
        <ele>292.39999389648</ele>
        <time>2023-07-30T10:40:18.000Z</time>
      </trkpt>
      <trkpt lat="43.71626" lon="7.07996">
        <ele>292.39999389648</ele>
        <time>2023-07-30T10:40:19.000Z</time>
      </trkpt>
      <trkpt lat="43.71626" lon="7.07996">
        <ele>292.39999389648</ele>
        <time>2023-07-30T10:40:20.000Z</time>
      </trkpt>
      <trkpt lat="43.71626" lon="7.07996">
        <ele>292.39999389648</ele>
        <time>2023-07-30T10:40:21.000Z</time>
      </trkpt>
      <trkpt lat="43.71626" lon="7.07996">
        <ele>292.39999389648</ele>
        <time>2023-07-30T10:40:22.000Z</time>
      </trkpt>
      <trkpt lat="43.71626" lon="7.07996">
        <ele>292.39999389648</ele>
        <time>2023-07-30T10:40:23.000Z</time>
      </trkpt>
      <trkpt lat="43.71625" lon="7.07995">
        <ele>292.39999389648</ele>
        <time>2023-07-30T10:40:24.000Z</time>
      </trkpt>
      <trkpt lat="43.71625" lon="7.07995">
        <ele>292.39999389648</ele>
        <time>2023-07-30T10:40:25.000Z</time>
      </trkpt>
      <trkpt lat="43.71625" lon="7.07995">
        <ele>292.39999389648</ele>
        <time>2023-07-30T10:40:26.000Z</time>
      </trkpt>
      <trkpt lat="43.71625" lon="7.07995">
        <ele>292.39999389648</ele>
        <time>2023-07-30T10:40:27.000Z</time>
      </trkpt>
      <trkpt lat="43.71625" lon="7.07995">
        <ele>292.39999389648</ele>
        <time>2023-07-30T10:40:28.000Z</time>
      </trkpt>
      <trkpt lat="43.71625" lon="7.07995">
        <ele>292.39999389648</ele>
        <time>2023-07-30T10:40:29.000Z</time>
      </trkpt>
      <trkpt lat="43.71625" lon="7.07995">
        <ele>292.39999389648</ele>
        <time>2023-07-30T10:40:30.000Z</time>
      </trkpt>
      <trkpt lat="43.71625" lon="7.07994">
        <ele>292.39999389648</ele>
        <time>2023-07-30T10:40:31.000Z</time>
      </trkpt>
      <trkpt lat="43.71625" lon="7.07994">
        <ele>292.39999389648</ele>
        <time>2023-07-30T10:40:32.000Z</time>
      </trkpt>
      <trkpt lat="43.71625" lon="7.07994">
        <ele>292.39999389648</ele>
        <time>2023-07-30T10:40:33.000Z</time>
      </trkpt>
      <trkpt lat="43.71626" lon="7.07994">
        <ele>292.39999389648</ele>
        <time>2023-07-30T10:40:34.000Z</time>
      </trkpt>
      <trkpt lat="43.71626" lon="7.07994">
        <ele>292.39999389648</ele>
        <time>2023-07-30T10:40:35.000Z</time>
      </trkpt>
      <trkpt lat="43.71626" lon="7.07994">
        <ele>292.39999389648</ele>
        <time>2023-07-30T10:40:36.000Z</time>
      </trkpt>
      <trkpt lat="43.71626" lon="7.07994">
        <ele>292.39999389648</ele>
        <time>2023-07-30T10:40:37.000Z</time>
      </trkpt>
      <trkpt lat="43.71626" lon="7.07994">
        <ele>292.39999389648</ele>
        <time>2023-07-30T10:40:38.000Z</time>
      </trkpt>
      <trkpt lat="43.71626" lon="7.07994">
        <ele>292.39999389648</ele>
        <time>2023-07-30T10:40:39.000Z</time>
      </trkpt>
      <trkpt lat="43.71626" lon="7.07994">
        <ele>292.39999389648</ele>
        <time>2023-07-30T10:40:40.000Z</time>
      </trkpt>
      <trkpt lat="43.71626" lon="7.07994">
        <ele>292.39999389648</ele>
        <time>2023-07-30T10:40:41.000Z</time>
      </trkpt>
      <trkpt lat="43.71625" lon="7.07994">
        <ele>292.39999389648</ele>
        <time>2023-07-30T10:40:42.000Z</time>
      </trkpt>
      <trkpt lat="43.71626" lon="7.07994">
        <ele>292.39999389648</ele>
        <time>2023-07-30T10:40:43.000Z</time>
      </trkpt>
      <trkpt lat="43.71626" lon="7.07994">
        <ele>292.39999389648</ele>
        <time>2023-07-30T10:40:44.000Z</time>
      </trkpt>
      <trkpt lat="43.71626" lon="7.07994">
        <ele>292.39999389648</ele>
        <time>2023-07-30T10:40:45.000Z</time>
      </trkpt>
      <trkpt lat="43.71626" lon="7.07994">
        <ele>292.39999389648</ele>
        <time>2023-07-30T10:40:46.000Z</time>
      </trkpt>
      <trkpt lat="43.71626" lon="7.07994">
        <ele>292.39999389648</ele>
        <time>2023-07-30T10:40:47.000Z</time>
      </trkpt>
      <trkpt lat="43.71626" lon="7.07994">
        <ele>292.39999389648</ele>
        <time>2023-07-30T10:40:48.000Z</time>
      </trkpt>
      <trkpt lat="43.71626" lon="7.07994">
        <ele>292.39999389648</ele>
        <time>2023-07-30T10:40:49.000Z</time>
      </trkpt>
      <trkpt lat="43.71626" lon="7.07994">
        <ele>292.39999389648</ele>
        <time>2023-07-30T10:40:50.000Z</time>
      </trkpt>
      <trkpt lat="43.71626" lon="7.07994">
        <ele>292.39999389648</ele>
        <time>2023-07-30T10:40:51.000Z</time>
      </trkpt>
      <trkpt lat="43.71626" lon="7.07994">
        <ele>292.39999389648</ele>
        <time>2023-07-30T10:40:52.000Z</time>
      </trkpt>
      <trkpt lat="43.71626" lon="7.07994">
        <ele>292.39999389648</ele>
        <time>2023-07-30T10:40:53.000Z</time>
      </trkpt>
      <trkpt lat="43.71626" lon="7.07994">
        <ele>292.39999389648</ele>
        <time>2023-07-30T10:40:54.000Z</time>
      </trkpt>
      <trkpt lat="43.71626" lon="7.07995">
        <ele>292.39999389648</ele>
        <time>2023-07-30T10:40:55.000Z</time>
      </trkpt>
      <trkpt lat="43.71626" lon="7.07995">
        <ele>292.39999389648</ele>
        <time>2023-07-30T10:40:56.000Z</time>
      </trkpt>
      <trkpt lat="43.71626" lon="7.07994">
        <ele>292.39999389648</ele>
        <time>2023-07-30T10:40:57.000Z</time>
      </trkpt>
      <trkpt lat="43.71626" lon="7.07994">
        <ele>292.39999389648</ele>
        <time>2023-07-30T10:40:58.000Z</time>
      </trkpt>
      <trkpt lat="43.71626" lon="7.07994">
        <ele>292.39999389648</ele>
        <time>2023-07-30T10:40:59.000Z</time>
      </trkpt>
      <trkpt lat="43.71626" lon="7.07994">
        <ele>292.39999389648</ele>
        <time>2023-07-30T10:41:00.000Z</time>
      </trkpt>
      <trkpt lat="43.71626" lon="7.07993">
        <ele>292.39999389648</ele>
        <time>2023-07-30T10:41:01.000Z</time>
      </trkpt>
      <trkpt lat="43.71626" lon="7.07993">
        <ele>292.39999389648</ele>
        <time>2023-07-30T10:41:02.000Z</time>
      </trkpt>
      <trkpt lat="43.71626" lon="7.07993">
        <ele>292.39999389648</ele>
        <time>2023-07-30T10:41:03.000Z</time>
      </trkpt>
      <trkpt lat="43.71626" lon="7.07993">
        <ele>292.39999389648</ele>
        <time>2023-07-30T10:41:04.000Z</time>
      </trkpt>
      <trkpt lat="43.71625" lon="7.07993">
        <ele>292.39999389648</ele>
        <time>2023-07-30T10:41:05.000Z</time>
      </trkpt>
      <trkpt lat="43.71625" lon="7.07992">
        <ele>292.39999389648</ele>
        <time>2023-07-30T10:41:06.000Z</time>
      </trkpt>
      <trkpt lat="43.71625" lon="7.07992">
        <ele>292.39999389648</ele>
        <time>2023-07-30T10:41:07.000Z</time>
      </trkpt>
      <trkpt lat="43.71626" lon="7.07992">
        <ele>292.39999389648</ele>
        <time>2023-07-30T10:41:08.000Z</time>
      </trkpt>
      <trkpt lat="43.71626" lon="7.07992">
        <ele>292.39999389648</ele>
        <time>2023-07-30T10:41:09.000Z</time>
      </trkpt>
      <trkpt lat="43.71626" lon="7.07993">
        <ele>292.39999389648</ele>
        <time>2023-07-30T10:41:10.000Z</time>
      </trkpt>
      <trkpt lat="43.71626" lon="7.07993">
        <ele>292.39999389648</ele>
        <time>2023-07-30T10:41:11.000Z</time>
      </trkpt>
      <trkpt lat="43.71626" lon="7.07993">
        <ele>292.39999389648</ele>
        <time>2023-07-30T10:41:12.000Z</time>
      </trkpt>
      <trkpt lat="43.71626" lon="7.07993">
        <ele>292.39999389648</ele>
        <time>2023-07-30T10:41:13.000Z</time>
      </trkpt>
      <trkpt lat="43.71626" lon="7.07994">
        <ele>292.39999389648</ele>
        <time>2023-07-30T10:41:14.000Z</time>
      </trkpt>
      <trkpt lat="43.71626" lon="7.07994">
        <ele>292.39999389648</ele>
        <time>2023-07-30T10:41:15.000Z</time>
      </trkpt>
      <trkpt lat="43.71626" lon="7.07994">
        <ele>292.39999389648</ele>
        <time>2023-07-30T10:41:16.000Z</time>
      </trkpt>
      <trkpt lat="43.71626" lon="7.07994">
        <ele>292.39999389648</ele>
        <time>2023-07-30T10:41:17.000Z</time>
      </trkpt>
      <trkpt lat="43.71626" lon="7.07994">
        <ele>292.39999389648</ele>
        <time>2023-07-30T10:41:18.000Z</time>
      </trkpt>
      <trkpt lat="43.71626" lon="7.07994">
        <ele>292.39999389648</ele>
        <time>2023-07-30T10:41:19.000Z</time>
      </trkpt>
      <trkpt lat="43.71627" lon="7.07993">
        <ele>292.39999389648</ele>
        <time>2023-07-30T10:41:20.000Z</time>
      </trkpt>
      <trkpt lat="43.71627" lon="7.07993">
        <ele>292.39999389648</ele>
        <time>2023-07-30T10:41:21.000Z</time>
      </trkpt>
      <trkpt lat="43.71627" lon="7.07994">
        <ele>292.39999389648</ele>
        <time>2023-07-30T10:41:22.000Z</time>
      </trkpt>
      <trkpt lat="43.71627" lon="7.07994">
        <ele>292.39999389648</ele>
        <time>2023-07-30T10:41:23.000Z</time>
      </trkpt>
      <trkpt lat="43.71627" lon="7.07994">
        <ele>292.39999389648</ele>
        <time>2023-07-30T10:41:24.000Z</time>
      </trkpt>
      <trkpt lat="43.71627" lon="7.07995">
        <ele>292.39999389648</ele>
        <time>2023-07-30T10:41:25.000Z</time>
      </trkpt>
      <trkpt lat="43.71627" lon="7.07995">
        <ele>292.39999389648</ele>
        <time>2023-07-30T10:41:26.000Z</time>
      </trkpt>
      <trkpt lat="43.71627" lon="7.07994">
        <ele>292.39999389648</ele>
        <time>2023-07-30T10:41:27.000Z</time>
      </trkpt>
      <trkpt lat="43.71626" lon="7.07994">
        <ele>292.39999389648</ele>
        <time>2023-07-30T10:41:28.000Z</time>
      </trkpt>
      <trkpt lat="43.71626" lon="7.07994">
        <ele>292.39999389648</ele>
        <time>2023-07-30T10:41:29.000Z</time>
      </trkpt>
      <trkpt lat="43.71626" lon="7.07994">
        <ele>292.39999389648</ele>
        <time>2023-07-30T10:41:30.000Z</time>
      </trkpt>
      <trkpt lat="43.71626" lon="7.07994">
        <ele>292.39999389648</ele>
        <time>2023-07-30T10:41:31.000Z</time>
      </trkpt>
      <trkpt lat="43.71626" lon="7.07995">
        <ele>292.39999389648</ele>
        <time>2023-07-30T10:41:32.000Z</time>
      </trkpt>
      <trkpt lat="43.71626" lon="7.07995">
        <ele>292.39999389648</ele>
        <time>2023-07-30T10:41:33.000Z</time>
      </trkpt>
      <trkpt lat="43.71626" lon="7.07994">
        <ele>292.39999389648</ele>
        <time>2023-07-30T10:41:34.000Z</time>
      </trkpt>
      <trkpt lat="43.71626" lon="7.07995">
        <ele>292.39999389648</ele>
        <time>2023-07-30T10:41:35.000Z</time>
      </trkpt>
      <trkpt lat="43.71626" lon="7.07995">
        <ele>292.39999389648</ele>
        <time>2023-07-30T10:41:36.000Z</time>
      </trkpt>
      <trkpt lat="43.71626" lon="7.07995">
        <ele>292.39999389648</ele>
        <time>2023-07-30T10:41:37.000Z</time>
      </trkpt>
      <trkpt lat="43.71626" lon="7.07995">
        <ele>292.39999389648</ele>
        <time>2023-07-30T10:41:38.000Z</time>
      </trkpt>
      <trkpt lat="43.71626" lon="7.07995">
        <ele>292.39999389648</ele>
        <time>2023-07-30T10:41:39.000Z</time>
      </trkpt>
      <trkpt lat="43.71626" lon="7.07995">
        <ele>292.39999389648</ele>
        <time>2023-07-30T10:41:40.000Z</time>
      </trkpt>
      <trkpt lat="43.71626" lon="7.07995">
        <ele>292.39999389648</ele>
        <time>2023-07-30T10:41:41.000Z</time>
      </trkpt>
      <trkpt lat="43.71626" lon="7.07995">
        <ele>292.39999389648</ele>
        <time>2023-07-30T10:41:42.000Z</time>
      </trkpt>
      <trkpt lat="43.71626" lon="7.07995">
        <ele>292.39999389648</ele>
        <time>2023-07-30T10:41:43.000Z</time>
      </trkpt>
      <trkpt lat="43.71626" lon="7.07995">
        <ele>292.39999389648</ele>
        <time>2023-07-30T10:41:44.000Z</time>
      </trkpt>
      <trkpt lat="43.71626" lon="7.07995">
        <ele>292.39999389648</ele>
        <time>2023-07-30T10:41:45.000Z</time>
      </trkpt>
      <trkpt lat="43.71626" lon="7.07995">
        <ele>292.39999389648</ele>
        <time>2023-07-30T10:41:46.000Z</time>
      </trkpt>
      <trkpt lat="43.71626" lon="7.07995">
        <ele>292.39999389648</ele>
        <time>2023-07-30T10:41:47.000Z</time>
      </trkpt>
      <trkpt lat="43.71626" lon="7.07995">
        <ele>292.39999389648</ele>
        <time>2023-07-30T10:41:48.000Z</time>
      </trkpt>
      <trkpt lat="43.71626" lon="7.07995">
        <ele>292.39999389648</ele>
        <time>2023-07-30T10:41:49.000Z</time>
      </trkpt>
      <trkpt lat="43.71626" lon="7.07995">
        <ele>292.39999389648</ele>
        <time>2023-07-30T10:41:50.000Z</time>
      </trkpt>
      <trkpt lat="43.71625" lon="7.07995">
        <ele>292.39999389648</ele>
        <time>2023-07-30T10:41:51.000Z</time>
      </trkpt>
      <trkpt lat="43.71625" lon="7.07995">
        <ele>292.39999389648</ele>
        <time>2023-07-30T10:41:52.000Z</time>
      </trkpt>
      <trkpt lat="43.71625" lon="7.07995">
        <ele>292.39999389648</ele>
        <time>2023-07-30T10:41:53.000Z</time>
      </trkpt>
      <trkpt lat="43.71626" lon="7.07995">
        <ele>292.39999389648</ele>
        <time>2023-07-30T10:41:54.000Z</time>
      </trkpt>
      <trkpt lat="43.71625" lon="7.07995">
        <ele>292.39999389648</ele>
        <time>2023-07-30T10:41:55.000Z</time>
      </trkpt>
      <trkpt lat="43.71626" lon="7.07996">
        <ele>292.39999389648</ele>
        <time>2023-07-30T10:41:56.000Z</time>
      </trkpt>
      <trkpt lat="43.71626" lon="7.07995">
        <ele>292.39999389648</ele>
        <time>2023-07-30T10:41:57.000Z</time>
      </trkpt>
      <trkpt lat="43.71625" lon="7.07995">
        <ele>292.39999389648</ele>
        <time>2023-07-30T10:41:58.000Z</time>
      </trkpt>
      <trkpt lat="43.71625" lon="7.07995">
        <ele>292.39999389648</ele>
        <time>2023-07-30T10:41:59.000Z</time>
      </trkpt>
      <trkpt lat="43.71625" lon="7.07995">
        <ele>292.39999389648</ele>
        <time>2023-07-30T10:42:00.000Z</time>
      </trkpt>
      <trkpt lat="43.71625" lon="7.07995">
        <ele>292.39999389648</ele>
        <time>2023-07-30T10:42:01.000Z</time>
      </trkpt>
      <trkpt lat="43.71626" lon="7.07995">
        <ele>292.39999389648</ele>
        <time>2023-07-30T10:42:02.000Z</time>
      </trkpt>
      <trkpt lat="43.71625" lon="7.07995">
        <ele>292.39999389648</ele>
        <time>2023-07-30T10:42:03.000Z</time>
      </trkpt>
      <trkpt lat="43.71625" lon="7.07995">
        <ele>292.39999389648</ele>
        <time>2023-07-30T10:42:04.000Z</time>
      </trkpt>
      <trkpt lat="43.71626" lon="7.07995">
        <ele>292.39999389648</ele>
        <time>2023-07-30T10:42:05.000Z</time>
      </trkpt>
      <trkpt lat="43.71626" lon="7.07996">
        <ele>292.39999389648</ele>
        <time>2023-07-30T10:42:06.000Z</time>
      </trkpt>
      <trkpt lat="43.71626" lon="7.07995">
        <ele>292.39999389648</ele>
        <time>2023-07-30T10:42:07.000Z</time>
      </trkpt>
      <trkpt lat="43.71626" lon="7.07995">
        <ele>292.39999389648</ele>
        <time>2023-07-30T10:42:08.000Z</time>
      </trkpt>
      <trkpt lat="43.71626" lon="7.07995">
        <ele>292.39999389648</ele>
        <time>2023-07-30T10:42:09.000Z</time>
      </trkpt>
      <trkpt lat="43.71626" lon="7.07995">
        <ele>292.39999389648</ele>
        <time>2023-07-30T10:42:10.000Z</time>
      </trkpt>
      <trkpt lat="43.71626" lon="7.07995">
        <ele>292.39999389648</ele>
        <time>2023-07-30T10:42:11.000Z</time>
      </trkpt>
      <trkpt lat="43.71626" lon="7.07995">
        <ele>292.39999389648</ele>
        <time>2023-07-30T10:42:12.000Z</time>
      </trkpt>
      <trkpt lat="43.71626" lon="7.07995">
        <ele>292.39999389648</ele>
        <time>2023-07-30T10:42:13.000Z</time>
      </trkpt>
      <trkpt lat="43.71626" lon="7.07995">
        <ele>292.39999389648</ele>
        <time>2023-07-30T10:42:14.000Z</time>
      </trkpt>
      <trkpt lat="43.71626" lon="7.07995">
        <ele>292.39999389648</ele>
        <time>2023-07-30T10:42:15.000Z</time>
      </trkpt>
      <trkpt lat="43.71626" lon="7.07995">
        <ele>292.39999389648</ele>
        <time>2023-07-30T10:42:16.000Z</time>
      </trkpt>
      <trkpt lat="43.71625" lon="7.07994">
        <ele>292.39999389648</ele>
        <time>2023-07-30T10:42:17.000Z</time>
      </trkpt>
      <trkpt lat="43.71625" lon="7.07994">
        <ele>292.39999389648</ele>
        <time>2023-07-30T10:42:18.000Z</time>
      </trkpt>
      <trkpt lat="43.71625" lon="7.07995">
        <ele>292.39999389648</ele>
        <time>2023-07-30T10:42:19.000Z</time>
      </trkpt>
      <trkpt lat="43.71625" lon="7.07995">
        <ele>292.39999389648</ele>
        <time>2023-07-30T10:42:20.000Z</time>
      </trkpt>
      <trkpt lat="43.71625" lon="7.07994">
        <ele>292.39999389648</ele>
        <time>2023-07-30T10:42:21.000Z</time>
      </trkpt>
      <trkpt lat="43.71625" lon="7.07995">
        <ele>292.39999389648</ele>
        <time>2023-07-30T10:42:22.000Z</time>
      </trkpt>
      <trkpt lat="43.71625" lon="7.07995">
        <ele>292.39999389648</ele>
        <time>2023-07-30T10:42:23.000Z</time>
      </trkpt>
      <trkpt lat="43.71625" lon="7.07995">
        <ele>292.39999389648</ele>
        <time>2023-07-30T10:42:24.000Z</time>
      </trkpt>
      <trkpt lat="43.71625" lon="7.07994">
        <ele>292.39999389648</ele>
        <time>2023-07-30T10:42:25.000Z</time>
      </trkpt>
      <trkpt lat="43.71625" lon="7.07995">
        <ele>292.39999389648</ele>
        <time>2023-07-30T10:42:26.000Z</time>
      </trkpt>
      <trkpt lat="43.71625" lon="7.07995">
        <ele>292.39999389648</ele>
        <time>2023-07-30T10:42:27.000Z</time>
      </trkpt>
      <trkpt lat="43.71625" lon="7.07995">
        <ele>292.39999389648</ele>
        <time>2023-07-30T10:42:28.000Z</time>
      </trkpt>
      <trkpt lat="43.71625" lon="7.07995">
        <ele>292.39999389648</ele>
        <time>2023-07-30T10:42:29.000Z</time>
      </trkpt>
      <trkpt lat="43.71625" lon="7.07995">
        <ele>292.39999389648</ele>
        <time>2023-07-30T10:42:30.000Z</time>
      </trkpt>
      <trkpt lat="43.71625" lon="7.07995">
        <ele>292.39999389648</ele>
        <time>2023-07-30T10:42:31.000Z</time>
      </trkpt>
      <trkpt lat="43.71626" lon="7.07995">
        <ele>292.39999389648</ele>
        <time>2023-07-30T10:42:32.000Z</time>
      </trkpt>
      <trkpt lat="43.71625" lon="7.07995">
        <ele>292.39999389648</ele>
        <time>2023-07-30T10:42:33.000Z</time>
      </trkpt>
      <trkpt lat="43.71625" lon="7.07994">
        <ele>292.39999389648</ele>
        <time>2023-07-30T10:42:34.000Z</time>
      </trkpt>
      <trkpt lat="43.71625" lon="7.07994">
        <ele>292.39999389648</ele>
        <time>2023-07-30T10:42:35.000Z</time>
      </trkpt>
      <trkpt lat="43.71625" lon="7.07994">
        <ele>292.39999389648</ele>
        <time>2023-07-30T10:42:36.000Z</time>
      </trkpt>
      <trkpt lat="43.71625" lon="7.07994">
        <ele>292.39999389648</ele>
        <time>2023-07-30T10:42:37.000Z</time>
      </trkpt>
      <trkpt lat="43.71625" lon="7.07994">
        <ele>292.39999389648</ele>
        <time>2023-07-30T10:42:38.000Z</time>
      </trkpt>
      <trkpt lat="43.71625" lon="7.07994">
        <ele>292.39999389648</ele>
        <time>2023-07-30T10:42:39.000Z</time>
      </trkpt>
      <trkpt lat="43.71625" lon="7.07994">
        <ele>292.39999389648</ele>
        <time>2023-07-30T10:42:40.000Z</time>
      </trkpt>
      <trkpt lat="43.71625" lon="7.07994">
        <ele>292.39999389648</ele>
        <time>2023-07-30T10:42:41.000Z</time>
      </trkpt>
      <trkpt lat="43.71625" lon="7.07993">
        <ele>292.39999389648</ele>
        <time>2023-07-30T10:42:42.000Z</time>
      </trkpt>
      <trkpt lat="43.71625" lon="7.07993">
        <ele>292.39999389648</ele>
        <time>2023-07-30T10:42:43.000Z</time>
      </trkpt>
      <trkpt lat="43.71625" lon="7.07993">
        <ele>292.39999389648</ele>
        <time>2023-07-30T10:42:44.000Z</time>
      </trkpt>
      <trkpt lat="43.71625" lon="7.07993">
        <ele>292.39999389648</ele>
        <time>2023-07-30T10:42:45.000Z</time>
      </trkpt>
      <trkpt lat="43.71625" lon="7.07993">
        <ele>292.39999389648</ele>
        <time>2023-07-30T10:42:46.000Z</time>
      </trkpt>
      <trkpt lat="43.71624" lon="7.07994">
        <ele>292.39999389648</ele>
        <time>2023-07-30T10:42:47.000Z</time>
      </trkpt>
      <trkpt lat="43.71624" lon="7.07994">
        <ele>292.39999389648</ele>
        <time>2023-07-30T10:42:48.000Z</time>
      </trkpt>
      <trkpt lat="43.71624" lon="7.07994">
        <ele>292.39999389648</ele>
        <time>2023-07-30T10:42:49.000Z</time>
      </trkpt>
      <trkpt lat="43.71624" lon="7.07994">
        <ele>292.39999389648</ele>
        <time>2023-07-30T10:42:50.000Z</time>
      </trkpt>
      <trkpt lat="43.71624" lon="7.07994">
        <ele>292.39999389648</ele>
        <time>2023-07-30T10:42:51.000Z</time>
      </trkpt>
      <trkpt lat="43.71624" lon="7.07994">
        <ele>292.39999389648</ele>
        <time>2023-07-30T10:42:52.000Z</time>
      </trkpt>
      <trkpt lat="43.71624" lon="7.07994">
        <ele>292.39999389648</ele>
        <time>2023-07-30T10:42:53.000Z</time>
      </trkpt>
      <trkpt lat="43.71624" lon="7.07994">
        <ele>292.39999389648</ele>
        <time>2023-07-30T10:42:54.000Z</time>
      </trkpt>
      <trkpt lat="43.71625" lon="7.07994">
        <ele>292.39999389648</ele>
        <time>2023-07-30T10:42:55.000Z</time>
      </trkpt>
      <trkpt lat="43.71625" lon="7.07994">
        <ele>292.39999389648</ele>
        <time>2023-07-30T10:42:56.000Z</time>
      </trkpt>
      <trkpt lat="43.71625" lon="7.07994">
        <ele>292.39999389648</ele>
        <time>2023-07-30T10:42:57.000Z</time>
      </trkpt>
      <trkpt lat="43.71626" lon="7.07994">
        <ele>292.39999389648</ele>
        <time>2023-07-30T10:42:58.000Z</time>
      </trkpt>
      <trkpt lat="43.71626" lon="7.07994">
        <ele>292.39999389648</ele>
        <time>2023-07-30T10:42:59.000Z</time>
      </trkpt>
      <trkpt lat="43.71627" lon="7.07995">
        <ele>292.39999389648</ele>
        <time>2023-07-30T10:43:00.000Z</time>
      </trkpt>
      <trkpt lat="43.71628" lon="7.07996">
        <ele>292.39999389648</ele>
        <time>2023-07-30T10:43:01.000Z</time>
      </trkpt>
      <trkpt lat="43.71628" lon="7.07997">
        <ele>292.39999389648</ele>
        <time>2023-07-30T10:43:02.000Z</time>
      </trkpt>
      <trkpt lat="43.71628" lon="7.07997">
        <ele>292.39999389648</ele>
        <time>2023-07-30T10:43:03.000Z</time>
      </trkpt>
      <trkpt lat="43.71628" lon="7.07997">
        <ele>292.39999389648</ele>
        <time>2023-07-30T10:43:04.000Z</time>
      </trkpt>
      <trkpt lat="43.71629" lon="7.07997">
        <ele>292.39999389648</ele>
        <time>2023-07-30T10:43:05.000Z</time>
      </trkpt>
      <trkpt lat="43.71629" lon="7.07997">
        <ele>292.39999389648</ele>
        <time>2023-07-30T10:43:06.000Z</time>
      </trkpt>
      <trkpt lat="43.71628" lon="7.07997">
        <ele>292.39999389648</ele>
        <time>2023-07-30T10:43:07.000Z</time>
      </trkpt>
      <trkpt lat="43.71628" lon="7.07997">
        <ele>292.39999389648</ele>
        <time>2023-07-30T10:43:08.000Z</time>
      </trkpt>
      <trkpt lat="43.71628" lon="7.07997">
        <ele>292.39999389648</ele>
        <time>2023-07-30T10:43:09.000Z</time>
      </trkpt>
      <trkpt lat="43.71628" lon="7.07997">
        <ele>292.39999389648</ele>
        <time>2023-07-30T10:43:10.000Z</time>
      </trkpt>
      <trkpt lat="43.71628" lon="7.07996">
        <ele>292.39999389648</ele>
        <time>2023-07-30T10:43:11.000Z</time>
      </trkpt>
      <trkpt lat="43.71628" lon="7.07995">
        <ele>292.39999389648</ele>
        <time>2023-07-30T10:43:12.000Z</time>
      </trkpt>
      <trkpt lat="43.71628" lon="7.07995">
        <ele>292.39999389648</ele>
        <time>2023-07-30T10:43:13.000Z</time>
      </trkpt>
      <trkpt lat="43.71627" lon="7.07995">
        <ele>292.39999389648</ele>
        <time>2023-07-30T10:43:14.000Z</time>
      </trkpt>
      <trkpt lat="43.71627" lon="7.07995">
        <ele>292.39999389648</ele>
        <time>2023-07-30T10:43:15.000Z</time>
      </trkpt>
      <trkpt lat="43.71627" lon="7.07995">
        <ele>292.39999389648</ele>
        <time>2023-07-30T10:43:16.000Z</time>
      </trkpt>
      <trkpt lat="43.71627" lon="7.07995">
        <ele>292.39999389648</ele>
        <time>2023-07-30T10:43:17.000Z</time>
      </trkpt>
      <trkpt lat="43.71627" lon="7.07996">
        <ele>292.39999389648</ele>
        <time>2023-07-30T10:43:18.000Z</time>
      </trkpt>
      <trkpt lat="43.71627" lon="7.07996">
        <ele>292.39999389648</ele>
        <time>2023-07-30T10:43:19.000Z</time>
      </trkpt>
      <trkpt lat="43.71627" lon="7.07995">
        <ele>292.39999389648</ele>
        <time>2023-07-30T10:43:20.000Z</time>
      </trkpt>
      <trkpt lat="43.71627" lon="7.07994">
        <ele>292.39999389648</ele>
        <time>2023-07-30T10:43:21.000Z</time>
      </trkpt>
      <trkpt lat="43.71627" lon="7.07994">
        <ele>292.39999389648</ele>
        <time>2023-07-30T10:43:22.000Z</time>
      </trkpt>
      <trkpt lat="43.71627" lon="7.07993">
        <ele>292.39999389648</ele>
        <time>2023-07-30T10:43:23.000Z</time>
      </trkpt>
      <trkpt lat="43.71627" lon="7.07993">
        <ele>292.39999389648</ele>
        <time>2023-07-30T10:43:24.000Z</time>
      </trkpt>
      <trkpt lat="43.71627" lon="7.07992">
        <ele>292.39999389648</ele>
        <time>2023-07-30T10:43:25.000Z</time>
      </trkpt>
      <trkpt lat="43.71627" lon="7.07992">
        <ele>292.39999389648</ele>
        <time>2023-07-30T10:43:26.000Z</time>
      </trkpt>
      <trkpt lat="43.71627" lon="7.07992">
        <ele>292.39999389648</ele>
        <time>2023-07-30T10:43:27.000Z</time>
      </trkpt>
      <trkpt lat="43.71627" lon="7.07992">
        <ele>292.39999389648</ele>
        <time>2023-07-30T10:43:28.000Z</time>
      </trkpt>
      <trkpt lat="43.71627" lon="7.07992">
        <ele>292.39999389648</ele>
        <time>2023-07-30T10:43:29.000Z</time>
      </trkpt>
      <trkpt lat="43.71627" lon="7.07992">
        <ele>292.39999389648</ele>
        <time>2023-07-30T10:43:30.000Z</time>
      </trkpt>
      <trkpt lat="43.71626" lon="7.07991">
        <ele>292.39999389648</ele>
        <time>2023-07-30T10:43:31.000Z</time>
      </trkpt>
      <trkpt lat="43.71626" lon="7.07991">
        <ele>292.39999389648</ele>
        <time>2023-07-30T10:43:32.000Z</time>
      </trkpt>
      <trkpt lat="43.71626" lon="7.07989">
        <ele>292.39999389648</ele>
        <time>2023-07-30T10:43:33.000Z</time>
      </trkpt>
      <trkpt lat="43.71626" lon="7.07988">
        <ele>292.39999389648</ele>
        <time>2023-07-30T10:43:34.000Z</time>
      </trkpt>
      <trkpt lat="43.71626" lon="7.07989">
        <ele>292.39999389648</ele>
        <time>2023-07-30T10:43:35.000Z</time>
      </trkpt>
      <trkpt lat="43.71626" lon="7.07988">
        <ele>292.39999389648</ele>
        <time>2023-07-30T10:43:36.000Z</time>
      </trkpt>
      <trkpt lat="43.71626" lon="7.07989">
        <ele>292.39999389648</ele>
        <time>2023-07-30T10:43:37.000Z</time>
      </trkpt>
      <trkpt lat="43.71626" lon="7.07989">
        <ele>292.39999389648</ele>
        <time>2023-07-30T10:43:38.000Z</time>
      </trkpt>
      <trkpt lat="43.71626" lon="7.07989">
        <ele>292.39999389648</ele>
        <time>2023-07-30T10:43:39.000Z</time>
      </trkpt>
      <trkpt lat="43.71625" lon="7.07989">
        <ele>292.39999389648</ele>
        <time>2023-07-30T10:43:40.000Z</time>
      </trkpt>
      <trkpt lat="43.71625" lon="7.07989">
        <ele>292.39999389648</ele>
        <time>2023-07-30T10:43:41.000Z</time>
      </trkpt>
      <trkpt lat="43.71625" lon="7.07989">
        <ele>292.39999389648</ele>
        <time>2023-07-30T10:43:42.000Z</time>
      </trkpt>
      <trkpt lat="43.71625" lon="7.07988">
        <ele>292.39999389648</ele>
        <time>2023-07-30T10:43:43.000Z</time>
      </trkpt>
      <trkpt lat="43.71625" lon="7.07988">
        <ele>292.39999389648</ele>
        <time>2023-07-30T10:43:44.000Z</time>
      </trkpt>
      <trkpt lat="43.71625" lon="7.07988">
        <ele>292.39999389648</ele>
        <time>2023-07-30T10:43:45.000Z</time>
      </trkpt>
      <trkpt lat="43.71625" lon="7.07988">
        <ele>292.39999389648</ele>
        <time>2023-07-30T10:43:46.000Z</time>
      </trkpt>
      <trkpt lat="43.71625" lon="7.07988">
        <ele>292.39999389648</ele>
        <time>2023-07-30T10:43:47.000Z</time>
      </trkpt>
      <trkpt lat="43.71625" lon="7.07988">
        <ele>292.39999389648</ele>
        <time>2023-07-30T10:43:48.000Z</time>
      </trkpt>
      <trkpt lat="43.71625" lon="7.07988">
        <ele>292.39999389648</ele>
        <time>2023-07-30T10:43:49.000Z</time>
      </trkpt>
      <trkpt lat="43.71625" lon="7.07988">
        <ele>292.39999389648</ele>
        <time>2023-07-30T10:43:50.000Z</time>
      </trkpt>
      <trkpt lat="43.71625" lon="7.07988">
        <ele>292.39999389648</ele>
        <time>2023-07-30T10:43:51.000Z</time>
      </trkpt>
      <trkpt lat="43.71625" lon="7.07988">
        <ele>292.39999389648</ele>
        <time>2023-07-30T10:43:52.000Z</time>
      </trkpt>
      <trkpt lat="43.71625" lon="7.07988">
        <ele>292.39999389648</ele>
        <time>2023-07-30T10:43:53.000Z</time>
      </trkpt>
      <trkpt lat="43.71625" lon="7.07988">
        <ele>292.39999389648</ele>
        <time>2023-07-30T10:43:54.000Z</time>
      </trkpt>
      <trkpt lat="43.71625" lon="7.07988">
        <ele>292.39999389648</ele>
        <time>2023-07-30T10:43:55.000Z</time>
      </trkpt>
      <trkpt lat="43.71625" lon="7.07988">
        <ele>292.39999389648</ele>
        <time>2023-07-30T10:43:56.000Z</time>
      </trkpt>
      <trkpt lat="43.71625" lon="7.07988">
        <ele>292.39999389648</ele>
        <time>2023-07-30T10:43:57.000Z</time>
      </trkpt>
      <trkpt lat="43.71625" lon="7.07988">
        <ele>292.39999389648</ele>
        <time>2023-07-30T10:43:58.000Z</time>
      </trkpt>
    </trkseg>
  </trk>
</gpx>